<?xml version='1.0' encoding='UTF-8'?><gpx version="1.1" creator="JPX - https://github.com/jenetics/jpx" xmlns="http://www.topografix.com/GPX/1/1"><trk><trkseg><trkpt lat="41.09149507023327" lon="14.263382838149719"><ele>44.0</ele><time>2026-04-11T12:11:35.586Z</time></trkpt><trkpt lat="41.09191781950729" lon="14.26346404534401"><ele>44.0</ele><time>2026-04-11T12:12:30.15Z</time></trkpt><trkpt lat="41.09158837747343" lon="14.263285273594928"><ele>44.0</ele><time>2026-04-11T12:12:43.226Z</time></trkpt><trkpt lat="41.091440012716774" lon="14.26327642054694"><ele>44.0</ele><time>2026-04-11T12:12:47.005Z</time></trkpt><trkpt lat="41.091373803972935" lon="14.26326535961491"><ele>44.0</ele><time>2026-04-11T12:13:25.999Z</time></trkpt><trkpt lat="41.09136200546427" lon="14.263137584608312"><ele>44.0</ele><time>2026-04-11T12:13:27.999Z</time></trkpt><trkpt lat="41.0913667140383" lon="14.263030892952038"><ele>44.0</ele><time>2026-04-11T12:13:28.999Z</time></trkpt><trkpt lat="41.0913586436098" lon="14.262883035948445"><ele>43.5</ele><time>2026-04-11T12:13:29.999Z</time></trkpt><trkpt lat="41.09138593106853" lon="14.262715301028743"><ele>43.0</ele><time>2026-04-11T12:13:30.999Z</time></trkpt><trkpt lat="41.091386267116526" lon="14.262532760500019"><ele>42.5</ele><time>2026-04-11T12:13:31.999Z</time></trkpt><trkpt lat="41.091386520396796" lon="14.26239516786761"><ele>42.0</ele><time>2026-04-11T12:13:32.999Z</time></trkpt><trkpt lat="41.09137059888319" lon="14.262279794980161"><ele>41.8</ele><time>2026-04-11T12:13:34Z</time></trkpt><trkpt lat="41.0913709505759" lon="14.262173220572842"><ele>41.6</ele><time>2026-04-11T12:13:35Z</time></trkpt><trkpt lat="41.09136422691123" lon="14.262050994222664"><ele>41.4</ele><time>2026-04-11T12:13:36Z</time></trkpt><trkpt lat="41.09135953197341" lon="14.26191104780504"><ele>41.199999999999996</ele><time>2026-04-11T12:13:37Z</time></trkpt><trkpt lat="41.091369261318995" lon="14.261759758079382"><ele>41.0</ele><time>2026-04-11T12:13:38Z</time></trkpt><trkpt lat="41.091379855717335" lon="14.261606392954127"><ele>41.0</ele><time>2026-04-11T12:13:39Z</time></trkpt><trkpt lat="41.09139025267184" lon="14.261459300624255"><ele>41.0</ele><time>2026-04-11T12:13:40Z</time></trkpt><trkpt lat="41.09138498520665" lon="14.26130444931644"><ele>41.0</ele><time>2026-04-11T12:13:41Z</time></trkpt><trkpt lat="41.091380005913116" lon="14.261151536162423"><ele>41.0</ele><time>2026-04-11T12:13:42Z</time></trkpt><trkpt lat="41.091383184183975" lon="14.260979937251712"><ele>40.8</ele><time>2026-04-11T12:13:43Z</time></trkpt><trkpt lat="41.091382092702794" lon="14.260834566944078"><ele>40.599999999999994</ele><time>2026-04-11T12:13:44Z</time></trkpt><trkpt lat="41.09138752815519" lon="14.260683711548635"><ele>40.4</ele><time>2026-04-11T12:13:45Z</time></trkpt><trkpt lat="41.09139155103759" lon="14.260558944309158"><ele>40.2</ele><time>2026-04-11T12:13:46Z</time></trkpt><trkpt lat="41.091392658228386" lon="14.26042779489777"><ele>40.0</ele><time>2026-04-11T12:13:47Z</time></trkpt><trkpt lat="41.09138534727481" lon="14.260285973981174"><ele>39.833333333333336</ele><time>2026-04-11T12:13:48Z</time></trkpt><trkpt lat="41.09137903251093" lon="14.260156458962292"><ele>39.66666666666667</ele><time>2026-04-11T12:13:49Z</time></trkpt><trkpt lat="41.091365497371854" lon="14.260042623930799"><ele>39.5</ele><time>2026-04-11T12:13:50Z</time></trkpt><trkpt lat="41.091349575754094" lon="14.259948532678493"><ele>39.333333333333336</ele><time>2026-04-11T12:13:51Z</time></trkpt><trkpt lat="41.091374740261095" lon="14.259847932288249"><ele>39.166666666666664</ele><time>2026-04-11T12:13:52Z</time></trkpt><trkpt lat="41.09141898515381" lon="14.25977520070719"><ele>39.0</ele><time>2026-04-11T12:13:53Z</time></trkpt><trkpt lat="41.09152256350987" lon="14.259770218870438"><ele>39.0</ele><time>2026-04-11T12:13:55Z</time></trkpt><trkpt lat="41.091617060753144" lon="14.259750548051635"><ele>39.0</ele><time>2026-04-11T12:13:57Z</time></trkpt><trkpt lat="41.09164193100745" lon="14.259465705039439"><ele>39.0</ele><time>2026-04-11T12:13:58Z</time></trkpt><trkpt lat="41.091644974688215" lon="14.259342357080614"><ele>39.0</ele><time>2026-04-11T12:13:59Z</time></trkpt><trkpt lat="41.09164675109526" lon="14.259223989218095"><ele>39.0</ele><time>2026-04-11T12:14:00Z</time></trkpt><trkpt lat="41.091647398536914" lon="14.259093800550813"><ele>39.0</ele><time>2026-04-11T12:14:01Z</time></trkpt><trkpt lat="41.09164256583275" lon="14.25895151190536"><ele>39.0</ele><time>2026-04-11T12:14:02Z</time></trkpt><trkpt lat="41.091636456599744" lon="14.258794086856739"><ele>39.0</ele><time>2026-04-11T12:14:03Z</time></trkpt><trkpt lat="41.09160996495751" lon="14.2586575386237"><ele>39.0</ele><time>2026-04-11T12:14:04Z</time></trkpt><trkpt lat="41.091583088172676" lon="14.258524269552733"><ele>38.8</ele><time>2026-04-11T12:14:05Z</time></trkpt><trkpt lat="41.09155858182102" lon="14.25839238303069"><ele>38.599999999999994</ele><time>2026-04-11T12:14:06Z</time></trkpt><trkpt lat="41.091549949118686" lon="14.258259684020173"><ele>38.4</ele><time>2026-04-11T12:14:07Z</time></trkpt><trkpt lat="41.09152962086027" lon="14.258123970765295"><ele>38.199999999999996</ele><time>2026-04-11T12:14:08Z</time></trkpt><trkpt lat="41.09151655101272" lon="14.257982752280416"><ele>38.0</ele><time>2026-04-11T12:14:09Z</time></trkpt><trkpt lat="41.09149238094869" lon="14.257851714727325"><ele>38.33333333333333</ele><time>2026-04-11T12:14:10Z</time></trkpt><trkpt lat="41.09147902016289" lon="14.25773872911824"><ele>38.666666666666664</ele><time>2026-04-11T12:14:11Z</time></trkpt><trkpt lat="41.091461743546986" lon="14.25762330812621"><ele>39.0</ele><time>2026-04-11T12:14:12Z</time></trkpt><trkpt lat="41.09144608730426" lon="14.257517659546169"><ele>39.333333333333336</ele><time>2026-04-11T12:14:13Z</time></trkpt><trkpt lat="41.091430849211825" lon="14.257430377701766"><ele>39.66666666666667</ele><time>2026-04-11T12:14:14Z</time></trkpt><trkpt lat="41.0914036967148" lon="14.257292017007682"><ele>40.0</ele><time>2026-04-11T12:14:16Z</time></trkpt><trkpt lat="41.09142248941631" lon="14.257176861847446"><ele>40.333333333333336</ele><time>2026-04-11T12:14:20Z</time></trkpt><trkpt lat="41.091477072480934" lon="14.25713313704955"><ele>40.66666666666667</ele><time>2026-04-11T12:14:21Z</time></trkpt><trkpt lat="41.09154499428103" lon="14.257128035452892"><ele>41.0</ele><time>2026-04-11T12:14:22Z</time></trkpt><trkpt lat="41.09161868923484" lon="14.25711638387397"><ele>41.333333333333336</ele><time>2026-04-11T12:14:23Z</time></trkpt><trkpt lat="41.09170591521558" lon="14.257109407935607"><ele>41.666666666666664</ele><time>2026-04-11T12:14:24Z</time></trkpt><trkpt lat="41.09178870083759" lon="14.257105141694693"><ele>42.0</ele><time>2026-04-11T12:14:25Z</time></trkpt><trkpt lat="41.09188795364157" lon="14.257108570946755"><ele>41.0</ele><time>2026-04-11T12:14:26Z</time></trkpt><trkpt lat="41.091999287571774" lon="14.25713102428704"><ele>40.0</ele><time>2026-04-11T12:14:27Z</time></trkpt><trkpt lat="41.092109575784065" lon="14.257133829545381"><ele>39.0</ele><time>2026-04-11T12:14:28Z</time></trkpt><trkpt lat="41.0922377753554" lon="14.257141778550022"><ele>38.0</ele><time>2026-04-11T12:14:29Z</time></trkpt><trkpt lat="41.09236264544726" lon="14.257147521523208"><ele>37.5</ele><time>2026-04-11T12:14:30Z</time></trkpt><trkpt lat="41.09249033620347" lon="14.257145468644884"><ele>37.0</ele><time>2026-04-11T12:14:31Z</time></trkpt><trkpt lat="41.09260801463535" lon="14.25714431275319"><ele>36.5</ele><time>2026-04-11T12:14:32Z</time></trkpt><trkpt lat="41.09272614188062" lon="14.257138930922538"><ele>36.0</ele><time>2026-04-11T12:14:33Z</time></trkpt><trkpt lat="41.09284807106763" lon="14.25713434726572"><ele>36.0</ele><time>2026-04-11T12:14:34Z</time></trkpt><trkpt lat="41.09295744806655" lon="14.257139138669752"><ele>36.0</ele><time>2026-04-11T12:14:35Z</time></trkpt><trkpt lat="41.093057264347664" lon="14.257135289496603"><ele>36.0</ele><time>2026-04-11T12:14:36Z</time></trkpt><trkpt lat="41.09315506824808" lon="14.257135417937105"><ele>36.0</ele><time>2026-04-11T12:14:37Z</time></trkpt><trkpt lat="41.093256239965136" lon="14.257130986762514"><ele>36.0</ele><time>2026-04-11T12:14:38Z</time></trkpt><trkpt lat="41.093357881309466" lon="14.257124679511806"><ele>36.0</ele><time>2026-04-11T12:14:39Z</time></trkpt><trkpt lat="41.093456437247106" lon="14.257122574760903"><ele>36.0</ele><time>2026-04-11T12:14:40Z</time></trkpt><trkpt lat="41.09355446737027" lon="14.257115679179051"><ele>36.0</ele><time>2026-04-11T12:14:41Z</time></trkpt><trkpt lat="41.09365221388256" lon="14.257112812217018"><ele>36.0</ele><time>2026-04-11T12:14:42Z</time></trkpt><trkpt lat="41.09373460023553" lon="14.25710716321672"><ele>36.0</ele><time>2026-04-11T12:14:43Z</time></trkpt><trkpt lat="41.09381370736971" lon="14.25709684823545"><ele>36.0</ele><time>2026-04-11T12:14:44Z</time></trkpt><trkpt lat="41.09388324233462" lon="14.257109550351313"><ele>36.0</ele><time>2026-04-11T12:14:45Z</time></trkpt><trkpt lat="41.09398216437839" lon="14.257106617413045"><ele>36.0</ele><time>2026-04-11T12:14:47Z</time></trkpt><trkpt lat="41.09405173721857" lon="14.257108631847553"><ele>36.0</ele><time>2026-04-11T12:14:48Z</time></trkpt><trkpt lat="41.094120064067845" lon="14.257117298862726"><ele>36.0</ele><time>2026-04-11T12:14:49Z</time></trkpt><trkpt lat="41.09421286957137" lon="14.257164490162914"><ele>36.0</ele><time>2026-04-11T12:14:51Z</time></trkpt><trkpt lat="41.09430347900636" lon="14.257096066151263"><ele>36.0</ele><time>2026-04-11T12:14:53Z</time></trkpt><trkpt lat="41.09430801313419" lon="14.256962054867065"><ele>36.0</ele><time>2026-04-11T12:14:55Z</time></trkpt><trkpt lat="41.09425098511065" lon="14.256835855550143"><ele>36.0</ele><time>2026-04-11T12:14:57Z</time></trkpt><trkpt lat="41.09427914639588" lon="14.256722153755565"><ele>36.0</ele><time>2026-04-11T12:14:58Z</time></trkpt><trkpt lat="41.09428817427608" lon="14.256626174982282"><ele>36.0</ele><time>2026-04-11T12:14:58.999Z</time></trkpt><trkpt lat="41.09429577265314" lon="14.256525870478097"><ele>35.833333333333336</ele><time>2026-04-11T12:14:59.999Z</time></trkpt><trkpt lat="41.09428581419628" lon="14.256426007320364"><ele>35.666666666666664</ele><time>2026-04-11T12:15:00.999Z</time></trkpt><trkpt lat="41.09428514112253" lon="14.256329254715395"><ele>35.5</ele><time>2026-04-11T12:15:01.999Z</time></trkpt><trkpt lat="41.09428877347126" lon="14.256231558448494"><ele>35.33333333333333</ele><time>2026-04-11T12:15:02.999Z</time></trkpt><trkpt lat="41.09429305002153" lon="14.256144517896358"><ele>35.166666666666664</ele><time>2026-04-11T12:15:03.999Z</time></trkpt><trkpt lat="41.094303473229964" lon="14.255968527115863"><ele>35.0</ele><time>2026-04-11T12:15:05.999Z</time></trkpt><trkpt lat="41.094310000093195" lon="14.25585658852033"><ele>35.0</ele><time>2026-04-11T12:15:06.999Z</time></trkpt><trkpt lat="41.09431469362037" lon="14.255731872095765"><ele>35.0</ele><time>2026-04-11T12:15:07.999Z</time></trkpt><trkpt lat="41.09432086327826" lon="14.255604273953836"><ele>35.0</ele><time>2026-04-11T12:15:08.999Z</time></trkpt><trkpt lat="41.09432822589717" lon="14.255475501734567"><ele>35.0</ele><time>2026-04-11T12:15:09.999Z</time></trkpt><trkpt lat="41.094331549740865" lon="14.255350955211087"><ele>35.0</ele><time>2026-04-11T12:15:10.999Z</time></trkpt><trkpt lat="41.09433767262629" lon="14.25521638484573"><ele>35.0</ele><time>2026-04-11T12:15:11.999Z</time></trkpt><trkpt lat="41.09434336510816" lon="14.255077823573245"><ele>35.0</ele><time>2026-04-11T12:15:12.999Z</time></trkpt><trkpt lat="41.09434612782048" lon="14.254947297948577"><ele>35.0</ele><time>2026-04-11T12:15:14Z</time></trkpt><trkpt lat="41.09435259836558" lon="14.254811801023388"><ele>35.0</ele><time>2026-04-11T12:15:15Z</time></trkpt><trkpt lat="41.09436159494954" lon="14.254669932167824"><ele>35.0</ele><time>2026-04-11T12:15:16Z</time></trkpt><trkpt lat="41.09436780112407" lon="14.25452891114518"><ele>35.0</ele><time>2026-04-11T12:15:17Z</time></trkpt><trkpt lat="41.09437368011473" lon="14.25437988626164"><ele>35.0</ele><time>2026-04-11T12:15:18Z</time></trkpt><trkpt lat="41.094387110294264" lon="14.25423070271343"><ele>35.0</ele><time>2026-04-11T12:15:19Z</time></trkpt><trkpt lat="41.094398148999005" lon="14.25407623794005"><ele>35.0</ele><time>2026-04-11T12:15:20Z</time></trkpt><trkpt lat="41.09440473914343" lon="14.253938023918517"><ele>35.0</ele><time>2026-04-11T12:15:21Z</time></trkpt><trkpt lat="41.094413089519364" lon="14.25381584976633"><ele>34.83333333333333</ele><time>2026-04-11T12:15:22Z</time></trkpt><trkpt lat="41.09442063707247" lon="14.253700537843395"><ele>34.666666666666664</ele><time>2026-04-11T12:15:23Z</time></trkpt><trkpt lat="41.09442120436059" lon="14.253589574544234"><ele>34.5</ele><time>2026-04-11T12:15:24Z</time></trkpt><trkpt lat="41.0944192095404" lon="14.253486148562361"><ele>34.333333333333336</ele><time>2026-04-11T12:15:25Z</time></trkpt><trkpt lat="41.09441771881112" lon="14.25339183273945"><ele>34.16666666666667</ele><time>2026-04-11T12:15:26Z</time></trkpt><trkpt lat="41.09443327949888" lon="14.25326148853361"><ele>34.0</ele><time>2026-04-11T12:15:28Z</time></trkpt><trkpt lat="41.09462742745131" lon="14.253163740067857"><ele>34.0</ele><time>2026-04-11T12:15:30Z</time></trkpt><trkpt lat="41.09470954203182" lon="14.253161664313158"><ele>34.0</ele><time>2026-04-11T12:15:31Z</time></trkpt><trkpt lat="41.094807102994174" lon="14.25312579052203"><ele>34.0</ele><time>2026-04-11T12:15:32Z</time></trkpt><trkpt lat="41.09491072002748" lon="14.253093885629646"><ele>34.0</ele><time>2026-04-11T12:15:33Z</time></trkpt><trkpt lat="41.095013256082446" lon="14.253072657907305"><ele>34.0</ele><time>2026-04-11T12:15:34Z</time></trkpt><trkpt lat="41.095112788948384" lon="14.253047807986379"><ele>34.0</ele><time>2026-04-11T12:15:35Z</time></trkpt><trkpt lat="41.09522325626934" lon="14.253033182700898"><ele>34.0</ele><time>2026-04-11T12:15:36Z</time></trkpt><trkpt lat="41.09532092267334" lon="14.25301964720055"><ele>34.0</ele><time>2026-04-11T12:15:37Z</time></trkpt><trkpt lat="41.09540670155591" lon="14.253003694113003"><ele>34.0</ele><time>2026-04-11T12:15:38Z</time></trkpt><trkpt lat="41.09549496875273" lon="14.252993737910552"><ele>34.0</ele><time>2026-04-11T12:15:39Z</time></trkpt><trkpt lat="41.095596986874035" lon="14.252990642600226"><ele>34.0</ele><time>2026-04-11T12:15:40Z</time></trkpt><trkpt lat="41.09569485004567" lon="14.252979324305917"><ele>34.0</ele><time>2026-04-11T12:15:41Z</time></trkpt><trkpt lat="41.09578004278204" lon="14.252971132291032"><ele>34.0</ele><time>2026-04-11T12:15:42Z</time></trkpt><trkpt lat="41.09586910851452" lon="14.252973053439996"><ele>34.0</ele><time>2026-04-11T12:15:43Z</time></trkpt><trkpt lat="41.09597368380505" lon="14.252999255371186"><ele>34.0</ele><time>2026-04-11T12:15:44Z</time></trkpt><trkpt lat="41.096093080476486" lon="14.25300672719475"><ele>34.0</ele><time>2026-04-11T12:15:45Z</time></trkpt><trkpt lat="41.09618666004444" lon="14.253022443975903"><ele>34.0</ele><time>2026-04-11T12:15:46Z</time></trkpt><trkpt lat="41.09628193442127" lon="14.253045970844358"><ele>34.0</ele><time>2026-04-11T12:15:47Z</time></trkpt><trkpt lat="41.09636180175655" lon="14.253075200365661"><ele>34.0</ele><time>2026-04-11T12:15:48Z</time></trkpt><trkpt lat="41.09643498263067" lon="14.253097102250571"><ele>34.0</ele><time>2026-04-11T12:15:49Z</time></trkpt><trkpt lat="41.096493778479164" lon="14.2531293273033"><ele>34.0</ele><time>2026-04-11T12:15:50Z</time></trkpt><trkpt lat="41.09655990555713" lon="14.253167401657457"><ele>34.0</ele><time>2026-04-11T12:15:51Z</time></trkpt><trkpt lat="41.09662813240433" lon="14.253208671536276"><ele>34.0</ele><time>2026-04-11T12:15:52Z</time></trkpt><trkpt lat="41.0966873634992" lon="14.25327250971574"><ele>34.0</ele><time>2026-04-11T12:15:53Z</time></trkpt><trkpt lat="41.09672692630654" lon="14.253352384087627"><ele>34.0</ele><time>2026-04-11T12:15:54Z</time></trkpt><trkpt lat="41.09675705721417" lon="14.253426722616421"><ele>34.0</ele><time>2026-04-11T12:15:55Z</time></trkpt><trkpt lat="41.096819804909835" lon="14.253546756245075"><ele>34.0</ele><time>2026-04-11T12:15:57Z</time></trkpt><trkpt lat="41.09693598729994" lon="14.253603525677958"><ele>34.0</ele><time>2026-04-11T12:15:59Z</time></trkpt><trkpt lat="41.09700863917817" lon="14.253592488377336"><ele>34.0</ele><time>2026-04-11T12:16:00Z</time></trkpt><trkpt lat="41.09712691614141" lon="14.253521531945049"><ele>34.0</ele><time>2026-04-11T12:16:02Z</time></trkpt><trkpt lat="41.09717429103079" lon="14.253454302983528"><ele>34.0</ele><time>2026-04-11T12:16:03Z</time></trkpt><trkpt lat="41.09722627899346" lon="14.253296269036614"><ele>34.0</ele><time>2026-04-11T12:16:05Z</time></trkpt><trkpt lat="41.097239372125344" lon="14.25319970034657"><ele>34.333333333333336</ele><time>2026-04-11T12:16:06Z</time></trkpt><trkpt lat="41.09726012985281" lon="14.253102915572144"><ele>34.66666666666667</ele><time>2026-04-11T12:16:07Z</time></trkpt><trkpt lat="41.09730166686862" lon="14.253014596336406"><ele>35.0</ele><time>2026-04-11T12:16:08Z</time></trkpt><trkpt lat="41.097366581449634" lon="14.252937232088422"><ele>35.333333333333336</ele><time>2026-04-11T12:16:09Z</time></trkpt><trkpt lat="41.09743214163493" lon="14.252871814360613"><ele>35.666666666666664</ele><time>2026-04-11T12:16:10Z</time></trkpt><trkpt lat="41.09751464027235" lon="14.252834204166096"><ele>36.0</ele><time>2026-04-11T12:16:11Z</time></trkpt><trkpt lat="41.097599972433585" lon="14.252817774170401"><ele>36.0</ele><time>2026-04-11T12:16:12Z</time></trkpt><trkpt lat="41.09768417962265" lon="14.252802731648323"><ele>36.0</ele><time>2026-04-11T12:16:13Z</time></trkpt><trkpt lat="41.09776632235053" lon="14.252784352977013"><ele>36.0</ele><time>2026-04-11T12:16:14Z</time></trkpt><trkpt lat="41.09784904902684" lon="14.252768184976336"><ele>36.0</ele><time>2026-04-11T12:16:15Z</time></trkpt><trkpt lat="41.09793624638417" lon="14.252745415268944"><ele>36.0</ele><time>2026-04-11T12:16:16Z</time></trkpt><trkpt lat="41.098028850650735" lon="14.252728970234857"><ele>36.0</ele><time>2026-04-11T12:16:17Z</time></trkpt><trkpt lat="41.09813463322465" lon="14.252718788676269"><ele>36.0</ele><time>2026-04-11T12:16:18Z</time></trkpt><trkpt lat="41.098244505054275" lon="14.252715212206388"><ele>36.0</ele><time>2026-04-11T12:16:19Z</time></trkpt><trkpt lat="41.098350992132474" lon="14.252712566161694"><ele>36.0</ele><time>2026-04-11T12:16:20Z</time></trkpt><trkpt lat="41.09846276590387" lon="14.252704640119239"><ele>36.0</ele><time>2026-04-11T12:16:21Z</time></trkpt><trkpt lat="41.09858186644216" lon="14.252699805864388"><ele>36.0</ele><time>2026-04-11T12:16:22Z</time></trkpt><trkpt lat="41.098728163051206" lon="14.252693766399409"><ele>35.75</ele><time>2026-04-11T12:16:23Z</time></trkpt><trkpt lat="41.09887797770023" lon="14.252680206543014"><ele>35.5</ele><time>2026-04-11T12:16:24Z</time></trkpt><trkpt lat="41.099015139595856" lon="14.252651881959833"><ele>35.25</ele><time>2026-04-11T12:16:25Z</time></trkpt><trkpt lat="41.09916218550561" lon="14.25262753479905"><ele>35.0</ele><time>2026-04-11T12:16:26Z</time></trkpt><trkpt lat="41.09930202076531" lon="14.25261364763627"><ele>35.0</ele><time>2026-04-11T12:16:27Z</time></trkpt><trkpt lat="41.099444877012765" lon="14.25260091148305"><ele>35.0</ele><time>2026-04-11T12:16:28Z</time></trkpt><trkpt lat="41.09958891984743" lon="14.252577387023386"><ele>35.0</ele><time>2026-04-11T12:16:29Z</time></trkpt><trkpt lat="41.099722749658625" lon="14.252558640484091"><ele>35.0</ele><time>2026-04-11T12:16:30Z</time></trkpt><trkpt lat="41.099845332937825" lon="14.252549214376042"><ele>34.75</ele><time>2026-04-11T12:16:31Z</time></trkpt><trkpt lat="41.0999678510865" lon="14.252538588073286"><ele>34.5</ele><time>2026-04-11T12:16:32Z</time></trkpt><trkpt lat="41.10009027723678" lon="14.2525195014542"><ele>34.25</ele><time>2026-04-11T12:16:33Z</time></trkpt><trkpt lat="41.1002224537191" lon="14.252502228841724"><ele>34.0</ele><time>2026-04-11T12:16:34Z</time></trkpt><trkpt lat="41.100361048851596" lon="14.252480934777461"><ele>34.0</ele><time>2026-04-11T12:16:35Z</time></trkpt><trkpt lat="41.10049889271975" lon="14.252462998283814"><ele>34.0</ele><time>2026-04-11T12:16:36Z</time></trkpt><trkpt lat="41.10063316051483" lon="14.252444116610056"><ele>34.0</ele><time>2026-04-11T12:16:37Z</time></trkpt><trkpt lat="41.10077308800313" lon="14.252430056011574"><ele>34.0</ele><time>2026-04-11T12:16:38Z</time></trkpt><trkpt lat="41.10092547698731" lon="14.252435657855802"><ele>34.25</ele><time>2026-04-11T12:16:39Z</time></trkpt><trkpt lat="41.10107961978132" lon="14.252412613474931"><ele>34.5</ele><time>2026-04-11T12:16:40Z</time></trkpt><trkpt lat="41.10122577424684" lon="14.252392288433345"><ele>34.75</ele><time>2026-04-11T12:16:41Z</time></trkpt><trkpt lat="41.10136660927983" lon="14.252372517198266"><ele>35.0</ele><time>2026-04-11T12:16:42Z</time></trkpt><trkpt lat="41.10150149922239" lon="14.252358890355078"><ele>35.33333333333333</ele><time>2026-04-11T12:16:43.001Z</time></trkpt><trkpt lat="41.10164816406467" lon="14.252343172299739"><ele>35.666666666666664</ele><time>2026-04-11T12:16:44.001Z</time></trkpt><trkpt lat="41.101809329430935" lon="14.252326865702713"><ele>36.0</ele><time>2026-04-11T12:16:45.001Z</time></trkpt><trkpt lat="41.10197561482745" lon="14.25229420615962"><ele>36.0</ele><time>2026-04-11T12:16:46.001Z</time></trkpt><trkpt lat="41.10216739923361" lon="14.252291480238021"><ele>36.0</ele><time>2026-04-11T12:16:47.001Z</time></trkpt><trkpt lat="41.10237475527237" lon="14.252269271570325"><ele>36.0</ele><time>2026-04-11T12:16:48.001Z</time></trkpt><trkpt lat="41.102580130448125" lon="14.252230167591447"><ele>35.0</ele><time>2026-04-11T12:16:49.001Z</time></trkpt><trkpt lat="41.102792604568066" lon="14.252222021996872"><ele>34.0</ele><time>2026-04-11T12:16:50.001Z</time></trkpt><trkpt lat="41.10301471070364" lon="14.252201801469434"><ele>33.0</ele><time>2026-04-11T12:16:51.001Z</time></trkpt><trkpt lat="41.103239141488004" lon="14.252173601822738"><ele>34.0</ele><time>2026-04-11T12:16:52.001Z</time></trkpt><trkpt lat="41.10346750479249" lon="14.25215037238547"><ele>35.0</ele><time>2026-04-11T12:16:53.001Z</time></trkpt><trkpt lat="41.103697235216345" lon="14.252123762314007"><ele>35.0</ele><time>2026-04-11T12:16:54.001Z</time></trkpt><trkpt lat="41.10392155681328" lon="14.252098961033628"><ele>35.0</ele><time>2026-04-11T12:16:55.001Z</time></trkpt><trkpt lat="41.10414485744488" lon="14.252076499114724"><ele>35.0</ele><time>2026-04-11T12:16:56.001Z</time></trkpt><trkpt lat="41.10437072310664" lon="14.25205225030191"><ele>35.0</ele><time>2026-04-11T12:16:57.001Z</time></trkpt><trkpt lat="41.10458511909267" lon="14.252030044000657"><ele>35.0</ele><time>2026-04-11T12:16:58.001Z</time></trkpt><trkpt lat="41.104805207165775" lon="14.252007696569557"><ele>35.0</ele><time>2026-04-11T12:16:59.001Z</time></trkpt><trkpt lat="41.105031188689125" lon="14.251980971477007"><ele>34.5</ele><time>2026-04-11T12:17:00.001Z</time></trkpt><trkpt lat="41.105262010323" lon="14.251953558792826"><ele>34.0</ele><time>2026-04-11T12:17:01.001Z</time></trkpt><trkpt lat="41.10549571549801" lon="14.251924304980303"><ele>34.0</ele><time>2026-04-11T12:17:02.001Z</time></trkpt><trkpt lat="41.1057211557293" lon="14.251899344111541"><ele>34.0</ele><time>2026-04-11T12:17:03.001Z</time></trkpt><trkpt lat="41.10595371475902" lon="14.251884346815503"><ele>34.333333333333336</ele><time>2026-04-11T12:17:04.001Z</time></trkpt><trkpt lat="41.10618807199405" lon="14.251856129093497"><ele>34.666666666666664</ele><time>2026-04-11T12:17:05Z</time></trkpt><trkpt lat="41.106392364062266" lon="14.251828474122854"><ele>35.0</ele><time>2026-04-11T12:17:06Z</time></trkpt><trkpt lat="41.10658730872031" lon="14.251827358767173"><ele>35.33333333333333</ele><time>2026-04-11T12:17:07Z</time></trkpt><trkpt lat="41.106774482659944" lon="14.25180745386089"><ele>35.666666666666664</ele><time>2026-04-11T12:17:08Z</time></trkpt><trkpt lat="41.10696980970715" lon="14.251788216469118"><ele>36.0</ele><time>2026-04-11T12:17:09Z</time></trkpt><trkpt lat="41.1071659128382" lon="14.25176839629241"><ele>36.0</ele><time>2026-04-11T12:17:10Z</time></trkpt><trkpt lat="41.107371415348524" lon="14.251746656353287"><ele>36.0</ele><time>2026-04-11T12:17:11Z</time></trkpt><trkpt lat="41.107582872826356" lon="14.251724973368589"><ele>36.0</ele><time>2026-04-11T12:17:12Z</time></trkpt><trkpt lat="41.10779151660087" lon="14.251704643621418"><ele>36.333333333333336</ele><time>2026-04-11T12:17:13Z</time></trkpt><trkpt lat="41.10801476209761" lon="14.251680781166884"><ele>36.66666666666667</ele><time>2026-04-11T12:17:14Z</time></trkpt><trkpt lat="41.10823096455682" lon="14.251657229389338"><ele>37.0</ele><time>2026-04-11T12:17:15Z</time></trkpt><trkpt lat="41.1084457658259" lon="14.251633418083387"><ele>37.333333333333336</ele><time>2026-04-11T12:17:16Z</time></trkpt><trkpt lat="41.10864658237374" lon="14.251612406951049"><ele>37.666666666666664</ele><time>2026-04-11T12:17:17Z</time></trkpt><trkpt lat="41.10881965095842" lon="14.251578383854634"><ele>38.0</ele><time>2026-04-11T12:17:18Z</time></trkpt><trkpt lat="41.108968070258555" lon="14.251572024252141"><ele>38.0</ele><time>2026-04-11T12:17:19Z</time></trkpt><trkpt lat="41.10910506782674" lon="14.251571964029319"><ele>38.0</ele><time>2026-04-11T12:17:20Z</time></trkpt><trkpt lat="41.10924374106343" lon="14.251547951463225"><ele>38.0</ele><time>2026-04-11T12:17:21Z</time></trkpt><trkpt lat="41.10938836255925" lon="14.251514165740485"><ele>38.0</ele><time>2026-04-11T12:17:22Z</time></trkpt><trkpt lat="41.10955416794899" lon="14.251517925327903"><ele>38.0</ele><time>2026-04-11T12:17:23Z</time></trkpt><trkpt lat="41.10973697241748" lon="14.251497469954371"><ele>38.0</ele><time>2026-04-11T12:17:24Z</time></trkpt><trkpt lat="41.10993087051298" lon="14.251470546365914"><ele>38.0</ele><time>2026-04-11T12:17:25Z</time></trkpt><trkpt lat="41.110136573128536" lon="14.25144680931201"><ele>38.0</ele><time>2026-04-11T12:17:26Z</time></trkpt><trkpt lat="41.11034980638856" lon="14.25142704212522"><ele>38.0</ele><time>2026-04-11T12:17:27Z</time></trkpt><trkpt lat="41.11055914822175" lon="14.251407428143656"><ele>38.0</ele><time>2026-04-11T12:17:28Z</time></trkpt><trkpt lat="41.11077279835043" lon="14.251387341036493"><ele>38.0</ele><time>2026-04-11T12:17:29Z</time></trkpt><trkpt lat="41.11099278167508" lon="14.251364441001817"><ele>38.0</ele><time>2026-04-11T12:17:30Z</time></trkpt><trkpt lat="41.111212634974876" lon="14.251320213120403"><ele>38.0</ele><time>2026-04-11T12:17:31Z</time></trkpt><trkpt lat="41.11142153446011" lon="14.251302993215315"><ele>39.0</ele><time>2026-04-11T12:17:32Z</time></trkpt><trkpt lat="41.11160676595982" lon="14.251292866186676"><ele>40.0</ele><time>2026-04-11T12:17:33Z</time></trkpt><trkpt lat="41.11177307429469" lon="14.251277875939438"><ele>41.0</ele><time>2026-04-11T12:17:34Z</time></trkpt><trkpt lat="41.11190701466317" lon="14.251258922248425"><ele>41.0</ele><time>2026-04-11T12:17:35Z</time></trkpt><trkpt lat="41.112014515267894" lon="14.25124957374595"><ele>41.0</ele><time>2026-04-11T12:17:36Z</time></trkpt><trkpt lat="41.112106308588864" lon="14.251242151347844"><ele>41.0</ele><time>2026-04-11T12:17:37Z</time></trkpt><trkpt lat="41.11222957617623" lon="14.251215935904524"><ele>41.0</ele><time>2026-04-11T12:17:38Z</time></trkpt><trkpt lat="41.11238722396869" lon="14.25120858588218"><ele>41.33333333333333</ele><time>2026-04-11T12:17:39Z</time></trkpt><trkpt lat="41.11255738872992" lon="14.251169974962384"><ele>41.666666666666664</ele><time>2026-04-11T12:17:40Z</time></trkpt><trkpt lat="41.112745207673356" lon="14.251150645057644"><ele>42.0</ele><time>2026-04-11T12:17:41Z</time></trkpt><trkpt lat="41.112942760383895" lon="14.251133138127788"><ele>42.0</ele><time>2026-04-11T12:17:42Z</time></trkpt><trkpt lat="41.113154338078715" lon="14.251104138819048"><ele>42.0</ele><time>2026-04-11T12:17:43Z</time></trkpt><trkpt lat="41.11337204934081" lon="14.251098359115886"><ele>42.0</ele><time>2026-04-11T12:17:44Z</time></trkpt><trkpt lat="41.11357684375813" lon="14.251074904854939"><ele>42.333333333333336</ele><time>2026-04-11T12:17:45Z</time></trkpt><trkpt lat="41.11376325842608" lon="14.251053553148274"><ele>42.66666666666667</ele><time>2026-04-11T12:17:46Z</time></trkpt><trkpt lat="41.113945933133465" lon="14.251033144698745"><ele>43.0</ele><time>2026-04-11T12:17:47Z</time></trkpt><trkpt lat="41.11412242109218" lon="14.251013609557697"><ele>43.333333333333336</ele><time>2026-04-11T12:17:48Z</time></trkpt><trkpt lat="41.11431086526683" lon="14.250940684182973"><ele>43.666666666666664</ele><time>2026-04-11T12:17:49Z</time></trkpt><trkpt lat="41.114484308837966" lon="14.250924764219599"><ele>44.0</ele><time>2026-04-11T12:17:50Z</time></trkpt><trkpt lat="41.114650668268055" lon="14.250908708768875"><ele>44.0</ele><time>2026-04-11T12:17:51Z</time></trkpt><trkpt lat="41.11480780689847" lon="14.250905831265777"><ele>44.0</ele><time>2026-04-11T12:17:52Z</time></trkpt><trkpt lat="41.11496257977801" lon="14.250902910396452"><ele>44.0</ele><time>2026-04-11T12:17:53Z</time></trkpt><trkpt lat="41.11511612380011" lon="14.250890432694685"><ele>44.0</ele><time>2026-04-11T12:17:54Z</time></trkpt><trkpt lat="41.11526035733197" lon="14.250875117587286"><ele>44.0</ele><time>2026-04-11T12:17:55Z</time></trkpt><trkpt lat="41.115395794392136" lon="14.250859175137998"><ele>44.0</ele><time>2026-04-11T12:17:56Z</time></trkpt><trkpt lat="41.115531291561574" lon="14.250842935620664"><ele>44.0</ele><time>2026-04-11T12:17:57Z</time></trkpt><trkpt lat="41.11565712630556" lon="14.250829994995604"><ele>43.800000000000004</ele><time>2026-04-11T12:17:58Z</time></trkpt><trkpt lat="41.11574788601187" lon="14.250811281934984"><ele>43.6</ele><time>2026-04-11T12:17:59Z</time></trkpt><trkpt lat="41.11583334844789" lon="14.250793170677296"><ele>43.4</ele><time>2026-04-11T12:18:00Z</time></trkpt><trkpt lat="41.11592563257516" lon="14.250778286165357"><ele>43.2</ele><time>2026-04-11T12:18:01Z</time></trkpt><trkpt lat="41.11603173565624" lon="14.250745653660056"><ele>43.0</ele><time>2026-04-11T12:18:02Z</time></trkpt><trkpt lat="41.1161406264218" lon="14.25078076972831"><ele>43.0</ele><time>2026-04-11T12:18:03Z</time></trkpt><trkpt lat="41.11624982771318" lon="14.250767484307469"><ele>43.0</ele><time>2026-04-11T12:18:04Z</time></trkpt><trkpt lat="41.1163889689277" lon="14.25075010321119"><ele>43.0</ele><time>2026-04-11T12:18:05Z</time></trkpt><trkpt lat="41.116559357268144" lon="14.250729698062925"><ele>43.0</ele><time>2026-04-11T12:18:06Z</time></trkpt><trkpt lat="41.116749715125366" lon="14.250707660462268"><ele>42.333333333333336</ele><time>2026-04-11T12:18:07Z</time></trkpt><trkpt lat="41.116953212251225" lon="14.250686145420474"><ele>41.666666666666664</ele><time>2026-04-11T12:18:08Z</time></trkpt><trkpt lat="41.11716996081187" lon="14.250642134348949"><ele>41.0</ele><time>2026-04-11T12:18:09Z</time></trkpt><trkpt lat="41.11739282864681" lon="14.250636670907461"><ele>41.5</ele><time>2026-04-11T12:18:10Z</time></trkpt><trkpt lat="41.117616549849934" lon="14.250610489037944"><ele>42.0</ele><time>2026-04-11T12:18:11Z</time></trkpt><trkpt lat="41.11784600199049" lon="14.250583621088246"><ele>42.0</ele><time>2026-04-11T12:18:12Z</time></trkpt><trkpt lat="41.118067085241464" lon="14.250558423283655"><ele>42.0</ele><time>2026-04-11T12:18:13Z</time></trkpt><trkpt lat="41.11827689289252" lon="14.250536282069731"><ele>42.0</ele><time>2026-04-11T12:18:14Z</time></trkpt><trkpt lat="41.11846285655658" lon="14.250514030626173"><ele>42.666666666666664</ele><time>2026-04-11T12:18:15Z</time></trkpt><trkpt lat="41.11863426855341" lon="14.250509331415236"><ele>43.33333333333333</ele><time>2026-04-11T12:18:16Z</time></trkpt><trkpt lat="41.11881475700895" lon="14.250530457712884"><ele>44.0</ele><time>2026-04-11T12:18:17Z</time></trkpt><trkpt lat="41.11898896977802" lon="14.250557684520517"><ele>44.75</ele><time>2026-04-11T12:18:18Z</time></trkpt><trkpt lat="41.119137758971384" lon="14.250581211125285"><ele>45.5</ele><time>2026-04-11T12:18:19Z</time></trkpt><trkpt lat="41.119258473791085" lon="14.250600516124724"><ele>46.25</ele><time>2026-04-11T12:18:20Z</time></trkpt><trkpt lat="41.11935963321426" lon="14.250616693786002"><ele>47.0</ele><time>2026-04-11T12:18:21Z</time></trkpt><trkpt lat="41.11943722718137" lon="14.250607150994558"><ele>47.0</ele><time>2026-04-11T12:18:22Z</time></trkpt><trkpt lat="41.11951876807228" lon="14.250638017459034"><ele>47.0</ele><time>2026-04-11T12:18:23Z</time></trkpt><trkpt lat="41.11959360247557" lon="14.250640300786959"><ele>47.0</ele><time>2026-04-11T12:18:24Z</time></trkpt><trkpt lat="41.119730850325375" lon="14.250673153187659"><ele>47.0</ele><time>2026-04-11T12:18:26Z</time></trkpt><trkpt lat="41.119803750133876" lon="14.25068140326027"><ele>47.0</ele><time>2026-04-11T12:18:27Z</time></trkpt><trkpt lat="41.119921998829014" lon="14.250697466004425"><ele>47.166666666666664</ele><time>2026-04-11T12:18:29Z</time></trkpt><trkpt lat="41.12000376016094" lon="14.250708572349343"><ele>47.33333333333333</ele><time>2026-04-11T12:18:31.001Z</time></trkpt><trkpt lat="41.12010348301221" lon="14.250722118570557"><ele>47.5</ele><time>2026-04-11T12:18:33.001Z</time></trkpt><trkpt lat="41.12021338733773" lon="14.250737047824803"><ele>47.666666666666664</ele><time>2026-04-11T12:18:35.001Z</time></trkpt><trkpt lat="41.12028305234682" lon="14.25074651102721"><ele>47.833333333333336</ele><time>2026-04-11T12:18:37.001Z</time></trkpt><trkpt lat="41.12036499199214" lon="14.250757641598291"><ele>48.0</ele><time>2026-04-11T12:18:39.001Z</time></trkpt><trkpt lat="41.12046798256068" lon="14.250771633246014"><ele>48.0</ele><time>2026-04-11T12:18:41.001Z</time></trkpt><trkpt lat="41.120574515874495" lon="14.250786104596504"><ele>48.0</ele><time>2026-04-11T12:18:43.001Z</time></trkpt><trkpt lat="41.12071145741414" lon="14.250809107503343"><ele>48.0</ele><time>2026-04-11T12:18:45.001Z</time></trkpt><trkpt lat="41.12078696973314" lon="14.25082334540891"><ele>48.0</ele><time>2026-04-11T12:18:46.001Z</time></trkpt><trkpt lat="41.12087312371525" lon="14.250828384917586"><ele>48.0</ele><time>2026-04-11T12:18:47.001Z</time></trkpt><trkpt lat="41.12096062770912" lon="14.250833730611241"><ele>47.833333333333336</ele><time>2026-04-11T12:18:48.001Z</time></trkpt><trkpt lat="41.12104759275146" lon="14.250842707924171"><ele>47.666666666666664</ele><time>2026-04-11T12:18:49.001Z</time></trkpt><trkpt lat="41.12114661487432" lon="14.250853545046056"><ele>47.5</ele><time>2026-04-11T12:18:50.001Z</time></trkpt><trkpt lat="41.121235070496624" lon="14.250866712297197"><ele>47.33333333333333</ele><time>2026-04-11T12:18:51.001Z</time></trkpt><trkpt lat="41.12132226146944" lon="14.250878642032864"><ele>47.166666666666664</ele><time>2026-04-11T12:18:52.001Z</time></trkpt><trkpt lat="41.12140463226215" lon="14.250893585635492"><ele>47.0</ele><time>2026-04-11T12:18:53.001Z</time></trkpt><trkpt lat="41.12146832358083" lon="14.250899219578649"><ele>47.0</ele><time>2026-04-11T12:18:54.001Z</time></trkpt><trkpt lat="41.1215358012231" lon="14.250897310714128"><ele>47.0</ele><time>2026-04-11T12:18:55.001Z</time></trkpt><trkpt lat="41.121650509808426" lon="14.250931342150091"><ele>47.0</ele><time>2026-04-11T12:18:57.001Z</time></trkpt><trkpt lat="41.1217261640814" lon="14.250941829108648"><ele>47.0</ele><time>2026-04-11T12:18:58.001Z</time></trkpt><trkpt lat="41.121799861412484" lon="14.250951855630277"><ele>47.0</ele><time>2026-04-11T12:18:59.001Z</time></trkpt><trkpt lat="41.121871953210736" lon="14.25096166372015"><ele>47.0</ele><time>2026-04-11T12:19:00.001Z</time></trkpt><trkpt lat="41.121943466432995" lon="14.250971393096977"><ele>47.14285714285714</ele><time>2026-04-11T12:19:01.001Z</time></trkpt><trkpt lat="41.122006786227736" lon="14.25096066630524"><ele>47.285714285714285</ele><time>2026-04-11T12:19:02.001Z</time></trkpt><trkpt lat="41.12207267589932" lon="14.250989289956584"><ele>47.42857142857143</ele><time>2026-04-11T12:19:03.001Z</time></trkpt><trkpt lat="41.12213862297823" lon="14.250998396126626"><ele>47.57142857142857</ele><time>2026-04-11T12:19:04.001Z</time></trkpt><trkpt lat="41.122211065306495" lon="14.25100578724834"><ele>47.714285714285715</ele><time>2026-04-11T12:19:05.001Z</time></trkpt><trkpt lat="41.12227567155559" lon="14.251013476001415"><ele>47.857142857142854</ele><time>2026-04-11T12:19:06.001Z</time></trkpt><trkpt lat="41.122343865114686" lon="14.251016877805842"><ele>48.0</ele><time>2026-04-11T12:19:07.001Z</time></trkpt><trkpt lat="41.12240766892269" lon="14.251019033809802"><ele>48.0</ele><time>2026-04-11T12:19:08.001Z</time></trkpt><trkpt lat="41.12251063113277" lon="14.251033680063811"><ele>48.0</ele><time>2026-04-11T12:19:10.001Z</time></trkpt><trkpt lat="41.122607862596006" lon="14.251060481178408"><ele>48.0</ele><time>2026-04-11T12:19:12Z</time></trkpt><trkpt lat="41.12271722843884" lon="14.251075170254808"><ele>48.0</ele><time>2026-04-11T12:19:14Z</time></trkpt><trkpt lat="41.12283194901817" lon="14.251069321814265"><ele>48.0</ele><time>2026-04-11T12:19:16Z</time></trkpt><trkpt lat="41.12295474105379" lon="14.251084909339706"><ele>48.0</ele><time>2026-04-11T12:19:18Z</time></trkpt><trkpt lat="41.123071000099436" lon="14.251130570378383"><ele>48.0</ele><time>2026-04-11T12:19:20Z</time></trkpt><trkpt lat="41.12319664481731" lon="14.251152264737549"><ele>48.0</ele><time>2026-04-11T12:19:22Z</time></trkpt><trkpt lat="41.12326501691605" lon="14.251163427975598"><ele>48.0</ele><time>2026-04-11T12:19:23Z</time></trkpt><trkpt lat="41.123360227969805" lon="14.251159183001324"><ele>48.0</ele><time>2026-04-11T12:19:24Z</time></trkpt><trkpt lat="41.12347535126079" lon="14.25116172426958"><ele>48.33333333333333</ele><time>2026-04-11T12:19:25Z</time></trkpt><trkpt lat="41.12361752430627" lon="14.251200783472642"><ele>48.666666666666664</ele><time>2026-04-11T12:19:26Z</time></trkpt><trkpt lat="41.123784469347925" lon="14.25123258222092"><ele>49.0</ele><time>2026-04-11T12:19:27Z</time></trkpt><trkpt lat="41.123960538577506" lon="14.251259223129987"><ele>48.666666666666664</ele><time>2026-04-11T12:19:28Z</time></trkpt><trkpt lat="41.12411916836953" lon="14.25129177371596"><ele>48.33333333333333</ele><time>2026-04-11T12:19:29Z</time></trkpt><trkpt lat="41.12429072517203" lon="14.251309624879287"><ele>48.0</ele><time>2026-04-11T12:19:30Z</time></trkpt><trkpt lat="41.124444984243915" lon="14.251293591884249"><ele>48.0</ele><time>2026-04-11T12:19:31Z</time></trkpt><trkpt lat="41.12459969142143" lon="14.251316574132844"><ele>48.0</ele><time>2026-04-11T12:19:32Z</time></trkpt><trkpt lat="41.124731098538476" lon="14.251331348460742"><ele>48.0</ele><time>2026-04-11T12:19:33Z</time></trkpt><trkpt lat="41.12486759851284" lon="14.251366923361829"><ele>48.0</ele><time>2026-04-11T12:19:34Z</time></trkpt><trkpt lat="41.12501412786528" lon="14.251384622806507"><ele>48.4</ele><time>2026-04-11T12:19:35Z</time></trkpt><trkpt lat="41.12512845252198" lon="14.251419508288063"><ele>48.8</ele><time>2026-04-11T12:19:36Z</time></trkpt><trkpt lat="41.12523614816344" lon="14.251462002514447"><ele>49.2</ele><time>2026-04-11T12:19:37Z</time></trkpt><trkpt lat="41.12533783886087" lon="14.251508212538745"><ele>49.6</ele><time>2026-04-11T12:19:38Z</time></trkpt><trkpt lat="41.12543274136875" lon="14.25154871753124"><ele>50.0</ele><time>2026-04-11T12:19:39Z</time></trkpt><trkpt lat="41.125540628749405" lon="14.251592682343269"><ele>50.0</ele><time>2026-04-11T12:19:40Z</time></trkpt><trkpt lat="41.125671504113996" lon="14.251667519991516"><ele>50.0</ele><time>2026-04-11T12:19:41Z</time></trkpt><trkpt lat="41.125811112901545" lon="14.251745286833948"><ele>50.0</ele><time>2026-04-11T12:19:42Z</time></trkpt><trkpt lat="41.12596281820924" lon="14.25180007522507"><ele>49.66666666666667</ele><time>2026-04-11T12:19:43Z</time></trkpt><trkpt lat="41.12613176719319" lon="14.251887740812776"><ele>49.33333333333333</ele><time>2026-04-11T12:19:44Z</time></trkpt><trkpt lat="41.12629534275108" lon="14.25198750392614"><ele>49.0</ele><time>2026-04-11T12:19:45Z</time></trkpt><trkpt lat="41.12647412309784" lon="14.252106789555684"><ele>48.33333333333333</ele><time>2026-04-11T12:19:46Z</time></trkpt><trkpt lat="41.12664478689999" lon="14.252247144169415"><ele>47.666666666666664</ele><time>2026-04-11T12:19:47Z</time></trkpt><trkpt lat="41.12680900055916" lon="14.252411537962223"><ele>47.0</ele><time>2026-04-11T12:19:48Z</time></trkpt><trkpt lat="41.12697797830539" lon="14.252587993238016"><ele>47.0</ele><time>2026-04-11T12:19:49Z</time></trkpt><trkpt lat="41.12714042108356" lon="14.252779630540068"><ele>47.0</ele><time>2026-04-11T12:19:50Z</time></trkpt><trkpt lat="41.12729329038479" lon="14.252977841574504"><ele>47.0</ele><time>2026-04-11T12:19:51Z</time></trkpt><trkpt lat="41.127445746046845" lon="14.253185886408422"><ele>45.666666666666664</ele><time>2026-04-11T12:19:52Z</time></trkpt><trkpt lat="41.127577468621304" lon="14.253377637384023"><ele>44.333333333333336</ele><time>2026-04-11T12:19:53Z</time></trkpt><trkpt lat="41.127702487788284" lon="14.253563786057823"><ele>43.0</ele><time>2026-04-11T12:19:54Z</time></trkpt><trkpt lat="41.12784430496223" lon="14.253757805875424"><ele>43.0</ele><time>2026-04-11T12:19:55Z</time></trkpt><trkpt lat="41.12798287486884" lon="14.253952860733603"><ele>43.0</ele><time>2026-04-11T12:19:56Z</time></trkpt><trkpt lat="41.128116872545846" lon="14.254151986845002"><ele>43.0</ele><time>2026-04-11T12:19:57Z</time></trkpt><trkpt lat="41.12825347981945" lon="14.254361816530936"><ele>43.0</ele><time>2026-04-11T12:19:58Z</time></trkpt><trkpt lat="41.128382710088154" lon="14.254583787269526"><ele>43.0</ele><time>2026-04-11T12:19:59Z</time></trkpt><trkpt lat="41.128513280984656" lon="14.254810450181163"><ele>43.0</ele><time>2026-04-11T12:20:00Z</time></trkpt><trkpt lat="41.1286295912344" lon="14.255042392213273"><ele>43.0</ele><time>2026-04-11T12:20:01Z</time></trkpt><trkpt lat="41.128747556488165" lon="14.255277189867035"><ele>43.0</ele><time>2026-04-11T12:20:02Z</time></trkpt><trkpt lat="41.12885423451095" lon="14.255515412983584"><ele>43.0</ele><time>2026-04-11T12:20:03Z</time></trkpt><trkpt lat="41.128954123569414" lon="14.255755847948814"><ele>43.333333333333336</ele><time>2026-04-11T12:20:04Z</time></trkpt><trkpt lat="41.1290511008427" lon="14.256001533399022"><ele>43.666666666666664</ele><time>2026-04-11T12:20:05Z</time></trkpt><trkpt lat="41.12912942989083" lon="14.256258164969342"><ele>44.0</ele><time>2026-04-11T12:20:06Z</time></trkpt><trkpt lat="41.12919213580189" lon="14.256523707834795"><ele>42.33333333333333</ele><time>2026-04-11T12:20:07Z</time></trkpt><trkpt lat="41.12924495291394" lon="14.256799530400185"><ele>40.666666666666664</ele><time>2026-04-11T12:20:08Z</time></trkpt><trkpt lat="41.12929362901108" lon="14.257075221736192"><ele>39.0</ele><time>2026-04-11T12:20:09Z</time></trkpt><trkpt lat="41.12934698141023" lon="14.257356082023442"><ele>39.0</ele><time>2026-04-11T12:20:10Z</time></trkpt><trkpt lat="41.129396222172645" lon="14.25764140983235"><ele>39.0</ele><time>2026-04-11T12:20:11Z</time></trkpt><trkpt lat="41.12944184912799" lon="14.257918941638293"><ele>39.0</ele><time>2026-04-11T12:20:12Z</time></trkpt><trkpt lat="41.12947919680639" lon="14.258180998074149"><ele>38.666666666666664</ele><time>2026-04-11T12:20:13Z</time></trkpt><trkpt lat="41.129527759928216" lon="14.25843584811123"><ele>38.33333333333333</ele><time>2026-04-11T12:20:14Z</time></trkpt><trkpt lat="41.12958168260343" lon="14.258691465967527"><ele>38.0</ele><time>2026-04-11T12:20:15Z</time></trkpt><trkpt lat="41.12962969510307" lon="14.258933626513851"><ele>38.0</ele><time>2026-04-11T12:20:16Z</time></trkpt><trkpt lat="41.12967291920859" lon="14.259166340375668"><ele>38.0</ele><time>2026-04-11T12:20:17Z</time></trkpt><trkpt lat="41.12971789537381" lon="14.259415630605137"><ele>38.0</ele><time>2026-04-11T12:20:18Z</time></trkpt><trkpt lat="41.12975763367163" lon="14.259667614715367"><ele>38.666666666666664</ele><time>2026-04-11T12:20:19Z</time></trkpt><trkpt lat="41.129788842127354" lon="14.259923705404107"><ele>39.333333333333336</ele><time>2026-04-11T12:20:20Z</time></trkpt><trkpt lat="41.12981477608153" lon="14.260176967242662"><ele>40.0</ele><time>2026-04-11T12:20:21Z</time></trkpt><trkpt lat="41.129836833304516" lon="14.260436215197256"><ele>41.0</ele><time>2026-04-11T12:20:22Z</time></trkpt><trkpt lat="41.12985306722788" lon="14.260702384982402"><ele>42.0</ele><time>2026-04-11T12:20:23.001Z</time></trkpt><trkpt lat="41.12987099355546" lon="14.260969102348227"><ele>43.0</ele><time>2026-04-11T12:20:24.001Z</time></trkpt><trkpt lat="41.12989090303718" lon="14.261235159533891"><ele>39.66666666666667</ele><time>2026-04-11T12:20:25.001Z</time></trkpt><trkpt lat="41.129909114329344" lon="14.261498327698606"><ele>36.333333333333336</ele><time>2026-04-11T12:20:26.001Z</time></trkpt><trkpt lat="41.12993130950744" lon="14.261744105867601"><ele>33.0</ele><time>2026-04-11T12:20:27.001Z</time></trkpt><trkpt lat="41.12996103226162" lon="14.261971866488762"><ele>33.0</ele><time>2026-04-11T12:20:28.001Z</time></trkpt><trkpt lat="41.130001539484795" lon="14.262170330228939"><ele>33.0</ele><time>2026-04-11T12:20:29.001Z</time></trkpt><trkpt lat="41.13005822291282" lon="14.262348108868423"><ele>33.0</ele><time>2026-04-11T12:20:30.001Z</time></trkpt><trkpt lat="41.13015364022873" lon="14.262526594326228"><ele>33.0</ele><time>2026-04-11T12:20:31.001Z</time></trkpt><trkpt lat="41.13026969147342" lon="14.26272311124831"><ele>33.0</ele><time>2026-04-11T12:20:32.001Z</time></trkpt><trkpt lat="41.13038612340329" lon="14.262934899358848"><ele>33.0</ele><time>2026-04-11T12:20:33.001Z</time></trkpt><trkpt lat="41.13050430989689" lon="14.263146291464908"><ele>33.0</ele><time>2026-04-11T12:20:34.001Z</time></trkpt><trkpt lat="41.130611476448685" lon="14.263335259395266"><ele>33.0</ele><time>2026-04-11T12:20:35.001Z</time></trkpt><trkpt lat="41.13070555642751" lon="14.263519721276063"><ele>33.0</ele><time>2026-04-11T12:20:36.001Z</time></trkpt><trkpt lat="41.13077855479955" lon="14.263718387861456"><ele>31.333333333333336</ele><time>2026-04-11T12:20:37.001Z</time></trkpt><trkpt lat="41.130833646552055" lon="14.263945984267174"><ele>29.666666666666668</ele><time>2026-04-11T12:20:38.001Z</time></trkpt><trkpt lat="41.130870103709846" lon="14.264193462664812"><ele>28.0</ele><time>2026-04-11T12:20:39.001Z</time></trkpt><trkpt lat="41.13088593626636" lon="14.264460158985388"><ele>28.0</ele><time>2026-04-11T12:20:40.001Z</time></trkpt><trkpt lat="41.13088343316378" lon="14.264732425902235"><ele>28.0</ele><time>2026-04-11T12:20:41.001Z</time></trkpt><trkpt lat="41.130873101809534" lon="14.265004331801176"><ele>28.0</ele><time>2026-04-11T12:20:42.001Z</time></trkpt><trkpt lat="41.13086171007398" lon="14.265278640463233"><ele>28.666666666666668</ele><time>2026-04-11T12:20:43.001Z</time></trkpt><trkpt lat="41.13084968739214" lon="14.265551435915675"><ele>29.333333333333336</ele><time>2026-04-11T12:20:44.001Z</time></trkpt><trkpt lat="41.130838119155456" lon="14.265828190082852"><ele>30.0</ele><time>2026-04-11T12:20:45.001Z</time></trkpt><trkpt lat="41.13083848354416" lon="14.266116017287981"><ele>30.333333333333336</ele><time>2026-04-11T12:20:46.001Z</time></trkpt><trkpt lat="41.130850936808145" lon="14.266389892756068"><ele>30.666666666666668</ele><time>2026-04-11T12:20:47.001Z</time></trkpt><trkpt lat="41.1308802514323" lon="14.266670948554037"><ele>31.0</ele><time>2026-04-11T12:20:48.001Z</time></trkpt><trkpt lat="41.13091191678305" lon="14.266941562147332"><ele>31.0</ele><time>2026-04-11T12:20:49.001Z</time></trkpt><trkpt lat="41.13094131973687" lon="14.267201487608368"><ele>31.0</ele><time>2026-04-11T12:20:50.001Z</time></trkpt><trkpt lat="41.13096967288454" lon="14.267449129574365"><ele>31.0</ele><time>2026-04-11T12:20:51.001Z</time></trkpt><trkpt lat="41.13099676700476" lon="14.267685994170025"><ele>31.0</ele><time>2026-04-11T12:20:52.001Z</time></trkpt><trkpt lat="41.13102494961167" lon="14.267905424595611"><ele>31.0</ele><time>2026-04-11T12:20:53.001Z</time></trkpt><trkpt lat="41.13105560335614" lon="14.26810471648173"><ele>31.0</ele><time>2026-04-11T12:20:54.001Z</time></trkpt><trkpt lat="41.131074955870545" lon="14.268287736211832"><ele>32.0</ele><time>2026-04-11T12:20:55.001Z</time></trkpt><trkpt lat="41.131087728832085" lon="14.26845927557721"><ele>33.0</ele><time>2026-04-11T12:20:56.001Z</time></trkpt><trkpt lat="41.13110688555665" lon="14.26862010647498"><ele>34.0</ele><time>2026-04-11T12:20:57.001Z</time></trkpt><trkpt lat="41.131129811008144" lon="14.26876765604855"><ele>35.0</ele><time>2026-04-11T12:20:58.001Z</time></trkpt><trkpt lat="41.131150907941276" lon="14.268914957363583"><ele>36.0</ele><time>2026-04-11T12:20:59.001Z</time></trkpt><trkpt lat="41.13116597048086" lon="14.269053752052917"><ele>37.0</ele><time>2026-04-11T12:21:00.001Z</time></trkpt><trkpt lat="41.131177843914145" lon="14.269158118678492"><ele>38.0</ele><time>2026-04-11T12:21:01.001Z</time></trkpt><trkpt lat="41.13119902247708" lon="14.269261977421335"><ele>39.0</ele><time>2026-04-11T12:21:03.001Z</time></trkpt><trkpt lat="41.1313044483191" lon="14.269294545731634"><ele>40.0</ele><time>2026-04-11T12:21:08.001Z</time></trkpt><trkpt lat="41.13127130531343" lon="14.26917415427013"><ele>40.0</ele><time>2026-04-11T12:21:40Z</time></trkpt><trkpt lat="41.13131323525966" lon="14.269293065854718"><ele>40.0</ele><time>2026-04-11T12:22:09Z</time></trkpt><trkpt lat="41.13129889252514" lon="14.269144098812822"><ele>40.0</ele><time>2026-04-11T12:22:11Z</time></trkpt><trkpt lat="41.13129530264576" lon="14.269296086045697"><ele>40.0</ele><time>2026-04-11T12:22:25.001Z</time></trkpt><trkpt lat="41.131279035820064" lon="14.269127134936662"><ele>40.0</ele><time>2026-04-11T12:22:27.001Z</time></trkpt><trkpt lat="41.13118126018398" lon="14.269125448611849"><ele>40.0</ele><time>2026-04-11T12:23:02.001Z</time></trkpt><trkpt lat="41.13116132852104" lon="14.26931864993991"><ele>40.0</ele><time>2026-04-11T12:23:17.001Z</time></trkpt><trkpt lat="41.13115929721228" lon="14.269123742819911"><ele>40.0</ele><time>2026-04-11T12:23:20.001Z</time></trkpt><trkpt lat="41.13121627384609" lon="14.269054547104089"><ele>40.0</ele><time>2026-04-11T12:23:33Z</time></trkpt><trkpt lat="41.131284962514236" lon="14.269075432111377"><ele>40.0</ele><time>2026-04-11T12:23:35Z</time></trkpt><trkpt lat="41.13132575196688" lon="14.26919304188215"><ele>40.0</ele><time>2026-04-11T12:24:20Z</time></trkpt><trkpt lat="41.131334101305974" lon="14.269279760097875"><ele>40.0</ele><time>2026-04-11T12:24:23Z</time></trkpt><trkpt lat="41.131380646513435" lon="14.269182601199116"><ele>40.0</ele><time>2026-04-11T12:25:03.001Z</time></trkpt><trkpt lat="41.13130940089303" lon="14.269113908738015"><ele>40.0</ele><time>2026-04-11T12:25:04.001Z</time></trkpt><trkpt lat="41.131206796262056" lon="14.269057431037195"><ele>40.0</ele><time>2026-04-11T12:25:05.001Z</time></trkpt><trkpt lat="41.13119703702802" lon="14.268969618778224"><ele>40.0</ele><time>2026-04-11T12:25:06.001Z</time></trkpt><trkpt lat="41.13118573352671" lon="14.26885763596929"><ele>40.0</ele><time>2026-04-11T12:25:07.001Z</time></trkpt><trkpt lat="41.13116898798059" lon="14.268736329186321"><ele>40.0</ele><time>2026-04-11T12:25:08.001Z</time></trkpt><trkpt lat="41.13115837682494" lon="14.268610097251557"><ele>40.0</ele><time>2026-04-11T12:25:09.001Z</time></trkpt><trkpt lat="41.13113595741169" lon="14.268483134481782"><ele>40.0</ele><time>2026-04-11T12:25:10.001Z</time></trkpt><trkpt lat="41.13112323740889" lon="14.268361306979761"><ele>39.16666666666667</ele><time>2026-04-11T12:25:11.001Z</time></trkpt><trkpt lat="41.13110980548094" lon="14.268245704556623"><ele>38.333333333333336</ele><time>2026-04-11T12:25:12.001Z</time></trkpt><trkpt lat="41.13110045628749" lon="14.26813246082974"><ele>37.5</ele><time>2026-04-11T12:25:13.001Z</time></trkpt><trkpt lat="41.131082256043086" lon="14.268021483314085"><ele>36.666666666666664</ele><time>2026-04-11T12:25:14.001Z</time></trkpt><trkpt lat="41.13106354100701" lon="14.267902192330876"><ele>35.83333333333333</ele><time>2026-04-11T12:25:15.001Z</time></trkpt><trkpt lat="41.13104779667456" lon="14.2677776652522"><ele>35.0</ele><time>2026-04-11T12:25:16.001Z</time></trkpt><trkpt lat="41.13103244436354" lon="14.267658013395621"><ele>34.4</ele><time>2026-04-11T12:25:17.001Z</time></trkpt><trkpt lat="41.131016105052105" lon="14.267530661708326"><ele>33.8</ele><time>2026-04-11T12:25:18.001Z</time></trkpt><trkpt lat="41.13100374660103" lon="14.267405847704403"><ele>33.2</ele><time>2026-04-11T12:25:19.001Z</time></trkpt><trkpt lat="41.13099372981027" lon="14.267283145204324"><ele>32.6</ele><time>2026-04-11T12:25:20.001Z</time></trkpt><trkpt lat="41.13097997470771" lon="14.26716116257371"><ele>32.0</ele><time>2026-04-11T12:25:21.001Z</time></trkpt><trkpt lat="41.13096951660186" lon="14.26703827370084"><ele>32.0</ele><time>2026-04-11T12:25:22.001Z</time></trkpt><trkpt lat="41.13095672911597" lon="14.266910248673382"><ele>32.0</ele><time>2026-04-11T12:25:23.001Z</time></trkpt><trkpt lat="41.130936645964894" lon="14.26678678121612"><ele>32.0</ele><time>2026-04-11T12:25:24.001Z</time></trkpt><trkpt lat="41.13092197751259" lon="14.266639803092735"><ele>32.0</ele><time>2026-04-11T12:25:25.001Z</time></trkpt><trkpt lat="41.13090719504659" lon="14.266452466365855"><ele>32.0</ele><time>2026-04-11T12:25:26.001Z</time></trkpt><trkpt lat="41.13089468034294" lon="14.266245350045253"><ele>31.666666666666664</ele><time>2026-04-11T12:25:27.001Z</time></trkpt><trkpt lat="41.130886897804224" lon="14.266040730323732"><ele>31.333333333333336</ele><time>2026-04-11T12:25:28.001Z</time></trkpt><trkpt lat="41.13088966107842" lon="14.265822277603933"><ele>31.0</ele><time>2026-04-11T12:25:28.999Z</time></trkpt><trkpt lat="41.1308950109404" lon="14.265604835259245"><ele>30.666666666666668</ele><time>2026-04-11T12:25:29.999Z</time></trkpt><trkpt lat="41.13090325181461" lon="14.26538894752173"><ele>30.333333333333336</ele><time>2026-04-11T12:25:30.999Z</time></trkpt><trkpt lat="41.13092387520165" lon="14.265167750746437"><ele>30.0</ele><time>2026-04-11T12:25:31.999Z</time></trkpt><trkpt lat="41.13093001728973" lon="14.264962681291294"><ele>29.333333333333336</ele><time>2026-04-11T12:25:32.999Z</time></trkpt><trkpt lat="41.130935620661596" lon="14.26476183987242"><ele>28.666666666666668</ele><time>2026-04-11T12:25:33.999Z</time></trkpt><trkpt lat="41.13093976003253" lon="14.264558926171551"><ele>28.0</ele><time>2026-04-11T12:25:34.999Z</time></trkpt><trkpt lat="41.13093932105426" lon="14.264350841540185"><ele>28.0</ele><time>2026-04-11T12:25:35.999Z</time></trkpt><trkpt lat="41.13092176750756" lon="14.264148091476828"><ele>28.0</ele><time>2026-04-11T12:25:36.999Z</time></trkpt><trkpt lat="41.130892918304454" lon="14.263927966848184"><ele>28.0</ele><time>2026-04-11T12:25:37.999Z</time></trkpt><trkpt lat="41.13084598103978" lon="14.263723832557273"><ele>28.0</ele><time>2026-04-11T12:25:38.999Z</time></trkpt><trkpt lat="41.13075523514566" lon="14.263552922599047"><ele>28.0</ele><time>2026-04-11T12:25:39.999Z</time></trkpt><trkpt lat="41.130650435639495" lon="14.263383339570957"><ele>28.0</ele><time>2026-04-11T12:25:40.999Z</time></trkpt><trkpt lat="41.13054356394581" lon="14.26319661305378"><ele>29.666666666666668</ele><time>2026-04-11T12:25:41.999Z</time></trkpt><trkpt lat="41.13043447918998" lon="14.263002781788922"><ele>31.333333333333336</ele><time>2026-04-11T12:25:42.999Z</time></trkpt><trkpt lat="41.130327834109934" lon="14.26280971216046"><ele>33.0</ele><time>2026-04-11T12:25:43.999Z</time></trkpt><trkpt lat="41.130223657015016" lon="14.262627892333171"><ele>33.0</ele><time>2026-04-11T12:25:44.999Z</time></trkpt><trkpt lat="41.13012585296463" lon="14.262442470299655"><ele>33.0</ele><time>2026-04-11T12:25:45.999Z</time></trkpt><trkpt lat="41.13004757756079" lon="14.262244053774499"><ele>33.0</ele><time>2026-04-11T12:25:46.999Z</time></trkpt><trkpt lat="41.12999285468585" lon="14.262033341077235"><ele>33.0</ele><time>2026-04-11T12:25:47.999Z</time></trkpt><trkpt lat="41.129960803919204" lon="14.261813521729733"><ele>33.0</ele><time>2026-04-11T12:25:49Z</time></trkpt><trkpt lat="41.12994231765303" lon="14.261592533764995"><ele>33.0</ele><time>2026-04-11T12:25:50Z</time></trkpt><trkpt lat="41.129931693494306" lon="14.261365888149863"><ele>33.25</ele><time>2026-04-11T12:25:51Z</time></trkpt><trkpt lat="41.12991392269802" lon="14.26117214383766"><ele>33.5</ele><time>2026-04-11T12:25:52Z</time></trkpt><trkpt lat="41.12989930710047" lon="14.26099330252914"><ele>33.75</ele><time>2026-04-11T12:25:53Z</time></trkpt><trkpt lat="41.12988498331732" lon="14.260809416604943"><ele>34.0</ele><time>2026-04-11T12:25:54Z</time></trkpt><trkpt lat="41.12987376398928" lon="14.26062101482859"><ele>35.2</ele><time>2026-04-11T12:25:55Z</time></trkpt><trkpt lat="41.12985789842569" lon="14.260444514866565"><ele>36.4</ele><time>2026-04-11T12:25:56Z</time></trkpt><trkpt lat="41.12984387460046" lon="14.260297646355415"><ele>37.6</ele><time>2026-04-11T12:25:57Z</time></trkpt><trkpt lat="41.12984455038824" lon="14.260166904566955"><ele>38.8</ele><time>2026-04-11T12:25:58Z</time></trkpt><trkpt lat="41.129834961598505" lon="14.260061122724219"><ele>40.0</ele><time>2026-04-11T12:25:59Z</time></trkpt><trkpt lat="41.1298325367038" lon="14.259974916716175"><ele>40.0</ele><time>2026-04-11T12:26:00Z</time></trkpt><trkpt lat="41.129867747768664" lon="14.259858173373978"><ele>40.0</ele><time>2026-04-11T12:26:02Z</time></trkpt><trkpt lat="41.130040014622786" lon="14.259846528547369"><ele>40.0</ele><time>2026-04-11T12:26:05Z</time></trkpt><trkpt lat="41.13011327161949" lon="14.259865492842872"><ele>40.0</ele><time>2026-04-11T12:26:06Z</time></trkpt><trkpt lat="41.13020449403263" lon="14.259890381231823"><ele>40.0</ele><time>2026-04-11T12:26:07Z</time></trkpt><trkpt lat="41.13029941998497" lon="14.259916280077107"><ele>39.0</ele><time>2026-04-11T12:26:08Z</time></trkpt><trkpt lat="41.130394643045655" lon="14.259941690105851"><ele>38.0</ele><time>2026-04-11T12:26:09Z</time></trkpt><trkpt lat="41.13048616090756" lon="14.259965817209821"><ele>37.0</ele><time>2026-04-11T12:26:10Z</time></trkpt><trkpt lat="41.13057098638495" lon="14.259987704676304"><ele>36.0</ele><time>2026-04-11T12:26:11Z</time></trkpt><trkpt lat="41.1306608542198" lon="14.260010893208978"><ele>35.0</ele><time>2026-04-11T12:26:12Z</time></trkpt><trkpt lat="41.1307574241644" lon="14.260035811054355"><ele>33.8</ele><time>2026-04-11T12:26:13Z</time></trkpt><trkpt lat="41.130858880537374" lon="14.260050539429779"><ele>32.6</ele><time>2026-04-11T12:26:14Z</time></trkpt><trkpt lat="41.13095012649612" lon="14.260075934529217"><ele>31.4</ele><time>2026-04-11T12:26:15Z</time></trkpt><trkpt lat="41.13104664326912" lon="14.260099706690584"><ele>30.2</ele><time>2026-04-11T12:26:16Z</time></trkpt><trkpt lat="41.131151716491935" lon="14.260125030559545"><ele>29.0</ele><time>2026-04-11T12:26:17Z</time></trkpt><trkpt lat="41.13125155271031" lon="14.2601566728806"><ele>29.0</ele><time>2026-04-11T12:26:18Z</time></trkpt><trkpt lat="41.13135278659461" lon="14.260175715968531"><ele>29.0</ele><time>2026-04-11T12:26:19Z</time></trkpt><trkpt lat="41.13144753164758" lon="14.260194083758652"><ele>29.0</ele><time>2026-04-11T12:26:20Z</time></trkpt><trkpt lat="41.131550953702394" lon="14.260224547409463"><ele>29.0</ele><time>2026-04-11T12:26:21Z</time></trkpt><trkpt lat="41.131658495090726" lon="14.260253772146722"><ele>29.0</ele><time>2026-04-11T12:26:22Z</time></trkpt><trkpt lat="41.1317696951591" lon="14.260275992577833"><ele>28.0</ele><time>2026-04-11T12:26:23Z</time></trkpt><trkpt lat="41.13188349825112" lon="14.260305205916334"><ele>27.0</ele><time>2026-04-11T12:26:24Z</time></trkpt><trkpt lat="41.131982000845994" lon="14.260335975790758"><ele>26.0</ele><time>2026-04-11T12:26:25Z</time></trkpt><trkpt lat="41.13208843430886" lon="14.26036211770312"><ele>25.0</ele><time>2026-04-11T12:26:26Z</time></trkpt><trkpt lat="41.13218953954165" lon="14.260387993219565"><ele>24.0</ele><time>2026-04-11T12:26:27Z</time></trkpt><trkpt lat="41.132282540825656" lon="14.260409733706403"><ele>24.0</ele><time>2026-04-11T12:26:28Z</time></trkpt><trkpt lat="41.13236859827144" lon="14.260431302405285"><ele>24.0</ele><time>2026-04-11T12:26:29Z</time></trkpt><trkpt lat="41.132439087476016" lon="14.260445323372231"><ele>24.0</ele><time>2026-04-11T12:26:30Z</time></trkpt><trkpt lat="41.132507933502325" lon="14.26046030876597"><ele>24.0</ele><time>2026-04-11T12:26:31Z</time></trkpt><trkpt lat="41.13257170113622" lon="14.260497253727422"><ele>24.0</ele><time>2026-04-11T12:26:32Z</time></trkpt><trkpt lat="41.13263963875047" lon="14.26051978879338"><ele>24.0</ele><time>2026-04-11T12:26:34Z</time></trkpt><trkpt lat="41.132729368889784" lon="14.26051765494807"><ele>25.4</ele><time>2026-04-11T12:26:42Z</time></trkpt><trkpt lat="41.1328298251028" lon="14.260384245559846"><ele>26.799999999999997</ele><time>2026-04-11T12:26:45Z</time></trkpt><trkpt lat="41.13284459717601" lon="14.260228468587046"><ele>28.200000000000003</ele><time>2026-04-11T12:26:47Z</time></trkpt><trkpt lat="41.13287643434313" lon="14.260126945378543"><ele>29.6</ele><time>2026-04-11T12:26:48Z</time></trkpt><trkpt lat="41.13290135622236" lon="14.260009574197912"><ele>31.0</ele><time>2026-04-11T12:26:49Z</time></trkpt><trkpt lat="41.13292359316711" lon="14.259881773437462"><ele>30.8</ele><time>2026-04-11T12:26:50Z</time></trkpt><trkpt lat="41.132932651955464" lon="14.259756644542103"><ele>30.6</ele><time>2026-04-11T12:26:51Z</time></trkpt><trkpt lat="41.1329602555627" lon="14.259642517027459"><ele>30.4</ele><time>2026-04-11T12:26:52Z</time></trkpt><trkpt lat="41.13299173014739" lon="14.25951359250786"><ele>30.2</ele><time>2026-04-11T12:26:53Z</time></trkpt><trkpt lat="41.13302629895406" lon="14.259381811152869"><ele>30.0</ele><time>2026-04-11T12:26:54Z</time></trkpt><trkpt lat="41.13308238922739" lon="14.25924821614129"><ele>30.0</ele><time>2026-04-11T12:26:55.001Z</time></trkpt><trkpt lat="41.13312722870178" lon="14.259073760819433"><ele>30.0</ele><time>2026-04-11T12:26:56.001Z</time></trkpt><trkpt lat="41.13320442273389" lon="14.2589047288416"><ele>30.0</ele><time>2026-04-11T12:26:57.001Z</time></trkpt><trkpt lat="41.133277592543095" lon="14.258712146428147"><ele>31.0</ele><time>2026-04-11T12:26:58.001Z</time></trkpt><trkpt lat="41.133346997414876" lon="14.258523152471998"><ele>32.0</ele><time>2026-04-11T12:26:59.001Z</time></trkpt><trkpt lat="41.13344589933152" lon="14.258334997574066"><ele>33.0</ele><time>2026-04-11T12:27:00.001Z</time></trkpt><trkpt lat="41.13354052071406" lon="14.258148701798296"><ele>31.666666666666664</ele><time>2026-04-11T12:27:01.001Z</time></trkpt><trkpt lat="41.13364360747533" lon="14.257954108052619"><ele>30.333333333333332</ele><time>2026-04-11T12:27:02.001Z</time></trkpt><trkpt lat="41.13375224755628" lon="14.257765343942172"><ele>29.0</ele><time>2026-04-11T12:27:03.001Z</time></trkpt><trkpt lat="41.13385759858317" lon="14.257584440859258"><ele>29.0</ele><time>2026-04-11T12:27:04.001Z</time></trkpt><trkpt lat="41.133969503637694" lon="14.257413503858219"><ele>29.0</ele><time>2026-04-11T12:27:05.001Z</time></trkpt><trkpt lat="41.13407860366619" lon="14.257259266955764"><ele>29.0</ele><time>2026-04-11T12:27:06.001Z</time></trkpt><trkpt lat="41.13419196521988" lon="14.257110449358137"><ele>29.5</ele><time>2026-04-11T12:27:07.001Z</time></trkpt><trkpt lat="41.134302923872724" lon="14.256964709925047"><ele>30.0</ele><time>2026-04-11T12:27:08.001Z</time></trkpt><trkpt lat="41.13440372351225" lon="14.25683620521561"><ele>30.5</ele><time>2026-04-11T12:27:09.001Z</time></trkpt><trkpt lat="41.13449919105877" lon="14.256716968771597"><ele>31.0</ele><time>2026-04-11T12:27:10.001Z</time></trkpt><trkpt lat="41.13459489501545" lon="14.256605022617574"><ele>31.0</ele><time>2026-04-11T12:27:11.001Z</time></trkpt><trkpt lat="41.1347130054092" lon="14.256502599945803"><ele>31.0</ele><time>2026-04-11T12:27:12.001Z</time></trkpt><trkpt lat="41.13481903527447" lon="14.256389146720378"><ele>31.0</ele><time>2026-04-11T12:27:13.001Z</time></trkpt><trkpt lat="41.13492493337311" lon="14.256275833271996"><ele>31.0</ele><time>2026-04-11T12:27:14.001Z</time></trkpt><trkpt lat="41.13501495238323" lon="14.2561795109977"><ele>31.200000000000003</ele><time>2026-04-11T12:27:15.001Z</time></trkpt><trkpt lat="41.13510170718762" lon="14.256086681189336"><ele>31.400000000000002</ele><time>2026-04-11T12:27:16.001Z</time></trkpt><trkpt lat="41.13517280272159" lon="14.25598347929829"><ele>31.6</ele><time>2026-04-11T12:27:17.001Z</time></trkpt><trkpt lat="41.135259408205314" lon="14.255892863770598"><ele>31.8</ele><time>2026-04-11T12:27:18.001Z</time></trkpt><trkpt lat="41.1353392995931" lon="14.255820659433597"><ele>32.0</ele><time>2026-04-11T12:27:19.001Z</time></trkpt><trkpt lat="41.13540401626227" lon="14.255744001460089"><ele>31.999999999999996</ele><time>2026-04-11T12:27:20.001Z</time></trkpt><trkpt lat="41.13548493505728" lon="14.255675415747794"><ele>32.0</ele><time>2026-04-11T12:27:21.001Z</time></trkpt><trkpt lat="41.13555072802791" lon="14.255609327840894"><ele>32.0</ele><time>2026-04-11T12:27:22.001Z</time></trkpt><trkpt lat="41.13561659882375" lon="14.255537983919975"><ele>32.0</ele><time>2026-04-11T12:27:23.001Z</time></trkpt><trkpt lat="41.13568163240217" lon="14.25545611581099"><ele>31.999999999999996</ele><time>2026-04-11T12:27:24.001Z</time></trkpt><trkpt lat="41.13574984464338" lon="14.255375488523356"><ele>32.0</ele><time>2026-04-11T12:27:25.001Z</time></trkpt><trkpt lat="41.13582629306189" lon="14.255308713130992"><ele>31.400000000000002</ele><time>2026-04-11T12:27:26.001Z</time></trkpt><trkpt lat="41.13589285656974" lon="14.255209044950162"><ele>30.800000000000004</ele><time>2026-04-11T12:27:27.001Z</time></trkpt><trkpt lat="41.13597527204474" lon="14.255122715997539"><ele>30.2</ele><time>2026-04-11T12:27:28.001Z</time></trkpt><trkpt lat="41.13605740892264" lon="14.255031949411551"><ele>29.6</ele><time>2026-04-11T12:27:29.001Z</time></trkpt><trkpt lat="41.13614299908937" lon="14.254937105083108"><ele>29.0</ele><time>2026-04-11T12:27:30.001Z</time></trkpt><trkpt lat="41.13622927108575" lon="14.254844083952085"><ele>28.799999999999997</ele><time>2026-04-11T12:27:31.001Z</time></trkpt><trkpt lat="41.13631761904868" lon="14.254777615615055"><ele>28.599999999999998</ele><time>2026-04-11T12:27:32.001Z</time></trkpt><trkpt lat="41.13639141057969" lon="14.254701108567277"><ele>28.4</ele><time>2026-04-11T12:27:33.001Z</time></trkpt><trkpt lat="41.13647681974203" lon="14.254612940977474"><ele>28.2</ele><time>2026-04-11T12:27:34.001Z</time></trkpt><trkpt lat="41.13657931096609" lon="14.254507139588707"><ele>28.0</ele><time>2026-04-11T12:27:34.999Z</time></trkpt><trkpt lat="41.136687515479416" lon="14.254395440338756"><ele>28.2</ele><time>2026-04-11T12:27:35.999Z</time></trkpt><trkpt lat="41.13678238180594" lon="14.254271568432523"><ele>28.4</ele><time>2026-04-11T12:27:36.999Z</time></trkpt><trkpt lat="41.13687931115909" lon="14.254188123703246"><ele>28.599999999999998</ele><time>2026-04-11T12:27:37.999Z</time></trkpt><trkpt lat="41.136958100142316" lon="14.254093985424028"><ele>28.799999999999997</ele><time>2026-04-11T12:27:38.999Z</time></trkpt><trkpt lat="41.13701564268642" lon="14.253997144641259"><ele>29.0</ele><time>2026-04-11T12:27:39.999Z</time></trkpt><trkpt lat="41.13706487981521" lon="14.253896448892823"><ele>29.0</ele><time>2026-04-11T12:27:40.999Z</time></trkpt><trkpt lat="41.13710266951205" lon="14.253780685161065"><ele>29.0</ele><time>2026-04-11T12:27:41.999Z</time></trkpt><trkpt lat="41.137129456399684" lon="14.253659766174755"><ele>29.0</ele><time>2026-04-11T12:27:42.999Z</time></trkpt><trkpt lat="41.13713533645973" lon="14.25353150968469"><ele>29.0</ele><time>2026-04-11T12:27:43.999Z</time></trkpt><trkpt lat="41.137111623906875" lon="14.253401851071942"><ele>29.0</ele><time>2026-04-11T12:27:44.999Z</time></trkpt><trkpt lat="41.13708710524725" lon="14.253265689834548"><ele>31.25</ele><time>2026-04-11T12:27:45.999Z</time></trkpt><trkpt lat="41.13705643592268" lon="14.253097092610181"><ele>33.5</ele><time>2026-04-11T12:27:46.999Z</time></trkpt><trkpt lat="41.1370181043869" lon="14.25290602059444"><ele>35.75</ele><time>2026-04-11T12:27:47.999Z</time></trkpt><trkpt lat="41.13698894710327" lon="14.25274509503994"><ele>38.0</ele><time>2026-04-11T12:27:48.999Z</time></trkpt><trkpt lat="41.13695257450213" lon="14.252630230552258"><ele>38.0</ele><time>2026-04-11T12:27:49.999Z</time></trkpt><trkpt lat="41.136891550048155" lon="14.252547022456513"><ele>38.0</ele><time>2026-04-11T12:27:50.999Z</time></trkpt><trkpt lat="41.13679809507773" lon="14.252494434093048"><ele>38.0</ele><time>2026-04-11T12:27:51.999Z</time></trkpt><trkpt lat="41.13666697355522" lon="14.252462945943956"><ele>38.0</ele><time>2026-04-11T12:27:52.999Z</time></trkpt><trkpt lat="41.13651741201997" lon="14.252460408501502"><ele>38.25</ele><time>2026-04-11T12:27:54Z</time></trkpt><trkpt lat="41.13638964878315" lon="14.252451214472108"><ele>38.5</ele><time>2026-04-11T12:27:55Z</time></trkpt><trkpt lat="41.13629746764527" lon="14.252381514008587"><ele>38.75</ele><time>2026-04-11T12:27:56Z</time></trkpt><trkpt lat="41.1362291630296" lon="14.25225964840433"><ele>39.0</ele><time>2026-04-11T12:27:57Z</time></trkpt><trkpt lat="41.13617595883314" lon="14.252125806824559"><ele>39.0</ele><time>2026-04-11T12:27:58Z</time></trkpt><trkpt lat="41.136157340710945" lon="14.251994504526388"><ele>39.0</ele><time>2026-04-11T12:27:59Z</time></trkpt><trkpt lat="41.136168736135595" lon="14.251827627219162"><ele>39.0</ele><time>2026-04-11T12:28:00Z</time></trkpt><trkpt lat="41.1361948542187" lon="14.251624869556261"><ele>39.0</ele><time>2026-04-11T12:28:01Z</time></trkpt><trkpt lat="41.136224720386345" lon="14.251390475338097"><ele>40.0</ele><time>2026-04-11T12:28:02Z</time></trkpt><trkpt lat="41.1362559434049" lon="14.251137070791936"><ele>41.0</ele><time>2026-04-11T12:28:03Z</time></trkpt><trkpt lat="41.13628713876884" lon="14.25088067800068"><ele>42.0</ele><time>2026-04-11T12:28:04Z</time></trkpt><trkpt lat="41.13632013477992" lon="14.250596001825992"><ele>42.333333333333336</ele><time>2026-04-11T12:28:05Z</time></trkpt><trkpt lat="41.136351176161476" lon="14.250326592543166"><ele>42.66666666666667</ele><time>2026-04-11T12:28:06Z</time></trkpt><trkpt lat="41.13636929266794" lon="14.250042922298288"><ele>43.0</ele><time>2026-04-11T12:28:07Z</time></trkpt><trkpt lat="41.13640658325856" lon="14.249762491813067"><ele>42.333333333333336</ele><time>2026-04-11T12:28:08Z</time></trkpt><trkpt lat="41.13642788064667" lon="14.249485796136046"><ele>41.666666666666664</ele><time>2026-04-11T12:28:09Z</time></trkpt><trkpt lat="41.13645363097278" lon="14.249206263526448"><ele>41.0</ele><time>2026-04-11T12:28:10Z</time></trkpt><trkpt lat="41.13643717054434" lon="14.248910875280869"><ele>39.5</ele><time>2026-04-11T12:28:11Z</time></trkpt><trkpt lat="41.136431118031865" lon="14.24861537659286"><ele>38.0</ele><time>2026-04-11T12:28:12Z</time></trkpt><trkpt lat="41.13642147816544" lon="14.248314242171089"><ele>37.5</ele><time>2026-04-11T12:28:13Z</time></trkpt><trkpt lat="41.136407640439515" lon="14.248022623559576"><ele>37.0</ele><time>2026-04-11T12:28:14Z</time></trkpt><trkpt lat="41.136393623470155" lon="14.247715931714165"><ele>37.0</ele><time>2026-04-11T12:28:15Z</time></trkpt><trkpt lat="41.136388627663806" lon="14.247398050961767"><ele>37.0</ele><time>2026-04-11T12:28:16Z</time></trkpt><trkpt lat="41.13637431467047" lon="14.24708913509502"><ele>35.5</ele><time>2026-04-11T12:28:17Z</time></trkpt><trkpt lat="41.13635440222363" lon="14.246787005618206"><ele>34.0</ele><time>2026-04-11T12:28:18Z</time></trkpt><trkpt lat="41.13634219017863" lon="14.246470655986867"><ele>33.0</ele><time>2026-04-11T12:28:19Z</time></trkpt><trkpt lat="41.13633166170965" lon="14.246158594535427"><ele>32.0</ele><time>2026-04-11T12:28:20Z</time></trkpt><trkpt lat="41.13631688899644" lon="14.245869003975177"><ele>32.33333333333333</ele><time>2026-04-11T12:28:21Z</time></trkpt><trkpt lat="41.13630628349384" lon="14.245570341529708"><ele>32.666666666666664</ele><time>2026-04-11T12:28:22Z</time></trkpt><trkpt lat="41.13629655134823" lon="14.245276115528327"><ele>33.0</ele><time>2026-04-11T12:28:23Z</time></trkpt><trkpt lat="41.136291396457" lon="14.244970271473667"><ele>32.0</ele><time>2026-04-11T12:28:24Z</time></trkpt><trkpt lat="41.13627867582015" lon="14.244666169928582"><ele>31.0</ele><time>2026-04-11T12:28:25Z</time></trkpt><trkpt lat="41.136261559147705" lon="14.24436245176102"><ele>31.0</ele><time>2026-04-11T12:28:26Z</time></trkpt><trkpt lat="41.1362519912697" lon="14.2440502610142"><ele>31.0</ele><time>2026-04-11T12:28:27Z</time></trkpt><trkpt lat="41.13624195835186" lon="14.243727841376243"><ele>30.5</ele><time>2026-04-11T12:28:28Z</time></trkpt><trkpt lat="41.13622981253235" lon="14.2433933985799"><ele>30.0</ele><time>2026-04-11T12:28:29Z</time></trkpt><trkpt lat="41.136206337738415" lon="14.243064023054503"><ele>29.5</ele><time>2026-04-11T12:28:30Z</time></trkpt><trkpt lat="41.136168723231265" lon="14.24273286155477"><ele>29.0</ele><time>2026-04-11T12:28:31Z</time></trkpt><trkpt lat="41.1361191833825" lon="14.24240074544548"><ele>28.5</ele><time>2026-04-11T12:28:32Z</time></trkpt><trkpt lat="41.13606235074089" lon="14.24207718767021"><ele>28.0</ele><time>2026-04-11T12:28:33Z</time></trkpt><trkpt lat="41.136009375678384" lon="14.241752526365627"><ele>27.5</ele><time>2026-04-11T12:28:34Z</time></trkpt><trkpt lat="41.13595599773299" lon="14.241437815101676"><ele>27.0</ele><time>2026-04-11T12:28:35Z</time></trkpt><trkpt lat="41.13590739419016" lon="14.241117489646749"><ele>27.0</ele><time>2026-04-11T12:28:36Z</time></trkpt><trkpt lat="41.13585874914068" lon="14.240810928555216"><ele>27.0</ele><time>2026-04-11T12:28:37Z</time></trkpt><trkpt lat="41.135802596589095" lon="14.240503889675704"><ele>27.0</ele><time>2026-04-11T12:28:38Z</time></trkpt><trkpt lat="41.135747038076644" lon="14.240187913164101"><ele>27.0</ele><time>2026-04-11T12:28:39Z</time></trkpt><trkpt lat="41.13571091401149" lon="14.239870677043008"><ele>26.5</ele><time>2026-04-11T12:28:40Z</time></trkpt><trkpt lat="41.13565977249581" lon="14.23955214339948"><ele>26.0</ele><time>2026-04-11T12:28:41Z</time></trkpt><trkpt lat="41.13560613736761" lon="14.23922980043288"><ele>26.5</ele><time>2026-04-11T12:28:42Z</time></trkpt><trkpt lat="41.135552665798365" lon="14.238911522651858"><ele>27.0</ele><time>2026-04-11T12:28:43Z</time></trkpt><trkpt lat="41.135499426123914" lon="14.238593255527086"><ele>27.0</ele><time>2026-04-11T12:28:44Z</time></trkpt><trkpt lat="41.13544695428396" lon="14.238272734977059"><ele>27.0</ele><time>2026-04-11T12:28:45Z</time></trkpt><trkpt lat="41.135394732447494" lon="14.237954539703276"><ele>27.0</ele><time>2026-04-11T12:28:46.001Z</time></trkpt><trkpt lat="41.13534122497663" lon="14.23762723243787"><ele>27.0</ele><time>2026-04-11T12:28:47.001Z</time></trkpt><trkpt lat="41.13528768873733" lon="14.237301649779507"><ele>27.0</ele><time>2026-04-11T12:28:48.001Z</time></trkpt><trkpt lat="41.13523435690196" lon="14.23698124689922"><ele>27.0</ele><time>2026-04-11T12:28:49.001Z</time></trkpt><trkpt lat="41.135180864977194" lon="14.236660816261667"><ele>27.5</ele><time>2026-04-11T12:28:50.001Z</time></trkpt><trkpt lat="41.13512862860971" lon="14.236344670670855"><ele>28.0</ele><time>2026-04-11T12:28:51.001Z</time></trkpt><trkpt lat="41.13507736238331" lon="14.236031042006873"><ele>28.0</ele><time>2026-04-11T12:28:52.001Z</time></trkpt><trkpt lat="41.13502414757346" lon="14.235713137010412"><ele>28.0</ele><time>2026-04-11T12:28:53.001Z</time></trkpt><trkpt lat="41.134970477535624" lon="14.235397042235238"><ele>27.5</ele><time>2026-04-11T12:28:54.001Z</time></trkpt><trkpt lat="41.13491521565064" lon="14.235071572162187"><ele>27.0</ele><time>2026-04-11T12:28:55.001Z</time></trkpt><trkpt lat="41.13486035436857" lon="14.234742035771074"><ele>26.5</ele><time>2026-04-11T12:28:56.001Z</time></trkpt><trkpt lat="41.13480511410431" lon="14.234410935025082"><ele>26.0</ele><time>2026-04-11T12:28:57.001Z</time></trkpt><trkpt lat="41.134749829046676" lon="14.23408663750264"><ele>26.5</ele><time>2026-04-11T12:28:58.001Z</time></trkpt><trkpt lat="41.134683699730694" lon="14.233768459863219"><ele>27.0</ele><time>2026-04-11T12:28:59.001Z</time></trkpt><trkpt lat="41.13463238354493" lon="14.233447211619502"><ele>27.0</ele><time>2026-04-11T12:29:00.001Z</time></trkpt><trkpt lat="41.134576395115744" lon="14.233131948953"><ele>27.0</ele><time>2026-04-11T12:29:01.001Z</time></trkpt><trkpt lat="41.13452458091686" lon="14.23281087005699"><ele>27.0</ele><time>2026-04-11T12:29:02.001Z</time></trkpt><trkpt lat="41.13447202551276" lon="14.232485876012364"><ele>27.0</ele><time>2026-04-11T12:29:03.001Z</time></trkpt><trkpt lat="41.13442008895273" lon="14.232162722339806"><ele>27.0</ele><time>2026-04-11T12:29:04.001Z</time></trkpt><trkpt lat="41.13436344676505" lon="14.231837300332906"><ele>27.0</ele><time>2026-04-11T12:29:05.001Z</time></trkpt><trkpt lat="41.13431153279052" lon="14.231510025258473"><ele>26.5</ele><time>2026-04-11T12:29:06.001Z</time></trkpt><trkpt lat="41.13425997117503" lon="14.231174894828518"><ele>26.0</ele><time>2026-04-11T12:29:07.001Z</time></trkpt><trkpt lat="41.13420151234983" lon="14.230847701374284"><ele>26.5</ele><time>2026-04-11T12:29:08.001Z</time></trkpt><trkpt lat="41.13414937636284" lon="14.230528172419195"><ele>27.0</ele><time>2026-04-11T12:29:09.001Z</time></trkpt><trkpt lat="41.134096508050376" lon="14.230210317532148"><ele>27.0</ele><time>2026-04-11T12:29:10.001Z</time></trkpt><trkpt lat="41.13404152891722" lon="14.229892493136106"><ele>27.0</ele><time>2026-04-11T12:29:11.001Z</time></trkpt><trkpt lat="41.133989550848675" lon="14.229572461249164"><ele>27.0</ele><time>2026-04-11T12:29:12.001Z</time></trkpt><trkpt lat="41.133935883386194" lon="14.229250121115166"><ele>27.0</ele><time>2026-04-11T12:29:13.001Z</time></trkpt><trkpt lat="41.13388072581954" lon="14.22892552909098"><ele>27.0</ele><time>2026-04-11T12:29:14.001Z</time></trkpt><trkpt lat="41.133825930905665" lon="14.228607028656702"><ele>27.0</ele><time>2026-04-11T12:29:15.001Z</time></trkpt><trkpt lat="41.13377203022791" lon="14.228285064186723"><ele>26.5</ele><time>2026-04-11T12:29:16.001Z</time></trkpt><trkpt lat="41.13371934928071" lon="14.227966590838731"><ele>26.0</ele><time>2026-04-11T12:29:17.001Z</time></trkpt><trkpt lat="41.13366712295046" lon="14.227651386360288"><ele>26.0</ele><time>2026-04-11T12:29:18.001Z</time></trkpt><trkpt lat="41.13362696179708" lon="14.227325989466959"><ele>26.0</ele><time>2026-04-11T12:29:19.001Z</time></trkpt><trkpt lat="41.133574550329556" lon="14.227008813677465"><ele>25.666666666666664</ele><time>2026-04-11T12:29:20.001Z</time></trkpt><trkpt lat="41.13350958443831" lon="14.226712826244984"><ele>25.333333333333336</ele><time>2026-04-11T12:29:21.001Z</time></trkpt><trkpt lat="41.13346320381534" lon="14.22643214830893"><ele>25.0</ele><time>2026-04-11T12:29:22.001Z</time></trkpt><trkpt lat="41.13343613045482" lon="14.226168516555212"><ele>25.0</ele><time>2026-04-11T12:29:23.001Z</time></trkpt><trkpt lat="41.133395005162846" lon="14.225918120853423"><ele>25.0</ele><time>2026-04-11T12:29:24.001Z</time></trkpt><trkpt lat="41.13334351450042" lon="14.225693382002436"><ele>25.0</ele><time>2026-04-11T12:29:25.001Z</time></trkpt><trkpt lat="41.13331041543975" lon="14.22549130156672"><ele>25.25</ele><time>2026-04-11T12:29:26.001Z</time></trkpt><trkpt lat="41.13329782552895" lon="14.225316731251352"><ele>25.5</ele><time>2026-04-11T12:29:27.001Z</time></trkpt><trkpt lat="41.133268184895215" lon="14.225161490221387"><ele>25.75</ele><time>2026-04-11T12:29:28.001Z</time></trkpt><trkpt lat="41.13321565620537" lon="14.225023221622315"><ele>26.0</ele><time>2026-04-11T12:29:29.001Z</time></trkpt><trkpt lat="41.133184160343625" lon="14.22488702685633"><ele>26.200000000000003</ele><time>2026-04-11T12:29:30.001Z</time></trkpt><trkpt lat="41.13313953817442" lon="14.224766233735835"><ele>26.400000000000002</ele><time>2026-04-11T12:29:31.001Z</time></trkpt><trkpt lat="41.13311207799008" lon="14.224644950271797"><ele>26.6</ele><time>2026-04-11T12:29:32.001Z</time></trkpt><trkpt lat="41.13311577425973" lon="14.224518693479192"><ele>26.8</ele><time>2026-04-11T12:29:33.001Z</time></trkpt><trkpt lat="41.13313685093153" lon="14.224394559965013"><ele>27.0</ele><time>2026-04-11T12:29:34.001Z</time></trkpt><trkpt lat="41.13315984597774" lon="14.224290956566023"><ele>27.0</ele><time>2026-04-11T12:29:35.001Z</time></trkpt><trkpt lat="41.13314464513872" lon="14.224180847514429"><ele>27.0</ele><time>2026-04-11T12:29:36.001Z</time></trkpt><trkpt lat="41.133096254278456" lon="14.224094435506291"><ele>27.0</ele><time>2026-04-11T12:29:37.001Z</time></trkpt><trkpt lat="41.13303477864231" lon="14.224044042047876"><ele>27.0</ele><time>2026-04-11T12:29:38.001Z</time></trkpt><trkpt lat="41.132951131596926" lon="14.224013374037288"><ele>27.0</ele><time>2026-04-11T12:29:39.001Z</time></trkpt><trkpt lat="41.13286532782812" lon="14.224049062411424"><ele>27.0</ele><time>2026-04-11T12:29:40.001Z</time></trkpt><trkpt lat="41.132765824808736" lon="14.224057941257392"><ele>27.0</ele><time>2026-04-11T12:29:41Z</time></trkpt><trkpt lat="41.13266809464718" lon="14.224031467446103"><ele>27.0</ele><time>2026-04-11T12:29:42Z</time></trkpt><trkpt lat="41.13256786115092" lon="14.223973061297537"><ele>27.0</ele><time>2026-04-11T12:29:43Z</time></trkpt><trkpt lat="41.132464126698146" lon="14.223883218493553"><ele>27.0</ele><time>2026-04-11T12:29:44Z</time></trkpt><trkpt lat="41.13235692313331" lon="14.22375090080524"><ele>27.333333333333336</ele><time>2026-04-11T12:29:45Z</time></trkpt><trkpt lat="41.13224101639288" lon="14.223583931394474"><ele>27.666666666666668</ele><time>2026-04-11T12:29:46Z</time></trkpt><trkpt lat="41.132118974912764" lon="14.223395192420076"><ele>28.0</ele><time>2026-04-11T12:29:47Z</time></trkpt><trkpt lat="41.13197619075641" lon="14.223197561966407"><ele>27.666666666666668</ele><time>2026-04-11T12:29:48Z</time></trkpt><trkpt lat="41.131830023204415" lon="14.223000523179886"><ele>27.333333333333336</ele><time>2026-04-11T12:29:49Z</time></trkpt><trkpt lat="41.13167286591687" lon="14.222794240010213"><ele>27.0</ele><time>2026-04-11T12:29:50Z</time></trkpt><trkpt lat="41.13151429845004" lon="14.222574661547347"><ele>27.0</ele><time>2026-04-11T12:29:51Z</time></trkpt><trkpt lat="41.13135508288582" lon="14.222353019893871"><ele>27.0</ele><time>2026-04-11T12:29:52Z</time></trkpt><trkpt lat="41.131191850606115" lon="14.22213274139742"><ele>27.0</ele><time>2026-04-11T12:29:53Z</time></trkpt><trkpt lat="41.13102819229651" lon="14.221909634550396"><ele>27.0</ele><time>2026-04-11T12:29:54Z</time></trkpt><trkpt lat="41.13086582148834" lon="14.221683140911894"><ele>26.5</ele><time>2026-04-11T12:29:55Z</time></trkpt><trkpt lat="41.13070011815448" lon="14.221452038532464"><ele>26.0</ele><time>2026-04-11T12:29:56Z</time></trkpt><trkpt lat="41.13053127158873" lon="14.221218191344741"><ele>26.0</ele><time>2026-04-11T12:29:57Z</time></trkpt><trkpt lat="41.13036133684272" lon="14.22098439426672"><ele>26.0</ele><time>2026-04-11T12:29:58Z</time></trkpt><trkpt lat="41.13019158236095" lon="14.220752844470493"><ele>26.0</ele><time>2026-04-11T12:29:59Z</time></trkpt><trkpt lat="41.1300180954809" lon="14.22052202056627"><ele>26.0</ele><time>2026-04-11T12:30:00Z</time></trkpt><trkpt lat="41.129857662664534" lon="14.22027894827899"><ele>26.0</ele><time>2026-04-11T12:30:01Z</time></trkpt><trkpt lat="41.129680016607665" lon="14.220062118285135"><ele>26.0</ele><time>2026-04-11T12:30:02Z</time></trkpt><trkpt lat="41.12952429196814" lon="14.219823859041258"><ele>26.0</ele><time>2026-04-11T12:30:03Z</time></trkpt><trkpt lat="41.12935907996784" lon="14.219605477818856"><ele>26.0</ele><time>2026-04-11T12:30:04Z</time></trkpt><trkpt lat="41.12918659739471" lon="14.21940277485891"><ele>25.5</ele><time>2026-04-11T12:30:05Z</time></trkpt><trkpt lat="41.12900479789466" lon="14.219214815132508"><ele>25.0</ele><time>2026-04-11T12:30:06Z</time></trkpt><trkpt lat="41.12881481568251" lon="14.21904363870296"><ele>25.666666666666668</ele><time>2026-04-11T12:30:07Z</time></trkpt><trkpt lat="41.12864418929184" lon="14.218849861788975"><ele>26.333333333333336</ele><time>2026-04-11T12:30:08Z</time></trkpt><trkpt lat="41.12848857363343" lon="14.218666114987398"><ele>27.0</ele><time>2026-04-11T12:30:09Z</time></trkpt><trkpt lat="41.12834068551505" lon="14.218497230853558"><ele>27.666666666666664</ele><time>2026-04-11T12:30:10Z</time></trkpt><trkpt lat="41.128203765087456" lon="14.218334898837476"><ele>28.333333333333332</ele><time>2026-04-11T12:30:11Z</time></trkpt><trkpt lat="41.12807601619144" lon="14.218178566401598"><ele>29.0</ele><time>2026-04-11T12:30:12Z</time></trkpt><trkpt lat="41.1279438638399" lon="14.218019611748055"><ele>29.333333333333332</ele><time>2026-04-11T12:30:13Z</time></trkpt><trkpt lat="41.127807433913794" lon="14.217864784706883"><ele>29.666666666666664</ele><time>2026-04-11T12:30:14Z</time></trkpt><trkpt lat="41.1276595595992" lon="14.21769967444824"><ele>30.0</ele><time>2026-04-11T12:30:15Z</time></trkpt><trkpt lat="41.12750372243084" lon="14.217523546961441"><ele>30.0</ele><time>2026-04-11T12:30:16Z</time></trkpt><trkpt lat="41.12735020217334" lon="14.217337932794553"><ele>30.0</ele><time>2026-04-11T12:30:17Z</time></trkpt><trkpt lat="41.12719976687142" lon="14.217153587849989"><ele>30.0</ele><time>2026-04-11T12:30:18Z</time></trkpt><trkpt lat="41.12704660808865" lon="14.216971111608455"><ele>29.666666666666664</ele><time>2026-04-11T12:30:19Z</time></trkpt><trkpt lat="41.12687921786429" lon="14.216794984572717"><ele>29.333333333333332</ele><time>2026-04-11T12:30:20Z</time></trkpt><trkpt lat="41.1267047398928" lon="14.216631125033164"><ele>29.0</ele><time>2026-04-11T12:30:21Z</time></trkpt><trkpt lat="41.12651579749809" lon="14.216473127283457"><ele>28.0</ele><time>2026-04-11T12:30:22Z</time></trkpt><trkpt lat="41.126314371155" lon="14.216321993416466"><ele>27.0</ele><time>2026-04-11T12:30:23Z</time></trkpt><trkpt lat="41.12611742256251" lon="14.216167820366778"><ele>27.0</ele><time>2026-04-11T12:30:24Z</time></trkpt><trkpt lat="41.12592849098259" lon="14.216020996181411"><ele>27.0</ele><time>2026-04-11T12:30:25Z</time></trkpt><trkpt lat="41.125736396764935" lon="14.215878592541708"><ele>27.0</ele><time>2026-04-11T12:30:26Z</time></trkpt><trkpt lat="41.12555365806498" lon="14.215734859230787"><ele>26.0</ele><time>2026-04-11T12:30:27Z</time></trkpt><trkpt lat="41.125378953585745" lon="14.215599686422003"><ele>25.0</ele><time>2026-04-11T12:30:28Z</time></trkpt><trkpt lat="41.12520942224041" lon="14.215472473245182"><ele>24.0</ele><time>2026-04-11T12:30:29Z</time></trkpt><trkpt lat="41.12504220961193" lon="14.215336974786608"><ele>24.0</ele><time>2026-04-11T12:30:30Z</time></trkpt><trkpt lat="41.12488834373111" lon="14.215197834429533"><ele>24.0</ele><time>2026-04-11T12:30:31Z</time></trkpt><trkpt lat="41.12473683807972" lon="14.215034393468981"><ele>24.0</ele><time>2026-04-11T12:30:32Z</time></trkpt><trkpt lat="41.124593657367804" lon="14.214830489567008"><ele>24.0</ele><time>2026-04-11T12:30:33Z</time></trkpt><trkpt lat="41.12445700941193" lon="14.21460430079163"><ele>24.0</ele><time>2026-04-11T12:30:34Z</time></trkpt><trkpt lat="41.12433211951588" lon="14.21435202992568"><ele>24.0</ele><time>2026-04-11T12:30:35.001Z</time></trkpt><trkpt lat="41.12419165667931" lon="14.214095137948203"><ele>23.5</ele><time>2026-04-11T12:30:36.001Z</time></trkpt><trkpt lat="41.12405797995634" lon="14.213831869605723"><ele>23.0</ele><time>2026-04-11T12:30:37.001Z</time></trkpt><trkpt lat="41.1239079547996" lon="14.21355947224816"><ele>23.0</ele><time>2026-04-11T12:30:38.001Z</time></trkpt><trkpt lat="41.123746534263155" lon="14.213273325086105"><ele>23.0</ele><time>2026-04-11T12:30:39.001Z</time></trkpt><trkpt lat="41.12357789520368" lon="14.212973808431984"><ele>22.5</ele><time>2026-04-11T12:30:40.001Z</time></trkpt><trkpt lat="41.123413357789914" lon="14.212678996152817"><ele>22.0</ele><time>2026-04-11T12:30:41.001Z</time></trkpt><trkpt lat="41.1232532340982" lon="14.212378276098462"><ele>22.5</ele><time>2026-04-11T12:30:42.001Z</time></trkpt><trkpt lat="41.123091236686356" lon="14.212075793621862"><ele>23.0</ele><time>2026-04-11T12:30:43.001Z</time></trkpt><trkpt lat="41.12292989002606" lon="14.211789295008307"><ele>23.0</ele><time>2026-04-11T12:30:44.001Z</time></trkpt><trkpt lat="41.12277137016466" lon="14.211499443321783"><ele>23.0</ele><time>2026-04-11T12:30:45.001Z</time></trkpt><trkpt lat="41.122615994077584" lon="14.211212773830525"><ele>23.0</ele><time>2026-04-11T12:30:46.001Z</time></trkpt><trkpt lat="41.122459616951836" lon="14.210931368100042"><ele>23.0</ele><time>2026-04-11T12:30:47.001Z</time></trkpt><trkpt lat="41.12230603982485" lon="14.21065085473264"><ele>23.0</ele><time>2026-04-11T12:30:48.001Z</time></trkpt><trkpt lat="41.12215285329926" lon="14.210368252333321"><ele>23.0</ele><time>2026-04-11T12:30:49.001Z</time></trkpt><trkpt lat="41.12200051477078" lon="14.210089111417581"><ele>23.0</ele><time>2026-04-11T12:30:50.001Z</time></trkpt><trkpt lat="41.121849257070465" lon="14.209815186469344"><ele>23.0</ele><time>2026-04-11T12:30:51.001Z</time></trkpt><trkpt lat="41.12169479128902" lon="14.209530746319002"><ele>23.5</ele><time>2026-04-11T12:30:52.001Z</time></trkpt><trkpt lat="41.12153882314561" lon="14.209244115783456"><ele>24.0</ele><time>2026-04-11T12:30:53.001Z</time></trkpt><trkpt lat="41.12138414889351" lon="14.208967269784809"><ele>24.0</ele><time>2026-04-11T12:30:54.001Z</time></trkpt><trkpt lat="41.12122973767879" lon="14.208681071218551"><ele>24.0</ele><time>2026-04-11T12:30:55.001Z</time></trkpt><trkpt lat="41.12107371540691" lon="14.208395143177885"><ele>23.0</ele><time>2026-04-11T12:30:56.001Z</time></trkpt><trkpt lat="41.12091677599357" lon="14.208111526389668"><ele>22.0</ele><time>2026-04-11T12:30:57.001Z</time></trkpt><trkpt lat="41.120763137628046" lon="14.207828255002516"><ele>22.5</ele><time>2026-04-11T12:30:58.001Z</time></trkpt><trkpt lat="41.120605547058226" lon="14.20754781615268"><ele>23.0</ele><time>2026-04-11T12:30:59.001Z</time></trkpt><trkpt lat="41.12045193430955" lon="14.207269645810733"><ele>23.0</ele><time>2026-04-11T12:31:00.001Z</time></trkpt><trkpt lat="41.12029824368743" lon="14.206988536318788"><ele>23.0</ele><time>2026-04-11T12:31:01.001Z</time></trkpt><trkpt lat="41.12014160272561" lon="14.20670703786116"><ele>23.0</ele><time>2026-04-11T12:31:02.001Z</time></trkpt><trkpt lat="41.1199842757332" lon="14.206426488629187"><ele>23.0</ele><time>2026-04-11T12:31:03.001Z</time></trkpt><trkpt lat="41.11982739516094" lon="14.206144887085314"><ele>23.5</ele><time>2026-04-11T12:31:04.001Z</time></trkpt><trkpt lat="41.11967625495948" lon="14.205863990720612"><ele>24.0</ele><time>2026-04-11T12:31:05.001Z</time></trkpt><trkpt lat="41.11952260818924" lon="14.20557724104075"><ele>24.5</ele><time>2026-04-11T12:31:06.001Z</time></trkpt><trkpt lat="41.119367772192064" lon="14.205299997059726"><ele>25.0</ele><time>2026-04-11T12:31:07.001Z</time></trkpt><trkpt lat="41.11922330517156" lon="14.20503185537592"><ele>25.0</ele><time>2026-04-11T12:31:08.001Z</time></trkpt><trkpt lat="41.11907822848298" lon="14.204771501489994"><ele>25.0</ele><time>2026-04-11T12:31:09.001Z</time></trkpt><trkpt lat="41.11894475713313" lon="14.20453244534549"><ele>25.0</ele><time>2026-04-11T12:31:10.001Z</time></trkpt><trkpt lat="41.11881423205404" lon="14.204301358627564"><ele>25.0</ele><time>2026-04-11T12:31:11.001Z</time></trkpt><trkpt lat="41.11869145576537" lon="14.204081835560938"><ele>25.0</ele><time>2026-04-11T12:31:12.001Z</time></trkpt><trkpt lat="41.11857908311875" lon="14.203871577462555"><ele>25.0</ele><time>2026-04-11T12:31:13.001Z</time></trkpt><trkpt lat="41.11846432264819" lon="14.203673222598475"><ele>25.0</ele><time>2026-04-11T12:31:14.001Z</time></trkpt><trkpt lat="41.11835976335017" lon="14.203483556324274"><ele>25.0</ele><time>2026-04-11T12:31:15.001Z</time></trkpt><trkpt lat="41.11827395770731" lon="14.203289133662675"><ele>24.333333333333336</ele><time>2026-04-11T12:31:16.001Z</time></trkpt><trkpt lat="41.11816313334895" lon="14.203124821845908"><ele>23.666666666666668</ele><time>2026-04-11T12:31:17.001Z</time></trkpt><trkpt lat="41.11808714286933" lon="14.202929955840597"><ele>23.0</ele><time>2026-04-11T12:31:18.001Z</time></trkpt><trkpt lat="41.118022313864145" lon="14.202723122810534"><ele>23.0</ele><time>2026-04-11T12:31:19.001Z</time></trkpt><trkpt lat="41.11800232190201" lon="14.202504020790416"><ele>23.0</ele><time>2026-04-11T12:31:20.001Z</time></trkpt><trkpt lat="41.11797102114533" lon="14.202296820232224"><ele>23.0</ele><time>2026-04-11T12:31:21.001Z</time></trkpt><trkpt lat="41.11793921352272" lon="14.202100731588834"><ele>23.0</ele><time>2026-04-11T12:31:22.001Z</time></trkpt><trkpt lat="41.1178955496257" lon="14.201931270978266"><ele>23.0</ele><time>2026-04-11T12:31:23.001Z</time></trkpt><trkpt lat="41.11787377090051" lon="14.201772027472908"><ele>23.0</ele><time>2026-04-11T12:31:24.001Z</time></trkpt><trkpt lat="41.11786180507327" lon="14.201614598488755"><ele>23.0</ele><time>2026-04-11T12:31:25.001Z</time></trkpt><trkpt lat="41.11783821417053" lon="14.20145949289014"><ele>22.833333333333336</ele><time>2026-04-11T12:31:26.001Z</time></trkpt><trkpt lat="41.117814989087584" lon="14.201345244076096"><ele>22.666666666666668</ele><time>2026-04-11T12:31:27.001Z</time></trkpt><trkpt lat="41.117796205026565" lon="14.201253323966258"><ele>22.5</ele><time>2026-04-11T12:31:28.001Z</time></trkpt><trkpt lat="41.11779229531511" lon="14.201169373875317"><ele>22.333333333333332</ele><time>2026-04-11T12:31:29.001Z</time></trkpt><trkpt lat="41.11780969942517" lon="14.20105286121748"><ele>22.166666666666664</ele><time>2026-04-11T12:31:32.001Z</time></trkpt><trkpt lat="41.117928848459485" lon="14.200979271310828"><ele>22.0</ele><time>2026-04-11T12:31:35.001Z</time></trkpt><trkpt lat="41.11799934741919" lon="14.20096858963805"><ele>22.0</ele><time>2026-04-11T12:31:36.001Z</time></trkpt><trkpt lat="41.1181164440281" lon="14.200950847743231"><ele>22.0</ele><time>2026-04-11T12:31:37.001Z</time></trkpt><trkpt lat="41.11825793938558" lon="14.20092788012321"><ele>22.0</ele><time>2026-04-11T12:31:38.001Z</time></trkpt><trkpt lat="41.11843308957803" lon="14.200896905413666"><ele>22.0</ele><time>2026-04-11T12:31:39.002Z</time></trkpt><trkpt lat="41.11861332230355" lon="14.200865053732244"><ele>22.0</ele><time>2026-04-11T12:31:40.002Z</time></trkpt><trkpt lat="41.11879419541818" lon="14.200816098768705"><ele>22.0</ele><time>2026-04-11T12:31:41.002Z</time></trkpt><trkpt lat="41.1189840967406" lon="14.200783669791262"><ele>22.0</ele><time>2026-04-11T12:31:42.002Z</time></trkpt><trkpt lat="41.119176545383816" lon="14.200746991410174"><ele>22.333333333333332</ele><time>2026-04-11T12:31:43.002Z</time></trkpt><trkpt lat="41.119350586604696" lon="14.200737884782459"><ele>22.666666666666668</ele><time>2026-04-11T12:31:44.002Z</time></trkpt><trkpt lat="41.11951793082522" lon="14.200686786715158"><ele>23.0</ele><time>2026-04-11T12:31:45.002Z</time></trkpt><trkpt lat="41.11967266135928" lon="14.20068068770324"><ele>22.75</ele><time>2026-04-11T12:31:46.002Z</time></trkpt><trkpt lat="41.11981277629723" lon="14.20065464762496"><ele>22.5</ele><time>2026-04-11T12:31:47Z</time></trkpt><trkpt lat="41.11995534414259" lon="14.200628113137347"><ele>22.25</ele><time>2026-04-11T12:31:48Z</time></trkpt><trkpt lat="41.12011380989425" lon="14.20059840611838"><ele>22.0</ele><time>2026-04-11T12:31:49Z</time></trkpt><trkpt lat="41.12029265323187" lon="14.200553413097929"><ele>22.0</ele><time>2026-04-11T12:31:50Z</time></trkpt><trkpt lat="41.12047651490262" lon="14.200456038669653"><ele>22.0</ele><time>2026-04-11T12:31:51Z</time></trkpt><trkpt lat="41.12066689560077" lon="14.200371608595887"><ele>22.0</ele><time>2026-04-11T12:31:52Z</time></trkpt><trkpt lat="41.12086155880899" lon="14.20026678243499"><ele>22.0</ele><time>2026-04-11T12:31:53Z</time></trkpt><trkpt lat="41.121067420073395" lon="14.20015616134617"><ele>22.0</ele><time>2026-04-11T12:31:54Z</time></trkpt><trkpt lat="41.12128538388732" lon="14.200038357796004"><ele>22.0</ele><time>2026-04-11T12:31:55Z</time></trkpt><trkpt lat="41.12150122396087" lon="14.19992840598961"><ele>22.0</ele><time>2026-04-11T12:31:56Z</time></trkpt><trkpt lat="41.12171163659473" lon="14.199820434928665"><ele>22.0</ele><time>2026-04-11T12:31:57Z</time></trkpt><trkpt lat="41.1219348089863" lon="14.199731774456207"><ele>22.0</ele><time>2026-04-11T12:31:58Z</time></trkpt><trkpt lat="41.12215626156339" lon="14.19961656060611"><ele>22.0</ele><time>2026-04-11T12:31:59Z</time></trkpt><trkpt lat="41.12236851509342" lon="14.199468413806107"><ele>22.0</ele><time>2026-04-11T12:32:00Z</time></trkpt><trkpt lat="41.12258436429028" lon="14.19933812408759"><ele>23.0</ele><time>2026-04-11T12:32:01Z</time></trkpt><trkpt lat="41.122803480972145" lon="14.199205898056091"><ele>24.0</ele><time>2026-04-11T12:32:02Z</time></trkpt><trkpt lat="41.12301980733397" lon="14.199067275492071"><ele>23.5</ele><time>2026-04-11T12:32:03Z</time></trkpt><trkpt lat="41.12325051595346" lon="14.198946272959697"><ele>23.0</ele><time>2026-04-11T12:32:04Z</time></trkpt><trkpt lat="41.123470369083115" lon="14.198804275442242"><ele>23.0</ele><time>2026-04-11T12:32:05Z</time></trkpt><trkpt lat="41.12368313691462" lon="14.19866691911872"><ele>23.0</ele><time>2026-04-11T12:32:06Z</time></trkpt><trkpt lat="41.12388973529727" lon="14.198509550944529"><ele>24.0</ele><time>2026-04-11T12:32:07Z</time></trkpt><trkpt lat="41.124099348537094" lon="14.198396305023085"><ele>25.0</ele><time>2026-04-11T12:32:08Z</time></trkpt><trkpt lat="41.12429712726113" lon="14.198243656238283"><ele>24.333333333333336</ele><time>2026-04-11T12:32:09Z</time></trkpt><trkpt lat="41.124497736562994" lon="14.19811047452347"><ele>23.666666666666668</ele><time>2026-04-11T12:32:10Z</time></trkpt><trkpt lat="41.12470133747373" lon="14.197985206873721"><ele>23.0</ele><time>2026-04-11T12:32:11Z</time></trkpt><trkpt lat="41.124891848831304" lon="14.197860337938671"><ele>24.0</ele><time>2026-04-11T12:32:12Z</time></trkpt><trkpt lat="41.12507655223928" lon="14.197740970977737"><ele>25.0</ele><time>2026-04-11T12:32:13Z</time></trkpt><trkpt lat="41.125256835617805" lon="14.197624468363786"><ele>26.0</ele><time>2026-04-11T12:32:14Z</time></trkpt><trkpt lat="41.12543578377107" lon="14.197517879455479"><ele>26.0</ele><time>2026-04-11T12:32:15Z</time></trkpt><trkpt lat="41.12564196557143" lon="14.197425945353903"><ele>26.0</ele><time>2026-04-11T12:32:16Z</time></trkpt><trkpt lat="41.125852594764375" lon="14.197367026403198"><ele>26.0</ele><time>2026-04-11T12:32:17Z</time></trkpt><trkpt lat="41.12608137069978" lon="14.197312892905638"><ele>26.0</ele><time>2026-04-11T12:32:18Z</time></trkpt><trkpt lat="41.12630698635184" lon="14.197259692072626"><ele>26.0</ele><time>2026-04-11T12:32:19Z</time></trkpt><trkpt lat="41.12653402680141" lon="14.197206202582173"><ele>25.333333333333332</ele><time>2026-04-11T12:32:20Z</time></trkpt><trkpt lat="41.12674459435229" lon="14.197156224936315"><ele>24.666666666666664</ele><time>2026-04-11T12:32:21Z</time></trkpt><trkpt lat="41.12695316342617" lon="14.197106721710503"><ele>24.0</ele><time>2026-04-11T12:32:22Z</time></trkpt><trkpt lat="41.12716358179857" lon="14.197056318689366"><ele>24.0</ele><time>2026-04-11T12:32:23Z</time></trkpt><trkpt lat="41.12739220699131" lon="14.19700159641999"><ele>24.0</ele><time>2026-04-11T12:32:24Z</time></trkpt><trkpt lat="41.127632337618174" lon="14.19694415076644"><ele>24.0</ele><time>2026-04-11T12:32:25Z</time></trkpt><trkpt lat="41.12787423928042" lon="14.196870392133244"><ele>24.0</ele><time>2026-04-11T12:32:26Z</time></trkpt><trkpt lat="41.12811559283489" lon="14.196816936171615"><ele>24.0</ele><time>2026-04-11T12:32:27Z</time></trkpt><trkpt lat="41.12835968520781" lon="14.196759994377885"><ele>24.0</ele><time>2026-04-11T12:32:28Z</time></trkpt><trkpt lat="41.12860211803695" lon="14.196701520519584"><ele>24.0</ele><time>2026-04-11T12:32:29Z</time></trkpt><trkpt lat="41.12884006765378" lon="14.19664259502082"><ele>24.0</ele><time>2026-04-11T12:32:30Z</time></trkpt><trkpt lat="41.129081063686925" lon="14.19659219926452"><ele>24.0</ele><time>2026-04-11T12:32:31Z</time></trkpt><trkpt lat="41.129306883059265" lon="14.196544125890131"><ele>24.0</ele><time>2026-04-11T12:32:32Z</time></trkpt><trkpt lat="41.12952358166748" lon="14.196496741630817"><ele>24.0</ele><time>2026-04-11T12:32:33Z</time></trkpt><trkpt lat="41.12973980808527" lon="14.196438746032737"><ele>23.666666666666668</ele><time>2026-04-11T12:32:34Z</time></trkpt><trkpt lat="41.12996591862036" lon="14.196385272625504"><ele>23.333333333333336</ele><time>2026-04-11T12:32:35Z</time></trkpt><trkpt lat="41.13016903581898" lon="14.196320068368623"><ele>23.0</ele><time>2026-04-11T12:32:36.001Z</time></trkpt><trkpt lat="41.130388759067" lon="14.196250803759407"><ele>23.0</ele><time>2026-04-11T12:32:37.001Z</time></trkpt><trkpt lat="41.130592159209904" lon="14.196109264714961"><ele>23.0</ele><time>2026-04-11T12:32:38.001Z</time></trkpt><trkpt lat="41.13079694247805" lon="14.19595167321125"><ele>23.5</ele><time>2026-04-11T12:32:39.001Z</time></trkpt><trkpt lat="41.1309940022375" lon="14.195777013915878"><ele>24.0</ele><time>2026-04-11T12:32:40.001Z</time></trkpt><trkpt lat="41.131191689389276" lon="14.195645178581639"><ele>23.5</ele><time>2026-04-11T12:32:41.001Z</time></trkpt><trkpt lat="41.13139207220912" lon="14.195489668523392"><ele>23.0</ele><time>2026-04-11T12:32:42.001Z</time></trkpt><trkpt lat="41.13159286763907" lon="14.195334523506094"><ele>23.0</ele><time>2026-04-11T12:32:43.001Z</time></trkpt><trkpt lat="41.13179037048028" lon="14.195181247559157"><ele>23.0</ele><time>2026-04-11T12:32:44.001Z</time></trkpt><trkpt lat="41.131982377494204" lon="14.195010125109526"><ele>23.0</ele><time>2026-04-11T12:32:45.001Z</time></trkpt><trkpt lat="41.13218665791295" lon="14.194858104315713"><ele>23.0</ele><time>2026-04-11T12:32:46.001Z</time></trkpt><trkpt lat="41.132385896714425" lon="14.19470552924456"><ele>23.0</ele><time>2026-04-11T12:32:47.001Z</time></trkpt><trkpt lat="41.13258274624533" lon="14.194547835121918"><ele>23.0</ele><time>2026-04-11T12:32:48.001Z</time></trkpt><trkpt lat="41.132787387649905" lon="14.194412537615554"><ele>23.0</ele><time>2026-04-11T12:32:49.001Z</time></trkpt><trkpt lat="41.13298413085666" lon="14.194261203546759"><ele>23.0</ele><time>2026-04-11T12:32:50.001Z</time></trkpt><trkpt lat="41.13318322043668" lon="14.194107543492112"><ele>23.666666666666668</ele><time>2026-04-11T12:32:51.001Z</time></trkpt><trkpt lat="41.13338040598463" lon="14.193955352961115"><ele>24.333333333333336</ele><time>2026-04-11T12:32:52.001Z</time></trkpt><trkpt lat="41.13357086704499" lon="14.193808352453654"><ele>25.0</ele><time>2026-04-11T12:32:53.001Z</time></trkpt><trkpt lat="41.133773177160855" lon="14.193652321131438"><ele>25.0</ele><time>2026-04-11T12:32:54.001Z</time></trkpt><trkpt lat="41.13397439335197" lon="14.193497230087795"><ele>25.0</ele><time>2026-04-11T12:32:55.001Z</time></trkpt><trkpt lat="41.134173129051256" lon="14.193345520006446"><ele>25.0</ele><time>2026-04-11T12:32:56.001Z</time></trkpt><trkpt lat="41.1343740813522" lon="14.193192192946222"><ele>25.0</ele><time>2026-04-11T12:32:57.001Z</time></trkpt><trkpt lat="41.13456868349622" lon="14.193043710996383"><ele>24.5</ele><time>2026-04-11T12:32:58.001Z</time></trkpt><trkpt lat="41.13477011974085" lon="14.192889835781527"><ele>24.0</ele><time>2026-04-11T12:32:59.001Z</time></trkpt><trkpt lat="41.13497549540289" lon="14.192732796738964"><ele>25.0</ele><time>2026-04-11T12:33:00.001Z</time></trkpt><trkpt lat="41.13517626243231" lon="14.192579522750956"><ele>26.0</ele><time>2026-04-11T12:33:01.001Z</time></trkpt><trkpt lat="41.135380033370645" lon="14.19242096097534"><ele>26.0</ele><time>2026-04-11T12:33:02.001Z</time></trkpt><trkpt lat="41.13558596513733" lon="14.19226277161322"><ele>26.0</ele><time>2026-04-11T12:33:03.001Z</time></trkpt><trkpt lat="41.13578347093029" lon="14.192086311603871"><ele>26.0</ele><time>2026-04-11T12:33:04.001Z</time></trkpt><trkpt lat="41.13598539127686" lon="14.191945764073182"><ele>26.0</ele><time>2026-04-11T12:33:05.001Z</time></trkpt><trkpt lat="41.13618409213645" lon="14.19178416528464"><ele>26.0</ele><time>2026-04-11T12:33:06.001Z</time></trkpt><trkpt lat="41.136384842971964" lon="14.191621402372979"><ele>26.0</ele><time>2026-04-11T12:33:07.001Z</time></trkpt><trkpt lat="41.13659353722642" lon="14.191465401260304"><ele>26.0</ele><time>2026-04-11T12:33:08.001Z</time></trkpt><trkpt lat="41.13679790115495" lon="14.19130793520871"><ele>26.0</ele><time>2026-04-11T12:33:09.001Z</time></trkpt><trkpt lat="41.13700004941537" lon="14.191147953980442"><ele>26.0</ele><time>2026-04-11T12:33:10.001Z</time></trkpt><trkpt lat="41.137198810071474" lon="14.190994431803565"><ele>26.0</ele><time>2026-04-11T12:33:11.001Z</time></trkpt><trkpt lat="41.13740887184487" lon="14.190831165805355"><ele>26.5</ele><time>2026-04-11T12:33:12.001Z</time></trkpt><trkpt lat="41.13761682162133" lon="14.190673931282955"><ele>27.0</ele><time>2026-04-11T12:33:13.001Z</time></trkpt><trkpt lat="41.13782139320628" lon="14.190512067616593"><ele>27.0</ele><time>2026-04-11T12:33:14.001Z</time></trkpt><trkpt lat="41.13804697137669" lon="14.190349386655953"><ele>27.0</ele><time>2026-04-11T12:33:15.001Z</time></trkpt><trkpt lat="41.13825929429621" lon="14.19018784832149"><ele>26.5</ele><time>2026-04-11T12:33:16.001Z</time></trkpt><trkpt lat="41.138479653113166" lon="14.190026316276425"><ele>26.0</ele><time>2026-04-11T12:33:17.001Z</time></trkpt><trkpt lat="41.13869619631008" lon="14.189860580405643"><ele>26.0</ele><time>2026-04-11T12:33:18.001Z</time></trkpt><trkpt lat="41.13892636645051" lon="14.1896859404768"><ele>26.0</ele><time>2026-04-11T12:33:19.001Z</time></trkpt><trkpt lat="41.13914627465306" lon="14.189520069932971"><ele>26.0</ele><time>2026-04-11T12:33:20.001Z</time></trkpt><trkpt lat="41.139362879094186" lon="14.18935121236688"><ele>26.0</ele><time>2026-04-11T12:33:21.001Z</time></trkpt><trkpt lat="41.13957325421933" lon="14.189187696907156"><ele>26.0</ele><time>2026-04-11T12:33:22.001Z</time></trkpt><trkpt lat="41.139783513116264" lon="14.189022522166708"><ele>26.0</ele><time>2026-04-11T12:33:23.001Z</time></trkpt><trkpt lat="41.13999099917295" lon="14.188860633776832"><ele>28.0</ele><time>2026-04-11T12:33:24.001Z</time></trkpt><trkpt lat="41.140198162051966" lon="14.18870155653583"><ele>30.0</ele><time>2026-04-11T12:33:25.001Z</time></trkpt><trkpt lat="41.14040803809081" lon="14.188538368283696"><ele>30.0</ele><time>2026-04-11T12:33:26.001Z</time></trkpt><trkpt lat="41.14060234534054" lon="14.188381198964734"><ele>30.0</ele><time>2026-04-11T12:33:27.001Z</time></trkpt><trkpt lat="41.140802491875256" lon="14.18822250320687"><ele>31.0</ele><time>2026-04-11T12:33:28.001Z</time></trkpt><trkpt lat="41.14100023376897" lon="14.188061610446583"><ele>32.0</ele><time>2026-04-11T12:33:29.001Z</time></trkpt><trkpt lat="41.14119106534855" lon="14.18790801809164"><ele>32.0</ele><time>2026-04-11T12:33:30.001Z</time></trkpt><trkpt lat="41.14138886007329" lon="14.187760187362903"><ele>32.0</ele><time>2026-04-11T12:33:31.001Z</time></trkpt><trkpt lat="41.14157001737478" lon="14.187609367829868"><ele>32.0</ele><time>2026-04-11T12:33:32.001Z</time></trkpt><trkpt lat="41.141751475237584" lon="14.187467573264987"><ele>31.333333333333332</ele><time>2026-04-11T12:33:33.001Z</time></trkpt><trkpt lat="41.141930972476544" lon="14.187333965200802"><ele>30.666666666666664</ele><time>2026-04-11T12:33:34.001Z</time></trkpt><trkpt lat="41.14209633884078" lon="14.187201112664292"><ele>30.0</ele><time>2026-04-11T12:33:35.002Z</time></trkpt><trkpt lat="41.14227394537996" lon="14.187085572459747"><ele>30.0</ele><time>2026-04-11T12:33:36.002Z</time></trkpt><trkpt lat="41.14244296014815" lon="14.186952402890286"><ele>30.0</ele><time>2026-04-11T12:33:37.002Z</time></trkpt><trkpt lat="41.14260735389335" lon="14.18682245519832"><ele>30.0</ele><time>2026-04-11T12:33:38.002Z</time></trkpt><trkpt lat="41.14277396686563" lon="14.186691151775511"><ele>30.0</ele><time>2026-04-11T12:33:39.002Z</time></trkpt><trkpt lat="41.14293451300026" lon="14.18656641324094"><ele>30.0</ele><time>2026-04-11T12:33:40.002Z</time></trkpt><trkpt lat="41.14310209855284" lon="14.186435679386449"><ele>30.0</ele><time>2026-04-11T12:33:41.002Z</time></trkpt><trkpt lat="41.143268267339685" lon="14.186309066781853"><ele>31.0</ele><time>2026-04-11T12:33:42.002Z</time></trkpt><trkpt lat="41.143436670991036" lon="14.18618109154067"><ele>32.0</ele><time>2026-04-11T12:33:43.002Z</time></trkpt><trkpt lat="41.14360073006117" lon="14.186051859817162"><ele>33.0</ele><time>2026-04-11T12:33:44.002Z</time></trkpt><trkpt lat="41.14374002515679" lon="14.185896588421725"><ele>33.0</ele><time>2026-04-11T12:33:45.002Z</time></trkpt><trkpt lat="41.14388161297422" lon="14.18577583557183"><ele>33.0</ele><time>2026-04-11T12:33:46.002Z</time></trkpt><trkpt lat="41.14401633724254" lon="14.185681666745998"><ele>33.0</ele><time>2026-04-11T12:33:47.002Z</time></trkpt><trkpt lat="41.14415688042313" lon="14.185574888352539"><ele>33.0</ele><time>2026-04-11T12:33:48.002Z</time></trkpt><trkpt lat="41.14430517594673" lon="14.185507348607384"><ele>33.0</ele><time>2026-04-11T12:33:49.002Z</time></trkpt><trkpt lat="41.14445182005872" lon="14.185395494976353"><ele>33.0</ele><time>2026-04-11T12:33:50.002Z</time></trkpt><trkpt lat="41.1446172088287" lon="14.185269342346128"><ele>33.0</ele><time>2026-04-11T12:33:51.002Z</time></trkpt><trkpt lat="41.14479600490113" lon="14.185130313138515"><ele>33.0</ele><time>2026-04-11T12:33:52.002Z</time></trkpt><trkpt lat="41.144963791975876" lon="14.184930515334841"><ele>33.0</ele><time>2026-04-11T12:33:53Z</time></trkpt><trkpt lat="41.14516577346165" lon="14.184780680876964"><ele>32.5</ele><time>2026-04-11T12:33:54Z</time></trkpt><trkpt lat="41.145363982568355" lon="14.184619709341913"><ele>32.0</ele><time>2026-04-11T12:33:55Z</time></trkpt><trkpt lat="41.14557641161314" lon="14.184450220355433"><ele>32.0</ele><time>2026-04-11T12:33:56Z</time></trkpt><trkpt lat="41.14581694523268" lon="14.184338651856946"><ele>32.0</ele><time>2026-04-11T12:33:57Z</time></trkpt><trkpt lat="41.14604417074637" lon="14.184165039303517"><ele>32.5</ele><time>2026-04-11T12:33:58Z</time></trkpt><trkpt lat="41.14626680510494" lon="14.183992666996515"><ele>33.0</ele><time>2026-04-11T12:33:59Z</time></trkpt><trkpt lat="41.1464965292184" lon="14.183814761056786"><ele>33.5</ele><time>2026-04-11T12:34:00Z</time></trkpt><trkpt lat="41.14671101784315" lon="14.183648868085236"><ele>34.0</ele><time>2026-04-11T12:34:01Z</time></trkpt><trkpt lat="41.14691642493633" lon="14.183489998580345"><ele>34.0</ele><time>2026-04-11T12:34:02Z</time></trkpt><trkpt lat="41.14712448013363" lon="14.18332863440182"><ele>34.0</ele><time>2026-04-11T12:34:03Z</time></trkpt><trkpt lat="41.14733860089409" lon="14.183162282048237"><ele>34.0</ele><time>2026-04-11T12:34:04Z</time></trkpt><trkpt lat="41.147550654219955" lon="14.182997535872863"><ele>34.0</ele><time>2026-04-11T12:34:05Z</time></trkpt><trkpt lat="41.14775889100523" lon="14.182835396093058"><ele>34.0</ele><time>2026-04-11T12:34:06Z</time></trkpt><trkpt lat="41.147971358844586" lon="14.18266992029527"><ele>34.0</ele><time>2026-04-11T12:34:07Z</time></trkpt><trkpt lat="41.148157635172005" lon="14.182524843183328"><ele>34.0</ele><time>2026-04-11T12:34:08Z</time></trkpt><trkpt lat="41.148294113351874" lon="14.182418550229645"><ele>34.0</ele><time>2026-04-11T12:34:09Z</time></trkpt><trkpt lat="41.14841989054523" lon="14.182320753841383"><ele>34.0</ele><time>2026-04-11T12:34:10Z</time></trkpt><trkpt lat="41.148550279317455" lon="14.182219383418174"><ele>34.0</ele><time>2026-04-11T12:34:11Z</time></trkpt><trkpt lat="41.14867786641451" lon="14.182120191122836"><ele>34.0</ele><time>2026-04-11T12:34:12Z</time></trkpt><trkpt lat="41.14881280643626" lon="14.182015282407475"><ele>34.0</ele><time>2026-04-11T12:34:13Z</time></trkpt><trkpt lat="41.1489622186884" lon="14.181899395336004"><ele>34.66666666666667</ele><time>2026-04-11T12:34:14Z</time></trkpt><trkpt lat="41.14911951753877" lon="14.181777456342754"><ele>35.333333333333336</ele><time>2026-04-11T12:34:15Z</time></trkpt><trkpt lat="41.149280800836486" lon="14.181628126034417"><ele>36.0</ele><time>2026-04-11T12:34:16Z</time></trkpt><trkpt lat="41.14946330425053" lon="14.181510953259288"><ele>36.666666666666664</ele><time>2026-04-11T12:34:17Z</time></trkpt><trkpt lat="41.14964796138333" lon="14.181367222029484"><ele>37.33333333333333</ele><time>2026-04-11T12:34:18Z</time></trkpt><trkpt lat="41.14982547894416" lon="14.181207126299977"><ele>38.0</ele><time>2026-04-11T12:34:19Z</time></trkpt><trkpt lat="41.150016900788366" lon="14.181062928584522"><ele>38.0</ele><time>2026-04-11T12:34:20Z</time></trkpt><trkpt lat="41.15020415714007" lon="14.180914764109957"><ele>38.0</ele><time>2026-04-11T12:34:21Z</time></trkpt><trkpt lat="41.1503894405229" lon="14.18076897502602"><ele>38.0</ele><time>2026-04-11T12:34:22Z</time></trkpt><trkpt lat="41.15057159413112" lon="14.180649724948989"><ele>38.33333333333333</ele><time>2026-04-11T12:34:23Z</time></trkpt><trkpt lat="41.15075322399727" lon="14.180508427955882"><ele>38.666666666666664</ele><time>2026-04-11T12:34:24Z</time></trkpt><trkpt lat="41.150939688098624" lon="14.180363370173522"><ele>39.0</ele><time>2026-04-11T12:34:25Z</time></trkpt><trkpt lat="41.151113119353475" lon="14.180228451283114"><ele>39.0</ele><time>2026-04-11T12:34:26Z</time></trkpt><trkpt lat="41.15128760130692" lon="14.180092714925381"><ele>39.0</ele><time>2026-04-11T12:34:27Z</time></trkpt><trkpt lat="41.15147589531848" lon="14.179945755687784"><ele>39.0</ele><time>2026-04-11T12:34:28Z</time></trkpt><trkpt lat="41.151668302303285" lon="14.179795444377127"><ele>39.0</ele><time>2026-04-11T12:34:29Z</time></trkpt><trkpt lat="41.151866521033384" lon="14.179640592777877"><ele>39.0</ele><time>2026-04-11T12:34:30Z</time></trkpt><trkpt lat="41.15206967022635" lon="14.17948188932966"><ele>39.0</ele><time>2026-04-11T12:34:31Z</time></trkpt><trkpt lat="41.15227423298707" lon="14.179322258237345"><ele>39.0</ele><time>2026-04-11T12:34:32Z</time></trkpt><trkpt lat="41.152480626640155" lon="14.179160797169015"><ele>39.5</ele><time>2026-04-11T12:34:33Z</time></trkpt><trkpt lat="41.152693177949196" lon="14.178994007959764"><ele>40.0</ele><time>2026-04-11T12:34:34Z</time></trkpt><trkpt lat="41.15290018010314" lon="14.178835462683686"><ele>40.0</ele><time>2026-04-11T12:34:35Z</time></trkpt><trkpt lat="41.15311664586345" lon="14.178667222302378"><ele>40.0</ele><time>2026-04-11T12:34:36Z</time></trkpt><trkpt lat="41.153327462628695" lon="14.178504750339673"><ele>40.0</ele><time>2026-04-11T12:34:37Z</time></trkpt><trkpt lat="41.15354458872229" lon="14.178337874765518"><ele>40.0</ele><time>2026-04-11T12:34:38Z</time></trkpt><trkpt lat="41.15376555627818" lon="14.178167464325044"><ele>40.0</ele><time>2026-04-11T12:34:39Z</time></trkpt><trkpt lat="41.15395952894661" lon="14.177976860269794"><ele>40.0</ele><time>2026-04-11T12:34:40Z</time></trkpt><trkpt lat="41.15417109186957" lon="14.177820118488793"><ele>41.0</ele><time>2026-04-11T12:34:41Z</time></trkpt><trkpt lat="41.15438436191188" lon="14.17766568022148"><ele>42.0</ele><time>2026-04-11T12:34:42.001Z</time></trkpt><trkpt lat="41.154592804158504" lon="14.177510705361419"><ele>42.0</ele><time>2026-04-11T12:34:43.001Z</time></trkpt><trkpt lat="41.154794705033346" lon="14.17735709092156"><ele>42.0</ele><time>2026-04-11T12:34:44.001Z</time></trkpt><trkpt lat="41.15499682698301" lon="14.177203137448803"><ele>43.0</ele><time>2026-04-11T12:34:45.001Z</time></trkpt><trkpt lat="41.15519787765376" lon="14.177053746922338"><ele>44.0</ele><time>2026-04-11T12:34:46.001Z</time></trkpt><trkpt lat="41.15539486135895" lon="14.176897979304172"><ele>44.0</ele><time>2026-04-11T12:34:47.001Z</time></trkpt><trkpt lat="41.15559757257953" lon="14.176748077286744"><ele>44.0</ele><time>2026-04-11T12:34:48.001Z</time></trkpt><trkpt lat="41.15579724746571" lon="14.17659325787247"><ele>43.5</ele><time>2026-04-11T12:34:49.001Z</time></trkpt><trkpt lat="41.15600569576068" lon="14.176435845066651"><ele>43.0</ele><time>2026-04-11T12:34:50.001Z</time></trkpt><trkpt lat="41.15621476289206" lon="14.17627758948771"><ele>43.0</ele><time>2026-04-11T12:34:51.001Z</time></trkpt><trkpt lat="41.15642276186687" lon="14.176116594992612"><ele>43.0</ele><time>2026-04-11T12:34:52.001Z</time></trkpt><trkpt lat="41.15662264767423" lon="14.175958821217769"><ele>43.333333333333336</ele><time>2026-04-11T12:34:53.001Z</time></trkpt><trkpt lat="41.156819497168144" lon="14.175809895195576"><ele>43.666666666666664</ele><time>2026-04-11T12:34:54.001Z</time></trkpt><trkpt lat="41.15700671003137" lon="14.175666148095408"><ele>44.0</ele><time>2026-04-11T12:34:55.001Z</time></trkpt><trkpt lat="41.15719084947447" lon="14.175528100586005"><ele>44.33333333333333</ele><time>2026-04-11T12:34:56.001Z</time></trkpt><trkpt lat="41.15735613997359" lon="14.17539936545786"><ele>44.666666666666664</ele><time>2026-04-11T12:34:57.001Z</time></trkpt><trkpt lat="41.157504878117194" lon="14.17528455856936"><ele>45.0</ele><time>2026-04-11T12:34:58.001Z</time></trkpt><trkpt lat="41.15764031761858" lon="14.175175214387297"><ele>45.0</ele><time>2026-04-11T12:34:59.001Z</time></trkpt><trkpt lat="41.15778280304881" lon="14.17508562519836"><ele>45.0</ele><time>2026-04-11T12:35:00.001Z</time></trkpt><trkpt lat="41.157939168926596" lon="14.174965526438424"><ele>45.0</ele><time>2026-04-11T12:35:01.001Z</time></trkpt><trkpt lat="41.15811254366733" lon="14.174832354966233"><ele>45.0</ele><time>2026-04-11T12:35:02.001Z</time></trkpt><trkpt lat="41.15829038428267" lon="14.174695753210209"><ele>45.0</ele><time>2026-04-11T12:35:03.001Z</time></trkpt><trkpt lat="41.158457153545584" lon="14.174538055695567"><ele>45.0</ele><time>2026-04-11T12:35:04.001Z</time></trkpt><trkpt lat="41.15862209674448" lon="14.174406527678059"><ele>45.0</ele><time>2026-04-11T12:35:05.001Z</time></trkpt><trkpt lat="41.158785545011796" lon="14.174280142125388"><ele>45.0</ele><time>2026-04-11T12:35:06.001Z</time></trkpt><trkpt lat="41.15894507671894" lon="14.174155811476805"><ele>45.0</ele><time>2026-04-11T12:35:07.001Z</time></trkpt><trkpt lat="41.15910695287261" lon="14.174053510358727"><ele>45.0</ele><time>2026-04-11T12:35:08.001Z</time></trkpt><trkpt lat="41.159256528554074" lon="14.173910741885027"><ele>45.0</ele><time>2026-04-11T12:35:09.001Z</time></trkpt><trkpt lat="41.15940891292727" lon="14.173796605851095"><ele>45.0</ele><time>2026-04-11T12:35:10.001Z</time></trkpt><trkpt lat="41.159564810243374" lon="14.173684519014325"><ele>45.0</ele><time>2026-04-11T12:35:11.001Z</time></trkpt><trkpt lat="41.159704852995645" lon="14.173583491422477"><ele>45.0</ele><time>2026-04-11T12:35:12.001Z</time></trkpt><trkpt lat="41.159843679894784" lon="14.173473499087333"><ele>45.0</ele><time>2026-04-11T12:35:13.001Z</time></trkpt><trkpt lat="41.15998410417422" lon="14.173365093134466"><ele>45.0</ele><time>2026-04-11T12:35:14.001Z</time></trkpt><trkpt lat="41.16011745646666" lon="14.173254582695424"><ele>45.0</ele><time>2026-04-11T12:35:15.001Z</time></trkpt><trkpt lat="41.160250819414266" lon="14.173145421163936"><ele>45.0</ele><time>2026-04-11T12:35:16.001Z</time></trkpt><trkpt lat="41.16038742800824" lon="14.173043032586932"><ele>45.0</ele><time>2026-04-11T12:35:17.001Z</time></trkpt><trkpt lat="41.16052362965112" lon="14.172936047843665"><ele>45.0</ele><time>2026-04-11T12:35:18.001Z</time></trkpt><trkpt lat="41.160655502918054" lon="14.17282521079041"><ele>45.0</ele><time>2026-04-11T12:35:19.001Z</time></trkpt><trkpt lat="41.16078968873429" lon="14.172713737092995"><ele>45.0</ele><time>2026-04-11T12:35:20.001Z</time></trkpt><trkpt lat="41.16092569424923" lon="14.172607802104958"><ele>45.0</ele><time>2026-04-11T12:35:21.001Z</time></trkpt><trkpt lat="41.161066877189874" lon="14.172499817691076"><ele>45.0</ele><time>2026-04-11T12:35:22.001Z</time></trkpt><trkpt lat="41.16120752580751" lon="14.172384628397893"><ele>45.0</ele><time>2026-04-11T12:35:23.001Z</time></trkpt><trkpt lat="41.16135260725351" lon="14.172273526487665"><ele>45.0</ele><time>2026-04-11T12:35:24.001Z</time></trkpt><trkpt lat="41.16149631428619" lon="14.172156413147887"><ele>45.0</ele><time>2026-04-11T12:35:25.001Z</time></trkpt><trkpt lat="41.161640662780144" lon="14.172034739198516"><ele>45.0</ele><time>2026-04-11T12:35:26.001Z</time></trkpt><trkpt lat="41.16179685667614" lon="14.171910041357304"><ele>45.0</ele><time>2026-04-11T12:35:27.001Z</time></trkpt><trkpt lat="41.16196241104699" lon="14.171779928546995"><ele>45.0</ele><time>2026-04-11T12:35:28.001Z</time></trkpt><trkpt lat="41.16214039802963" lon="14.17164529890817"><ele>45.0</ele><time>2026-04-11T12:35:29.001Z</time></trkpt><trkpt lat="41.16231832729393" lon="14.171508919548888"><ele>45.0</ele><time>2026-04-11T12:35:30.001Z</time></trkpt><trkpt lat="41.1624943023882" lon="14.17136192699163"><ele>45.0</ele><time>2026-04-11T12:35:31.001Z</time></trkpt><trkpt lat="41.162690532828336" lon="14.1712306138946"><ele>45.0</ele><time>2026-04-11T12:35:32.001Z</time></trkpt><trkpt lat="41.162872358750846" lon="14.17109504788363"><ele>45.0</ele><time>2026-04-11T12:35:33.001Z</time></trkpt><trkpt lat="41.163050993030815" lon="14.170958163957383"><ele>45.0</ele><time>2026-04-11T12:35:34.001Z</time></trkpt><trkpt lat="41.163227229619686" lon="14.17082173058256"><ele>44.666666666666664</ele><time>2026-04-11T12:35:35.001Z</time></trkpt><trkpt lat="41.163399416652396" lon="14.170681468747967"><ele>44.33333333333333</ele><time>2026-04-11T12:35:36.001Z</time></trkpt><trkpt lat="41.16357102524549" lon="14.170551189652203"><ele>44.0</ele><time>2026-04-11T12:35:37.001Z</time></trkpt><trkpt lat="41.16374322373061" lon="14.170422835307159"><ele>44.0</ele><time>2026-04-11T12:35:38.001Z</time></trkpt><trkpt lat="41.16391354678379" lon="14.17028962674385"><ele>44.0</ele><time>2026-04-11T12:35:39.002Z</time></trkpt><trkpt lat="41.16408207005237" lon="14.170157988317275"><ele>44.0</ele><time>2026-04-11T12:35:40.002Z</time></trkpt><trkpt lat="41.164249544260045" lon="14.170030286267922"><ele>44.0</ele><time>2026-04-11T12:35:41.002Z</time></trkpt><trkpt lat="41.164408476364365" lon="14.169911802542343"><ele>44.0</ele><time>2026-04-11T12:35:42.002Z</time></trkpt><trkpt lat="41.164559024940026" lon="14.169796069609731"><ele>44.0</ele><time>2026-04-11T12:35:43.002Z</time></trkpt><trkpt lat="41.16469743179324" lon="14.169688408029641"><ele>44.0</ele><time>2026-04-11T12:35:44.002Z</time></trkpt><trkpt lat="41.16483242679309" lon="14.169581732758667"><ele>44.0</ele><time>2026-04-11T12:35:45.002Z</time></trkpt><trkpt lat="41.16497463103448" lon="14.169461788813482"><ele>44.0</ele><time>2026-04-11T12:35:46.002Z</time></trkpt><trkpt lat="41.165128102768804" lon="14.169332986574174"><ele>45.0</ele><time>2026-04-11T12:35:47.002Z</time></trkpt><trkpt lat="41.16527734834352" lon="14.169211770376288"><ele>46.0</ele><time>2026-04-11T12:35:48.002Z</time></trkpt><trkpt lat="41.16543156216033" lon="14.169094585682576"><ele>47.0</ele><time>2026-04-11T12:35:49.002Z</time></trkpt><trkpt lat="41.165592648633314" lon="14.168967973171402"><ele>47.666666666666664</ele><time>2026-04-11T12:35:50.002Z</time></trkpt><trkpt lat="41.165762844722956" lon="14.168834188277279"><ele>48.33333333333333</ele><time>2026-04-11T12:35:51.002Z</time></trkpt><trkpt lat="41.165942230818125" lon="14.168718033545929"><ele>49.0</ele><time>2026-04-11T12:35:52.002Z</time></trkpt><trkpt lat="41.166118662872826" lon="14.168581455866777"><ele>49.0</ele><time>2026-04-11T12:35:53.002Z</time></trkpt><trkpt lat="41.16630707859837" lon="14.168435886156354"><ele>49.0</ele><time>2026-04-11T12:35:54.002Z</time></trkpt><trkpt lat="41.16647435571271" lon="14.168274392675693"><ele>49.0</ele><time>2026-04-11T12:35:55.002Z</time></trkpt><trkpt lat="41.16665569421272" lon="14.168138123133838"><ele>49.33333333333333</ele><time>2026-04-11T12:35:56.002Z</time></trkpt><trkpt lat="41.16683648556063" lon="14.167994207839005"><ele>49.66666666666667</ele><time>2026-04-11T12:35:57.002Z</time></trkpt><trkpt lat="41.16701037952296" lon="14.167847267561166"><ele>50.0</ele><time>2026-04-11T12:35:58.002Z</time></trkpt><trkpt lat="41.16721079063329" lon="14.167740853682561"><ele>49.66666666666667</ele><time>2026-04-11T12:35:59Z</time></trkpt><trkpt lat="41.167395218680845" lon="14.167601160805647"><ele>49.33333333333333</ele><time>2026-04-11T12:36:00Z</time></trkpt><trkpt lat="41.16757651966366" lon="14.167461739551655"><ele>49.0</ele><time>2026-04-11T12:36:01Z</time></trkpt><trkpt lat="41.16776177563454" lon="14.1673183890793"><ele>49.0</ele><time>2026-04-11T12:36:02Z</time></trkpt><trkpt lat="41.16794250156135" lon="14.167178611289753"><ele>49.0</ele><time>2026-04-11T12:36:03Z</time></trkpt><trkpt lat="41.168122158118805" lon="14.167039448908689"><ele>49.0</ele><time>2026-04-11T12:36:04Z</time></trkpt><trkpt lat="41.16829303024687" lon="14.166906957742816"><ele>49.0</ele><time>2026-04-11T12:36:05Z</time></trkpt><trkpt lat="41.16844490769835" lon="14.166789075282539"><ele>49.0</ele><time>2026-04-11T12:36:06Z</time></trkpt><trkpt lat="41.16857568670464" lon="14.166687530737102"><ele>49.0</ele><time>2026-04-11T12:36:07Z</time></trkpt><trkpt lat="41.16871953895238" lon="14.166575834925686"><ele>48.666666666666664</ele><time>2026-04-11T12:36:08Z</time></trkpt><trkpt lat="41.16889066042076" lon="14.166442967342203"><ele>48.33333333333333</ele><time>2026-04-11T12:36:09Z</time></trkpt><trkpt lat="41.169071165456344" lon="14.166303065392912"><ele>48.0</ele><time>2026-04-11T12:36:10Z</time></trkpt><trkpt lat="41.16925534832057" lon="14.166160339920534"><ele>48.0</ele><time>2026-04-11T12:36:11Z</time></trkpt><trkpt lat="41.169436968009066" lon="14.166019600675076"><ele>48.0</ele><time>2026-04-11T12:36:12Z</time></trkpt><trkpt lat="41.169620128543365" lon="14.165877667399434"><ele>48.0</ele><time>2026-04-11T12:36:13Z</time></trkpt><trkpt lat="41.16980485458356" lon="14.165734521001388"><ele>48.66666666666667</ele><time>2026-04-11T12:36:14Z</time></trkpt><trkpt lat="41.169993199460876" lon="14.165588570296077"><ele>49.333333333333336</ele><time>2026-04-11T12:36:15Z</time></trkpt><trkpt lat="41.170184006468155" lon="14.165440938066693"><ele>50.0</ele><time>2026-04-11T12:36:16Z</time></trkpt><trkpt lat="41.17037573486348" lon="14.165292748958686"><ele>50.0</ele><time>2026-04-11T12:36:17Z</time></trkpt><trkpt lat="41.17056410284434" lon="14.165147078245282"><ele>50.0</ele><time>2026-04-11T12:36:18Z</time></trkpt><trkpt lat="41.170748257102304" lon="14.16500407401323"><ele>50.0</ele><time>2026-04-11T12:36:19Z</time></trkpt><trkpt lat="41.17091608972894" lon="14.164873683446995"><ele>50.66666666666667</ele><time>2026-04-11T12:36:20Z</time></trkpt><trkpt lat="41.17108013163882" lon="14.164746348566492"><ele>51.33333333333333</ele><time>2026-04-11T12:36:21Z</time></trkpt><trkpt lat="41.17125296747831" lon="14.16461232530298"><ele>52.0</ele><time>2026-04-11T12:36:22Z</time></trkpt><trkpt lat="41.171424416877734" lon="14.164479010645962"><ele>51.666666666666664</ele><time>2026-04-11T12:36:23Z</time></trkpt><trkpt lat="41.17159701413179" lon="14.164344635250966"><ele>51.33333333333333</ele><time>2026-04-11T12:36:24Z</time></trkpt><trkpt lat="41.17177588788011" lon="14.164206171280656"><ele>51.0</ele><time>2026-04-11T12:36:25Z</time></trkpt><trkpt lat="41.17195722646976" lon="14.164065940531259"><ele>50.33333333333333</ele><time>2026-04-11T12:36:26Z</time></trkpt><trkpt lat="41.1721447881614" lon="14.163920167306566"><ele>49.666666666666664</ele><time>2026-04-11T12:36:27Z</time></trkpt><trkpt lat="41.17233973517584" lon="14.163767849908089"><ele>49.0</ele><time>2026-04-11T12:36:28Z</time></trkpt><trkpt lat="41.17254114635213" lon="14.163610481885108"><ele>49.0</ele><time>2026-04-11T12:36:29Z</time></trkpt><trkpt lat="41.17274573249238" lon="14.16345063313194"><ele>49.0</ele><time>2026-04-11T12:36:30Z</time></trkpt><trkpt lat="41.172944242613255" lon="14.163269991480636"><ele>48.5</ele><time>2026-04-11T12:36:31Z</time></trkpt><trkpt lat="41.17316054225825" lon="14.163126530900097"><ele>48.0</ele><time>2026-04-11T12:36:32Z</time></trkpt><trkpt lat="41.1733692709315" lon="14.162963445465904"><ele>48.0</ele><time>2026-04-11T12:36:33Z</time></trkpt><trkpt lat="41.17358162996145" lon="14.16279752358515"><ele>48.0</ele><time>2026-04-11T12:36:34Z</time></trkpt><trkpt lat="41.17379695968444" lon="14.162629281939878"><ele>48.0</ele><time>2026-04-11T12:36:35Z</time></trkpt><trkpt lat="41.174011760507206" lon="14.162461452171183"><ele>48.0</ele><time>2026-04-11T12:36:36Z</time></trkpt><trkpt lat="41.17422795296786" lon="14.162292535102234"><ele>49.0</ele><time>2026-04-11T12:36:37Z</time></trkpt><trkpt lat="41.17443905530988" lon="14.16210352436221"><ele>50.0</ele><time>2026-04-11T12:36:38Z</time></trkpt><trkpt lat="41.17465615463182" lon="14.161935007074078"><ele>50.0</ele><time>2026-04-11T12:36:39Z</time></trkpt><trkpt lat="41.17487338497447" lon="14.161765567944594"><ele>50.0</ele><time>2026-04-11T12:36:40Z</time></trkpt><trkpt lat="41.175100115921296" lon="14.161613314283079"><ele>51.0</ele><time>2026-04-11T12:36:41Z</time></trkpt><trkpt lat="41.17531496247224" lon="14.16144610915311"><ele>52.0</ele><time>2026-04-11T12:36:42Z</time></trkpt><trkpt lat="41.175526085430015" lon="14.16128218064736"><ele>52.0</ele><time>2026-04-11T12:36:43Z</time></trkpt><trkpt lat="41.175728142794725" lon="14.161101391480793"><ele>52.0</ele><time>2026-04-11T12:36:44Z</time></trkpt><trkpt lat="41.17594218368082" lon="14.1609449248491"><ele>52.0</ele><time>2026-04-11T12:36:45Z</time></trkpt><trkpt lat="41.17615218772432" lon="14.16078802687249"><ele>52.0</ele><time>2026-04-11T12:36:46Z</time></trkpt><trkpt lat="41.17635302012851" lon="14.160632401793167"><ele>52.5</ele><time>2026-04-11T12:36:47Z</time></trkpt><trkpt lat="41.17654835606394" lon="14.160477389877128"><ele>53.0</ele><time>2026-04-11T12:36:48.001Z</time></trkpt><trkpt lat="41.17674912833942" lon="14.160324266078161"><ele>53.0</ele><time>2026-04-11T12:36:49.001Z</time></trkpt><trkpt lat="41.17694842150566" lon="14.160166841798628"><ele>53.0</ele><time>2026-04-11T12:36:50.001Z</time></trkpt><trkpt lat="41.17715244947821" lon="14.160004591141517"><ele>52.0</ele><time>2026-04-11T12:36:51.001Z</time></trkpt><trkpt lat="41.17735535450616" lon="14.159845155744"><ele>51.0</ele><time>2026-04-11T12:36:52.001Z</time></trkpt><trkpt lat="41.17756755141589" lon="14.159707569094232"><ele>51.0</ele><time>2026-04-11T12:36:53.001Z</time></trkpt><trkpt lat="41.17776705749331" lon="14.159554569599404"><ele>51.0</ele><time>2026-04-11T12:36:54.001Z</time></trkpt><trkpt lat="41.17797070865449" lon="14.159398391273832"><ele>51.0</ele><time>2026-04-11T12:36:55.001Z</time></trkpt><trkpt lat="41.17817803971515" lon="14.159237076111651"><ele>51.0</ele><time>2026-04-11T12:36:56.001Z</time></trkpt><trkpt lat="41.17836848864453" lon="14.159048999544726"><ele>53.0</ele><time>2026-04-11T12:36:57.001Z</time></trkpt><trkpt lat="41.178569538570564" lon="14.158895539396598"><ele>55.0</ele><time>2026-04-11T12:36:58.001Z</time></trkpt><trkpt lat="41.17877208791725" lon="14.158740420392869"><ele>55.0</ele><time>2026-04-11T12:36:59.001Z</time></trkpt><trkpt lat="41.17896635003438" lon="14.158595410064564"><ele>55.0</ele><time>2026-04-11T12:37:00.001Z</time></trkpt><trkpt lat="41.17914794567218" lon="14.158455943379025"><ele>55.0</ele><time>2026-04-11T12:37:01.001Z</time></trkpt><trkpt lat="41.17932418236738" lon="14.158316507635698"><ele>55.0</ele><time>2026-04-11T12:37:02.001Z</time></trkpt><trkpt lat="41.1794901517141" lon="14.158186229440956"><ele>55.0</ele><time>2026-04-11T12:37:03.001Z</time></trkpt><trkpt lat="41.17965632710748" lon="14.158067801172614"><ele>55.0</ele><time>2026-04-11T12:37:04.001Z</time></trkpt><trkpt lat="41.179781041692294" lon="14.157969056530513"><ele>54.8</ele><time>2026-04-11T12:37:05.001Z</time></trkpt><trkpt lat="41.179879110224775" lon="14.157887713329702"><ele>54.6</ele><time>2026-04-11T12:37:06.001Z</time></trkpt><trkpt lat="41.17996463139784" lon="14.157824568745282"><ele>54.400000000000006</ele><time>2026-04-11T12:37:07.001Z</time></trkpt><trkpt lat="41.180038590769556" lon="14.157761400104343"><ele>54.2</ele><time>2026-04-11T12:37:08.001Z</time></trkpt><trkpt lat="41.18011306423988" lon="14.157711801798728"><ele>54.0</ele><time>2026-04-11T12:37:09.001Z</time></trkpt><trkpt lat="41.1801911235169" lon="14.157684004960727"><ele>54.0</ele><time>2026-04-11T12:37:10.001Z</time></trkpt><trkpt lat="41.180278173360385" lon="14.157680603796576"><ele>54.00000000000001</ele><time>2026-04-11T12:37:11.001Z</time></trkpt><trkpt lat="41.18037212031265" lon="14.157702598847333"><ele>54.00000000000001</ele><time>2026-04-11T12:37:12.001Z</time></trkpt><trkpt lat="41.180475932796696" lon="14.157699977639316"><ele>54.0</ele><time>2026-04-11T12:37:13.001Z</time></trkpt><trkpt lat="41.18056696158393" lon="14.157655897061137"><ele>54.0</ele><time>2026-04-11T12:37:14.001Z</time></trkpt><trkpt lat="41.18065166329521" lon="14.157593028939143"><ele>54.333333333333336</ele><time>2026-04-11T12:37:15.001Z</time></trkpt><trkpt lat="41.18073097788852" lon="14.157533666688826"><ele>54.66666666666667</ele><time>2026-04-11T12:37:16.001Z</time></trkpt><trkpt lat="41.18080766376599" lon="14.157474932425936"><ele>55.0</ele><time>2026-04-11T12:37:17.001Z</time></trkpt><trkpt lat="41.18087788305732" lon="14.15740910952003"><ele>55.333333333333336</ele><time>2026-04-11T12:37:18.001Z</time></trkpt><trkpt lat="41.18093159265318" lon="14.15732503871761"><ele>55.66666666666667</ele><time>2026-04-11T12:37:19.001Z</time></trkpt><trkpt lat="41.180971828196846" lon="14.157236792257304"><ele>56.0</ele><time>2026-04-11T12:37:20.001Z</time></trkpt><trkpt lat="41.18099910223885" lon="14.157153062447275"><ele>56.00000000000001</ele><time>2026-04-11T12:37:21.001Z</time></trkpt><trkpt lat="41.18102535653695" lon="14.157072589923594"><ele>56.0</ele><time>2026-04-11T12:37:22.001Z</time></trkpt><trkpt lat="41.18106382918889" lon="14.156993492933381"><ele>56.0</ele><time>2026-04-11T12:37:23.001Z</time></trkpt><trkpt lat="41.18111761885706" lon="14.156924167770583"><ele>56.0</ele><time>2026-04-11T12:37:24.001Z</time></trkpt><trkpt lat="41.18120513427225" lon="14.156854425065303"><ele>56.00000000000001</ele><time>2026-04-11T12:37:25.001Z</time></trkpt><trkpt lat="41.18130490599788" lon="14.156773036017908"><ele>56.0</ele><time>2026-04-11T12:37:26.001Z</time></trkpt><trkpt lat="41.18141562441088" lon="14.156692242998401"><ele>56.333333333333336</ele><time>2026-04-11T12:37:27.001Z</time></trkpt><trkpt lat="41.18153900243144" lon="14.156581562405911"><ele>56.66666666666667</ele><time>2026-04-11T12:37:28.001Z</time></trkpt><trkpt lat="41.18167460641365" lon="14.156467418843638"><ele>57.0</ele><time>2026-04-11T12:37:29.001Z</time></trkpt><trkpt lat="41.18182105061299" lon="14.156342035935616"><ele>57.33333333333333</ele><time>2026-04-11T12:37:30.001Z</time></trkpt><trkpt lat="41.18199726251543" lon="14.15621125804692"><ele>57.666666666666664</ele><time>2026-04-11T12:37:31.001Z</time></trkpt><trkpt lat="41.18218586007491" lon="14.15608091007145"><ele>58.0</ele><time>2026-04-11T12:37:32.001Z</time></trkpt><trkpt lat="41.182380058915136" lon="14.155952045120177"><ele>57.5</ele><time>2026-04-11T12:37:33.001Z</time></trkpt><trkpt lat="41.18257563191015" lon="14.155805820024627"><ele>57.0</ele><time>2026-04-11T12:37:34.001Z</time></trkpt><trkpt lat="41.18277234511285" lon="14.155654308723706"><ele>57.0</ele><time>2026-04-11T12:37:35.001Z</time></trkpt><trkpt lat="41.182970026450924" lon="14.155493942856976"><ele>57.0</ele><time>2026-04-11T12:37:36.001Z</time></trkpt><trkpt lat="41.18317217261504" lon="14.155333524084812"><ele>58.0</ele><time>2026-04-11T12:37:37.001Z</time></trkpt><trkpt lat="41.183373758842215" lon="14.155170958910468"><ele>59.0</ele><time>2026-04-11T12:37:38.001Z</time></trkpt><trkpt lat="41.18357437755591" lon="14.155008919234078"><ele>60.0</ele><time>2026-04-11T12:37:39.001Z</time></trkpt><trkpt lat="41.183771682346126" lon="14.154852685277458"><ele>61.0</ele><time>2026-04-11T12:37:40.001Z</time></trkpt><trkpt lat="41.183968385515726" lon="14.15469859185163"><ele>60.666666666666664</ele><time>2026-04-11T12:37:41.001Z</time></trkpt><trkpt lat="41.18415302030551" lon="14.154546026859487"><ele>60.33333333333333</ele><time>2026-04-11T12:37:42.001Z</time></trkpt><trkpt lat="41.18433849417739" lon="14.154398159998598"><ele>60.0</ele><time>2026-04-11T12:37:43.002Z</time></trkpt><trkpt lat="41.18452160950383" lon="14.15425227670764"><ele>60.0</ele><time>2026-04-11T12:37:44.002Z</time></trkpt><trkpt lat="41.18470387692021" lon="14.15411629040262"><ele>60.0</ele><time>2026-04-11T12:37:45.002Z</time></trkpt><trkpt lat="41.18488342197779" lon="14.153978439586222"><ele>60.0</ele><time>2026-04-11T12:37:46.002Z</time></trkpt><trkpt lat="41.18505691989241" lon="14.15384414332459"><ele>61.0</ele><time>2026-04-11T12:37:47.002Z</time></trkpt><trkpt lat="41.185230739667745" lon="14.153707702171378"><ele>62.0</ele><time>2026-04-11T12:37:48.002Z</time></trkpt><trkpt lat="41.18540205365968" lon="14.153572898415938"><ele>63.0</ele><time>2026-04-11T12:37:49.002Z</time></trkpt><trkpt lat="41.18557244108629" lon="14.153437345677741"><ele>63.66666666666667</ele><time>2026-04-11T12:37:50.002Z</time></trkpt><trkpt lat="41.185747180777405" lon="14.15330162096522"><ele>64.33333333333334</ele><time>2026-04-11T12:37:51.002Z</time></trkpt><trkpt lat="41.185928167744024" lon="14.15316114037692"><ele>65.0</ele><time>2026-04-11T12:37:52.002Z</time></trkpt><trkpt lat="41.18611017896001" lon="14.153019615617147"><ele>65.0</ele><time>2026-04-11T12:37:53.002Z</time></trkpt><trkpt lat="41.186294071536146" lon="14.152869221401051"><ele>65.0</ele><time>2026-04-11T12:37:54.002Z</time></trkpt><trkpt lat="41.18647843115586" lon="14.152723681738026"><ele>65.0</ele><time>2026-04-11T12:37:55.002Z</time></trkpt><trkpt lat="41.1866673738775" lon="14.152578586569451"><ele>65.0</ele><time>2026-04-11T12:37:56.002Z</time></trkpt><trkpt lat="41.18685506652557" lon="14.152436468048771"><ele>65.0</ele><time>2026-04-11T12:37:57.002Z</time></trkpt><trkpt lat="41.187043406215494" lon="14.15229114547276"><ele>65.0</ele><time>2026-04-11T12:37:58.002Z</time></trkpt><trkpt lat="41.187233076662615" lon="14.152142368827672"><ele>66.33333333333334</ele><time>2026-04-11T12:37:59.002Z</time></trkpt><trkpt lat="41.187423941133495" lon="14.151993972031708"><ele>67.66666666666667</ele><time>2026-04-11T12:38:00.002Z</time></trkpt><trkpt lat="41.18761662618481" lon="14.151844907219942"><ele>69.0</ele><time>2026-04-11T12:38:01.002Z</time></trkpt><trkpt lat="41.18782582239587" lon="14.151727269231994"><ele>69.0</ele><time>2026-04-11T12:38:02.002Z</time></trkpt><trkpt lat="41.18802754090155" lon="14.151571884027275"><ele>69.0</ele><time>2026-04-11T12:38:03.002Z</time></trkpt><trkpt lat="41.188231314438525" lon="14.1514136772129"><ele>69.5</ele><time>2026-04-11T12:38:04.002Z</time></trkpt><trkpt lat="41.188436820159446" lon="14.151254400103088"><ele>70.0</ele><time>2026-04-11T12:38:05Z</time></trkpt><trkpt lat="41.18864622848208" lon="14.151092098261618"><ele>70.0</ele><time>2026-04-11T12:38:06Z</time></trkpt><trkpt lat="41.18885033605125" lon="14.150933904775448"><ele>70.0</ele><time>2026-04-11T12:38:07Z</time></trkpt><trkpt lat="41.18905457554984" lon="14.150775564605878"><ele>70.5</ele><time>2026-04-11T12:38:08Z</time></trkpt><trkpt lat="41.18925985127113" lon="14.150616360741164"><ele>71.0</ele><time>2026-04-11T12:38:09Z</time></trkpt><trkpt lat="41.18946606258472" lon="14.15045735929401"><ele>71.0</ele><time>2026-04-11T12:38:10Z</time></trkpt><trkpt lat="41.18967345237938" lon="14.150297757193222"><ele>71.0</ele><time>2026-04-11T12:38:11Z</time></trkpt><trkpt lat="41.1898797452376" lon="14.150138084894365"><ele>72.5</ele><time>2026-04-11T12:38:12Z</time></trkpt><trkpt lat="41.19009152303729" lon="14.149974167202943"><ele>74.0</ele><time>2026-04-11T12:38:13Z</time></trkpt><trkpt lat="41.19030377032967" lon="14.149809229000741"><ele>74.0</ele><time>2026-04-11T12:38:14Z</time></trkpt><trkpt lat="41.19051132943563" lon="14.149647386865452"><ele>74.0</ele><time>2026-04-11T12:38:15Z</time></trkpt><trkpt lat="41.19071637799813" lon="14.149487084654005"><ele>74.0</ele><time>2026-04-11T12:38:16Z</time></trkpt><trkpt lat="41.19091948311786" lon="14.149328495342058"><ele>74.0</ele><time>2026-04-11T12:38:17Z</time></trkpt><trkpt lat="41.191128390526096" lon="14.149165371990588"><ele>74.0</ele><time>2026-04-11T12:38:18Z</time></trkpt><trkpt lat="41.19134048106081" lon="14.148998458449512"><ele>74.0</ele><time>2026-04-11T12:38:19Z</time></trkpt><trkpt lat="41.19155434023806" lon="14.14882885280421"><ele>74.0</ele><time>2026-04-11T12:38:20Z</time></trkpt><trkpt lat="41.19177204887497" lon="14.148657534043558"><ele>74.0</ele><time>2026-04-11T12:38:21Z</time></trkpt><trkpt lat="41.19199646331972" lon="14.148482414305748"><ele>74.0</ele><time>2026-04-11T12:38:22Z</time></trkpt><trkpt lat="41.19222549954344" lon="14.148302205598654"><ele>74.0</ele><time>2026-04-11T12:38:23Z</time></trkpt><trkpt lat="41.192454919513445" lon="14.148121258807656"><ele>75.0</ele><time>2026-04-11T12:38:24Z</time></trkpt><trkpt lat="41.19268292862183" lon="14.147947903730163"><ele>76.0</ele><time>2026-04-11T12:38:25Z</time></trkpt><trkpt lat="41.19290941655939" lon="14.14777658570467"><ele>76.0</ele><time>2026-04-11T12:38:26Z</time></trkpt><trkpt lat="41.193141302286165" lon="14.147600493376176"><ele>76.0</ele><time>2026-04-11T12:38:27Z</time></trkpt><trkpt lat="41.19337242604976" lon="14.147426365690874"><ele>76.5</ele><time>2026-04-11T12:38:28Z</time></trkpt><trkpt lat="41.19360279740992" lon="14.14725285409624"><ele>77.0</ele><time>2026-04-11T12:38:29Z</time></trkpt><trkpt lat="41.19383580163894" lon="14.147075483990962"><ele>77.5</ele><time>2026-04-11T12:38:30Z</time></trkpt><trkpt lat="41.19406696508705" lon="14.14689985903402"><ele>78.0</ele><time>2026-04-11T12:38:31Z</time></trkpt><trkpt lat="41.19429877740797" lon="14.146723957208435"><ele>78.0</ele><time>2026-04-11T12:38:32Z</time></trkpt><trkpt lat="41.19453061923236" lon="14.146548109020799"><ele>78.0</ele><time>2026-04-11T12:38:33Z</time></trkpt><trkpt lat="41.19476048070189" lon="14.146368739144256"><ele>80.0</ele><time>2026-04-11T12:38:34Z</time></trkpt><trkpt lat="41.19499070066781" lon="14.146186526612116"><ele>82.0</ele><time>2026-04-11T12:38:35Z</time></trkpt><trkpt lat="41.195217478528754" lon="14.146005617428905"><ele>82.0</ele><time>2026-04-11T12:38:36Z</time></trkpt><trkpt lat="41.19544520364293" lon="14.145823800181361"><ele>82.0</ele><time>2026-04-11T12:38:37Z</time></trkpt><trkpt lat="41.19566732976272" lon="14.145628950046728"><ele>82.0</ele><time>2026-04-11T12:38:38Z</time></trkpt><trkpt lat="41.19589467574298" lon="14.145459424519464"><ele>82.0</ele><time>2026-04-11T12:38:39Z</time></trkpt><trkpt lat="41.19612938870381" lon="14.145283942424832"><ele>82.0</ele><time>2026-04-11T12:38:40Z</time></trkpt><trkpt lat="41.19636566957687" lon="14.145112269434367"><ele>82.0</ele><time>2026-04-11T12:38:41Z</time></trkpt><trkpt lat="41.196605264736995" lon="14.144941763265455"><ele>82.0</ele><time>2026-04-11T12:38:42Z</time></trkpt><trkpt lat="41.196844862735354" lon="14.144772955257473"><ele>82.0</ele><time>2026-04-11T12:38:43.001Z</time></trkpt><trkpt lat="41.197073693112095" lon="14.144578072235932"><ele>82.0</ele><time>2026-04-11T12:38:44.001Z</time></trkpt><trkpt lat="41.19728393552741" lon="14.144382512392049"><ele>82.0</ele><time>2026-04-11T12:38:45.001Z</time></trkpt><trkpt lat="41.19750769531805" lon="14.144217549084956"><ele>84.0</ele><time>2026-04-11T12:38:46.001Z</time></trkpt><trkpt lat="41.19773030406017" lon="14.144026049868234"><ele>86.0</ele><time>2026-04-11T12:38:47.001Z</time></trkpt><trkpt lat="41.19795033525659" lon="14.143876182555603"><ele>84.5</ele><time>2026-04-11T12:38:48.001Z</time></trkpt><trkpt lat="41.19817462303804" lon="14.143703210165791"><ele>83.0</ele><time>2026-04-11T12:38:49.001Z</time></trkpt><trkpt lat="41.19839229967842" lon="14.143510915644612"><ele>83.0</ele><time>2026-04-11T12:38:50.001Z</time></trkpt><trkpt lat="41.198633681567316" lon="14.14335032326827"><ele>83.0</ele><time>2026-04-11T12:38:51.001Z</time></trkpt><trkpt lat="41.19887038715329" lon="14.143168876225083"><ele>83.0</ele><time>2026-04-11T12:38:52.001Z</time></trkpt><trkpt lat="41.19911264707623" lon="14.142982782186333"><ele>83.0</ele><time>2026-04-11T12:38:53.001Z</time></trkpt><trkpt lat="41.19935625732907" lon="14.142795137510449"><ele>83.0</ele><time>2026-04-11T12:38:54.001Z</time></trkpt><trkpt lat="41.19958522078445" lon="14.142619121890917"><ele>83.0</ele><time>2026-04-11T12:38:55.001Z</time></trkpt><trkpt lat="41.199810913759" lon="14.14244562041248"><ele>84.0</ele><time>2026-04-11T12:38:56.001Z</time></trkpt><trkpt lat="41.20003695638749" lon="14.142271557802703"><ele>85.0</ele><time>2026-04-11T12:38:57.001Z</time></trkpt><trkpt lat="41.20026216911208" lon="14.142098060141365"><ele>85.0</ele><time>2026-04-11T12:38:58.001Z</time></trkpt><trkpt lat="41.200486554474345" lon="14.141925199830139"><ele>85.0</ele><time>2026-04-11T12:38:59.001Z</time></trkpt><trkpt lat="41.20071088516114" lon="14.141752609792514"><ele>84.5</ele><time>2026-04-11T12:39:00.001Z</time></trkpt><trkpt lat="41.20093154722138" lon="14.141583016053184"><ele>84.0</ele><time>2026-04-11T12:39:01.001Z</time></trkpt><trkpt lat="41.2011383520728" lon="14.14142638262194"><ele>84.0</ele><time>2026-04-11T12:39:02.001Z</time></trkpt><trkpt lat="41.20132520626793" lon="14.141274157227144"><ele>84.0</ele><time>2026-04-11T12:39:03.001Z</time></trkpt><trkpt lat="41.20151174270738" lon="14.141147327148927"><ele>84.0</ele><time>2026-04-11T12:39:04.001Z</time></trkpt><trkpt lat="41.20168334262549" lon="14.141011181669505"><ele>83.33333333333333</ele><time>2026-04-11T12:39:05.001Z</time></trkpt><trkpt lat="41.20184117975222" lon="14.14086597021659"><ele>82.66666666666666</ele><time>2026-04-11T12:39:06.001Z</time></trkpt><trkpt lat="41.201979621320554" lon="14.140697670004643"><ele>82.0</ele><time>2026-04-11T12:39:07.001Z</time></trkpt><trkpt lat="41.20209708162" lon="14.140489571837819"><ele>80.0</ele><time>2026-04-11T12:39:08.001Z</time></trkpt><trkpt lat="41.20219245065931" lon="14.140285525956388"><ele>78.0</ele><time>2026-04-11T12:39:09.001Z</time></trkpt><trkpt lat="41.202239991053844" lon="14.140038846939419"><ele>76.0</ele><time>2026-04-11T12:39:10.001Z</time></trkpt><trkpt lat="41.20228462105354" lon="14.139773018027594"><ele>76.0</ele><time>2026-04-11T12:39:11.001Z</time></trkpt><trkpt lat="41.202325626945694" lon="14.139490428692717"><ele>76.0</ele><time>2026-04-11T12:39:12.001Z</time></trkpt><trkpt lat="41.20236874006738" lon="14.139221659390524"><ele>76.0</ele><time>2026-04-11T12:39:13.001Z</time></trkpt><trkpt lat="41.20242997757654" lon="14.138971057162571"><ele>79.66666666666666</ele><time>2026-04-11T12:39:14.001Z</time></trkpt><trkpt lat="41.20250609208605" lon="14.13872629336406"><ele>83.33333333333333</ele><time>2026-04-11T12:39:15.001Z</time></trkpt><trkpt lat="41.20259385715795" lon="14.138489436018677"><ele>87.0</ele><time>2026-04-11T12:39:16.001Z</time></trkpt><trkpt lat="41.20267736660514" lon="14.138265504458273"><ele>88.0</ele><time>2026-04-11T12:39:17.001Z</time></trkpt><trkpt lat="41.20275910502799" lon="14.138047503339212"><ele>89.0</ele><time>2026-04-11T12:39:18.001Z</time></trkpt><trkpt lat="41.20287084803295" lon="14.137842103944047"><ele>90.0</ele><time>2026-04-11T12:39:19.001Z</time></trkpt><trkpt lat="41.20297842451457" lon="14.137625534281586"><ele>90.0</ele><time>2026-04-11T12:39:20.001Z</time></trkpt><trkpt lat="41.2031001187976" lon="14.137410065162499"><ele>90.0</ele><time>2026-04-11T12:39:21.001Z</time></trkpt><trkpt lat="41.20323488892112" lon="14.137187709136848"><ele>90.0</ele><time>2026-04-11T12:39:22.001Z</time></trkpt><trkpt lat="41.20337344884612" lon="14.136943290028242"><ele>90.5</ele><time>2026-04-11T12:39:23.001Z</time></trkpt><trkpt lat="41.20349886817183" lon="14.136683090541398"><ele>91.0</ele><time>2026-04-11T12:39:24.001Z</time></trkpt><trkpt lat="41.203612613601855" lon="14.136412993599588"><ele>90.0</ele><time>2026-04-11T12:39:25.001Z</time></trkpt><trkpt lat="41.20371008734713" lon="14.136128923159395"><ele>89.0</ele><time>2026-04-11T12:39:26.001Z</time></trkpt><trkpt lat="41.203783414150024" lon="14.135828386723462"><ele>88.0</ele><time>2026-04-11T12:39:27.001Z</time></trkpt><trkpt lat="41.203833907031886" lon="14.13548739002899"><ele>87.0</ele><time>2026-04-11T12:39:28.001Z</time></trkpt><trkpt lat="41.20390162325344" lon="14.135144031379161"><ele>86.5</ele><time>2026-04-11T12:39:29.001Z</time></trkpt><trkpt lat="41.20396194454671" lon="14.134801082505147"><ele>86.0</ele><time>2026-04-11T12:39:30.001Z</time></trkpt><trkpt lat="41.20402110779979" lon="14.134464716838062"><ele>85.0</ele><time>2026-04-11T12:39:31.001Z</time></trkpt><trkpt lat="41.204080429942884" lon="14.13412815082228"><ele>84.0</ele><time>2026-04-11T12:39:32.001Z</time></trkpt><trkpt lat="41.204140876091806" lon="14.133785143378583"><ele>84.0</ele><time>2026-04-11T12:39:33.001Z</time></trkpt><trkpt lat="41.204199320392085" lon="14.133453495625263"><ele>84.0</ele><time>2026-04-11T12:39:34.001Z</time></trkpt><trkpt lat="41.20425709841055" lon="14.133125628855675"><ele>82.5</ele><time>2026-04-11T12:39:35.001Z</time></trkpt><trkpt lat="41.20431221131095" lon="14.132814044672358"><ele>81.0</ele><time>2026-04-11T12:39:36.001Z</time></trkpt><trkpt lat="41.204366494896846" lon="14.132509251500322"><ele>80.66666666666667</ele><time>2026-04-11T12:39:37.001Z</time></trkpt><trkpt lat="41.204416043762016" lon="14.132231043082566"><ele>80.33333333333334</ele><time>2026-04-11T12:39:38.001Z</time></trkpt><trkpt lat="41.204460423798686" lon="14.13197901863375"><ele>80.0</ele><time>2026-04-11T12:39:39.002Z</time></trkpt><trkpt lat="41.204502111648246" lon="14.131740225416086"><ele>82.0</ele><time>2026-04-11T12:39:40.002Z</time></trkpt><trkpt lat="41.2045474643213" lon="14.131498453215704"><ele>84.0</ele><time>2026-04-11T12:39:41.002Z</time></trkpt><trkpt lat="41.20458958909546" lon="14.1312755000092"><ele>86.0</ele><time>2026-04-11T12:39:42.002Z</time></trkpt><trkpt lat="41.20468470472995" lon="14.13105842621071"><ele>86.0</ele><time>2026-04-11T12:39:43.002Z</time></trkpt><trkpt lat="41.20482449482609" lon="14.130879962584093"><ele>86.0</ele><time>2026-04-11T12:39:44.002Z</time></trkpt><trkpt lat="41.20496901079015" lon="14.130660775073444"><ele>86.0</ele><time>2026-04-11T12:39:45.002Z</time></trkpt><trkpt lat="41.205132366605916" lon="14.130455850792233"><ele>86.0</ele><time>2026-04-11T12:39:46.002Z</time></trkpt><trkpt lat="41.205300202440206" lon="14.130244200100847"><ele>86.0</ele><time>2026-04-11T12:39:47.002Z</time></trkpt><trkpt lat="41.20546679444666" lon="14.130018130689491"><ele>85.0</ele><time>2026-04-11T12:39:48.002Z</time></trkpt><trkpt lat="41.205635952333175" lon="14.12979245847638"><ele>84.0</ele><time>2026-04-11T12:39:49.002Z</time></trkpt><trkpt lat="41.205800414070886" lon="14.129569758828213"><ele>84.0</ele><time>2026-04-11T12:39:50.002Z</time></trkpt><trkpt lat="41.20596676723956" lon="14.129347559702705"><ele>84.0</ele><time>2026-04-11T12:39:51.002Z</time></trkpt><trkpt lat="41.206131411049064" lon="14.129119499337747"><ele>86.5</ele><time>2026-04-11T12:39:52.002Z</time></trkpt><trkpt lat="41.20628382572117" lon="14.128887495353126"><ele>89.0</ele><time>2026-04-11T12:39:53.002Z</time></trkpt><trkpt lat="41.206423990553866" lon="14.128654534756322"><ele>87.5</ele><time>2026-04-11T12:39:54.002Z</time></trkpt><trkpt lat="41.20655399976732" lon="14.128402938890904"><ele>86.0</ele><time>2026-04-11T12:39:55.002Z</time></trkpt><trkpt lat="41.206694826685464" lon="14.12815692269897"><ele>86.0</ele><time>2026-04-11T12:39:56.002Z</time></trkpt><trkpt lat="41.206815779355715" lon="14.127884149723624"><ele>86.0</ele><time>2026-04-11T12:39:57.002Z</time></trkpt><trkpt lat="41.20692566639025" lon="14.127602232357875"><ele>87.5</ele><time>2026-04-11T12:39:58.002Z</time></trkpt><trkpt lat="41.207042800546496" lon="14.127327547586862"><ele>89.0</ele><time>2026-04-11T12:39:59.002Z</time></trkpt><trkpt lat="41.20716928592905" lon="14.127061549047136"><ele>89.0</ele><time>2026-04-11T12:40:00.002Z</time></trkpt><trkpt lat="41.20729363608742" lon="14.126806509936511"><ele>89.0</ele><time>2026-04-11T12:40:01.002Z</time></trkpt><trkpt lat="41.20742190707479" lon="14.126553481950134"><ele>88.66666666666667</ele><time>2026-04-11T12:40:02.002Z</time></trkpt><trkpt lat="41.207547778157014" lon="14.126305152106296"><ele>88.33333333333333</ele><time>2026-04-11T12:40:03.002Z</time></trkpt><trkpt lat="41.20765569874295" lon="14.126055761446022"><ele>88.0</ele><time>2026-04-11T12:40:04.002Z</time></trkpt><trkpt lat="41.20776763033663" lon="14.125812996301944"><ele>88.66666666666666</ele><time>2026-04-11T12:40:05.002Z</time></trkpt><trkpt lat="41.20786321996563" lon="14.125560605179553"><ele>89.33333333333333</ele><time>2026-04-11T12:40:06.002Z</time></trkpt><trkpt lat="41.2079454547101" lon="14.125276188578491"><ele>90.0</ele><time>2026-04-11T12:40:07.002Z</time></trkpt><trkpt lat="41.20801717036336" lon="14.124988826040545"><ele>91.0</ele><time>2026-04-11T12:40:08.002Z</time></trkpt><trkpt lat="41.20809104872115" lon="14.124708790480609"><ele>92.0</ele><time>2026-04-11T12:40:09.002Z</time></trkpt><trkpt lat="41.208164926962894" lon="14.12444147903865"><ele>93.0</ele><time>2026-04-11T12:40:10.002Z</time></trkpt><trkpt lat="41.208241110127" lon="14.124193813324492"><ele>91.0</ele><time>2026-04-11T12:40:11Z</time></trkpt><trkpt lat="41.20831011298246" lon="14.123948140953727"><ele>89.0</ele><time>2026-04-11T12:40:12Z</time></trkpt><trkpt lat="41.20838793619985" lon="14.123706168272049"><ele>87.0</ele><time>2026-04-11T12:40:13Z</time></trkpt><trkpt lat="41.20847049259805" lon="14.123473850757826"><ele>87.0</ele><time>2026-04-11T12:40:14Z</time></trkpt><trkpt lat="41.2085684324719" lon="14.123236973822824"><ele>87.0</ele><time>2026-04-11T12:40:15Z</time></trkpt><trkpt lat="41.20867690109628" lon="14.122997968250557"><ele>87.0</ele><time>2026-04-11T12:40:16Z</time></trkpt><trkpt lat="41.20881135877385" lon="14.122752843234096"><ele>87.66666666666667</ele><time>2026-04-11T12:40:17Z</time></trkpt><trkpt lat="41.20892999791287" lon="14.122499492866094"><ele>88.33333333333334</ele><time>2026-04-11T12:40:18Z</time></trkpt><trkpt lat="41.209038772262126" lon="14.122266654091105"><ele>89.0</ele><time>2026-04-11T12:40:19Z</time></trkpt><trkpt lat="41.209129951084094" lon="14.122030490448267"><ele>89.0</ele><time>2026-04-11T12:40:20Z</time></trkpt><trkpt lat="41.20923043977814" lon="14.121822271143046"><ele>89.0</ele><time>2026-04-11T12:40:21Z</time></trkpt><trkpt lat="41.20932661015729" lon="14.1216203234717"><ele>89.0</ele><time>2026-04-11T12:40:22Z</time></trkpt><trkpt lat="41.209416958738046" lon="14.121421421909089"><ele>90.0</ele><time>2026-04-11T12:40:23Z</time></trkpt><trkpt lat="41.20951055642981" lon="14.121228281780867"><ele>91.0</ele><time>2026-04-11T12:40:24Z</time></trkpt><trkpt lat="41.20959783566464" lon="14.121053093895066"><ele>92.0</ele><time>2026-04-11T12:40:25Z</time></trkpt><trkpt lat="41.20967882060086" lon="14.120888230808808"><ele>92.66666666666667</ele><time>2026-04-11T12:40:26Z</time></trkpt><trkpt lat="41.209757192839234" lon="14.1207130975011"><ele>93.33333333333333</ele><time>2026-04-11T12:40:27Z</time></trkpt><trkpt lat="41.20983858322726" lon="14.12052228486615"><ele>94.0</ele><time>2026-04-11T12:40:28Z</time></trkpt><trkpt lat="41.20994135832161" lon="14.120332476764792"><ele>94.0</ele><time>2026-04-11T12:40:29Z</time></trkpt><trkpt lat="41.21003483617892" lon="14.120132001062034"><ele>94.0</ele><time>2026-04-11T12:40:30Z</time></trkpt><trkpt lat="41.21012936080045" lon="14.119930076449096"><ele>94.0</ele><time>2026-04-11T12:40:31Z</time></trkpt><trkpt lat="41.2102279785704" lon="14.11971931383496"><ele>95.66666666666666</ele><time>2026-04-11T12:40:32Z</time></trkpt><trkpt lat="41.210328476411114" lon="14.119504533243234"><ele>97.33333333333333</ele><time>2026-04-11T12:40:33Z</time></trkpt><trkpt lat="41.210424919847604" lon="14.119298417593537"><ele>99.0</ele><time>2026-04-11T12:40:34Z</time></trkpt><trkpt lat="41.21052019570268" lon="14.11909479724646"><ele>98.33333333333334</ele><time>2026-04-11T12:40:35Z</time></trkpt><trkpt lat="41.210611527462305" lon="14.1188996060478"><ele>97.66666666666667</ele><time>2026-04-11T12:40:36Z</time></trkpt><trkpt lat="41.21069781566933" lon="14.118715193812674"><ele>97.0</ele><time>2026-04-11T12:40:37Z</time></trkpt><trkpt lat="41.21078237947489" lon="14.118532362243858"><ele>97.0</ele><time>2026-04-11T12:40:38Z</time></trkpt><trkpt lat="41.21085885446097" lon="14.118327224134164"><ele>97.0</ele><time>2026-04-11T12:40:39Z</time></trkpt><trkpt lat="41.2109448017143" lon="14.118125897870652"><ele>97.0</ele><time>2026-04-11T12:40:40Z</time></trkpt><trkpt lat="41.211036065366514" lon="14.117933018051698"><ele>98.33333333333334</ele><time>2026-04-11T12:40:41Z</time></trkpt><trkpt lat="41.211116050488606" lon="14.117706188643231"><ele>99.66666666666666</ele><time>2026-04-11T12:40:42Z</time></trkpt><trkpt lat="41.21119079500785" lon="14.117462537722558"><ele>101.0</ele><time>2026-04-11T12:40:43Z</time></trkpt><trkpt lat="41.211269516585496" lon="14.117196590355736"><ele>102.5</ele><time>2026-04-11T12:40:44Z</time></trkpt><trkpt lat="41.211348671016474" lon="14.116914860365721"><ele>104.0</ele><time>2026-04-11T12:40:45Z</time></trkpt><trkpt lat="41.21142391792215" lon="14.116627012514282"><ele>103.5</ele><time>2026-04-11T12:40:46Z</time></trkpt><trkpt lat="41.211485404315006" lon="14.11631813576147"><ele>103.0</ele><time>2026-04-11T12:40:47Z</time></trkpt><trkpt lat="41.2115666917902" lon="14.116016574801339"><ele>102.5</ele><time>2026-04-11T12:40:48Z</time></trkpt><trkpt lat="41.211645265825105" lon="14.115713181949918"><ele>102.0</ele><time>2026-04-11T12:40:49.001Z</time></trkpt><trkpt lat="41.211718385420674" lon="14.115409366625062"><ele>102.0</ele><time>2026-04-11T12:40:50.001Z</time></trkpt><trkpt lat="41.21178915658533" lon="14.115117568430163"><ele>102.0</ele><time>2026-04-11T12:40:51.001Z</time></trkpt><trkpt lat="41.21185353098119" lon="14.114827784174526"><ele>102.5</ele><time>2026-04-11T12:40:52.001Z</time></trkpt><trkpt lat="41.211918494063646" lon="14.114528378537333"><ele>103.0</ele><time>2026-04-11T12:40:53.001Z</time></trkpt><trkpt lat="41.21196957887729" lon="14.114228107634839"><ele>103.5</ele><time>2026-04-11T12:40:54.001Z</time></trkpt><trkpt lat="41.21201820185047" lon="14.113936247980764"><ele>104.0</ele><time>2026-04-11T12:40:55.001Z</time></trkpt><trkpt lat="41.21205198371019" lon="14.113637885346767"><ele>104.0</ele><time>2026-04-11T12:40:56.001Z</time></trkpt><trkpt lat="41.21207034800157" lon="14.113336660836897"><ele>104.0</ele><time>2026-04-11T12:40:57.001Z</time></trkpt><trkpt lat="41.212094248134925" lon="14.113043092650614"><ele>104.0</ele><time>2026-04-11T12:40:58.001Z</time></trkpt><trkpt lat="41.212116655182555" lon="14.112745138456846"><ele>104.66666666666666</ele><time>2026-04-11T12:40:59.001Z</time></trkpt><trkpt lat="41.212136628400756" lon="14.112459178484237"><ele>105.33333333333334</ele><time>2026-04-11T12:41:00.001Z</time></trkpt><trkpt lat="41.21214991348619" lon="14.112186988460111"><ele>106.0</ele><time>2026-04-11T12:41:01.001Z</time></trkpt><trkpt lat="41.21221069189842" lon="14.111941935972448"><ele>106.33333333333334</ele><time>2026-04-11T12:41:02.001Z</time></trkpt><trkpt lat="41.21231206112862" lon="14.111717650797463"><ele>106.66666666666666</ele><time>2026-04-11T12:41:03.001Z</time></trkpt><trkpt lat="41.212419512755666" lon="14.111483562858103"><ele>107.0</ele><time>2026-04-11T12:41:04.001Z</time></trkpt><trkpt lat="41.2125387691582" lon="14.111241702159747"><ele>107.0</ele><time>2026-04-11T12:41:05.001Z</time></trkpt><trkpt lat="41.21266511496229" lon="14.110993717497553"><ele>107.0</ele><time>2026-04-11T12:41:06.001Z</time></trkpt><trkpt lat="41.2127938164668" lon="14.110753113993988"><ele>107.0</ele><time>2026-04-11T12:41:07.001Z</time></trkpt><trkpt lat="41.212936159327775" lon="14.110527867200144"><ele>107.5</ele><time>2026-04-11T12:41:08.001Z</time></trkpt><trkpt lat="41.21308469322674" lon="14.110307249872964"><ele>108.0</ele><time>2026-04-11T12:41:09.001Z</time></trkpt><trkpt lat="41.21323731853684" lon="14.11008150134586"><ele>110.0</ele><time>2026-04-11T12:41:10.001Z</time></trkpt><trkpt lat="41.213391498985615" lon="14.109855838728752"><ele>112.0</ele><time>2026-04-11T12:41:11.001Z</time></trkpt><trkpt lat="41.213548318953414" lon="14.109626312793027"><ele>112.0</ele><time>2026-04-11T12:41:12.001Z</time></trkpt><trkpt lat="41.213698819805394" lon="14.10940989733715"><ele>112.0</ele><time>2026-04-11T12:41:13.001Z</time></trkpt><trkpt lat="41.213847380528826" lon="14.109198687717006"><ele>112.0</ele><time>2026-04-11T12:41:14.001Z</time></trkpt><trkpt lat="41.214006927801854" lon="14.108986192188135"><ele>110.5</ele><time>2026-04-11T12:41:15.001Z</time></trkpt><trkpt lat="41.214184171485364" lon="14.108782433137726"><ele>109.0</ele><time>2026-04-11T12:41:16.001Z</time></trkpt><trkpt lat="41.21437480097744" lon="14.108587124433727"><ele>109.0</ele><time>2026-04-11T12:41:17.001Z</time></trkpt><trkpt lat="41.21457285022604" lon="14.10839761047291"><ele>109.0</ele><time>2026-04-11T12:41:18.001Z</time></trkpt><trkpt lat="41.21476682168624" lon="14.108213641295123"><ele>108.0</ele><time>2026-04-11T12:41:19.001Z</time></trkpt><trkpt lat="41.214947410930804" lon="14.108018628198566"><ele>107.0</ele><time>2026-04-11T12:41:20.001Z</time></trkpt><trkpt lat="41.21513495293192" lon="14.107833898084813"><ele>107.0</ele><time>2026-04-11T12:41:21.001Z</time></trkpt><trkpt lat="41.21533185734224" lon="14.107664467543822"><ele>107.0</ele><time>2026-04-11T12:41:22.001Z</time></trkpt><trkpt lat="41.21552040716065" lon="14.107477515233516"><ele>104.0</ele><time>2026-04-11T12:41:23.001Z</time></trkpt><trkpt lat="41.215675965203495" lon="14.107237729841588"><ele>101.0</ele><time>2026-04-11T12:41:24.001Z</time></trkpt><trkpt lat="41.21585121337261" lon="14.107045045530391"><ele>101.0</ele><time>2026-04-11T12:41:25.001Z</time></trkpt><trkpt lat="41.21602508943457" lon="14.106845811153052"><ele>101.0</ele><time>2026-04-11T12:41:26.001Z</time></trkpt><trkpt lat="41.216195255498235" lon="14.106645530100998"><ele>101.66666666666666</ele><time>2026-04-11T12:41:27.001Z</time></trkpt><trkpt lat="41.21636286544312" lon="14.106459642902651"><ele>102.33333333333334</ele><time>2026-04-11T12:41:28.001Z</time></trkpt><trkpt lat="41.216520047080394" lon="14.106275199702285"><ele>103.0</ele><time>2026-04-11T12:41:29.001Z</time></trkpt><trkpt lat="41.216683711558815" lon="14.106089672945771"><ele>103.0</ele><time>2026-04-11T12:41:30.001Z</time></trkpt><trkpt lat="41.21686959453743" lon="14.105942222537648"><ele>103.0</ele><time>2026-04-11T12:41:31.001Z</time></trkpt><trkpt lat="41.217026609090595" lon="14.105771153550554"><ele>103.0</ele><time>2026-04-11T12:41:32.001Z</time></trkpt><trkpt lat="41.21717805513094" lon="14.10559383581726"><ele>101.0</ele><time>2026-04-11T12:41:33.001Z</time></trkpt><trkpt lat="41.217356589093335" lon="14.105462256229032"><ele>99.0</ele><time>2026-04-11T12:41:34.001Z</time></trkpt><trkpt lat="41.21755494091826" lon="14.1053467698465"><ele>97.0</ele><time>2026-04-11T12:41:35.001Z</time></trkpt><trkpt lat="41.217762070050355" lon="14.105243135692456"><ele>97.0</ele><time>2026-04-11T12:41:36.001Z</time></trkpt><trkpt lat="41.21798045414508" lon="14.105176127850646"><ele>97.0</ele><time>2026-04-11T12:41:37.001Z</time></trkpt><trkpt lat="41.2182109179422" lon="14.105091170852763"><ele>96.0</ele><time>2026-04-11T12:41:38.001Z</time></trkpt><trkpt lat="41.21843366888171" lon="14.105008433066416"><ele>95.0</ele><time>2026-04-11T12:41:39.001Z</time></trkpt><trkpt lat="41.218647404850664" lon="14.10492870874638"><ele>94.0</ele><time>2026-04-11T12:41:40.001Z</time></trkpt><trkpt lat="41.21885587016521" lon="14.10485074440405"><ele>93.0</ele><time>2026-04-11T12:41:41.001Z</time></trkpt><trkpt lat="41.21904940171489" lon="14.104778365166574"><ele>92.0</ele><time>2026-04-11T12:41:42.001Z</time></trkpt><trkpt lat="41.21922491693782" lon="14.104712781329624"><ele>91.0</ele><time>2026-04-11T12:41:43.001Z</time></trkpt><trkpt lat="41.21939044102771" lon="14.104650225263612"><ele>90.0</ele><time>2026-04-11T12:41:44.001Z</time></trkpt><trkpt lat="41.21954278250342" lon="14.10459251975878"><ele>89.0</ele><time>2026-04-11T12:41:45.002Z</time></trkpt><trkpt lat="41.21968328939042" lon="14.104539297088825"><ele>90.0</ele><time>2026-04-11T12:41:46.002Z</time></trkpt><trkpt lat="41.21982004832551" lon="14.104479419173558"><ele>91.0</ele><time>2026-04-11T12:41:47.002Z</time></trkpt><trkpt lat="41.2199524978027" lon="14.104431657240807"><ele>92.0</ele><time>2026-04-11T12:41:48.002Z</time></trkpt><trkpt lat="41.22007478713048" lon="14.10440351963421"><ele>93.0</ele><time>2026-04-11T12:41:49.002Z</time></trkpt><trkpt lat="41.220193583723095" lon="14.104385492145319"><ele>93.0</ele><time>2026-04-11T12:41:50.002Z</time></trkpt><trkpt lat="41.220307002360244" lon="14.104375119143054"><ele>93.0</ele><time>2026-04-11T12:41:51.002Z</time></trkpt><trkpt lat="41.2204280566932" lon="14.1043674556374"><ele>93.0</ele><time>2026-04-11T12:41:52.002Z</time></trkpt><trkpt lat="41.220540297437275" lon="14.104365983217562"><ele>93.0</ele><time>2026-04-11T12:41:53.002Z</time></trkpt><trkpt lat="41.2206472371462" lon="14.104384035306275"><ele>93.4</ele><time>2026-04-11T12:41:54.002Z</time></trkpt><trkpt lat="41.2207564502154" lon="14.104427431239388"><ele>93.80000000000001</ele><time>2026-04-11T12:41:55.002Z</time></trkpt><trkpt lat="41.22085969262112" lon="14.104494712118859"><ele>94.2</ele><time>2026-04-11T12:41:56.002Z</time></trkpt><trkpt lat="41.22095053415454" lon="14.104527903937464"><ele>94.6</ele><time>2026-04-11T12:41:57.002Z</time></trkpt><trkpt lat="41.22103429524079" lon="14.104520489406973"><ele>95.0</ele><time>2026-04-11T12:41:58.002Z</time></trkpt><trkpt lat="41.22109405623582" lon="14.104475269011452"><ele>95.0</ele><time>2026-04-11T12:41:59.002Z</time></trkpt><trkpt lat="41.221158135530665" lon="14.104401241609047"><ele>95.0</ele><time>2026-04-11T12:42:00.002Z</time></trkpt><trkpt lat="41.221237550074726" lon="14.104326900658235"><ele>95.0</ele><time>2026-04-11T12:42:01.002Z</time></trkpt><trkpt lat="41.22135427491905" lon="14.10428787321495"><ele>95.0</ele><time>2026-04-11T12:42:02.002Z</time></trkpt><trkpt lat="41.22148803461778" lon="14.104271748774405"><ele>95.0</ele><time>2026-04-11T12:42:03.002Z</time></trkpt><trkpt lat="41.22161855332494" lon="14.10425592562199"><ele>94.5</ele><time>2026-04-11T12:42:04.002Z</time></trkpt><trkpt lat="41.22175122274657" lon="14.104235514054833"><ele>94.0</ele><time>2026-04-11T12:42:05.002Z</time></trkpt><trkpt lat="41.22188042499669" lon="14.10421921660029"><ele>93.5</ele><time>2026-04-11T12:42:06.002Z</time></trkpt><trkpt lat="41.22200884956394" lon="14.104204621374238"><ele>93.0</ele><time>2026-04-11T12:42:07.002Z</time></trkpt><trkpt lat="41.22212703270282" lon="14.104188534418844"><ele>93.0</ele><time>2026-04-11T12:42:08.002Z</time></trkpt><trkpt lat="41.22224382132583" lon="14.104177036617347"><ele>93.0</ele><time>2026-04-11T12:42:09.002Z</time></trkpt><trkpt lat="41.222351331372735" lon="14.10417185551141"><ele>93.0</ele><time>2026-04-11T12:42:10.002Z</time></trkpt><trkpt lat="41.222451573412734" lon="14.104178300669352"><ele>93.0</ele><time>2026-04-11T12:42:11.002Z</time></trkpt><trkpt lat="41.22254357381292" lon="14.104193984187042"><ele>93.0</ele><time>2026-04-11T12:42:12.002Z</time></trkpt><trkpt lat="41.22263045401821" lon="14.104214215238763"><ele>93.16666666666667</ele><time>2026-04-11T12:42:13.002Z</time></trkpt><trkpt lat="41.222724199655275" lon="14.104242827597142"><ele>93.33333333333333</ele><time>2026-04-11T12:42:14.002Z</time></trkpt><trkpt lat="41.22280680947747" lon="14.104277739750671"><ele>93.5</ele><time>2026-04-11T12:42:15.002Z</time></trkpt><trkpt lat="41.222879899390236" lon="14.104341429382007"><ele>93.66666666666666</ele><time>2026-04-11T12:42:16.002Z</time></trkpt><trkpt lat="41.22294004668892" lon="14.104427250346777"><ele>93.83333333333333</ele><time>2026-04-11T12:42:17Z</time></trkpt><trkpt lat="41.22299320275073" lon="14.104498239905162"><ele>94.0</ele><time>2026-04-11T12:42:18Z</time></trkpt><trkpt lat="41.223061187282575" lon="14.10454867581002"><ele>94.0</ele><time>2026-04-11T12:42:19Z</time></trkpt><trkpt lat="41.22314391561567" lon="14.104571835166965"><ele>94.0</ele><time>2026-04-11T12:42:20Z</time></trkpt><trkpt lat="41.22322483019438" lon="14.104560948505782"><ele>94.0</ele><time>2026-04-11T12:42:21Z</time></trkpt><trkpt lat="41.22330334189613" lon="14.104521311633743"><ele>94.0</ele><time>2026-04-11T12:42:22Z</time></trkpt><trkpt lat="41.223382125283855" lon="14.104486754982094"><ele>94.0</ele><time>2026-04-11T12:42:23Z</time></trkpt><trkpt lat="41.223454608021136" lon="14.104473096100188"><ele>94.0</ele><time>2026-04-11T12:42:24Z</time></trkpt><trkpt lat="41.22353642283224" lon="14.104489440370761"><ele>92.75</ele><time>2026-04-11T12:42:25Z</time></trkpt><trkpt lat="41.22363089528878" lon="14.104564164214501"><ele>91.5</ele><time>2026-04-11T12:42:26Z</time></trkpt><trkpt lat="41.22375710234564" lon="14.104558662987621"><ele>90.25</ele><time>2026-04-11T12:42:27Z</time></trkpt><trkpt lat="41.2238880780596" lon="14.104604859861402"><ele>89.0</ele><time>2026-04-11T12:42:28Z</time></trkpt><trkpt lat="41.224038369296764" lon="14.104655349890011"><ele>88.0</ele><time>2026-04-11T12:42:29Z</time></trkpt><trkpt lat="41.22420324302384" lon="14.104718770092877"><ele>87.0</ele><time>2026-04-11T12:42:30Z</time></trkpt><trkpt lat="41.22438839622703" lon="14.104822502153418"><ele>86.0</ele><time>2026-04-11T12:42:31Z</time></trkpt><trkpt lat="41.22459582073956" lon="14.104892207357945"><ele>85.0</ele><time>2026-04-11T12:42:32Z</time></trkpt><trkpt lat="41.224837055174156" lon="14.104973274403964"><ele>84.0</ele><time>2026-04-11T12:42:33Z</time></trkpt><trkpt lat="41.22509078426726" lon="14.105058540300902"><ele>84.0</ele><time>2026-04-11T12:42:34Z</time></trkpt><trkpt lat="41.22533198787265" lon="14.105140392615017"><ele>84.0</ele><time>2026-04-11T12:42:35Z</time></trkpt><trkpt lat="41.22556359766317" lon="14.105218240948021"><ele>83.0</ele><time>2026-04-11T12:42:36Z</time></trkpt><trkpt lat="41.22578430820762" lon="14.105270111905437"><ele>82.0</ele><time>2026-04-11T12:42:37Z</time></trkpt><trkpt lat="41.22599178816594" lon="14.105350254422106"><ele>81.0</ele><time>2026-04-11T12:42:38Z</time></trkpt><trkpt lat="41.22619847813007" lon="14.105423640746247"><ele>81.0</ele><time>2026-04-11T12:42:39Z</time></trkpt><trkpt lat="41.226396708845385" lon="14.105490183361868"><ele>81.0</ele><time>2026-04-11T12:42:40Z</time></trkpt><trkpt lat="41.22659225900932" lon="14.105558348107477"><ele>81.0</ele><time>2026-04-11T12:42:41Z</time></trkpt><trkpt lat="41.226789965434136" lon="14.105632062986045"><ele>80.66666666666667</ele><time>2026-04-11T12:42:42Z</time></trkpt><trkpt lat="41.22697957121205" lon="14.105698824886447"><ele>80.33333333333334</ele><time>2026-04-11T12:42:43Z</time></trkpt><trkpt lat="41.22717450310669" lon="14.10573220939313"><ele>80.0</ele><time>2026-04-11T12:42:44Z</time></trkpt><trkpt lat="41.22737930112763" lon="14.105729428777588"><ele>80.0</ele><time>2026-04-11T12:42:45Z</time></trkpt><trkpt lat="41.22758521285643" lon="14.105691211014912"><ele>80.0</ele><time>2026-04-11T12:42:46Z</time></trkpt><trkpt lat="41.227773274127664" lon="14.105637037150196"><ele>80.0</ele><time>2026-04-11T12:42:47Z</time></trkpt><trkpt lat="41.22797425473346" lon="14.105587187934715"><ele>80.0</ele><time>2026-04-11T12:42:48Z</time></trkpt><trkpt lat="41.22817034004564" lon="14.105535517870372"><ele>80.0</ele><time>2026-04-11T12:42:49Z</time></trkpt><trkpt lat="41.22837771706776" lon="14.105482813061409"><ele>80.0</ele><time>2026-04-11T12:42:50Z</time></trkpt><trkpt lat="41.228585238419285" lon="14.105437093564328"><ele>80.0</ele><time>2026-04-11T12:42:51Z</time></trkpt><trkpt lat="41.228783042873296" lon="14.105389132376802"><ele>80.0</ele><time>2026-04-11T12:42:52Z</time></trkpt><trkpt lat="41.22897840388774" lon="14.105365967054937"><ele>80.0</ele><time>2026-04-11T12:42:53Z</time></trkpt><trkpt lat="41.229172412441045" lon="14.105322125743484"><ele>82.0</ele><time>2026-04-11T12:42:54Z</time></trkpt><trkpt lat="41.2293605190365" lon="14.105279618125202"><ele>84.0</ele><time>2026-04-11T12:42:55.001Z</time></trkpt><trkpt lat="41.229547369354705" lon="14.105237604787016"><ele>86.0</ele><time>2026-04-11T12:42:56.001Z</time></trkpt><trkpt lat="41.229741938897064" lon="14.105196427204419"><ele>88.66666666666667</ele><time>2026-04-11T12:42:57.001Z</time></trkpt><trkpt lat="41.22995206196474" lon="14.105174924988923"><ele>91.33333333333333</ele><time>2026-04-11T12:42:58.001Z</time></trkpt><trkpt lat="41.23015520229065" lon="14.105175316412446"><ele>94.0</ele><time>2026-04-11T12:42:59.001Z</time></trkpt><trkpt lat="41.23035902887904" lon="14.105200308879343"><ele>94.0</ele><time>2026-04-11T12:43:00.001Z</time></trkpt><trkpt lat="41.230569975118875" lon="14.105222870174483"><ele>94.0</ele><time>2026-04-11T12:43:01.001Z</time></trkpt><trkpt lat="41.23077779153657" lon="14.105245096721708"><ele>94.0</ele><time>2026-04-11T12:43:02.001Z</time></trkpt><trkpt lat="41.230985434699015" lon="14.105265999990118"><ele>94.33333333333333</ele><time>2026-04-11T12:43:03.001Z</time></trkpt><trkpt lat="41.23119361834172" lon="14.105286939739496"><ele>94.66666666666667</ele><time>2026-04-11T12:43:04.001Z</time></trkpt><trkpt lat="41.231414439149816" lon="14.105307476130927"><ele>95.0</ele><time>2026-04-11T12:43:05.001Z</time></trkpt><trkpt lat="41.231649632733166" lon="14.105328567564573"><ele>96.0</ele><time>2026-04-11T12:43:06.001Z</time></trkpt><trkpt lat="41.23188810461419" lon="14.10534914150245"><ele>97.0</ele><time>2026-04-11T12:43:07.001Z</time></trkpt><trkpt lat="41.232132558472166" lon="14.105368821166769"><ele>98.0</ele><time>2026-04-11T12:43:08.001Z</time></trkpt><trkpt lat="41.232380557713405" lon="14.105391042356805"><ele>99.0</ele><time>2026-04-11T12:43:09.001Z</time></trkpt><trkpt lat="41.23263085180496" lon="14.105413470564168"><ele>99.0</ele><time>2026-04-11T12:43:10.001Z</time></trkpt><trkpt lat="41.232888616405646" lon="14.105436566510452"><ele>99.0</ele><time>2026-04-11T12:43:11.001Z</time></trkpt><trkpt lat="41.233148274091334" lon="14.10545983206439"><ele>99.5</ele><time>2026-04-11T12:43:12.001Z</time></trkpt><trkpt lat="41.23340632412549" lon="14.105483075200866"><ele>100.0</ele><time>2026-04-11T12:43:13.001Z</time></trkpt><trkpt lat="41.23367202869479" lon="14.105486619423623"><ele>100.0</ele><time>2026-04-11T12:43:14.001Z</time></trkpt><trkpt lat="41.23393451296464" lon="14.105511499027202"><ele>100.0</ele><time>2026-04-11T12:43:15.001Z</time></trkpt><trkpt lat="41.234196976039094" lon="14.10554133631452"><ele>101.0</ele><time>2026-04-11T12:43:16.001Z</time></trkpt><trkpt lat="41.23446381319687" lon="14.105569098408706"><ele>102.0</ele><time>2026-04-11T12:43:17.001Z</time></trkpt><trkpt lat="41.23472874145588" lon="14.105592216516829"><ele>102.5</ele><time>2026-04-11T12:43:18.001Z</time></trkpt><trkpt lat="41.23498902321408" lon="14.105614540963375"><ele>103.0</ele><time>2026-04-11T12:43:19.001Z</time></trkpt><trkpt lat="41.23525053316446" lon="14.105638415698916"><ele>103.0</ele><time>2026-04-11T12:43:20.001Z</time></trkpt><trkpt lat="41.2355155129621" lon="14.10568314173354"><ele>103.0</ele><time>2026-04-11T12:43:21.001Z</time></trkpt><trkpt lat="41.2357809305075" lon="14.105708029297164"><ele>102.5</ele><time>2026-04-11T12:43:22.001Z</time></trkpt><trkpt lat="41.23604396359851" lon="14.105702108299099"><ele>102.0</ele><time>2026-04-11T12:43:23.001Z</time></trkpt><trkpt lat="41.23629785371105" lon="14.105723478757795"><ele>102.0</ele><time>2026-04-11T12:43:24.001Z</time></trkpt><trkpt lat="41.236556278135374" lon="14.105738887242667"><ele>102.0</ele><time>2026-04-11T12:43:25.001Z</time></trkpt><trkpt lat="41.23681614231549" lon="14.105760035792336"><ele>103.0</ele><time>2026-04-11T12:43:26.001Z</time></trkpt><trkpt lat="41.237076314659305" lon="14.105785130233219"><ele>104.0</ele><time>2026-04-11T12:43:27.001Z</time></trkpt><trkpt lat="41.2373392546159" lon="14.105810766240404"><ele>104.5</ele><time>2026-04-11T12:43:28.001Z</time></trkpt><trkpt lat="41.23760456699612" lon="14.105841418163168"><ele>105.0</ele><time>2026-04-11T12:43:29.001Z</time></trkpt><trkpt lat="41.237867741445" lon="14.105866354451658"><ele>105.0</ele><time>2026-04-11T12:43:30.001Z</time></trkpt><trkpt lat="41.23813154694727" lon="14.105894645178417"><ele>105.0</ele><time>2026-04-11T12:43:31.001Z</time></trkpt><trkpt lat="41.23839183496819" lon="14.10592264682616"><ele>106.5</ele><time>2026-04-11T12:43:32.001Z</time></trkpt><trkpt lat="41.23865060226258" lon="14.105949223747738"><ele>108.0</ele><time>2026-04-11T12:43:33.001Z</time></trkpt><trkpt lat="41.23891404727314" lon="14.105971458385087"><ele>109.5</ele><time>2026-04-11T12:43:34.001Z</time></trkpt><trkpt lat="41.23918043039743" lon="14.105994420288196"><ele>111.0</ele><time>2026-04-11T12:43:35.001Z</time></trkpt><trkpt lat="41.23944560739632" lon="14.106015221715477"><ele>111.0</ele><time>2026-04-11T12:43:36.001Z</time></trkpt><trkpt lat="41.23970268722962" lon="14.106038870665394"><ele>111.0</ele><time>2026-04-11T12:43:37.001Z</time></trkpt><trkpt lat="41.239966827913314" lon="14.106061796983028"><ele>112.5</ele><time>2026-04-11T12:43:38.001Z</time></trkpt><trkpt lat="41.240227635949864" lon="14.106087472408145"><ele>114.0</ele><time>2026-04-11T12:43:39.001Z</time></trkpt><trkpt lat="41.240483495297255" lon="14.106111983088722"><ele>114.5</ele><time>2026-04-11T12:43:40.001Z</time></trkpt><trkpt lat="41.240736285722065" lon="14.10613221337594"><ele>115.0</ele><time>2026-04-11T12:43:41.001Z</time></trkpt><trkpt lat="41.24099180554561" lon="14.106155697545676"><ele>115.0</ele><time>2026-04-11T12:43:42.001Z</time></trkpt><trkpt lat="41.241251827822445" lon="14.106173124254434"><ele>115.0</ele><time>2026-04-11T12:43:43.001Z</time></trkpt><trkpt lat="41.24149533127668" lon="14.106193875904308"><ele>116.0</ele><time>2026-04-11T12:43:44.001Z</time></trkpt><trkpt lat="41.241736160107145" lon="14.1062135156815"><ele>117.0</ele><time>2026-04-11T12:43:45.001Z</time></trkpt><trkpt lat="41.24198782307209" lon="14.106241819492817"><ele>117.0</ele><time>2026-04-11T12:43:46.001Z</time></trkpt><trkpt lat="41.24223554831009" lon="14.10626653265215"><ele>117.0</ele><time>2026-04-11T12:43:47.001Z</time></trkpt><trkpt lat="41.24248546322597" lon="14.106282532981975"><ele>118.5</ele><time>2026-04-11T12:43:48.001Z</time></trkpt><trkpt lat="41.24271854592089" lon="14.106314276263447"><ele>120.0</ele><time>2026-04-11T12:43:49.001Z</time></trkpt><trkpt lat="41.2429426615438" lon="14.106333466271053"><ele>119.66666666666666</ele><time>2026-04-11T12:43:50.001Z</time></trkpt><trkpt lat="41.243150022489914" lon="14.106355177758996"><ele>119.33333333333333</ele><time>2026-04-11T12:43:51.001Z</time></trkpt><trkpt lat="41.24333961371305" lon="14.106375906470674"><ele>119.0</ele><time>2026-04-11T12:43:52.002Z</time></trkpt><trkpt lat="41.24351448116682" lon="14.106391075855822"><ele>119.0</ele><time>2026-04-11T12:43:53.002Z</time></trkpt><trkpt lat="41.243683669223834" lon="14.106409708072315"><ele>119.0</ele><time>2026-04-11T12:43:54.002Z</time></trkpt><trkpt lat="41.243853257726705" lon="14.106419565946055"><ele>119.0</ele><time>2026-04-11T12:43:55.002Z</time></trkpt><trkpt lat="41.2440179289611" lon="14.106431604128883"><ele>120.0</ele><time>2026-04-11T12:43:56.002Z</time></trkpt><trkpt lat="41.2441860882138" lon="14.106454088960668"><ele>121.0</ele><time>2026-04-11T12:43:57.002Z</time></trkpt><trkpt lat="41.24432536593607" lon="14.106455823090204"><ele>122.0</ele><time>2026-04-11T12:43:58.002Z</time></trkpt><trkpt lat="41.24448156667299" lon="14.106464207462837"><ele>122.0</ele><time>2026-04-11T12:43:59.002Z</time></trkpt><trkpt lat="41.244636824292435" lon="14.106480848281786"><ele>122.0</ele><time>2026-04-11T12:44:00.002Z</time></trkpt><trkpt lat="41.244793506047806" lon="14.106510749971493"><ele>122.0</ele><time>2026-04-11T12:44:01.002Z</time></trkpt><trkpt lat="41.24494790490223" lon="14.106559616644986"><ele>123.33333333333333</ele><time>2026-04-11T12:44:02.002Z</time></trkpt><trkpt lat="41.24510348281461" lon="14.106621545687098"><ele>124.66666666666666</ele><time>2026-04-11T12:44:03.002Z</time></trkpt><trkpt lat="41.24526163993306" lon="14.106696941024234"><ele>126.0</ele><time>2026-04-11T12:44:04.002Z</time></trkpt><trkpt lat="41.24542019620794" lon="14.106794907094987"><ele>126.0</ele><time>2026-04-11T12:44:05.002Z</time></trkpt><trkpt lat="41.245561438572615" lon="14.106903260311137"><ele>126.0</ele><time>2026-04-11T12:44:06.002Z</time></trkpt><trkpt lat="41.24571796432257" lon="14.107014550755386"><ele>126.0</ele><time>2026-04-11T12:44:07.002Z</time></trkpt><trkpt lat="41.245877455324546" lon="14.107135052486553"><ele>126.0</ele><time>2026-04-11T12:44:08.002Z</time></trkpt><trkpt lat="41.24603636140938" lon="14.107260717627728"><ele>126.0</ele><time>2026-04-11T12:44:09.002Z</time></trkpt><trkpt lat="41.246211011988166" lon="14.107381529339989"><ele>126.0</ele><time>2026-04-11T12:44:10.002Z</time></trkpt><trkpt lat="41.246390312089545" lon="14.107505267202793"><ele>124.66666666666666</ele><time>2026-04-11T12:44:11.002Z</time></trkpt><trkpt lat="41.246569445672016" lon="14.107625279106383"><ele>123.33333333333333</ele><time>2026-04-11T12:44:12.002Z</time></trkpt><trkpt lat="41.246748942580844" lon="14.107750478803228"><ele>122.0</ele><time>2026-04-11T12:44:13.002Z</time></trkpt><trkpt lat="41.24692638062427" lon="14.107876983713261"><ele>122.0</ele><time>2026-04-11T12:44:14.002Z</time></trkpt><trkpt lat="41.24710452984045" lon="14.10801195198331"><ele>122.0</ele><time>2026-04-11T12:44:15.002Z</time></trkpt><trkpt lat="41.24728080271565" lon="14.108147209561352"><ele>122.0</ele><time>2026-04-11T12:44:16.002Z</time></trkpt><trkpt lat="41.247449963812336" lon="14.108284422018572"><ele>120.66666666666666</ele><time>2026-04-11T12:44:17.002Z</time></trkpt><trkpt lat="41.24761522331971" lon="14.108414132447185"><ele>119.33333333333334</ele><time>2026-04-11T12:44:18.002Z</time></trkpt><trkpt lat="41.24777495122817" lon="14.108538438908136"><ele>118.0</ele><time>2026-04-11T12:44:19.002Z</time></trkpt><trkpt lat="41.247928766871475" lon="14.108654343434013"><ele>118.0</ele><time>2026-04-11T12:44:20.002Z</time></trkpt><trkpt lat="41.24809311508998" lon="14.108768871130618"><ele>118.0</ele><time>2026-04-11T12:44:21.002Z</time></trkpt><trkpt lat="41.24825679491661" lon="14.10887492694366"><ele>118.0</ele><time>2026-04-11T12:44:22.002Z</time></trkpt><trkpt lat="41.24841400551507" lon="14.108973155834708"><ele>117.33333333333334</ele><time>2026-04-11T12:44:23Z</time></trkpt><trkpt lat="41.24857423115969" lon="14.109072193975573"><ele>116.66666666666666</ele><time>2026-04-11T12:44:24Z</time></trkpt><trkpt lat="41.2487421244242" lon="14.109174310263011"><ele>116.0</ele><time>2026-04-11T12:44:25Z</time></trkpt><trkpt lat="41.24891141009175" lon="14.109275743291473"><ele>115.0</ele><time>2026-04-11T12:44:26Z</time></trkpt><trkpt lat="41.24907915283978" lon="14.109377940575992"><ele>114.0</ele><time>2026-04-11T12:44:27Z</time></trkpt><trkpt lat="41.249243624999316" lon="14.109483190966078"><ele>113.0</ele><time>2026-04-11T12:44:28Z</time></trkpt><trkpt lat="41.24940850347142" lon="14.109582185201546"><ele>113.0</ele><time>2026-04-11T12:44:29Z</time></trkpt><trkpt lat="41.24957041132001" lon="14.109679482838894"><ele>113.0</ele><time>2026-04-11T12:44:30Z</time></trkpt><trkpt lat="41.249741290027316" lon="14.109772752661177"><ele>113.0</ele><time>2026-04-11T12:44:31Z</time></trkpt><trkpt lat="41.24990045146609" lon="14.109871211698767"><ele>111.66666666666666</ele><time>2026-04-11T12:44:32Z</time></trkpt><trkpt lat="41.25006064344186" lon="14.109975644658151"><ele>110.33333333333334</ele><time>2026-04-11T12:44:33Z</time></trkpt><trkpt lat="41.250212512132634" lon="14.110062466593428"><ele>109.0</ele><time>2026-04-11T12:44:34Z</time></trkpt><trkpt lat="41.25036418430748" lon="14.110160873397334"><ele>109.0</ele><time>2026-04-11T12:44:35Z</time></trkpt><trkpt lat="41.250504472770125" lon="14.110252208708127"><ele>109.0</ele><time>2026-04-11T12:44:36Z</time></trkpt><trkpt lat="41.25064146021323" lon="14.11033699260888"><ele>109.0</ele><time>2026-04-11T12:44:37Z</time></trkpt><trkpt lat="41.25077328923289" lon="14.110416355357547"><ele>109.5</ele><time>2026-04-11T12:44:38Z</time></trkpt><trkpt lat="41.25089933233966" lon="14.11048996593424"><ele>110.0</ele><time>2026-04-11T12:44:39Z</time></trkpt><trkpt lat="41.25102943077957" lon="14.110561456820964"><ele>110.5</ele><time>2026-04-11T12:44:40Z</time></trkpt><trkpt lat="41.25115681551944" lon="14.110645576319286"><ele>111.0</ele><time>2026-04-11T12:44:41Z</time></trkpt><trkpt lat="41.25128288672268" lon="14.11072271612853"><ele>112.0</ele><time>2026-04-11T12:44:42Z</time></trkpt><trkpt lat="41.25140153623609" lon="14.110791100550243"><ele>113.0</ele><time>2026-04-11T12:44:43Z</time></trkpt><trkpt lat="41.251509215903745" lon="14.110853460115017"><ele>114.0</ele><time>2026-04-11T12:44:44Z</time></trkpt><trkpt lat="41.25161096022958" lon="14.110920634514457"><ele>115.0</ele><time>2026-04-11T12:44:45Z</time></trkpt><trkpt lat="41.251719801399524" lon="14.1109890893011"><ele>115.75</ele><time>2026-04-11T12:44:46Z</time></trkpt><trkpt lat="41.251820802524406" lon="14.111048733774489"><ele>116.5</ele><time>2026-04-11T12:44:47Z</time></trkpt><trkpt lat="41.25192875566823" lon="14.111113041481381"><ele>117.25</ele><time>2026-04-11T12:44:48Z</time></trkpt><trkpt lat="41.25204078990299" lon="14.111182275476724"><ele>118.0</ele><time>2026-04-11T12:44:49Z</time></trkpt><trkpt lat="41.2521628435475" lon="14.111255727547592"><ele>118.0</ele><time>2026-04-11T12:44:50Z</time></trkpt><trkpt lat="41.252278656335164" lon="14.111318350391665"><ele>118.0</ele><time>2026-04-11T12:44:51Z</time></trkpt><trkpt lat="41.25239660491939" lon="14.111381623322067"><ele>118.0</ele><time>2026-04-11T12:44:52Z</time></trkpt><trkpt lat="41.252511624285475" lon="14.111442392758194"><ele>118.0</ele><time>2026-04-11T12:44:53Z</time></trkpt><trkpt lat="41.252630823970854" lon="14.11150704674799"><ele>119.0</ele><time>2026-04-11T12:44:54Z</time></trkpt><trkpt lat="41.25274480075869" lon="14.111571666393765"><ele>120.00000000000001</ele><time>2026-04-11T12:44:55Z</time></trkpt><trkpt lat="41.25284096015727" lon="14.111627386198847"><ele>121.00000000000001</ele><time>2026-04-11T12:44:56Z</time></trkpt><trkpt lat="41.25293736311377" lon="14.11167753650833"><ele>122.0</ele><time>2026-04-11T12:44:57Z</time></trkpt><trkpt lat="41.25302324501469" lon="14.11172757725786"><ele>123.0</ele><time>2026-04-11T12:44:58Z</time></trkpt><trkpt lat="41.25311770672498" lon="14.111779702737762"><ele>123.75</ele><time>2026-04-11T12:44:59Z</time></trkpt><trkpt lat="41.2532177237258" lon="14.111834153000725"><ele>124.5</ele><time>2026-04-11T12:45:00Z</time></trkpt><trkpt lat="41.253328696366474" lon="14.111892491619667"><ele>125.25</ele><time>2026-04-11T12:45:01Z</time></trkpt><trkpt lat="41.253444962297436" lon="14.11195302059858"><ele>126.0</ele><time>2026-04-11T12:45:02Z</time></trkpt><trkpt lat="41.2535624656208" lon="14.112013816367924"><ele>126.0</ele><time>2026-04-11T12:45:03Z</time></trkpt><trkpt lat="41.25367492120078" lon="14.112074901584213"><ele>126.0</ele><time>2026-04-11T12:45:04.001Z</time></trkpt><trkpt lat="41.253781781453235" lon="14.112124255327553"><ele>126.0</ele><time>2026-04-11T12:45:05.001Z</time></trkpt><trkpt lat="41.253867133926505" lon="14.112166116855168"><ele>126.0</ele><time>2026-04-11T12:45:06.001Z</time></trkpt><trkpt lat="41.25394466743619" lon="14.11221362147176"><ele>126.0</ele><time>2026-04-11T12:45:07.001Z</time></trkpt><trkpt lat="41.25401135558744" lon="14.112252252724499"><ele>126.0</ele><time>2026-04-11T12:45:08.001Z</time></trkpt><trkpt lat="41.25411783709258" lon="14.112312052834337"><ele>126.0</ele><time>2026-04-11T12:45:10.001Z</time></trkpt><trkpt lat="41.25418517402633" lon="14.11235552055481"><ele>126.0</ele><time>2026-04-11T12:45:13.001Z</time></trkpt><trkpt lat="41.254120278663954" lon="14.112299547723936"><ele>126.0</ele><time>2026-04-11T12:45:47.001Z</time></trkpt><trkpt lat="41.25396001506787" lon="14.11216975896392"><ele>126.0</ele><time>2026-04-11T12:45:48.001Z</time></trkpt><trkpt lat="41.25383021071844" lon="14.11209950681862"><ele>126.0</ele><time>2026-04-11T12:45:49.001Z</time></trkpt><trkpt lat="41.25367969887299" lon="14.112024359600817"><ele>126.0</ele><time>2026-04-11T12:45:50.001Z</time></trkpt><trkpt lat="41.253507899186694" lon="14.111943760155953"><ele>126.0</ele><time>2026-04-11T12:45:51.001Z</time></trkpt><trkpt lat="41.25333667720904" lon="14.111853105321373"><ele>126.0</ele><time>2026-04-11T12:45:52.001Z</time></trkpt><trkpt lat="41.2531571592817" lon="14.111760510848999"><ele>126.0</ele><time>2026-04-11T12:45:53.001Z</time></trkpt><trkpt lat="41.25299124425925" lon="14.111669733577422"><ele>125.33333333333334</ele><time>2026-04-11T12:45:54.001Z</time></trkpt><trkpt lat="41.25282761998263" lon="14.111585813487329"><ele>124.66666666666667</ele><time>2026-04-11T12:45:55.001Z</time></trkpt><trkpt lat="41.25266649699681" lon="14.111490839492808"><ele>124.0</ele><time>2026-04-11T12:45:56.001Z</time></trkpt><trkpt lat="41.25249757247417" lon="14.111393661641861"><ele>123.66666666666667</ele><time>2026-04-11T12:45:57.001Z</time></trkpt><trkpt lat="41.252317039539385" lon="14.111294111834885"><ele>123.33333333333334</ele><time>2026-04-11T12:45:58.001Z</time></trkpt><trkpt lat="41.25213058839421" lon="14.111186184491297"><ele>123.0</ele><time>2026-04-11T12:45:59.001Z</time></trkpt><trkpt lat="41.251941257599064" lon="14.111075838573207"><ele>121.33333333333334</ele><time>2026-04-11T12:46:00.001Z</time></trkpt><trkpt lat="41.251750156979696" lon="14.110962062961862"><ele>119.66666666666667</ele><time>2026-04-11T12:46:01.001Z</time></trkpt><trkpt lat="41.251559656728084" lon="14.110845060094716"><ele>118.0</ele><time>2026-04-11T12:46:02.002Z</time></trkpt><trkpt lat="41.251366122941995" lon="14.11073482013224"><ele>115.66666666666667</ele><time>2026-04-11T12:46:03.002Z</time></trkpt><trkpt lat="41.25117444063579" lon="14.110616602587976"><ele>113.33333333333334</ele><time>2026-04-11T12:46:04.002Z</time></trkpt><trkpt lat="41.25097972654946" lon="14.110499048505789"><ele>111.0</ele><time>2026-04-11T12:46:05.002Z</time></trkpt><trkpt lat="41.25079402605677" lon="14.11038522358331"><ele>110.33333333333334</ele><time>2026-04-11T12:46:06.002Z</time></trkpt><trkpt lat="41.25059451051794" lon="14.110256847685452"><ele>109.66666666666667</ele><time>2026-04-11T12:46:07.002Z</time></trkpt><trkpt lat="41.25040528599623" lon="14.11013357193375"><ele>109.0</ele><time>2026-04-11T12:46:08.002Z</time></trkpt><trkpt lat="41.2502037829523" lon="14.110009384335967"><ele>108.0</ele><time>2026-04-11T12:46:09.002Z</time></trkpt><trkpt lat="41.25000973063995" lon="14.109890265098809"><ele>107.0</ele><time>2026-04-11T12:46:10.002Z</time></trkpt><trkpt lat="41.249815308024786" lon="14.109772545005299"><ele>106.0</ele><time>2026-04-11T12:46:11.002Z</time></trkpt><trkpt lat="41.24961272212753" lon="14.109651429145009"><ele>109.5</ele><time>2026-04-11T12:46:12.002Z</time></trkpt><trkpt lat="41.2494091999543" lon="14.109525478102617"><ele>113.0</ele><time>2026-04-11T12:46:13.002Z</time></trkpt><trkpt lat="41.249201633348974" lon="14.109402118496076"><ele>113.0</ele><time>2026-04-11T12:46:14.002Z</time></trkpt><trkpt lat="41.248993742003776" lon="14.109287773227344"><ele>113.0</ele><time>2026-04-11T12:46:15.002Z</time></trkpt><trkpt lat="41.2487887992597" lon="14.109162575951753"><ele>113.66666666666666</ele><time>2026-04-11T12:46:16.002Z</time></trkpt><trkpt lat="41.24858445182558" lon="14.10904339691666"><ele>114.33333333333334</ele><time>2026-04-11T12:46:17.002Z</time></trkpt><trkpt lat="41.24838116578103" lon="14.108925050678737"><ele>115.0</ele><time>2026-04-11T12:46:18.002Z</time></trkpt><trkpt lat="41.248185406990835" lon="14.108802910819156"><ele>116.0</ele><time>2026-04-11T12:46:19.002Z</time></trkpt><trkpt lat="41.24798915193371" lon="14.108661928990486"><ele>117.0</ele><time>2026-04-11T12:46:20.002Z</time></trkpt><trkpt lat="41.24779420301376" lon="14.108518212153339"><ele>118.0</ele><time>2026-04-11T12:46:21.002Z</time></trkpt><trkpt lat="41.247581578715426" lon="14.108360900817553"><ele>119.5</ele><time>2026-04-11T12:46:22.002Z</time></trkpt><trkpt lat="41.24736944164052" lon="14.108209773289332"><ele>121.0</ele><time>2026-04-11T12:46:23.002Z</time></trkpt><trkpt lat="41.24715637201909" lon="14.10805628311388"><ele>121.5</ele><time>2026-04-11T12:46:24.002Z</time></trkpt><trkpt lat="41.24694636450518" lon="14.107898912611676"><ele>122.0</ele><time>2026-04-11T12:46:25.002Z</time></trkpt><trkpt lat="41.24673928249818" lon="14.107743452172103"><ele>122.0</ele><time>2026-04-11T12:46:26.002Z</time></trkpt><trkpt lat="41.24652891874047" lon="14.107594872413983"><ele>122.0</ele><time>2026-04-11T12:46:27.002Z</time></trkpt><trkpt lat="41.246326262176176" lon="14.107446355861432"><ele>124.0</ele><time>2026-04-11T12:46:28.002Z</time></trkpt><trkpt lat="41.24612747584607" lon="14.107301592141892"><ele>126.0</ele><time>2026-04-11T12:46:29Z</time></trkpt><trkpt lat="41.24593245239476" lon="14.107154284752564"><ele>126.0</ele><time>2026-04-11T12:46:30Z</time></trkpt><trkpt lat="41.245741534577014" lon="14.107015321006667"><ele>126.0</ele><time>2026-04-11T12:46:31Z</time></trkpt><trkpt lat="41.245563771904095" lon="14.106879245883299"><ele>126.0</ele><time>2026-04-11T12:46:32Z</time></trkpt><trkpt lat="41.24538706172055" lon="14.106751952984656"><ele>126.0</ele><time>2026-04-11T12:46:33Z</time></trkpt><trkpt lat="41.24519211179887" lon="14.106637328816142"><ele>126.0</ele><time>2026-04-11T12:46:34Z</time></trkpt><trkpt lat="41.24498364371073" lon="14.106542779658493"><ele>126.0</ele><time>2026-04-11T12:46:35Z</time></trkpt><trkpt lat="41.24476607430147" lon="14.106472272728224"><ele>124.0</ele><time>2026-04-11T12:46:36Z</time></trkpt><trkpt lat="41.244539332842024" lon="14.106419147034792"><ele>122.0</ele><time>2026-04-11T12:46:37Z</time></trkpt><trkpt lat="41.24430179568246" lon="14.10638767359459"><ele>122.0</ele><time>2026-04-11T12:46:38Z</time></trkpt><trkpt lat="41.24405378708794" lon="14.106374229735248"><ele>122.0</ele><time>2026-04-11T12:46:39Z</time></trkpt><trkpt lat="41.243800113316524" lon="14.1063642785947"><ele>120.5</ele><time>2026-04-11T12:46:40Z</time></trkpt><trkpt lat="41.243538946678136" lon="14.10634802118915"><ele>119.0</ele><time>2026-04-11T12:46:41Z</time></trkpt><trkpt lat="41.2432733065831" lon="14.106330215217518"><ele>119.5</ele><time>2026-04-11T12:46:42Z</time></trkpt><trkpt lat="41.24301409058018" lon="14.106307119758277"><ele>120.0</ele><time>2026-04-11T12:46:43Z</time></trkpt><trkpt lat="41.242746432693814" lon="14.106282611462339"><ele>120.0</ele><time>2026-04-11T12:46:44Z</time></trkpt><trkpt lat="41.242498019592546" lon="14.106260278681635"><ele>120.0</ele><time>2026-04-11T12:46:45Z</time></trkpt><trkpt lat="41.242273334591346" lon="14.10623777855089"><ele>119.0</ele><time>2026-04-11T12:46:46Z</time></trkpt><trkpt lat="41.24204882102896" lon="14.106215265551185"><ele>118.0</ele><time>2026-04-11T12:46:47Z</time></trkpt><trkpt lat="41.24182790278776" lon="14.106188230993597"><ele>117.0</ele><time>2026-04-11T12:46:48Z</time></trkpt><trkpt lat="41.24160084905673" lon="14.106167168765332"><ele>116.0</ele><time>2026-04-11T12:46:49Z</time></trkpt><trkpt lat="41.24136653093816" lon="14.106142294529944"><ele>115.0</ele><time>2026-04-11T12:46:50Z</time></trkpt><trkpt lat="41.241138498937374" lon="14.10613389355065"><ele>115.0</ele><time>2026-04-11T12:46:51Z</time></trkpt><trkpt lat="41.24090436392116" lon="14.106120327027414"><ele>115.0</ele><time>2026-04-11T12:46:52Z</time></trkpt><trkpt lat="41.24066691149617" lon="14.106104464385295"><ele>114.5</ele><time>2026-04-11T12:46:53Z</time></trkpt><trkpt lat="41.240427895700584" lon="14.106079319205543"><ele>114.0</ele><time>2026-04-11T12:46:54Z</time></trkpt><trkpt lat="41.24017840195787" lon="14.106055545797435"><ele>114.0</ele><time>2026-04-11T12:46:55Z</time></trkpt><trkpt lat="41.23992593356379" lon="14.106030046658972"><ele>114.0</ele><time>2026-04-11T12:46:56Z</time></trkpt><trkpt lat="41.23967134601945" lon="14.10600489390477"><ele>112.5</ele><time>2026-04-11T12:46:57Z</time></trkpt><trkpt lat="41.23942001367558" lon="14.105980179005297"><ele>111.0</ele><time>2026-04-11T12:46:58Z</time></trkpt><trkpt lat="41.23916263834727" lon="14.105955911627722"><ele>109.5</ele><time>2026-04-11T12:46:59Z</time></trkpt><trkpt lat="41.23890203643958" lon="14.105935769773522"><ele>108.0</ele><time>2026-04-11T12:47:00Z</time></trkpt><trkpt lat="41.2386373361646" lon="14.105913339362159"><ele>108.0</ele><time>2026-04-11T12:47:01Z</time></trkpt><trkpt lat="41.23837236540737" lon="14.105888456225797"><ele>108.0</ele><time>2026-04-11T12:47:02Z</time></trkpt><trkpt lat="41.2381064211268" lon="14.105867491175118"><ele>106.5</ele><time>2026-04-11T12:47:03Z</time></trkpt><trkpt lat="41.237841025574696" lon="14.105842105820807"><ele>105.0</ele><time>2026-04-11T12:47:04Z</time></trkpt><trkpt lat="41.23757619640887" lon="14.105814257342661"><ele>105.0</ele><time>2026-04-11T12:47:05.001Z</time></trkpt><trkpt lat="41.23731226166111" lon="14.105784957256224"><ele>105.0</ele><time>2026-04-11T12:47:06.001Z</time></trkpt><trkpt lat="41.237047011312505" lon="14.105759841761277"><ele>103.5</ele><time>2026-04-11T12:47:07.001Z</time></trkpt><trkpt lat="41.23677929918869" lon="14.105735074167407"><ele>102.0</ele><time>2026-04-11T12:47:08.001Z</time></trkpt><trkpt lat="41.23650741957167" lon="14.10570792825072"><ele>102.0</ele><time>2026-04-11T12:47:09.001Z</time></trkpt><trkpt lat="41.23623808922888" lon="14.105688842675383"><ele>102.0</ele><time>2026-04-11T12:47:10.001Z</time></trkpt><trkpt lat="41.23597147324468" lon="14.105666070288851"><ele>102.0</ele><time>2026-04-11T12:47:11.001Z</time></trkpt><trkpt lat="41.23570570827536" lon="14.105644084286391"><ele>102.0</ele><time>2026-04-11T12:47:12.001Z</time></trkpt><trkpt lat="41.23543907032804" lon="14.105618439856963"><ele>102.5</ele><time>2026-04-11T12:47:13.001Z</time></trkpt><trkpt lat="41.23517344043794" lon="14.105593475297567"><ele>103.0</ele><time>2026-04-11T12:47:14.001Z</time></trkpt><trkpt lat="41.234909423682026" lon="14.105569574078618"><ele>102.5</ele><time>2026-04-11T12:47:15.001Z</time></trkpt><trkpt lat="41.234647304197665" lon="14.105543520565128"><ele>102.0</ele><time>2026-04-11T12:47:16.001Z</time></trkpt><trkpt lat="41.23438576835109" lon="14.105516723067776"><ele>102.0</ele><time>2026-04-11T12:47:17.001Z</time></trkpt><trkpt lat="41.234122556695674" lon="14.105495868675185"><ele>102.0</ele><time>2026-04-11T12:47:18.001Z</time></trkpt><trkpt lat="41.23385851606321" lon="14.105475128489836"><ele>101.0</ele><time>2026-04-11T12:47:19.001Z</time></trkpt><trkpt lat="41.23359370585734" lon="14.105456926607062"><ele>100.0</ele><time>2026-04-11T12:47:20.001Z</time></trkpt><trkpt lat="41.23333082512461" lon="14.105429431201769"><ele>99.5</ele><time>2026-04-11T12:47:21.001Z</time></trkpt><trkpt lat="41.233066844350205" lon="14.105410117537192"><ele>99.0</ele><time>2026-04-11T12:47:22.001Z</time></trkpt><trkpt lat="41.23280529168807" lon="14.10539042675178"><ele>99.0</ele><time>2026-04-11T12:47:23.001Z</time></trkpt><trkpt lat="41.23253975166595" lon="14.105373846848332"><ele>99.0</ele><time>2026-04-11T12:47:24.001Z</time></trkpt><trkpt lat="41.23227953906966" lon="14.105359504781632"><ele>98.0</ele><time>2026-04-11T12:47:25.001Z</time></trkpt><trkpt lat="41.23201502171984" lon="14.105315147278095"><ele>97.0</ele><time>2026-04-11T12:47:26.001Z</time></trkpt><trkpt lat="41.231752207235765" lon="14.10530790670611"><ele>97.0</ele><time>2026-04-11T12:47:27.001Z</time></trkpt><trkpt lat="41.23148483558871" lon="14.10528801731899"><ele>97.0</ele><time>2026-04-11T12:47:28.001Z</time></trkpt><trkpt lat="41.231215613228606" lon="14.10525926243299"><ele>96.0</ele><time>2026-04-11T12:47:29.001Z</time></trkpt><trkpt lat="41.2309491770577" lon="14.105232039927909"><ele>95.0</ele><time>2026-04-11T12:47:30.001Z</time></trkpt><trkpt lat="41.23070589764352" lon="14.105199766626955"><ele>94.5</ele><time>2026-04-11T12:47:31.001Z</time></trkpt><trkpt lat="41.230462535683714" lon="14.105173554097506"><ele>94.0</ele><time>2026-04-11T12:47:32.001Z</time></trkpt><trkpt lat="41.23021689960873" lon="14.105153504512135"><ele>94.0</ele><time>2026-04-11T12:47:33.001Z</time></trkpt><trkpt lat="41.22997398065214" lon="14.105145157472531"><ele>94.0</ele><time>2026-04-11T12:47:34.001Z</time></trkpt><trkpt lat="41.22972118842326" lon="14.105178339218018"><ele>90.0</ele><time>2026-04-11T12:47:35.001Z</time></trkpt><trkpt lat="41.229463800097925" lon="14.10523038070375"><ele>86.0</ele><time>2026-04-11T12:47:36.001Z</time></trkpt><trkpt lat="41.229198225996974" lon="14.105293843056455"><ele>83.0</ele><time>2026-04-11T12:47:37.001Z</time></trkpt><trkpt lat="41.228936862547876" lon="14.10533058656826"><ele>80.0</ele><time>2026-04-11T12:47:38.001Z</time></trkpt><trkpt lat="41.22869000846014" lon="14.105386369665437"><ele>80.0</ele><time>2026-04-11T12:47:39.001Z</time></trkpt><trkpt lat="41.22846326667526" lon="14.105458131804953"><ele>80.0</ele><time>2026-04-11T12:47:40.001Z</time></trkpt><trkpt lat="41.22824285778811" lon="14.105498871479336"><ele>80.0</ele><time>2026-04-11T12:47:41.001Z</time></trkpt><trkpt lat="41.228031379770975" lon="14.105541641986353"><ele>80.0</ele><time>2026-04-11T12:47:42.001Z</time></trkpt><trkpt lat="41.22782481533032" lon="14.105584282634114"><ele>80.0</ele><time>2026-04-11T12:47:43.001Z</time></trkpt><trkpt lat="41.22762329534176" lon="14.105634533775083"><ele>80.0</ele><time>2026-04-11T12:47:44.001Z</time></trkpt><trkpt lat="41.22743588813141" lon="14.105677472422677"><ele>80.0</ele><time>2026-04-11T12:47:45.001Z</time></trkpt><trkpt lat="41.22726218455913" lon="14.105701698413746"><ele>80.0</ele><time>2026-04-11T12:47:46.001Z</time></trkpt><trkpt lat="41.22709181968974" lon="14.105694697045967"><ele>81.0</ele><time>2026-04-11T12:47:47.001Z</time></trkpt><trkpt lat="41.22691256995503" lon="14.10563624395407"><ele>82.0</ele><time>2026-04-11T12:47:48.001Z</time></trkpt><trkpt lat="41.22671809164946" lon="14.105566080332967"><ele>83.0</ele><time>2026-04-11T12:47:49.001Z</time></trkpt><trkpt lat="41.22652543090693" lon="14.105496081164931"><ele>82.33333333333334</ele><time>2026-04-11T12:47:50.001Z</time></trkpt><trkpt lat="41.22632950796822" lon="14.10543790820344"><ele>81.66666666666667</ele><time>2026-04-11T12:47:51.001Z</time></trkpt><trkpt lat="41.22613618904284" lon="14.10537350458903"><ele>81.0</ele><time>2026-04-11T12:47:52.001Z</time></trkpt><trkpt lat="41.22594489345084" lon="14.105307780131051"><ele>81.0</ele><time>2026-04-11T12:47:53.001Z</time></trkpt><trkpt lat="41.22575921603099" lon="14.105246122701482"><ele>81.0</ele><time>2026-04-11T12:47:54.001Z</time></trkpt><trkpt lat="41.22557127727419" lon="14.10517946745185"><ele>81.0</ele><time>2026-04-11T12:47:55.001Z</time></trkpt><trkpt lat="41.225382802850476" lon="14.105116186369127"><ele>82.0</ele><time>2026-04-11T12:47:56.001Z</time></trkpt><trkpt lat="41.225198900981376" lon="14.105055691364386"><ele>83.0</ele><time>2026-04-11T12:47:57.001Z</time></trkpt><trkpt lat="41.22502768275377" lon="14.105000165154538"><ele>84.0</ele><time>2026-04-11T12:47:58.001Z</time></trkpt><trkpt lat="41.22486584019723" lon="14.104944023268118"><ele>84.66666666666667</ele><time>2026-04-11T12:47:59.001Z</time></trkpt><trkpt lat="41.224703750645" lon="14.104888734620307"><ele>85.33333333333334</ele><time>2026-04-11T12:48:00.001Z</time></trkpt><trkpt lat="41.2245407484205" lon="14.104831377480197"><ele>86.0</ele><time>2026-04-11T12:48:01.001Z</time></trkpt><trkpt lat="41.22438498444649" lon="14.10477762222703"><ele>86.0</ele><time>2026-04-11T12:48:02.001Z</time></trkpt><trkpt lat="41.22423658390752" lon="14.104725005941429"><ele>86.0</ele><time>2026-04-11T12:48:03.001Z</time></trkpt><trkpt lat="41.22409787994507" lon="14.104676286954621"><ele>86.0</ele><time>2026-04-11T12:48:04.001Z</time></trkpt><trkpt lat="41.223970463178034" lon="14.10462910701029"><ele>86.0</ele><time>2026-04-11T12:48:05.002Z</time></trkpt><trkpt lat="41.223850882319674" lon="14.104590832859602"><ele>86.6</ele><time>2026-04-11T12:48:06.002Z</time></trkpt><trkpt lat="41.22373224301725" lon="14.104557091884178"><ele>87.19999999999999</ele><time>2026-04-11T12:48:07.002Z</time></trkpt><trkpt lat="41.223621695073774" lon="14.104515821860653"><ele>87.80000000000001</ele><time>2026-04-11T12:48:08.002Z</time></trkpt><trkpt lat="41.22352127243678" lon="14.104463570806825"><ele>88.4</ele><time>2026-04-11T12:48:09.002Z</time></trkpt><trkpt lat="41.22343013500521" lon="14.104405756006903"><ele>89.0</ele><time>2026-04-11T12:48:10.002Z</time></trkpt><trkpt lat="41.22335325234687" lon="14.10431916833871"><ele>89.0</ele><time>2026-04-11T12:48:11.002Z</time></trkpt><trkpt lat="41.2232767267031" lon="14.104215784397548"><ele>89.0</ele><time>2026-04-11T12:48:12.002Z</time></trkpt><trkpt lat="41.223186177223184" lon="14.104147147325929"><ele>89.0</ele><time>2026-04-11T12:48:13.002Z</time></trkpt><trkpt lat="41.22309186693016" lon="14.104126911829532"><ele>89.0</ele><time>2026-04-11T12:48:14.002Z</time></trkpt><trkpt lat="41.222987288045395" lon="14.104144698073792"><ele>89.0</ele><time>2026-04-11T12:48:15.002Z</time></trkpt><trkpt lat="41.22287439880084" lon="14.104175598266897"><ele>90.0</ele><time>2026-04-11T12:48:16.002Z</time></trkpt><trkpt lat="41.222766970828005" lon="14.104218855556203"><ele>91.0</ele><time>2026-04-11T12:48:17.002Z</time></trkpt><trkpt lat="41.22267679777801" lon="14.1041962861631"><ele>92.0</ele><time>2026-04-11T12:48:18.002Z</time></trkpt><trkpt lat="41.222580225065" lon="14.104168798396383"><ele>93.0</ele><time>2026-04-11T12:48:19.002Z</time></trkpt><trkpt lat="41.22249384888212" lon="14.104146507844751"><ele>94.0</ele><time>2026-04-11T12:48:20.002Z</time></trkpt><trkpt lat="41.222407147497435" lon="14.104136642565633"><ele>94.0</ele><time>2026-04-11T12:48:21.002Z</time></trkpt><trkpt lat="41.22233288874571" lon="14.104135349836021"><ele>94.0</ele><time>2026-04-11T12:48:22.002Z</time></trkpt><trkpt lat="41.22226879171046" lon="14.10410363324358"><ele>94.0</ele><time>2026-04-11T12:48:23.002Z</time></trkpt><trkpt lat="41.222204761264614" lon="14.103974588794191"><ele>94.0</ele><time>2026-04-11T12:48:25.002Z</time></trkpt><trkpt lat="41.22220942510254" lon="14.103877368070568"><ele>94.0</ele><time>2026-04-11T12:48:26.002Z</time></trkpt><trkpt lat="41.222233507780324" lon="14.103764442863824"><ele>94.0</ele><time>2026-04-11T12:48:27.002Z</time></trkpt><trkpt lat="41.222279486962826" lon="14.103631219594147"><ele>93.5</ele><time>2026-04-11T12:48:28.002Z</time></trkpt><trkpt lat="41.22233429408873" lon="14.103484878744965"><ele>93.0</ele><time>2026-04-11T12:48:29.002Z</time></trkpt><trkpt lat="41.22239058171679" lon="14.103318735544041"><ele>92.5</ele><time>2026-04-11T12:48:30.002Z</time></trkpt><trkpt lat="41.22244721271265" lon="14.103133910908408"><ele>92.0</ele><time>2026-04-11T12:48:31.002Z</time></trkpt><trkpt lat="41.22251031386719" lon="14.102945872629018"><ele>92.0</ele><time>2026-04-11T12:48:32.002Z</time></trkpt><trkpt lat="41.222572423445214" lon="14.10275481648666"><ele>92.0</ele><time>2026-04-11T12:48:33.002Z</time></trkpt><trkpt lat="41.22263984857261" lon="14.102557678378503"><ele>92.0</ele><time>2026-04-11T12:48:34.002Z</time></trkpt><trkpt lat="41.22270538618678" lon="14.102351913329843"><ele>92.66666666666667</ele><time>2026-04-11T12:48:35Z</time></trkpt><trkpt lat="41.222769874081365" lon="14.102142598770437"><ele>93.33333333333333</ele><time>2026-04-11T12:48:36Z</time></trkpt><trkpt lat="41.22283392161839" lon="14.10192789584226"><ele>94.0</ele><time>2026-04-11T12:48:37Z</time></trkpt><trkpt lat="41.222899330150824" lon="14.101725556784285"><ele>94.33333333333333</ele><time>2026-04-11T12:48:38Z</time></trkpt><trkpt lat="41.222981596414186" lon="14.101529746780486"><ele>94.66666666666667</ele><time>2026-04-11T12:48:39Z</time></trkpt><trkpt lat="41.22304864754319" lon="14.101341703710748"><ele>95.0</ele><time>2026-04-11T12:48:40Z</time></trkpt><trkpt lat="41.2231579825618" lon="14.101191121232839"><ele>94.33333333333334</ele><time>2026-04-11T12:48:41Z</time></trkpt><trkpt lat="41.223289338556796" lon="14.101054123857274"><ele>93.66666666666667</ele><time>2026-04-11T12:48:42Z</time></trkpt><trkpt lat="41.223450026602244" lon="14.100961840974941"><ele>93.0</ele><time>2026-04-11T12:48:43Z</time></trkpt><trkpt lat="41.223630025444464" lon="14.100851357368434"><ele>92.0</ele><time>2026-04-11T12:48:44Z</time></trkpt><trkpt lat="41.223828903579104" lon="14.100731473576834"><ele>91.0</ele><time>2026-04-11T12:48:45Z</time></trkpt><trkpt lat="41.224035652056855" lon="14.100606845528604"><ele>90.0</ele><time>2026-04-11T12:48:46Z</time></trkpt><trkpt lat="41.224232421043475" lon="14.100488250241805"><ele>84.66666666666667</ele><time>2026-04-11T12:48:47Z</time></trkpt><trkpt lat="41.224434123801146" lon="14.100366696470061"><ele>79.33333333333334</ele><time>2026-04-11T12:48:48Z</time></trkpt><trkpt lat="41.224624524057155" lon="14.100252058568385"><ele>74.0</ele><time>2026-04-11T12:48:49Z</time></trkpt><trkpt lat="41.224806972290615" lon="14.10014350284611"><ele>74.0</ele><time>2026-04-11T12:48:50Z</time></trkpt><trkpt lat="41.22496423298231" lon="14.100049526689324"><ele>74.0</ele><time>2026-04-11T12:48:51Z</time></trkpt><trkpt lat="41.22511937371959" lon="14.09995694426713"><ele>74.0</ele><time>2026-04-11T12:48:52Z</time></trkpt><trkpt lat="41.225265403313756" lon="14.099869353496361"><ele>74.0</ele><time>2026-04-11T12:48:53Z</time></trkpt><trkpt lat="41.225392401128076" lon="14.09979243934187"><ele>74.0</ele><time>2026-04-11T12:48:54Z</time></trkpt><trkpt lat="41.22550240025157" lon="14.099721996663716"><ele>74.0</ele><time>2026-04-11T12:48:55Z</time></trkpt><trkpt lat="41.22562902749816" lon="14.099724414843752"><ele>74.0</ele><time>2026-04-11T12:48:56Z</time></trkpt><trkpt lat="41.225769685947924" lon="14.099783057237389"><ele>75.0</ele><time>2026-04-11T12:48:57Z</time></trkpt><trkpt lat="41.22591989697692" lon="14.099852666752682"><ele>76.0</ele><time>2026-04-11T12:48:58Z</time></trkpt><trkpt lat="41.22607477112568" lon="14.099918507794285"><ele>77.0</ele><time>2026-04-11T12:48:59Z</time></trkpt><trkpt lat="41.226242591023" lon="14.099983942634477"><ele>77.0</ele><time>2026-04-11T12:49:00Z</time></trkpt><trkpt lat="41.22642240187118" lon="14.100053371894584"><ele>77.0</ele><time>2026-04-11T12:49:01Z</time></trkpt><trkpt lat="41.22659564371696" lon="14.10012507643133"><ele>77.0</ele><time>2026-04-11T12:49:02Z</time></trkpt><trkpt lat="41.22677935893039" lon="14.100191800912826"><ele>79.66666666666667</ele><time>2026-04-11T12:49:03Z</time></trkpt><trkpt lat="41.2269661014781" lon="14.100257196813796"><ele>82.33333333333333</ele><time>2026-04-11T12:49:04Z</time></trkpt><trkpt lat="41.22716231559683" lon="14.100283024771105"><ele>85.0</ele><time>2026-04-11T12:49:05Z</time></trkpt><trkpt lat="41.22736455557864" lon="14.100265735971167"><ele>87.0</ele><time>2026-04-11T12:49:06Z</time></trkpt><trkpt lat="41.22756864631542" lon="14.10026842426288"><ele>89.0</ele><time>2026-04-11T12:49:07Z</time></trkpt><trkpt lat="41.22777967611571" lon="14.10023445248289"><ele>91.0</ele><time>2026-04-11T12:49:08Z</time></trkpt><trkpt lat="41.22797577172385" lon="14.100199661642693"><ele>92.0</ele><time>2026-04-11T12:49:09Z</time></trkpt><trkpt lat="41.22817875686177" lon="14.100161935526028"><ele>93.0</ele><time>2026-04-11T12:49:10Z</time></trkpt><trkpt lat="41.22837625102864" lon="14.100106029553526"><ele>94.0</ele><time>2026-04-11T12:49:11Z</time></trkpt><trkpt lat="41.22854752582112" lon="14.10007214904248"><ele>94.0</ele><time>2026-04-11T12:49:12Z</time></trkpt><trkpt lat="41.22870203032594" lon="14.100040209382506"><ele>94.0</ele><time>2026-04-11T12:49:13Z</time></trkpt><trkpt lat="41.22883454678138" lon="14.100011189045585"><ele>94.0</ele><time>2026-04-11T12:49:14.001Z</time></trkpt><trkpt lat="41.22895832125237" lon="14.099996931740414"><ele>94.0</ele><time>2026-04-11T12:49:15.001Z</time></trkpt><trkpt lat="41.22907724485224" lon="14.09992056519142"><ele>95.33333333333333</ele><time>2026-04-11T12:49:16.001Z</time></trkpt><trkpt lat="41.229194399523024" lon="14.099776173360477"><ele>96.66666666666666</ele><time>2026-04-11T12:49:17.001Z</time></trkpt><trkpt lat="41.22930582505087" lon="14.099595244059339"><ele>98.0</ele><time>2026-04-11T12:49:18.001Z</time></trkpt><trkpt lat="41.22941884770609" lon="14.099400851678224"><ele>98.0</ele><time>2026-04-11T12:49:19.001Z</time></trkpt><trkpt lat="41.229533909522594" lon="14.0992029518829"><ele>98.0</ele><time>2026-04-11T12:49:20.001Z</time></trkpt><trkpt lat="41.22965100414828" lon="14.09899710206607"><ele>98.0</ele><time>2026-04-11T12:49:21.001Z</time></trkpt><trkpt lat="41.22976865943578" lon="14.098788384528822"><ele>98.33333333333333</ele><time>2026-04-11T12:49:22.001Z</time></trkpt><trkpt lat="41.229888509826104" lon="14.098574441048932"><ele>98.66666666666666</ele><time>2026-04-11T12:49:23.001Z</time></trkpt><trkpt lat="41.230000006874754" lon="14.098343956729991"><ele>99.0</ele><time>2026-04-11T12:49:24.001Z</time></trkpt><trkpt lat="41.2301246019764" lon="14.098124444080318"><ele>99.33333333333334</ele><time>2026-04-11T12:49:25.001Z</time></trkpt><trkpt lat="41.2302489109092" lon="14.0979003429849"><ele>99.66666666666667</ele><time>2026-04-11T12:49:26.001Z</time></trkpt><trkpt lat="41.230376446065215" lon="14.097669927865356"><ele>100.0</ele><time>2026-04-11T12:49:27.001Z</time></trkpt><trkpt lat="41.23051327501142" lon="14.097457308781285"><ele>100.33333333333334</ele><time>2026-04-11T12:49:28.001Z</time></trkpt><trkpt lat="41.230640256659754" lon="14.097228061869115"><ele>100.66666666666666</ele><time>2026-04-11T12:49:29.001Z</time></trkpt><trkpt lat="41.23076707738512" lon="14.097004721892432"><ele>101.0</ele><time>2026-04-11T12:49:30.001Z</time></trkpt><trkpt lat="41.23088861336887" lon="14.096790994234896"><ele>101.66666666666666</ele><time>2026-04-11T12:49:31.001Z</time></trkpt><trkpt lat="41.23099966757187" lon="14.096586217163741"><ele>102.33333333333334</ele><time>2026-04-11T12:49:32.001Z</time></trkpt><trkpt lat="41.23109484133545" lon="14.09636659892762"><ele>103.0</ele><time>2026-04-11T12:49:33.001Z</time></trkpt><trkpt lat="41.23117511451248" lon="14.096143130536381"><ele>103.0</ele><time>2026-04-11T12:49:34.001Z</time></trkpt><trkpt lat="41.23121011166003" lon="14.095917543008072"><ele>103.0</ele><time>2026-04-11T12:49:35.001Z</time></trkpt><trkpt lat="41.23124630792658" lon="14.095717472533673"><ele>103.0</ele><time>2026-04-11T12:49:36.001Z</time></trkpt><trkpt lat="41.231249792276195" lon="14.095512783960253"><ele>103.0</ele><time>2026-04-11T12:49:37.001Z</time></trkpt><trkpt lat="41.23122991048174" lon="14.095289277965826"><ele>103.0</ele><time>2026-04-11T12:49:38.001Z</time></trkpt><trkpt lat="41.231211030692535" lon="14.095060078239145"><ele>103.0</ele><time>2026-04-11T12:49:39.001Z</time></trkpt><trkpt lat="41.231154153692124" lon="14.094814878101273"><ele>103.66666666666667</ele><time>2026-04-11T12:49:40.001Z</time></trkpt><trkpt lat="41.23109622579871" lon="14.094573978219398"><ele>104.33333333333334</ele><time>2026-04-11T12:49:41.001Z</time></trkpt><trkpt lat="41.231038014186616" lon="14.094334306263109"><ele>105.0</ele><time>2026-04-11T12:49:42.001Z</time></trkpt><trkpt lat="41.230980216686085" lon="14.094096400657035"><ele>105.0</ele><time>2026-04-11T12:49:43.001Z</time></trkpt><trkpt lat="41.230924686278684" lon="14.093864073524687"><ele>105.0</ele><time>2026-04-11T12:49:44.001Z</time></trkpt><trkpt lat="41.23085184709866" lon="14.093630472868533"><ele>105.0</ele><time>2026-04-11T12:49:45.001Z</time></trkpt><trkpt lat="41.23081046404567" lon="14.093392222983994"><ele>105.0</ele><time>2026-04-11T12:49:46.001Z</time></trkpt><trkpt lat="41.23075340835039" lon="14.0931593871939"><ele>105.0</ele><time>2026-04-11T12:49:47.001Z</time></trkpt><trkpt lat="41.23068518708904" lon="14.092927738181015"><ele>105.0</ele><time>2026-04-11T12:49:48.001Z</time></trkpt><trkpt lat="41.230649229070416" lon="14.09268808452479"><ele>104.33333333333334</ele><time>2026-04-11T12:49:49.001Z</time></trkpt><trkpt lat="41.230599080562214" lon="14.09245608710824"><ele>103.66666666666667</ele><time>2026-04-11T12:49:50.001Z</time></trkpt><trkpt lat="41.23058440028506" lon="14.092244666557606"><ele>103.0</ele><time>2026-04-11T12:49:51.001Z</time></trkpt><trkpt lat="41.230587001570036" lon="14.092007956978131"><ele>103.0</ele><time>2026-04-11T12:49:52.001Z</time></trkpt><trkpt lat="41.230629655509865" lon="14.091755412932613"><ele>103.0</ele><time>2026-04-11T12:49:53.001Z</time></trkpt><trkpt lat="41.23066380735344" lon="14.091488243042344"><ele>103.0</ele><time>2026-04-11T12:49:54.001Z</time></trkpt><trkpt lat="41.23070034128763" lon="14.091220661246162"><ele>102.33333333333334</ele><time>2026-04-11T12:49:55.001Z</time></trkpt><trkpt lat="41.23073898257371" lon="14.090947390682544"><ele>101.66666666666666</ele><time>2026-04-11T12:49:56.001Z</time></trkpt><trkpt lat="41.23077553256014" lon="14.090681078669814"><ele>101.0</ele><time>2026-04-11T12:49:57.001Z</time></trkpt><trkpt lat="41.23081135075893" lon="14.090417413756173"><ele>100.66666666666666</ele><time>2026-04-11T12:49:58.001Z</time></trkpt><trkpt lat="41.23082686588578" lon="14.090154685250095"><ele>100.33333333333334</ele><time>2026-04-11T12:49:59.001Z</time></trkpt><trkpt lat="41.23088168473151" lon="14.08990993264415"><ele>100.0</ele><time>2026-04-11T12:50:00.001Z</time></trkpt><trkpt lat="41.23094843535926" lon="14.08968922187134"><ele>100.0</ele><time>2026-04-11T12:50:01.001Z</time></trkpt><trkpt lat="41.23103143754799" lon="14.089476900764227"><ele>100.0</ele><time>2026-04-11T12:50:02.001Z</time></trkpt><trkpt lat="41.231136843457065" lon="14.089296200690798"><ele>100.0</ele><time>2026-04-11T12:50:03.001Z</time></trkpt><trkpt lat="41.23125957947152" lon="14.089132776109539"><ele>100.33333333333334</ele><time>2026-04-11T12:50:04.001Z</time></trkpt><trkpt lat="41.23140390084483" lon="14.089008677145372"><ele>100.66666666666666</ele><time>2026-04-11T12:50:05.001Z</time></trkpt><trkpt lat="41.2315542802705" lon="14.088903444090883"><ele>101.0</ele><time>2026-04-11T12:50:06.001Z</time></trkpt><trkpt lat="41.23172582176077" lon="14.088830458947273"><ele>101.66666666666666</ele><time>2026-04-11T12:50:07.001Z</time></trkpt><trkpt lat="41.23191710711107" lon="14.088772938628152"><ele>102.33333333333334</ele><time>2026-04-11T12:50:08.001Z</time></trkpt><trkpt lat="41.232114979555064" lon="14.088726519823657"><ele>103.0</ele><time>2026-04-11T12:50:09.001Z</time></trkpt><trkpt lat="41.232322568481884" lon="14.088718028059398"><ele>104.0</ele><time>2026-04-11T12:50:10.001Z</time></trkpt><trkpt lat="41.232534832114155" lon="14.088694256320995"><ele>105.0</ele><time>2026-04-11T12:50:11.001Z</time></trkpt><trkpt lat="41.2327499435237" lon="14.088669890546267"><ele>106.0</ele><time>2026-04-11T12:50:12.001Z</time></trkpt><trkpt lat="41.23297321264886" lon="14.088644135836693"><ele>107.0</ele><time>2026-04-11T12:50:13.001Z</time></trkpt><trkpt lat="41.233196011867804" lon="14.088618119137601"><ele>108.0</ele><time>2026-04-11T12:50:14.001Z</time></trkpt><trkpt lat="41.23342217253597" lon="14.0885917099265"><ele>108.0</ele><time>2026-04-11T12:50:15.002Z</time></trkpt><trkpt lat="41.23365117862934" lon="14.088564968468244"><ele>108.0</ele><time>2026-04-11T12:50:16.002Z</time></trkpt><trkpt lat="41.233871918587376" lon="14.08851910830271"><ele>109.0</ele><time>2026-04-11T12:50:17.002Z</time></trkpt><trkpt lat="41.23410205441875" lon="14.08850424860159"><ele>110.0</ele><time>2026-04-11T12:50:18.002Z</time></trkpt><trkpt lat="41.23433070881703" lon="14.088484021417512"><ele>110.0</ele><time>2026-04-11T12:50:19.002Z</time></trkpt><trkpt lat="41.23455535660066" lon="14.088458050167239"><ele>110.0</ele><time>2026-04-11T12:50:20.002Z</time></trkpt><trkpt lat="41.234771763127476" lon="14.08842518974699"><ele>110.0</ele><time>2026-04-11T12:50:21.002Z</time></trkpt><trkpt lat="41.234961101205016" lon="14.088372410309308"><ele>110.0</ele><time>2026-04-11T12:50:22.002Z</time></trkpt><trkpt lat="41.23513891833132" lon="14.088298032165183"><ele>110.0</ele><time>2026-04-11T12:50:23.002Z</time></trkpt><trkpt lat="41.2353090617395" lon="14.088200230598096"><ele>110.0</ele><time>2026-04-11T12:50:24.002Z</time></trkpt><trkpt lat="41.23548457954198" lon="14.08806601623309"><ele>111.0</ele><time>2026-04-11T12:50:25.002Z</time></trkpt><trkpt lat="41.23564758646316" lon="14.087908995081428"><ele>112.0</ele><time>2026-04-11T12:50:26.002Z</time></trkpt><trkpt lat="41.23579557124074" lon="14.087749205945679"><ele>113.0</ele><time>2026-04-11T12:50:27.002Z</time></trkpt><trkpt lat="41.23593505405651" lon="14.087592755696736"><ele>112.66666666666666</ele><time>2026-04-11T12:50:28.002Z</time></trkpt><trkpt lat="41.23606777793368" lon="14.087426784548557"><ele>112.33333333333334</ele><time>2026-04-11T12:50:29.002Z</time></trkpt><trkpt lat="41.23619903530232" lon="14.087238350516744"><ele>112.0</ele><time>2026-04-11T12:50:30.002Z</time></trkpt><trkpt lat="41.23632849356879" lon="14.087032899669376"><ele>112.0</ele><time>2026-04-11T12:50:31.002Z</time></trkpt><trkpt lat="41.2364403803826" lon="14.086826271364712"><ele>112.0</ele><time>2026-04-11T12:50:32.002Z</time></trkpt><trkpt lat="41.236548732467234" lon="14.08660972892098"><ele>112.0</ele><time>2026-04-11T12:50:33.002Z</time></trkpt><trkpt lat="41.23665350599788" lon="14.086409830864886"><ele>113.33333333333334</ele><time>2026-04-11T12:50:34.002Z</time></trkpt><trkpt lat="41.23674937109948" lon="14.086212779716629"><ele>114.66666666666666</ele><time>2026-04-11T12:50:35.002Z</time></trkpt><trkpt lat="41.2368511814533" lon="14.086024927227655"><ele>116.0</ele><time>2026-04-11T12:50:36.002Z</time></trkpt><trkpt lat="41.23694869745805" lon="14.085847866936176"><ele>113.66666666666666</ele><time>2026-04-11T12:50:37.002Z</time></trkpt><trkpt lat="41.237070116958655" lon="14.085649334192103"><ele>111.33333333333334</ele><time>2026-04-11T12:50:38.002Z</time></trkpt><trkpt lat="41.23715899602833" lon="14.085419744434894"><ele>109.0</ele><time>2026-04-11T12:50:39.002Z</time></trkpt><trkpt lat="41.23729073743774" lon="14.085204641801665"><ele>109.33333333333334</ele><time>2026-04-11T12:50:40.002Z</time></trkpt><trkpt lat="41.2374088722076" lon="14.084981823818017"><ele>109.66666666666666</ele><time>2026-04-11T12:50:41Z</time></trkpt><trkpt lat="41.23752865164811" lon="14.084739841253374"><ele>110.0</ele><time>2026-04-11T12:50:42Z</time></trkpt><trkpt lat="41.237663579520124" lon="14.084513157655262"><ele>107.0</ele><time>2026-04-11T12:50:43Z</time></trkpt><trkpt lat="41.237785615970836" lon="14.084277937561145"><ele>104.0</ele><time>2026-04-11T12:50:44Z</time></trkpt><trkpt lat="41.23787965372409" lon="14.084041009903935"><ele>101.0</ele><time>2026-04-11T12:50:45Z</time></trkpt><trkpt lat="41.238005163402" lon="14.083812543368152"><ele>100.0</ele><time>2026-04-11T12:50:46Z</time></trkpt><trkpt lat="41.238087238848124" lon="14.083595074521401"><ele>99.0</ele><time>2026-04-11T12:50:47Z</time></trkpt><trkpt lat="41.238172712894055" lon="14.08342185201734"><ele>98.0</ele><time>2026-04-11T12:50:48Z</time></trkpt><trkpt lat="41.2382531219649" lon="14.083254942658568"><ele>96.75</ele><time>2026-04-11T12:50:49Z</time></trkpt><trkpt lat="41.23832014775982" lon="14.0830881249359"><ele>95.5</ele><time>2026-04-11T12:50:50Z</time></trkpt><trkpt lat="41.238369024492386" lon="14.082941743879276"><ele>94.25</ele><time>2026-04-11T12:50:51Z</time></trkpt><trkpt lat="41.23838329079003" lon="14.082762552423029"><ele>93.0</ele><time>2026-04-11T12:50:52Z</time></trkpt><trkpt lat="41.23837289048446" lon="14.082549594736353"><ele>94.25</ele><time>2026-04-11T12:50:53Z</time></trkpt><trkpt lat="41.23834284067024" lon="14.082358547730633"><ele>95.5</ele><time>2026-04-11T12:50:54Z</time></trkpt><trkpt lat="41.238324600088774" lon="14.082189589036444"><ele>96.75</ele><time>2026-04-11T12:50:55Z</time></trkpt><trkpt lat="41.238331449039954" lon="14.082036854215321"><ele>98.0</ele><time>2026-04-11T12:50:56Z</time></trkpt><trkpt lat="41.23835691001638" lon="14.081873883933852"><ele>98.0</ele><time>2026-04-11T12:50:57Z</time></trkpt><trkpt lat="41.238415129489326" lon="14.081715198614837"><ele>98.0</ele><time>2026-04-11T12:50:58Z</time></trkpt><trkpt lat="41.23849554291001" lon="14.081550618749741"><ele>98.0</ele><time>2026-04-11T12:50:59Z</time></trkpt><trkpt lat="41.23859981036327" lon="14.081416074037012"><ele>98.0</ele><time>2026-04-11T12:51:00Z</time></trkpt><trkpt lat="41.23873663759032" lon="14.081302998061005"><ele>99.33333333333333</ele><time>2026-04-11T12:51:01Z</time></trkpt><trkpt lat="41.23889771563992" lon="14.08122951314327"><ele>100.66666666666666</ele><time>2026-04-11T12:51:02Z</time></trkpt><trkpt lat="41.239051711828296" lon="14.081111615151544"><ele>102.0</ele><time>2026-04-11T12:51:03Z</time></trkpt><trkpt lat="41.239203829275425" lon="14.080955879667087"><ele>102.0</ele><time>2026-04-11T12:51:04Z</time></trkpt><trkpt lat="41.23935248659331" lon="14.080791819901947"><ele>102.0</ele><time>2026-04-11T12:51:05Z</time></trkpt><trkpt lat="41.23947105377895" lon="14.080628731380104"><ele>102.0</ele><time>2026-04-11T12:51:06Z</time></trkpt><trkpt lat="41.23955219294091" lon="14.080458527153944"><ele>102.66666666666666</ele><time>2026-04-11T12:51:07Z</time></trkpt><trkpt lat="41.23961806851442" lon="14.080288312130646"><ele>103.33333333333333</ele><time>2026-04-11T12:51:08Z</time></trkpt><trkpt lat="41.23965691586602" lon="14.080108649662094"><ele>104.0</ele><time>2026-04-11T12:51:09Z</time></trkpt><trkpt lat="41.23967022649052" lon="14.079888087282365"><ele>104.0</ele><time>2026-04-11T12:51:10Z</time></trkpt><trkpt lat="41.23968089745799" lon="14.079641835153838"><ele>104.0</ele><time>2026-04-11T12:51:11Z</time></trkpt><trkpt lat="41.23967066458437" lon="14.079364769907976"><ele>104.0</ele><time>2026-04-11T12:51:12Z</time></trkpt><trkpt lat="41.23965501646616" lon="14.079098038874944"><ele>105.33333333333333</ele><time>2026-04-11T12:51:13Z</time></trkpt><trkpt lat="41.23963285980946" lon="14.07884985212111"><ele>106.66666666666666</ele><time>2026-04-11T12:51:14Z</time></trkpt><trkpt lat="41.23961205889697" lon="14.078602808248691"><ele>108.0</ele><time>2026-04-11T12:51:15Z</time></trkpt><trkpt lat="41.239626740331786" lon="14.078352860500205"><ele>109.0</ele><time>2026-04-11T12:51:16Z</time></trkpt><trkpt lat="41.239652541070384" lon="14.07809741875828"><ele>110.0</ele><time>2026-04-11T12:51:17Z</time></trkpt><trkpt lat="41.23969156893263" lon="14.077826700482463"><ele>111.0</ele><time>2026-04-11T12:51:18Z</time></trkpt><trkpt lat="41.23973160116034" lon="14.077574733500786"><ele>111.66666666666666</ele><time>2026-04-11T12:51:19Z</time></trkpt><trkpt lat="41.2397668848711" lon="14.077341312132045"><ele>112.33333333333333</ele><time>2026-04-11T12:51:20Z</time></trkpt><trkpt lat="41.23980074049456" lon="14.077127387140415"><ele>113.0</ele><time>2026-04-11T12:51:21Z</time></trkpt><trkpt lat="41.23982895484" lon="14.076934166902122"><ele>113.0</ele><time>2026-04-11T12:51:22Z</time></trkpt><trkpt lat="41.239850657499815" lon="14.076773487917038"><ele>113.00000000000001</ele><time>2026-04-11T12:51:23Z</time></trkpt><trkpt lat="41.2398876608296" lon="14.076636281850227"><ele>113.00000000000001</ele><time>2026-04-11T12:51:24Z</time></trkpt><trkpt lat="41.23995114866491" lon="14.076531595063564"><ele>113.0</ele><time>2026-04-11T12:51:25Z</time></trkpt><trkpt lat="41.24004123248622" lon="14.076462441173703"><ele>113.0</ele><time>2026-04-11T12:51:26Z</time></trkpt><trkpt lat="41.240144016841846" lon="14.076437455188175"><ele>114.0</ele><time>2026-04-11T12:51:27.001Z</time></trkpt><trkpt lat="41.24025875702264" lon="14.076420779957571"><ele>115.0</ele><time>2026-04-11T12:51:28.001Z</time></trkpt><trkpt lat="41.24040484034476" lon="14.076424577877205"><ele>116.0</ele><time>2026-04-11T12:51:29.001Z</time></trkpt><trkpt lat="41.24055189290103" lon="14.076430259422699"><ele>117.0</ele><time>2026-04-11T12:51:30.001Z</time></trkpt><trkpt lat="41.240696350701526" lon="14.076430348142676"><ele>118.25</ele><time>2026-04-11T12:51:31.001Z</time></trkpt><trkpt lat="41.24083022697308" lon="14.076427002738551"><ele>119.5</ele><time>2026-04-11T12:51:32.001Z</time></trkpt><trkpt lat="41.24095512800593" lon="14.076394223695237"><ele>120.75</ele><time>2026-04-11T12:51:33.001Z</time></trkpt><trkpt lat="41.24107219053786" lon="14.076316360350916"><ele>122.0</ele><time>2026-04-11T12:51:34.001Z</time></trkpt><trkpt lat="41.24120326831713" lon="14.076213081863816"><ele>122.0</ele><time>2026-04-11T12:51:35.001Z</time></trkpt><trkpt lat="41.24133691184895" lon="14.076078659734138"><ele>122.0</ele><time>2026-04-11T12:51:36.001Z</time></trkpt><trkpt lat="41.241481676619046" lon="14.075947669642783"><ele>122.0</ele><time>2026-04-11T12:51:37.001Z</time></trkpt><trkpt lat="41.24162489408912" lon="14.075812850020569"><ele>123.66666666666666</ele><time>2026-04-11T12:51:38.001Z</time></trkpt><trkpt lat="41.24176244114751" lon="14.075680572541282"><ele>125.33333333333334</ele><time>2026-04-11T12:51:39.001Z</time></trkpt><trkpt lat="41.241899145606396" lon="14.075545217589214"><ele>127.0</ele><time>2026-04-11T12:51:40.001Z</time></trkpt><trkpt lat="41.24202712325227" lon="14.075402161760856"><ele>127.0</ele><time>2026-04-11T12:51:41.001Z</time></trkpt><trkpt lat="41.24217668995104" lon="14.075275859621073"><ele>127.0</ele><time>2026-04-11T12:51:42.001Z</time></trkpt><trkpt lat="41.2423167781953" lon="14.075141904089053"><ele>127.0</ele><time>2026-04-11T12:51:43.001Z</time></trkpt><trkpt lat="41.24246143876961" lon="14.075001907609574"><ele>127.0</ele><time>2026-04-11T12:51:44.001Z</time></trkpt><trkpt lat="41.24259447162196" lon="14.074872921978825"><ele>127.0</ele><time>2026-04-11T12:51:45.001Z</time></trkpt><trkpt lat="41.24272834096914" lon="14.074723374231779"><ele>127.0</ele><time>2026-04-11T12:51:46.001Z</time></trkpt><trkpt lat="41.24287876110001" lon="14.074572625356597"><ele>127.0</ele><time>2026-04-11T12:51:47.001Z</time></trkpt><trkpt lat="41.243034048124805" lon="14.07444684482906"><ele>127.0</ele><time>2026-04-11T12:51:48.001Z</time></trkpt><trkpt lat="41.243180609677445" lon="14.074304420515027"><ele>127.0</ele><time>2026-04-11T12:51:49.001Z</time></trkpt><trkpt lat="41.24330978583232" lon="14.074178890479386"><ele>128.33333333333334</ele><time>2026-04-11T12:51:50.001Z</time></trkpt><trkpt lat="41.24342577807278" lon="14.074051407284818"><ele>129.66666666666666</ele><time>2026-04-11T12:51:51.001Z</time></trkpt><trkpt lat="41.24355388080798" lon="14.073937428362111"><ele>131.0</ele><time>2026-04-11T12:51:52.001Z</time></trkpt><trkpt lat="41.2436757916049" lon="14.073826747766407"><ele>131.0</ele><time>2026-04-11T12:51:53.001Z</time></trkpt><trkpt lat="41.24379323201992" lon="14.073721030956504"><ele>131.0</ele><time>2026-04-11T12:51:54.001Z</time></trkpt><trkpt lat="41.243908260393404" lon="14.073605615586253"><ele>131.0</ele><time>2026-04-11T12:51:55.001Z</time></trkpt><trkpt lat="41.244026185026925" lon="14.073493535589442"><ele>131.0</ele><time>2026-04-11T12:51:56.001Z</time></trkpt><trkpt lat="41.24414549876458" lon="14.07337922568038"><ele>133.0</ele><time>2026-04-11T12:51:57.001Z</time></trkpt><trkpt lat="41.244273680424165" lon="14.07325285690829"><ele>135.0</ele><time>2026-04-11T12:51:58.001Z</time></trkpt><trkpt lat="41.24441134989648" lon="14.073121914335339"><ele>137.0</ele><time>2026-04-11T12:51:59.001Z</time></trkpt><trkpt lat="41.244558909244795" lon="14.07298325314266"><ele>137.0</ele><time>2026-04-11T12:52:00.001Z</time></trkpt><trkpt lat="41.2447071823627" lon="14.07284412083782"><ele>137.0</ele><time>2026-04-11T12:52:01.001Z</time></trkpt><trkpt lat="41.244853247353205" lon="14.072700638607433"><ele>137.0</ele><time>2026-04-11T12:52:02.001Z</time></trkpt><trkpt lat="41.24498587143607" lon="14.072557280379836"><ele>139.33333333333331</ele><time>2026-04-11T12:52:03.001Z</time></trkpt><trkpt lat="41.245132649308324" lon="14.072430850610322"><ele>141.66666666666666</ele><time>2026-04-11T12:52:04.001Z</time></trkpt><trkpt lat="41.245267529310254" lon="14.072301548167397"><ele>144.0</ele><time>2026-04-11T12:52:05.001Z</time></trkpt><trkpt lat="41.24540259264371" lon="14.072169938255422"><ele>144.0</ele><time>2026-04-11T12:52:06.001Z</time></trkpt><trkpt lat="41.24553857145184" lon="14.072037436342676"><ele>144.0</ele><time>2026-04-11T12:52:07.001Z</time></trkpt><trkpt lat="41.24566968438414" lon="14.071910744547635"><ele>144.0</ele><time>2026-04-11T12:52:08.001Z</time></trkpt><trkpt lat="41.24579601199586" lon="14.071787987358379"><ele>144.66666666666666</ele><time>2026-04-11T12:52:09.001Z</time></trkpt><trkpt lat="41.24592716664652" lon="14.071658822899963"><ele>145.33333333333331</ele><time>2026-04-11T12:52:10.001Z</time></trkpt><trkpt lat="41.24605597589915" lon="14.071532487209629"><ele>146.0</ele><time>2026-04-11T12:52:11.001Z</time></trkpt><trkpt lat="41.246190023168154" lon="14.07140179208804"><ele>147.66666666666666</ele><time>2026-04-11T12:52:12.001Z</time></trkpt><trkpt lat="41.246320349755315" lon="14.071274724603605"><ele>149.33333333333334</ele><time>2026-04-11T12:52:13.001Z</time></trkpt><trkpt lat="41.24644614167667" lon="14.07115389233125"><ele>151.0</ele><time>2026-04-11T12:52:14.001Z</time></trkpt><trkpt lat="41.246570055090714" lon="14.071035102578822"><ele>152.33333333333334</ele><time>2026-04-11T12:52:15.001Z</time></trkpt><trkpt lat="41.246697974127464" lon="14.07091070209617"><ele>153.66666666666666</ele><time>2026-04-11T12:52:16.001Z</time></trkpt><trkpt lat="41.24681954908174" lon="14.07079226020525"><ele>155.0</ele><time>2026-04-11T12:52:17.001Z</time></trkpt><trkpt lat="41.24694411784024" lon="14.070670535916015"><ele>156.66666666666666</ele><time>2026-04-11T12:52:18.001Z</time></trkpt><trkpt lat="41.24706881591475" lon="14.070548484262435"><ele>158.33333333333334</ele><time>2026-04-11T12:52:19.001Z</time></trkpt><trkpt lat="41.24719852067107" lon="14.070421531999243"><ele>160.0</ele><time>2026-04-11T12:52:20.001Z</time></trkpt><trkpt lat="41.247319865640065" lon="14.070302762152574"><ele>160.0</ele><time>2026-04-11T12:52:21.001Z</time></trkpt><trkpt lat="41.24743590169646" lon="14.070192452528715"><ele>160.0</ele><time>2026-04-11T12:52:22.001Z</time></trkpt><trkpt lat="41.24753909391197" lon="14.070095486190047"><ele>160.0</ele><time>2026-04-11T12:52:23.001Z</time></trkpt><trkpt lat="41.24763297235203" lon="14.069984550542456"><ele>160.0</ele><time>2026-04-11T12:52:24.001Z</time></trkpt><trkpt lat="41.24773169073602" lon="14.0699154462582"><ele>161.6</ele><time>2026-04-11T12:52:25.001Z</time></trkpt><trkpt lat="41.24782741668011" lon="14.069834691008706"><ele>163.2</ele><time>2026-04-11T12:52:26.002Z</time></trkpt><trkpt lat="41.24790606353702" lon="14.06976343355014"><ele>164.8</ele><time>2026-04-11T12:52:27.002Z</time></trkpt><trkpt lat="41.24798125813132" lon="14.069701117575386"><ele>166.4</ele><time>2026-04-11T12:52:28.002Z</time></trkpt><trkpt lat="41.2480485615287" lon="14.06964013895969"><ele>168.0</ele><time>2026-04-11T12:52:29.002Z</time></trkpt><trkpt lat="41.24811365885773" lon="14.069578480432789"><ele>168.33333333333334</ele><time>2026-04-11T12:52:30.002Z</time></trkpt><trkpt lat="41.24819387483503" lon="14.06952043579954"><ele>168.66666666666666</ele><time>2026-04-11T12:52:31.002Z</time></trkpt><trkpt lat="41.24827046673357" lon="14.06946679155882"><ele>169.0</ele><time>2026-04-11T12:52:32.002Z</time></trkpt><trkpt lat="41.24834740246794" lon="14.069414178468326"><ele>169.33333333333331</ele><time>2026-04-11T12:52:33.002Z</time></trkpt><trkpt lat="41.24842833406755" lon="14.069365227100858"><ele>169.66666666666666</ele><time>2026-04-11T12:52:34.002Z</time></trkpt><trkpt lat="41.24849289403338" lon="14.069304461353244"><ele>170.0</ele><time>2026-04-11T12:52:35.002Z</time></trkpt><trkpt lat="41.24855747684746" lon="14.069244145696835"><ele>170.0</ele><time>2026-04-11T12:52:36.002Z</time></trkpt><trkpt lat="41.24861933708099" lon="14.069184215335287"><ele>170.0</ele><time>2026-04-11T12:52:37.002Z</time></trkpt><trkpt lat="41.248679209463354" lon="14.069129152962551"><ele>170.0</ele><time>2026-04-11T12:52:38.002Z</time></trkpt><trkpt lat="41.24873453781716" lon="14.069079265842696"><ele>170.0</ele><time>2026-04-11T12:52:39.002Z</time></trkpt><trkpt lat="41.24882885282719" lon="14.069003402217744"><ele>170.0</ele><time>2026-04-11T12:52:41.002Z</time></trkpt><trkpt lat="41.24890607151562" lon="14.068924230986926"><ele>170.0</ele><time>2026-04-11T12:52:43.002Z</time></trkpt><trkpt lat="41.2489749448108" lon="14.0688764215694"><ele>171.0</ele><time>2026-04-11T12:52:46.002Z</time></trkpt><trkpt lat="41.249026025545604" lon="14.06881172097101"><ele>172.0</ele><time>2026-04-11T12:52:48Z</time></trkpt><trkpt lat="41.24909709603659" lon="14.068742536589788"><ele>173.0</ele><time>2026-04-11T12:52:50Z</time></trkpt><trkpt lat="41.249139334283235" lon="14.06866906481176"><ele>174.0</ele><time>2026-04-11T12:52:52Z</time></trkpt><trkpt lat="41.24920444929253" lon="14.068618066591776"><ele>175.0</ele><time>2026-04-11T12:52:55Z</time></trkpt><trkpt lat="41.2492540546194" lon="14.068553970492102"><ele>176.0</ele><time>2026-04-11T12:52:57Z</time></trkpt><trkpt lat="41.249323822093864" lon="14.068451834543076"><ele>176.0</ele><time>2026-04-11T12:52:59Z</time></trkpt><trkpt lat="41.249368635785046" lon="14.068305256975293"><ele>176.0</ele><time>2026-04-11T12:53:01Z</time></trkpt><trkpt lat="41.249348510434594" lon="14.06816090176137"><ele>176.0</ele><time>2026-04-11T12:53:03Z</time></trkpt><trkpt lat="41.24932119827887" lon="14.068031753129455"><ele>176.0</ele><time>2026-04-11T12:53:05Z</time></trkpt><trkpt lat="41.24923868491185" lon="14.067992211746118"><ele>176.0</ele><time>2026-04-11T12:53:06Z</time></trkpt><trkpt lat="41.24922496783262" lon="14.067904676761088"><ele>176.28571428571428</ele><time>2026-04-11T12:53:07Z</time></trkpt><trkpt lat="41.249210269218345" lon="14.067818132899578"><ele>176.57142857142856</ele><time>2026-04-11T12:53:08Z</time></trkpt><trkpt lat="41.24920336790351" lon="14.06772348723431"><ele>176.85714285714283</ele><time>2026-04-11T12:53:09Z</time></trkpt><trkpt lat="41.249179510747695" lon="14.067626267896628"><ele>177.14285714285714</ele><time>2026-04-11T12:53:10Z</time></trkpt><trkpt lat="41.249161894416005" lon="14.067529728126836"><ele>177.42857142857142</ele><time>2026-04-11T12:53:11Z</time></trkpt><trkpt lat="41.24913658747191" lon="14.067448118392804"><ele>177.7142857142857</ele><time>2026-04-11T12:53:12Z</time></trkpt><trkpt lat="41.24911101854983" lon="14.067352811260951"><ele>178.0</ele><time>2026-04-11T12:53:13Z</time></trkpt><trkpt lat="41.24908938516284" lon="14.067265146472803"><ele>178.0</ele><time>2026-04-11T12:53:14Z</time></trkpt><trkpt lat="41.249068708440674" lon="14.067172823684412"><ele>178.0</ele><time>2026-04-11T12:53:15Z</time></trkpt><trkpt lat="41.24904151106339" lon="14.067076731841759"><ele>178.0</ele><time>2026-04-11T12:53:16Z</time></trkpt><trkpt lat="41.24902829126993" lon="14.066972905431278"><ele>178.0</ele><time>2026-04-11T12:53:17Z</time></trkpt><trkpt lat="41.24902738754273" lon="14.066867367665095"><ele>178.0</ele><time>2026-04-11T12:53:18Z</time></trkpt><trkpt lat="41.2491133700817" lon="14.066796858161293"><ele>178.0</ele><time>2026-04-11T12:53:19Z</time></trkpt><trkpt lat="41.249183609331006" lon="14.066711616707215"><ele>178.0</ele><time>2026-04-11T12:53:21Z</time></trkpt><trkpt lat="41.249244667929716" lon="14.06668937220664"><ele>178.0</ele><time>2026-04-11T12:53:22Z</time></trkpt><trkpt lat="41.24931406346594" lon="14.06667238084014"><ele>178.0</ele><time>2026-04-11T12:53:23Z</time></trkpt><trkpt lat="41.24937949355078" lon="14.066657076187408"><ele>178.0</ele><time>2026-04-11T12:53:24Z</time></trkpt><trkpt lat="41.249480303864466" lon="14.066612999756046"><ele>178.0</ele><time>2026-04-11T12:53:26Z</time></trkpt><trkpt lat="41.24955699066718" lon="14.066548969954516"><ele>178.0</ele><time>2026-04-11T12:53:28Z</time></trkpt><trkpt lat="41.24962410874437" lon="14.066439886769263"><ele>177.33333333333334</ele><time>2026-04-11T12:53:30Z</time></trkpt><trkpt lat="41.24969067357422" lon="14.066405381629064"><ele>176.66666666666669</ele><time>2026-04-11T12:53:31Z</time></trkpt><trkpt lat="41.249759655344164" lon="14.066365144944776"><ele>176.0</ele><time>2026-04-11T12:53:32.001Z</time></trkpt><trkpt lat="41.24982528228089" lon="14.066311618857755"><ele>175.33333333333334</ele><time>2026-04-11T12:53:33.001Z</time></trkpt><trkpt lat="41.24988306825577" lon="14.066243555342917"><ele>174.66666666666666</ele><time>2026-04-11T12:53:34.001Z</time></trkpt><trkpt lat="41.24993518967505" lon="14.066142433137513"><ele>174.0</ele><time>2026-04-11T12:53:35.001Z</time></trkpt><trkpt lat="41.2499836532318" lon="14.066035873925957"><ele>175.5</ele><time>2026-04-11T12:53:36.001Z</time></trkpt><trkpt lat="41.249993364456564" lon="14.065901386559974"><ele>177.0</ele><time>2026-04-11T12:53:37.001Z</time></trkpt><trkpt lat="41.25000854514575" lon="14.065788072119219"><ele>178.5</ele><time>2026-04-11T12:53:38.001Z</time></trkpt><trkpt lat="41.2500092556135" lon="14.065675614667883"><ele>180.0</ele><time>2026-04-11T12:53:39.001Z</time></trkpt><trkpt lat="41.2500163484869" lon="14.065564671685095"><ele>181.5</ele><time>2026-04-11T12:53:40.001Z</time></trkpt><trkpt lat="41.250036480591156" lon="14.065457205454345"><ele>183.0</ele><time>2026-04-11T12:53:41.001Z</time></trkpt><trkpt lat="41.25006785615564" lon="14.065367020110157"><ele>183.0</ele><time>2026-04-11T12:53:42.001Z</time></trkpt><trkpt lat="41.250104425930694" lon="14.065257298346118"><ele>183.0</ele><time>2026-04-11T12:53:43.001Z</time></trkpt><trkpt lat="41.25015837157905" lon="14.065163132667587"><ele>183.0</ele><time>2026-04-11T12:53:44.001Z</time></trkpt><trkpt lat="41.250219886289116" lon="14.065070059856591"><ele>183.0</ele><time>2026-04-11T12:53:45.001Z</time></trkpt><trkpt lat="41.2502879433907" lon="14.064984215495578"><ele>183.0</ele><time>2026-04-11T12:53:46.001Z</time></trkpt><trkpt lat="41.25036050341807" lon="14.064900022635937"><ele>182.2</ele><time>2026-04-11T12:53:47.001Z</time></trkpt><trkpt lat="41.25043938592316" lon="14.064808364478122"><ele>181.4</ele><time>2026-04-11T12:53:48.001Z</time></trkpt><trkpt lat="41.250501537701055" lon="14.06469055594098"><ele>180.6</ele><time>2026-04-11T12:53:49.001Z</time></trkpt><trkpt lat="41.250582062804774" lon="14.064625886246127"><ele>179.79999999999998</ele><time>2026-04-11T12:53:50.001Z</time></trkpt><trkpt lat="41.2506666774642" lon="14.064561192640651"><ele>179.0</ele><time>2026-04-11T12:53:51.001Z</time></trkpt><trkpt lat="41.25079792250127" lon="14.064547184123953"><ele>179.0</ele><time>2026-04-11T12:53:52.001Z</time></trkpt><trkpt lat="41.25090091186063" lon="14.06454282084642"><ele>179.0</ele><time>2026-04-11T12:53:53.001Z</time></trkpt><trkpt lat="41.2510013666299" lon="14.06453744733932"><ele>179.0</ele><time>2026-04-11T12:53:54.001Z</time></trkpt><trkpt lat="41.25109837614048" lon="14.064535570832174"><ele>179.0</ele><time>2026-04-11T12:53:55.001Z</time></trkpt><trkpt lat="41.25118466384014" lon="14.064515752679096"><ele>179.0</ele><time>2026-04-11T12:53:56.001Z</time></trkpt><trkpt lat="41.25126422921483" lon="14.064525974763397"><ele>179.0</ele><time>2026-04-11T12:53:57.001Z</time></trkpt><trkpt lat="41.25134971365679" lon="14.064545322195118"><ele>179.0</ele><time>2026-04-11T12:53:58.001Z</time></trkpt><trkpt lat="41.251440508116985" lon="14.064568604202591"><ele>179.0</ele><time>2026-04-11T12:53:59.001Z</time></trkpt><trkpt lat="41.25153662447074" lon="14.064578917415352"><ele>179.0</ele><time>2026-04-11T12:54:00.001Z</time></trkpt><trkpt lat="41.2516426875975" lon="14.064585930292026"><ele>179.0</ele><time>2026-04-11T12:54:01.001Z</time></trkpt><trkpt lat="41.251755266686665" lon="14.064606270402336"><ele>178.75</ele><time>2026-04-11T12:54:02.001Z</time></trkpt><trkpt lat="41.25187779027014" lon="14.064627408426592"><ele>178.5</ele><time>2026-04-11T12:54:03.001Z</time></trkpt><trkpt lat="41.25198324224085" lon="14.064658434051164"><ele>178.25</ele><time>2026-04-11T12:54:04.001Z</time></trkpt><trkpt lat="41.2521030470089" lon="14.064676689123186"><ele>178.0</ele><time>2026-04-11T12:54:05.001Z</time></trkpt><trkpt lat="41.2522224256373" lon="14.064694166123857"><ele>178.4</ele><time>2026-04-11T12:54:06.001Z</time></trkpt><trkpt lat="41.25233022487259" lon="14.064712133172996"><ele>178.8</ele><time>2026-04-11T12:54:07.001Z</time></trkpt><trkpt lat="41.25243105563974" lon="14.064734885775682"><ele>179.2</ele><time>2026-04-11T12:54:08.001Z</time></trkpt><trkpt lat="41.25252345550123" lon="14.064758801350887"><ele>179.6</ele><time>2026-04-11T12:54:09.001Z</time></trkpt><trkpt lat="41.252612403036295" lon="14.064787837719203"><ele>180.0</ele><time>2026-04-11T12:54:10.001Z</time></trkpt><trkpt lat="41.252707195618164" lon="14.064818933199364"><ele>180.0</ele><time>2026-04-11T12:54:11.001Z</time></trkpt><trkpt lat="41.252806078287215" lon="14.064821101661106"><ele>180.0</ele><time>2026-04-11T12:54:12.001Z</time></trkpt><trkpt lat="41.25289921164807" lon="14.064857320147508"><ele>180.0</ele><time>2026-04-11T12:54:13.001Z</time></trkpt><trkpt lat="41.25299527016189" lon="14.064887796603582"><ele>180.0</ele><time>2026-04-11T12:54:14.001Z</time></trkpt><trkpt lat="41.25308933507697" lon="14.064915080155396"><ele>180.0</ele><time>2026-04-11T12:54:15.001Z</time></trkpt><trkpt lat="41.25318258782157" lon="14.0649412968727"><ele>181.33333333333334</ele><time>2026-04-11T12:54:16.001Z</time></trkpt><trkpt lat="41.25326348484555" lon="14.06500346086906"><ele>182.66666666666666</ele><time>2026-04-11T12:54:17.001Z</time></trkpt><trkpt lat="41.25334653301103" lon="14.065030921471783"><ele>184.0</ele><time>2026-04-11T12:54:18.001Z</time></trkpt><trkpt lat="41.25341902039629" lon="14.065056679675441"><ele>185.33333333333331</ele><time>2026-04-11T12:54:19.001Z</time></trkpt><trkpt lat="41.253483947739184" lon="14.065082034281259"><ele>186.66666666666666</ele><time>2026-04-11T12:54:20.001Z</time></trkpt><trkpt lat="41.253553706058" lon="14.06511321010207"><ele>188.0</ele><time>2026-04-11T12:54:21.001Z</time></trkpt><trkpt lat="41.25362128071407" lon="14.0651553738584"><ele>188.0</ele><time>2026-04-11T12:54:22.001Z</time></trkpt><trkpt lat="41.25367845250517" lon="14.065200335034683"><ele>188.0</ele><time>2026-04-11T12:54:23.001Z</time></trkpt><trkpt lat="41.253752923893856" lon="14.065292038256747"><ele>188.0</ele><time>2026-04-11T12:54:25.001Z</time></trkpt><trkpt lat="41.25382614728214" lon="14.065424358978682"><ele>188.0</ele><time>2026-04-11T12:54:27.001Z</time></trkpt><trkpt lat="41.253864697115255" lon="14.06551429457861"><ele>188.0</ele><time>2026-04-11T12:54:30.002Z</time></trkpt><trkpt lat="41.25389214967431" lon="14.065620054170802"><ele>188.0</ele><time>2026-04-11T12:54:33.002Z</time></trkpt><trkpt lat="41.25391611641604" lon="14.06570396318859"><ele>188.0</ele><time>2026-04-11T12:54:37.002Z</time></trkpt><trkpt lat="41.25412977016043" lon="14.065622784701178"><ele>188.0</ele><time>2026-04-11T12:54:45.002Z</time></trkpt><trkpt lat="41.25415938207652" lon="14.065535275775522"><ele>188.0</ele><time>2026-04-11T12:54:46.002Z</time></trkpt><trkpt lat="41.25419498348095" lon="14.065445290963726"><ele>188.0</ele><time>2026-04-11T12:54:47.002Z</time></trkpt><trkpt lat="41.25422633691012" lon="14.065356473119401"><ele>188.0</ele><time>2026-04-11T12:54:48.002Z</time></trkpt><trkpt lat="41.25425194705049" lon="14.065272409045011"><ele>188.0</ele><time>2026-04-11T12:54:49.002Z</time></trkpt><trkpt lat="41.25431478576218" lon="14.065193359164214"><ele>188.0</ele><time>2026-04-11T12:54:51.002Z</time></trkpt><trkpt lat="41.25433147199989" lon="14.065112333560068"><ele>188.0</ele><time>2026-04-11T12:54:52.002Z</time></trkpt><trkpt lat="41.254366550757034" lon="14.06500768670848"><ele>188.0</ele><time>2026-04-11T12:54:53Z</time></trkpt><trkpt lat="41.254419578543505" lon="14.064894749318258"><ele>188.0</ele><time>2026-04-11T12:54:54Z</time></trkpt><trkpt lat="41.2544622870546" lon="14.064806568280916"><ele>188.0</ele><time>2026-04-11T12:54:55Z</time></trkpt><trkpt lat="41.254503289825124" lon="14.064709940747484"><ele>188.0</ele><time>2026-04-11T12:54:56Z</time></trkpt><trkpt lat="41.254553071526885" lon="14.064591206070295"><ele>188.0</ele><time>2026-04-11T12:54:57Z</time></trkpt><trkpt lat="41.25461079130479" lon="14.064463168788285"><ele>188.0</ele><time>2026-04-11T12:54:58Z</time></trkpt><trkpt lat="41.25467751227065" lon="14.064312337364946"><ele>188.0</ele><time>2026-04-11T12:54:59Z</time></trkpt><trkpt lat="41.254746844854786" lon="14.064155602378703"><ele>189.75</ele><time>2026-04-11T12:55:00Z</time></trkpt><trkpt lat="41.25480979277762" lon="14.064010486520823"><ele>191.5</ele><time>2026-04-11T12:55:01Z</time></trkpt><trkpt lat="41.25487439671675" lon="14.063860460334219"><ele>193.25</ele><time>2026-04-11T12:55:02Z</time></trkpt><trkpt lat="41.25493441437133" lon="14.063720679531288"><ele>195.0</ele><time>2026-04-11T12:55:03Z</time></trkpt><trkpt lat="41.254991677166295" lon="14.063584766202979"><ele>195.0</ele><time>2026-04-11T12:55:04Z</time></trkpt><trkpt lat="41.25505477298684" lon="14.063435008383273"><ele>195.0</ele><time>2026-04-11T12:55:05Z</time></trkpt><trkpt lat="41.25512309219312" lon="14.063272852846175"><ele>195.0</ele><time>2026-04-11T12:55:06Z</time></trkpt><trkpt lat="41.255193158303406" lon="14.06311006908473"><ele>195.0</ele><time>2026-04-11T12:55:07Z</time></trkpt><trkpt lat="41.255263529843276" lon="14.062948967906015"><ele>194.66666666666669</ele><time>2026-04-11T12:55:08Z</time></trkpt><trkpt lat="41.255339913721855" lon="14.062774103012446"><ele>194.33333333333334</ele><time>2026-04-11T12:55:09Z</time></trkpt><trkpt lat="41.255416711516574" lon="14.062598290385829"><ele>194.0</ele><time>2026-04-11T12:55:10Z</time></trkpt><trkpt lat="41.25549431812128" lon="14.062418852102432"><ele>194.0</ele><time>2026-04-11T12:55:11Z</time></trkpt><trkpt lat="41.25556858301793" lon="14.062246424317065"><ele>194.0</ele><time>2026-04-11T12:55:12Z</time></trkpt><trkpt lat="41.255639794123134" lon="14.062076932794978"><ele>194.0</ele><time>2026-04-11T12:55:13Z</time></trkpt><trkpt lat="41.255685689873836" lon="14.061923228571093"><ele>194.0</ele><time>2026-04-11T12:55:14Z</time></trkpt><trkpt lat="41.25574081539475" lon="14.06179324786715"><ele>194.25</ele><time>2026-04-11T12:55:15Z</time></trkpt><trkpt lat="41.25580564642131" lon="14.061669242632304"><ele>194.5</ele><time>2026-04-11T12:55:16Z</time></trkpt><trkpt lat="41.25586891954555" lon="14.061527261217751"><ele>194.75</ele><time>2026-04-11T12:55:17Z</time></trkpt><trkpt lat="41.25594198172161" lon="14.061392347456215"><ele>195.0</ele><time>2026-04-11T12:55:18Z</time></trkpt><trkpt lat="41.25602819994182" lon="14.06126133536261"><ele>195.0</ele><time>2026-04-11T12:55:19Z</time></trkpt><trkpt lat="41.25613318279823" lon="14.061132643786586"><ele>195.0</ele><time>2026-04-11T12:55:20Z</time></trkpt><trkpt lat="41.25626628954802" lon="14.06101461591872"><ele>195.0</ele><time>2026-04-11T12:55:21Z</time></trkpt><trkpt lat="41.25642297383439" lon="14.060913964782427"><ele>196.0</ele><time>2026-04-11T12:55:22Z</time></trkpt><trkpt lat="41.256594058084005" lon="14.060795317488063"><ele>197.0</ele><time>2026-04-11T12:55:23Z</time></trkpt><trkpt lat="41.25676668091815" lon="14.060672058725594"><ele>198.0</ele><time>2026-04-11T12:55:24Z</time></trkpt><trkpt lat="41.25694048255986" lon="14.060567129495327"><ele>197.33333333333331</ele><time>2026-04-11T12:55:25Z</time></trkpt><trkpt lat="41.257119482319645" lon="14.060454270039846"><ele>196.66666666666666</ele><time>2026-04-11T12:55:26Z</time></trkpt><trkpt lat="41.25729582238569" lon="14.060333597174466"><ele>196.0</ele><time>2026-04-11T12:55:27Z</time></trkpt><trkpt lat="41.25746275674128" lon="14.060224089979847"><ele>196.0</ele><time>2026-04-11T12:55:28Z</time></trkpt><trkpt lat="41.2576266677192" lon="14.060107183532928"><ele>196.0</ele><time>2026-04-11T12:55:29Z</time></trkpt><trkpt lat="41.25777915018325" lon="14.059971725516135"><ele>196.0</ele><time>2026-04-11T12:55:30Z</time></trkpt><trkpt lat="41.25794075386869" lon="14.059860199580847"><ele>195.33333333333331</ele><time>2026-04-11T12:55:31Z</time></trkpt><trkpt lat="41.258081143741165" lon="14.05974066957563"><ele>194.66666666666669</ele><time>2026-04-11T12:55:32Z</time></trkpt><trkpt lat="41.25822341847326" lon="14.059641231139997"><ele>194.0</ele><time>2026-04-11T12:55:33Z</time></trkpt><trkpt lat="41.25836646640118" lon="14.059534519974969"><ele>194.0</ele><time>2026-04-11T12:55:34.001Z</time></trkpt><trkpt lat="41.25852645288997" lon="14.059409467938238"><ele>194.0</ele><time>2026-04-11T12:55:35.001Z</time></trkpt><trkpt lat="41.25870590965376" lon="14.059277083425528"><ele>194.0</ele><time>2026-04-11T12:55:36.001Z</time></trkpt><trkpt lat="41.25888124737111" lon="14.059128830289856"><ele>194.0</ele><time>2026-04-11T12:55:37.001Z</time></trkpt><trkpt lat="41.25907726285464" lon="14.058975465682837"><ele>194.0</ele><time>2026-04-11T12:55:38.001Z</time></trkpt><trkpt lat="41.25926346225312" lon="14.058820770097606"><ele>194.0</ele><time>2026-04-11T12:55:39.001Z</time></trkpt><trkpt lat="41.25946534624057" lon="14.05866959195486"><ele>194.0</ele><time>2026-04-11T12:55:40.001Z</time></trkpt><trkpt lat="41.25966621126329" lon="14.05853660028954"><ele>194.0</ele><time>2026-04-11T12:55:41.001Z</time></trkpt><trkpt lat="41.25985207282476" lon="14.05842427005783"><ele>194.0</ele><time>2026-04-11T12:55:42.001Z</time></trkpt><trkpt lat="41.260027900327444" lon="14.058314064359022"><ele>193.66666666666669</ele><time>2026-04-11T12:55:43.001Z</time></trkpt><trkpt lat="41.26018173750556" lon="14.058192778478343"><ele>193.33333333333331</ele><time>2026-04-11T12:55:44.001Z</time></trkpt><trkpt lat="41.26031926086548" lon="14.058080021536545"><ele>193.0</ele><time>2026-04-11T12:55:45.001Z</time></trkpt><trkpt lat="41.260448991039105" lon="14.057965122621868"><ele>193.0</ele><time>2026-04-11T12:55:46.001Z</time></trkpt><trkpt lat="41.26057016737497" lon="14.057860008477677"><ele>193.0</ele><time>2026-04-11T12:55:47.001Z</time></trkpt><trkpt lat="41.26070261033717" lon="14.057758761851854"><ele>193.0</ele><time>2026-04-11T12:55:48.001Z</time></trkpt><trkpt lat="41.26081882289541" lon="14.057664866875879"><ele>193.0</ele><time>2026-04-11T12:55:49.001Z</time></trkpt><trkpt lat="41.260934774280415" lon="14.057572541500996"><ele>193.33333333333331</ele><time>2026-04-11T12:55:50.001Z</time></trkpt><trkpt lat="41.261064479249" lon="14.057485399070469"><ele>193.66666666666669</ele><time>2026-04-11T12:55:51.001Z</time></trkpt><trkpt lat="41.26120818122353" lon="14.057414412778641"><ele>194.0</ele><time>2026-04-11T12:55:52.001Z</time></trkpt><trkpt lat="41.261368681652975" lon="14.057352074959564"><ele>196.66666666666669</ele><time>2026-04-11T12:55:53.001Z</time></trkpt><trkpt lat="41.261543852067945" lon="14.057305474715404"><ele>199.33333333333331</ele><time>2026-04-11T12:55:54.001Z</time></trkpt><trkpt lat="41.26171547835188" lon="14.057267442658603"><ele>202.0</ele><time>2026-04-11T12:55:55.001Z</time></trkpt><trkpt lat="41.261901726163565" lon="14.057234509288932"><ele>202.0</ele><time>2026-04-11T12:55:56.001Z</time></trkpt><trkpt lat="41.2620739561125" lon="14.05720461192366"><ele>202.0</ele><time>2026-04-11T12:55:57.001Z</time></trkpt><trkpt lat="41.26224303117973" lon="14.057180905250648"><ele>202.0</ele><time>2026-04-11T12:55:58.001Z</time></trkpt><trkpt lat="41.26240486025424" lon="14.057145339098154"><ele>205.0</ele><time>2026-04-11T12:55:59.001Z</time></trkpt><trkpt lat="41.262569798564556" lon="14.057115138535138"><ele>208.0</ele><time>2026-04-11T12:56:00.001Z</time></trkpt><trkpt lat="41.26272038229418" lon="14.057097175257976"><ele>211.0</ele><time>2026-04-11T12:56:01.001Z</time></trkpt><trkpt lat="41.262854953270946" lon="14.057072850880074"><ele>211.0</ele><time>2026-04-11T12:56:02.001Z</time></trkpt><trkpt lat="41.26296222746202" lon="14.05703471123941"><ele>211.0</ele><time>2026-04-11T12:56:03.001Z</time></trkpt><trkpt lat="41.26306123607456" lon="14.056977675699443"><ele>211.0</ele><time>2026-04-11T12:56:04.001Z</time></trkpt><trkpt lat="41.26313035320686" lon="14.05688544001156"><ele>211.0</ele><time>2026-04-11T12:56:05.001Z</time></trkpt><trkpt lat="41.26317236815785" lon="14.05677137209513"><ele>211.0</ele><time>2026-04-11T12:56:06.001Z</time></trkpt><trkpt lat="41.263195602111864" lon="14.056636852100466"><ele>216.5</ele><time>2026-04-11T12:56:07.001Z</time></trkpt><trkpt lat="41.263187897955206" lon="14.056466369059816"><ele>222.0</ele><time>2026-04-11T12:56:08.001Z</time></trkpt><trkpt lat="41.263178356153986" lon="14.056283618371895"><ele>227.5</ele><time>2026-04-11T12:56:09.001Z</time></trkpt><trkpt lat="41.26319618813082" lon="14.056087047215055"><ele>233.0</ele><time>2026-04-11T12:56:10.001Z</time></trkpt><trkpt lat="41.26320063556417" lon="14.055913014198431"><ele>230.5</ele><time>2026-04-11T12:56:11.001Z</time></trkpt><trkpt lat="41.26318778483452" lon="14.055763458660513"><ele>228.0</ele><time>2026-04-11T12:56:12.001Z</time></trkpt><trkpt lat="41.263228613166525" lon="14.05560102568847"><ele>225.5</ele><time>2026-04-11T12:56:13.001Z</time></trkpt><trkpt lat="41.26327922579358" lon="14.055469307276557"><ele>223.0</ele><time>2026-04-11T12:56:14.001Z</time></trkpt><trkpt lat="41.26335414707878" lon="14.055355130589698"><ele>223.0</ele><time>2026-04-11T12:56:15.001Z</time></trkpt><trkpt lat="41.263460957258424" lon="14.055262915128559"><ele>223.0</ele><time>2026-04-11T12:56:16.001Z</time></trkpt><trkpt lat="41.263583452258686" lon="14.055184223466672"><ele>223.0</ele><time>2026-04-11T12:56:17.001Z</time></trkpt><trkpt lat="41.263705174761164" lon="14.055100047279852"><ele>223.0</ele><time>2026-04-11T12:56:18.001Z</time></trkpt><trkpt lat="41.263814479778226" lon="14.054992650841292"><ele>221.0</ele><time>2026-04-11T12:56:19.001Z</time></trkpt><trkpt lat="41.263907454036655" lon="14.054863764925933"><ele>219.0</ele><time>2026-04-11T12:56:20.001Z</time></trkpt><trkpt lat="41.26398236148816" lon="14.054697589153646"><ele>217.0</ele><time>2026-04-11T12:56:21.001Z</time></trkpt><trkpt lat="41.264043668305135" lon="14.054522570340795"><ele>215.0</ele><time>2026-04-11T12:56:22.001Z</time></trkpt><trkpt lat="41.26408308593859" lon="14.054355809117151"><ele>222.75</ele><time>2026-04-11T12:56:23.001Z</time></trkpt><trkpt lat="41.26408704571596" lon="14.054169625629395"><ele>230.5</ele><time>2026-04-11T12:56:24.001Z</time></trkpt><trkpt lat="41.26405653891145" lon="14.053997087979646"><ele>238.25</ele><time>2026-04-11T12:56:25.001Z</time></trkpt><trkpt lat="41.2640025874882" lon="14.053831907492377"><ele>246.0</ele><time>2026-04-11T12:56:26.001Z</time></trkpt><trkpt lat="41.26397120959913" lon="14.053668530645357"><ele>247.25</ele><time>2026-04-11T12:56:27.001Z</time></trkpt><trkpt lat="41.26394903063142" lon="14.053480751172541"><ele>248.5</ele><time>2026-04-11T12:56:28.001Z</time></trkpt><trkpt lat="41.26394787917827" lon="14.053278275496075"><ele>249.75</ele><time>2026-04-11T12:56:29.001Z</time></trkpt><trkpt lat="41.263976160480716" lon="14.053092902292633"><ele>251.0</ele><time>2026-04-11T12:56:30.001Z</time></trkpt><trkpt lat="41.264026912975865" lon="14.052954492149887"><ele>248.0</ele><time>2026-04-11T12:56:31.001Z</time></trkpt><trkpt lat="41.26409581337747" lon="14.052827588332766"><ele>245.0</ele><time>2026-04-11T12:56:32.002Z</time></trkpt><trkpt lat="41.26419538950845" lon="14.05270365356397"><ele>242.0</ele><time>2026-04-11T12:56:33.002Z</time></trkpt><trkpt lat="41.26433605677883" lon="14.052631594004787"><ele>239.0</ele><time>2026-04-11T12:56:34.002Z</time></trkpt><trkpt lat="41.2644817042265" lon="14.052553157629546"><ele>239.0</ele><time>2026-04-11T12:56:35.002Z</time></trkpt><trkpt lat="41.26463754991549" lon="14.052470183966975"><ele>239.0</ele><time>2026-04-11T12:56:36.002Z</time></trkpt><trkpt lat="41.26479000672346" lon="14.052356807507936"><ele>239.0</ele><time>2026-04-11T12:56:37.002Z</time></trkpt><trkpt lat="41.26493572980663" lon="14.052202267273193"><ele>242.0</ele><time>2026-04-11T12:56:38.002Z</time></trkpt><trkpt lat="41.26505357544487" lon="14.052055439902162"><ele>245.0</ele><time>2026-04-11T12:56:39.002Z</time></trkpt><trkpt lat="41.265150484589206" lon="14.051923942057071"><ele>248.0</ele><time>2026-04-11T12:56:40.002Z</time></trkpt><trkpt lat="41.26522877170916" lon="14.05180975321643"><ele>251.0</ele><time>2026-04-11T12:56:41.002Z</time></trkpt><trkpt lat="41.26528599878853" lon="14.051719480760626"><ele>251.0</ele><time>2026-04-11T12:56:42.002Z</time></trkpt><trkpt lat="41.2653409116856" lon="14.051644617366948"><ele>251.00000000000003</ele><time>2026-04-11T12:56:43.002Z</time></trkpt><trkpt lat="41.265461345508044" lon="14.051603249745662"><ele>251.00000000000003</ele><time>2026-04-11T12:56:45.002Z</time></trkpt><trkpt lat="41.2655178378183" lon="14.051722997820693"><ele>251.0</ele><time>2026-04-11T12:56:47.002Z</time></trkpt><trkpt lat="41.265493618619516" lon="14.051807117752395"><ele>251.0</ele><time>2026-04-11T12:56:48.002Z</time></trkpt><trkpt lat="41.265414359309304" lon="14.051858133814754"><ele>251.0</ele><time>2026-04-11T12:56:49.002Z</time></trkpt><trkpt lat="41.26533243841384" lon="14.051954139251494"><ele>251.0</ele><time>2026-04-11T12:56:50.002Z</time></trkpt><trkpt lat="41.265227343976115" lon="14.05208797676798"><ele>251.0</ele><time>2026-04-11T12:56:51.002Z</time></trkpt><trkpt lat="41.26512967954042" lon="14.052239319646057"><ele>251.0</ele><time>2026-04-11T12:56:52.002Z</time></trkpt><trkpt lat="41.265051938705376" lon="14.052322493571316"><ele>251.0</ele><time>2026-04-11T12:56:53.002Z</time></trkpt><trkpt lat="41.265014063600525" lon="14.052415816848873"><ele>251.00000000000003</ele><time>2026-04-11T12:56:54.002Z</time></trkpt><trkpt lat="41.26505192645704" lon="14.052507880303525"><ele>251.00000000000003</ele><time>2026-04-11T12:56:55.002Z</time></trkpt><trkpt lat="41.2651596150949" lon="14.052521617628841"><ele>251.0</ele><time>2026-04-11T12:56:58.002Z</time></trkpt><trkpt lat="41.26524677036383" lon="14.052467453924201"><ele>251.0</ele><time>2026-04-11T12:56:59Z</time></trkpt><trkpt lat="41.26535981514557" lon="14.05232585983028"><ele>251.0</ele><time>2026-04-11T12:57:00Z</time></trkpt><trkpt lat="41.26550538625391" lon="14.052182628223607"><ele>251.0</ele><time>2026-04-11T12:57:01Z</time></trkpt><trkpt lat="41.26564454666607" lon="14.052027132990832"><ele>251.0</ele><time>2026-04-11T12:57:02Z</time></trkpt><trkpt lat="41.265780249916176" lon="14.051868428455569"><ele>256.33333333333337</ele><time>2026-04-11T12:57:03Z</time></trkpt><trkpt lat="41.26590788777593" lon="14.051723270011406"><ele>261.6666666666667</ele><time>2026-04-11T12:57:04Z</time></trkpt><trkpt lat="41.2660312182803" lon="14.051577587073321"><ele>267.0</ele><time>2026-04-11T12:57:05Z</time></trkpt><trkpt lat="41.266140563460596" lon="14.05142019090765"><ele>267.0</ele><time>2026-04-11T12:57:06Z</time></trkpt><trkpt lat="41.26623017247401" lon="14.051243445090268"><ele>267.0</ele><time>2026-04-11T12:57:07Z</time></trkpt><trkpt lat="41.2663095826158" lon="14.051016803095813"><ele>267.0</ele><time>2026-04-11T12:57:08Z</time></trkpt><trkpt lat="41.266383799561346" lon="14.050787878898518"><ele>268.3333333333333</ele><time>2026-04-11T12:57:09Z</time></trkpt><trkpt lat="41.26644273162432" lon="14.050565882573975"><ele>269.66666666666663</ele><time>2026-04-11T12:57:10Z</time></trkpt><trkpt lat="41.2665030024936" lon="14.050339508981699"><ele>271.0</ele><time>2026-04-11T12:57:11Z</time></trkpt><trkpt lat="41.266562598940844" lon="14.050106924500193"><ele>272.3333333333333</ele><time>2026-04-11T12:57:12Z</time></trkpt><trkpt lat="41.26661579473254" lon="14.049882861089815"><ele>273.6666666666667</ele><time>2026-04-11T12:57:13Z</time></trkpt><trkpt lat="41.266677829016736" lon="14.049669382247973"><ele>275.0</ele><time>2026-04-11T12:57:14Z</time></trkpt><trkpt lat="41.2667477121814" lon="14.049462857208386"><ele>275.0</ele><time>2026-04-11T12:57:15Z</time></trkpt><trkpt lat="41.26684306954878" lon="14.04926914221298"><ele>275.0</ele><time>2026-04-11T12:57:16Z</time></trkpt><trkpt lat="41.26692669882314" lon="14.049047755332467"><ele>275.0</ele><time>2026-04-11T12:57:17Z</time></trkpt><trkpt lat="41.267036462683514" lon="14.048851109978123"><ele>274.6666666666667</ele><time>2026-04-11T12:57:18Z</time></trkpt><trkpt lat="41.26714933857213" lon="14.048655469003842"><ele>274.3333333333333</ele><time>2026-04-11T12:57:19Z</time></trkpt><trkpt lat="41.267262099657245" lon="14.048459316948447"><ele>274.0</ele><time>2026-04-11T12:57:20Z</time></trkpt><trkpt lat="41.26737560329084" lon="14.048257007512277"><ele>279.0</ele><time>2026-04-11T12:57:21Z</time></trkpt><trkpt lat="41.26748424063172" lon="14.048065211362278"><ele>284.0</ele><time>2026-04-11T12:57:22Z</time></trkpt><trkpt lat="41.267580857873924" lon="14.047895448768065"><ele>289.0</ele><time>2026-04-11T12:57:23Z</time></trkpt><trkpt lat="41.267664186150206" lon="14.047711731037818"><ele>289.0</ele><time>2026-04-11T12:57:24Z</time></trkpt><trkpt lat="41.267730473598505" lon="14.047512167158825"><ele>289.0</ele><time>2026-04-11T12:57:25Z</time></trkpt><trkpt lat="41.267773596429244" lon="14.047274854142373"><ele>289.0</ele><time>2026-04-11T12:57:26Z</time></trkpt><trkpt lat="41.26778916988447" lon="14.047014292617167"><ele>288.66666666666663</ele><time>2026-04-11T12:57:27Z</time></trkpt><trkpt lat="41.267796674524824" lon="14.046742804181262"><ele>288.3333333333333</ele><time>2026-04-11T12:57:28Z</time></trkpt><trkpt lat="41.267803437366034" lon="14.04648314765852"><ele>288.0</ele><time>2026-04-11T12:57:29Z</time></trkpt><trkpt lat="41.267824723149566" lon="14.046229494387099"><ele>288.6666666666667</ele><time>2026-04-11T12:57:30Z</time></trkpt><trkpt lat="41.26784478075664" lon="14.045984273360707"><ele>289.33333333333337</ele><time>2026-04-11T12:57:31Z</time></trkpt><trkpt lat="41.26787280444767" lon="14.045748835409935"><ele>290.0</ele><time>2026-04-11T12:57:32Z</time></trkpt><trkpt lat="41.267886865856156" lon="14.04552175726161"><ele>291.6666666666667</ele><time>2026-04-11T12:57:33Z</time></trkpt><trkpt lat="41.2679060706108" lon="14.045286771437556"><ele>293.3333333333333</ele><time>2026-04-11T12:57:34Z</time></trkpt><trkpt lat="41.26796063404245" lon="14.045049062484248"><ele>295.0</ele><time>2026-04-11T12:57:35Z</time></trkpt><trkpt lat="41.2680173993328" lon="14.044802158837856"><ele>294.0</ele><time>2026-04-11T12:57:36Z</time></trkpt><trkpt lat="41.26807700152513" lon="14.044559470451901"><ele>293.0</ele><time>2026-04-11T12:57:37Z</time></trkpt><trkpt lat="41.26813919590983" lon="14.044322574268365"><ele>292.0</ele><time>2026-04-11T12:57:38Z</time></trkpt><trkpt lat="41.268202189867225" lon="14.044082364134743"><ele>295.0</ele><time>2026-04-11T12:57:39Z</time></trkpt><trkpt lat="41.26826731373341" lon="14.043848760485211"><ele>298.0</ele><time>2026-04-11T12:57:40.001Z</time></trkpt><trkpt lat="41.26833267060872" lon="14.043620780795955"><ele>301.0</ele><time>2026-04-11T12:57:41.001Z</time></trkpt><trkpt lat="41.26839620995614" lon="14.043398358554233"><ele>304.0</ele><time>2026-04-11T12:57:42.001Z</time></trkpt><trkpt lat="41.26846650276663" lon="14.043178873992524"><ele>307.0</ele><time>2026-04-11T12:57:43.001Z</time></trkpt><trkpt lat="41.26853304523716" lon="14.042942399867668"><ele>310.0</ele><time>2026-04-11T12:57:44.001Z</time></trkpt><trkpt lat="41.26860515899419" lon="14.04270833636339"><ele>310.0</ele><time>2026-04-11T12:57:45.001Z</time></trkpt><trkpt lat="41.26869159851417" lon="14.042477439188142"><ele>310.0</ele><time>2026-04-11T12:57:46.001Z</time></trkpt><trkpt lat="41.26877634046889" lon="14.04224370863055"><ele>310.0</ele><time>2026-04-11T12:57:47.001Z</time></trkpt><trkpt lat="41.2688636575074" lon="14.042008876980306"><ele>306.3333333333333</ele><time>2026-04-11T12:57:48.001Z</time></trkpt><trkpt lat="41.26912272987497" lon="14.041931411409877"><ele>302.6666666666667</ele><time>2026-04-11T12:57:49.001Z</time></trkpt><trkpt lat="41.26920725502211" lon="14.041750429250374"><ele>299.0</ele><time>2026-04-11T12:57:50.001Z</time></trkpt><trkpt lat="41.26927996589912" lon="14.041638085983584"><ele>300.75</ele><time>2026-04-11T12:57:51.001Z</time></trkpt><trkpt lat="41.26936281167853" lon="14.041519252233172"><ele>302.5</ele><time>2026-04-11T12:57:52.001Z</time></trkpt><trkpt lat="41.26941280981481" lon="14.041455925630142"><ele>304.25</ele><time>2026-04-11T12:57:53.001Z</time></trkpt><trkpt lat="41.26948277262054" lon="14.04134925901258"><ele>306.0</ele><time>2026-04-11T12:57:54.001Z</time></trkpt><trkpt lat="41.26912012209223" lon="14.040532976162229"><ele>307.3333333333333</ele><time>2026-04-11T12:57:55.001Z</time></trkpt><trkpt lat="41.26911157406038" lon="14.040273814995702"><ele>308.66666666666663</ele><time>2026-04-11T12:57:56.001Z</time></trkpt><trkpt lat="41.26910364069797" lon="14.040005400281688"><ele>310.0</ele><time>2026-04-11T12:57:57.001Z</time></trkpt><trkpt lat="41.26909461281941" lon="14.039736952385306"><ele>311.0</ele><time>2026-04-11T12:57:58.001Z</time></trkpt><trkpt lat="41.269090604266275" lon="14.039475799328198"><ele>312.0</ele><time>2026-04-11T12:57:59.001Z</time></trkpt><trkpt lat="41.26908865408753" lon="14.039235002578826"><ele>313.0</ele><time>2026-04-11T12:58:00.001Z</time></trkpt><trkpt lat="41.26908091489737" lon="14.03900885275646"><ele>313.3333333333333</ele><time>2026-04-11T12:58:01.001Z</time></trkpt><trkpt lat="41.26908146200691" lon="14.038782639423086"><ele>313.6666666666667</ele><time>2026-04-11T12:58:02.001Z</time></trkpt><trkpt lat="41.269077872370445" lon="14.038574834902716"><ele>314.0</ele><time>2026-04-11T12:58:03.001Z</time></trkpt><trkpt lat="41.269077321813036" lon="14.038388946970729"><ele>315.25</ele><time>2026-04-11T12:58:04.001Z</time></trkpt><trkpt lat="41.26911441401089" lon="14.038199344210504"><ele>316.5</ele><time>2026-04-11T12:58:05.001Z</time></trkpt><trkpt lat="41.269150441790046" lon="14.038031698386211"><ele>317.75</ele><time>2026-04-11T12:58:06.001Z</time></trkpt><trkpt lat="41.26920889244223" lon="14.037877354758045"><ele>319.0</ele><time>2026-04-11T12:58:07.001Z</time></trkpt><trkpt lat="41.26929623002458" lon="14.037744844286996"><ele>319.0</ele><time>2026-04-11T12:58:08.001Z</time></trkpt><trkpt lat="41.269412123021674" lon="14.037621188888753"><ele>319.0</ele><time>2026-04-11T12:58:09.001Z</time></trkpt><trkpt lat="41.26955225713178" lon="14.037508045490327"><ele>319.0</ele><time>2026-04-11T12:58:10.001Z</time></trkpt><trkpt lat="41.26970188033616" lon="14.037416659025306"><ele>321.25</ele><time>2026-04-11T12:58:11.001Z</time></trkpt><trkpt lat="41.26983865185761" lon="14.037307387202839"><ele>323.5</ele><time>2026-04-11T12:58:12.001Z</time></trkpt><trkpt lat="41.2699633186383" lon="14.037202911645299"><ele>325.75</ele><time>2026-04-11T12:58:13.001Z</time></trkpt><trkpt lat="41.27006484609621" lon="14.037103727207526"><ele>328.0</ele><time>2026-04-11T12:58:14.001Z</time></trkpt><trkpt lat="41.27014422302735" lon="14.03698617012841"><ele>328.0</ele><time>2026-04-11T12:58:15.001Z</time></trkpt><trkpt lat="41.27019636596535" lon="14.036824673625643"><ele>328.0</ele><time>2026-04-11T12:58:16.001Z</time></trkpt><trkpt lat="41.270222913009775" lon="14.036634075719064"><ele>328.0</ele><time>2026-04-11T12:58:17.001Z</time></trkpt><trkpt lat="41.27022877939233" lon="14.0364202696939"><ele>328.0</ele><time>2026-04-11T12:58:18.001Z</time></trkpt><trkpt lat="41.27022991839488" lon="14.036172889525167"><ele>330.66666666666663</ele><time>2026-04-11T12:58:19.001Z</time></trkpt><trkpt lat="41.270269845937776" lon="14.03592804179377"><ele>333.3333333333333</ele><time>2026-04-11T12:58:20.001Z</time></trkpt><trkpt lat="41.27031799800438" lon="14.035707154147559"><ele>336.0</ele><time>2026-04-11T12:58:21.001Z</time></trkpt><trkpt lat="41.27035701014461" lon="14.035500976599414"><ele>338.3333333333333</ele><time>2026-04-11T12:58:22.001Z</time></trkpt><trkpt lat="41.27037671513957" lon="14.035269185262004"><ele>340.66666666666663</ele><time>2026-04-11T12:58:23.001Z</time></trkpt><trkpt lat="41.27037051994405" lon="14.035010910894373"><ele>343.0</ele><time>2026-04-11T12:58:24.001Z</time></trkpt><trkpt lat="41.27035192638055" lon="14.034754284570276"><ele>344.0</ele><time>2026-04-11T12:58:25.001Z</time></trkpt><trkpt lat="41.27033343847616" lon="14.034481484988614"><ele>345.0</ele><time>2026-04-11T12:58:26.001Z</time></trkpt><trkpt lat="41.27031226517541" lon="14.03421730750935"><ele>346.0</ele><time>2026-04-11T12:58:27.001Z</time></trkpt><trkpt lat="41.27029365946286" lon="14.03395314115697"><ele>346.3333333333333</ele><time>2026-04-11T12:58:28.001Z</time></trkpt><trkpt lat="41.27027817387915" lon="14.033702798092328"><ele>346.6666666666667</ele><time>2026-04-11T12:58:29.001Z</time></trkpt><trkpt lat="41.27026553468893" lon="14.033476619797257"><ele>347.0</ele><time>2026-04-11T12:58:30.001Z</time></trkpt><trkpt lat="41.270251943591525" lon="14.03326349125815"><ele>347.8</ele><time>2026-04-11T12:58:31.001Z</time></trkpt><trkpt lat="41.27024481577999" lon="14.033071429554113"><ele>348.6</ele><time>2026-04-11T12:58:32.001Z</time></trkpt><trkpt lat="41.27023711808499" lon="14.032911001403766"><ele>349.40000000000003</ele><time>2026-04-11T12:58:33.001Z</time></trkpt><trkpt lat="41.270231935044" lon="14.032767362645169"><ele>350.20000000000005</ele><time>2026-04-11T12:58:34.001Z</time></trkpt><trkpt lat="41.27023000256945" lon="14.03268025012982"><ele>351.0</ele><time>2026-04-11T12:58:35.001Z</time></trkpt><trkpt lat="41.270295186396375" lon="14.032531348886236"><ele>351.0</ele><time>2026-04-11T12:58:36.001Z</time></trkpt><trkpt lat="41.27038951615344" lon="14.032407833053002"><ele>351.0</ele><time>2026-04-11T12:58:37.001Z</time></trkpt><trkpt lat="41.270494033644134" lon="14.032280580915383"><ele>351.0</ele><time>2026-04-11T12:58:38.001Z</time></trkpt><trkpt lat="41.27059386398554" lon="14.032114482680502"><ele>351.0</ele><time>2026-04-11T12:58:39.002Z</time></trkpt><trkpt lat="41.270688293849005" lon="14.031922479757812"><ele>351.0</ele><time>2026-04-11T12:58:40.002Z</time></trkpt><trkpt lat="41.27076899042972" lon="14.031731851735557"><ele>351.0</ele><time>2026-04-11T12:58:41.002Z</time></trkpt><trkpt lat="41.27085267462426" lon="14.03151963512044"><ele>351.0</ele><time>2026-04-11T12:58:42.002Z</time></trkpt><trkpt lat="41.270920589379564" lon="14.03130242721174"><ele>353.6666666666667</ele><time>2026-04-11T12:58:43.002Z</time></trkpt><trkpt lat="41.271003727136346" lon="14.031088461516548"><ele>356.33333333333337</ele><time>2026-04-11T12:58:44.002Z</time></trkpt><trkpt lat="41.271088262574885" lon="14.030887063414882"><ele>359.0</ele><time>2026-04-11T12:58:45.002Z</time></trkpt><trkpt lat="41.27116513251061" lon="14.030703181587239"><ele>360.25</ele><time>2026-04-11T12:58:46.002Z</time></trkpt><trkpt lat="41.27123379562527" lon="14.03054425779247"><ele>361.5</ele><time>2026-04-11T12:58:47.002Z</time></trkpt><trkpt lat="41.27128490590421" lon="14.030399977921197"><ele>362.75</ele><time>2026-04-11T12:58:48.002Z</time></trkpt><trkpt lat="41.271319051263525" lon="14.030262675016996"><ele>364.0</ele><time>2026-04-11T12:58:49.002Z</time></trkpt><trkpt lat="41.27133447511329" lon="14.03011292624048"><ele>364.0</ele><time>2026-04-11T12:58:50.002Z</time></trkpt><trkpt lat="41.27131324939955" lon="14.029968669633984"><ele>364.0</ele><time>2026-04-11T12:58:51.002Z</time></trkpt><trkpt lat="41.27125702749777" lon="14.029829648406508"><ele>364.0</ele><time>2026-04-11T12:58:52.002Z</time></trkpt><trkpt lat="41.271176057672285" lon="14.029679004384699"><ele>364.0</ele><time>2026-04-11T12:58:53.002Z</time></trkpt><trkpt lat="41.27109995153322" lon="14.029509760141828"><ele>364.0</ele><time>2026-04-11T12:58:54.002Z</time></trkpt><trkpt lat="41.27101395416869" lon="14.029329561531325"><ele>364.0</ele><time>2026-04-11T12:58:55.002Z</time></trkpt><trkpt lat="41.270919691203744" lon="14.029142670702393"><ele>364.0</ele><time>2026-04-11T12:58:56.002Z</time></trkpt><trkpt lat="41.27083028131005" lon="14.028960655946927"><ele>364.5</ele><time>2026-04-11T12:58:57.002Z</time></trkpt><trkpt lat="41.270746398923464" lon="14.028795066826346"><ele>365.0</ele><time>2026-04-11T12:58:58.002Z</time></trkpt><trkpt lat="41.27066537858999" lon="14.028650764974058"><ele>365.5</ele><time>2026-04-11T12:58:59.002Z</time></trkpt><trkpt lat="41.27060343754498" lon="14.028527581327046"><ele>366.0</ele><time>2026-04-11T12:59:00.002Z</time></trkpt><trkpt lat="41.27054792332795" lon="14.028400248594446"><ele>367.8</ele><time>2026-04-11T12:59:01.002Z</time></trkpt><trkpt lat="41.27051156715945" lon="14.028261958052491"><ele>369.6</ele><time>2026-04-11T12:59:02.002Z</time></trkpt><trkpt lat="41.27050924005111" lon="14.028115745247648"><ele>371.4</ele><time>2026-04-11T12:59:03.002Z</time></trkpt><trkpt lat="41.27054095176587" lon="14.027976889675044"><ele>373.2</ele><time>2026-04-11T12:59:04.002Z</time></trkpt><trkpt lat="41.27060077069924" lon="14.02785506717182"><ele>375.0</ele><time>2026-04-11T12:59:05Z</time></trkpt><trkpt lat="41.27069214067158" lon="14.027766530671112"><ele>375.0</ele><time>2026-04-11T12:59:06Z</time></trkpt><trkpt lat="41.2708110561013" lon="14.027693645329755"><ele>375.0</ele><time>2026-04-11T12:59:07Z</time></trkpt><trkpt lat="41.27094616508933" lon="14.027637433687358"><ele>375.0</ele><time>2026-04-11T12:59:08Z</time></trkpt><trkpt lat="41.27107318182589" lon="14.027584431848613"><ele>375.0</ele><time>2026-04-11T12:59:09Z</time></trkpt><trkpt lat="41.2711732486867" lon="14.027520776455251"><ele>376.2</ele><time>2026-04-11T12:59:10Z</time></trkpt><trkpt lat="41.27124016661144" lon="14.027443276620058"><ele>377.4</ele><time>2026-04-11T12:59:11Z</time></trkpt><trkpt lat="41.271280050769334" lon="14.027338304416906"><ele>378.6</ele><time>2026-04-11T12:59:12Z</time></trkpt><trkpt lat="41.271281740150826" lon="14.027217672502557"><ele>379.8</ele><time>2026-04-11T12:59:13Z</time></trkpt><trkpt lat="41.27124475620065" lon="14.027089799300406"><ele>381.0</ele><time>2026-04-11T12:59:14Z</time></trkpt><trkpt lat="41.27117535716777" lon="14.026969751122722"><ele>381.0</ele><time>2026-04-11T12:59:15Z</time></trkpt><trkpt lat="41.271088313285055" lon="14.026878303757536"><ele>381.0</ele><time>2026-04-11T12:59:16Z</time></trkpt><trkpt lat="41.27095991147812" lon="14.026822615407808"><ele>381.0</ele><time>2026-04-11T12:59:17Z</time></trkpt><trkpt lat="41.27084913355119" lon="14.026757890759958"><ele>381.0</ele><time>2026-04-11T12:59:18Z</time></trkpt><trkpt lat="41.27073114136583" lon="14.026680853358792"><ele>384.25</ele><time>2026-04-11T12:59:19Z</time></trkpt><trkpt lat="41.27060296318013" lon="14.026605819510385"><ele>387.5</ele><time>2026-04-11T12:59:20Z</time></trkpt><trkpt lat="41.27048806484091" lon="14.026534317149538"><ele>390.75</ele><time>2026-04-11T12:59:21Z</time></trkpt><trkpt lat="41.27039762046412" lon="14.02644354335979"><ele>394.0</ele><time>2026-04-11T12:59:22Z</time></trkpt><trkpt lat="41.27033980514932" lon="14.026332446438705"><ele>394.0</ele><time>2026-04-11T12:59:23Z</time></trkpt><trkpt lat="41.27030305976553" lon="14.026207862639529"><ele>394.0</ele><time>2026-04-11T12:59:24Z</time></trkpt><trkpt lat="41.270316112740254" lon="14.026068298359542"><ele>394.0</ele><time>2026-04-11T12:59:25Z</time></trkpt><trkpt lat="41.27035258395819" lon="14.02593689933808"><ele>394.0</ele><time>2026-04-11T12:59:26Z</time></trkpt><trkpt lat="41.270427862964986" lon="14.025817683753939"><ele>394.0</ele><time>2026-04-11T12:59:27Z</time></trkpt><trkpt lat="41.270530908347546" lon="14.02571327595083"><ele>391.5</ele><time>2026-04-11T12:59:28Z</time></trkpt><trkpt lat="41.27064254848019" lon="14.025618448942627"><ele>389.0</ele><time>2026-04-11T12:59:29Z</time></trkpt><trkpt lat="41.27072753621067" lon="14.025514255866318"><ele>386.5</ele><time>2026-04-11T12:59:30Z</time></trkpt><trkpt lat="41.27078710795493" lon="14.025379370687869"><ele>384.0</ele><time>2026-04-11T12:59:31Z</time></trkpt><trkpt lat="41.27081617032637" lon="14.025223126826493"><ele>384.0</ele><time>2026-04-11T12:59:32Z</time></trkpt><trkpt lat="41.27082504664921" lon="14.025067635953363"><ele>384.0</ele><time>2026-04-11T12:59:33Z</time></trkpt><trkpt lat="41.27080098411591" lon="14.024910269954775"><ele>384.0</ele><time>2026-04-11T12:59:34Z</time></trkpt><trkpt lat="41.27075806228955" lon="14.024777984926573"><ele>384.0</ele><time>2026-04-11T12:59:35Z</time></trkpt><trkpt lat="41.27070048634321" lon="14.024630244676153"><ele>383.79999999999995</ele><time>2026-04-11T12:59:36.001Z</time></trkpt><trkpt lat="41.27066000970999" lon="14.024531859763215"><ele>383.59999999999997</ele><time>2026-04-11T12:59:37.001Z</time></trkpt><trkpt lat="41.27062026615404" lon="14.02443524261301"><ele>383.4</ele><time>2026-04-11T12:59:38.001Z</time></trkpt><trkpt lat="41.27064047292912" lon="14.024252121532907"><ele>383.2</ele><time>2026-04-11T12:59:40.001Z</time></trkpt><trkpt lat="41.2706770997196" lon="14.024141724866453"><ele>383.0</ele><time>2026-04-11T12:59:41.001Z</time></trkpt><trkpt lat="41.270738928280274" lon="14.02402233662014"><ele>383.6666666666667</ele><time>2026-04-11T12:59:42.001Z</time></trkpt><trkpt lat="41.27080752817118" lon="14.023939659313983"><ele>384.33333333333337</ele><time>2026-04-11T12:59:43.001Z</time></trkpt><trkpt lat="41.270867390591576" lon="14.02384390767085"><ele>385.0</ele><time>2026-04-11T12:59:44.001Z</time></trkpt><trkpt lat="41.27090778699485" lon="14.023765764439695"><ele>385.6666666666667</ele><time>2026-04-11T12:59:45.001Z</time></trkpt><trkpt lat="41.27094834950789" lon="14.023689386666897"><ele>386.3333333333333</ele><time>2026-04-11T12:59:46.001Z</time></trkpt><trkpt lat="41.270998622191094" lon="14.023606883784234"><ele>387.0</ele><time>2026-04-11T12:59:47.001Z</time></trkpt><trkpt lat="41.27104824844457" lon="14.02354206753411"><ele>387.0</ele><time>2026-04-11T12:59:48.001Z</time></trkpt><trkpt lat="41.271094223750495" lon="14.023469085652104"><ele>387.0</ele><time>2026-04-11T12:59:49.001Z</time></trkpt><trkpt lat="41.27113835270972" lon="14.023390200285583"><ele>387.0</ele><time>2026-04-11T12:59:50.001Z</time></trkpt><trkpt lat="41.2711902544317" lon="14.02331696543616"><ele>387.0</ele><time>2026-04-11T12:59:51.001Z</time></trkpt><trkpt lat="41.27123952018503" lon="14.023241871606634"><ele>387.0</ele><time>2026-04-11T12:59:52.001Z</time></trkpt><trkpt lat="41.27129323544654" lon="14.023159982126728"><ele>387.0</ele><time>2026-04-11T12:59:53.001Z</time></trkpt><trkpt lat="41.271348400203436" lon="14.02308083063492"><ele>386.6</ele><time>2026-04-11T12:59:54.001Z</time></trkpt><trkpt lat="41.27140810891013" lon="14.022983832285263"><ele>386.20000000000005</ele><time>2026-04-11T12:59:55.001Z</time></trkpt><trkpt lat="41.27145683279735" lon="14.022879555694292"><ele>385.8</ele><time>2026-04-11T12:59:56.001Z</time></trkpt><trkpt lat="41.27153051976626" lon="14.022774838677778"><ele>385.4</ele><time>2026-04-11T12:59:57.001Z</time></trkpt><trkpt lat="41.27158771378278" lon="14.022661978938675"><ele>385.0</ele><time>2026-04-11T12:59:58.001Z</time></trkpt><trkpt lat="41.27164011021838" lon="14.02252846783898"><ele>383.5</ele><time>2026-04-11T12:59:59.001Z</time></trkpt><trkpt lat="41.27168500944733" lon="14.02236669136075"><ele>382.0</ele><time>2026-04-11T13:00:00.001Z</time></trkpt><trkpt lat="41.27170484924784" lon="14.022193988356785"><ele>380.5</ele><time>2026-04-11T13:00:01.001Z</time></trkpt><trkpt lat="41.27174346202587" lon="14.02202011905526"><ele>379.0</ele><time>2026-04-11T13:00:02.001Z</time></trkpt><trkpt lat="41.27178543011796" lon="14.021838124225937"><ele>379.3333333333333</ele><time>2026-04-11T13:00:03.001Z</time></trkpt><trkpt lat="41.27182227698453" lon="14.021626145786987"><ele>379.6666666666667</ele><time>2026-04-11T13:00:04.001Z</time></trkpt><trkpt lat="41.27186324516357" lon="14.021430190151953"><ele>380.0</ele><time>2026-04-11T13:00:05.001Z</time></trkpt><trkpt lat="41.27190525600395" lon="14.021245290631448"><ele>380.0</ele><time>2026-04-11T13:00:06.001Z</time></trkpt><trkpt lat="41.27193881611313" lon="14.021066574331963"><ele>380.0</ele><time>2026-04-11T13:00:07.001Z</time></trkpt><trkpt lat="41.27197784880216" lon="14.020879470925257"><ele>380.0</ele><time>2026-04-11T13:00:08.001Z</time></trkpt><trkpt lat="41.272021732189" lon="14.020686266842041"><ele>380.0</ele><time>2026-04-11T13:00:09.001Z</time></trkpt><trkpt lat="41.27206211041769" lon="14.020492296019942"><ele>380.6666666666667</ele><time>2026-04-11T13:00:10.001Z</time></trkpt><trkpt lat="41.2721100880588" lon="14.02029185973739"><ele>381.3333333333333</ele><time>2026-04-11T13:00:11.001Z</time></trkpt><trkpt lat="41.27217144242902" lon="14.020088345381792"><ele>382.0</ele><time>2026-04-11T13:00:12.001Z</time></trkpt><trkpt lat="41.27224678235144" lon="14.019887986551613"><ele>381.3333333333333</ele><time>2026-04-11T13:00:13.001Z</time></trkpt><trkpt lat="41.27232983912749" lon="14.019672993238453"><ele>380.6666666666667</ele><time>2026-04-11T13:00:14.001Z</time></trkpt><trkpt lat="41.27242173912508" lon="14.019443264868615"><ele>380.0</ele><time>2026-04-11T13:00:15.001Z</time></trkpt><trkpt lat="41.272518839518014" lon="14.019230458697487"><ele>380.6666666666667</ele><time>2026-04-11T13:00:16.001Z</time></trkpt><trkpt lat="41.272610937217415" lon="14.019021026233366"><ele>381.3333333333333</ele><time>2026-04-11T13:00:17.001Z</time></trkpt><trkpt lat="41.272698537242974" lon="14.01881404618467"><ele>382.0</ele><time>2026-04-11T13:00:18.001Z</time></trkpt><trkpt lat="41.27278748129769" lon="14.0186181734192"><ele>382.0</ele><time>2026-04-11T13:00:19.001Z</time></trkpt><trkpt lat="41.272879430821376" lon="14.018418037730397"><ele>382.0</ele><time>2026-04-11T13:00:20.001Z</time></trkpt><trkpt lat="41.27296981308904" lon="14.018225784155705"><ele>382.0</ele><time>2026-04-11T13:00:21.001Z</time></trkpt><trkpt lat="41.27305844607932" lon="14.018026495229801"><ele>383.66666666666663</ele><time>2026-04-11T13:00:22.001Z</time></trkpt><trkpt lat="41.27314193515045" lon="14.017811704480286"><ele>385.3333333333333</ele><time>2026-04-11T13:00:23.001Z</time></trkpt><trkpt lat="41.27322478568455" lon="14.017583931091009"><ele>387.0</ele><time>2026-04-11T13:00:24.001Z</time></trkpt><trkpt lat="41.27331423697435" lon="14.017330870532266"><ele>389.66666666666663</ele><time>2026-04-11T13:00:25.001Z</time></trkpt><trkpt lat="41.27340490770545" lon="14.017070432975553"><ele>392.3333333333333</ele><time>2026-04-11T13:00:26.001Z</time></trkpt><trkpt lat="41.273492409281815" lon="14.016802814293223"><ele>395.0</ele><time>2026-04-11T13:00:27.001Z</time></trkpt><trkpt lat="41.27357806371529" lon="14.016542774147963"><ele>397.66666666666663</ele><time>2026-04-11T13:00:28.001Z</time></trkpt><trkpt lat="41.273663607915275" lon="14.016291946698566"><ele>400.33333333333337</ele><time>2026-04-11T13:00:29.001Z</time></trkpt><trkpt lat="41.27374826887827" lon="14.016051647509888"><ele>403.0</ele><time>2026-04-11T13:00:30.001Z</time></trkpt><trkpt lat="41.2738251832774" lon="14.015823543603624"><ele>403.5</ele><time>2026-04-11T13:00:31.001Z</time></trkpt><trkpt lat="41.27389223125546" lon="14.015624785575024"><ele>404.0</ele><time>2026-04-11T13:00:32.001Z</time></trkpt><trkpt lat="41.273942794722295" lon="14.01545461041676"><ele>404.5</ele><time>2026-04-11T13:00:33.002Z</time></trkpt><trkpt lat="41.27397270531463" lon="14.015270180286056"><ele>405.0</ele><time>2026-04-11T13:00:34.002Z</time></trkpt><trkpt lat="41.2740272372831" lon="14.015076694363694"><ele>401.0</ele><time>2026-04-11T13:00:35.002Z</time></trkpt><trkpt lat="41.27411637749949" lon="14.014891921145676"><ele>397.0</ele><time>2026-04-11T13:00:36.002Z</time></trkpt><trkpt lat="41.27421821950444" lon="14.014703308515276"><ele>393.0</ele><time>2026-04-11T13:00:37.002Z</time></trkpt><trkpt lat="41.274332520020096" lon="14.01451957087266"><ele>393.0</ele><time>2026-04-11T13:00:38.002Z</time></trkpt><trkpt lat="41.27444884695668" lon="14.014338971262198"><ele>393.0</ele><time>2026-04-11T13:00:39.002Z</time></trkpt><trkpt lat="41.27456044886389" lon="14.014154991672097"><ele>393.0</ele><time>2026-04-11T13:00:40.002Z</time></trkpt><trkpt lat="41.27467344764988" lon="14.01397121260992"><ele>392.66666666666663</ele><time>2026-04-11T13:00:41.002Z</time></trkpt><trkpt lat="41.274787494191344" lon="14.013784802935273"><ele>392.3333333333333</ele><time>2026-04-11T13:00:42.002Z</time></trkpt><trkpt lat="41.27489784114513" lon="14.013601526079968"><ele>392.0</ele><time>2026-04-11T13:00:43.002Z</time></trkpt><trkpt lat="41.27499343522578" lon="14.01341150945427"><ele>394.0</ele><time>2026-04-11T13:00:44.002Z</time></trkpt><trkpt lat="41.2750640173838" lon="14.013220714173045"><ele>396.0</ele><time>2026-04-11T13:00:45.002Z</time></trkpt><trkpt lat="41.27511587699773" lon="14.013012774630907"><ele>398.0</ele><time>2026-04-11T13:00:46.002Z</time></trkpt><trkpt lat="41.27514449512474" lon="14.012763944640305"><ele>398.0</ele><time>2026-04-11T13:00:47.002Z</time></trkpt><trkpt lat="41.27516148062048" lon="14.012494376533953"><ele>398.0</ele><time>2026-04-11T13:00:48.002Z</time></trkpt><trkpt lat="41.27518093135805" lon="14.012202599590882"><ele>398.0</ele><time>2026-04-11T13:00:49.002Z</time></trkpt><trkpt lat="41.27520899880981" lon="14.011903843609828"><ele>400.3333333333333</ele><time>2026-04-11T13:00:50.002Z</time></trkpt><trkpt lat="41.27523320842285" lon="14.011623703014783"><ele>402.66666666666663</ele><time>2026-04-11T13:00:51.002Z</time></trkpt><trkpt lat="41.27525105495992" lon="14.011358087940406"><ele>405.0</ele><time>2026-04-11T13:00:52.002Z</time></trkpt><trkpt lat="41.27527050880784" lon="14.011093446989085"><ele>405.0</ele><time>2026-04-11T13:00:53.002Z</time></trkpt><trkpt lat="41.27528716470823" lon="14.010829017285356"><ele>405.0</ele><time>2026-04-11T13:00:54.002Z</time></trkpt><trkpt lat="41.275304628418986" lon="14.010565628963917"><ele>405.0</ele><time>2026-04-11T13:00:55.002Z</time></trkpt><trkpt lat="41.275320683178954" lon="14.010329212293268"><ele>408.0</ele><time>2026-04-11T13:00:56.002Z</time></trkpt><trkpt lat="41.275331734806805" lon="14.010109057671148"><ele>411.0</ele><time>2026-04-11T13:00:57.002Z</time></trkpt><trkpt lat="41.27532647630286" lon="14.009886044164986"><ele>414.0</ele><time>2026-04-11T13:00:58.002Z</time></trkpt><trkpt lat="41.2752820113741" lon="14.009657165264409"><ele>414.0</ele><time>2026-04-11T13:00:59.002Z</time></trkpt><trkpt lat="41.27522064083842" lon="14.009420653443762"><ele>414.0</ele><time>2026-04-11T13:01:00.002Z</time></trkpt><trkpt lat="41.27514797827827" lon="14.00917989204515"><ele>414.0</ele><time>2026-04-11T13:01:01.002Z</time></trkpt><trkpt lat="41.27507489284119" lon="14.008934150783464"><ele>412.66666666666663</ele><time>2026-04-11T13:01:02.002Z</time></trkpt><trkpt lat="41.275001189032785" lon="14.008690173513488"><ele>411.3333333333333</ele><time>2026-04-11T13:01:03.002Z</time></trkpt><trkpt lat="41.274936077289176" lon="14.00843842800722"><ele>410.0</ele><time>2026-04-11T13:01:04.002Z</time></trkpt><trkpt lat="41.274863649548166" lon="14.00820797296235"><ele>409.0</ele><time>2026-04-11T13:01:05.002Z</time></trkpt><trkpt lat="41.2747952319226" lon="14.007977548216678"><ele>408.0</ele><time>2026-04-11T13:01:06.002Z</time></trkpt><trkpt lat="41.2747223823316" lon="14.007751247429077"><ele>407.0</ele><time>2026-04-11T13:01:07.002Z</time></trkpt><trkpt lat="41.27463808581664" lon="14.007541697990684"><ele>413.0</ele><time>2026-04-11T13:01:08.002Z</time></trkpt><trkpt lat="41.27453826284022" lon="14.007340405315702"><ele>419.0</ele><time>2026-04-11T13:01:09.002Z</time></trkpt><trkpt lat="41.2744410350472" lon="14.007152332855352"><ele>425.0</ele><time>2026-04-11T13:01:10.002Z</time></trkpt><trkpt lat="41.27432820236235" lon="14.00695273880678"><ele>425.0</ele><time>2026-04-11T13:01:11.001Z</time></trkpt><trkpt lat="41.27421784461223" lon="14.006737690696733"><ele>425.0</ele><time>2026-04-11T13:01:12.001Z</time></trkpt><trkpt lat="41.27407022821221" lon="14.006561501368724"><ele>425.0</ele><time>2026-04-11T13:01:13.001Z</time></trkpt><trkpt lat="41.27393216407448" lon="14.006386274973885"><ele>426.5</ele><time>2026-04-11T13:01:14.001Z</time></trkpt><trkpt lat="41.27379838318821" lon="14.006244851953209"><ele>428.0</ele><time>2026-04-11T13:01:15.001Z</time></trkpt><trkpt lat="41.273712546267" lon="14.006072288785361"><ele>429.5</ele><time>2026-04-11T13:01:16.001Z</time></trkpt><trkpt lat="41.2736409669999" lon="14.005940179145837"><ele>431.0</ele><time>2026-04-11T13:01:17.001Z</time></trkpt><trkpt lat="41.27356926798205" lon="14.0058223041142"><ele>431.0</ele><time>2026-04-11T13:01:18.001Z</time></trkpt><trkpt lat="41.2734871871548" lon="14.00568332147071"><ele>431.0</ele><time>2026-04-11T13:01:19.001Z</time></trkpt><trkpt lat="41.27342566015861" lon="14.005492487543663"><ele>431.0</ele><time>2026-04-11T13:01:20Z</time></trkpt><trkpt lat="41.27339519050862" lon="14.005263225417346"><ele>431.0</ele><time>2026-04-11T13:01:21Z</time></trkpt><trkpt lat="41.273392950170084" lon="14.005027421160708"><ele>431.0</ele><time>2026-04-11T13:01:22Z</time></trkpt><trkpt lat="41.27336875972859" lon="14.004785012255757"><ele>431.0</ele><time>2026-04-11T13:01:23Z</time></trkpt><trkpt lat="41.27334462811465" lon="14.004560000880574"><ele>430.25</ele><time>2026-04-11T13:01:24Z</time></trkpt><trkpt lat="41.2733267517021" lon="14.00435663705253"><ele>429.5</ele><time>2026-04-11T13:01:25Z</time></trkpt><trkpt lat="41.27331335629374" lon="14.004166915949467"><ele>428.75</ele><time>2026-04-11T13:01:26Z</time></trkpt><trkpt lat="41.273298654459296" lon="14.003988019555468"><ele>428.0</ele><time>2026-04-11T13:01:27Z</time></trkpt><trkpt lat="41.27328159314463" lon="14.003816873746537"><ele>426.75</ele><time>2026-04-11T13:01:28Z</time></trkpt><trkpt lat="41.27324790289317" lon="14.003651659519825"><ele>425.5</ele><time>2026-04-11T13:01:29Z</time></trkpt><trkpt lat="41.27318072501158" lon="14.003489917567856"><ele>424.25</ele><time>2026-04-11T13:01:30Z</time></trkpt><trkpt lat="41.27308747447034" lon="14.003315042896238"><ele>423.0</ele><time>2026-04-11T13:01:31Z</time></trkpt><trkpt lat="41.272958596504886" lon="14.003178261327738"><ele>426.66666666666663</ele><time>2026-04-11T13:01:32.001Z</time></trkpt><trkpt lat="41.27284393664404" lon="14.002998013375688"><ele>430.3333333333333</ele><time>2026-04-11T13:01:33.001Z</time></trkpt><trkpt lat="41.27272254682945" lon="14.002813984723977"><ele>434.0</ele><time>2026-04-11T13:01:34.001Z</time></trkpt><trkpt lat="41.272609348304016" lon="14.00264840865237"><ele>434.0</ele><time>2026-04-11T13:01:35.001Z</time></trkpt><trkpt lat="41.27249066575188" lon="14.002501149612142"><ele>434.0</ele><time>2026-04-11T13:01:36.001Z</time></trkpt><trkpt lat="41.27237009559794" lon="14.002350534781472"><ele>434.0</ele><time>2026-04-11T13:01:37.001Z</time></trkpt><trkpt lat="41.272251227203505" lon="14.002205417006293"><ele>435.3333333333333</ele><time>2026-04-11T13:01:38.001Z</time></trkpt><trkpt lat="41.27210362618567" lon="14.002079177825992"><ele>436.66666666666663</ele><time>2026-04-11T13:01:39.001Z</time></trkpt><trkpt lat="41.27193708339579" lon="14.001961364701623"><ele>438.0</ele><time>2026-04-11T13:01:40.001Z</time></trkpt><trkpt lat="41.271800797349364" lon="14.00181091812484"><ele>438.0</ele><time>2026-04-11T13:01:41.001Z</time></trkpt><trkpt lat="41.27163042243998" lon="14.001699151653337"><ele>438.0</ele><time>2026-04-11T13:01:42.001Z</time></trkpt><trkpt lat="41.271479124646945" lon="14.001599499423863"><ele>438.0</ele><time>2026-04-11T13:01:43.001Z</time></trkpt><trkpt lat="41.27133391124847" lon="14.001474736590987"><ele>439.66666666666663</ele><time>2026-04-11T13:01:44.001Z</time></trkpt><trkpt lat="41.27118910626384" lon="14.001327350663932"><ele>441.3333333333333</ele><time>2026-04-11T13:01:45.001Z</time></trkpt><trkpt lat="41.27104568702361" lon="14.001155491149945"><ele>443.0</ele><time>2026-04-11T13:01:46.001Z</time></trkpt><trkpt lat="41.27090624066037" lon="14.000965269350726"><ele>445.3333333333333</ele><time>2026-04-11T13:01:47.001Z</time></trkpt><trkpt lat="41.270764549076965" lon="14.000753008917657"><ele>447.66666666666663</ele><time>2026-04-11T13:01:48.001Z</time></trkpt><trkpt lat="41.27060263590747" lon="14.000553211835644"><ele>450.0</ele><time>2026-04-11T13:01:49.001Z</time></trkpt><trkpt lat="41.27044443833701" lon="14.000344790045665"><ele>450.0</ele><time>2026-04-11T13:01:50.001Z</time></trkpt><trkpt lat="41.27030151964341" lon="14.00015054388564"><ele>450.0</ele><time>2026-04-11T13:01:51.001Z</time></trkpt><trkpt lat="41.27017109040019" lon="13.999974574797605"><ele>450.0</ele><time>2026-04-11T13:01:52.001Z</time></trkpt><trkpt lat="41.270059015093125" lon="13.999814965112302"><ele>450.0</ele><time>2026-04-11T13:01:53.001Z</time></trkpt><trkpt lat="41.26996450553959" lon="13.999642951672527"><ele>450.0</ele><time>2026-04-11T13:01:54.001Z</time></trkpt><trkpt lat="41.26989080364041" lon="13.999455155946901"><ele>450.0</ele><time>2026-04-11T13:01:55.001Z</time></trkpt><trkpt lat="41.26985065968442" lon="13.999244946602818"><ele>450.0</ele><time>2026-04-11T13:01:56.001Z</time></trkpt><trkpt lat="41.26981197799716" lon="13.999039485122001"><ele>450.0</ele><time>2026-04-11T13:01:57.001Z</time></trkpt><trkpt lat="41.26978632929169" lon="13.998848060524075"><ele>450.0</ele><time>2026-04-11T13:01:58.001Z</time></trkpt><trkpt lat="41.26976023126403" lon="13.99869183328516"><ele>450.0</ele><time>2026-04-11T13:01:59.001Z</time></trkpt><trkpt lat="41.26973271254229" lon="13.998532050777618"><ele>452.0</ele><time>2026-04-11T13:02:00.001Z</time></trkpt><trkpt lat="41.269704949301875" lon="13.998365502953998"><ele>454.0</ele><time>2026-04-11T13:02:01.001Z</time></trkpt><trkpt lat="41.269676876323445" lon="13.998191041436383"><ele>456.0</ele><time>2026-04-11T13:02:02.001Z</time></trkpt><trkpt lat="41.26966466107395" lon="13.997997453783267"><ele>458.0</ele><time>2026-04-11T13:02:03.001Z</time></trkpt><trkpt lat="41.26966073435063" lon="13.997779625039454"><ele>458.0</ele><time>2026-04-11T13:02:04.001Z</time></trkpt><trkpt lat="41.2696548190879" lon="13.99754306504793"><ele>458.0</ele><time>2026-04-11T13:02:05.001Z</time></trkpt><trkpt lat="41.269661025808524" lon="13.9972977841901"><ele>458.0</ele><time>2026-04-11T13:02:06.001Z</time></trkpt><trkpt lat="41.26966442507254" lon="13.997041230444982"><ele>458.0</ele><time>2026-04-11T13:02:07.001Z</time></trkpt><trkpt lat="41.26966692150673" lon="13.996786831329066"><ele>458.0</ele><time>2026-04-11T13:02:08.001Z</time></trkpt><trkpt lat="41.26967372270802" lon="13.99653653741853"><ele>458.0</ele><time>2026-04-11T13:02:09.001Z</time></trkpt><trkpt lat="41.26968359711098" lon="13.996294764648185"><ele>458.3333333333333</ele><time>2026-04-11T13:02:10.001Z</time></trkpt><trkpt lat="41.26969826990941" lon="13.996068349463771"><ele>458.66666666666663</ele><time>2026-04-11T13:02:11.001Z</time></trkpt><trkpt lat="41.26973056389127" lon="13.995841052036045"><ele>459.0</ele><time>2026-04-11T13:02:12.001Z</time></trkpt><trkpt lat="41.26976440196071" lon="13.995627725505559"><ele>456.0</ele><time>2026-04-11T13:02:13.001Z</time></trkpt><trkpt lat="41.26979783040613" lon="13.995415253306936"><ele>453.0</ele><time>2026-04-11T13:02:14.001Z</time></trkpt><trkpt lat="41.269854700757406" lon="13.995205526069677"><ele>450.0</ele><time>2026-04-11T13:02:15.001Z</time></trkpt><trkpt lat="41.26993917908779" lon="13.995008624498007"><ele>452.0</ele><time>2026-04-11T13:02:16.001Z</time></trkpt><trkpt lat="41.270028732350866" lon="13.994795354755713"><ele>454.0</ele><time>2026-04-11T13:02:17.001Z</time></trkpt><trkpt lat="41.270119018076045" lon="13.994594869209864"><ele>456.0</ele><time>2026-04-11T13:02:18.001Z</time></trkpt><trkpt lat="41.27019653428405" lon="13.994429469320531"><ele>456.0</ele><time>2026-04-11T13:02:19.001Z</time></trkpt><trkpt lat="41.27026676914281" lon="13.994287101238024"><ele>456.0</ele><time>2026-04-11T13:02:20.001Z</time></trkpt><trkpt lat="41.27034747114395" lon="13.994163126568354"><ele>456.0</ele><time>2026-04-11T13:02:21.001Z</time></trkpt><trkpt lat="41.270445702312" lon="13.994085869375304"><ele>456.0</ele><time>2026-04-11T13:02:22.001Z</time></trkpt><trkpt lat="41.2705673076671" lon="13.994030565409872"><ele>456.20000000000005</ele><time>2026-04-11T13:02:23.001Z</time></trkpt><trkpt lat="41.27070689806294" lon="13.993984227689898"><ele>456.40000000000003</ele><time>2026-04-11T13:02:24.001Z</time></trkpt><trkpt lat="41.27083106145492" lon="13.993966592755253"><ele>456.6</ele><time>2026-04-11T13:02:25.001Z</time></trkpt><trkpt lat="41.270928413596835" lon="13.993950660907053"><ele>456.8</ele><time>2026-04-11T13:02:26.001Z</time></trkpt><trkpt lat="41.271002986527954" lon="13.993908754343629"><ele>457.0</ele><time>2026-04-11T13:02:27.001Z</time></trkpt><trkpt lat="41.27104729010758" lon="13.993841265890703"><ele>457.0</ele><time>2026-04-11T13:02:28.001Z</time></trkpt><trkpt lat="41.27108267847569" lon="13.993730789744594"><ele>457.0</ele><time>2026-04-11T13:02:29.001Z</time></trkpt><trkpt lat="41.27107835104483" lon="13.993599575026527"><ele>457.0</ele><time>2026-04-11T13:02:30.001Z</time></trkpt><trkpt lat="41.27105498064133" lon="13.99343032216454"><ele>457.0</ele><time>2026-04-11T13:02:31.001Z</time></trkpt><trkpt lat="41.27102510639262" lon="13.9932452110796"><ele>457.6666666666667</ele><time>2026-04-11T13:02:32.001Z</time></trkpt><trkpt lat="41.27099671789693" lon="13.993028259919566"><ele>458.33333333333337</ele><time>2026-04-11T13:02:33.001Z</time></trkpt><trkpt lat="41.270959584690196" lon="13.992794231692562"><ele>459.0</ele><time>2026-04-11T13:02:34.001Z</time></trkpt><trkpt lat="41.270934421781575" lon="13.992564684424748"><ele>459.66666666666663</ele><time>2026-04-11T13:02:35.001Z</time></trkpt><trkpt lat="41.270946237211774" lon="13.992291999866861"><ele>460.3333333333333</ele><time>2026-04-11T13:02:36.001Z</time></trkpt><trkpt lat="41.27096579502703" lon="13.99201359957656"><ele>461.0</ele><time>2026-04-11T13:02:37.001Z</time></trkpt><trkpt lat="41.27099347584744" lon="13.991738344391033"><ele>461.66666666666663</ele><time>2026-04-11T13:02:38.001Z</time></trkpt><trkpt lat="41.27102109774205" lon="13.991451742569124"><ele>462.33333333333337</ele><time>2026-04-11T13:02:39.001Z</time></trkpt><trkpt lat="41.271044742707616" lon="13.99116553692984"><ele>463.0</ele><time>2026-04-11T13:02:40.001Z</time></trkpt><trkpt lat="41.27106301204986" lon="13.990898684711565"><ele>464.0</ele><time>2026-04-11T13:02:41.002Z</time></trkpt><trkpt lat="41.27107526830652" lon="13.990640597518945"><ele>465.0</ele><time>2026-04-11T13:02:42.002Z</time></trkpt><trkpt lat="41.27108890206847" lon="13.990390659575315"><ele>466.0</ele><time>2026-04-11T13:02:43.002Z</time></trkpt><trkpt lat="41.27110939795106" lon="13.990160266886322"><ele>466.75</ele><time>2026-04-11T13:02:44.002Z</time></trkpt><trkpt lat="41.27113688499307" lon="13.989950325603607"><ele>467.5</ele><time>2026-04-11T13:02:45.002Z</time></trkpt><trkpt lat="41.271185046935976" lon="13.989794452905665"><ele>468.25</ele><time>2026-04-11T13:02:46.002Z</time></trkpt><trkpt lat="41.27125831988156" lon="13.989651381304148"><ele>469.0</ele><time>2026-04-11T13:02:47.002Z</time></trkpt><trkpt lat="41.27135591513835" lon="13.989518948576865"><ele>472.6666666666667</ele><time>2026-04-11T13:02:48.002Z</time></trkpt><trkpt lat="41.27146713472775" lon="13.98936943780813"><ele>476.33333333333337</ele><time>2026-04-11T13:02:49.002Z</time></trkpt><trkpt lat="41.27158070824462" lon="13.989204241932015"><ele>480.0</ele><time>2026-04-11T13:02:50.002Z</time></trkpt><trkpt lat="41.271712687063975" lon="13.989050715661515"><ele>480.0</ele><time>2026-04-11T13:02:51.002Z</time></trkpt><trkpt lat="41.27184306171706" lon="13.988873067561768"><ele>480.0</ele><time>2026-04-11T13:02:52.002Z</time></trkpt><trkpt lat="41.27197967356927" lon="13.988688902281364"><ele>480.0</ele><time>2026-04-11T13:02:53.002Z</time></trkpt><trkpt lat="41.27212454381209" lon="13.988500671340613"><ele>480.33333333333337</ele><time>2026-04-11T13:02:54.002Z</time></trkpt><trkpt lat="41.272252844118505" lon="13.988306298000113"><ele>480.6666666666667</ele><time>2026-04-11T13:02:55.002Z</time></trkpt><trkpt lat="41.272382003909264" lon="13.988142379016539"><ele>481.0</ele><time>2026-04-11T13:02:56.002Z</time></trkpt><trkpt lat="41.27249420138034" lon="13.98799480341798"><ele>482.25</ele><time>2026-04-11T13:02:57.002Z</time></trkpt><trkpt lat="41.27260429747951" lon="13.987864381822696"><ele>483.5</ele><time>2026-04-11T13:02:58.002Z</time></trkpt><trkpt lat="41.27269249481411" lon="13.987730050655218"><ele>484.75</ele><time>2026-04-11T13:02:59.002Z</time></trkpt><trkpt lat="41.27276255312797" lon="13.987584697031211"><ele>486.0</ele><time>2026-04-11T13:03:00.002Z</time></trkpt><trkpt lat="41.27280417023583" lon="13.987433245198483"><ele>486.0</ele><time>2026-04-11T13:03:01.002Z</time></trkpt><trkpt lat="41.27282177000608" lon="13.987258050247926"><ele>486.0</ele><time>2026-04-11T13:03:02.002Z</time></trkpt><trkpt lat="41.27282526290605" lon="13.987072732243083"><ele>486.0</ele><time>2026-04-11T13:03:03.002Z</time></trkpt><trkpt lat="41.27280900078786" lon="13.986895379578373"><ele>486.0</ele><time>2026-04-11T13:03:04.002Z</time></trkpt><trkpt lat="41.272770882065934" lon="13.98672856938839"><ele>487.66666666666663</ele><time>2026-04-11T13:03:05.002Z</time></trkpt><trkpt lat="41.2726973488709" lon="13.986554794858723"><ele>489.3333333333333</ele><time>2026-04-11T13:03:06.002Z</time></trkpt><trkpt lat="41.27260469602856" lon="13.98639608906575"><ele>491.0</ele><time>2026-04-11T13:03:07.002Z</time></trkpt><trkpt lat="41.27250068376527" lon="13.986248318064584"><ele>491.0</ele><time>2026-04-11T13:03:08.002Z</time></trkpt><trkpt lat="41.27239256479008" lon="13.986132450498388"><ele>491.0</ele><time>2026-04-11T13:03:09.002Z</time></trkpt><trkpt lat="41.27228723711354" lon="13.986060230964208"><ele>491.0</ele><time>2026-04-11T13:03:10.002Z</time></trkpt><trkpt lat="41.27216041862064" lon="13.986020133591984"><ele>491.0</ele><time>2026-04-11T13:03:11.002Z</time></trkpt><trkpt lat="41.27203304960353" lon="13.986014513825607"><ele>492.0</ele><time>2026-04-11T13:03:12.002Z</time></trkpt><trkpt lat="41.27188681972711" lon="13.986056624432862"><ele>493.0</ele><time>2026-04-11T13:03:13.002Z</time></trkpt><trkpt lat="41.2717521767549" lon="13.98613766166338"><ele>494.0</ele><time>2026-04-11T13:03:14.002Z</time></trkpt><trkpt lat="41.27160694260582" lon="13.986267268335489"><ele>494.0</ele><time>2026-04-11T13:03:15.002Z</time></trkpt><trkpt lat="41.27147298302582" lon="13.98641396685991"><ele>494.0</ele><time>2026-04-11T13:03:16.002Z</time></trkpt><trkpt lat="41.271351658666255" lon="13.986513188875932"><ele>494.0</ele><time>2026-04-11T13:03:17.001Z</time></trkpt><trkpt lat="41.27125157049405" lon="13.986614622896864"><ele>494.0</ele><time>2026-04-11T13:03:18.001Z</time></trkpt><trkpt lat="41.27116299621091" lon="13.986697355970897"><ele>494.4</ele><time>2026-04-11T13:03:19.001Z</time></trkpt><trkpt lat="41.27108315561624" lon="13.986761685138104"><ele>494.79999999999995</ele><time>2026-04-11T13:03:20.001Z</time></trkpt><trkpt lat="41.271010249575085" lon="13.986800391951647"><ele>495.20000000000005</ele><time>2026-04-11T13:03:21Z</time></trkpt><trkpt lat="41.27093518642662" lon="13.986781407656599"><ele>495.6</ele><time>2026-04-11T13:03:22.001Z</time></trkpt><trkpt lat="41.27084735938981" lon="13.986712349516347"><ele>496.0</ele><time>2026-04-11T13:03:23Z</time></trkpt><trkpt lat="41.270769359275135" lon="13.98660174506213"><ele>496.0</ele><time>2026-04-11T13:03:24Z</time></trkpt><trkpt lat="41.27070279824465" lon="13.98643717742271"><ele>496.0</ele><time>2026-04-11T13:03:25Z</time></trkpt><trkpt lat="41.27065815124015" lon="13.986274253983815"><ele>496.0</ele><time>2026-04-11T13:03:26Z</time></trkpt><trkpt lat="41.2706541577484" lon="13.98611566180245"><ele>496.0</ele><time>2026-04-11T13:03:27Z</time></trkpt><trkpt lat="41.27067054673381" lon="13.985981337319911"><ele>497.75</ele><time>2026-04-11T13:03:28Z</time></trkpt><trkpt lat="41.27073778224587" lon="13.98582695943014"><ele>499.5</ele><time>2026-04-11T13:03:29Z</time></trkpt><trkpt lat="41.270819334384164" lon="13.98568860468824"><ele>501.25</ele><time>2026-04-11T13:03:30Z</time></trkpt><trkpt lat="41.27089605922026" lon="13.985560817057083"><ele>503.0</ele><time>2026-04-11T13:03:31Z</time></trkpt><trkpt lat="41.27094948828606" lon="13.985407633156731"><ele>503.0</ele><time>2026-04-11T13:03:32Z</time></trkpt><trkpt lat="41.270964862642835" lon="13.985253302538164"><ele>503.0</ele><time>2026-04-11T13:03:33Z</time></trkpt><trkpt lat="41.27094662446877" lon="13.985070198976517"><ele>503.0</ele><time>2026-04-11T13:03:34Z</time></trkpt><trkpt lat="41.27091691508264" lon="13.984901770505166"><ele>503.0</ele><time>2026-04-11T13:03:35Z</time></trkpt><trkpt lat="41.27088623414665" lon="13.984725856486127"><ele>503.5</ele><time>2026-04-11T13:03:36Z</time></trkpt><trkpt lat="41.270877415513105" lon="13.984551401371753"><ele>504.0</ele><time>2026-04-11T13:03:37Z</time></trkpt><trkpt lat="41.270888427443246" lon="13.984391441355694"><ele>504.5</ele><time>2026-04-11T13:03:38Z</time></trkpt><trkpt lat="41.270927301379174" lon="13.984237847065822"><ele>505.0</ele><time>2026-04-11T13:03:39Z</time></trkpt><trkpt lat="41.27100065712488" lon="13.984084129967068"><ele>505.75</ele><time>2026-04-11T13:03:40Z</time></trkpt><trkpt lat="41.27108584477297" lon="13.983946943202493"><ele>506.5</ele><time>2026-04-11T13:03:41Z</time></trkpt><trkpt lat="41.271174431869255" lon="13.98380516903717"><ele>507.25</ele><time>2026-04-11T13:03:42Z</time></trkpt><trkpt lat="41.27125519213495" lon="13.983657986898287"><ele>508.0</ele><time>2026-04-11T13:03:43Z</time></trkpt><trkpt lat="41.271313359327536" lon="13.983502270128643"><ele>507.75</ele><time>2026-04-11T13:03:44Z</time></trkpt><trkpt lat="41.27134980934052" lon="13.983334569352559"><ele>507.5</ele><time>2026-04-11T13:03:45Z</time></trkpt><trkpt lat="41.27136505086888" lon="13.983167280424462"><ele>507.25</ele><time>2026-04-11T13:03:46Z</time></trkpt><trkpt lat="41.27136303664571" lon="13.983028552910014"><ele>507.0</ele><time>2026-04-11T13:03:47Z</time></trkpt><trkpt lat="41.27135281480928" lon="13.982886385633565"><ele>507.0</ele><time>2026-04-11T13:03:48.001Z</time></trkpt><trkpt lat="41.27129746760018" lon="13.98274910131832"><ele>507.0</ele><time>2026-04-11T13:03:49.001Z</time></trkpt><trkpt lat="41.27121749638431" lon="13.982642030191162"><ele>507.0</ele><time>2026-04-11T13:03:50.001Z</time></trkpt><trkpt lat="41.27111210531466" lon="13.982561550794859"><ele>507.0</ele><time>2026-04-11T13:03:51.001Z</time></trkpt><trkpt lat="41.27096841786932" lon="13.982515363912846"><ele>507.0</ele><time>2026-04-11T13:03:52.001Z</time></trkpt><trkpt lat="41.270813289053244" lon="13.982498499643228"><ele>507.0</ele><time>2026-04-11T13:03:53.001Z</time></trkpt><trkpt lat="41.270685564553794" lon="13.982485177050956"><ele>507.0</ele><time>2026-04-11T13:03:54.001Z</time></trkpt><trkpt lat="41.27057035456418" lon="13.982447299635007"><ele>507.0</ele><time>2026-04-11T13:03:55.001Z</time></trkpt><trkpt lat="41.27046664573408" lon="13.982426459474775"><ele>507.0</ele><time>2026-04-11T13:03:56.001Z</time></trkpt><trkpt lat="41.270373696825665" lon="13.982420722318505"><ele>507.0</ele><time>2026-04-11T13:03:57.001Z</time></trkpt><trkpt lat="41.27030824629221" lon="13.98236056619435"><ele>507.0</ele><time>2026-04-11T13:03:58.001Z</time></trkpt><trkpt lat="41.27028274264562" lon="13.982277662686437"><ele>507.0</ele><time>2026-04-11T13:03:59.001Z</time></trkpt><trkpt lat="41.270333288113186" lon="13.982138271337918"><ele>507.0</ele><time>2026-04-11T13:04:01.001Z</time></trkpt><trkpt lat="41.270415783875734" lon="13.982098186862233"><ele>507.0</ele><time>2026-04-11T13:04:02.001Z</time></trkpt><trkpt lat="41.27051682578571" lon="13.982128096222501"><ele>509.5</ele><time>2026-04-11T13:04:03.001Z</time></trkpt><trkpt lat="41.270646855390936" lon="13.982144025349282"><ele>512.0</ele><time>2026-04-11T13:04:04.001Z</time></trkpt><trkpt lat="41.27079516619382" lon="13.982146846773102"><ele>514.5</ele><time>2026-04-11T13:04:05.001Z</time></trkpt><trkpt lat="41.270940865721606" lon="13.982174712444815"><ele>517.0</ele><time>2026-04-11T13:04:06.001Z</time></trkpt><trkpt lat="41.27108177253108" lon="13.982185281655624"><ele>517.0</ele><time>2026-04-11T13:04:07.001Z</time></trkpt><trkpt lat="41.2712034489107" lon="13.982192258793768"><ele>517.0</ele><time>2026-04-11T13:04:08.001Z</time></trkpt><trkpt lat="41.27132386883166" lon="13.982211391478677"><ele>517.0</ele><time>2026-04-11T13:04:09.001Z</time></trkpt><trkpt lat="41.27143630972107" lon="13.982279992430112"><ele>517.0</ele><time>2026-04-11T13:04:10.001Z</time></trkpt><trkpt lat="41.2715398019352" lon="13.982364700799097"><ele>520.75</ele><time>2026-04-11T13:04:11.001Z</time></trkpt><trkpt lat="41.27162584657687" lon="13.982480621096204"><ele>524.5</ele><time>2026-04-11T13:04:12.001Z</time></trkpt><trkpt lat="41.27168231554509" lon="13.982654783649032"><ele>528.25</ele><time>2026-04-11T13:04:13.001Z</time></trkpt><trkpt lat="41.2717448386636" lon="13.982832727639344"><ele>532.0</ele><time>2026-04-11T13:04:14.001Z</time></trkpt><trkpt lat="41.27177792669947" lon="13.983034936122966"><ele>532.0</ele><time>2026-04-11T13:04:15.001Z</time></trkpt><trkpt lat="41.27179024365776" lon="13.983242133102111"><ele>532.0</ele><time>2026-04-11T13:04:16.001Z</time></trkpt><trkpt lat="41.271792387954314" lon="13.983446285965325"><ele>532.0</ele><time>2026-04-11T13:04:17.001Z</time></trkpt><trkpt lat="41.27176881998993" lon="13.983623936952288"><ele>532.0</ele><time>2026-04-11T13:04:18.001Z</time></trkpt><trkpt lat="41.27171618196035" lon="13.9837896431802"><ele>532.0</ele><time>2026-04-11T13:04:19.001Z</time></trkpt><trkpt lat="41.271643664586335" lon="13.983937919663546"><ele>532.0</ele><time>2026-04-11T13:04:20.001Z</time></trkpt><trkpt lat="41.27158632620082" lon="13.98405925671666"><ele>532.0</ele><time>2026-04-11T13:04:21.001Z</time></trkpt><trkpt lat="41.271543916239764" lon="13.98416656781303"><ele>532.0</ele><time>2026-04-11T13:04:22.001Z</time></trkpt><trkpt lat="41.27152230989605" lon="13.984258319497963"><ele>532.0</ele><time>2026-04-11T13:04:23.001Z</time></trkpt><trkpt lat="41.271538912593485" lon="13.984358028086978"><ele>529.6</ele><time>2026-04-11T13:04:24.001Z</time></trkpt><trkpt lat="41.271579292578146" lon="13.98443981737818"><ele>527.2</ele><time>2026-04-11T13:04:25.001Z</time></trkpt><trkpt lat="41.27164906824054" lon="13.984512710115057"><ele>524.8</ele><time>2026-04-11T13:04:26.001Z</time></trkpt><trkpt lat="41.2717517540111" lon="13.984524137751944"><ele>522.4</ele><time>2026-04-11T13:04:27.001Z</time></trkpt><trkpt lat="41.27187378696919" lon="13.984516326951239"><ele>520.0</ele><time>2026-04-11T13:04:28.001Z</time></trkpt><trkpt lat="41.272010240464866" lon="13.984472487358053"><ele>520.0</ele><time>2026-04-11T13:04:29.001Z</time></trkpt><trkpt lat="41.272146427319065" lon="13.984389670471213"><ele>520.0</ele><time>2026-04-11T13:04:30.001Z</time></trkpt><trkpt lat="41.272290047148545" lon="13.984271012964548"><ele>520.0</ele><time>2026-04-11T13:04:31.001Z</time></trkpt><trkpt lat="41.27244447945903" lon="13.984157327421805"><ele>526.6666666666667</ele><time>2026-04-11T13:04:32.001Z</time></trkpt><trkpt lat="41.27260262433255" lon="13.984024622232786"><ele>533.3333333333334</ele><time>2026-04-11T13:04:33.001Z</time></trkpt><trkpt lat="41.27275302184893" lon="13.983898418154359"><ele>540.0</ele><time>2026-04-11T13:04:34.001Z</time></trkpt><trkpt lat="41.27289028867542" lon="13.983765725800021"><ele>540.0</ele><time>2026-04-11T13:04:35.001Z</time></trkpt><trkpt lat="41.27302727568211" lon="13.983666203846033"><ele>540.0</ele><time>2026-04-11T13:04:36.001Z</time></trkpt><trkpt lat="41.27315033933332" lon="13.9835613625407"><ele>540.0</ele><time>2026-04-11T13:04:37.001Z</time></trkpt><trkpt lat="41.2732597286737" lon="13.983494088105255"><ele>540.0</ele><time>2026-04-11T13:04:38.001Z</time></trkpt><trkpt lat="41.27335167754412" lon="13.983421105626745"><ele>539.2</ele><time>2026-04-11T13:04:39.001Z</time></trkpt><trkpt lat="41.27343963923387" lon="13.98336987142709"><ele>538.4</ele><time>2026-04-11T13:04:40.001Z</time></trkpt><trkpt lat="41.27351533507906" lon="13.983408815360134"><ele>537.6</ele><time>2026-04-11T13:04:41.001Z</time></trkpt><trkpt lat="41.27358820554206" lon="13.98347714411428"><ele>536.8</ele><time>2026-04-11T13:04:42.001Z</time></trkpt><trkpt lat="41.27366009142461" lon="13.983595816843922"><ele>536.0</ele><time>2026-04-11T13:04:43.001Z</time></trkpt><trkpt lat="41.27374047611979" lon="13.98370909932892"><ele>536.0</ele><time>2026-04-11T13:04:44.001Z</time></trkpt><trkpt lat="41.27381437628022" lon="13.983847745600004"><ele>536.0</ele><time>2026-04-11T13:04:45.001Z</time></trkpt><trkpt lat="41.27388398125385" lon="13.984014886592401"><ele>536.0</ele><time>2026-04-11T13:04:46.001Z</time></trkpt><trkpt lat="41.273988602074276" lon="13.984176841743034"><ele>536.0</ele><time>2026-04-11T13:04:47.001Z</time></trkpt><trkpt lat="41.27409715903299" lon="13.984336626214661"><ele>537.3333333333333</ele><time>2026-04-11T13:04:48.001Z</time></trkpt><trkpt lat="41.274217114646575" lon="13.984499811000713"><ele>538.6666666666666</ele><time>2026-04-11T13:04:49.001Z</time></trkpt><trkpt lat="41.27432455529436" lon="13.9846489575045"><ele>540.0</ele><time>2026-04-11T13:04:50.001Z</time></trkpt><trkpt lat="41.27439319970046" lon="13.984784832164065"><ele>540.0</ele><time>2026-04-11T13:04:51.001Z</time></trkpt><trkpt lat="41.27451245501528" lon="13.984890617054722"><ele>540.0</ele><time>2026-04-11T13:04:52.001Z</time></trkpt><trkpt lat="41.27466149536198" lon="13.984980906625545"><ele>540.0</ele><time>2026-04-11T13:04:53.001Z</time></trkpt><trkpt lat="41.274827153249376" lon="13.985066498829811"><ele>541.3333333333334</ele><time>2026-04-11T13:04:54.001Z</time></trkpt><trkpt lat="41.2749941033887" lon="13.985147125623667"><ele>542.6666666666667</ele><time>2026-04-11T13:04:55.001Z</time></trkpt><trkpt lat="41.275167753695804" lon="13.985218399295878"><ele>544.0</ele><time>2026-04-11T13:04:56.001Z</time></trkpt><trkpt lat="41.275347515823476" lon="13.985275579168341"><ele>544.0</ele><time>2026-04-11T13:04:57.001Z</time></trkpt><trkpt lat="41.27552269757934" lon="13.985313065336053"><ele>544.0</ele><time>2026-04-11T13:04:58.001Z</time></trkpt><trkpt lat="41.275702648005684" lon="13.98534103067066"><ele>544.0</ele><time>2026-04-11T13:04:59.001Z</time></trkpt><trkpt lat="41.27588565849919" lon="13.985374015183591"><ele>548.6666666666667</ele><time>2026-04-11T13:05:00.002Z</time></trkpt><trkpt lat="41.27606738829456" lon="13.98540319400094"><ele>553.3333333333334</ele><time>2026-04-11T13:05:01.002Z</time></trkpt><trkpt lat="41.27625073027838" lon="13.985423452585175"><ele>558.0</ele><time>2026-04-11T13:05:02.002Z</time></trkpt><trkpt lat="41.27641298438716" lon="13.985450820138142"><ele>560.3333333333334</ele><time>2026-04-11T13:05:03.002Z</time></trkpt><trkpt lat="41.27657336791642" lon="13.985481793496623"><ele>562.6666666666667</ele><time>2026-04-11T13:05:04.002Z</time></trkpt><trkpt lat="41.276731776038424" lon="13.985518967637923"><ele>565.0</ele><time>2026-04-11T13:05:05.002Z</time></trkpt><trkpt lat="41.27688251674745" lon="13.98553982696318"><ele>565.0</ele><time>2026-04-11T13:05:06.002Z</time></trkpt><trkpt lat="41.27702396052319" lon="13.985561966192481"><ele>565.0</ele><time>2026-04-11T13:05:07.002Z</time></trkpt><trkpt lat="41.27714852117757" lon="13.985567848676721"><ele>565.0</ele><time>2026-04-11T13:05:08.002Z</time></trkpt><trkpt lat="41.27726417558232" lon="13.985556360351985"><ele>565.0</ele><time>2026-04-11T13:05:09.002Z</time></trkpt><trkpt lat="41.27737332575733" lon="13.985527380504914"><ele>567.0</ele><time>2026-04-11T13:05:10.002Z</time></trkpt><trkpt lat="41.277483240042805" lon="13.985450039057762"><ele>569.0</ele><time>2026-04-11T13:05:11.002Z</time></trkpt><trkpt lat="41.27760272915712" lon="13.985338546665195"><ele>571.0</ele><time>2026-04-11T13:05:12.002Z</time></trkpt><trkpt lat="41.2777152028015" lon="13.985204832145593"><ele>573.0</ele><time>2026-04-11T13:05:13.002Z</time></trkpt><trkpt lat="41.27782677860152" lon="13.98507693551566"><ele>574.0</ele><time>2026-04-11T13:05:14.002Z</time></trkpt><trkpt lat="41.2779249252099" lon="13.984969903040287"><ele>575.0</ele><time>2026-04-11T13:05:15.002Z</time></trkpt><trkpt lat="41.27800909315328" lon="13.9848812106046"><ele>576.0</ele><time>2026-04-11T13:05:16.002Z</time></trkpt><trkpt lat="41.27808573529508" lon="13.984798021410791"><ele>577.0</ele><time>2026-04-11T13:05:17.002Z</time></trkpt><trkpt lat="41.27816339426945" lon="13.984711877198915"><ele>578.0</ele><time>2026-04-11T13:05:18.002Z</time></trkpt><trkpt lat="41.27823956105009" lon="13.984625633684692"><ele>579.1999999999999</ele><time>2026-04-11T13:05:19.002Z</time></trkpt><trkpt lat="41.27831748625403" lon="13.984548511543265"><ele>580.4</ele><time>2026-04-11T13:05:20.002Z</time></trkpt><trkpt lat="41.278403501675434" lon="13.984469727326578"><ele>581.5999999999999</ele><time>2026-04-11T13:05:21.002Z</time></trkpt><trkpt lat="41.27850234079992" lon="13.984410677780545"><ele>582.8</ele><time>2026-04-11T13:05:22.002Z</time></trkpt><trkpt lat="41.27860155881003" lon="13.984345789440106"><ele>584.0</ele><time>2026-04-11T13:05:23Z</time></trkpt><trkpt lat="41.27871329179866" lon="13.984268361694307"><ele>584.0</ele><time>2026-04-11T13:05:24Z</time></trkpt><trkpt lat="41.27884817266684" lon="13.984198608517678"><ele>584.0</ele><time>2026-04-11T13:05:25Z</time></trkpt><trkpt lat="41.278997545558454" lon="13.984101264527194"><ele>584.0</ele><time>2026-04-11T13:05:26Z</time></trkpt><trkpt lat="41.2791525834738" lon="13.983994693160021"><ele>584.0</ele><time>2026-04-11T13:05:27Z</time></trkpt><trkpt lat="41.27928145562212" lon="13.983904101952474"><ele>584.0</ele><time>2026-04-11T13:05:28Z</time></trkpt><trkpt lat="41.27941775099358" lon="13.983822175190271"><ele>584.0</ele><time>2026-04-11T13:05:29Z</time></trkpt><trkpt lat="41.2795520525344" lon="13.983753991104058"><ele>584.0</ele><time>2026-04-11T13:05:30Z</time></trkpt><trkpt lat="41.27968508038838" lon="13.983668674747468"><ele>583.75</ele><time>2026-04-11T13:05:31Z</time></trkpt><trkpt lat="41.279817326484476" lon="13.983556435949067"><ele>583.5</ele><time>2026-04-11T13:05:32Z</time></trkpt><trkpt lat="41.2799272892841" lon="13.98343141147583"><ele>583.25</ele><time>2026-04-11T13:05:33Z</time></trkpt><trkpt lat="41.28000951942844" lon="13.983324721272314"><ele>583.0</ele><time>2026-04-11T13:05:34Z</time></trkpt><trkpt lat="41.28007279418423" lon="13.983241065617104"><ele>583.0</ele><time>2026-04-11T13:05:35Z</time></trkpt><trkpt lat="41.28014177428693" lon="13.983144587220686"><ele>583.0</ele><time>2026-04-11T13:05:37Z</time></trkpt><trkpt lat="41.28018898176221" lon="13.983068153391189"><ele>583.0</ele><time>2026-04-11T13:05:39Z</time></trkpt><trkpt lat="41.28024072299101" lon="13.983002774748002"><ele>583.0</ele><time>2026-04-11T13:06:13.001Z</time></trkpt><trkpt lat="41.28030108736578" lon="13.98287855119764"><ele>583.0</ele><time>2026-04-11T13:10:10.001Z</time></trkpt><trkpt lat="41.2803915174211" lon="13.982758330810348"><ele>583.0</ele><time>2026-04-11T13:10:12.001Z</time></trkpt><trkpt lat="41.28045033079309" lon="13.982676715360258"><ele>583.0</ele><time>2026-04-11T13:10:13.001Z</time></trkpt><trkpt lat="41.280512728645924" lon="13.982606091261367"><ele>583.0</ele><time>2026-04-11T13:10:14.001Z</time></trkpt><trkpt lat="41.28056350272196" lon="13.982501960535645"><ele>583.0</ele><time>2026-04-11T13:10:15.001Z</time></trkpt><trkpt lat="41.28064014006418" lon="13.982423951415884"><ele>583.0</ele><time>2026-04-11T13:10:16.001Z</time></trkpt><trkpt lat="41.28070201020502" lon="13.982339912282082"><ele>583.0</ele><time>2026-04-11T13:10:17.001Z</time></trkpt><trkpt lat="41.28075746845067" lon="13.98225019356927"><ele>583.1999999999999</ele><time>2026-04-11T13:10:18.001Z</time></trkpt><trkpt lat="41.28081525870348" lon="13.982162437541579"><ele>583.4</ele><time>2026-04-11T13:10:19.001Z</time></trkpt><trkpt lat="41.28087371637737" lon="13.982073915117514"><ele>583.5999999999999</ele><time>2026-04-11T13:10:20.001Z</time></trkpt><trkpt lat="41.28093528930248" lon="13.981982786632347"><ele>583.8</ele><time>2026-04-11T13:10:21.001Z</time></trkpt><trkpt lat="41.28099917683877" lon="13.981892350107458"><ele>584.0</ele><time>2026-04-11T13:10:22.001Z</time></trkpt><trkpt lat="41.28106184123092" lon="13.981802889387316"><ele>584.0</ele><time>2026-04-11T13:10:23.001Z</time></trkpt><trkpt lat="41.281130379818045" lon="13.981710330117838"><ele>584.0</ele><time>2026-04-11T13:10:24.001Z</time></trkpt><trkpt lat="41.281209850197314" lon="13.981619997869085"><ele>584.0</ele><time>2026-04-11T13:10:25.001Z</time></trkpt><trkpt lat="41.28129498477136" lon="13.98150037826644"><ele>584.0</ele><time>2026-04-11T13:10:26.001Z</time></trkpt><trkpt lat="41.281384536890464" lon="13.981374551688852"><ele>584.5</ele><time>2026-04-11T13:10:27.001Z</time></trkpt><trkpt lat="41.281476962710165" lon="13.981238418238592"><ele>585.0</ele><time>2026-04-11T13:10:28.001Z</time></trkpt><trkpt lat="41.28156921436521" lon="13.981100410476262"><ele>585.5</ele><time>2026-04-11T13:10:29.001Z</time></trkpt><trkpt lat="41.281664895262864" lon="13.98095945618197"><ele>586.0</ele><time>2026-04-11T13:10:30.001Z</time></trkpt><trkpt lat="41.28177373415318" lon="13.980818635263402"><ele>586.0</ele><time>2026-04-11T13:10:31.001Z</time></trkpt><trkpt lat="41.281874495282" lon="13.980679890468664"><ele>586.0</ele><time>2026-04-11T13:10:32.001Z</time></trkpt><trkpt lat="41.28197927475892" lon="13.980536943386202"><ele>586.0</ele><time>2026-04-11T13:10:33.001Z</time></trkpt><trkpt lat="41.2820809814366" lon="13.980390972689397"><ele>586.0</ele><time>2026-04-11T13:10:34.001Z</time></trkpt><trkpt lat="41.28219068769614" lon="13.980242637608441"><ele>586.6666666666667</ele><time>2026-04-11T13:10:35.001Z</time></trkpt><trkpt lat="41.282298530250664" lon="13.980098705314044"><ele>587.3333333333334</ele><time>2026-04-11T13:10:36.001Z</time></trkpt><trkpt lat="41.28240999442424" lon="13.979956095417139"><ele>588.0</ele><time>2026-04-11T13:10:37.001Z</time></trkpt><trkpt lat="41.28252610625554" lon="13.9798097847395"><ele>588.0</ele><time>2026-04-11T13:10:38.001Z</time></trkpt><trkpt lat="41.282640685973995" lon="13.979662775992173"><ele>588.0</ele><time>2026-04-11T13:10:39.001Z</time></trkpt><trkpt lat="41.282764483169835" lon="13.979520623539635"><ele>588.0</ele><time>2026-04-11T13:10:40.001Z</time></trkpt><trkpt lat="41.28288826055294" lon="13.979379100103825"><ele>588.0</ele><time>2026-04-11T13:10:41.001Z</time></trkpt><trkpt lat="41.28301095543016" lon="13.979240057014124"><ele>588.0</ele><time>2026-04-11T13:10:42.001Z</time></trkpt><trkpt lat="41.28313518608505" lon="13.979105420999732"><ele>588.0</ele><time>2026-04-11T13:10:43.001Z</time></trkpt><trkpt lat="41.28324732579474" lon="13.97898019214832"><ele>587.0</ele><time>2026-04-11T13:10:44.001Z</time></trkpt><trkpt lat="41.28335102377171" lon="13.978846831261475"><ele>586.0</ele><time>2026-04-11T13:10:45.001Z</time></trkpt><trkpt lat="41.283464734344605" lon="13.978718227245258"><ele>585.0</ele><time>2026-04-11T13:10:46.001Z</time></trkpt><trkpt lat="41.283592033660206" lon="13.978606675414646"><ele>584.0</ele><time>2026-04-11T13:10:47.001Z</time></trkpt><trkpt lat="41.28368925282229" lon="13.97848525999698"><ele>584.0</ele><time>2026-04-11T13:10:48.001Z</time></trkpt><trkpt lat="41.28378366206303" lon="13.978377769907729"><ele>584.0</ele><time>2026-04-11T13:10:49.001Z</time></trkpt><trkpt lat="41.28387174156439" lon="13.978275208284726"><ele>584.0</ele><time>2026-04-11T13:10:50.001Z</time></trkpt><trkpt lat="41.28395687771929" lon="13.978180161035597"><ele>584.0</ele><time>2026-04-11T13:10:51.001Z</time></trkpt><trkpt lat="41.28404239510705" lon="13.978078896091594"><ele>584.5</ele><time>2026-04-11T13:10:52.001Z</time></trkpt><trkpt lat="41.28413040410057" lon="13.977977968844543"><ele>585.0</ele><time>2026-04-11T13:10:53.001Z</time></trkpt><trkpt lat="41.284227745381514" lon="13.97787955416851"><ele>585.5</ele><time>2026-04-11T13:10:54.001Z</time></trkpt><trkpt lat="41.28432705290657" lon="13.977762403940297"><ele>586.0</ele><time>2026-04-11T13:10:55.001Z</time></trkpt><trkpt lat="41.284425529342" lon="13.977643002904689"><ele>586.0</ele><time>2026-04-11T13:10:56.001Z</time></trkpt><trkpt lat="41.2845177099066" lon="13.977522944730708"><ele>586.0</ele><time>2026-04-11T13:10:57.001Z</time></trkpt><trkpt lat="41.28461916427755" lon="13.977409694480935"><ele>586.0</ele><time>2026-04-11T13:10:58.001Z</time></trkpt><trkpt lat="41.28472017866877" lon="13.977292874369828"><ele>586.0</ele><time>2026-04-11T13:10:59.001Z</time></trkpt><trkpt lat="41.28481620317354" lon="13.977177251245228"><ele>587.25</ele><time>2026-04-11T13:11:00.001Z</time></trkpt><trkpt lat="41.284912527216385" lon="13.977064696434047"><ele>588.5</ele><time>2026-04-11T13:11:01.001Z</time></trkpt><trkpt lat="41.285018059133215" lon="13.976941401290379"><ele>589.75</ele><time>2026-04-11T13:11:02.001Z</time></trkpt><trkpt lat="41.285129722984564" lon="13.976814250436743"><ele>591.0</ele><time>2026-04-11T13:11:03.001Z</time></trkpt><trkpt lat="41.2852400981398" lon="13.976684184553655"><ele>591.4</ele><time>2026-04-11T13:11:04.001Z</time></trkpt><trkpt lat="41.28534640707969" lon="13.976580007054672"><ele>591.8</ele><time>2026-04-11T13:11:05.001Z</time></trkpt><trkpt lat="41.285438687304655" lon="13.976483058401604"><ele>592.1999999999999</ele><time>2026-04-11T13:11:06.001Z</time></trkpt><trkpt lat="41.28551373106193" lon="13.976399471368063"><ele>592.6</ele><time>2026-04-11T13:11:07.001Z</time></trkpt><trkpt lat="41.285577267626415" lon="13.97632398928872"><ele>593.0</ele><time>2026-04-11T13:11:08.001Z</time></trkpt><trkpt lat="41.28562946503991" lon="13.976263121599011"><ele>594.1666666666666</ele><time>2026-04-11T13:11:09.001Z</time></trkpt><trkpt lat="41.28569453350793" lon="13.976208672791707"><ele>595.3333333333333</ele><time>2026-04-11T13:11:11.001Z</time></trkpt><trkpt lat="41.28574316661962" lon="13.97614647231769"><ele>596.5</ele><time>2026-04-11T13:11:14.001Z</time></trkpt><trkpt lat="41.28574443349424" lon="13.976028842398483"><ele>597.6666666666666</ele><time>2026-04-11T13:11:25.002Z</time></trkpt><trkpt lat="41.28570611325141" lon="13.975922878479608"><ele>598.8333333333334</ele><time>2026-04-11T13:11:27.002Z</time></trkpt><trkpt lat="41.28566462660662" lon="13.97585250759816"><ele>600.0</ele><time>2026-04-11T13:11:28.002Z</time></trkpt><trkpt lat="41.2856213257867" lon="13.975758400542023"><ele>599.2</ele><time>2026-04-11T13:11:29.002Z</time></trkpt><trkpt lat="41.28558194153206" lon="13.975652473152518"><ele>598.4</ele><time>2026-04-11T13:11:30.002Z</time></trkpt><trkpt lat="41.28555103719543" lon="13.975554806014637"><ele>597.6</ele><time>2026-04-11T13:11:31.002Z</time></trkpt><trkpt lat="41.285503897518204" lon="13.975439928492749"><ele>596.8</ele><time>2026-04-11T13:11:32.002Z</time></trkpt><trkpt lat="41.28546223025402" lon="13.97530682099839"><ele>596.0</ele><time>2026-04-11T13:11:33.002Z</time></trkpt><trkpt lat="41.285419576402276" lon="13.975168456982908"><ele>596.0</ele><time>2026-04-11T13:11:34.002Z</time></trkpt><trkpt lat="41.28537621133238" lon="13.975031135794277"><ele>596.0</ele><time>2026-04-11T13:11:35.002Z</time></trkpt><trkpt lat="41.28532557876947" lon="13.974895596996387"><ele>596.0</ele><time>2026-04-11T13:11:36.002Z</time></trkpt><trkpt lat="41.285263980958895" lon="13.974766239117002"><ele>596.0</ele><time>2026-04-11T13:11:37.002Z</time></trkpt><trkpt lat="41.28519715733153" lon="13.974628775008272"><ele>596.75</ele><time>2026-04-11T13:11:38.002Z</time></trkpt><trkpt lat="41.28512596183266" lon="13.97449425729855"><ele>597.5</ele><time>2026-04-11T13:11:39.002Z</time></trkpt><trkpt lat="41.28504379100673" lon="13.97435629700198"><ele>598.25</ele><time>2026-04-11T13:11:40.002Z</time></trkpt><trkpt lat="41.284958993601705" lon="13.974226585155447"><ele>599.0</ele><time>2026-04-11T13:11:41Z</time></trkpt><trkpt lat="41.28487013885238" lon="13.974103586662135"><ele>598.75</ele><time>2026-04-11T13:11:42Z</time></trkpt><trkpt lat="41.28477914749066" lon="13.97397073440984"><ele>598.5</ele><time>2026-04-11T13:11:43Z</time></trkpt><trkpt lat="41.284682860766274" lon="13.973838699480222"><ele>598.25</ele><time>2026-04-11T13:11:44Z</time></trkpt><trkpt lat="41.28459411652001" lon="13.97371199411576"><ele>598.0</ele><time>2026-04-11T13:11:45Z</time></trkpt><trkpt lat="41.284501243876164" lon="13.97358542374253"><ele>598.0</ele><time>2026-04-11T13:11:46Z</time></trkpt><trkpt lat="41.28438980246192" lon="13.9734734074328"><ele>598.0</ele><time>2026-04-11T13:11:47Z</time></trkpt><trkpt lat="41.28427531402544" lon="13.973356191868914"><ele>598.0</ele><time>2026-04-11T13:11:48Z</time></trkpt><trkpt lat="41.28416384523232" lon="13.973264602297498"><ele>598.0</ele><time>2026-04-11T13:11:49Z</time></trkpt><trkpt lat="41.28404176802965" lon="13.973172494170036"><ele>598.25</ele><time>2026-04-11T13:11:50Z</time></trkpt><trkpt lat="41.28391740223955" lon="13.97311276578273"><ele>598.5</ele><time>2026-04-11T13:11:51Z</time></trkpt><trkpt lat="41.28378613430897" lon="13.973076866288864"><ele>598.75</ele><time>2026-04-11T13:11:52Z</time></trkpt><trkpt lat="41.283649751472765" lon="13.973050178274558"><ele>599.0</ele><time>2026-04-11T13:11:53Z</time></trkpt><trkpt lat="41.28351926721464" lon="13.97304920723726"><ele>599.0</ele><time>2026-04-11T13:11:54Z</time></trkpt><trkpt lat="41.283380045147474" lon="13.973043380956184"><ele>599.0</ele><time>2026-04-11T13:11:55Z</time></trkpt><trkpt lat="41.28324571637612" lon="13.973027730829358"><ele>599.0</ele><time>2026-04-11T13:11:56Z</time></trkpt><trkpt lat="41.28310716417345" lon="13.973010107571474"><ele>599.0</ele><time>2026-04-11T13:11:57Z</time></trkpt><trkpt lat="41.28296716031237" lon="13.972990148967668"><ele>597.25</ele><time>2026-04-11T13:11:58Z</time></trkpt><trkpt lat="41.28283410544004" lon="13.972956403545917"><ele>595.5</ele><time>2026-04-11T13:11:59Z</time></trkpt><trkpt lat="41.28272034069745" lon="13.972909955419679"><ele>593.75</ele><time>2026-04-11T13:12:00Z</time></trkpt><trkpt lat="41.28261312304087" lon="13.972859092203905"><ele>592.0</ele><time>2026-04-11T13:12:01Z</time></trkpt><trkpt lat="41.28250623620059" lon="13.972787969863807"><ele>592.0</ele><time>2026-04-11T13:12:02Z</time></trkpt><trkpt lat="41.282412878170135" lon="13.972718458769437"><ele>592.0</ele><time>2026-04-11T13:12:03Z</time></trkpt><trkpt lat="41.282320365997506" lon="13.972655095194936"><ele>592.0</ele><time>2026-04-11T13:12:04Z</time></trkpt><trkpt lat="41.28224558338417" lon="13.97257144533232"><ele>592.0</ele><time>2026-04-11T13:12:05Z</time></trkpt><trkpt lat="41.282177954495054" lon="13.972486107608685"><ele>592.0</ele><time>2026-04-11T13:12:06Z</time></trkpt><trkpt lat="41.282113015726" lon="13.972396509319916"><ele>592.4</ele><time>2026-04-11T13:12:07Z</time></trkpt><trkpt lat="41.28204750300884" lon="13.97230309941427"><ele>592.8000000000001</ele><time>2026-04-11T13:12:08Z</time></trkpt><trkpt lat="41.28199433974434" lon="13.97220136492852"><ele>593.2</ele><time>2026-04-11T13:12:09Z</time></trkpt><trkpt lat="41.2819495529102" lon="13.972097223764639"><ele>593.6</ele><time>2026-04-11T13:12:10Z</time></trkpt><trkpt lat="41.281896701798765" lon="13.971996972782613"><ele>594.0</ele><time>2026-04-11T13:12:11Z</time></trkpt><trkpt lat="41.281847098573444" lon="13.9718933251479"><ele>594.0</ele><time>2026-04-11T13:12:12Z</time></trkpt><trkpt lat="41.281805785227675" lon="13.97177872169309"><ele>594.0</ele><time>2026-04-11T13:12:13Z</time></trkpt><trkpt lat="41.281772528148" lon="13.97166635313625"><ele>594.0</ele><time>2026-04-11T13:12:14Z</time></trkpt><trkpt lat="41.281744754157515" lon="13.971555196414"><ele>594.0</ele><time>2026-04-11T13:12:15Z</time></trkpt><trkpt lat="41.28172997882641" lon="13.97143140326093"><ele>594.0</ele><time>2026-04-11T13:12:16Z</time></trkpt><trkpt lat="41.28172241740063" lon="13.971309953517576"><ele>595.2</ele><time>2026-04-11T13:12:17Z</time></trkpt><trkpt lat="41.28171518639442" lon="13.971178834587999"><ele>596.4</ele><time>2026-04-11T13:12:18Z</time></trkpt><trkpt lat="41.281718099098256" lon="13.97105110700626"><ele>597.6</ele><time>2026-04-11T13:12:19Z</time></trkpt><trkpt lat="41.28172502427563" lon="13.970924666281132"><ele>598.8</ele><time>2026-04-11T13:12:20Z</time></trkpt><trkpt lat="41.28174029719365" lon="13.970789069687251"><ele>600.0</ele><time>2026-04-11T13:12:21Z</time></trkpt><trkpt lat="41.2817633997808" lon="13.970647539394704"><ele>600.5</ele><time>2026-04-11T13:12:22Z</time></trkpt><trkpt lat="41.281791411354604" lon="13.970500029949065"><ele>601.0</ele><time>2026-04-11T13:12:23Z</time></trkpt><trkpt lat="41.28183473414947" lon="13.9703435453225"><ele>601.5</ele><time>2026-04-11T13:12:24Z</time></trkpt><trkpt lat="41.28189306397925" lon="13.97019443425015"><ele>602.0</ele><time>2026-04-11T13:12:25Z</time></trkpt><trkpt lat="41.28195202494202" lon="13.970039975154709"><ele>601.0</ele><time>2026-04-11T13:12:26Z</time></trkpt><trkpt lat="41.28200905190813" lon="13.969878580747062"><ele>600.0</ele><time>2026-04-11T13:12:27Z</time></trkpt><trkpt lat="41.28207853495975" lon="13.969704889315109"><ele>599.0</ele><time>2026-04-11T13:12:28Z</time></trkpt><trkpt lat="41.28214985435727" lon="13.969538080891756"><ele>598.0</ele><time>2026-04-11T13:12:29Z</time></trkpt><trkpt lat="41.282231231965085" lon="13.969378494727225"><ele>601.0</ele><time>2026-04-11T13:12:30Z</time></trkpt><trkpt lat="41.28231943036573" lon="13.969219305115383"><ele>604.0</ele><time>2026-04-11T13:12:31Z</time></trkpt><trkpt lat="41.28242052503633" lon="13.969063901556943"><ele>607.0</ele><time>2026-04-11T13:12:32Z</time></trkpt><trkpt lat="41.282527899626736" lon="13.968894638171996"><ele>607.0</ele><time>2026-04-11T13:12:33Z</time></trkpt><trkpt lat="41.282629114784065" lon="13.968708546420771"><ele>607.0</ele><time>2026-04-11T13:12:34Z</time></trkpt><trkpt lat="41.2827230732968" lon="13.96852039027912"><ele>607.0</ele><time>2026-04-11T13:12:35Z</time></trkpt><trkpt lat="41.282810217741044" lon="13.968326683692853"><ele>605.0</ele><time>2026-04-11T13:12:36Z</time></trkpt><trkpt lat="41.2828929488733" lon="13.968118606094254"><ele>603.0</ele><time>2026-04-11T13:12:37Z</time></trkpt><trkpt lat="41.282973856678765" lon="13.967916852993598"><ele>601.0</ele><time>2026-04-11T13:12:38Z</time></trkpt><trkpt lat="41.28304279099861" lon="13.96770231443299"><ele>603.0</ele><time>2026-04-11T13:12:39Z</time></trkpt><trkpt lat="41.283109161007424" lon="13.967499117829288"><ele>605.0</ele><time>2026-04-11T13:12:40.001Z</time></trkpt><trkpt lat="41.283145613566056" lon="13.967298573638956"><ele>607.0</ele><time>2026-04-11T13:12:41.001Z</time></trkpt><trkpt lat="41.28316185084236" lon="13.967087367046242"><ele>607.0</ele><time>2026-04-11T13:12:42.001Z</time></trkpt><trkpt lat="41.28314200283241" lon="13.966863695109401"><ele>607.0</ele><time>2026-04-11T13:12:43.001Z</time></trkpt><trkpt lat="41.28309906680995" lon="13.966640488457884"><ele>607.0</ele><time>2026-04-11T13:12:44.001Z</time></trkpt><trkpt lat="41.283047756207196" lon="13.966408501149255"><ele>603.6666666666667</ele><time>2026-04-11T13:12:45.001Z</time></trkpt><trkpt lat="41.282992834970294" lon="13.966154019098669"><ele>600.3333333333334</ele><time>2026-04-11T13:12:46.001Z</time></trkpt><trkpt lat="41.28293792805448" lon="13.965895444360147"><ele>597.0</ele><time>2026-04-11T13:12:47.001Z</time></trkpt><trkpt lat="41.282866931940674" lon="13.965621455658729"><ele>596.6666666666666</ele><time>2026-04-11T13:12:48.001Z</time></trkpt><trkpt lat="41.282811691435604" lon="13.965346377122406"><ele>596.3333333333333</ele><time>2026-04-11T13:12:49.001Z</time></trkpt><trkpt lat="41.28275597252759" lon="13.965073521725303"><ele>596.0</ele><time>2026-04-11T13:12:50.001Z</time></trkpt><trkpt lat="41.28269977204366" lon="13.964793740268515"><ele>596.6666666666666</ele><time>2026-04-11T13:12:51.001Z</time></trkpt><trkpt lat="41.28264419740623" lon="13.964510984694478"><ele>597.3333333333334</ele><time>2026-04-11T13:12:52.001Z</time></trkpt><trkpt lat="41.2825916059253" lon="13.964247926696315"><ele>598.0</ele><time>2026-04-11T13:12:53.001Z</time></trkpt><trkpt lat="41.28254187146121" lon="13.96398994579261"><ele>598.0</ele><time>2026-04-11T13:12:54.001Z</time></trkpt><trkpt lat="41.28249401294005" lon="13.96373857341604"><ele>598.0</ele><time>2026-04-11T13:12:55.001Z</time></trkpt><trkpt lat="41.28244558927566" lon="13.963479526379965"><ele>598.0</ele><time>2026-04-11T13:12:56.001Z</time></trkpt><trkpt lat="41.28239101376062" lon="13.963202481197303"><ele>598.0</ele><time>2026-04-11T13:12:57.001Z</time></trkpt><trkpt lat="41.28233738147716" lon="13.962933217032004"><ele>598.0</ele><time>2026-04-11T13:12:58.001Z</time></trkpt><trkpt lat="41.28228816082727" lon="13.962680942659434"><ele>598.0</ele><time>2026-04-11T13:12:59.001Z</time></trkpt><trkpt lat="41.28224178672666" lon="13.962446890628069"><ele>598.0</ele><time>2026-04-11T13:13:00.001Z</time></trkpt><trkpt lat="41.282197842753654" lon="13.962223672781736"><ele>598.0</ele><time>2026-04-11T13:13:01.001Z</time></trkpt><trkpt lat="41.282155313591886" lon="13.962017801264174"><ele>598.0</ele><time>2026-04-11T13:13:02.001Z</time></trkpt><trkpt lat="41.282114545219834" lon="13.961820154057824"><ele>597.3333333333334</ele><time>2026-04-11T13:13:03.001Z</time></trkpt><trkpt lat="41.28208036415836" lon="13.961637001965757"><ele>596.6666666666666</ele><time>2026-04-11T13:13:04.001Z</time></trkpt><trkpt lat="41.2820397676423" lon="13.96144325337936"><ele>596.0</ele><time>2026-04-11T13:13:05.001Z</time></trkpt><trkpt lat="41.28199037614302" lon="13.961242753737137"><ele>596.0</ele><time>2026-04-11T13:13:06.001Z</time></trkpt><trkpt lat="41.28194341255532" lon="13.961026333040628"><ele>596.0</ele><time>2026-04-11T13:13:07.001Z</time></trkpt><trkpt lat="41.281899495049856" lon="13.960799865543446"><ele>596.0</ele><time>2026-04-11T13:13:08.001Z</time></trkpt><trkpt lat="41.2818660029484" lon="13.960578799366044"><ele>595.3333333333333</ele><time>2026-04-11T13:13:09.001Z</time></trkpt><trkpt lat="41.28184178435331" lon="13.960381282274883"><ele>594.6666666666666</ele><time>2026-04-11T13:13:10.001Z</time></trkpt><trkpt lat="41.28180296290632" lon="13.960186203611787"><ele>594.0</ele><time>2026-04-11T13:13:11.001Z</time></trkpt><trkpt lat="41.28175847898077" lon="13.959986737234695"><ele>593.3333333333334</ele><time>2026-04-11T13:13:12.001Z</time></trkpt><trkpt lat="41.28170626364958" lon="13.959795580725652"><ele>592.6666666666667</ele><time>2026-04-11T13:13:13.001Z</time></trkpt><trkpt lat="41.28162478321938" lon="13.959605927486663"><ele>592.0</ele><time>2026-04-11T13:13:14.001Z</time></trkpt><trkpt lat="41.28152317831083" lon="13.959424091011027"><ele>592.0</ele><time>2026-04-11T13:13:15.001Z</time></trkpt><trkpt lat="41.281434844404565" lon="13.959263465903973"><ele>592.0</ele><time>2026-04-11T13:13:16.001Z</time></trkpt><trkpt lat="41.28134064176881" lon="13.959110795203172"><ele>592.0</ele><time>2026-04-11T13:13:17.001Z</time></trkpt><trkpt lat="41.28124197344972" lon="13.958972805194747"><ele>592.0</ele><time>2026-04-11T13:13:18.001Z</time></trkpt><trkpt lat="41.28111561497743" lon="13.958858799959234"><ele>589.6666666666667</ele><time>2026-04-11T13:13:19.001Z</time></trkpt><trkpt lat="41.28095684807328" lon="13.958755203190522"><ele>587.3333333333334</ele><time>2026-04-11T13:13:20.001Z</time></trkpt><trkpt lat="41.280784608735694" lon="13.958655034998944"><ele>585.0</ele><time>2026-04-11T13:13:21.001Z</time></trkpt><trkpt lat="41.280602876093944" lon="13.958537987324299"><ele>584.3333333333334</ele><time>2026-04-11T13:13:22.001Z</time></trkpt><trkpt lat="41.28042010088662" lon="13.958427110023592"><ele>583.6666666666667</ele><time>2026-04-11T13:13:23.001Z</time></trkpt><trkpt lat="41.280247670334404" lon="13.95830197573104"><ele>583.0</ele><time>2026-04-11T13:13:24.001Z</time></trkpt><trkpt lat="41.28008277998651" lon="13.958189894301105"><ele>581.6666666666667</ele><time>2026-04-11T13:13:25.001Z</time></trkpt><trkpt lat="41.27992342159803" lon="13.958086624620984"><ele>580.3333333333334</ele><time>2026-04-11T13:13:26.001Z</time></trkpt><trkpt lat="41.27977356237674" lon="13.95800473881897"><ele>579.0</ele><time>2026-04-11T13:13:27.001Z</time></trkpt><trkpt lat="41.27962797954099" lon="13.957944742627326"><ele>577.3333333333334</ele><time>2026-04-11T13:13:28.001Z</time></trkpt><trkpt lat="41.279468239332175" lon="13.957916949420833"><ele>575.6666666666667</ele><time>2026-04-11T13:13:29.001Z</time></trkpt><trkpt lat="41.27931176678041" lon="13.957918760985013"><ele>574.0</ele><time>2026-04-11T13:13:30.001Z</time></trkpt><trkpt lat="41.279164162340294" lon="13.95797058095799"><ele>574.0</ele><time>2026-04-11T13:13:31.001Z</time></trkpt><trkpt lat="41.27899665979283" lon="13.95805589202397"><ele>574.0</ele><time>2026-04-11T13:13:32.001Z</time></trkpt><trkpt lat="41.27881180306397" lon="13.95818198391226"><ele>574.0</ele><time>2026-04-11T13:13:33.001Z</time></trkpt><trkpt lat="41.27861819054947" lon="13.958304626841747"><ele>574.3333333333334</ele><time>2026-04-11T13:13:34.001Z</time></trkpt><trkpt lat="41.27842821579007" lon="13.958432876643666"><ele>574.6666666666666</ele><time>2026-04-11T13:13:35.001Z</time></trkpt><trkpt lat="41.27824568424534" lon="13.95854807372518"><ele>575.0</ele><time>2026-04-11T13:13:36.001Z</time></trkpt><trkpt lat="41.278074955001706" lon="13.95865917680811"><ele>570.3333333333333</ele><time>2026-04-11T13:13:37.001Z</time></trkpt><trkpt lat="41.277925500347926" lon="13.958764196040962"><ele>565.6666666666666</ele><time>2026-04-11T13:13:38.001Z</time></trkpt><trkpt lat="41.27779759754467" lon="13.958880959356948"><ele>561.0</ele><time>2026-04-11T13:13:39.001Z</time></trkpt><trkpt lat="41.27770074618093" lon="13.959001892000943"><ele>561.0</ele><time>2026-04-11T13:13:40.001Z</time></trkpt><trkpt lat="41.27761460452785" lon="13.959146799427307"><ele>561.0</ele><time>2026-04-11T13:13:41.001Z</time></trkpt><trkpt lat="41.2775524857175" lon="13.959313066644388"><ele>561.0</ele><time>2026-04-11T13:13:42.001Z</time></trkpt><trkpt lat="41.2775226444354" lon="13.959509747068422"><ele>561.0</ele><time>2026-04-11T13:13:43.001Z</time></trkpt><trkpt lat="41.27750770394938" lon="13.95972209046703"><ele>562.0</ele><time>2026-04-11T13:13:44.001Z</time></trkpt><trkpt lat="41.27751140590658" lon="13.95990481696347"><ele>563.0</ele><time>2026-04-11T13:13:45.001Z</time></trkpt><trkpt lat="41.27752241191526" lon="13.960059490420333"><ele>564.0</ele><time>2026-04-11T13:13:46.001Z</time></trkpt><trkpt lat="41.27750720737562" lon="13.960195876808552"><ele>565.0</ele><time>2026-04-11T13:13:47Z</time></trkpt><trkpt lat="41.27746175498951" lon="13.960315272465108"><ele>566.75</ele><time>2026-04-11T13:13:48Z</time></trkpt><trkpt lat="41.27737499002517" lon="13.960423586334644"><ele>568.5</ele><time>2026-04-11T13:13:49Z</time></trkpt><trkpt lat="41.27725003912142" lon="13.96050680358873"><ele>570.25</ele><time>2026-04-11T13:13:50Z</time></trkpt><trkpt lat="41.27709929855821" lon="13.960578049773572"><ele>572.0</ele><time>2026-04-11T13:13:51Z</time></trkpt><trkpt lat="41.27693353837699" lon="13.960650922775963"><ele>571.0</ele><time>2026-04-11T13:13:52Z</time></trkpt><trkpt lat="41.276777596629664" lon="13.960751421654981"><ele>570.0</ele><time>2026-04-11T13:13:53Z</time></trkpt><trkpt lat="41.27662216653028" lon="13.96088155193033"><ele>569.0</ele><time>2026-04-11T13:13:54Z</time></trkpt><trkpt lat="41.27647261024158" lon="13.961027986010839"><ele>563.3333333333333</ele><time>2026-04-11T13:13:55Z</time></trkpt><trkpt lat="41.27634034683343" lon="13.96118444367146"><ele>557.6666666666666</ele><time>2026-04-11T13:13:56Z</time></trkpt><trkpt lat="41.27620155708317" lon="13.961341260497491"><ele>552.0</ele><time>2026-04-11T13:13:57Z</time></trkpt><trkpt lat="41.276091001425996" lon="13.961518080734123"><ele>552.0</ele><time>2026-04-11T13:13:58Z</time></trkpt><trkpt lat="41.27598413545228" lon="13.96168419422789"><ele>552.0</ele><time>2026-04-11T13:13:59Z</time></trkpt><trkpt lat="41.27586957165243" lon="13.961818145347662"><ele>552.0</ele><time>2026-04-11T13:14:00Z</time></trkpt><trkpt lat="41.27572924926309" lon="13.961910332790765"><ele>553.6666666666666</ele><time>2026-04-11T13:14:01Z</time></trkpt><trkpt lat="41.275573710410995" lon="13.961952886460239"><ele>555.3333333333333</ele><time>2026-04-11T13:14:02Z</time></trkpt><trkpt lat="41.2754059178113" lon="13.961975547524455"><ele>557.0</ele><time>2026-04-11T13:14:03Z</time></trkpt><trkpt lat="41.27525248073502" lon="13.961967992838243"><ele>557.0</ele><time>2026-04-11T13:14:04Z</time></trkpt><trkpt lat="41.27512869616368" lon="13.961970704953547"><ele>557.0</ele><time>2026-04-11T13:14:05Z</time></trkpt><trkpt lat="41.27503365135986" lon="13.96197729778991"><ele>557.0</ele><time>2026-04-11T13:14:06Z</time></trkpt><trkpt lat="41.274940230644305" lon="13.962022219472457"><ele>557.0</ele><time>2026-04-11T13:14:07Z</time></trkpt><trkpt lat="41.274853759192425" lon="13.962117783533337"><ele>557.0</ele><time>2026-04-11T13:14:08Z</time></trkpt><trkpt lat="41.27477151393565" lon="13.962263597145224"><ele>556.0</ele><time>2026-04-11T13:14:09Z</time></trkpt><trkpt lat="41.27469123146473" lon="13.962426303749197"><ele>555.0</ele><time>2026-04-11T13:14:10Z</time></trkpt><trkpt lat="41.27462564925342" lon="13.96257160671013"><ele>554.0</ele><time>2026-04-11T13:14:11Z</time></trkpt><trkpt lat="41.27454266580101" lon="13.962699009581168"><ele>553.0</ele><time>2026-04-11T13:14:12Z</time></trkpt><trkpt lat="41.27443544442475" lon="13.962795429152136"><ele>553.0</ele><time>2026-04-11T13:14:13Z</time></trkpt><trkpt lat="41.27430146498341" lon="13.962869372384047"><ele>553.0</ele><time>2026-04-11T13:14:14Z</time></trkpt><trkpt lat="41.27416953965977" lon="13.9629257079502"><ele>553.0</ele><time>2026-04-11T13:14:15Z</time></trkpt><trkpt lat="41.27403617252947" lon="13.962966055229625"><ele>553.0</ele><time>2026-04-11T13:14:16Z</time></trkpt><trkpt lat="41.27388588963156" lon="13.96294392626993"><ele>554.0</ele><time>2026-04-11T13:14:17Z</time></trkpt><trkpt lat="41.273749258125825" lon="13.962878454796867"><ele>555.0</ele><time>2026-04-11T13:14:18Z</time></trkpt><trkpt lat="41.27363555392661" lon="13.962802640145497"><ele>556.0</ele><time>2026-04-11T13:14:19Z</time></trkpt><trkpt lat="41.2735651304297" lon="13.962705051842411"><ele>557.0</ele><time>2026-04-11T13:14:20Z</time></trkpt><trkpt lat="41.27353362759643" lon="13.962596913902654"><ele>553.6</ele><time>2026-04-11T13:14:21Z</time></trkpt><trkpt lat="41.27354138667461" lon="13.962449650414612"><ele>550.2</ele><time>2026-04-11T13:14:22Z</time></trkpt><trkpt lat="41.2735141596871" lon="13.962338506260455"><ele>546.8</ele><time>2026-04-11T13:14:23Z</time></trkpt><trkpt lat="41.27344227932342" lon="13.962248190036275"><ele>543.4</ele><time>2026-04-11T13:14:24Z</time></trkpt><trkpt lat="41.27333827474908" lon="13.962164479852774"><ele>540.0</ele><time>2026-04-11T13:14:25Z</time></trkpt><trkpt lat="41.27321714004627" lon="13.962120435993281"><ele>535.6666666666666</ele><time>2026-04-11T13:14:26Z</time></trkpt><trkpt lat="41.27307110598223" lon="13.962091423666116"><ele>531.3333333333333</ele><time>2026-04-11T13:14:27Z</time></trkpt><trkpt lat="41.2729171952811" lon="13.962067473540543"><ele>527.0</ele><time>2026-04-11T13:14:28Z</time></trkpt><trkpt lat="41.27275132256054" lon="13.9620646319222"><ele>527.0</ele><time>2026-04-11T13:14:29Z</time></trkpt><trkpt lat="41.27260168678516" lon="13.962080603873723"><ele>527.0</ele><time>2026-04-11T13:14:30Z</time></trkpt><trkpt lat="41.27246635083043" lon="13.962085899852283"><ele>527.0</ele><time>2026-04-11T13:14:31Z</time></trkpt><trkpt lat="41.272324991413534" lon="13.96203827281245"><ele>527.0</ele><time>2026-04-11T13:14:32Z</time></trkpt><trkpt lat="41.27217360477036" lon="13.961952196214385"><ele>524.6666666666666</ele><time>2026-04-11T13:14:33Z</time></trkpt><trkpt lat="41.272019386838586" lon="13.961874340910638"><ele>522.3333333333334</ele><time>2026-04-11T13:14:34Z</time></trkpt><trkpt lat="41.27183857981962" lon="13.961833969708499"><ele>520.0</ele><time>2026-04-11T13:14:35Z</time></trkpt><trkpt lat="41.27165692803675" lon="13.961785247960416"><ele>520.0</ele><time>2026-04-11T13:14:36Z</time></trkpt><trkpt lat="41.27147502655618" lon="13.961767556830505"><ele>520.0</ele><time>2026-04-11T13:14:37.001Z</time></trkpt><trkpt lat="41.271298808074405" lon="13.96172349216305"><ele>520.0</ele><time>2026-04-11T13:14:38.001Z</time></trkpt><trkpt lat="41.27113318676468" lon="13.961702624874132"><ele>516.3333333333334</ele><time>2026-04-11T13:14:39.001Z</time></trkpt><trkpt lat="41.27097052608413" lon="13.961653810789606"><ele>512.6666666666666</ele><time>2026-04-11T13:14:40.001Z</time></trkpt><trkpt lat="41.27082652402403" lon="13.961589649293705"><ele>509.0</ele><time>2026-04-11T13:14:41.001Z</time></trkpt><trkpt lat="41.27068635984409" lon="13.96151204634363"><ele>502.79999999999995</ele><time>2026-04-11T13:14:42.001Z</time></trkpt><trkpt lat="41.27057607225373" lon="13.961426495766206"><ele>496.59999999999997</ele><time>2026-04-11T13:14:43.001Z</time></trkpt><trkpt lat="41.2704884150421" lon="13.961335100659378"><ele>490.4</ele><time>2026-04-11T13:14:44.001Z</time></trkpt><trkpt lat="41.27041847688959" lon="13.96123847050532"><ele>484.2</ele><time>2026-04-11T13:14:45.001Z</time></trkpt><trkpt lat="41.27036666004558" lon="13.961115918235267"><ele>478.0</ele><time>2026-04-11T13:14:46.001Z</time></trkpt><trkpt lat="41.27033159727338" lon="13.960962070137523"><ele>481.0</ele><time>2026-04-11T13:14:47.001Z</time></trkpt><trkpt lat="41.270315563774034" lon="13.960788373113587"><ele>484.0</ele><time>2026-04-11T13:14:48.001Z</time></trkpt><trkpt lat="41.27027951819673" lon="13.960590279918875"><ele>487.0</ele><time>2026-04-11T13:14:49.001Z</time></trkpt><trkpt lat="41.270223047060725" lon="13.960415204907601"><ele>490.0</ele><time>2026-04-11T13:14:50.001Z</time></trkpt><trkpt lat="41.27016384479038" lon="13.9602657082874"><ele>490.0</ele><time>2026-04-11T13:14:51.001Z</time></trkpt><trkpt lat="41.27015480303149" lon="13.960122155376183"><ele>490.0</ele><time>2026-04-11T13:14:52.001Z</time></trkpt><trkpt lat="41.27015849883929" lon="13.960006400036496"><ele>490.0</ele><time>2026-04-11T13:14:53.001Z</time></trkpt><trkpt lat="41.27019304932075" lon="13.959885910253904"><ele>490.0</ele><time>2026-04-11T13:14:54.001Z</time></trkpt><trkpt lat="41.27026418747406" lon="13.959755780793085"><ele>490.0</ele><time>2026-04-11T13:14:55.001Z</time></trkpt><trkpt lat="41.2703010747271" lon="13.95964824549692"><ele>492.2</ele><time>2026-04-11T13:14:56.001Z</time></trkpt><trkpt lat="41.27029167814402" lon="13.959521877996586"><ele>494.4</ele><time>2026-04-11T13:14:57.001Z</time></trkpt><trkpt lat="41.27026008676195" lon="13.959408880640968"><ele>496.6</ele><time>2026-04-11T13:14:58.001Z</time></trkpt><trkpt lat="41.27019768404059" lon="13.95930834343295"><ele>498.8</ele><time>2026-04-11T13:14:59.001Z</time></trkpt><trkpt lat="41.270121517607315" lon="13.959197832569455"><ele>501.0</ele><time>2026-04-11T13:15:00.001Z</time></trkpt><trkpt lat="41.27000607747704" lon="13.95910289878321"><ele>503.0</ele><time>2026-04-11T13:15:01.001Z</time></trkpt><trkpt lat="41.269874801890964" lon="13.959019816384904"><ele>505.0</ele><time>2026-04-11T13:15:02.001Z</time></trkpt><trkpt lat="41.26974126630228" lon="13.958951778280243"><ele>507.0</ele><time>2026-04-11T13:15:03.001Z</time></trkpt><trkpt lat="41.269637797758996" lon="13.958909087303628"><ele>509.0</ele><time>2026-04-11T13:15:04.001Z</time></trkpt><trkpt lat="41.26953427625206" lon="13.958847676511162"><ele>506.5</ele><time>2026-04-11T13:15:05.001Z</time></trkpt><trkpt lat="41.269469233507024" lon="13.958739683749101"><ele>504.0</ele><time>2026-04-11T13:15:06.001Z</time></trkpt><trkpt lat="41.269391870105636" lon="13.958594745319326"><ele>501.5</ele><time>2026-04-11T13:15:07.001Z</time></trkpt><trkpt lat="41.269301001628726" lon="13.958443928039154"><ele>499.0</ele><time>2026-04-11T13:15:08.001Z</time></trkpt><trkpt lat="41.26918726348648" lon="13.958314449861147"><ele>499.0</ele><time>2026-04-11T13:15:09.001Z</time></trkpt><trkpt lat="41.269088327614114" lon="13.95818997410466"><ele>499.0</ele><time>2026-04-11T13:15:10.001Z</time></trkpt><trkpt lat="41.26901656258972" lon="13.958033214234367"><ele>499.0</ele><time>2026-04-11T13:15:11.001Z</time></trkpt><trkpt lat="41.26893811053506" lon="13.957846190908013"><ele>499.0</ele><time>2026-04-11T13:15:12.001Z</time></trkpt><trkpt lat="41.268860592029434" lon="13.957661621184718"><ele>493.5</ele><time>2026-04-11T13:15:13.001Z</time></trkpt><trkpt lat="41.268784114279114" lon="13.957476039298777"><ele>488.0</ele><time>2026-04-11T13:15:14.001Z</time></trkpt><trkpt lat="41.26871771651124" lon="13.957305282380684"><ele>482.5</ele><time>2026-04-11T13:15:15.001Z</time></trkpt><trkpt lat="41.26865652421601" lon="13.957137706755837"><ele>477.0</ele><time>2026-04-11T13:15:16.001Z</time></trkpt><trkpt lat="41.26860562623732" lon="13.956988082360333"><ele>477.0</ele><time>2026-04-11T13:15:17.001Z</time></trkpt><trkpt lat="41.2685620194915" lon="13.956854986691035"><ele>477.00000000000006</ele><time>2026-04-11T13:15:18.001Z</time></trkpt><trkpt lat="41.26852042864086" lon="13.956728043811038"><ele>477.00000000000006</ele><time>2026-04-11T13:15:19.001Z</time></trkpt><trkpt lat="41.268488340049636" lon="13.956612877316134"><ele>477.0</ele><time>2026-04-11T13:15:20.001Z</time></trkpt><trkpt lat="41.268450448155754" lon="13.956489532926572"><ele>477.0</ele><time>2026-04-11T13:15:21.001Z</time></trkpt><trkpt lat="41.26841495549724" lon="13.956349323662053"><ele>478.75</ele><time>2026-04-11T13:15:22.001Z</time></trkpt><trkpt lat="41.268375997199044" lon="13.956167249417586"><ele>480.5</ele><time>2026-04-11T13:15:23.001Z</time></trkpt><trkpt lat="41.26834808925434" lon="13.955968835752397"><ele>482.25</ele><time>2026-04-11T13:15:24.001Z</time></trkpt><trkpt lat="41.26832440105744" lon="13.955775407731524"><ele>484.0</ele><time>2026-04-11T13:15:25.001Z</time></trkpt><trkpt lat="41.26830393353182" lon="13.955584825464438"><ele>484.0</ele><time>2026-04-11T13:15:26.001Z</time></trkpt><trkpt lat="41.26828708565937" lon="13.955414412700017"><ele>484.0</ele><time>2026-04-11T13:15:27.001Z</time></trkpt><trkpt lat="41.26827254129001" lon="13.955276642498267"><ele>484.0</ele><time>2026-04-11T13:15:28.001Z</time></trkpt><trkpt lat="41.268266601813366" lon="13.955168235372973"><ele>484.0</ele><time>2026-04-11T13:15:29.001Z</time></trkpt><trkpt lat="41.26828942026873" lon="13.95508126331725"><ele>484.0</ele><time>2026-04-11T13:15:30.001Z</time></trkpt><trkpt lat="41.2683497885976" lon="13.9550230596146"><ele>484.0</ele><time>2026-04-11T13:15:31.001Z</time></trkpt><trkpt lat="41.26842875029584" lon="13.955000831386076"><ele>484.0</ele><time>2026-04-11T13:15:32.001Z</time></trkpt><trkpt lat="41.2685451870867" lon="13.955019670026482"><ele>484.0</ele><time>2026-04-11T13:15:33.001Z</time></trkpt><trkpt lat="41.268696512557085" lon="13.955070864832559"><ele>484.0</ele><time>2026-04-11T13:15:34.001Z</time></trkpt><trkpt lat="41.268863735036845" lon="13.955124444631275"><ele>488.4</ele><time>2026-04-11T13:15:35.001Z</time></trkpt><trkpt lat="41.26900162779468" lon="13.95516643593407"><ele>492.79999999999995</ele><time>2026-04-11T13:15:36.001Z</time></trkpt><trkpt lat="41.26910336798176" lon="13.955192817527227"><ele>497.20000000000005</ele><time>2026-04-11T13:15:37.001Z</time></trkpt><trkpt lat="41.269188902943604" lon="13.95517289298294"><ele>501.6</ele><time>2026-04-11T13:15:38.001Z</time></trkpt><trkpt lat="41.26925370858872" lon="13.955129796893068"><ele>506.0</ele><time>2026-04-11T13:15:39.001Z</time></trkpt><trkpt lat="41.26928084002847" lon="13.955045583871758"><ele>501.8</ele><time>2026-04-11T13:15:40.001Z</time></trkpt><trkpt lat="41.26929052532102" lon="13.954958561486412"><ele>497.6</ele><time>2026-04-11T13:15:41.001Z</time></trkpt><trkpt lat="41.269244831662284" lon="13.954847843040756"><ele>493.4</ele><time>2026-04-11T13:15:42.001Z</time></trkpt><trkpt lat="41.26916421341259" lon="13.954709165760201"><ele>489.2</ele><time>2026-04-11T13:15:43.001Z</time></trkpt><trkpt lat="41.26908930003252" lon="13.954572078656707"><ele>485.0</ele><time>2026-04-11T13:15:44.001Z</time></trkpt><trkpt lat="41.26906406906515" lon="13.9544222850607"><ele>485.0</ele><time>2026-04-11T13:15:45.001Z</time></trkpt><trkpt lat="41.26904119893804" lon="13.954304416655111"><ele>485.0</ele><time>2026-04-11T13:15:46.001Z</time></trkpt><trkpt lat="41.269056966816585" lon="13.954184712861155"><ele>485.0</ele><time>2026-04-11T13:15:47.001Z</time></trkpt><trkpt lat="41.26910730160755" lon="13.954028446554613"><ele>485.0</ele><time>2026-04-11T13:15:48.001Z</time></trkpt><trkpt lat="41.26918353460336" lon="13.953870230236255"><ele>483.5</ele><time>2026-04-11T13:15:49.001Z</time></trkpt><trkpt lat="41.26923010333352" lon="13.953690921660174"><ele>482.0</ele><time>2026-04-11T13:15:50.002Z</time></trkpt><trkpt lat="41.26924844063448" lon="13.953517655461829"><ele>480.5</ele><time>2026-04-11T13:15:51.002Z</time></trkpt><trkpt lat="41.26924649481403" lon="13.953332868752842"><ele>479.0</ele><time>2026-04-11T13:15:52.002Z</time></trkpt><trkpt lat="41.26923072978176" lon="13.953148849406723"><ele>478.0</ele><time>2026-04-11T13:15:53Z</time></trkpt><trkpt lat="41.26921384831389" lon="13.952966641107885"><ele>477.0</ele><time>2026-04-11T13:15:54Z</time></trkpt><trkpt lat="41.26919051319858" lon="13.952798510613244"><ele>476.0</ele><time>2026-04-11T13:15:55Z</time></trkpt><trkpt lat="41.269133889729204" lon="13.952627293214652"><ele>475.0</ele><time>2026-04-11T13:15:56Z</time></trkpt><trkpt lat="41.26908964271668" lon="13.952451099977592"><ele>475.0</ele><time>2026-04-11T13:15:57Z</time></trkpt><trkpt lat="41.26904726116885" lon="13.952269281717685"><ele>475.0</ele><time>2026-04-11T13:15:58Z</time></trkpt><trkpt lat="41.26899327125802" lon="13.952099269954704"><ele>475.0</ele><time>2026-04-11T13:15:59Z</time></trkpt><trkpt lat="41.26894166734879" lon="13.951921540004374"><ele>475.0</ele><time>2026-04-11T13:16:00Z</time></trkpt><trkpt lat="41.26890490293335" lon="13.951777876431812"><ele>465.5</ele><time>2026-04-11T13:16:01Z</time></trkpt><trkpt lat="41.26887038161038" lon="13.951617894923334"><ele>456.0</ele><time>2026-04-11T13:16:02Z</time></trkpt><trkpt lat="41.26885669666598" lon="13.951440703584"><ele>446.5</ele><time>2026-04-11T13:16:03Z</time></trkpt><trkpt lat="41.26886239691415" lon="13.95125945915971"><ele>437.0</ele><time>2026-04-11T13:16:04Z</time></trkpt><trkpt lat="41.268882472533306" lon="13.951093904335965"><ele>437.0</ele><time>2026-04-11T13:16:05Z</time></trkpt><trkpt lat="41.26889949239359" lon="13.950936146782764"><ele>437.00000000000006</ele><time>2026-04-11T13:16:06Z</time></trkpt><trkpt lat="41.2689260084671" lon="13.950802531828682"><ele>437.00000000000006</ele><time>2026-04-11T13:16:07Z</time></trkpt><trkpt lat="41.26896641155593" lon="13.950687242767021"><ele>437.0</ele><time>2026-04-11T13:16:08Z</time></trkpt><trkpt lat="41.2690512624713" lon="13.950577403264337"><ele>437.0</ele><time>2026-04-11T13:16:09Z</time></trkpt><trkpt lat="41.26918409388167" lon="13.950500331721557"><ele>446.66666666666663</ele><time>2026-04-11T13:16:10Z</time></trkpt><trkpt lat="41.26932503163505" lon="13.950398608444731"><ele>456.33333333333337</ele><time>2026-04-11T13:16:11Z</time></trkpt><trkpt lat="41.269489602595364" lon="13.95030738764291"><ele>466.0</ele><time>2026-04-11T13:16:12Z</time></trkpt><trkpt lat="41.269651208261266" lon="13.950180373182159"><ele>464.33333333333337</ele><time>2026-04-11T13:16:13Z</time></trkpt><trkpt lat="41.26979405500586" lon="13.950019335580867"><ele>462.66666666666663</ele><time>2026-04-11T13:16:14Z</time></trkpt><trkpt lat="41.269921726773894" lon="13.949877855877732"><ele>461.0</ele><time>2026-04-11T13:16:15Z</time></trkpt><trkpt lat="41.27007098276902" lon="13.9497974877484"><ele>461.0</ele><time>2026-04-11T13:16:16Z</time></trkpt><trkpt lat="41.27018543127943" lon="13.949725639024548"><ele>461.0</ele><time>2026-04-11T13:16:17Z</time></trkpt><trkpt lat="41.27026458444981" lon="13.949634653175577"><ele>461.0</ele><time>2026-04-11T13:16:18Z</time></trkpt><trkpt lat="41.270274868644414" lon="13.949533428180157"><ele>461.0</ele><time>2026-04-11T13:16:19Z</time></trkpt><trkpt lat="41.27025718251037" lon="13.94941444930463"><ele>461.0</ele><time>2026-04-11T13:16:20Z</time></trkpt><trkpt lat="41.27020256214893" lon="13.949298423156979"><ele>457.3333333333333</ele><time>2026-04-11T13:16:21Z</time></trkpt><trkpt lat="41.27012635966031" lon="13.949135989545006"><ele>453.66666666666663</ele><time>2026-04-11T13:16:22Z</time></trkpt><trkpt lat="41.27003792445059" lon="13.948939867989365"><ele>450.0</ele><time>2026-04-11T13:16:23Z</time></trkpt><trkpt lat="41.26997260947351" lon="13.948756167973563"><ele>450.0</ele><time>2026-04-11T13:16:24Z</time></trkpt><trkpt lat="41.26991769377941" lon="13.948589146117078"><ele>450.0</ele><time>2026-04-11T13:16:25Z</time></trkpt><trkpt lat="41.26986964510668" lon="13.94845049222486"><ele>450.0</ele><time>2026-04-11T13:16:26Z</time></trkpt><trkpt lat="41.269855885219705" lon="13.948320875432785"><ele>450.0</ele><time>2026-04-11T13:16:27Z</time></trkpt><trkpt lat="41.269852636395" lon="13.948179319481191"><ele>449.4</ele><time>2026-04-11T13:16:28Z</time></trkpt><trkpt lat="41.26989174271884" lon="13.948018464078094"><ele>448.8</ele><time>2026-04-11T13:16:29Z</time></trkpt><trkpt lat="41.26993351953797" lon="13.947898805909492"><ele>448.20000000000005</ele><time>2026-04-11T13:16:30Z</time></trkpt><trkpt lat="41.26998555964093" lon="13.947811779801123"><ele>447.6</ele><time>2026-04-11T13:16:31Z</time></trkpt><trkpt lat="41.27004889595328" lon="13.94776080321609"><ele>447.0</ele><time>2026-04-11T13:16:32Z</time></trkpt><trkpt lat="41.270131315623686" lon="13.947743418634776"><ele>447.0</ele><time>2026-04-11T13:16:33Z</time></trkpt><trkpt lat="41.2702359453169" lon="13.947775665949242"><ele>447.00000000000006</ele><time>2026-04-11T13:16:34Z</time></trkpt><trkpt lat="41.27035498946841" lon="13.947809179910523"><ele>447.00000000000006</ele><time>2026-04-11T13:16:35Z</time></trkpt><trkpt lat="41.27044587586303" lon="13.947861634075185"><ele>447.0</ele><time>2026-04-11T13:16:36Z</time></trkpt><trkpt lat="41.27052074107289" lon="13.947852689331265"><ele>447.0</ele><time>2026-04-11T13:16:37Z</time></trkpt><trkpt lat="41.27057003638005" lon="13.947799906133104"><ele>447.0</ele><time>2026-04-11T13:16:38Z</time></trkpt><trkpt lat="41.27060130315446" lon="13.947701517511954"><ele>447.00000000000006</ele><time>2026-04-11T13:16:39Z</time></trkpt><trkpt lat="41.27058511638653" lon="13.947605130168686"><ele>447.00000000000006</ele><time>2026-04-11T13:16:40Z</time></trkpt><trkpt lat="41.27052568115889" lon="13.947473095652771"><ele>447.0</ele><time>2026-04-11T13:16:41Z</time></trkpt><trkpt lat="41.270435788022176" lon="13.947337495077312"><ele>447.0</ele><time>2026-04-11T13:16:42Z</time></trkpt><trkpt lat="41.27036246666927" lon="13.947152901334444"><ele>445.25</ele><time>2026-04-11T13:16:43Z</time></trkpt><trkpt lat="41.27028664946206" lon="13.946999170073529"><ele>443.5</ele><time>2026-04-11T13:16:44Z</time></trkpt><trkpt lat="41.27021713069611" lon="13.946843776760867"><ele>441.75</ele><time>2026-04-11T13:16:45Z</time></trkpt><trkpt lat="41.27015545312596" lon="13.946714725631605"><ele>440.0</ele><time>2026-04-11T13:16:46Z</time></trkpt><trkpt lat="41.270137441856235" lon="13.946584170364899"><ele>438.2</ele><time>2026-04-11T13:16:47Z</time></trkpt><trkpt lat="41.270148147441866" lon="13.946455897664514"><ele>436.4</ele><time>2026-04-11T13:16:48.001Z</time></trkpt><trkpt lat="41.270198462864315" lon="13.946347081910924"><ele>434.6</ele><time>2026-04-11T13:16:49.001Z</time></trkpt><trkpt lat="41.27028247890195" lon="13.946261999210398"><ele>432.8</ele><time>2026-04-11T13:16:50.001Z</time></trkpt><trkpt lat="41.270379768115895" lon="13.946216340236301"><ele>431.0</ele><time>2026-04-11T13:16:51.001Z</time></trkpt><trkpt lat="41.270513738025635" lon="13.946204281994046"><ele>435.25</ele><time>2026-04-11T13:16:52.001Z</time></trkpt><trkpt lat="41.270677206437774" lon="13.946215543841396"><ele>439.5</ele><time>2026-04-11T13:16:53.001Z</time></trkpt><trkpt lat="41.270812424937255" lon="13.946218934683365"><ele>443.75</ele><time>2026-04-11T13:16:54.001Z</time></trkpt><trkpt lat="41.27091983432172" lon="13.946223918933924"><ele>448.0</ele><time>2026-04-11T13:16:55.001Z</time></trkpt><trkpt lat="41.271011169131256" lon="13.946217143275176"><ele>448.0</ele><time>2026-04-11T13:16:56.001Z</time></trkpt><trkpt lat="41.27107584712757" lon="13.946160280449568"><ele>447.99999999999994</ele><time>2026-04-11T13:16:57.001Z</time></trkpt><trkpt lat="41.27111349661638" lon="13.94607485033745"><ele>447.99999999999994</ele><time>2026-04-11T13:16:58.001Z</time></trkpt><trkpt lat="41.27110344731394" lon="13.945861861334752"><ele>448.0</ele><time>2026-04-11T13:17:00.001Z</time></trkpt><trkpt lat="41.27098684825247" lon="13.945778237168811"><ele>448.0</ele><time>2026-04-11T13:17:01.001Z</time></trkpt><trkpt lat="41.270881702483265" lon="13.945686872775399"><ele>443.33333333333337</ele><time>2026-04-11T13:17:02.001Z</time></trkpt><trkpt lat="41.27079234818541" lon="13.945584048911538"><ele>438.66666666666663</ele><time>2026-04-11T13:17:03.001Z</time></trkpt><trkpt lat="41.270706006335416" lon="13.945415881873393"><ele>434.0</ele><time>2026-04-11T13:17:04.001Z</time></trkpt><trkpt lat="41.27062438008446" lon="13.945204714801571"><ele>429.5</ele><time>2026-04-11T13:17:05.001Z</time></trkpt><trkpt lat="41.27057366369456" lon="13.945021807042604"><ele>425.0</ele><time>2026-04-11T13:17:06.001Z</time></trkpt><trkpt lat="41.27053752592129" lon="13.944876983753282"><ele>420.5</ele><time>2026-04-11T13:17:07.001Z</time></trkpt><trkpt lat="41.27052731480655" lon="13.944746454445667"><ele>416.0</ele><time>2026-04-11T13:17:08.001Z</time></trkpt><trkpt lat="41.27054758311524" lon="13.944588511413423"><ele>416.0</ele><time>2026-04-11T13:17:09.001Z</time></trkpt><trkpt lat="41.27060137094923" lon="13.944429012848301"><ele>416.0</ele><time>2026-04-11T13:17:10.001Z</time></trkpt><trkpt lat="41.270706558426824" lon="13.944302656266247"><ele>416.0</ele><time>2026-04-11T13:17:11.001Z</time></trkpt><trkpt lat="41.270814750047975" lon="13.944161707516853"><ele>416.0</ele><time>2026-04-11T13:17:12.001Z</time></trkpt><trkpt lat="41.27092241841238" lon="13.944025838656428"><ele>418.75</ele><time>2026-04-11T13:17:13.001Z</time></trkpt><trkpt lat="41.27101317430281" lon="13.943872552994348"><ele>421.5</ele><time>2026-04-11T13:17:14.001Z</time></trkpt><trkpt lat="41.27111249621633" lon="13.943747355144321"><ele>424.25</ele><time>2026-04-11T13:17:15.001Z</time></trkpt><trkpt lat="41.271201289738016" lon="13.943638294813875"><ele>427.0</ele><time>2026-04-11T13:17:16.001Z</time></trkpt><trkpt lat="41.27127858088798" lon="13.94354165529347"><ele>427.00000000000006</ele><time>2026-04-11T13:17:17.001Z</time></trkpt><trkpt lat="41.2713521243528" lon="13.943446678304856"><ele>427.0</ele><time>2026-04-11T13:17:18.001Z</time></trkpt><trkpt lat="41.27142076160687" lon="13.94336970752222"><ele>427.0</ele><time>2026-04-11T13:17:19.001Z</time></trkpt><trkpt lat="41.271487081413156" lon="13.943314046103465"><ele>427.0</ele><time>2026-04-11T13:17:20.001Z</time></trkpt><trkpt lat="41.27157043647647" lon="13.943250351445725"><ele>427.00000000000006</ele><time>2026-04-11T13:17:22.001Z</time></trkpt><trkpt lat="41.271640545933074" lon="13.943204944878936"><ele>427.0</ele><time>2026-04-11T13:17:24.001Z</time></trkpt><trkpt lat="41.271737052536736" lon="13.943142572801504"><ele>426.6666666666667</ele><time>2026-04-11T13:17:26.001Z</time></trkpt><trkpt lat="41.27180360449957" lon="13.943104481540171"><ele>426.33333333333337</ele><time>2026-04-11T13:17:27.001Z</time></trkpt><trkpt lat="41.271880766663365" lon="13.943076226522432"><ele>426.0</ele><time>2026-04-11T13:17:31.001Z</time></trkpt><trkpt lat="41.271954002795965" lon="13.94303986676736"><ele>425.66666666666663</ele><time>2026-04-11T13:17:45.001Z</time></trkpt><trkpt lat="41.27202242559345" lon="13.942986377642859"><ele>425.3333333333333</ele><time>2026-04-11T13:17:49.001Z</time></trkpt><trkpt lat="41.272082375396465" lon="13.94289204578179"><ele>425.0</ele><time>2026-04-11T13:17:52.001Z</time></trkpt><trkpt lat="41.27211267332052" lon="13.942811458036898"><ele>424.99999999999994</ele><time>2026-04-11T13:17:54.001Z</time></trkpt><trkpt lat="41.27209789004121" lon="13.942903086771091"><ele>425.0</ele><time>2026-04-11T13:18:33Z</time></trkpt><trkpt lat="41.27206897693176" lon="13.942982989165921"><ele>425.0</ele><time>2026-04-11T13:18:39Z</time></trkpt><trkpt lat="41.27202249287397" lon="13.94305658880858"><ele>425.0</ele><time>2026-04-11T13:18:45Z</time></trkpt><trkpt lat="41.271950284549305" lon="13.943079474732802"><ele>424.99999999999994</ele><time>2026-04-11T13:19:01.001Z</time></trkpt><trkpt lat="41.27198983419751" lon="13.943153306502536"><ele>425.0</ele><time>2026-04-11T13:19:34.001Z</time></trkpt><trkpt lat="41.271946783398526" lon="13.943032621575636"><ele>424.99999999999994</ele><time>2026-04-11T13:22:04.004Z</time></trkpt><trkpt lat="41.272023350153" lon="13.943024906538582"><ele>425.0</ele><time>2026-04-11T13:29:41.001Z</time></trkpt><trkpt lat="41.27206213959698" lon="13.942939659144784"><ele>425.0</ele><time>2026-04-11T13:29:47.001Z</time></trkpt><trkpt lat="41.27212216633763" lon="13.942880301938317"><ele>425.0</ele><time>2026-04-11T13:29:53.001Z</time></trkpt><trkpt lat="41.27214290083016" lon="13.942792119669363"><ele>424.99999999999994</ele><time>2026-04-11T13:30:00.001Z</time></trkpt><trkpt lat="41.27206903678715" lon="13.942640978039263"><ele>425.0</ele><time>2026-04-11T13:31:12Z</time></trkpt><trkpt lat="41.272069700877104" lon="13.94253525306694"><ele>423.49999999999994</ele><time>2026-04-11T13:31:13Z</time></trkpt><trkpt lat="41.27207822421946" lon="13.942440727255208"><ele>422.0</ele><time>2026-04-11T13:31:14Z</time></trkpt><trkpt lat="41.27208824790038" lon="13.942336315917142"><ele>420.5</ele><time>2026-04-11T13:31:15Z</time></trkpt><trkpt lat="41.272099608542916" lon="13.94222443221887"><ele>419.0</ele><time>2026-04-11T13:31:16Z</time></trkpt><trkpt lat="41.27212466413991" lon="13.942125750836412"><ele>417.49999999999994</ele><time>2026-04-11T13:31:17Z</time></trkpt><trkpt lat="41.27217104223883" lon="13.942029359806362"><ele>416.0</ele><time>2026-04-11T13:31:18Z</time></trkpt><trkpt lat="41.27221045727275" lon="13.941888047588177"><ele>416.75</ele><time>2026-04-11T13:31:19.001Z</time></trkpt><trkpt lat="41.27229731806556" lon="13.941772687954696"><ele>417.5</ele><time>2026-04-11T13:31:20.001Z</time></trkpt><trkpt lat="41.272355540527954" lon="13.941683648857854"><ele>418.25</ele><time>2026-04-11T13:31:21.001Z</time></trkpt><trkpt lat="41.27245984687843" lon="13.941571781853845"><ele>419.0</ele><time>2026-04-11T13:31:22.001Z</time></trkpt><trkpt lat="41.27256224177956" lon="13.941474196657813"><ele>419.0</ele><time>2026-04-11T13:31:23.001Z</time></trkpt><trkpt lat="41.27266267610757" lon="13.941361232702572"><ele>419.0</ele><time>2026-04-11T13:31:24.001Z</time></trkpt><trkpt lat="41.27273927774314" lon="13.941311678868084"><ele>419.0</ele><time>2026-04-11T13:31:25.001Z</time></trkpt><trkpt lat="41.27283749545502" lon="13.941263237273606"><ele>419.0</ele><time>2026-04-11T13:31:26.001Z</time></trkpt><trkpt lat="41.27290873391826" lon="13.941187405492716"><ele>419.0</ele><time>2026-04-11T13:31:27.001Z</time></trkpt><trkpt lat="41.272985126887505" lon="13.941053134307847"><ele>418.99999999999994</ele><time>2026-04-11T13:31:28.001Z</time></trkpt><trkpt lat="41.27299180965548" lon="13.94093607137991"><ele>419.0</ele><time>2026-04-11T13:31:29.001Z</time></trkpt><trkpt lat="41.27299149913282" lon="13.940810552357704"><ele>419.0</ele><time>2026-04-11T13:31:30.001Z</time></trkpt><trkpt lat="41.27300272365201" lon="13.940695483202031"><ele>419.0</ele><time>2026-04-11T13:31:31.001Z</time></trkpt><trkpt lat="41.27301515514264" lon="13.940578904072751"><ele>418.99999999999994</ele><time>2026-04-11T13:31:32.001Z</time></trkpt><trkpt lat="41.2730834020167" lon="13.940523255692849"><ele>419.0</ele><time>2026-04-11T13:31:33.001Z</time></trkpt><trkpt lat="41.273169165737094" lon="13.940475124567374"><ele>419.75</ele><time>2026-04-11T13:31:34.001Z</time></trkpt><trkpt lat="41.27328289939805" lon="13.940449308778836"><ele>420.5</ele><time>2026-04-11T13:31:35.001Z</time></trkpt><trkpt lat="41.27339902147867" lon="13.940459701575344"><ele>421.25</ele><time>2026-04-11T13:31:36.001Z</time></trkpt><trkpt lat="41.27354186268095" lon="13.940501615838112"><ele>422.0</ele><time>2026-04-11T13:31:37.001Z</time></trkpt><trkpt lat="41.27365463517086" lon="13.940549700941903"><ele>422.0</ele><time>2026-04-11T13:31:38.001Z</time></trkpt><trkpt lat="41.273736105189236" lon="13.940588021251223"><ele>422.0</ele><time>2026-04-11T13:31:39.001Z</time></trkpt><trkpt lat="41.273798615230405" lon="13.940613954650928"><ele>422.0</ele><time>2026-04-11T13:31:40.001Z</time></trkpt><trkpt lat="41.27392742545677" lon="13.940434601606547"><ele>422.0</ele><time>2026-04-11T13:31:42.001Z</time></trkpt><trkpt lat="41.2739376798597" lon="13.94032322244598"><ele>422.0</ele><time>2026-04-11T13:31:43.001Z</time></trkpt><trkpt lat="41.27391089059264" lon="13.9401958714354"><ele>419.40000000000003</ele><time>2026-04-11T13:31:44.001Z</time></trkpt><trkpt lat="41.27386753576211" lon="13.940018997748705"><ele>416.8</ele><time>2026-04-11T13:31:45.001Z</time></trkpt><trkpt lat="41.27381327512636" lon="13.939888599363004"><ele>414.2</ele><time>2026-04-11T13:31:46.001Z</time></trkpt><trkpt lat="41.273766579034415" lon="13.939763155036534"><ele>411.6</ele><time>2026-04-11T13:31:47.001Z</time></trkpt><trkpt lat="41.27374529679967" lon="13.939648493129337"><ele>409.0</ele><time>2026-04-11T13:31:48.001Z</time></trkpt><trkpt lat="41.273749025799916" lon="13.939519156997035"><ele>409.0</ele><time>2026-04-11T13:31:49.001Z</time></trkpt><trkpt lat="41.27379609885198" lon="13.939381440860027"><ele>409.0</ele><time>2026-04-11T13:31:50.001Z</time></trkpt><trkpt lat="41.27388537569525" lon="13.939333223863132"><ele>409.0</ele><time>2026-04-11T13:31:51.001Z</time></trkpt><trkpt lat="41.273983373700844" lon="13.939291957945361"><ele>409.0</ele><time>2026-04-11T13:31:52.001Z</time></trkpt><trkpt lat="41.27411504612131" lon="13.939234075128429"><ele>410.0</ele><time>2026-04-11T13:31:53.001Z</time></trkpt><trkpt lat="41.27426948772553" lon="13.939158344093387"><ele>411.0</ele><time>2026-04-11T13:31:54.001Z</time></trkpt><trkpt lat="41.27442325290897" lon="13.939049089213452"><ele>412.0</ele><time>2026-04-11T13:31:55.001Z</time></trkpt><trkpt lat="41.27457297191769" lon="13.93896808640415"><ele>412.0</ele><time>2026-04-11T13:31:56.001Z</time></trkpt><trkpt lat="41.274690748803216" lon="13.938887564747882"><ele>412.0</ele><time>2026-04-11T13:31:57.001Z</time></trkpt><trkpt lat="41.27479342684174" lon="13.938834648876991"><ele>412.0</ele><time>2026-04-11T13:31:58.001Z</time></trkpt><trkpt lat="41.274868098297986" lon="13.938776043748451"><ele>412.0</ele><time>2026-04-11T13:31:59.001Z</time></trkpt><trkpt lat="41.27492146866883" lon="13.938701250215198"><ele>412.0</ele><time>2026-04-11T13:32:00.001Z</time></trkpt><trkpt lat="41.274946445095594" lon="13.938595978241342"><ele>413.0</ele><time>2026-04-11T13:32:01.001Z</time></trkpt><trkpt lat="41.27494016582259" lon="13.93846063461107"><ele>414.0</ele><time>2026-04-11T13:32:02.001Z</time></trkpt><trkpt lat="41.27489142074571" lon="13.938309118359646"><ele>415.0</ele><time>2026-04-11T13:32:03.001Z</time></trkpt><trkpt lat="41.274800400872046" lon="13.93819170210545"><ele>416.0</ele><time>2026-04-11T13:32:04.001Z</time></trkpt><trkpt lat="41.27473256029827" lon="13.938080790782262"><ele>415.3333333333333</ele><time>2026-04-11T13:32:05.001Z</time></trkpt><trkpt lat="41.27467324939916" lon="13.937979432041677"><ele>414.66666666666663</ele><time>2026-04-11T13:32:06.001Z</time></trkpt><trkpt lat="41.274633631969735" lon="13.937885890461626"><ele>414.0</ele><time>2026-04-11T13:32:07.001Z</time></trkpt><trkpt lat="41.27462882710033" lon="13.937792300242478"><ele>413.33333333333337</ele><time>2026-04-11T13:32:08.001Z</time></trkpt><trkpt lat="41.27466890198251" lon="13.937703751419825"><ele>412.6666666666667</ele><time>2026-04-11T13:32:09.001Z</time></trkpt><trkpt lat="41.274746202544605" lon="13.937593347543947"><ele>412.0</ele><time>2026-04-11T13:32:10.001Z</time></trkpt><trkpt lat="41.27485016269001" lon="13.937468356241475"><ele>412.0</ele><time>2026-04-11T13:32:11.001Z</time></trkpt><trkpt lat="41.27494726313136" lon="13.937331564441378"><ele>412.0</ele><time>2026-04-11T13:32:12.001Z</time></trkpt><trkpt lat="41.27504857354077" lon="13.937181903936844"><ele>412.0</ele><time>2026-04-11T13:32:13.001Z</time></trkpt><trkpt lat="41.27512702480595" lon="13.937015855354227"><ele>412.0</ele><time>2026-04-11T13:32:14.001Z</time></trkpt><trkpt lat="41.27519020750858" lon="13.936836171328187"><ele>410.0</ele><time>2026-04-11T13:32:15.001Z</time></trkpt><trkpt lat="41.27523037677884" lon="13.936660818173737"><ele>408.0</ele><time>2026-04-11T13:32:16.001Z</time></trkpt><trkpt lat="41.27528074589309" lon="13.936506953279565"><ele>406.0</ele><time>2026-04-11T13:32:17.001Z</time></trkpt><trkpt lat="41.27531733318104" lon="13.936368510430556"><ele>404.0</ele><time>2026-04-11T13:32:18.001Z</time></trkpt><trkpt lat="41.27535351150942" lon="13.936240310995705"><ele>404.0</ele><time>2026-04-11T13:32:19.001Z</time></trkpt><trkpt lat="41.27542711768197" lon="13.936139405139993"><ele>404.0</ele><time>2026-04-11T13:32:20.001Z</time></trkpt><trkpt lat="41.27551467182676" lon="13.936064361926055"><ele>404.0</ele><time>2026-04-11T13:32:21.001Z</time></trkpt><trkpt lat="41.275617357577474" lon="13.936057339931521"><ele>404.0</ele><time>2026-04-11T13:32:22.001Z</time></trkpt><trkpt lat="41.275738811435374" lon="13.936053639261381"><ele>404.0</ele><time>2026-04-11T13:32:23.001Z</time></trkpt><trkpt lat="41.275877447044195" lon="13.936043802278048"><ele>406.5</ele><time>2026-04-11T13:32:24.001Z</time></trkpt><trkpt lat="41.27600183492712" lon="13.93603343658391"><ele>409.0</ele><time>2026-04-11T13:32:25.001Z</time></trkpt><trkpt lat="41.27611210882015" lon="13.936021583476089"><ele>411.5</ele><time>2026-04-11T13:32:26.001Z</time></trkpt><trkpt lat="41.276231111923025" lon="13.93601151681476"><ele>414.0</ele><time>2026-04-11T13:32:27.001Z</time></trkpt><trkpt lat="41.27635055389553" lon="13.936006919825035"><ele>414.2</ele><time>2026-04-11T13:32:28.001Z</time></trkpt><trkpt lat="41.276461746306744" lon="13.936007144135118"><ele>414.4</ele><time>2026-04-11T13:32:29.001Z</time></trkpt><trkpt lat="41.27655676706814" lon="13.936010536166906"><ele>414.6</ele><time>2026-04-11T13:32:30.001Z</time></trkpt><trkpt lat="41.27663727402949" lon="13.936000755164352"><ele>414.8</ele><time>2026-04-11T13:32:31.001Z</time></trkpt><trkpt lat="41.27671089060904" lon="13.935959024885339"><ele>415.0</ele><time>2026-04-11T13:32:32.001Z</time></trkpt><trkpt lat="41.276742097471306" lon="13.935849188831163"><ele>413.0</ele><time>2026-04-11T13:32:33.001Z</time></trkpt><trkpt lat="41.27674517922899" lon="13.935745415918321"><ele>411.0</ele><time>2026-04-11T13:32:34.001Z</time></trkpt><trkpt lat="41.27671648729523" lon="13.93558559503746"><ele>409.0</ele><time>2026-04-11T13:32:35.001Z</time></trkpt><trkpt lat="41.276695881547795" lon="13.935411673845104"><ele>407.0</ele><time>2026-04-11T13:32:36.001Z</time></trkpt><trkpt lat="41.27668831513935" lon="13.935233522932482"><ele>407.0</ele><time>2026-04-11T13:32:37.001Z</time></trkpt><trkpt lat="41.27667896365032" lon="13.935093901334366"><ele>407.0</ele><time>2026-04-11T13:32:38.001Z</time></trkpt><trkpt lat="41.27669683162215" lon="13.934965117531661"><ele>407.0</ele><time>2026-04-11T13:32:39Z</time></trkpt><trkpt lat="41.27670446587645" lon="13.93485488595567"><ele>407.0</ele><time>2026-04-11T13:32:40Z</time></trkpt><trkpt lat="41.27679150111647" lon="13.934754177741173"><ele>407.0</ele><time>2026-04-11T13:32:41Z</time></trkpt><trkpt lat="41.27686410356899" lon="13.934619634355048"><ele>406.0</ele><time>2026-04-11T13:32:42Z</time></trkpt><trkpt lat="41.27692961590311" lon="13.934471110373943"><ele>405.0</ele><time>2026-04-11T13:32:43Z</time></trkpt><trkpt lat="41.27695467916413" lon="13.934291770985407"><ele>404.0</ele><time>2026-04-11T13:32:44Z</time></trkpt><trkpt lat="41.27696353423329" lon="13.93409144096014"><ele>403.0</ele><time>2026-04-11T13:32:45Z</time></trkpt><trkpt lat="41.27694106417016" lon="13.933900834583719"><ele>402.0</ele><time>2026-04-11T13:32:46Z</time></trkpt><trkpt lat="41.27695951135885" lon="13.933766576592285"><ele>401.0</ele><time>2026-04-11T13:32:47Z</time></trkpt><trkpt lat="41.276955973107405" lon="13.933625316483166"><ele>400.0</ele><time>2026-04-11T13:32:48Z</time></trkpt><trkpt lat="41.27696385277183" lon="13.933505946575393"><ele>399.0</ele><time>2026-04-11T13:32:49Z</time></trkpt><trkpt lat="41.277006580453744" lon="13.933402680501567"><ele>398.0</ele><time>2026-04-11T13:32:50Z</time></trkpt><trkpt lat="41.277083255140695" lon="13.933292485755768"><ele>396.0</ele><time>2026-04-11T13:32:51Z</time></trkpt><trkpt lat="41.27717535742785" lon="13.933161016230073"><ele>394.0</ele><time>2026-04-11T13:32:52Z</time></trkpt><trkpt lat="41.277284349703756" lon="13.933018242700227"><ele>392.0</ele><time>2026-04-11T13:32:53Z</time></trkpt><trkpt lat="41.277394548307925" lon="13.932858231686481"><ele>393.66666666666663</ele><time>2026-04-11T13:32:54Z</time></trkpt><trkpt lat="41.277520379685825" lon="13.932699925133102"><ele>395.33333333333337</ele><time>2026-04-11T13:32:55Z</time></trkpt><trkpt lat="41.27764627220149" lon="13.932574191684726"><ele>397.0</ele><time>2026-04-11T13:32:56Z</time></trkpt><trkpt lat="41.27776976215005" lon="13.932474660674666"><ele>397.0</ele><time>2026-04-11T13:32:57Z</time></trkpt><trkpt lat="41.27786136013646" lon="13.932397232995115"><ele>397.0</ele><time>2026-04-11T13:32:58Z</time></trkpt><trkpt lat="41.277929396841564" lon="13.932314042546059"><ele>397.0</ele><time>2026-04-11T13:32:59Z</time></trkpt><trkpt lat="41.27797438822665" lon="13.932199170017245"><ele>397.0</ele><time>2026-04-11T13:33:00Z</time></trkpt><trkpt lat="41.27795871345756" lon="13.932083330388888"><ele>397.0</ele><time>2026-04-11T13:33:01Z</time></trkpt><trkpt lat="41.27793319290181" lon="13.931943052172842"><ele>397.0</ele><time>2026-04-11T13:33:02Z</time></trkpt><trkpt lat="41.27790044278372" lon="13.931770450059814"><ele>397.0</ele><time>2026-04-11T13:33:03Z</time></trkpt><trkpt lat="41.27788665601422" lon="13.931627830018185"><ele>397.0</ele><time>2026-04-11T13:33:04Z</time></trkpt><trkpt lat="41.27787111042835" lon="13.931498168174967"><ele>397.0</ele><time>2026-04-11T13:33:05Z</time></trkpt><trkpt lat="41.277835081151885" lon="13.931390571510942"><ele>397.0</ele><time>2026-04-11T13:33:06Z</time></trkpt><trkpt lat="41.27779410809774" lon="13.931279616532567"><ele>396.1666666666667</ele><time>2026-04-11T13:33:07Z</time></trkpt><trkpt lat="41.2777947823566" lon="13.931172458039521"><ele>395.33333333333337</ele><time>2026-04-11T13:33:08Z</time></trkpt><trkpt lat="41.277825224993855" lon="13.93106858111713"><ele>394.5</ele><time>2026-04-11T13:33:09Z</time></trkpt><trkpt lat="41.27789145677681" lon="13.930980921894568"><ele>393.66666666666663</ele><time>2026-04-11T13:33:10Z</time></trkpt><trkpt lat="41.27796818745566" lon="13.930917718505347"><ele>392.8333333333333</ele><time>2026-04-11T13:33:11Z</time></trkpt><trkpt lat="41.27805331155613" lon="13.930896934233184"><ele>392.0</ele><time>2026-04-11T13:33:12Z</time></trkpt><trkpt lat="41.27813602667094" lon="13.930981929890569"><ele>394.75</ele><time>2026-04-11T13:33:13Z</time></trkpt><trkpt lat="41.27826022964106" lon="13.931050400020716"><ele>397.5</ele><time>2026-04-11T13:33:14Z</time></trkpt><trkpt lat="41.27839304029196" lon="13.93114758004922"><ele>400.25</ele><time>2026-04-11T13:33:15Z</time></trkpt><trkpt lat="41.27852051891081" lon="13.93123195802108"><ele>403.0</ele><time>2026-04-11T13:33:16Z</time></trkpt><trkpt lat="41.27862094406906" lon="13.931308494043865"><ele>403.0</ele><time>2026-04-11T13:33:17Z</time></trkpt><trkpt lat="41.27871635731555" lon="13.931350886156102"><ele>403.0</ele><time>2026-04-11T13:33:18Z</time></trkpt><trkpt lat="41.27880100237209" lon="13.931347063212593"><ele>403.0</ele><time>2026-04-11T13:33:19Z</time></trkpt><trkpt lat="41.278860956573475" lon="13.931295066431366"><ele>403.0</ele><time>2026-04-11T13:33:20Z</time></trkpt><trkpt lat="41.27890043923103" lon="13.931187029347482"><ele>403.0</ele><time>2026-04-11T13:33:21Z</time></trkpt><trkpt lat="41.27892680144135" lon="13.931050923780996"><ele>402.75</ele><time>2026-04-11T13:33:22Z</time></trkpt><trkpt lat="41.27893856877587" lon="13.930885384584714"><ele>402.5</ele><time>2026-04-11T13:33:23Z</time></trkpt><trkpt lat="41.27901458374615" lon="13.930706160178916"><ele>402.25</ele><time>2026-04-11T13:33:24Z</time></trkpt><trkpt lat="41.27907310244839" lon="13.930535884548101"><ele>402.0</ele><time>2026-04-11T13:33:25Z</time></trkpt><trkpt lat="41.27908652805606" lon="13.930359464934957"><ele>402.0</ele><time>2026-04-11T13:33:26Z</time></trkpt><trkpt lat="41.27906531991242" lon="13.930164967651582"><ele>402.0</ele><time>2026-04-11T13:33:27Z</time></trkpt><trkpt lat="41.279028632771414" lon="13.929962899833102"><ele>402.0</ele><time>2026-04-11T13:33:28Z</time></trkpt><trkpt lat="41.279019142616775" lon="13.92973371608437"><ele>401.33333333333337</ele><time>2026-04-11T13:33:29Z</time></trkpt><trkpt lat="41.278977004107716" lon="13.929491162466267"><ele>400.6666666666667</ele><time>2026-04-11T13:33:30Z</time></trkpt><trkpt lat="41.27897914836887" lon="13.929281465789323"><ele>400.0</ele><time>2026-04-11T13:33:31Z</time></trkpt><trkpt lat="41.27897330486494" lon="13.929124229213032"><ele>400.0</ele><time>2026-04-11T13:33:32Z</time></trkpt><trkpt lat="41.27898617586792" lon="13.928993916460996"><ele>400.0</ele><time>2026-04-11T13:33:33Z</time></trkpt><trkpt lat="41.27901869375149" lon="13.928883453301374"><ele>400.0</ele><time>2026-04-11T13:33:34Z</time></trkpt><trkpt lat="41.27908338034443" lon="13.928812585790581"><ele>400.0</ele><time>2026-04-11T13:33:35Z</time></trkpt><trkpt lat="41.279166079706904" lon="13.928767757623342"><ele>400.0</ele><time>2026-04-11T13:33:36Z</time></trkpt><trkpt lat="41.27928401470384" lon="13.928774026921758"><ele>400.0</ele><time>2026-04-11T13:33:37Z</time></trkpt><trkpt lat="41.2794244950518" lon="13.928818209848108"><ele>400.0</ele><time>2026-04-11T13:33:38Z</time></trkpt><trkpt lat="41.27959270716208" lon="13.928841612086794"><ele>400.0</ele><time>2026-04-11T13:33:39Z</time></trkpt><trkpt lat="41.27977802079937" lon="13.928870423420236"><ele>401.33333333333337</ele><time>2026-04-11T13:33:40Z</time></trkpt><trkpt lat="41.27997291446767" lon="13.92888502885542"><ele>402.66666666666663</ele><time>2026-04-11T13:33:41Z</time></trkpt><trkpt lat="41.280157895893694" lon="13.92890570432335"><ele>404.0</ele><time>2026-04-11T13:33:42Z</time></trkpt><trkpt lat="41.280316570720025" lon="13.928891493044043"><ele>404.0</ele><time>2026-04-11T13:33:43Z</time></trkpt><trkpt lat="41.280458233363625" lon="13.928922698034487"><ele>404.0</ele><time>2026-04-11T13:33:44Z</time></trkpt><trkpt lat="41.28058501115128" lon="13.928954518010848"><ele>404.0</ele><time>2026-04-11T13:33:45Z</time></trkpt><trkpt lat="41.28070644227043" lon="13.929047639361746"><ele>404.0</ele><time>2026-04-11T13:33:46Z</time></trkpt><trkpt lat="41.28085412794026" lon="13.929194292021316"><ele>409.0</ele><time>2026-04-11T13:33:47Z</time></trkpt><trkpt lat="41.28100663764418" lon="13.92934495097491"><ele>414.0</ele><time>2026-04-11T13:33:48Z</time></trkpt><trkpt lat="41.28118316826826" lon="13.929464402983278"><ele>419.0</ele><time>2026-04-11T13:33:49Z</time></trkpt><trkpt lat="41.2813335864876" lon="13.92956166896292"><ele>417.0</ele><time>2026-04-11T13:33:50Z</time></trkpt><trkpt lat="41.28144827090192" lon="13.929658841670443"><ele>415.0</ele><time>2026-04-11T13:33:51Z</time></trkpt><trkpt lat="41.28154075471146" lon="13.929727234533889"><ele>413.0</ele><time>2026-04-11T13:33:52Z</time></trkpt><trkpt lat="41.28163437845034" lon="13.929750365278087"><ele>411.0</ele><time>2026-04-11T13:33:53Z</time></trkpt><trkpt lat="41.28171368549888" lon="13.92971975946526"><ele>409.0</ele><time>2026-04-11T13:33:54Z</time></trkpt><trkpt lat="41.28179959690889" lon="13.929626758336825"><ele>409.0</ele><time>2026-04-11T13:33:55Z</time></trkpt><trkpt lat="41.28187208151293" lon="13.929471431204194"><ele>409.0</ele><time>2026-04-11T13:33:56Z</time></trkpt><trkpt lat="41.28192865364404" lon="13.929288683180259"><ele>409.0</ele><time>2026-04-11T13:33:57.001Z</time></trkpt><trkpt lat="41.28198791817016" lon="13.929156567469523"><ele>409.0</ele><time>2026-04-11T13:33:58.001Z</time></trkpt><trkpt lat="41.28205283521197" lon="13.929050957320024"><ele>409.5</ele><time>2026-04-11T13:33:59.001Z</time></trkpt><trkpt lat="41.28216831805473" lon="13.928944743484944"><ele>410.0</ele><time>2026-04-11T13:34:00.001Z</time></trkpt><trkpt lat="41.28228379799075" lon="13.928848382923553"><ele>410.5</ele><time>2026-04-11T13:34:01.001Z</time></trkpt><trkpt lat="41.28239814114653" lon="13.928705530783665"><ele>411.0</ele><time>2026-04-11T13:34:02.001Z</time></trkpt><trkpt lat="41.282495679179505" lon="13.928619829869167"><ele>411.0</ele><time>2026-04-11T13:34:03.001Z</time></trkpt><trkpt lat="41.28256839851237" lon="13.928539904611497"><ele>411.0</ele><time>2026-04-11T13:34:04.001Z</time></trkpt><trkpt lat="41.28267369797555" lon="13.928520722101661"><ele>411.0</ele><time>2026-04-11T13:34:05.001Z</time></trkpt><trkpt lat="41.28277214358711" lon="13.928575597683322"><ele>411.0</ele><time>2026-04-11T13:34:06.001Z</time></trkpt><trkpt lat="41.28285172249792" lon="13.928657619595356"><ele>411.0</ele><time>2026-04-11T13:34:07.001Z</time></trkpt><trkpt lat="41.282939028118044" lon="13.928784575178362"><ele>411.0</ele><time>2026-04-11T13:34:08.001Z</time></trkpt><trkpt lat="41.28305470026453" lon="13.928934474611722"><ele>411.0</ele><time>2026-04-11T13:34:09.001Z</time></trkpt><trkpt lat="41.28319432336203" lon="13.929051048309697"><ele>411.0</ele><time>2026-04-11T13:34:10.001Z</time></trkpt><trkpt lat="41.283296132896844" lon="13.929153780204325"><ele>410.8333333333333</ele><time>2026-04-11T13:34:11.001Z</time></trkpt><trkpt lat="41.2833727906925" lon="13.929226418712046"><ele>410.66666666666663</ele><time>2026-04-11T13:34:12.001Z</time></trkpt><trkpt lat="41.28344184396925" lon="13.929254728679675"><ele>410.5</ele><time>2026-04-11T13:34:13.001Z</time></trkpt><trkpt lat="41.283518986248836" lon="13.92923073808099"><ele>410.3333333333333</ele><time>2026-04-11T13:34:14.001Z</time></trkpt><trkpt lat="41.283586837934465" lon="13.929160749935013"><ele>410.16666666666663</ele><time>2026-04-11T13:34:15.001Z</time></trkpt><trkpt lat="41.28362972930875" lon="13.929028545322277"><ele>410.0</ele><time>2026-04-11T13:34:16.001Z</time></trkpt><trkpt lat="41.28367190725405" lon="13.928857439289251"><ele>410.0</ele><time>2026-04-11T13:34:17.001Z</time></trkpt><trkpt lat="41.28372477011775" lon="13.92867800524313"><ele>410.0</ele><time>2026-04-11T13:34:18.001Z</time></trkpt><trkpt lat="41.28378797601329" lon="13.928553782527057"><ele>410.0</ele><time>2026-04-11T13:34:19.001Z</time></trkpt><trkpt lat="41.2838664449429" lon="13.928440127071921"><ele>410.0</ele><time>2026-04-11T13:34:20.001Z</time></trkpt><trkpt lat="41.283980415923274" lon="13.928379192127244"><ele>409.3333333333333</ele><time>2026-04-11T13:34:21.001Z</time></trkpt><trkpt lat="41.2841232696627" lon="13.928338459746596"><ele>408.66666666666663</ele><time>2026-04-11T13:34:22.001Z</time></trkpt><trkpt lat="41.28429763283163" lon="13.928304423307063"><ele>408.0</ele><time>2026-04-11T13:34:23.001Z</time></trkpt><trkpt lat="41.284491282387506" lon="13.928258603604242"><ele>408.0</ele><time>2026-04-11T13:34:24.001Z</time></trkpt><trkpt lat="41.284663059335635" lon="13.928199929143528"><ele>408.0</ele><time>2026-04-11T13:34:25.001Z</time></trkpt><trkpt lat="41.284807455396006" lon="13.928146900416062"><ele>408.0</ele><time>2026-04-11T13:34:26.001Z</time></trkpt><trkpt lat="41.2849287690466" lon="13.928128350320316"><ele>408.0</ele><time>2026-04-11T13:34:27.001Z</time></trkpt><trkpt lat="41.285052274239455" lon="13.92815295768739"><ele>408.75</ele><time>2026-04-11T13:34:28.001Z</time></trkpt><trkpt lat="41.285182272162736" lon="13.928220033634732"><ele>409.5</ele><time>2026-04-11T13:34:29.001Z</time></trkpt><trkpt lat="41.28532001865655" lon="13.928311908310132"><ele>410.25</ele><time>2026-04-11T13:34:30.001Z</time></trkpt><trkpt lat="41.285447264907894" lon="13.92840737742659"><ele>411.0</ele><time>2026-04-11T13:34:31.001Z</time></trkpt><trkpt lat="41.28555267148718" lon="13.928489495775665"><ele>411.0</ele><time>2026-04-11T13:34:32.001Z</time></trkpt><trkpt lat="41.285638434178914" lon="13.928535965061352"><ele>411.0</ele><time>2026-04-11T13:34:33.001Z</time></trkpt><trkpt lat="41.28571138831356" lon="13.928592247621475"><ele>411.0</ele><time>2026-04-11T13:34:34.001Z</time></trkpt><trkpt lat="41.28585128282786" lon="13.928529906078072"><ele>411.0</ele><time>2026-04-11T13:34:36.001Z</time></trkpt><trkpt lat="41.28589482060074" lon="13.928424515736527"><ele>411.0</ele><time>2026-04-11T13:34:37.001Z</time></trkpt><trkpt lat="41.285893171882186" lon="13.928291480902743"><ele>411.0</ele><time>2026-04-11T13:34:38.001Z</time></trkpt><trkpt lat="41.285872343334226" lon="13.928139659047673"><ele>411.0</ele><time>2026-04-11T13:34:39.001Z</time></trkpt><trkpt lat="41.28585873966492" lon="13.928007416201002"><ele>411.0</ele><time>2026-04-11T13:34:40.001Z</time></trkpt><trkpt lat="41.28587143547495" lon="13.92789139171833"><ele>411.0</ele><time>2026-04-11T13:34:41.001Z</time></trkpt><trkpt lat="41.285921376815594" lon="13.92778210345795"><ele>411.0</ele><time>2026-04-11T13:34:42.001Z</time></trkpt><trkpt lat="41.28600231401286" lon="13.927702237352277"><ele>411.0</ele><time>2026-04-11T13:34:43.001Z</time></trkpt><trkpt lat="41.28612783048851" lon="13.927684125976432"><ele>411.0</ele><time>2026-04-11T13:34:44.001Z</time></trkpt><trkpt lat="41.28627604334086" lon="13.927662578476772"><ele>411.0</ele><time>2026-04-11T13:34:44.999Z</time></trkpt><trkpt lat="41.286437893069824" lon="13.927663731683674"><ele>411.0</ele><time>2026-04-11T13:34:45.999Z</time></trkpt><trkpt lat="41.286581903307855" lon="13.927695086772566"><ele>413.0</ele><time>2026-04-11T13:34:46.999Z</time></trkpt><trkpt lat="41.28670773485137" lon="13.927739018671797"><ele>415.0</ele><time>2026-04-11T13:34:47.999Z</time></trkpt><trkpt lat="41.28681510540236" lon="13.927768002098153"><ele>417.0</ele><time>2026-04-11T13:34:48.999Z</time></trkpt><trkpt lat="41.2869025055541" lon="13.927726052746653"><ele>419.0</ele><time>2026-04-11T13:34:49.999Z</time></trkpt><trkpt lat="41.28698091850198" lon="13.92766863050522"><ele>421.0</ele><time>2026-04-11T13:34:50.999Z</time></trkpt><trkpt lat="41.28705292003416" lon="13.927573906715455"><ele>418.6</ele><time>2026-04-11T13:34:51.999Z</time></trkpt><trkpt lat="41.2871058781113" lon="13.927438851093608"><ele>416.20000000000005</ele><time>2026-04-11T13:34:52.999Z</time></trkpt><trkpt lat="41.287137514603636" lon="13.927284964893042"><ele>413.79999999999995</ele><time>2026-04-11T13:34:53.999Z</time></trkpt><trkpt lat="41.28716226303497" lon="13.927136229446296"><ele>411.4</ele><time>2026-04-11T13:34:54.999Z</time></trkpt><trkpt lat="41.287196923607155" lon="13.927015718349727"><ele>409.0</ele><time>2026-04-11T13:34:55.999Z</time></trkpt><trkpt lat="41.28723011338615" lon="13.926903764276345"><ele>409.00000000000006</ele><time>2026-04-11T13:34:56.999Z</time></trkpt><trkpt lat="41.28725524783209" lon="13.926776569563053"><ele>409.0</ele><time>2026-04-11T13:34:57.999Z</time></trkpt><trkpt lat="41.28728712474244" lon="13.926658035466108"><ele>409.0</ele><time>2026-04-11T13:34:58.999Z</time></trkpt><trkpt lat="41.287326703275454" lon="13.926574345608076"><ele>409.0</ele><time>2026-04-11T13:34:59.999Z</time></trkpt><trkpt lat="41.28738871580598" lon="13.926520239104748"><ele>409.00000000000006</ele><time>2026-04-11T13:35:00.999Z</time></trkpt><trkpt lat="41.287456670999326" lon="13.92648527069843"><ele>409.0</ele><time>2026-04-11T13:35:01.999Z</time></trkpt><trkpt lat="41.287530695586746" lon="13.926511529765335"><ele>409.33333333333337</ele><time>2026-04-11T13:35:02.999Z</time></trkpt><trkpt lat="41.28760258546014" lon="13.92655012297313"><ele>409.6666666666667</ele><time>2026-04-11T13:35:03.999Z</time></trkpt><trkpt lat="41.28767104281787" lon="13.926601208777065"><ele>410.0</ele><time>2026-04-11T13:35:04.999Z</time></trkpt><trkpt lat="41.28773825021901" lon="13.926672564378677"><ele>410.33333333333337</ele><time>2026-04-11T13:35:05.999Z</time></trkpt><trkpt lat="41.28780259489687" lon="13.926752904015142"><ele>410.6666666666667</ele><time>2026-04-11T13:35:06.999Z</time></trkpt><trkpt lat="41.28786454052202" lon="13.92684343076147"><ele>411.0</ele><time>2026-04-11T13:35:07.999Z</time></trkpt><trkpt lat="41.287940875698105" lon="13.926935690965225"><ele>413.20000000000005</ele><time>2026-04-11T13:35:08.999Z</time></trkpt><trkpt lat="41.28799884722391" lon="13.92703537660181"><ele>415.40000000000003</ele><time>2026-04-11T13:35:09.999Z</time></trkpt><trkpt lat="41.288057485863746" lon="13.927122851265965"><ele>417.6</ele><time>2026-04-11T13:35:10.999Z</time></trkpt><trkpt lat="41.288131166472475" lon="13.927205932387977"><ele>419.8</ele><time>2026-04-11T13:35:12Z</time></trkpt><trkpt lat="41.288219096587106" lon="13.92727080233667"><ele>422.0</ele><time>2026-04-11T13:35:13Z</time></trkpt><trkpt lat="41.28831282148562" lon="13.927322634038486"><ele>422.40000000000003</ele><time>2026-04-11T13:35:14Z</time></trkpt><trkpt lat="41.28840898889881" lon="13.927366871832493"><ele>422.8</ele><time>2026-04-11T13:35:15Z</time></trkpt><trkpt lat="41.28849716533741" lon="13.927407525309157"><ele>423.2</ele><time>2026-04-11T13:35:16Z</time></trkpt><trkpt lat="41.28857483267704" lon="13.92744136368"><ele>423.6</ele><time>2026-04-11T13:35:17Z</time></trkpt><trkpt lat="41.288645216867096" lon="13.927447866637904"><ele>424.0</ele><time>2026-04-11T13:35:18Z</time></trkpt><trkpt lat="41.28871954685423" lon="13.927343352966298"><ele>424.0</ele><time>2026-04-11T13:35:20Z</time></trkpt><trkpt lat="41.288742618658155" lon="13.927212429023161"><ele>424.0</ele><time>2026-04-11T13:35:22Z</time></trkpt><trkpt lat="41.28872367886425" lon="13.927069958026632"><ele>424.0</ele><time>2026-04-11T13:35:24Z</time></trkpt><trkpt lat="41.28872663822596" lon="13.926916213801897"><ele>424.0</ele><time>2026-04-11T13:35:26Z</time></trkpt><trkpt lat="41.28873969444136" lon="13.926813188845365"><ele>424.0</ele><time>2026-04-11T13:35:27Z</time></trkpt><trkpt lat="41.28873757560663" lon="13.92670876125299"><ele>421.0</ele><time>2026-04-11T13:35:28Z</time></trkpt><trkpt lat="41.28874117188089" lon="13.926608302221773"><ele>418.0</ele><time>2026-04-11T13:35:29Z</time></trkpt><trkpt lat="41.28875461295867" lon="13.926477730023326"><ele>415.0</ele><time>2026-04-11T13:35:30Z</time></trkpt><trkpt lat="41.2887662269821" lon="13.926350942668906"><ele>412.0</ele><time>2026-04-11T13:35:31Z</time></trkpt><trkpt lat="41.28878497942192" lon="13.926211959822526"><ele>409.0</ele><time>2026-04-11T13:35:32Z</time></trkpt><trkpt lat="41.28880624587047" lon="13.926085424885189"><ele>409.0</ele><time>2026-04-11T13:35:33Z</time></trkpt><trkpt lat="41.28882871050674" lon="13.925965413468827"><ele>409.0</ele><time>2026-04-11T13:35:34Z</time></trkpt><trkpt lat="41.288867369758975" lon="13.92585527129452"><ele>409.0</ele><time>2026-04-11T13:35:35Z</time></trkpt><trkpt lat="41.28893800097142" lon="13.925756756612753"><ele>409.0</ele><time>2026-04-11T13:35:36Z</time></trkpt><trkpt lat="41.28905912319083" lon="13.925687110456675"><ele>409.0</ele><time>2026-04-11T13:35:37Z</time></trkpt><trkpt lat="41.28918330886811" lon="13.925593340815132"><ele>413.0</ele><time>2026-04-11T13:35:38Z</time></trkpt><trkpt lat="41.28931432330566" lon="13.925454460224357"><ele>417.0</ele><time>2026-04-11T13:35:39Z</time></trkpt><trkpt lat="41.289448021373424" lon="13.925291544932803"><ele>421.0</ele><time>2026-04-11T13:35:40Z</time></trkpt><trkpt lat="41.28957564865091" lon="13.925129454611572"><ele>421.25</ele><time>2026-04-11T13:35:41Z</time></trkpt><trkpt lat="41.289697062645175" lon="13.924993513581073"><ele>421.5</ele><time>2026-04-11T13:35:42Z</time></trkpt><trkpt lat="41.28981122897801" lon="13.924857596835501"><ele>421.75</ele><time>2026-04-11T13:35:43Z</time></trkpt><trkpt lat="41.28991075324027" lon="13.92475094314991"><ele>422.0</ele><time>2026-04-11T13:35:44Z</time></trkpt><trkpt lat="41.290012586226545" lon="13.924675825778868"><ele>422.0</ele><time>2026-04-11T13:35:45Z</time></trkpt><trkpt lat="41.29010562409735" lon="13.924622195394647"><ele>422.0</ele><time>2026-04-11T13:35:46Z</time></trkpt><trkpt lat="41.290207267451464" lon="13.924592247421963"><ele>422.0</ele><time>2026-04-11T13:35:47Z</time></trkpt><trkpt lat="41.29030734156005" lon="13.924588739663376"><ele>422.0</ele><time>2026-04-11T13:35:48Z</time></trkpt><trkpt lat="41.29036406284235" lon="13.92466388935525"><ele>422.0</ele><time>2026-04-11T13:35:49Z</time></trkpt><trkpt lat="41.290425657310436" lon="13.924738247924997"><ele>422.0</ele><time>2026-04-11T13:35:50Z</time></trkpt><trkpt lat="41.29049796019182" lon="13.924854107840485"><ele>422.0</ele><time>2026-04-11T13:35:51Z</time></trkpt><trkpt lat="41.29058473938023" lon="13.925005451376341"><ele>422.0</ele><time>2026-04-11T13:35:52Z</time></trkpt><trkpt lat="41.29068043148522" lon="13.925163469642307"><ele>422.0</ele><time>2026-04-11T13:35:53Z</time></trkpt><trkpt lat="41.29080074058482" lon="13.92532927590904"><ele>424.66666666666663</ele><time>2026-04-11T13:35:54Z</time></trkpt><trkpt lat="41.29089961241951" lon="13.925503158463151"><ele>427.33333333333337</ele><time>2026-04-11T13:35:55Z</time></trkpt><trkpt lat="41.29099193708965" lon="13.925660247616332"><ele>430.0</ele><time>2026-04-11T13:35:56Z</time></trkpt><trkpt lat="41.291080735994306" lon="13.925806474550546"><ele>430.8</ele><time>2026-04-11T13:35:57Z</time></trkpt><trkpt lat="41.29117195602322" lon="13.925936810307197"><ele>431.6</ele><time>2026-04-11T13:35:58Z</time></trkpt><trkpt lat="41.29125066588179" lon="13.926029096448515"><ele>432.4</ele><time>2026-04-11T13:35:59Z</time></trkpt><trkpt lat="41.29132083873796" lon="13.926080746875483"><ele>433.2</ele><time>2026-04-11T13:36:00Z</time></trkpt><trkpt lat="41.291391330468954" lon="13.926114627651605"><ele>434.0</ele><time>2026-04-11T13:36:01Z</time></trkpt><trkpt lat="41.291453948233105" lon="13.926168958758298"><ele>434.0</ele><time>2026-04-11T13:36:02Z</time></trkpt><trkpt lat="41.29156156746607" lon="13.926221986307004"><ele>434.0</ele><time>2026-04-11T13:36:04Z</time></trkpt><trkpt lat="41.29166188976064" lon="13.926288002305991"><ele>434.0</ele><time>2026-04-11T13:36:06Z</time></trkpt><trkpt lat="41.291724481806156" lon="13.926361498310479"><ele>434.0</ele><time>2026-04-11T13:36:07Z</time></trkpt><trkpt lat="41.2917902178043" lon="13.926453489838766"><ele>434.0</ele><time>2026-04-11T13:36:08Z</time></trkpt><trkpt lat="41.2918545795949" lon="13.926587254077637"><ele>439.3333333333333</ele><time>2026-04-11T13:36:09Z</time></trkpt><trkpt lat="41.29191771425116" lon="13.926768848258497"><ele>444.66666666666663</ele><time>2026-04-11T13:36:10.001Z</time></trkpt><trkpt lat="41.29197111392491" lon="13.926952858378911"><ele>450.0</ele><time>2026-04-11T13:36:11.001Z</time></trkpt><trkpt lat="41.292039194557816" lon="13.927156137324188"><ele>450.0</ele><time>2026-04-11T13:36:12.001Z</time></trkpt><trkpt lat="41.29212004688241" lon="13.927356692436849"><ele>450.0</ele><time>2026-04-11T13:36:13.001Z</time></trkpt><trkpt lat="41.292177395063796" lon="13.927531272181259"><ele>450.0</ele><time>2026-04-11T13:36:14.001Z</time></trkpt><trkpt lat="41.292228640943684" lon="13.927676564321223"><ele>450.0</ele><time>2026-04-11T13:36:15.001Z</time></trkpt><trkpt lat="41.29227924346006" lon="13.927794237871144"><ele>449.5</ele><time>2026-04-11T13:36:16.001Z</time></trkpt><trkpt lat="41.29231501299104" lon="13.927886054342798"><ele>449.0</ele><time>2026-04-11T13:36:17.001Z</time></trkpt><trkpt lat="41.292382487592945" lon="13.927917870227724"><ele>448.5</ele><time>2026-04-11T13:36:18.001Z</time></trkpt><trkpt lat="41.29245447806256" lon="13.927918166938683"><ele>448.0</ele><time>2026-04-11T13:36:19.001Z</time></trkpt><trkpt lat="41.29253959192107" lon="13.927823166794955"><ele>447.5</ele><time>2026-04-11T13:36:21.001Z</time></trkpt><trkpt lat="41.29256910738807" lon="13.927729564913058"><ele>447.0</ele><time>2026-04-11T13:36:22.001Z</time></trkpt><trkpt lat="41.29258787228419" lon="13.927586153992362"><ele>443.25</ele><time>2026-04-11T13:36:23.001Z</time></trkpt><trkpt lat="41.292618969017546" lon="13.92741862871022"><ele>439.5</ele><time>2026-04-11T13:36:24.001Z</time></trkpt><trkpt lat="41.292677031262556" lon="13.927252658904768"><ele>435.75</ele><time>2026-04-11T13:36:25.001Z</time></trkpt><trkpt lat="41.29271371046172" lon="13.92710332143091"><ele>432.0</ele><time>2026-04-11T13:36:26.001Z</time></trkpt><trkpt lat="41.29274843523484" lon="13.926974383393254"><ele>432.0</ele><time>2026-04-11T13:36:27.001Z</time></trkpt><trkpt lat="41.292790894725854" lon="13.926865645578602"><ele>432.0</ele><time>2026-04-11T13:36:28.001Z</time></trkpt><trkpt lat="41.29286585329483" lon="13.926754724556636"><ele>432.0</ele><time>2026-04-11T13:36:29.001Z</time></trkpt><trkpt lat="41.292968382980476" lon="13.926648195852737"><ele>432.0</ele><time>2026-04-11T13:36:30.001Z</time></trkpt><trkpt lat="41.29307374536625" lon="13.926578160412591"><ele>432.0</ele><time>2026-04-11T13:36:31.001Z</time></trkpt><trkpt lat="41.293157589037946" lon="13.926504607911182"><ele>432.00000000000006</ele><time>2026-04-11T13:36:32.001Z</time></trkpt><trkpt lat="41.293228775522785" lon="13.926418821343542"><ele>432.00000000000006</ele><time>2026-04-11T13:36:33.001Z</time></trkpt><trkpt lat="41.29330181084387" lon="13.926366592496956"><ele>432.0</ele><time>2026-04-11T13:36:34.001Z</time></trkpt><trkpt lat="41.29339913477656" lon="13.92637429877691"><ele>432.0</ele><time>2026-04-11T13:36:35.001Z</time></trkpt><trkpt lat="41.29350555131098" lon="13.926346211237972"><ele>432.0</ele><time>2026-04-11T13:36:36.001Z</time></trkpt><trkpt lat="41.29360695436973" lon="13.926358984304004"><ele>432.00000000000006</ele><time>2026-04-11T13:36:37.001Z</time></trkpt><trkpt lat="41.293703177169164" lon="13.926388375042768"><ele>432.00000000000006</ele><time>2026-04-11T13:36:38.001Z</time></trkpt><trkpt lat="41.29379239090097" lon="13.926406729077023"><ele>432.0</ele><time>2026-04-11T13:36:39.001Z</time></trkpt><trkpt lat="41.29389280866938" lon="13.926423326350324"><ele>432.0</ele><time>2026-04-11T13:36:40.001Z</time></trkpt><trkpt lat="41.293994019564956" lon="13.926392539118599"><ele>433.40000000000003</ele><time>2026-04-11T13:36:41.001Z</time></trkpt><trkpt lat="41.29409812664599" lon="13.926328737992826"><ele>434.80000000000007</ele><time>2026-04-11T13:36:42.001Z</time></trkpt><trkpt lat="41.294186172977604" lon="13.92628472956128"><ele>436.2</ele><time>2026-04-11T13:36:43.001Z</time></trkpt><trkpt lat="41.29424423352349" lon="13.92623983416798"><ele>437.6</ele><time>2026-04-11T13:36:44.001Z</time></trkpt><trkpt lat="41.29431962886972" lon="13.92612523448596"><ele>439.0</ele><time>2026-04-11T13:36:46.001Z</time></trkpt><trkpt lat="41.29438699611488" lon="13.926063842646391"><ele>439.0</ele><time>2026-04-11T13:36:47.001Z</time></trkpt><trkpt lat="41.29446490764215" lon="13.925998628619103"><ele>439.0</ele><time>2026-04-11T13:36:48.001Z</time></trkpt><trkpt lat="41.29454812212055" lon="13.925966251478087"><ele>439.0</ele><time>2026-04-11T13:36:49.001Z</time></trkpt><trkpt lat="41.29463930752276" lon="13.925929943173088"><ele>439.0</ele><time>2026-04-11T13:36:50.001Z</time></trkpt><trkpt lat="41.294739343351466" lon="13.925936132535485"><ele>439.0</ele><time>2026-04-11T13:36:50.999Z</time></trkpt><trkpt lat="41.294839344345604" lon="13.92596675561374"><ele>440.2</ele><time>2026-04-11T13:36:51.999Z</time></trkpt><trkpt lat="41.29493359497783" lon="13.92598655223409"><ele>441.4</ele><time>2026-04-11T13:36:52.999Z</time></trkpt><trkpt lat="41.29502805012445" lon="13.926009430907682"><ele>442.6</ele><time>2026-04-11T13:36:53.999Z</time></trkpt><trkpt lat="41.2951157089332" lon="13.926028220983175"><ele>443.8</ele><time>2026-04-11T13:36:54.999Z</time></trkpt><trkpt lat="41.29519623418934" lon="13.926048288630405"><ele>445.0</ele><time>2026-04-11T13:36:55.999Z</time></trkpt><trkpt lat="41.295296478228344" lon="13.926067862144698"><ele>445.0</ele><time>2026-04-11T13:36:56.999Z</time></trkpt><trkpt lat="41.29540732099545" lon="13.926085979823975"><ele>445.0</ele><time>2026-04-11T13:36:57.999Z</time></trkpt><trkpt lat="41.29552144972044" lon="13.92609957285028"><ele>445.0</ele><time>2026-04-11T13:36:58.999Z</time></trkpt><trkpt lat="41.29564534801618" lon="13.926085588681355"><ele>445.0</ele><time>2026-04-11T13:36:59.999Z</time></trkpt><trkpt lat="41.29575332663204" lon="13.926043789029476"><ele>445.4</ele><time>2026-04-11T13:37:00.999Z</time></trkpt><trkpt lat="41.29583370486798" lon="13.925980304863549"><ele>445.8</ele><time>2026-04-11T13:37:01.999Z</time></trkpt><trkpt lat="41.295886642720006" lon="13.925893891190107"><ele>446.20000000000005</ele><time>2026-04-11T13:37:02.999Z</time></trkpt><trkpt lat="41.29591202511071" lon="13.92576321610087"><ele>446.6</ele><time>2026-04-11T13:37:03.999Z</time></trkpt><trkpt lat="41.29590636157214" lon="13.925592895234624"><ele>447.0</ele><time>2026-04-11T13:37:04.999Z</time></trkpt><trkpt lat="41.295879493818276" lon="13.925404785444607"><ele>442.75</ele><time>2026-04-11T13:37:05.999Z</time></trkpt><trkpt lat="41.29588006116651" lon="13.925237882982625"><ele>438.5</ele><time>2026-04-11T13:37:06.999Z</time></trkpt><trkpt lat="41.29589707801911" lon="13.925068831118258"><ele>434.25</ele><time>2026-04-11T13:37:07.999Z</time></trkpt><trkpt lat="41.29594244872988" lon="13.924904732469152"><ele>430.0</ele><time>2026-04-11T13:37:08.999Z</time></trkpt><trkpt lat="41.29601680786802" lon="13.924745686539694"><ele>430.4</ele><time>2026-04-11T13:37:09.999Z</time></trkpt><trkpt lat="41.29609489609491" lon="13.924625076533113"><ele>430.8</ele><time>2026-04-11T13:37:11Z</time></trkpt><trkpt lat="41.296174644953865" lon="13.924523595251507"><ele>431.20000000000005</ele><time>2026-04-11T13:37:12Z</time></trkpt><trkpt lat="41.296262431444326" lon="13.924470677625033"><ele>431.6</ele><time>2026-04-11T13:37:13Z</time></trkpt><trkpt lat="41.29636035216357" lon="13.92450400145001"><ele>432.0</ele><time>2026-04-11T13:37:14Z</time></trkpt><trkpt lat="41.29645625587113" lon="13.924546152435715"><ele>432.0</ele><time>2026-04-11T13:37:15Z</time></trkpt><trkpt lat="41.29654461817297" lon="13.924628768931594"><ele>432.0</ele><time>2026-04-11T13:37:16Z</time></trkpt><trkpt lat="41.296652745961794" lon="13.924730882432453"><ele>432.0</ele><time>2026-04-11T13:37:17Z</time></trkpt><trkpt lat="41.29675009969999" lon="13.924799666179734"><ele>432.0</ele><time>2026-04-11T13:37:18Z</time></trkpt><trkpt lat="41.296849508495804" lon="13.924839167963617"><ele>432.0</ele><time>2026-04-11T13:37:19Z</time></trkpt><trkpt lat="41.29696347480908" lon="13.92478177378722"><ele>432.0</ele><time>2026-04-11T13:37:20Z</time></trkpt><trkpt lat="41.2970820478393" lon="13.924708473219537"><ele>432.0</ele><time>2026-04-11T13:37:21Z</time></trkpt><trkpt lat="41.29721575248961" lon="13.924601312099586"><ele>432.0</ele><time>2026-04-11T13:37:22Z</time></trkpt><trkpt lat="41.29735572228262" lon="13.924525042201285"><ele>432.20000000000005</ele><time>2026-04-11T13:37:23Z</time></trkpt><trkpt lat="41.297462986053105" lon="13.924452682842519"><ele>432.40000000000003</ele><time>2026-04-11T13:37:24Z</time></trkpt><trkpt lat="41.29755058415651" lon="13.924375930472708"><ele>432.59999999999997</ele><time>2026-04-11T13:37:25Z</time></trkpt><trkpt lat="41.29764551798784" lon="13.924365039045373"><ele>432.79999999999995</ele><time>2026-04-11T13:37:26Z</time></trkpt><trkpt lat="41.29774530584593" lon="13.924358669227615"><ele>433.0</ele><time>2026-04-11T13:37:27Z</time></trkpt><trkpt lat="41.297832982389586" lon="13.924421996544005"><ele>433.0</ele><time>2026-04-11T13:37:28Z</time></trkpt><trkpt lat="41.297919862056624" lon="13.924517816426397"><ele>433.0</ele><time>2026-04-11T13:37:29Z</time></trkpt><trkpt lat="41.29801513374132" lon="13.924664245442175"><ele>433.0</ele><time>2026-04-11T13:37:30Z</time></trkpt><trkpt lat="41.29807381380285" lon="13.924785598812008"><ele>433.0</ele><time>2026-04-11T13:37:31Z</time></trkpt><trkpt lat="41.29813748859932" lon="13.924874393043412"><ele>433.2</ele><time>2026-04-11T13:37:32Z</time></trkpt><trkpt lat="41.29821990973146" lon="13.924918380830109"><ele>433.4</ele><time>2026-04-11T13:37:33Z</time></trkpt><trkpt lat="41.29831099622105" lon="13.924917011185533"><ele>433.59999999999997</ele><time>2026-04-11T13:37:34Z</time></trkpt><trkpt lat="41.298391189207855" lon="13.924859713173097"><ele>433.79999999999995</ele><time>2026-04-11T13:37:35Z</time></trkpt><trkpt lat="41.298450879168826" lon="13.924744990246795"><ele>434.0</ele><time>2026-04-11T13:37:36Z</time></trkpt><trkpt lat="41.29849533119025" lon="13.924589252173433"><ele>434.0</ele><time>2026-04-11T13:37:37Z</time></trkpt><trkpt lat="41.29850075660317" lon="13.924414529802625"><ele>434.0</ele><time>2026-04-11T13:37:38Z</time></trkpt><trkpt lat="41.29850200705297" lon="13.924259817802977"><ele>434.0</ele><time>2026-04-11T13:37:39Z</time></trkpt><trkpt lat="41.2985048808342" lon="13.924119544187997"><ele>434.0</ele><time>2026-04-11T13:37:40Z</time></trkpt><trkpt lat="41.29851976526081" lon="13.92399771603671"><ele>434.0</ele><time>2026-04-11T13:37:41Z</time></trkpt><trkpt lat="41.298552740359916" lon="13.923875398244428"><ele>435.0</ele><time>2026-04-11T13:37:42Z</time></trkpt><trkpt lat="41.29858959241865" lon="13.92375690518916"><ele>436.0</ele><time>2026-04-11T13:37:43Z</time></trkpt><trkpt lat="41.29869425067178" lon="13.923684814942142"><ele>437.0</ele><time>2026-04-11T13:37:44Z</time></trkpt><trkpt lat="41.29880139333636" lon="13.923562365937098"><ele>438.0</ele><time>2026-04-11T13:37:45Z</time></trkpt><trkpt lat="41.2989590844885" lon="13.92345127883537"><ele>435.0</ele><time>2026-04-11T13:37:46Z</time></trkpt><trkpt lat="41.299125615064014" lon="13.923311236178437"><ele>432.0</ele><time>2026-04-11T13:37:47Z</time></trkpt><trkpt lat="41.29930771058579" lon="13.923164650268689"><ele>429.0</ele><time>2026-04-11T13:37:48Z</time></trkpt><trkpt lat="41.29948092090816" lon="13.92302801641839"><ele>429.0</ele><time>2026-04-11T13:37:49Z</time></trkpt><trkpt lat="41.29963534413078" lon="13.92290889159307"><ele>429.0</ele><time>2026-04-11T13:37:50Z</time></trkpt><trkpt lat="41.29977737844848" lon="13.92280329676661"><ele>429.0</ele><time>2026-04-11T13:37:51Z</time></trkpt><trkpt lat="41.29989484693037" lon="13.922696411545756"><ele>428.0</ele><time>2026-04-11T13:37:52Z</time></trkpt><trkpt lat="41.29999518484" lon="13.922613185919879"><ele>427.0</ele><time>2026-04-11T13:37:53Z</time></trkpt><trkpt lat="41.30006499546524" lon="13.922495370966159"><ele>426.0</ele><time>2026-04-11T13:37:54Z</time></trkpt><trkpt lat="41.30009580448821" lon="13.922342573711338"><ele>425.0</ele><time>2026-04-11T13:37:55Z</time></trkpt><trkpt lat="41.30009796599634" lon="13.922206222999321"><ele>425.0</ele><time>2026-04-11T13:37:56Z</time></trkpt><trkpt lat="41.30012324908283" lon="13.922091022605002"><ele>425.0</ele><time>2026-04-11T13:37:57Z</time></trkpt><trkpt lat="41.30018154068916" lon="13.92201218649604"><ele>425.0</ele><time>2026-04-11T13:37:58.001Z</time></trkpt><trkpt lat="41.300270803826564" lon="13.922018339630352"><ele>425.0</ele><time>2026-04-11T13:37:59.001Z</time></trkpt><trkpt lat="41.30035563689466" lon="13.92206452570923"><ele>425.0</ele><time>2026-04-11T13:38:00.001Z</time></trkpt><trkpt lat="41.30048770053767" lon="13.922089989737549"><ele>429.0</ele><time>2026-04-11T13:38:01.001Z</time></trkpt><trkpt lat="41.300626390366084" lon="13.922105265580575"><ele>433.0</ele><time>2026-04-11T13:38:02.001Z</time></trkpt><trkpt lat="41.3007778340699" lon="13.922068812476063"><ele>437.0</ele><time>2026-04-11T13:38:03.001Z</time></trkpt><trkpt lat="41.30091363297429" lon="13.92199536972957"><ele>441.0</ele><time>2026-04-11T13:38:04.001Z</time></trkpt><trkpt lat="41.30102091428271" lon="13.921900200803078"><ele>441.0</ele><time>2026-04-11T13:38:05.001Z</time></trkpt><trkpt lat="41.30110964737469" lon="13.921786177078081"><ele>441.0</ele><time>2026-04-11T13:38:06.001Z</time></trkpt><trkpt lat="41.30115522267978" lon="13.921635167529775"><ele>441.0</ele><time>2026-04-11T13:38:07.001Z</time></trkpt><trkpt lat="41.30116191068988" lon="13.921455888783163"><ele>441.0</ele><time>2026-04-11T13:38:08.001Z</time></trkpt><trkpt lat="41.301131085248265" lon="13.921271172846057"><ele>436.6</ele><time>2026-04-11T13:38:09.001Z</time></trkpt><trkpt lat="41.301107614681094" lon="13.921110496996313"><ele>432.20000000000005</ele><time>2026-04-11T13:38:10.001Z</time></trkpt><trkpt lat="41.30110561819769" lon="13.920981726482923"><ele>427.79999999999995</ele><time>2026-04-11T13:38:11.001Z</time></trkpt><trkpt lat="41.3011357967525" lon="13.920853112483064"><ele>423.4</ele><time>2026-04-11T13:38:12.001Z</time></trkpt><trkpt lat="41.301192476152046" lon="13.92073033621505"><ele>419.0</ele><time>2026-04-11T13:38:13.001Z</time></trkpt><trkpt lat="41.30127367987908" lon="13.920653417826792"><ele>419.75</ele><time>2026-04-11T13:38:14.001Z</time></trkpt><trkpt lat="41.30136633411254" lon="13.920605190668821"><ele>420.5</ele><time>2026-04-11T13:38:15.001Z</time></trkpt><trkpt lat="41.301466411377056" lon="13.920630296509625"><ele>421.25</ele><time>2026-04-11T13:38:16.001Z</time></trkpt><trkpt lat="41.30159139790739" lon="13.920651085702417"><ele>422.0</ele><time>2026-04-11T13:38:17.001Z</time></trkpt><trkpt lat="41.301717191422384" lon="13.920681105450075"><ele>422.0</ele><time>2026-04-11T13:38:18.001Z</time></trkpt><trkpt lat="41.301833206430956" lon="13.92065712559551"><ele>422.0</ele><time>2026-04-11T13:38:19.001Z</time></trkpt><trkpt lat="41.30195357292641" lon="13.92056401811318"><ele>422.0</ele><time>2026-04-11T13:38:20.001Z</time></trkpt><trkpt lat="41.302076851824324" lon="13.920441134201782"><ele>422.0</ele><time>2026-04-11T13:38:21.001Z</time></trkpt><trkpt lat="41.302187208508705" lon="13.92034811303757"><ele>423.40000000000003</ele><time>2026-04-11T13:38:22.001Z</time></trkpt><trkpt lat="41.302277600794945" lon="13.920271056224891"><ele>424.8</ele><time>2026-04-11T13:38:23.001Z</time></trkpt><trkpt lat="41.30236835691096" lon="13.920214923069368"><ele>426.2</ele><time>2026-04-11T13:38:24.001Z</time></trkpt><trkpt lat="41.30246302746181" lon="13.920184588899168"><ele>427.6</ele><time>2026-04-11T13:38:25.001Z</time></trkpt><trkpt lat="41.30258977259254" lon="13.920147612476958"><ele>429.0</ele><time>2026-04-11T13:38:26.001Z</time></trkpt><trkpt lat="41.30271799283644" lon="13.920116412680136"><ele>429.0</ele><time>2026-04-11T13:38:27.001Z</time></trkpt><trkpt lat="41.30282155060757" lon="13.920093495323341"><ele>429.0</ele><time>2026-04-11T13:38:28.001Z</time></trkpt><trkpt lat="41.302910845985735" lon="13.92008670972053"><ele>429.0</ele><time>2026-04-11T13:38:29.001Z</time></trkpt><trkpt lat="41.30298283324526" lon="13.920106605316874"><ele>429.0</ele><time>2026-04-11T13:38:30.001Z</time></trkpt><trkpt lat="41.30304772986303" lon="13.920181146368018"><ele>429.0</ele><time>2026-04-11T13:38:31.001Z</time></trkpt><trkpt lat="41.303105770926834" lon="13.920297224177755"><ele>424.66666666666663</ele><time>2026-04-11T13:38:32.001Z</time></trkpt><trkpt lat="41.303157948526376" lon="13.920458084315442"><ele>420.3333333333333</ele><time>2026-04-11T13:38:33.001Z</time></trkpt><trkpt lat="41.30320554206712" lon="13.920647544333"><ele>416.0</ele><time>2026-04-11T13:38:34.001Z</time></trkpt><trkpt lat="41.30324173411601" lon="13.920869489327517"><ele>420.0</ele><time>2026-04-11T13:38:35.001Z</time></trkpt><trkpt lat="41.30329488392361" lon="13.921111590294514"><ele>424.0</ele><time>2026-04-11T13:38:36.001Z</time></trkpt><trkpt lat="41.303366735380244" lon="13.92137647552932"><ele>428.0</ele><time>2026-04-11T13:38:37.001Z</time></trkpt><trkpt lat="41.30345185495798" lon="13.921610755482059"><ele>429.5</ele><time>2026-04-11T13:38:38.001Z</time></trkpt><trkpt lat="41.30350470119135" lon="13.92181599589988"><ele>431.0</ele><time>2026-04-11T13:38:39.001Z</time></trkpt><trkpt lat="41.30355174580837" lon="13.921990718901194"><ele>432.5</ele><time>2026-04-11T13:38:40.001Z</time></trkpt><trkpt lat="41.30359644898133" lon="13.922127660015446"><ele>434.0</ele><time>2026-04-11T13:38:41.001Z</time></trkpt><trkpt lat="41.303629170054315" lon="13.922236161337633"><ele>434.0</ele><time>2026-04-11T13:38:42.001Z</time></trkpt><trkpt lat="41.30370531934819" lon="13.922302404728839"><ele>434.0</ele><time>2026-04-11T13:38:43.001Z</time></trkpt><trkpt lat="41.30378401525756" lon="13.922327192078354"><ele>434.0</ele><time>2026-04-11T13:38:44.001Z</time></trkpt><trkpt lat="41.303888472638036" lon="13.922301461892864"><ele>434.0</ele><time>2026-04-11T13:38:45.001Z</time></trkpt><trkpt lat="41.30400208479844" lon="13.922284576575935"><ele>434.0</ele><time>2026-04-11T13:38:46.001Z</time></trkpt><trkpt lat="41.304100850035546" lon="13.92227853863668"><ele>433.0</ele><time>2026-04-11T13:38:47.001Z</time></trkpt><trkpt lat="41.30418690491256" lon="13.922316386123303"><ele>432.0</ele><time>2026-04-11T13:38:48.001Z</time></trkpt><trkpt lat="41.30423383237247" lon="13.922464013527978"><ele>431.0</ele><time>2026-04-11T13:38:49.001Z</time></trkpt><trkpt lat="41.304288748036264" lon="13.922624579082845"><ele>430.0</ele><time>2026-04-11T13:38:50.001Z</time></trkpt><trkpt lat="41.30434485037974" lon="13.92281569625267"><ele>430.0</ele><time>2026-04-11T13:38:51.001Z</time></trkpt><trkpt lat="41.30440443995747" lon="13.923039863372122"><ele>430.0</ele><time>2026-04-11T13:38:52.001Z</time></trkpt><trkpt lat="41.30443533423366" lon="13.92325790310736"><ele>430.0</ele><time>2026-04-11T13:38:53.001Z</time></trkpt><trkpt lat="41.30447339660711" lon="13.923447983232329"><ele>430.6</ele><time>2026-04-11T13:38:54.001Z</time></trkpt><trkpt lat="41.304527434413686" lon="13.923618652955087"><ele>431.2</ele><time>2026-04-11T13:38:55.001Z</time></trkpt><trkpt lat="41.304581751662326" lon="13.923748049824527"><ele>431.79999999999995</ele><time>2026-04-11T13:38:56.001Z</time></trkpt><trkpt lat="41.30463901485423" lon="13.923841840689386"><ele>432.4</ele><time>2026-04-11T13:38:56.999Z</time></trkpt><trkpt lat="41.30471352261573" lon="13.923895691008994"><ele>433.0</ele><time>2026-04-11T13:38:57.999Z</time></trkpt><trkpt lat="41.30479517385581" lon="13.923898827733309"><ele>433.0</ele><time>2026-04-11T13:38:58.999Z</time></trkpt><trkpt lat="41.30487366778921" lon="13.923847088030135"><ele>433.0</ele><time>2026-04-11T13:38:59.999Z</time></trkpt><trkpt lat="41.30495770322508" lon="13.92369572473482"><ele>433.0</ele><time>2026-04-11T13:39:00.999Z</time></trkpt><trkpt lat="41.30504160602491" lon="13.923570961405527"><ele>433.0</ele><time>2026-04-11T13:39:01.999Z</time></trkpt><trkpt lat="41.305114212935564" lon="13.923397630140844"><ele>427.25</ele><time>2026-04-11T13:39:03Z</time></trkpt><trkpt lat="41.30520235104793" lon="13.923208277613226"><ele>421.5</ele><time>2026-04-11T13:39:04Z</time></trkpt><trkpt lat="41.30528277179578" lon="13.923040167915412"><ele>415.75</ele><time>2026-04-11T13:39:05Z</time></trkpt><trkpt lat="41.30535963723427" lon="13.922921997666759"><ele>410.0</ele><time>2026-04-11T13:39:06Z</time></trkpt><trkpt lat="41.30541862808343" lon="13.922815584618355"><ele>410.0</ele><time>2026-04-11T13:39:07Z</time></trkpt><trkpt lat="41.30544577073983" lon="13.9226844629235"><ele>410.0</ele><time>2026-04-11T13:39:08Z</time></trkpt><trkpt lat="41.305449300897074" lon="13.922483379874686"><ele>410.0</ele><time>2026-04-11T13:39:09Z</time></trkpt><trkpt lat="41.30545535284403" lon="13.922270472556745"><ele>410.0</ele><time>2026-04-11T13:39:10Z</time></trkpt><trkpt lat="41.30550583605441" lon="13.922073640353096"><ele>411.0</ele><time>2026-04-11T13:39:11Z</time></trkpt><trkpt lat="41.305575873119494" lon="13.921862582966433"><ele>412.0</ele><time>2026-04-11T13:39:12Z</time></trkpt><trkpt lat="41.30563487139647" lon="13.921672091499499"><ele>413.0</ele><time>2026-04-11T13:39:13Z</time></trkpt><trkpt lat="41.30568702813897" lon="13.921509228110597"><ele>413.0</ele><time>2026-04-11T13:39:14Z</time></trkpt><trkpt lat="41.30571911372403" lon="13.921376050335745"><ele>413.0</ele><time>2026-04-11T13:39:15Z</time></trkpt><trkpt lat="41.30578680068382" lon="13.921282170574912"><ele>413.0</ele><time>2026-04-11T13:39:16Z</time></trkpt><trkpt lat="41.30586458436364" lon="13.921206824701938"><ele>413.0</ele><time>2026-04-11T13:39:17Z</time></trkpt><trkpt lat="41.30597091393497" lon="13.921148645692403"><ele>413.0</ele><time>2026-04-11T13:39:18Z</time></trkpt><trkpt lat="41.30605548177564" lon="13.921029577338183"><ele>408.25</ele><time>2026-04-11T13:39:19Z</time></trkpt><trkpt lat="41.306078340779976" lon="13.92086705917663"><ele>403.5</ele><time>2026-04-11T13:39:20Z</time></trkpt><trkpt lat="41.30613847498068" lon="13.920715146400086"><ele>398.75</ele><time>2026-04-11T13:39:21Z</time></trkpt><trkpt lat="41.30621727638342" lon="13.920557363377291"><ele>394.0</ele><time>2026-04-11T13:39:22Z</time></trkpt><trkpt lat="41.30631881735998" lon="13.920416667955193"><ele>394.0</ele><time>2026-04-11T13:39:23Z</time></trkpt><trkpt lat="41.30640667693809" lon="13.920298943253973"><ele>394.0</ele><time>2026-04-11T13:39:24Z</time></trkpt><trkpt lat="41.30647500578797" lon="13.920205303131507"><ele>394.0</ele><time>2026-04-11T13:39:25Z</time></trkpt><trkpt lat="41.30655180981915" lon="13.920130987110836"><ele>394.0</ele><time>2026-04-11T13:39:26Z</time></trkpt><trkpt lat="41.306643119972826" lon="13.920131788348433"><ele>394.0</ele><time>2026-04-11T13:39:27Z</time></trkpt><trkpt lat="41.30674749045693" lon="13.920154756122729"><ele>399.6666666666667</ele><time>2026-04-11T13:39:28Z</time></trkpt><trkpt lat="41.3068746932049" lon="13.920202951059428"><ele>405.33333333333337</ele><time>2026-04-11T13:39:29Z</time></trkpt><trkpt lat="41.30703323611623" lon="13.920263497891796"><ele>411.0</ele><time>2026-04-11T13:39:30Z</time></trkpt><trkpt lat="41.307192267317376" lon="13.920298920297055"><ele>408.6</ele><time>2026-04-11T13:39:31Z</time></trkpt><trkpt lat="41.307321775982956" lon="13.920332924557743"><ele>406.20000000000005</ele><time>2026-04-11T13:39:32Z</time></trkpt><trkpt lat="41.30741777110109" lon="13.92037072903081"><ele>403.79999999999995</ele><time>2026-04-11T13:39:33Z</time></trkpt><trkpt lat="41.30749925707635" lon="13.920439659705254"><ele>401.4</ele><time>2026-04-11T13:39:34Z</time></trkpt><trkpt lat="41.3075596318458" lon="13.920544958937992"><ele>399.0</ele><time>2026-04-11T13:39:35Z</time></trkpt><trkpt lat="41.30764727719407" lon="13.920681504954139"><ele>399.0</ele><time>2026-04-11T13:39:36Z</time></trkpt><trkpt lat="41.30774151770273" lon="13.920779285375385"><ele>399.0</ele><time>2026-04-11T13:39:37Z</time></trkpt><trkpt lat="41.307819243629694" lon="13.920832732182795"><ele>399.0</ele><time>2026-04-11T13:39:38Z</time></trkpt><trkpt lat="41.30790219681708" lon="13.920820473288762"><ele>399.0</ele><time>2026-04-11T13:39:39Z</time></trkpt><trkpt lat="41.30797625015352" lon="13.920786615259132"><ele>399.0</ele><time>2026-04-11T13:39:40Z</time></trkpt><trkpt lat="41.30802047493359" lon="13.920694415201194"><ele>399.0</ele><time>2026-04-11T13:39:41Z</time></trkpt><trkpt lat="41.30807060001424" lon="13.920548924016483"><ele>399.0</ele><time>2026-04-11T13:39:42Z</time></trkpt><trkpt lat="41.3081240385339" lon="13.920382186577182"><ele>399.0</ele><time>2026-04-11T13:39:43Z</time></trkpt><trkpt lat="41.30820299849333" lon="13.920240435983995"><ele>399.0</ele><time>2026-04-11T13:39:44Z</time></trkpt><trkpt lat="41.30829755217698" lon="13.920130612238893"><ele>396.6</ele><time>2026-04-11T13:39:45Z</time></trkpt><trkpt lat="41.308365698115686" lon="13.920020785985763"><ele>394.2</ele><time>2026-04-11T13:39:46Z</time></trkpt><trkpt lat="41.30842244117688" lon="13.919898795276605"><ele>391.8</ele><time>2026-04-11T13:39:47Z</time></trkpt><trkpt lat="41.30846828548617" lon="13.919777193085089"><ele>389.40000000000003</ele><time>2026-04-11T13:39:48Z</time></trkpt><trkpt lat="41.30852334890935" lon="13.9196608377452"><ele>387.0</ele><time>2026-04-11T13:39:49Z</time></trkpt><trkpt lat="41.308605240748086" lon="13.919574543874097"><ele>387.0</ele><time>2026-04-11T13:39:50Z</time></trkpt><trkpt lat="41.308720615396076" lon="13.919513841713833"><ele>387.0</ele><time>2026-04-11T13:39:51Z</time></trkpt><trkpt lat="41.308867189832945" lon="13.91946159797245"><ele>387.0</ele><time>2026-04-11T13:39:52Z</time></trkpt><trkpt lat="41.3090117692134" lon="13.919368464063208"><ele>387.0</ele><time>2026-04-11T13:39:53Z</time></trkpt><trkpt lat="41.30914323610812" lon="13.91930447160893"><ele>387.0</ele><time>2026-04-11T13:39:54Z</time></trkpt><trkpt lat="41.3092700320648" lon="13.919245414929213"><ele>387.0</ele><time>2026-04-11T13:39:55Z</time></trkpt><trkpt lat="41.3093866086335" lon="13.919178818262184"><ele>387.0</ele><time>2026-04-11T13:39:56Z</time></trkpt><trkpt lat="41.30950709074801" lon="13.919118671582375"><ele>387.0</ele><time>2026-04-11T13:39:57.001Z</time></trkpt><trkpt lat="41.309611187831024" lon="13.91904994125382"><ele>387.0</ele><time>2026-04-11T13:39:58.001Z</time></trkpt><trkpt lat="41.309710963745026" lon="13.91895823888027"><ele>387.0</ele><time>2026-04-11T13:39:59.001Z</time></trkpt><trkpt lat="41.30980683587903" lon="13.918860331882726"><ele>387.0</ele><time>2026-04-11T13:40:00.001Z</time></trkpt><trkpt lat="41.30989046721679" lon="13.918727396885423"><ele>387.0</ele><time>2026-04-11T13:40:01.001Z</time></trkpt><trkpt lat="41.30997121272586" lon="13.918573576830347"><ele>387.25</ele><time>2026-04-11T13:40:02.001Z</time></trkpt><trkpt lat="41.310054381369845" lon="13.91841820391274"><ele>387.5</ele><time>2026-04-11T13:40:03.001Z</time></trkpt><trkpt lat="41.310132558084014" lon="13.918277452939627"><ele>387.75</ele><time>2026-04-11T13:40:04.001Z</time></trkpt><trkpt lat="41.310201166685125" lon="13.918135052281517"><ele>388.0</ele><time>2026-04-11T13:40:05.001Z</time></trkpt><trkpt lat="41.310252792622045" lon="13.918013091034336"><ele>386.0</ele><time>2026-04-11T13:40:06.001Z</time></trkpt><trkpt lat="41.310326059043355" lon="13.917870080368386"><ele>384.0</ele><time>2026-04-11T13:40:07.001Z</time></trkpt><trkpt lat="41.31041037917336" lon="13.917727715564778"><ele>382.0</ele><time>2026-04-11T13:40:08.001Z</time></trkpt><trkpt lat="41.310481940150375" lon="13.917589684568691"><ele>380.0</ele><time>2026-04-11T13:40:09.001Z</time></trkpt><trkpt lat="41.31056716690543" lon="13.917458412708301"><ele>379.8</ele><time>2026-04-11T13:40:10.001Z</time></trkpt><trkpt lat="41.31065790064275" lon="13.91735156412818"><ele>379.6</ele><time>2026-04-11T13:40:11.001Z</time></trkpt><trkpt lat="41.31074970907654" lon="13.91726422302891"><ele>379.4</ele><time>2026-04-11T13:40:12.001Z</time></trkpt><trkpt lat="41.31082711909641" lon="13.917187379154282"><ele>379.2</ele><time>2026-04-11T13:40:13.001Z</time></trkpt><trkpt lat="41.31092017684416" lon="13.917115178816594"><ele>379.0</ele><time>2026-04-11T13:40:14.001Z</time></trkpt><trkpt lat="41.31102606436578" lon="13.917053582534654"><ele>379.0</ele><time>2026-04-11T13:40:15.001Z</time></trkpt><trkpt lat="41.31113771652728" lon="13.917025563634162"><ele>379.0</ele><time>2026-04-11T13:40:16.001Z</time></trkpt><trkpt lat="41.31124947022023" lon="13.917011144296481"><ele>379.0</ele><time>2026-04-11T13:40:17.001Z</time></trkpt><trkpt lat="41.311358170199306" lon="13.917045639504988"><ele>379.0</ele><time>2026-04-11T13:40:18.001Z</time></trkpt><trkpt lat="41.31147192160572" lon="13.917050012025225"><ele>378.75</ele><time>2026-04-11T13:40:19.001Z</time></trkpt><trkpt lat="41.311588553247724" lon="13.91705790768623"><ele>378.5</ele><time>2026-04-11T13:40:20.001Z</time></trkpt><trkpt lat="41.31168587543358" lon="13.917070571329038"><ele>378.25</ele><time>2026-04-11T13:40:21.001Z</time></trkpt><trkpt lat="41.31179139459396" lon="13.917134073110732"><ele>378.0</ele><time>2026-04-11T13:40:22.001Z</time></trkpt><trkpt lat="41.31189502225336" lon="13.917229270070733"><ele>378.0</ele><time>2026-04-11T13:40:23.001Z</time></trkpt><trkpt lat="41.31198710938731" lon="13.917311836705892"><ele>378.0</ele><time>2026-04-11T13:40:24.001Z</time></trkpt><trkpt lat="41.31204179306901" lon="13.91746187100297"><ele>378.0</ele><time>2026-04-11T13:40:25.001Z</time></trkpt><trkpt lat="41.31208817044969" lon="13.917627165027502"><ele>378.0</ele><time>2026-04-11T13:40:26.001Z</time></trkpt><trkpt lat="41.312147405469474" lon="13.917807629967028"><ele>378.3333333333333</ele><time>2026-04-11T13:40:27.001Z</time></trkpt><trkpt lat="41.31220902737293" lon="13.918000643386803"><ele>378.66666666666663</ele><time>2026-04-11T13:40:28.001Z</time></trkpt><trkpt lat="41.31227641512487" lon="13.918204762546328"><ele>379.0</ele><time>2026-04-11T13:40:29.001Z</time></trkpt><trkpt lat="41.31234775388651" lon="13.918407952124502"><ele>379.0</ele><time>2026-04-11T13:40:30.001Z</time></trkpt><trkpt lat="41.31242082410337" lon="13.918596938461883"><ele>379.0</ele><time>2026-04-11T13:40:31.001Z</time></trkpt><trkpt lat="41.31248550832396" lon="13.918766901953235"><ele>379.0</ele><time>2026-04-11T13:40:32.001Z</time></trkpt><trkpt lat="41.312544183685915" lon="13.918915016552054"><ele>379.0</ele><time>2026-04-11T13:40:33.001Z</time></trkpt><trkpt lat="41.312595392905486" lon="13.919037536367053"><ele>379.0</ele><time>2026-04-11T13:40:34.001Z</time></trkpt><trkpt lat="41.312651442989605" lon="13.919135473584188"><ele>379.0</ele><time>2026-04-11T13:40:35.001Z</time></trkpt><trkpt lat="41.31268585218844" lon="13.919281143763273"><ele>379.0</ele><time>2026-04-11T13:40:36.001Z</time></trkpt><trkpt lat="41.3127087704378" lon="13.919467091948237"><ele>379.0</ele><time>2026-04-11T13:40:37.001Z</time></trkpt><trkpt lat="41.312712970829075" lon="13.919683245214575"><ele>380.0</ele><time>2026-04-11T13:40:38.001Z</time></trkpt><trkpt lat="41.31270363908532" lon="13.91988832113785"><ele>381.0</ele><time>2026-04-11T13:40:39.001Z</time></trkpt><trkpt lat="41.312683453859385" lon="13.92007866442123"><ele>382.0</ele><time>2026-04-11T13:40:40.001Z</time></trkpt><trkpt lat="41.3126817191476" lon="13.920248720611141"><ele>383.0</ele><time>2026-04-11T13:40:41.001Z</time></trkpt><trkpt lat="41.31270820823948" lon="13.92044785173902"><ele>384.0</ele><time>2026-04-11T13:40:42.001Z</time></trkpt><trkpt lat="41.312774988381626" lon="13.920643117655613"><ele>385.0</ele><time>2026-04-11T13:40:43.001Z</time></trkpt><trkpt lat="41.312856004017924" lon="13.920845875434468"><ele>386.0</ele><time>2026-04-11T13:40:44.001Z</time></trkpt><trkpt lat="41.31294839866697" lon="13.92100844108275"><ele>387.0</ele><time>2026-04-11T13:40:45.001Z</time></trkpt><trkpt lat="41.31300425702186" lon="13.92114890184192"><ele>388.0</ele><time>2026-04-11T13:40:46.001Z</time></trkpt><trkpt lat="41.31304363046171" lon="13.921294982357528"><ele>389.0</ele><time>2026-04-11T13:40:47.001Z</time></trkpt><trkpt lat="41.31305419170581" lon="13.921431889625785"><ele>390.0</ele><time>2026-04-11T13:40:48.001Z</time></trkpt><trkpt lat="41.31303857493095" lon="13.92161427467495"><ele>391.75</ele><time>2026-04-11T13:40:49.001Z</time></trkpt><trkpt lat="41.313023113055614" lon="13.921828312864243"><ele>393.5</ele><time>2026-04-11T13:40:50.001Z</time></trkpt><trkpt lat="41.31301111676933" lon="13.922009501361211"><ele>395.25</ele><time>2026-04-11T13:40:51.001Z</time></trkpt><trkpt lat="41.31299816253702" lon="13.92218037881413"><ele>397.0</ele><time>2026-04-11T13:40:52.001Z</time></trkpt><trkpt lat="41.31297440831446" lon="13.92232263041803"><ele>397.0</ele><time>2026-04-11T13:40:53.002Z</time></trkpt><trkpt lat="41.31292012024882" lon="13.922463831313436"><ele>397.0</ele><time>2026-04-11T13:40:54.002Z</time></trkpt><trkpt lat="41.31285102462277" lon="13.922604562741585"><ele>397.0</ele><time>2026-04-11T13:40:55.002Z</time></trkpt><trkpt lat="41.31278938911886" lon="13.922707267906013"><ele>397.0</ele><time>2026-04-11T13:40:56.002Z</time></trkpt><trkpt lat="41.31275690586971" lon="13.922812736798939"><ele>397.0</ele><time>2026-04-11T13:40:57.002Z</time></trkpt><trkpt lat="41.31274727203283" lon="13.922907355170038"><ele>397.20000000000005</ele><time>2026-04-11T13:40:58.002Z</time></trkpt><trkpt lat="41.31280812531196" lon="13.922972762115634"><ele>397.4</ele><time>2026-04-11T13:40:59.002Z</time></trkpt><trkpt lat="41.31286774430476" lon="13.923050604331145"><ele>397.6</ele><time>2026-04-11T13:41:00.002Z</time></trkpt><trkpt lat="41.31297748455992" lon="13.92306318387897"><ele>397.79999999999995</ele><time>2026-04-11T13:41:01.002Z</time></trkpt><trkpt lat="41.31309047523476" lon="13.92304321041787"><ele>398.0</ele><time>2026-04-11T13:41:02.002Z</time></trkpt><trkpt lat="41.31321365590042" lon="13.922997326322806"><ele>396.66666666666663</ele><time>2026-04-11T13:41:03Z</time></trkpt><trkpt lat="41.31334364725496" lon="13.922912409605349"><ele>395.33333333333337</ele><time>2026-04-11T13:41:04Z</time></trkpt><trkpt lat="41.313474766491865" lon="13.922777228249187"><ele>394.0</ele><time>2026-04-11T13:41:05Z</time></trkpt><trkpt lat="41.31359550276611" lon="13.922582391304623"><ele>393.33333333333337</ele><time>2026-04-11T13:41:06Z</time></trkpt><trkpt lat="41.313730902115495" lon="13.922364545442134"><ele>392.66666666666663</ele><time>2026-04-11T13:41:07Z</time></trkpt><trkpt lat="41.31385914969766" lon="13.922174053846705"><ele>392.0</ele><time>2026-04-11T13:41:08Z</time></trkpt><trkpt lat="41.313960843684804" lon="13.922010097353297"><ele>392.0</ele><time>2026-04-11T13:41:09Z</time></trkpt><trkpt lat="41.31402786747508" lon="13.921869458129587"><ele>392.0</ele><time>2026-04-11T13:41:10Z</time></trkpt><trkpt lat="41.31408366283238" lon="13.921743058674885"><ele>392.0</ele><time>2026-04-11T13:41:11Z</time></trkpt><trkpt lat="41.314130129086514" lon="13.921642305504399"><ele>392.0</ele><time>2026-04-11T13:41:12Z</time></trkpt><trkpt lat="41.31423233050819" lon="13.921612538273475"><ele>392.0</ele><time>2026-04-11T13:41:13Z</time></trkpt><trkpt lat="41.31435404343854" lon="13.921611660485883"><ele>392.0</ele><time>2026-04-11T13:41:14Z</time></trkpt><trkpt lat="41.31447793260312" lon="13.921616886597702"><ele>392.0</ele><time>2026-04-11T13:41:15Z</time></trkpt><trkpt lat="41.314576396416946" lon="13.921646246163233"><ele>392.0</ele><time>2026-04-11T13:41:16Z</time></trkpt><trkpt lat="41.31464183123478" lon="13.921711700057065"><ele>392.0</ele><time>2026-04-11T13:41:17Z</time></trkpt><trkpt lat="41.314707491252726" lon="13.921838276569213"><ele>392.0</ele><time>2026-04-11T13:41:18Z</time></trkpt><trkpt lat="41.31479488733273" lon="13.921983631604974"><ele>391.75</ele><time>2026-04-11T13:41:19Z</time></trkpt><trkpt lat="41.31489729107812" lon="13.922124762267961"><ele>391.5</ele><time>2026-04-11T13:41:20Z</time></trkpt><trkpt lat="41.314987262778935" lon="13.922258165455592"><ele>391.25</ele><time>2026-04-11T13:41:21Z</time></trkpt><trkpt lat="41.31509222452148" lon="13.922366916595495"><ele>391.0</ele><time>2026-04-11T13:41:22Z</time></trkpt><trkpt lat="41.31514289160675" lon="13.922507711719437"><ele>393.5</ele><time>2026-04-11T13:41:23Z</time></trkpt><trkpt lat="41.31517416918899" lon="13.922667482342769"><ele>396.0</ele><time>2026-04-11T13:41:24Z</time></trkpt><trkpt lat="41.315210555251404" lon="13.92281386249239"><ele>398.5</ele><time>2026-04-11T13:41:25Z</time></trkpt><trkpt lat="41.31526873839827" lon="13.922941176862121"><ele>401.0</ele><time>2026-04-11T13:41:26Z</time></trkpt><trkpt lat="41.315372187878786" lon="13.923060711107846"><ele>401.0</ele><time>2026-04-11T13:41:27Z</time></trkpt><trkpt lat="41.315518622376906" lon="13.923116158877917"><ele>401.0</ele><time>2026-04-11T13:41:28Z</time></trkpt><trkpt lat="41.315651251005136" lon="13.923137884597654"><ele>401.0</ele><time>2026-04-11T13:41:29Z</time></trkpt><trkpt lat="41.31575496236734" lon="13.923159378048807"><ele>401.0</ele><time>2026-04-11T13:41:30Z</time></trkpt><trkpt lat="41.31583277401586" lon="13.923210365176258"><ele>401.75</ele><time>2026-04-11T13:41:31Z</time></trkpt><trkpt lat="41.315894205599" lon="13.923290297982087"><ele>402.5</ele><time>2026-04-11T13:41:32Z</time></trkpt><trkpt lat="41.31595499366919" lon="13.923429566239875"><ele>403.25</ele><time>2026-04-11T13:41:33Z</time></trkpt><trkpt lat="41.31603480189891" lon="13.92356906910504"><ele>404.0</ele><time>2026-04-11T13:41:34Z</time></trkpt><trkpt lat="41.31285102462277" lon="13.922604562741585"><ele>402.99999999999994</ele><time>2026-04-11T13:40:55.002Z</time></trkpt><trkpt lat="41.31278938911886" lon="13.922707267906013"><ele>402.0</ele><time>2026-04-11T13:40:56.002Z</time></trkpt><trkpt lat="41.31275690586971" lon="13.922812736798939"><ele>401.0</ele><time>2026-04-11T13:40:57.002Z</time></trkpt><trkpt lat="41.31274727203283" lon="13.922907355170038"><ele>400.0</ele><time>2026-04-11T13:40:58.002Z</time></trkpt><trkpt lat="41.31280812531196" lon="13.922972762115634"><ele>398.99999999999994</ele><time>2026-04-11T13:40:59.002Z</time></trkpt><trkpt lat="41.31286774430476" lon="13.923050604331145"><ele>398.0</ele><time>2026-04-11T13:41:00.002Z</time></trkpt><trkpt lat="41.31297748455992" lon="13.92306318387897"><ele>397.0</ele><time>2026-04-11T13:41:01.002Z</time></trkpt><trkpt lat="41.31309047523476" lon="13.92304321041787"><ele>396.0</ele><time>2026-04-11T13:41:02.002Z</time></trkpt><trkpt lat="41.31321365590042" lon="13.922997326322806"><ele>395.0</ele><time>2026-04-11T13:41:03Z</time></trkpt><trkpt lat="41.31334364725496" lon="13.922912409605349"><ele>394.0</ele><time>2026-04-11T13:41:04Z</time></trkpt><trkpt lat="41.313474766491865" lon="13.922777228249187"><ele>394.0</ele><time>2026-04-11T13:41:05Z</time></trkpt><trkpt lat="41.31359550276611" lon="13.922582391304623"><ele>394.0</ele><time>2026-04-11T13:41:06Z</time></trkpt><trkpt lat="41.313730902115495" lon="13.922364545442134"><ele>394.0</ele><time>2026-04-11T13:41:07Z</time></trkpt><trkpt lat="41.31385914969766" lon="13.922174053846705"><ele>393.5</ele><time>2026-04-11T13:41:08Z</time></trkpt><trkpt lat="41.313960843684804" lon="13.922010097353297"><ele>393.0</ele><time>2026-04-11T13:41:09Z</time></trkpt><trkpt lat="41.31402786747508" lon="13.921869458129587"><ele>392.5</ele><time>2026-04-11T13:41:10Z</time></trkpt><trkpt lat="41.31408366283238" lon="13.921743058674885"><ele>392.0</ele><time>2026-04-11T13:41:11Z</time></trkpt><trkpt lat="41.314130129086514" lon="13.921642305504399"><ele>389.25</ele><time>2026-04-11T13:41:12Z</time></trkpt><trkpt lat="41.31423233050819" lon="13.921612538273475"><ele>386.5</ele><time>2026-04-11T13:41:13Z</time></trkpt><trkpt lat="41.31435404343854" lon="13.921611660485883"><ele>383.75</ele><time>2026-04-11T13:41:14Z</time></trkpt><trkpt lat="41.31447793260312" lon="13.921616886597702"><ele>381.0</ele><time>2026-04-11T13:41:15Z</time></trkpt><trkpt lat="41.314576396416946" lon="13.921646246163233"><ele>381.0</ele><time>2026-04-11T13:41:16Z</time></trkpt><trkpt lat="41.31464183123478" lon="13.921711700057065"><ele>381.0</ele><time>2026-04-11T13:41:17Z</time></trkpt><trkpt lat="41.314707491252726" lon="13.921838276569213"><ele>381.0</ele><time>2026-04-11T13:41:18Z</time></trkpt><trkpt lat="41.31479488733273" lon="13.921983631604974"><ele>381.0</ele><time>2026-04-11T13:41:19Z</time></trkpt><trkpt lat="41.31489729107812" lon="13.922124762267961"><ele>383.5</ele><time>2026-04-11T13:41:20Z</time></trkpt><trkpt lat="41.314987262778935" lon="13.922258165455592"><ele>386.0</ele><time>2026-04-11T13:41:21Z</time></trkpt><trkpt lat="41.31509222452148" lon="13.922366916595495"><ele>388.5</ele><time>2026-04-11T13:41:22Z</time></trkpt><trkpt lat="41.31514289160675" lon="13.922507711719437"><ele>391.0</ele><time>2026-04-11T13:41:23Z</time></trkpt><trkpt lat="41.31517416918899" lon="13.922667482342769"><ele>393.5</ele><time>2026-04-11T13:41:24Z</time></trkpt><trkpt lat="41.315210555251404" lon="13.92281386249239"><ele>396.0</ele><time>2026-04-11T13:41:25Z</time></trkpt><trkpt lat="41.31526873839827" lon="13.922941176862121"><ele>398.5</ele><time>2026-04-11T13:41:26Z</time></trkpt><trkpt lat="41.315372187878786" lon="13.923060711107846"><ele>401.0</ele><time>2026-04-11T13:41:27Z</time></trkpt><trkpt lat="41.315518622376906" lon="13.923116158877917"><ele>401.6</ele><time>2026-04-11T13:41:28Z</time></trkpt><trkpt lat="41.315651251005136" lon="13.923137884597654"><ele>402.20000000000005</ele><time>2026-04-11T13:41:29Z</time></trkpt><trkpt lat="41.31575496236734" lon="13.923159378048807"><ele>402.79999999999995</ele><time>2026-04-11T13:41:30Z</time></trkpt><trkpt lat="41.31583277401586" lon="13.923210365176258"><ele>403.4</ele><time>2026-04-11T13:41:31Z</time></trkpt><trkpt lat="41.315894205599" lon="13.923290297982087"><ele>404.0</ele><time>2026-04-11T13:41:32Z</time></trkpt><trkpt lat="41.31595499366919" lon="13.923429566239875"><ele>404.0</ele><time>2026-04-11T13:41:33Z</time></trkpt><trkpt lat="41.31603480189891" lon="13.92356906910504"><ele>404.0</ele><time>2026-04-11T13:41:34Z</time></trkpt><trkpt lat="41.31608097559873" lon="13.923696299729288"><ele>404.0</ele><time>2026-04-11T13:41:35Z</time></trkpt><trkpt lat="41.31616165206878" lon="13.923802980884156"><ele>404.0</ele><time>2026-04-11T13:41:36Z</time></trkpt><trkpt lat="41.316270237252716" lon="13.92390473141545"><ele>404.0</ele><time>2026-04-11T13:41:37Z</time></trkpt><trkpt lat="41.31638773182322" lon="13.923998269179517"><ele>404.0</ele><time>2026-04-11T13:41:38Z</time></trkpt><trkpt lat="41.316514673190504" lon="13.924082702551093"><ele>404.0</ele><time>2026-04-11T13:41:39Z</time></trkpt><trkpt lat="41.316664697991285" lon="13.924148119796188"><ele>404.0</ele><time>2026-04-11T13:41:40Z</time></trkpt><trkpt lat="41.316813403021925" lon="13.924211410865333"><ele>405.3333333333333</ele><time>2026-04-11T13:41:41Z</time></trkpt><trkpt lat="41.31697379314745" lon="13.924271385180631"><ele>406.66666666666663</ele><time>2026-04-11T13:41:42Z</time></trkpt><trkpt lat="41.31712255539856" lon="13.924346062789313"><ele>408.0</ele><time>2026-04-11T13:41:43Z</time></trkpt><trkpt lat="41.317281820208564" lon="13.924409614611548"><ele>408.0</ele><time>2026-04-11T13:41:44Z</time></trkpt><trkpt lat="41.3174222223162" lon="13.92444484815466"><ele>408.0</ele><time>2026-04-11T13:41:45Z</time></trkpt><trkpt lat="41.317585112804544" lon="13.924455647709777"><ele>408.0</ele><time>2026-04-11T13:41:46Z</time></trkpt><trkpt lat="41.31772061179241" lon="13.924452917618087"><ele>408.0</ele><time>2026-04-11T13:41:47Z</time></trkpt><trkpt lat="41.31782406535024" lon="13.92445332373159"><ele>408.0</ele><time>2026-04-11T13:41:48.001Z</time></trkpt><trkpt lat="41.317913489105834" lon="13.924488285248785"><ele>408.0</ele><time>2026-04-11T13:41:49.001Z</time></trkpt><trkpt lat="41.31799855732701" lon="13.924543593776786"><ele>408.0</ele><time>2026-04-11T13:41:50.001Z</time></trkpt><trkpt lat="41.31805402729416" lon="13.924652951118658"><ele>408.0</ele><time>2026-04-11T13:41:51.001Z</time></trkpt><trkpt lat="41.31809345138757" lon="13.924782291786974"><ele>408.0</ele><time>2026-04-11T13:41:52.001Z</time></trkpt><trkpt lat="41.31813657107176" lon="13.924967854353534"><ele>406.0</ele><time>2026-04-11T13:41:53.001Z</time></trkpt><trkpt lat="41.318186137830864" lon="13.925188045108204"><ele>404.0</ele><time>2026-04-11T13:41:54.001Z</time></trkpt><trkpt lat="41.31825116021056" lon="13.925414492805894"><ele>402.0</ele><time>2026-04-11T13:41:55.001Z</time></trkpt><trkpt lat="41.31833014606363" lon="13.925650026327311"><ele>402.0</ele><time>2026-04-11T13:41:56.001Z</time></trkpt><trkpt lat="41.318430087578164" lon="13.925876545827535"><ele>402.0</ele><time>2026-04-11T13:41:57.001Z</time></trkpt><trkpt lat="41.31856006902309" lon="13.92606898012532"><ele>402.0</ele><time>2026-04-11T13:41:58.001Z</time></trkpt><trkpt lat="41.31868642061056" lon="13.92622447160934"><ele>402.33333333333337</ele><time>2026-04-11T13:41:59.001Z</time></trkpt><trkpt lat="41.318794446944246" lon="13.926376861597141"><ele>402.6666666666667</ele><time>2026-04-11T13:42:00.001Z</time></trkpt><trkpt lat="41.31888245006128" lon="13.9265463554175"><ele>403.0</ele><time>2026-04-11T13:42:01.001Z</time></trkpt><trkpt lat="41.318962175796" lon="13.926737682450025"><ele>403.0</ele><time>2026-04-11T13:42:02.001Z</time></trkpt><trkpt lat="41.31904178577917" lon="13.926959743555004"><ele>403.0</ele><time>2026-04-11T13:42:03.001Z</time></trkpt><trkpt lat="41.31915754779989" lon="13.92710453142322"><ele>403.0</ele><time>2026-04-11T13:42:04.001Z</time></trkpt><trkpt lat="41.31925902254333" lon="13.927187618911484"><ele>403.0</ele><time>2026-04-11T13:42:05.001Z</time></trkpt><trkpt lat="41.31932124958031" lon="13.927297525880078"><ele>403.0</ele><time>2026-04-11T13:42:06.001Z</time></trkpt><trkpt lat="41.319349460946526" lon="13.927421558909957"><ele>403.0</ele><time>2026-04-11T13:42:07.001Z</time></trkpt><trkpt lat="41.31933969972137" lon="13.927568251738196"><ele>403.0</ele><time>2026-04-11T13:42:08.001Z</time></trkpt><trkpt lat="41.3192997292903" lon="13.927738826999391"><ele>403.0</ele><time>2026-04-11T13:42:09.001Z</time></trkpt><trkpt lat="41.319229793551" lon="13.927916544096265"><ele>402.75</ele><time>2026-04-11T13:42:10.001Z</time></trkpt><trkpt lat="41.31913944940838" lon="13.928075898452327"><ele>402.5</ele><time>2026-04-11T13:42:11.001Z</time></trkpt><trkpt lat="41.31906602286533" lon="13.92820651192041"><ele>402.25</ele><time>2026-04-11T13:42:12.001Z</time></trkpt><trkpt lat="41.319017269177714" lon="13.928372569879077"><ele>402.0</ele><time>2026-04-11T13:42:13.001Z</time></trkpt><trkpt lat="41.318994094156785" lon="13.928549175169763"><ele>403.0</ele><time>2026-04-11T13:42:14.001Z</time></trkpt><trkpt lat="41.31899692928483" lon="13.928698134290775"><ele>404.0</ele><time>2026-04-11T13:42:15.001Z</time></trkpt><trkpt lat="41.31900447223133" lon="13.928813965217115"><ele>405.0</ele><time>2026-04-11T13:42:16.001Z</time></trkpt><trkpt lat="41.319033849010026" lon="13.928921620684312"><ele>406.0</ele><time>2026-04-11T13:42:17.001Z</time></trkpt><trkpt lat="41.319076412317315" lon="13.92901262007857"><ele>407.0</ele><time>2026-04-11T13:42:18.001Z</time></trkpt><trkpt lat="41.31915299316321" lon="13.929028531132769"><ele>408.0</ele><time>2026-04-11T13:42:19.001Z</time></trkpt><trkpt lat="41.31923837713548" lon="13.92898928943741"><ele>408.0</ele><time>2026-04-11T13:42:20.001Z</time></trkpt><trkpt lat="41.31935745611318" lon="13.928901399503896"><ele>408.0</ele><time>2026-04-11T13:42:21.001Z</time></trkpt><trkpt lat="41.31947568062663" lon="13.928810927031343"><ele>408.0</ele><time>2026-04-11T13:42:22.001Z</time></trkpt><trkpt lat="41.31962067354285" lon="13.928699969835222"><ele>408.0</ele><time>2026-04-11T13:42:23.001Z</time></trkpt><trkpt lat="41.31975913669795" lon="13.92859544089815"><ele>409.0</ele><time>2026-04-11T13:42:24.001Z</time></trkpt><trkpt lat="41.319895702024176" lon="13.928494571670951"><ele>410.0</ele><time>2026-04-11T13:42:25.001Z</time></trkpt><trkpt lat="41.32002460902154" lon="13.928408348203167"><ele>411.0</ele><time>2026-04-11T13:42:26.001Z</time></trkpt><trkpt lat="41.320169920261094" lon="13.928337575420462"><ele>408.33333333333337</ele><time>2026-04-11T13:42:27.001Z</time></trkpt><trkpt lat="41.320342792288926" lon="13.928270735750909"><ele>405.6666666666667</ele><time>2026-04-11T13:42:28.001Z</time></trkpt><trkpt lat="41.32049946861788" lon="13.928220388027913"><ele>403.0</ele><time>2026-04-11T13:42:29.001Z</time></trkpt><trkpt lat="41.320635437297035" lon="13.928180708016344"><ele>403.0</ele><time>2026-04-11T13:42:30.001Z</time></trkpt><trkpt lat="41.32076107892545" lon="13.928151132493321"><ele>403.0</ele><time>2026-04-11T13:42:31.001Z</time></trkpt><trkpt lat="41.32087132581893" lon="13.928130725582154"><ele>403.0</ele><time>2026-04-11T13:42:32.001Z</time></trkpt><trkpt lat="41.3209561786945" lon="13.928106896622486"><ele>403.0</ele><time>2026-04-11T13:42:33.001Z</time></trkpt><trkpt lat="41.32103960145778" lon="13.928149717105109"><ele>403.0</ele><time>2026-04-11T13:42:34.001Z</time></trkpt><trkpt lat="41.32112304721306" lon="13.92824306195522"><ele>403.0</ele><time>2026-04-11T13:42:35.001Z</time></trkpt><trkpt lat="41.3212110637004" lon="13.928389503997357"><ele>403.0</ele><time>2026-04-11T13:42:36.001Z</time></trkpt><trkpt lat="41.321282326807314" lon="13.928559769908263"><ele>403.0</ele><time>2026-04-11T13:42:37.001Z</time></trkpt><trkpt lat="41.32138336961895" lon="13.928675761603929"><ele>403.0</ele><time>2026-04-11T13:42:38.001Z</time></trkpt><trkpt lat="41.32149899438277" lon="13.928768965283647"><ele>403.75</ele><time>2026-04-11T13:42:39.001Z</time></trkpt><trkpt lat="41.32164677136723" lon="13.92880928544979"><ele>404.5</ele><time>2026-04-11T13:42:40.001Z</time></trkpt><trkpt lat="41.32176816341968" lon="13.92883519894881"><ele>405.25</ele><time>2026-04-11T13:42:41.001Z</time></trkpt><trkpt lat="41.3218767310065" lon="13.928825793898026"><ele>406.0</ele><time>2026-04-11T13:42:42.002Z</time></trkpt><trkpt lat="41.3219732978112" lon="13.928835866414268"><ele>406.0</ele><time>2026-04-11T13:42:43.002Z</time></trkpt><trkpt lat="41.32208282063031" lon="13.928889138691805"><ele>406.0</ele><time>2026-04-11T13:42:44.002Z</time></trkpt><trkpt lat="41.32217430862403" lon="13.929032620055846"><ele>406.0</ele><time>2026-04-11T13:42:45.002Z</time></trkpt><trkpt lat="41.32227962603963" lon="13.92915368824806"><ele>406.0</ele><time>2026-04-11T13:42:46.002Z</time></trkpt><trkpt lat="41.32239941741873" lon="13.929234806410092"><ele>405.6666666666667</ele><time>2026-04-11T13:42:47.002Z</time></trkpt><trkpt lat="41.32254333157467" lon="13.929232193895245"><ele>405.33333333333337</ele><time>2026-04-11T13:42:48.002Z</time></trkpt><trkpt lat="41.322688999218585" lon="13.929173100762132"><ele>405.0</ele><time>2026-04-11T13:42:49.002Z</time></trkpt><trkpt lat="41.322840264575596" lon="13.92909813348717"><ele>405.0</ele><time>2026-04-11T13:42:50.002Z</time></trkpt><trkpt lat="41.32297057232177" lon="13.929033341989658"><ele>405.0</ele><time>2026-04-11T13:42:51.002Z</time></trkpt><trkpt lat="41.32307919566989" lon="13.928997036748505"><ele>405.0</ele><time>2026-04-11T13:42:52.002Z</time></trkpt><trkpt lat="41.32317155297752" lon="13.928993179657517"><ele>405.0</ele><time>2026-04-11T13:42:53.002Z</time></trkpt><trkpt lat="41.32327626483572" lon="13.929013628219348"><ele>405.0</ele><time>2026-04-11T13:42:54.002Z</time></trkpt><trkpt lat="41.32340119384466" lon="13.929080210419965"><ele>405.0</ele><time>2026-04-11T13:42:55.002Z</time></trkpt><trkpt lat="41.32354376344004" lon="13.929169934550814"><ele>405.0</ele><time>2026-04-11T13:42:56.002Z</time></trkpt><trkpt lat="41.323696264331936" lon="13.929222682780734"><ele>405.0</ele><time>2026-04-11T13:42:57.002Z</time></trkpt><trkpt lat="41.32380755895018" lon="13.929255968550446"><ele>405.0</ele><time>2026-04-11T13:42:58.002Z</time></trkpt><trkpt lat="41.32390364240119" lon="13.92931020050331"><ele>405.0</ele><time>2026-04-11T13:42:59.002Z</time></trkpt><trkpt lat="41.32399928632447" lon="13.929383702585882"><ele>405.0</ele><time>2026-04-11T13:43:00.002Z</time></trkpt><trkpt lat="41.32402562774262" lon="13.929526270497982"><ele>405.0</ele><time>2026-04-11T13:43:01.002Z</time></trkpt><trkpt lat="41.32403479136098" lon="13.929679833408793"><ele>405.0</ele><time>2026-04-11T13:43:02.002Z</time></trkpt><trkpt lat="41.324061073913285" lon="13.929868895554055"><ele>407.0</ele><time>2026-04-11T13:43:03.002Z</time></trkpt><trkpt lat="41.324085263728264" lon="13.93007663155711"><ele>409.0</ele><time>2026-04-11T13:43:04.002Z</time></trkpt><trkpt lat="41.32412811181035" lon="13.930294032218292"><ele>411.0</ele><time>2026-04-11T13:43:05.002Z</time></trkpt><trkpt lat="41.32423026322805" lon="13.93051043262842"><ele>411.0</ele><time>2026-04-11T13:43:06.002Z</time></trkpt><trkpt lat="41.32436045229228" lon="13.93069330802699"><ele>411.0</ele><time>2026-04-11T13:43:07.002Z</time></trkpt><trkpt lat="41.32445755956854" lon="13.93093436159457"><ele>411.0</ele><time>2026-04-11T13:43:08.002Z</time></trkpt><trkpt lat="41.324559119877875" lon="13.93114331341722"><ele>410.33333333333337</ele><time>2026-04-11T13:43:09Z</time></trkpt><trkpt lat="41.32463247447746" lon="13.931337247315055"><ele>409.6666666666667</ele><time>2026-04-11T13:43:10Z</time></trkpt><trkpt lat="41.324690976672386" lon="13.931529988432354"><ele>409.0</ele><time>2026-04-11T13:43:11Z</time></trkpt><trkpt lat="41.32473344101758" lon="13.931719011541956"><ele>409.0</ele><time>2026-04-11T13:43:12Z</time></trkpt><trkpt lat="41.324763713814406" lon="13.9319259128185"><ele>409.0</ele><time>2026-04-11T13:43:13Z</time></trkpt><trkpt lat="41.324764371117595" lon="13.932160207360546"><ele>409.0</ele><time>2026-04-11T13:43:14Z</time></trkpt><trkpt lat="41.32475815654062" lon="13.932408216800708"><ele>406.5</ele><time>2026-04-11T13:43:15Z</time></trkpt><trkpt lat="41.32474549688703" lon="13.93262732388724"><ele>404.0</ele><time>2026-04-11T13:43:16Z</time></trkpt><trkpt lat="41.32475853879855" lon="13.932797679893502"><ele>401.5</ele><time>2026-04-11T13:43:17Z</time></trkpt><trkpt lat="41.32477705582418" lon="13.932930611413488"><ele>399.0</ele><time>2026-04-11T13:43:18Z</time></trkpt><trkpt lat="41.32474871168837" lon="13.933063531355081"><ele>401.75</ele><time>2026-04-11T13:43:19Z</time></trkpt><trkpt lat="41.32468459215101" lon="13.933182338225098"><ele>404.5</ele><time>2026-04-11T13:43:20Z</time></trkpt><trkpt lat="41.32459088427606" lon="13.933290449814672"><ele>407.25</ele><time>2026-04-11T13:43:21Z</time></trkpt><trkpt lat="41.32447684697288" lon="13.933380754397199"><ele>410.0</ele><time>2026-04-11T13:43:22Z</time></trkpt><trkpt lat="41.32435588699924" lon="13.933441308467597"><ele>410.0</ele><time>2026-04-11T13:43:23Z</time></trkpt><trkpt lat="41.324240110074015" lon="13.93345526821916"><ele>410.0</ele><time>2026-04-11T13:43:24Z</time></trkpt><trkpt lat="41.324133048425075" lon="13.933489665401783"><ele>410.0</ele><time>2026-04-11T13:43:25Z</time></trkpt><trkpt lat="41.32403642901691" lon="13.93359436684962"><ele>410.0</ele><time>2026-04-11T13:43:26Z</time></trkpt><trkpt lat="41.32395134093798" lon="13.933764841299643"><ele>414.3333333333333</ele><time>2026-04-11T13:43:27Z</time></trkpt><trkpt lat="41.323834980308455" lon="13.93393482770053"><ele>418.66666666666663</ele><time>2026-04-11T13:43:28Z</time></trkpt><trkpt lat="41.323698838292984" lon="13.934095355141762"><ele>423.0</ele><time>2026-04-11T13:43:29Z</time></trkpt><trkpt lat="41.32358467900568" lon="13.93423016668237"><ele>423.2</ele><time>2026-04-11T13:43:30Z</time></trkpt><trkpt lat="41.323479733495454" lon="13.934349402327083"><ele>423.4</ele><time>2026-04-11T13:43:31Z</time></trkpt><trkpt lat="41.32339311775862" lon="13.934476145032676"><ele>423.59999999999997</ele><time>2026-04-11T13:43:32Z</time></trkpt><trkpt lat="41.323329297413075" lon="13.934580464110397"><ele>423.79999999999995</ele><time>2026-04-11T13:43:33Z</time></trkpt><trkpt lat="41.32330201533242" lon="13.934681200772353"><ele>424.0</ele><time>2026-04-11T13:43:34Z</time></trkpt><trkpt lat="41.323283733222425" lon="13.934764746676665"><ele>424.0</ele><time>2026-04-11T13:43:35Z</time></trkpt><trkpt lat="41.323298067070695" lon="13.934875263642358"><ele>424.0</ele><time>2026-04-11T13:43:36Z</time></trkpt><trkpt lat="41.32337898106513" lon="13.934984586167612"><ele>424.0</ele><time>2026-04-11T13:43:37Z</time></trkpt><trkpt lat="41.323508918021446" lon="13.93503398500845"><ele>424.0</ele><time>2026-04-11T13:43:38Z</time></trkpt><trkpt lat="41.323646659807" lon="13.935005606463436"><ele>424.0</ele><time>2026-04-11T13:43:39Z</time></trkpt><trkpt lat="41.323780886682194" lon="13.934945475348298"><ele>424.0</ele><time>2026-04-11T13:43:40Z</time></trkpt><trkpt lat="41.32390880111196" lon="13.934906921345958"><ele>424.0</ele><time>2026-04-11T13:43:41Z</time></trkpt><trkpt lat="41.324036313878715" lon="13.934882418455972"><ele>424.0</ele><time>2026-04-11T13:43:42Z</time></trkpt><trkpt lat="41.32415537334076" lon="13.934869719456032"><ele>425.0</ele><time>2026-04-11T13:43:43Z</time></trkpt><trkpt lat="41.32427163346657" lon="13.934892801199577"><ele>426.0</ele><time>2026-04-11T13:43:44Z</time></trkpt><trkpt lat="41.32436752574925" lon="13.934909642518821"><ele>427.0</ele><time>2026-04-11T13:43:45Z</time></trkpt><trkpt lat="41.32444885670343" lon="13.934992764889149"><ele>428.0</ele><time>2026-04-11T13:43:46Z</time></trkpt><trkpt lat="41.324480910530035" lon="13.935110662951137"><ele>429.0</ele><time>2026-04-11T13:43:47Z</time></trkpt><trkpt lat="41.32451269515126" lon="13.935265156744695"><ele>429.0</ele><time>2026-04-11T13:43:48Z</time></trkpt><trkpt lat="41.32457459839242" lon="13.935456294817731"><ele>429.0</ele><time>2026-04-11T13:43:49Z</time></trkpt><trkpt lat="41.32469041015386" lon="13.93563387397836"><ele>429.0</ele><time>2026-04-11T13:43:50Z</time></trkpt><trkpt lat="41.32480306618412" lon="13.9357761547787"><ele>427.5</ele><time>2026-04-11T13:43:51.001Z</time></trkpt><trkpt lat="41.32488103615956" lon="13.935912047257384"><ele>426.0</ele><time>2026-04-11T13:43:52.001Z</time></trkpt><trkpt lat="41.32493501258894" lon="13.936055420362766"><ele>424.5</ele><time>2026-04-11T13:43:53.001Z</time></trkpt><trkpt lat="41.32496970268917" lon="13.936219300029626"><ele>423.0</ele><time>2026-04-11T13:43:54.001Z</time></trkpt><trkpt lat="41.32497384346186" lon="13.936365177995452"><ele>423.0</ele><time>2026-04-11T13:43:55.001Z</time></trkpt><trkpt lat="41.32495023833739" lon="13.936535308787322"><ele>423.0</ele><time>2026-04-11T13:43:56.001Z</time></trkpt><trkpt lat="41.32492024689213" lon="13.936743618229901"><ele>423.0</ele><time>2026-04-11T13:43:57.001Z</time></trkpt><trkpt lat="41.324897795297325" lon="13.936926018720792"><ele>423.0</ele><time>2026-04-11T13:43:58.001Z</time></trkpt><trkpt lat="41.32489682913341" lon="13.937043546346505"><ele>424.4</ele><time>2026-04-11T13:43:59.001Z</time></trkpt><trkpt lat="41.324910339668435" lon="13.937146923647378"><ele>425.79999999999995</ele><time>2026-04-11T13:44:00.001Z</time></trkpt><trkpt lat="41.3249643383396" lon="13.937249048138023"><ele>427.2</ele><time>2026-04-11T13:44:01.001Z</time></trkpt><trkpt lat="41.325054012724436" lon="13.937315117737445"><ele>428.6</ele><time>2026-04-11T13:44:02.001Z</time></trkpt><trkpt lat="41.325173663965515" lon="13.93729323671189"><ele>430.0</ele><time>2026-04-11T13:44:03.001Z</time></trkpt><trkpt lat="41.32530009815014" lon="13.93727422656763"><ele>430.0</ele><time>2026-04-11T13:44:04.001Z</time></trkpt><trkpt lat="41.32540818721959" lon="13.937249581386876"><ele>430.0</ele><time>2026-04-11T13:44:05.001Z</time></trkpt><trkpt lat="41.32549375701088" lon="13.937223513969666"><ele>430.0</ele><time>2026-04-11T13:44:06.001Z</time></trkpt><trkpt lat="41.32558073955838" lon="13.93728145884096"><ele>430.0</ele><time>2026-04-11T13:44:07.001Z</time></trkpt><trkpt lat="41.325638144875484" lon="13.937357942251746"><ele>430.0</ele><time>2026-04-11T13:44:08.001Z</time></trkpt><trkpt lat="41.325702474189484" lon="13.93746877964053"><ele>428.5</ele><time>2026-04-11T13:44:09.001Z</time></trkpt><trkpt lat="41.325757759815154" lon="13.93761166019411"><ele>427.0</ele><time>2026-04-11T13:44:10.001Z</time></trkpt><trkpt lat="41.325798132394155" lon="13.937776879641222"><ele>425.5</ele><time>2026-04-11T13:44:11.001Z</time></trkpt><trkpt lat="41.325819491027055" lon="13.937957737061314"><ele>424.0</ele><time>2026-04-11T13:44:12.001Z</time></trkpt><trkpt lat="41.325813572748416" lon="13.93811935957845"><ele>424.0</ele><time>2026-04-11T13:44:13.001Z</time></trkpt><trkpt lat="41.32578735810957" lon="13.938286698668996"><ele>424.0</ele><time>2026-04-11T13:44:14.001Z</time></trkpt><trkpt lat="41.32573658447544" lon="13.938482142106071"><ele>424.0</ele><time>2026-04-11T13:44:15.001Z</time></trkpt><trkpt lat="41.3256725497634" lon="13.938703132870447"><ele>423.33333333333337</ele><time>2026-04-11T13:44:16.001Z</time></trkpt><trkpt lat="41.32559115522302" lon="13.938936586164452"><ele>422.66666666666663</ele><time>2026-04-11T13:44:17.001Z</time></trkpt><trkpt lat="41.32550931595752" lon="13.93917036597472"><ele>422.0</ele><time>2026-04-11T13:44:18.001Z</time></trkpt><trkpt lat="41.32544084623857" lon="13.939357268017623"><ele>426.0</ele><time>2026-04-11T13:44:19.001Z</time></trkpt><trkpt lat="41.32537355943735" lon="13.93951799867247"><ele>430.0</ele><time>2026-04-11T13:44:20.001Z</time></trkpt><trkpt lat="41.32532330797894" lon="13.939647505529972"><ele>434.0</ele><time>2026-04-11T13:44:21.001Z</time></trkpt><trkpt lat="41.325299474295086" lon="13.939803176691246"><ele>438.0</ele><time>2026-04-11T13:44:22.001Z</time></trkpt><trkpt lat="41.32533550337415" lon="13.939997784046874"><ele>436.33333333333337</ele><time>2026-04-11T13:44:23.001Z</time></trkpt><trkpt lat="41.32541041517581" lon="13.94020121741598"><ele>434.6666666666667</ele><time>2026-04-11T13:44:24.001Z</time></trkpt><trkpt lat="41.32549659328194" lon="13.940394049345487"><ele>433.0</ele><time>2026-04-11T13:44:25.001Z</time></trkpt><trkpt lat="41.32560413194209" lon="13.940555301862446"><ele>433.0</ele><time>2026-04-11T13:44:26.001Z</time></trkpt><trkpt lat="41.325720114633555" lon="13.940672868485597"><ele>433.0</ele><time>2026-04-11T13:44:27.001Z</time></trkpt><trkpt lat="41.32582127889331" lon="13.940768077040023"><ele>433.0</ele><time>2026-04-11T13:44:28.001Z</time></trkpt><trkpt lat="41.32591583641111" lon="13.9408296702318"><ele>433.0</ele><time>2026-04-11T13:44:29.001Z</time></trkpt><trkpt lat="41.32601867126497" lon="13.940883043788963"><ele>433.0</ele><time>2026-04-11T13:44:30.001Z</time></trkpt><trkpt lat="41.32611970001859" lon="13.940902195814424"><ele>432.99999999999994</ele><time>2026-04-11T13:44:31.001Z</time></trkpt><trkpt lat="41.32622549241185" lon="13.940876890168017"><ele>432.99999999999994</ele><time>2026-04-11T13:44:32.001Z</time></trkpt><trkpt lat="41.326312593260816" lon="13.940811009168437"><ele>433.0</ele><time>2026-04-11T13:44:33.001Z</time></trkpt><trkpt lat="41.326395247105275" lon="13.940670318149031"><ele>433.0</ele><time>2026-04-11T13:44:34.001Z</time></trkpt><trkpt lat="41.32649019606032" lon="13.940529733283485"><ele>434.0</ele><time>2026-04-11T13:44:35.001Z</time></trkpt><trkpt lat="41.326598007061996" lon="13.940396918849288"><ele>435.0</ele><time>2026-04-11T13:44:36.001Z</time></trkpt><trkpt lat="41.326693986971996" lon="13.940303509771507"><ele>436.0</ele><time>2026-04-11T13:44:37.001Z</time></trkpt><trkpt lat="41.32680439034517" lon="13.94023708936316"><ele>437.0</ele><time>2026-04-11T13:44:38.001Z</time></trkpt><trkpt lat="41.32692255301582" lon="13.940216275046438"><ele>437.0</ele><time>2026-04-11T13:44:39.001Z</time></trkpt><trkpt lat="41.32703896715628" lon="13.94024161680853"><ele>437.0</ele><time>2026-04-11T13:44:40.001Z</time></trkpt><trkpt lat="41.32716750892905" lon="13.94034183910143"><ele>437.0</ele><time>2026-04-11T13:44:41.001Z</time></trkpt><trkpt lat="41.32730493339323" lon="13.940438811546533"><ele>437.0</ele><time>2026-04-11T13:44:42.001Z</time></trkpt><trkpt lat="41.32743711574379" lon="13.940556327733846"><ele>436.75</ele><time>2026-04-11T13:44:43.001Z</time></trkpt><trkpt lat="41.327542058418835" lon="13.94068701532486"><ele>436.5</ele><time>2026-04-11T13:44:44.001Z</time></trkpt><trkpt lat="41.32764767664249" lon="13.940818372430122"><ele>436.25</ele><time>2026-04-11T13:44:45.002Z</time></trkpt><trkpt lat="41.32771261876174" lon="13.941009621586815"><ele>436.0</ele><time>2026-04-11T13:44:46.002Z</time></trkpt><trkpt lat="41.327786601097664" lon="13.941206504593968"><ele>436.0</ele><time>2026-04-11T13:44:47.002Z</time></trkpt><trkpt lat="41.32783732184505" lon="13.941430928071972"><ele>436.0</ele><time>2026-04-11T13:44:48.002Z</time></trkpt><trkpt lat="41.32790195775312" lon="13.941670860393105"><ele>436.0</ele><time>2026-04-11T13:44:49.002Z</time></trkpt><trkpt lat="41.32797414514183" lon="13.941923908830061"><ele>434.6666666666667</ele><time>2026-04-11T13:44:50.002Z</time></trkpt><trkpt lat="41.32806103425256" lon="13.942167735276985"><ele>433.33333333333337</ele><time>2026-04-11T13:44:51.002Z</time></trkpt><trkpt lat="41.328149968734806" lon="13.942422184921064"><ele>432.0</ele><time>2026-04-11T13:44:52.002Z</time></trkpt><trkpt lat="41.32823376012972" lon="13.942663764662388"><ele>432.0</ele><time>2026-04-11T13:44:53.002Z</time></trkpt><trkpt lat="41.32831502324782" lon="13.94288471333061"><ele>432.0</ele><time>2026-04-11T13:44:54.002Z</time></trkpt><trkpt lat="41.3283916757482" lon="13.943106101150082"><ele>432.0</ele><time>2026-04-11T13:44:55.002Z</time></trkpt><trkpt lat="41.32846009824476" lon="13.943343355005673"><ele>432.66666666666663</ele><time>2026-04-11T13:44:56.002Z</time></trkpt><trkpt lat="41.32849100642979" lon="13.943583776858386"><ele>433.3333333333333</ele><time>2026-04-11T13:44:57.002Z</time></trkpt><trkpt lat="41.32853131671229" lon="13.943827525935848"><ele>434.0</ele><time>2026-04-11T13:44:58.002Z</time></trkpt><trkpt lat="41.328581476919005" lon="13.944055904154872"><ele>434.0</ele><time>2026-04-11T13:44:59.002Z</time></trkpt><trkpt lat="41.3286554399459" lon="13.944255381444792"><ele>434.0</ele><time>2026-04-11T13:45:00.002Z</time></trkpt><trkpt lat="41.32874558775415" lon="13.944432400221087"><ele>434.0</ele><time>2026-04-11T13:45:01.002Z</time></trkpt><trkpt lat="41.3288396332895" lon="13.944586770729627"><ele>434.0</ele><time>2026-04-11T13:45:02.002Z</time></trkpt><trkpt lat="41.32888578631016" lon="13.944812611755303"><ele>434.0</ele><time>2026-04-11T13:45:03.002Z</time></trkpt><trkpt lat="41.328941665146004" lon="13.945057128988688"><ele>434.0</ele><time>2026-04-11T13:45:04.002Z</time></trkpt><trkpt lat="41.329005446865466" lon="13.94530972413323"><ele>432.66666666666663</ele><time>2026-04-11T13:45:05.002Z</time></trkpt><trkpt lat="41.32907943025724" lon="13.945567098239856"><ele>431.33333333333337</ele><time>2026-04-11T13:45:06.002Z</time></trkpt><trkpt lat="41.329156688437905" lon="13.945808342721092"><ele>430.0</ele><time>2026-04-11T13:45:07.002Z</time></trkpt><trkpt lat="41.329253073484196" lon="13.946024189871174"><ele>430.0</ele><time>2026-04-11T13:45:08.002Z</time></trkpt><trkpt lat="41.32934143591828" lon="13.946239912025582"><ele>430.0</ele><time>2026-04-11T13:45:09.002Z</time></trkpt><trkpt lat="41.329426204780795" lon="13.946430426714635"><ele>430.0</ele><time>2026-04-11T13:45:10.002Z</time></trkpt><trkpt lat="41.32951143574922" lon="13.946607583753412"><ele>431.33333333333337</ele><time>2026-04-11T13:45:11.002Z</time></trkpt><trkpt lat="41.32958389992414" lon="13.946791404663735"><ele>432.66666666666663</ele><time>2026-04-11T13:45:12.002Z</time></trkpt><trkpt lat="41.32963663921915" lon="13.94700288241906"><ele>434.0</ele><time>2026-04-11T13:45:13.002Z</time></trkpt><trkpt lat="41.32967441892123" lon="13.94723571309114"><ele>434.0</ele><time>2026-04-11T13:45:14Z</time></trkpt><trkpt lat="41.32969203024161" lon="13.947457301281549"><ele>434.0</ele><time>2026-04-11T13:45:15Z</time></trkpt><trkpt lat="41.329719442360684" lon="13.947649813193937"><ele>434.0</ele><time>2026-04-11T13:45:16Z</time></trkpt><trkpt lat="41.32974077926666" lon="13.947801624623171"><ele>434.0</ele><time>2026-04-11T13:45:17Z</time></trkpt><trkpt lat="41.329779868697884" lon="13.947941667031548"><ele>433.0</ele><time>2026-04-11T13:45:18Z</time></trkpt><trkpt lat="41.32985147596226" lon="13.948079467233265"><ele>432.0</ele><time>2026-04-11T13:45:19Z</time></trkpt><trkpt lat="41.32995553893916" lon="13.948218032179776"><ele>431.0</ele><time>2026-04-11T13:45:20Z</time></trkpt><trkpt lat="41.33005329439346" lon="13.948370339077837"><ele>430.0</ele><time>2026-04-11T13:45:21Z</time></trkpt><trkpt lat="41.33011150629358" lon="13.948554270091032"><ele>430.0</ele><time>2026-04-11T13:45:22Z</time></trkpt><trkpt lat="41.330156889560264" lon="13.948733185651278"><ele>430.0</ele><time>2026-04-11T13:45:23Z</time></trkpt><trkpt lat="41.33020020917121" lon="13.948950218194282"><ele>430.0</ele><time>2026-04-11T13:45:24Z</time></trkpt><trkpt lat="41.3302470971084" lon="13.949159891546696"><ele>429.25</ele><time>2026-04-11T13:45:25Z</time></trkpt><trkpt lat="41.330264439433705" lon="13.94936864180281"><ele>428.5</ele><time>2026-04-11T13:45:26Z</time></trkpt><trkpt lat="41.33027236368398" lon="13.949562060962423"><ele>427.75</ele><time>2026-04-11T13:45:27Z</time></trkpt><trkpt lat="41.330261406490095" lon="13.949750490224712"><ele>427.0</ele><time>2026-04-11T13:45:28Z</time></trkpt><trkpt lat="41.33023112609071" lon="13.949947924682078"><ele>425.25</ele><time>2026-04-11T13:45:29Z</time></trkpt><trkpt lat="41.33018840423337" lon="13.950141869329293"><ele>423.5</ele><time>2026-04-11T13:45:30Z</time></trkpt><trkpt lat="41.33013651925021" lon="13.950312612432347"><ele>421.75</ele><time>2026-04-11T13:45:31Z</time></trkpt><trkpt lat="41.33006782329263" lon="13.95045290995438"><ele>420.0</ele><time>2026-04-11T13:45:32Z</time></trkpt><trkpt lat="41.329994867274756" lon="13.95054046689722"><ele>420.0</ele><time>2026-04-11T13:45:33Z</time></trkpt><trkpt lat="41.32994180837012" lon="13.95062528957847"><ele>420.0</ele><time>2026-04-11T13:45:34Z</time></trkpt><trkpt lat="41.32993122249211" lon="13.950714173020568"><ele>420.0</ele><time>2026-04-11T13:45:35Z</time></trkpt><trkpt lat="41.329951735083455" lon="13.950817319242423"><ele>420.0</ele><time>2026-04-11T13:45:36Z</time></trkpt><trkpt lat="41.33001684344194" lon="13.950945878207719"><ele>420.0</ele><time>2026-04-11T13:45:37Z</time></trkpt><trkpt lat="41.33010389755305" lon="13.951093094504966"><ele>423.66666666666663</ele><time>2026-04-11T13:45:38Z</time></trkpt><trkpt lat="41.33023223166757" lon="13.951208591617107"><ele>427.3333333333333</ele><time>2026-04-11T13:45:39Z</time></trkpt><trkpt lat="41.33037390673377" lon="13.951301338765393"><ele>431.0</ele><time>2026-04-11T13:45:40Z</time></trkpt><trkpt lat="41.330547356206786" lon="13.951380953690103"><ele>426.0</ele><time>2026-04-11T13:45:41Z</time></trkpt><trkpt lat="41.33073679086608" lon="13.951430493046297"><ele>421.0</ele><time>2026-04-11T13:45:42Z</time></trkpt><trkpt lat="41.33090900916872" lon="13.951470424116419"><ele>416.0</ele><time>2026-04-11T13:45:43Z</time></trkpt><trkpt lat="41.33106708907839" lon="13.951518231343877"><ele>416.0</ele><time>2026-04-11T13:45:44Z</time></trkpt><trkpt lat="41.33120896882739" lon="13.951567506738705"><ele>416.0</ele><time>2026-04-11T13:45:45Z</time></trkpt><trkpt lat="41.33134705851093" lon="13.951615465801646"><ele>416.0</ele><time>2026-04-11T13:45:46Z</time></trkpt><trkpt lat="41.33145200002892" lon="13.951656534581184"><ele>416.0</ele><time>2026-04-11T13:45:47Z</time></trkpt><trkpt lat="41.331548958714" lon="13.951705620995305"><ele>413.8</ele><time>2026-04-11T13:45:48Z</time></trkpt><trkpt lat="41.33162140883006" lon="13.951778876392405"><ele>411.6</ele><time>2026-04-11T13:45:49Z</time></trkpt><trkpt lat="41.331659989041405" lon="13.951879676999882"><ele>409.4</ele><time>2026-04-11T13:45:50.001Z</time></trkpt><trkpt lat="41.33169240962455" lon="13.952006794291936"><ele>407.2</ele><time>2026-04-11T13:45:51.001Z</time></trkpt><trkpt lat="41.331679345691846" lon="13.952180840938878"><ele>405.0</ele><time>2026-04-11T13:45:52.001Z</time></trkpt><trkpt lat="41.33164697069012" lon="13.952384837481594"><ele>404.66666666666663</ele><time>2026-04-11T13:45:53.001Z</time></trkpt><trkpt lat="41.3316037308674" lon="13.952610595213201"><ele>404.3333333333333</ele><time>2026-04-11T13:45:54.001Z</time></trkpt><trkpt lat="41.33154818375821" lon="13.952808864440527"><ele>404.0</ele><time>2026-04-11T13:45:55.001Z</time></trkpt><trkpt lat="41.331484435397414" lon="13.952970022877624"><ele>404.0</ele><time>2026-04-11T13:45:56.001Z</time></trkpt><trkpt lat="41.33142704466953" lon="13.953088711042865"><ele>404.0</ele><time>2026-04-11T13:45:57.001Z</time></trkpt><trkpt lat="41.331393456803035" lon="13.953200817637663"><ele>404.0</ele><time>2026-04-11T13:45:58.001Z</time></trkpt><trkpt lat="41.3313980794164" lon="13.953306684121655"><ele>404.0</ele><time>2026-04-11T13:45:59.001Z</time></trkpt><trkpt lat="41.33143892673638" lon="13.953402409764957"><ele>404.0</ele><time>2026-04-11T13:46:00.001Z</time></trkpt><trkpt lat="41.331525461030225" lon="13.95349364022331"><ele>405.3333333333333</ele><time>2026-04-11T13:46:01.001Z</time></trkpt><trkpt lat="41.3316560204315" lon="13.953569083562746"><ele>406.66666666666663</ele><time>2026-04-11T13:46:02.001Z</time></trkpt><trkpt lat="41.33181040152634" lon="13.953667694941261"><ele>408.0</ele><time>2026-04-11T13:46:03.001Z</time></trkpt><trkpt lat="41.33194433682085" lon="13.953751765819574"><ele>408.0</ele><time>2026-04-11T13:46:04.001Z</time></trkpt><trkpt lat="41.33205272063648" lon="13.953817650509148"><ele>408.0</ele><time>2026-04-11T13:46:05.001Z</time></trkpt><trkpt lat="41.332166957234364" lon="13.953837730750934"><ele>408.0</ele><time>2026-04-11T13:46:06.001Z</time></trkpt><trkpt lat="41.33228170982867" lon="13.953821201807878"><ele>408.0</ele><time>2026-04-11T13:46:07.001Z</time></trkpt><trkpt lat="41.332413209973936" lon="13.95371560214428"><ele>407.0</ele><time>2026-04-11T13:46:08.001Z</time></trkpt><trkpt lat="41.33257055766203" lon="13.953633638380566"><ele>406.0</ele><time>2026-04-11T13:46:09.001Z</time></trkpt><trkpt lat="41.332740417147264" lon="13.953551559564556"><ele>405.0</ele><time>2026-04-11T13:46:10.001Z</time></trkpt><trkpt lat="41.3329356667565" lon="13.953485979363663"><ele>406.66666666666663</ele><time>2026-04-11T13:46:11.001Z</time></trkpt><trkpt lat="41.333098689581334" lon="13.953438759675363"><ele>408.3333333333333</ele><time>2026-04-11T13:46:12.001Z</time></trkpt><trkpt lat="41.333251661908434" lon="13.953395256714193"><ele>410.0</ele><time>2026-04-11T13:46:13.001Z</time></trkpt><trkpt lat="41.33340443734135" lon="13.95335458341585"><ele>405.0</ele><time>2026-04-11T13:46:14.001Z</time></trkpt><trkpt lat="41.333554663650276" lon="13.953302669638935"><ele>400.0</ele><time>2026-04-11T13:46:15.001Z</time></trkpt><trkpt lat="41.333709142170584" lon="13.953278367900406"><ele>395.0</ele><time>2026-04-11T13:46:16.001Z</time></trkpt><trkpt lat="41.333870365368846" lon="13.953249906439044"><ele>394.0</ele><time>2026-04-11T13:46:17.001Z</time></trkpt><trkpt lat="41.33400127353003" lon="13.953233319568094"><ele>393.0</ele><time>2026-04-11T13:46:18.001Z</time></trkpt><trkpt lat="41.33410160994151" lon="13.953228096139439"><ele>392.0</ele><time>2026-04-11T13:46:19.001Z</time></trkpt><trkpt lat="41.33418691362938" lon="13.953240898338285"><ele>391.0</ele><time>2026-04-11T13:46:20.001Z</time></trkpt><trkpt lat="41.33425026374702" lon="13.95329460512238"><ele>390.0</ele><time>2026-04-11T13:46:21.001Z</time></trkpt><trkpt lat="41.33431196298465" lon="13.95336540215193"><ele>391.25</ele><time>2026-04-11T13:46:22.001Z</time></trkpt><trkpt lat="41.33432563129744" lon="13.953497762283884"><ele>392.5</ele><time>2026-04-11T13:46:23.001Z</time></trkpt><trkpt lat="41.33430739439064" lon="13.953631880590981"><ele>393.75</ele><time>2026-04-11T13:46:24.001Z</time></trkpt><trkpt lat="41.33428211545226" lon="13.953793656810836"><ele>395.0</ele><time>2026-04-11T13:46:25.001Z</time></trkpt><trkpt lat="41.33426051631265" lon="13.953986193253563"><ele>394.0</ele><time>2026-04-11T13:46:26.001Z</time></trkpt><trkpt lat="41.334264964811595" lon="13.954209665691739"><ele>393.0</ele><time>2026-04-11T13:46:27.001Z</time></trkpt><trkpt lat="41.33428945970676" lon="13.954444839204625"><ele>392.0</ele><time>2026-04-11T13:46:28.001Z</time></trkpt><trkpt lat="41.33432150542501" lon="13.954643165523313"><ele>392.0</ele><time>2026-04-11T13:46:29.001Z</time></trkpt><trkpt lat="41.334351378170126" lon="13.954804717028805"><ele>392.0</ele><time>2026-04-11T13:46:30.001Z</time></trkpt><trkpt lat="41.33439038132897" lon="13.954946557061788"><ele>392.0</ele><time>2026-04-11T13:46:31.001Z</time></trkpt><trkpt lat="41.334443316796154" lon="13.95505462658302"><ele>392.0</ele><time>2026-04-11T13:46:32.001Z</time></trkpt><trkpt lat="41.33451972115847" lon="13.955126136357848"><ele>392.0</ele><time>2026-04-11T13:46:33.001Z</time></trkpt><trkpt lat="41.334608637120596" lon="13.955158870682634"><ele>393.25</ele><time>2026-04-11T13:46:34.001Z</time></trkpt><trkpt lat="41.33469083293651" lon="13.955145529123467"><ele>394.5</ele><time>2026-04-11T13:46:35.001Z</time></trkpt><trkpt lat="41.334792763203914" lon="13.955189170135563"><ele>395.75</ele><time>2026-04-11T13:46:36.001Z</time></trkpt><trkpt lat="41.334849223867536" lon="13.954964320525455"><ele>397.0</ele><time>2026-04-11T13:46:37.001Z</time></trkpt><trkpt lat="41.334941413678365" lon="13.954805413150856"><ele>393.0</ele><time>2026-04-11T13:46:38.001Z</time></trkpt><trkpt lat="41.33503813954405" lon="13.954650108945591"><ele>389.0</ele><time>2026-04-11T13:46:39.001Z</time></trkpt><trkpt lat="41.335142719634895" lon="13.954513931583513"><ele>385.0</ele><time>2026-04-11T13:46:40.001Z</time></trkpt><trkpt lat="41.33529792157651" lon="13.954395401940321"><ele>385.0</ele><time>2026-04-11T13:46:41.001Z</time></trkpt><trkpt lat="41.335448826875904" lon="13.954251996543166"><ele>385.0</ele><time>2026-04-11T13:46:42.001Z</time></trkpt><trkpt lat="41.335575924751524" lon="13.954114518887069"><ele>385.0</ele><time>2026-04-11T13:46:43.001Z</time></trkpt><trkpt lat="41.33569788365914" lon="13.953996954226016"><ele>384.6666666666667</ele><time>2026-04-11T13:46:44.001Z</time></trkpt><trkpt lat="41.33582779903523" lon="13.95387105300011"><ele>384.33333333333337</ele><time>2026-04-11T13:46:45.001Z</time></trkpt><trkpt lat="41.33591501098876" lon="13.953670243852748"><ele>384.0</ele><time>2026-04-11T13:46:46.001Z</time></trkpt><trkpt lat="41.33601059314907" lon="13.95347148468369"><ele>380.6666666666667</ele><time>2026-04-11T13:46:47.002Z</time></trkpt><trkpt lat="41.33607680628993" lon="13.95325733382033"><ele>377.33333333333337</ele><time>2026-04-11T13:46:48.002Z</time></trkpt><trkpt lat="41.3361355442318" lon="13.953065526110914"><ele>374.0</ele><time>2026-04-11T13:46:49.002Z</time></trkpt><trkpt lat="41.33619877292485" lon="13.952924644770192"><ele>374.0</ele><time>2026-04-11T13:46:50.002Z</time></trkpt><trkpt lat="41.33627998773396" lon="13.952790456072037"><ele>374.0</ele><time>2026-04-11T13:46:51.002Z</time></trkpt><trkpt lat="41.33640238522951" lon="13.952713865649978"><ele>374.0</ele><time>2026-04-11T13:46:52.002Z</time></trkpt><trkpt lat="41.33653147718782" lon="13.952633559517714"><ele>374.0</ele><time>2026-04-11T13:46:53.002Z</time></trkpt><trkpt lat="41.33665945623946" lon="13.952550572095374"><ele>373.25</ele><time>2026-04-11T13:46:54.002Z</time></trkpt><trkpt lat="41.336780160201755" lon="13.952518306371243"><ele>372.5</ele><time>2026-04-11T13:46:55.002Z</time></trkpt><trkpt lat="41.336891441202816" lon="13.952524974726039"><ele>371.75</ele><time>2026-04-11T13:46:56.002Z</time></trkpt><trkpt lat="41.337009222772195" lon="13.952563918400141"><ele>371.0</ele><time>2026-04-11T13:46:57.002Z</time></trkpt><trkpt lat="41.337131637327545" lon="13.95265721971626"><ele>370.4</ele><time>2026-04-11T13:46:58.002Z</time></trkpt><trkpt lat="41.33724061594244" lon="13.952720782362155"><ele>369.8</ele><time>2026-04-11T13:46:59.002Z</time></trkpt><trkpt lat="41.33730866196425" lon="13.952811478835928"><ele>369.2</ele><time>2026-04-11T13:47:00.002Z</time></trkpt><trkpt lat="41.337351140508446" lon="13.952919756357371"><ele>368.59999999999997</ele><time>2026-04-11T13:47:01.002Z</time></trkpt><trkpt lat="41.33738852884424" lon="13.953019018784149"><ele>368.0</ele><time>2026-04-11T13:47:02.002Z</time></trkpt><trkpt lat="41.33735956057588" lon="13.95313840587367"><ele>368.0</ele><time>2026-04-11T13:47:03.002Z</time></trkpt><trkpt lat="41.337321363441994" lon="13.95327621459721"><ele>368.0</ele><time>2026-04-11T13:47:04.002Z</time></trkpt><trkpt lat="41.33723215943921" lon="13.953405065538629"><ele>368.0</ele><time>2026-04-11T13:47:05.002Z</time></trkpt><trkpt lat="41.3371899724595" lon="13.953566476259015"><ele>368.0</ele><time>2026-04-11T13:47:06.002Z</time></trkpt><trkpt lat="41.337145121678994" lon="13.953726737912723"><ele>369.33333333333337</ele><time>2026-04-11T13:47:07.002Z</time></trkpt><trkpt lat="41.33715397827883" lon="13.95392399240474"><ele>370.6666666666667</ele><time>2026-04-11T13:47:08.002Z</time></trkpt><trkpt lat="41.337202095059546" lon="13.954131589214354"><ele>372.0</ele><time>2026-04-11T13:47:09.002Z</time></trkpt><trkpt lat="41.33727604875627" lon="13.954327585053026"><ele>372.0</ele><time>2026-04-11T13:47:10.002Z</time></trkpt><trkpt lat="41.3373488129137" lon="13.954491595336272"><ele>372.0</ele><time>2026-04-11T13:47:11.002Z</time></trkpt><trkpt lat="41.337414297821475" lon="13.954616067853024"><ele>372.0</ele><time>2026-04-11T13:47:12.002Z</time></trkpt><trkpt lat="41.33751267386369" lon="13.954710595320494"><ele>372.0</ele><time>2026-04-11T13:47:13.002Z</time></trkpt><trkpt lat="41.33763166928394" lon="13.954743206453694"><ele>372.0</ele><time>2026-04-11T13:47:14.002Z</time></trkpt><trkpt lat="41.33773597555513" lon="13.954771897590991"><ele>372.0</ele><time>2026-04-11T13:47:15.002Z</time></trkpt><trkpt lat="41.33787945416612" lon="13.954769874493598"><ele>372.0</ele><time>2026-04-11T13:47:16.002Z</time></trkpt><trkpt lat="41.338027083939046" lon="13.954743283933418"><ele>372.0</ele><time>2026-04-11T13:47:17.002Z</time></trkpt><trkpt lat="41.33817618560602" lon="13.954732282285178"><ele>372.0</ele><time>2026-04-11T13:47:18.002Z</time></trkpt><trkpt lat="41.338339902916765" lon="13.954724429055615"><ele>372.0</ele><time>2026-04-11T13:47:19.002Z</time></trkpt><trkpt lat="41.33849324957098" lon="13.954720778018656"><ele>372.0</ele><time>2026-04-11T13:47:20Z</time></trkpt><trkpt lat="41.33863980865388" lon="13.954704413757192"><ele>372.0</ele><time>2026-04-11T13:47:21Z</time></trkpt><trkpt lat="41.33876888264371" lon="13.954722470598101"><ele>372.0</ele><time>2026-04-11T13:47:22Z</time></trkpt><trkpt lat="41.33889484705125" lon="13.954766615162493"><ele>372.0</ele><time>2026-04-11T13:47:23Z</time></trkpt><trkpt lat="41.33901304440699" lon="13.954828238288151"><ele>372.0</ele><time>2026-04-11T13:47:24Z</time></trkpt><trkpt lat="41.33909941838913" lon="13.954932508436793"><ele>372.0</ele><time>2026-04-11T13:47:25Z</time></trkpt><trkpt lat="41.339173393028474" lon="13.955041039047453"><ele>372.0</ele><time>2026-04-11T13:47:26Z</time></trkpt><trkpt lat="41.33922323302097" lon="13.955128059296337"><ele>372.0</ele><time>2026-04-11T13:47:27Z</time></trkpt><trkpt lat="41.339268803801005" lon="13.955207448778111"><ele>372.0</ele><time>2026-04-11T13:47:28Z</time></trkpt><trkpt lat="41.33931976169499" lon="13.955272600713146"><ele>372.0</ele><time>2026-04-11T13:47:29Z</time></trkpt><trkpt lat="41.339384195988764" lon="13.955411346122881"><ele>372.0</ele><time>2026-04-11T13:47:31Z</time></trkpt><trkpt lat="41.33942933967981" lon="13.955475345638304"><ele>372.0</ele><time>2026-04-11T13:47:32Z</time></trkpt><trkpt lat="41.33948255407595" lon="13.955546785991869"><ele>372.0</ele><time>2026-04-11T13:47:33Z</time></trkpt><trkpt lat="41.33952047288788" lon="13.95563045634398"><ele>372.0</ele><time>2026-04-11T13:47:34Z</time></trkpt><trkpt lat="41.33959597753258" lon="13.955753085796678"><ele>372.0</ele><time>2026-04-11T13:47:36Z</time></trkpt><trkpt lat="41.33964660337704" lon="13.955825408757908"><ele>372.0</ele><time>2026-04-11T13:47:38Z</time></trkpt><trkpt lat="41.33971734119172" lon="13.955616122621576"><ele>372.0</ele><time>2026-04-11T13:47:41Z</time></trkpt><trkpt lat="41.33965849044424" lon="13.955519941643017"><ele>372.0</ele><time>2026-04-11T13:47:43Z</time></trkpt><trkpt lat="41.33959147422786" lon="13.955400633452292"><ele>372.0</ele><time>2026-04-11T13:47:45Z</time></trkpt><trkpt lat="41.33954323008639" lon="13.955335597535925"><ele>372.0</ele><time>2026-04-11T13:47:46Z</time></trkpt><trkpt lat="41.33949400778779" lon="13.955263157690196"><ele>372.0</ele><time>2026-04-11T13:47:47Z</time></trkpt><trkpt lat="41.33943328363835" lon="13.95518527573642"><ele>372.0</ele><time>2026-04-11T13:47:48Z</time></trkpt><trkpt lat="41.33938958833605" lon="13.955120843826352"><ele>372.0</ele><time>2026-04-11T13:47:49Z</time></trkpt><trkpt lat="41.33933468160602" lon="13.955044190025692"><ele>372.0</ele><time>2026-04-11T13:47:50Z</time></trkpt><trkpt lat="41.339296214118214" lon="13.954975218139502"><ele>372.0</ele><time>2026-04-11T13:47:51Z</time></trkpt><trkpt lat="41.339219228539115" lon="13.95483249968385"><ele>372.0</ele><time>2026-04-11T13:47:53.001Z</time></trkpt><trkpt lat="41.33915640047034" lon="13.95472764991397"><ele>372.0</ele><time>2026-04-11T13:47:55.001Z</time></trkpt><trkpt lat="41.339094841170436" lon="13.954654401506577"><ele>370.0</ele><time>2026-04-11T13:47:57.001Z</time></trkpt><trkpt lat="41.33914567480921" lon="13.954718774924048"><ele>368.0</ele><time>2026-04-11T13:48:40.001Z</time></trkpt><trkpt lat="41.33938339651875" lon="13.954576330169699"><ele>366.0</ele><time>2026-04-11T13:48:41.001Z</time></trkpt><trkpt lat="41.33949657499364" lon="13.954530026196316"><ele>364.0</ele><time>2026-04-11T13:48:42.001Z</time></trkpt><trkpt lat="41.339656463442424" lon="13.954466035338163"><ele>363.3333333333333</ele><time>2026-04-11T13:48:43.001Z</time></trkpt><trkpt lat="41.3398512905416" lon="13.954382177076566"><ele>362.6666666666667</ele><time>2026-04-11T13:48:44.001Z</time></trkpt><trkpt lat="41.34006362058937" lon="13.954298285624889"><ele>362.0</ele><time>2026-04-11T13:48:45.001Z</time></trkpt><trkpt lat="41.34025206507545" lon="13.954230794531249"><ele>357.0</ele><time>2026-04-11T13:48:46.001Z</time></trkpt><trkpt lat="41.34043159054623" lon="13.954170425271004"><ele>352.0</ele><time>2026-04-11T13:48:47.001Z</time></trkpt><trkpt lat="41.34060766840819" lon="13.954103880805228"><ele>347.0</ele><time>2026-04-11T13:48:48.001Z</time></trkpt><trkpt lat="41.340773937847345" lon="13.954046870429492"><ele>347.0</ele><time>2026-04-11T13:48:49.001Z</time></trkpt><trkpt lat="41.34093911343845" lon="13.95399014927845"><ele>347.0</ele><time>2026-04-11T13:48:50.001Z</time></trkpt><trkpt lat="41.34110644262038" lon="13.95394258917183"><ele>347.0</ele><time>2026-04-11T13:48:51.001Z</time></trkpt><trkpt lat="41.341277870161264" lon="13.953899402169663"><ele>348.0</ele><time>2026-04-11T13:48:52.002Z</time></trkpt><trkpt lat="41.34145030441703" lon="13.953872530880764"><ele>349.0</ele><time>2026-04-11T13:48:53.002Z</time></trkpt><trkpt lat="41.34162574975912" lon="13.95385407272065"><ele>350.0</ele><time>2026-04-11T13:48:54.002Z</time></trkpt><trkpt lat="41.341794836432555" lon="13.953843573399576"><ele>350.0</ele><time>2026-04-11T13:48:55.002Z</time></trkpt><trkpt lat="41.34194799960537" lon="13.953821502546692"><ele>350.0</ele><time>2026-04-11T13:48:56.002Z</time></trkpt><trkpt lat="41.34207566918691" lon="13.953803105284013"><ele>350.0</ele><time>2026-04-11T13:48:57.002Z</time></trkpt><trkpt lat="41.342197297700075" lon="13.953786080471609"><ele>350.0</ele><time>2026-04-11T13:48:58.002Z</time></trkpt><trkpt lat="41.34230576191657" lon="13.95377557674228"><ele>349.0</ele><time>2026-04-11T13:48:59.002Z</time></trkpt><trkpt lat="41.342408979286795" lon="13.953752145520067"><ele>348.0</ele><time>2026-04-11T13:49:00.002Z</time></trkpt><trkpt lat="41.342502351074366" lon="13.953775949888676"><ele>347.0</ele><time>2026-04-11T13:49:01.002Z</time></trkpt><trkpt lat="41.342590969869995" lon="13.953818341538819"><ele>346.0</ele><time>2026-04-11T13:49:02.002Z</time></trkpt><trkpt lat="41.34266348485636" lon="13.953848272372253"><ele>345.0</ele><time>2026-04-11T13:49:03.002Z</time></trkpt><trkpt lat="41.34275180478699" lon="13.953890523913378"><ele>345.0</ele><time>2026-04-11T13:49:05.002Z</time></trkpt><trkpt lat="41.3428333903011" lon="13.95378434499537"><ele>345.0</ele><time>2026-04-11T13:49:07.002Z</time></trkpt><trkpt lat="41.342881640071475" lon="13.953726059378987"><ele>345.0</ele><time>2026-04-11T13:49:10.002Z</time></trkpt><trkpt lat="41.34294946905197" lon="13.953671517689065"><ele>345.0</ele><time>2026-04-11T13:49:29.001Z</time></trkpt><trkpt lat="41.34303101138777" lon="13.953626102087588"><ele>345.0</ele><time>2026-04-11T13:49:31.001Z</time></trkpt><trkpt lat="41.343100303596586" lon="13.953571803534276"><ele>345.0</ele><time>2026-04-11T13:49:33.001Z</time></trkpt><trkpt lat="41.34317579743593" lon="13.953557035766222"><ele>345.0</ele><time>2026-04-11T13:49:35.001Z</time></trkpt><trkpt lat="41.343099413803955" lon="13.953519663935293"><ele>345.0</ele><time>2026-04-11T13:49:40Z</time></trkpt><trkpt lat="41.3430367186774" lon="13.953579391957271"><ele>345.0</ele><time>2026-04-11T13:49:42Z</time></trkpt><trkpt lat="41.342937909399836" lon="13.953674352565708"><ele>345.0</ele><time>2026-04-11T13:49:44Z</time></trkpt><trkpt lat="41.34286514794" lon="13.95375001363679"><ele>345.0</ele><time>2026-04-11T13:49:45Z</time></trkpt><trkpt lat="41.342796685328764" lon="13.953832686278"><ele>345.0</ele><time>2026-04-11T13:49:46.001Z</time></trkpt><trkpt lat="41.342617001250275" lon="13.953725511466807"><ele>345.0</ele><time>2026-04-11T13:49:47.001Z</time></trkpt><trkpt lat="41.34247646645216" lon="13.953736299271288"><ele>345.0</ele><time>2026-04-11T13:49:48.001Z</time></trkpt><trkpt lat="41.342317461839755" lon="13.953759457935595"><ele>346.6666666666667</ele><time>2026-04-11T13:49:49.001Z</time></trkpt><trkpt lat="41.34213554905612" lon="13.953792548449162"><ele>348.33333333333337</ele><time>2026-04-11T13:49:50.001Z</time></trkpt><trkpt lat="41.3419400362504" lon="13.953817523409706"><ele>350.0</ele><time>2026-04-11T13:49:51.001Z</time></trkpt><trkpt lat="41.341732053008386" lon="13.953838640545726"><ele>350.0</ele><time>2026-04-11T13:49:52.001Z</time></trkpt><trkpt lat="41.34151217886202" lon="13.953858737184147"><ele>350.0</ele><time>2026-04-11T13:49:53.001Z</time></trkpt><trkpt lat="41.341286012713695" lon="13.953887383762524"><ele>350.0</ele><time>2026-04-11T13:49:54.001Z</time></trkpt><trkpt lat="41.34105853472431" lon="13.953932351769033"><ele>348.5</ele><time>2026-04-11T13:49:55.001Z</time></trkpt><trkpt lat="41.34082782293094" lon="13.954010606459073"><ele>347.0</ele><time>2026-04-11T13:49:56.001Z</time></trkpt><trkpt lat="41.3405867842999" lon="13.954072465335924"><ele>346.0</ele><time>2026-04-11T13:49:57.001Z</time></trkpt><trkpt lat="41.340354020401826" lon="13.954171954061104"><ele>345.0</ele><time>2026-04-11T13:49:58.001Z</time></trkpt><trkpt lat="41.34014968390992" lon="13.954245059469429"><ele>350.6666666666667</ele><time>2026-04-11T13:49:59.001Z</time></trkpt><trkpt lat="41.33996894673612" lon="13.954299650664396"><ele>356.33333333333337</ele><time>2026-04-11T13:50:00.001Z</time></trkpt><trkpt lat="41.339818162986155" lon="13.954356246134658"><ele>362.0</ele><time>2026-04-11T13:50:01.001Z</time></trkpt><trkpt lat="41.33967508888737" lon="13.954435841290904"><ele>362.40000000000003</ele><time>2026-04-11T13:50:02.001Z</time></trkpt><trkpt lat="41.339543843904984" lon="13.954486897476931"><ele>362.8</ele><time>2026-04-11T13:50:03.001Z</time></trkpt><trkpt lat="41.339426087254964" lon="13.954524047142852"><ele>363.2</ele><time>2026-04-11T13:50:04.001Z</time></trkpt><trkpt lat="41.3393311641517" lon="13.954565171014206"><ele>363.6</ele><time>2026-04-11T13:50:05.001Z</time></trkpt><trkpt lat="41.33925622095187" lon="13.954589250946574"><ele>364.0</ele><time>2026-04-11T13:50:06.001Z</time></trkpt><trkpt lat="41.33919086342298" lon="13.95461838259193"><ele>364.0</ele><time>2026-04-11T13:50:07.001Z</time></trkpt><trkpt lat="41.33911954814005" lon="13.954617439312793"><ele>364.0</ele><time>2026-04-11T13:50:08.001Z</time></trkpt><trkpt lat="41.33906649266357" lon="13.95467257019557"><ele>364.0</ele><time>2026-04-11T13:50:09.001Z</time></trkpt><trkpt lat="41.33894585316589" lon="13.954564967456186"><ele>364.0</ele><time>2026-04-11T13:50:10.001Z</time></trkpt><trkpt lat="41.33885691437997" lon="13.95455221532974"><ele>364.0</ele><time>2026-04-11T13:50:11.001Z</time></trkpt><trkpt lat="41.33876362044893" lon="13.954528456057755"><ele>366.0</ele><time>2026-04-11T13:50:12.001Z</time></trkpt><trkpt lat="41.338650790509966" lon="13.954525925490058"><ele>368.0</ele><time>2026-04-11T13:50:13.001Z</time></trkpt><trkpt lat="41.33852560711753" lon="13.95451499236972"><ele>370.0</ele><time>2026-04-11T13:50:14.001Z</time></trkpt><trkpt lat="41.3384024787914" lon="13.954497112786795"><ele>372.0</ele><time>2026-04-11T13:50:15.001Z</time></trkpt><trkpt lat="41.33827654479114" lon="13.95446816466675"><ele>372.0</ele><time>2026-04-11T13:50:16.001Z</time></trkpt><trkpt lat="41.33815539737235" lon="13.95441525727713"><ele>372.0</ele><time>2026-04-11T13:50:17.001Z</time></trkpt><trkpt lat="41.33805782467496" lon="13.954366262975018"><ele>372.0</ele><time>2026-04-11T13:50:18.001Z</time></trkpt><trkpt lat="41.33798118039129" lon="13.954324662809872"><ele>372.0</ele><time>2026-04-11T13:50:19.001Z</time></trkpt><trkpt lat="41.337907706860754" lon="13.954277757856579"><ele>372.0</ele><time>2026-04-11T13:50:20.001Z</time></trkpt><trkpt lat="41.33781433967858" lon="13.954260670775795"><ele>371.0</ele><time>2026-04-11T13:50:21.001Z</time></trkpt><trkpt lat="41.33774707146189" lon="13.954166694094345"><ele>370.0</ele><time>2026-04-11T13:50:22.001Z</time></trkpt><trkpt lat="41.33769130192037" lon="13.954062065265022"><ele>369.0</ele><time>2026-04-11T13:50:23.001Z</time></trkpt><trkpt lat="41.33766330361051" lon="13.953950654322862"><ele>368.0</ele><time>2026-04-11T13:50:24.001Z</time></trkpt><trkpt lat="41.3376770020577" lon="13.953831174465563"><ele>367.0</ele><time>2026-04-11T13:50:25.001Z</time></trkpt><trkpt lat="41.337722628883036" lon="13.953693879985664"><ele>367.0</ele><time>2026-04-11T13:50:26.001Z</time></trkpt><trkpt lat="41.337800002466366" lon="13.953557017062565"><ele>367.0</ele><time>2026-04-11T13:50:27.001Z</time></trkpt><trkpt lat="41.33790187804671" lon="13.9534273705873"><ele>367.0</ele><time>2026-04-11T13:50:28.001Z</time></trkpt><trkpt lat="41.33800709856818" lon="13.953316263687034"><ele>367.0</ele><time>2026-04-11T13:50:29.001Z</time></trkpt><trkpt lat="41.33810000283277" lon="13.953236602425482"><ele>363.8</ele><time>2026-04-11T13:50:30.001Z</time></trkpt><trkpt lat="41.33817168736232" lon="13.953136116396267"><ele>360.6</ele><time>2026-04-11T13:50:31.001Z</time></trkpt><trkpt lat="41.33822486776587" lon="13.953020444826508"><ele>357.40000000000003</ele><time>2026-04-11T13:50:32.001Z</time></trkpt><trkpt lat="41.33825377627864" lon="13.95288965610453"><ele>354.20000000000005</ele><time>2026-04-11T13:50:33.001Z</time></trkpt><trkpt lat="41.33825278544319" lon="13.952733807417227"><ele>351.0</ele><time>2026-04-11T13:50:34.001Z</time></trkpt><trkpt lat="41.338226542670455" lon="13.952543382721124"><ele>351.8</ele><time>2026-04-11T13:50:35.001Z</time></trkpt><trkpt lat="41.338188643109724" lon="13.952357340567028"><ele>352.6</ele><time>2026-04-11T13:50:36.001Z</time></trkpt><trkpt lat="41.33814969398655" lon="13.952223871906076"><ele>353.4</ele><time>2026-04-11T13:50:37.001Z</time></trkpt><trkpt lat="41.33809462504537" lon="13.952109220142312"><ele>354.2</ele><time>2026-04-11T13:50:38.001Z</time></trkpt><trkpt lat="41.33802843769113" lon="13.952018863852627"><ele>355.0</ele><time>2026-04-11T13:50:39.001Z</time></trkpt><trkpt lat="41.33794375606388" lon="13.95196037247695"><ele>354.66666666666663</ele><time>2026-04-11T13:50:40.001Z</time></trkpt><trkpt lat="41.33784851102065" lon="13.951942056934959"><ele>354.3333333333333</ele><time>2026-04-11T13:50:41.001Z</time></trkpt><trkpt lat="41.33776278386831" lon="13.951911927587078"><ele>354.0</ele><time>2026-04-11T13:50:42.001Z</time></trkpt><trkpt lat="41.33769648869271" lon="13.951848357890235"><ele>353.6666666666667</ele><time>2026-04-11T13:50:43.001Z</time></trkpt><trkpt lat="41.33763706152058" lon="13.951751335539381"><ele>353.33333333333337</ele><time>2026-04-11T13:50:44.001Z</time></trkpt><trkpt lat="41.33762072261058" lon="13.951642779278139"><ele>353.0</ele><time>2026-04-11T13:50:45.001Z</time></trkpt><trkpt lat="41.337630747797384" lon="13.951493604811887"><ele>353.0</ele><time>2026-04-11T13:50:46.001Z</time></trkpt><trkpt lat="41.33766679321301" lon="13.951340005177173"><ele>353.0</ele><time>2026-04-11T13:50:47.001Z</time></trkpt><trkpt lat="41.33768525981268" lon="13.951207388484674"><ele>353.0</ele><time>2026-04-11T13:50:48.001Z</time></trkpt><trkpt lat="41.33767152679943" lon="13.951092512714462"><ele>353.0</ele><time>2026-04-11T13:50:49.001Z</time></trkpt><trkpt lat="41.33763879938696" lon="13.950981300575641"><ele>353.0</ele><time>2026-04-11T13:50:50.001Z</time></trkpt><trkpt lat="41.33757847728386" lon="13.950877003694506"><ele>351.75</ele><time>2026-04-11T13:50:51.001Z</time></trkpt><trkpt lat="41.33749309628029" lon="13.950800630466675"><ele>350.5</ele><time>2026-04-11T13:50:52.001Z</time></trkpt><trkpt lat="41.33738900482174" lon="13.950738519710587"><ele>349.25</ele><time>2026-04-11T13:50:53.001Z</time></trkpt><trkpt lat="41.33726970535311" lon="13.950695653521738"><ele>348.0</ele><time>2026-04-11T13:50:54.001Z</time></trkpt><trkpt lat="41.33715824448357" lon="13.950684183173797"><ele>348.0</ele><time>2026-04-11T13:50:55.001Z</time></trkpt><trkpt lat="41.33704805878585" lon="13.950719309631072"><ele>348.0</ele><time>2026-04-11T13:50:56.001Z</time></trkpt><trkpt lat="41.3369312427114" lon="13.950786736589794"><ele>348.0</ele><time>2026-04-11T13:50:57.002Z</time></trkpt><trkpt lat="41.33683692265116" lon="13.950845679635867"><ele>348.0</ele><time>2026-04-11T13:50:58.002Z</time></trkpt><trkpt lat="41.33674765517609" lon="13.950875240765619"><ele>348.0</ele><time>2026-04-11T13:50:59.002Z</time></trkpt><trkpt lat="41.33665413811539" lon="13.95084181974377"><ele>348.0</ele><time>2026-04-11T13:51:00.002Z</time></trkpt><trkpt lat="41.33657736377312" lon="13.950783608497746"><ele>348.0</ele><time>2026-04-11T13:51:01.002Z</time></trkpt><trkpt lat="41.33649339204291" lon="13.950677377880659"><ele>348.0</ele><time>2026-04-11T13:51:02.002Z</time></trkpt><trkpt lat="41.33642286191039" lon="13.95059091533166"><ele>348.0</ele><time>2026-04-11T13:51:03.002Z</time></trkpt><trkpt lat="41.33637499707026" lon="13.95049774730469"><ele>348.0</ele><time>2026-04-11T13:51:04.002Z</time></trkpt><trkpt lat="41.33635092287467" lon="13.95039927472824"><ele>348.0</ele><time>2026-04-11T13:51:05.002Z</time></trkpt><trkpt lat="41.336409501563416" lon="13.950291066344967"><ele>348.0</ele><time>2026-04-11T13:51:06.002Z</time></trkpt><trkpt lat="41.33646796916624" lon="13.950196739810153"><ele>348.0</ele><time>2026-04-11T13:51:07.002Z</time></trkpt><trkpt lat="41.33656759830561" lon="13.950105622343902"><ele>348.0</ele><time>2026-04-11T13:51:08.002Z</time></trkpt><trkpt lat="41.33667320096049" lon="13.949988586494422"><ele>347.0</ele><time>2026-04-11T13:51:09.002Z</time></trkpt><trkpt lat="41.33676304484058" lon="13.949871233544906"><ele>346.0</ele><time>2026-04-11T13:51:10.002Z</time></trkpt><trkpt lat="41.336848200775606" lon="13.949779926330937"><ele>345.0</ele><time>2026-04-11T13:51:11.002Z</time></trkpt><trkpt lat="41.33690679805044" lon="13.949688843622145"><ele>344.0</ele><time>2026-04-11T13:51:12.002Z</time></trkpt><trkpt lat="41.33692298487448" lon="13.949575364586211"><ele>343.0</ele><time>2026-04-11T13:51:13.002Z</time></trkpt><trkpt lat="41.33690688660487" lon="13.949441128099021"><ele>343.0</ele><time>2026-04-11T13:51:14.002Z</time></trkpt><trkpt lat="41.33686206828963" lon="13.949301514949312"><ele>343.0</ele><time>2026-04-11T13:51:15.002Z</time></trkpt><trkpt lat="41.33678815771967" lon="13.949130184168332"><ele>343.0</ele><time>2026-04-11T13:51:16.002Z</time></trkpt><trkpt lat="41.33674546528428" lon="13.948962962889643"><ele>343.0</ele><time>2026-04-11T13:51:17.002Z</time></trkpt><trkpt lat="41.33673795402855" lon="13.948782206218326"><ele>341.75</ele><time>2026-04-11T13:51:18.002Z</time></trkpt><trkpt lat="41.33676719383127" lon="13.948604164640624"><ele>340.5</ele><time>2026-04-11T13:51:19.002Z</time></trkpt><trkpt lat="41.33680653324372" lon="13.948428461279256"><ele>339.25</ele><time>2026-04-11T13:51:20.002Z</time></trkpt><trkpt lat="41.336822731995916" lon="13.94827060423263"><ele>338.0</ele><time>2026-04-11T13:51:21.002Z</time></trkpt><trkpt lat="41.336800351900045" lon="13.948125891873454"><ele>337.0</ele><time>2026-04-11T13:51:22.002Z</time></trkpt><trkpt lat="41.336742367341074" lon="13.94797448750786"><ele>336.0</ele><time>2026-04-11T13:51:23.002Z</time></trkpt><trkpt lat="41.33665281272626" lon="13.94780153581878"><ele>335.0</ele><time>2026-04-11T13:51:24.002Z</time></trkpt><trkpt lat="41.336543429720614" lon="13.947620172914455"><ele>336.0</ele><time>2026-04-11T13:51:25.002Z</time></trkpt><trkpt lat="41.33643719271935" lon="13.947428799880422"><ele>337.0</ele><time>2026-04-11T13:51:26.002Z</time></trkpt><trkpt lat="41.336333907903715" lon="13.947238168106056"><ele>338.0</ele><time>2026-04-11T13:51:27.002Z</time></trkpt><trkpt lat="41.336234200744514" lon="13.947057401765527"><ele>338.0</ele><time>2026-04-11T13:51:28.002Z</time></trkpt><trkpt lat="41.336140296397396" lon="13.946885907896224"><ele>338.0</ele><time>2026-04-11T13:51:29.002Z</time></trkpt><trkpt lat="41.33605374017052" lon="13.946731608651627"><ele>338.0</ele><time>2026-04-11T13:51:30.002Z</time></trkpt><trkpt lat="41.33598509105737" lon="13.946591757687255"><ele>338.0</ele><time>2026-04-11T13:51:31.002Z</time></trkpt><trkpt lat="41.33594031700295" lon="13.946460952610945"><ele>335.5</ele><time>2026-04-11T13:51:32Z</time></trkpt><trkpt lat="41.335898411892785" lon="13.94631790197645"><ele>333.0</ele><time>2026-04-11T13:51:33Z</time></trkpt><trkpt lat="41.33587449736599" lon="13.946157491832498"><ele>330.5</ele><time>2026-04-11T13:51:34Z</time></trkpt><trkpt lat="41.3358832299959" lon="13.945980742057596"><ele>328.0</ele><time>2026-04-11T13:51:35Z</time></trkpt><trkpt lat="41.33594113532824" lon="13.945803118420486"><ele>327.3333333333333</ele><time>2026-04-11T13:51:36Z</time></trkpt><trkpt lat="41.33601084306178" lon="13.94559780462532"><ele>326.6666666666667</ele><time>2026-04-11T13:51:37Z</time></trkpt><trkpt lat="41.33608580369344" lon="13.94537374105838"><ele>326.0</ele><time>2026-04-11T13:51:38Z</time></trkpt><trkpt lat="41.33616561374145" lon="13.945138808167693"><ele>325.6666666666667</ele><time>2026-04-11T13:51:39Z</time></trkpt><trkpt lat="41.33624801173843" lon="13.944897454163069"><ele>325.3333333333333</ele><time>2026-04-11T13:51:40Z</time></trkpt><trkpt lat="41.33633229129359" lon="13.944650732465593"><ele>325.0</ele><time>2026-04-11T13:51:41Z</time></trkpt><trkpt lat="41.33641522433172" lon="13.9444060264419"><ele>323.0</ele><time>2026-04-11T13:51:42Z</time></trkpt><trkpt lat="41.336489901553406" lon="13.944184031659693"><ele>321.0</ele><time>2026-04-11T13:51:43Z</time></trkpt><trkpt lat="41.336560817182175" lon="13.943972216845944"><ele>319.0</ele><time>2026-04-11T13:51:44Z</time></trkpt><trkpt lat="41.33660555672916" lon="13.943773271062144"><ele>319.0</ele><time>2026-04-11T13:51:45Z</time></trkpt><trkpt lat="41.336661084201715" lon="13.943590099371715"><ele>319.0</ele><time>2026-04-11T13:51:46Z</time></trkpt><trkpt lat="41.33669866381747" lon="13.943401157923628"><ele>319.0</ele><time>2026-04-11T13:51:47Z</time></trkpt><trkpt lat="41.336708406936324" lon="13.943200532659102"><ele>319.0</ele><time>2026-04-11T13:51:48Z</time></trkpt><trkpt lat="41.33669378898095" lon="13.942972438853165"><ele>318.66666666666663</ele><time>2026-04-11T13:51:49Z</time></trkpt><trkpt lat="41.3366719845961" lon="13.942723335911023"><ele>318.3333333333333</ele><time>2026-04-11T13:51:50Z</time></trkpt><trkpt lat="41.336666671691056" lon="13.942460833454128"><ele>318.0</ele><time>2026-04-11T13:51:51Z</time></trkpt><trkpt lat="41.33664746220388" lon="13.942210817809704"><ele>316.6666666666667</ele><time>2026-04-11T13:51:52Z</time></trkpt><trkpt lat="41.33663810242983" lon="13.941964073566163"><ele>315.33333333333337</ele><time>2026-04-11T13:51:53Z</time></trkpt><trkpt lat="41.33664298526731" lon="13.94171755800308"><ele>314.0</ele><time>2026-04-11T13:51:54Z</time></trkpt><trkpt lat="41.33665088915052" lon="13.941455286478845"><ele>313.0</ele><time>2026-04-11T13:51:55Z</time></trkpt><trkpt lat="41.336639829961555" lon="13.941199240396571"><ele>312.0</ele><time>2026-04-11T13:51:56Z</time></trkpt><trkpt lat="41.33664391032822" lon="13.940940148295564"><ele>311.0</ele><time>2026-04-11T13:51:57Z</time></trkpt><trkpt lat="41.33664558749116" lon="13.940724351262562"><ele>310.25</ele><time>2026-04-11T13:51:58Z</time></trkpt><trkpt lat="41.33666523492004" lon="13.940506720663175"><ele>309.5</ele><time>2026-04-11T13:51:59Z</time></trkpt><trkpt lat="41.33665590080744" lon="13.940318500361792"><ele>308.75</ele><time>2026-04-11T13:52:00Z</time></trkpt><trkpt lat="41.33666953251261" lon="13.940159443585884"><ele>308.0</ele><time>2026-04-11T13:52:01Z</time></trkpt><trkpt lat="41.33669704772978" lon="13.94000540748374"><ele>307.0</ele><time>2026-04-11T13:52:02Z</time></trkpt><trkpt lat="41.33675208442788" lon="13.93986291249496"><ele>306.0</ele><time>2026-04-11T13:52:03Z</time></trkpt><trkpt lat="41.336849810879286" lon="13.939719793515563"><ele>305.0</ele><time>2026-04-11T13:52:04Z</time></trkpt><trkpt lat="41.336917735000796" lon="13.93953237117961"><ele>304.0</ele><time>2026-04-11T13:52:05Z</time></trkpt><trkpt lat="41.336982505826505" lon="13.939317277056768"><ele>304.3333333333333</ele><time>2026-04-11T13:52:06Z</time></trkpt><trkpt lat="41.337051947981" lon="13.939090156213254"><ele>304.6666666666667</ele><time>2026-04-11T13:52:07Z</time></trkpt><trkpt lat="41.337107516340836" lon="13.938872716074375"><ele>305.0</ele><time>2026-04-11T13:52:08Z</time></trkpt><trkpt lat="41.337170506869555" lon="13.938632027456224"><ele>300.33333333333337</ele><time>2026-04-11T13:52:09Z</time></trkpt><trkpt lat="41.337222621480834" lon="13.938371597208267"><ele>295.6666666666667</ele><time>2026-04-11T13:52:10.001Z</time></trkpt><trkpt lat="41.3372947910523" lon="13.938117338064764"><ele>291.0</ele><time>2026-04-11T13:52:11.001Z</time></trkpt><trkpt lat="41.33736307005558" lon="13.937859120184793"><ele>291.0</ele><time>2026-04-11T13:52:12.001Z</time></trkpt><trkpt lat="41.33743488255069" lon="13.937599391124902"><ele>291.0</ele><time>2026-04-11T13:52:13.001Z</time></trkpt><trkpt lat="41.337503659857916" lon="13.937338379180481"><ele>291.0</ele><time>2026-04-11T13:52:14.001Z</time></trkpt><trkpt lat="41.33757087924539" lon="13.937092458493634"><ele>291.3333333333333</ele><time>2026-04-11T13:52:15.001Z</time></trkpt><trkpt lat="41.337632857792" lon="13.936856310229214"><ele>291.66666666666663</ele><time>2026-04-11T13:52:16.001Z</time></trkpt><trkpt lat="41.337695299710006" lon="13.936632632176366"><ele>292.0</ele><time>2026-04-11T13:52:17.001Z</time></trkpt><trkpt lat="41.33775501295444" lon="13.936407095894232"><ele>292.0</ele><time>2026-04-11T13:52:18.001Z</time></trkpt><trkpt lat="41.337811390034126" lon="13.93621805556356"><ele>292.0</ele><time>2026-04-11T13:52:19.001Z</time></trkpt><trkpt lat="41.337851257948806" lon="13.936047600564855"><ele>292.0</ele><time>2026-04-11T13:52:20.001Z</time></trkpt><trkpt lat="41.337877679461585" lon="13.935877073561747"><ele>292.0</ele><time>2026-04-11T13:52:21.001Z</time></trkpt><trkpt lat="41.337880085693484" lon="13.935702533208369"><ele>292.3333333333333</ele><time>2026-04-11T13:52:22.001Z</time></trkpt><trkpt lat="41.337856977985524" lon="13.93552769577682"><ele>292.6666666666667</ele><time>2026-04-11T13:52:23.001Z</time></trkpt><trkpt lat="41.33778672460957" lon="13.935301178173413"><ele>293.0</ele><time>2026-04-11T13:52:24.001Z</time></trkpt><trkpt lat="41.337709410317274" lon="13.935092698854472"><ele>291.0</ele><time>2026-04-11T13:52:25.001Z</time></trkpt><trkpt lat="41.337616721833285" lon="13.934861205443928"><ele>289.0</ele><time>2026-04-11T13:52:26.001Z</time></trkpt><trkpt lat="41.33753028143067" lon="13.934666117208735"><ele>287.0</ele><time>2026-04-11T13:52:27.001Z</time></trkpt><trkpt lat="41.33745487432328" lon="13.934500538051054"><ele>287.0</ele><time>2026-04-11T13:52:28.001Z</time></trkpt><trkpt lat="41.337405398140945" lon="13.934374925582475"><ele>287.0</ele><time>2026-04-11T13:52:29.001Z</time></trkpt><trkpt lat="41.33735030522194" lon="13.934273931889251"><ele>287.0</ele><time>2026-04-11T13:52:30.001Z</time></trkpt><trkpt lat="41.33729231672061" lon="13.93416677060268"><ele>287.0</ele><time>2026-04-11T13:52:31.001Z</time></trkpt><trkpt lat="41.33718846922928" lon="13.934105268104208"><ele>287.0</ele><time>2026-04-11T13:52:32.001Z</time></trkpt><trkpt lat="41.33709162203221" lon="13.93410585826184"><ele>286.5</ele><time>2026-04-11T13:52:33.001Z</time></trkpt><trkpt lat="41.33697963609827" lon="13.93410416144244"><ele>286.0</ele><time>2026-04-11T13:52:34.001Z</time></trkpt><trkpt lat="41.336858269991275" lon="13.934139551971972"><ele>285.5</ele><time>2026-04-11T13:52:35.001Z</time></trkpt><trkpt lat="41.336727200208315" lon="13.934229416444662"><ele>285.0</ele><time>2026-04-11T13:52:36.001Z</time></trkpt><trkpt lat="41.33657985869509" lon="13.934354277445648"><ele>285.0</ele><time>2026-04-11T13:52:37.001Z</time></trkpt><trkpt lat="41.336445111657255" lon="13.934487349089602"><ele>285.0</ele><time>2026-04-11T13:52:38.001Z</time></trkpt><trkpt lat="41.3363260018207" lon="13.934589286243396"><ele>285.0</ele><time>2026-04-11T13:52:39.001Z</time></trkpt><trkpt lat="41.33621312292523" lon="13.934658640057618"><ele>285.0</ele><time>2026-04-11T13:52:40.001Z</time></trkpt><trkpt lat="41.33610734719325" lon="13.934690246946051"><ele>284.4</ele><time>2026-04-11T13:52:41.001Z</time></trkpt><trkpt lat="41.33600213769234" lon="13.934658594382993"><ele>283.8</ele><time>2026-04-11T13:52:42.001Z</time></trkpt><trkpt lat="41.33590947009942" lon="13.934626060494375"><ele>283.2</ele><time>2026-04-11T13:52:43.001Z</time></trkpt><trkpt lat="41.33582211314843" lon="13.934538877972177"><ele>282.6</ele><time>2026-04-11T13:52:44.001Z</time></trkpt><trkpt lat="41.33575446056918" lon="13.93441675887102"><ele>282.0</ele><time>2026-04-11T13:52:45.001Z</time></trkpt><trkpt lat="41.335700492300234" lon="13.934247762356442"><ele>279.5</ele><time>2026-04-11T13:52:46.001Z</time></trkpt><trkpt lat="41.33565355608364" lon="13.934057779714378"><ele>277.0</ele><time>2026-04-11T13:52:47.001Z</time></trkpt><trkpt lat="41.33561697164562" lon="13.933880259517306"><ele>274.5</ele><time>2026-04-11T13:52:48.001Z</time></trkpt><trkpt lat="41.33559491279345" lon="13.933712619222103"><ele>272.0</ele><time>2026-04-11T13:52:49.001Z</time></trkpt><trkpt lat="41.33560652799825" lon="13.933531212820654"><ele>272.33333333333337</ele><time>2026-04-11T13:52:50.001Z</time></trkpt><trkpt lat="41.3356684899789" lon="13.93334200843189"><ele>272.6666666666667</ele><time>2026-04-11T13:52:51.001Z</time></trkpt><trkpt lat="41.33571145679485" lon="13.933121079770302"><ele>273.0</ele><time>2026-04-11T13:52:52.001Z</time></trkpt><trkpt lat="41.33575519855959" lon="13.932872925802018"><ele>273.0</ele><time>2026-04-11T13:52:53.001Z</time></trkpt><trkpt lat="41.33578888634611" lon="13.932622909704858"><ele>273.0</ele><time>2026-04-11T13:52:54.001Z</time></trkpt><trkpt lat="41.33581666431367" lon="13.932376632359471"><ele>273.0</ele><time>2026-04-11T13:52:55.001Z</time></trkpt><trkpt lat="41.33583624914349" lon="13.93215136256191"><ele>272.6666666666667</ele><time>2026-04-11T13:52:56.001Z</time></trkpt><trkpt lat="41.33586801058051" lon="13.93191737197029"><ele>272.33333333333337</ele><time>2026-04-11T13:52:57.001Z</time></trkpt><trkpt lat="41.33590943179272" lon="13.931676239213688"><ele>272.0</ele><time>2026-04-11T13:52:58.001Z</time></trkpt><trkpt lat="41.33593884151019" lon="13.931448287224354"><ele>271.33333333333337</ele><time>2026-04-11T13:52:59.001Z</time></trkpt><trkpt lat="41.335962969230636" lon="13.931226238718294"><ele>270.6666666666667</ele><time>2026-04-11T13:53:00.001Z</time></trkpt><trkpt lat="41.33598664516582" lon="13.931035541005917"><ele>270.0</ele><time>2026-04-11T13:53:01.001Z</time></trkpt><trkpt lat="41.33600225586294" lon="13.930855151652246"><ele>269.0</ele><time>2026-04-11T13:53:02.001Z</time></trkpt><trkpt lat="41.336000662915446" lon="13.930683898897536"><ele>268.0</ele><time>2026-04-11T13:53:03.001Z</time></trkpt><trkpt lat="41.33597087100473" lon="13.930520517468654"><ele>267.0</ele><time>2026-04-11T13:53:04.001Z</time></trkpt><trkpt lat="41.335930237386705" lon="13.930345462612935"><ele>266.0</ele><time>2026-04-11T13:53:05.001Z</time></trkpt><trkpt lat="41.33586633838718" lon="13.930184283134935"><ele>266.0</ele><time>2026-04-11T13:53:06.001Z</time></trkpt><trkpt lat="41.33578750835428" lon="13.930060756340287"><ele>266.0</ele><time>2026-04-11T13:53:07.001Z</time></trkpt><trkpt lat="41.335708311437266" lon="13.92997976766602"><ele>266.0</ele><time>2026-04-11T13:53:08.001Z</time></trkpt><trkpt lat="41.3356203944831" lon="13.92992717555463"><ele>266.0</ele><time>2026-04-11T13:53:09.001Z</time></trkpt><trkpt lat="41.33551614027416" lon="13.929867623361416"><ele>266.0</ele><time>2026-04-11T13:53:10.001Z</time></trkpt><trkpt lat="41.335385795207635" lon="13.929879676119784"><ele>263.75</ele><time>2026-04-11T13:53:11.001Z</time></trkpt><trkpt lat="41.33525357788845" lon="13.92991079424679"><ele>261.5</ele><time>2026-04-11T13:53:12.001Z</time></trkpt><trkpt lat="41.335121022706595" lon="13.929931176469163"><ele>259.25</ele><time>2026-04-11T13:53:13.001Z</time></trkpt><trkpt lat="41.335013575197415" lon="13.92995711728474"><ele>257.0</ele><time>2026-04-11T13:53:14.001Z</time></trkpt><trkpt lat="41.33491397253194" lon="13.92996459904088"><ele>257.0</ele><time>2026-04-11T13:53:15.001Z</time></trkpt><trkpt lat="41.33483703282763" lon="13.929938953579908"><ele>257.0</ele><time>2026-04-11T13:53:16.001Z</time></trkpt><trkpt lat="41.334774954971955" lon="13.9298653045628"><ele>257.0</ele><time>2026-04-11T13:53:17.001Z</time></trkpt><trkpt lat="41.33469595797337" lon="13.92974747557406"><ele>257.0</ele><time>2026-04-11T13:53:18.001Z</time></trkpt><trkpt lat="41.33461579421327" lon="13.929595896914938"><ele>257.0</ele><time>2026-04-11T13:53:19.002Z</time></trkpt><trkpt lat="41.33454410377272" lon="13.929431854637413"><ele>256.6666666666667</ele><time>2026-04-11T13:53:20.002Z</time></trkpt><trkpt lat="41.33452451491774" lon="13.929214686963242"><ele>256.3333333333333</ele><time>2026-04-11T13:53:21.002Z</time></trkpt><trkpt lat="41.334501506018675" lon="13.928973311387114"><ele>256.0</ele><time>2026-04-11T13:53:22.002Z</time></trkpt><trkpt lat="41.334469178982594" lon="13.928725677406241"><ele>256.0</ele><time>2026-04-11T13:53:23.002Z</time></trkpt><trkpt lat="41.33445883915711" lon="13.928521055284156"><ele>256.0</ele><time>2026-04-11T13:53:24.002Z</time></trkpt><trkpt lat="41.33444132913947" lon="13.928349905692606"><ele>256.0</ele><time>2026-04-11T13:53:25.002Z</time></trkpt><trkpt lat="41.33441580629418" lon="13.92821135119856"><ele>256.0</ele><time>2026-04-11T13:53:26.002Z</time></trkpt><trkpt lat="41.33437596788906" lon="13.928096582151312"><ele>254.4</ele><time>2026-04-11T13:53:27.002Z</time></trkpt><trkpt lat="41.334311871147214" lon="13.928005545552981"><ele>252.8</ele><time>2026-04-11T13:53:28.002Z</time></trkpt><trkpt lat="41.33422439851146" lon="13.927953017948411"><ele>251.20000000000002</ele><time>2026-04-11T13:53:29.002Z</time></trkpt><trkpt lat="41.33412178936363" lon="13.92791912905742"><ele>249.60000000000002</ele><time>2026-04-11T13:53:30.002Z</time></trkpt><trkpt lat="41.333997175141974" lon="13.927935628312513"><ele>248.0</ele><time>2026-04-11T13:53:31.002Z</time></trkpt><trkpt lat="41.33390722945458" lon="13.92791151731567"><ele>248.75</ele><time>2026-04-11T13:53:32.002Z</time></trkpt><trkpt lat="41.33383134112577" lon="13.927818595284558"><ele>249.5</ele><time>2026-04-11T13:53:33.002Z</time></trkpt><trkpt lat="41.33376056106038" lon="13.92771057876274"><ele>250.25</ele><time>2026-04-11T13:53:34.002Z</time></trkpt><trkpt lat="41.33368632159336" lon="13.927579445983833"><ele>251.0</ele><time>2026-04-11T13:53:35.002Z</time></trkpt><trkpt lat="41.33363175245865" lon="13.927423701439558"><ele>251.0</ele><time>2026-04-11T13:53:36.002Z</time></trkpt><trkpt lat="41.333597895100475" lon="13.927262416763577"><ele>251.0</ele><time>2026-04-11T13:53:37.002Z</time></trkpt><trkpt lat="41.333618222166955" lon="13.927096106286248"><ele>251.0</ele><time>2026-04-11T13:53:38Z</time></trkpt><trkpt lat="41.33365412070552" lon="13.926922896111245"><ele>251.0</ele><time>2026-04-11T13:53:39Z</time></trkpt><trkpt lat="41.3337083210619" lon="13.92674169669088"><ele>250.25</ele><time>2026-04-11T13:53:40Z</time></trkpt><trkpt lat="41.33376895530099" lon="13.926556737024033"><ele>249.5</ele><time>2026-04-11T13:53:41Z</time></trkpt><trkpt lat="41.33382131436758" lon="13.926380102906602"><ele>248.75</ele><time>2026-04-11T13:53:42Z</time></trkpt><trkpt lat="41.33386440599083" lon="13.926195046442144"><ele>248.0</ele><time>2026-04-11T13:53:43Z</time></trkpt><trkpt lat="41.33388801396808" lon="13.926009427328305"><ele>247.0</ele><time>2026-04-11T13:53:44Z</time></trkpt><trkpt lat="41.33387367445696" lon="13.925831756145527"><ele>246.0</ele><time>2026-04-11T13:53:45Z</time></trkpt><trkpt lat="41.333859013448105" lon="13.925653989095743"><ele>245.0</ele><time>2026-04-11T13:53:46Z</time></trkpt><trkpt lat="41.333789591081164" lon="13.925486347743782"><ele>244.0</ele><time>2026-04-11T13:53:47Z</time></trkpt><trkpt lat="41.33371893035526" lon="13.92532756497574"><ele>244.0</ele><time>2026-04-11T13:53:48Z</time></trkpt><trkpt lat="41.33364640730972" lon="13.925189713643764"><ele>244.0</ele><time>2026-04-11T13:53:49Z</time></trkpt><trkpt lat="41.333599616566616" lon="13.925056335439114"><ele>244.0</ele><time>2026-04-11T13:53:50Z</time></trkpt><trkpt lat="41.33356865980329" lon="13.924915279110788"><ele>244.0</ele><time>2026-04-11T13:53:51Z</time></trkpt><trkpt lat="41.33354832166573" lon="13.924737982119519"><ele>242.75</ele><time>2026-04-11T13:53:52Z</time></trkpt><trkpt lat="41.33355917998002" lon="13.924547238402269"><ele>241.5</ele><time>2026-04-11T13:53:53Z</time></trkpt><trkpt lat="41.33358774290641" lon="13.924366784510857"><ele>240.25</ele><time>2026-04-11T13:53:54Z</time></trkpt><trkpt lat="41.3336240378179" lon="13.924220802644635"><ele>239.0</ele><time>2026-04-11T13:53:55Z</time></trkpt><trkpt lat="41.333679665759824" lon="13.924080577454816"><ele>239.0</ele><time>2026-04-11T13:53:56Z</time></trkpt><trkpt lat="41.33375885377803" lon="13.923930069071456"><ele>239.0</ele><time>2026-04-11T13:53:57Z</time></trkpt><trkpt lat="41.33385379094633" lon="13.923770919845287"><ele>239.0</ele><time>2026-04-11T13:53:58Z</time></trkpt><trkpt lat="41.33394796961654" lon="13.923590536085486"><ele>236.33333333333334</ele><time>2026-04-11T13:53:59Z</time></trkpt><trkpt lat="41.33402804361946" lon="13.923393724100508"><ele>233.66666666666669</ele><time>2026-04-11T13:54:00Z</time></trkpt><trkpt lat="41.33409180372354" lon="13.92318038920469"><ele>231.0</ele><time>2026-04-11T13:54:01Z</time></trkpt><trkpt lat="41.334159065640705" lon="13.922963131099678"><ele>231.0</ele><time>2026-04-11T13:54:02Z</time></trkpt><trkpt lat="41.33423145425857" lon="13.922752841775171"><ele>231.0</ele><time>2026-04-11T13:54:03Z</time></trkpt><trkpt lat="41.334291498611194" lon="13.92254266749891"><ele>231.0</ele><time>2026-04-11T13:54:04Z</time></trkpt><trkpt lat="41.33435198851104" lon="13.922332957868253"><ele>230.0</ele><time>2026-04-11T13:54:05Z</time></trkpt><trkpt lat="41.33440879356398" lon="13.922144286997598"><ele>229.0</ele><time>2026-04-11T13:54:06Z</time></trkpt><trkpt lat="41.33448692975866" lon="13.921917993611041"><ele>228.0</ele><time>2026-04-11T13:54:07Z</time></trkpt><trkpt lat="41.33458635885678" lon="13.921714410254534"><ele>227.66666666666669</ele><time>2026-04-11T13:54:08Z</time></trkpt><trkpt lat="41.33470885304318" lon="13.921495582440146"><ele>227.33333333333334</ele><time>2026-04-11T13:54:09Z</time></trkpt><trkpt lat="41.33483235230527" lon="13.921281687222564"><ele>227.0</ele><time>2026-04-11T13:54:10Z</time></trkpt><trkpt lat="41.334934692476786" lon="13.921056264738565"><ele>224.66666666666669</ele><time>2026-04-11T13:54:11Z</time></trkpt><trkpt lat="41.33503398447645" lon="13.920830542422204"><ele>222.33333333333331</ele><time>2026-04-11T13:54:12Z</time></trkpt><trkpt lat="41.335119962486196" lon="13.920604278571261"><ele>220.0</ele><time>2026-04-11T13:54:13Z</time></trkpt><trkpt lat="41.33521524110955" lon="13.920386271207844"><ele>220.0</ele><time>2026-04-11T13:54:14Z</time></trkpt><trkpt lat="41.33529617379656" lon="13.92016012151835"><ele>220.0</ele><time>2026-04-11T13:54:15Z</time></trkpt><trkpt lat="41.3353530945365" lon="13.919910496129592"><ele>220.0</ele><time>2026-04-11T13:54:16Z</time></trkpt><trkpt lat="41.33541998741337" lon="13.919659343168032"><ele>219.66666666666666</ele><time>2026-04-11T13:54:17Z</time></trkpt><trkpt lat="41.335482927070565" lon="13.919416774098332"><ele>219.33333333333331</ele><time>2026-04-11T13:54:18Z</time></trkpt><trkpt lat="41.33555649059973" lon="13.919152816936304"><ele>219.0</ele><time>2026-04-11T13:54:19Z</time></trkpt><trkpt lat="41.33559234942725" lon="13.918859501359597"><ele>215.66666666666669</ele><time>2026-04-11T13:54:20Z</time></trkpt><trkpt lat="41.33563881542794" lon="13.918568708888023"><ele>212.33333333333334</ele><time>2026-04-11T13:54:21Z</time></trkpt><trkpt lat="41.33567587246406" lon="13.918291482710076"><ele>209.0</ele><time>2026-04-11T13:54:22Z</time></trkpt><trkpt lat="41.33571768056036" lon="13.918023110446999"><ele>208.0</ele><time>2026-04-11T13:54:23Z</time></trkpt><trkpt lat="41.335739356242904" lon="13.917780798689146"><ele>207.0</ele><time>2026-04-11T13:54:24Z</time></trkpt><trkpt lat="41.3357757385669" lon="13.917549904719142"><ele>206.0</ele><time>2026-04-11T13:54:25Z</time></trkpt><trkpt lat="41.335801641486576" lon="13.917333389961895"><ele>205.33333333333334</ele><time>2026-04-11T13:54:26Z</time></trkpt><trkpt lat="41.33582843012806" lon="13.917130979953347"><ele>204.66666666666669</ele><time>2026-04-11T13:54:27Z</time></trkpt><trkpt lat="41.33585738245599" lon="13.916914199932695"><ele>204.0</ele><time>2026-04-11T13:54:28.001Z</time></trkpt><trkpt lat="41.33587377675309" lon="13.916717874170148"><ele>203.33333333333331</ele><time>2026-04-11T13:54:29.001Z</time></trkpt><trkpt lat="41.335934591198125" lon="13.916537346053257"><ele>202.66666666666666</ele><time>2026-04-11T13:54:30.001Z</time></trkpt><trkpt lat="41.336022654646996" lon="13.916343510088032"><ele>202.0</ele><time>2026-04-11T13:54:31.001Z</time></trkpt><trkpt lat="41.33612172094467" lon="13.91613922086424"><ele>202.0</ele><time>2026-04-11T13:54:32.001Z</time></trkpt><trkpt lat="41.336230186429745" lon="13.915933771281964"><ele>202.0</ele><time>2026-04-11T13:54:33.001Z</time></trkpt><trkpt lat="41.336348937332154" lon="13.915724699043013"><ele>202.0</ele><time>2026-04-11T13:54:34.001Z</time></trkpt><trkpt lat="41.33646678864353" lon="13.915513245366801"><ele>199.66666666666666</ele><time>2026-04-11T13:54:35.001Z</time></trkpt><trkpt lat="41.33659318224808" lon="13.915295618278368"><ele>197.33333333333331</ele><time>2026-04-11T13:54:36.001Z</time></trkpt><trkpt lat="41.33675224119435" lon="13.915089638058236"><ele>195.0</ele><time>2026-04-11T13:54:37.001Z</time></trkpt><trkpt lat="41.33693407091847" lon="13.91489338561289"><ele>195.0</ele><time>2026-04-11T13:54:38.001Z</time></trkpt><trkpt lat="41.3371067695092" lon="13.914689460216957"><ele>195.0</ele><time>2026-04-11T13:54:39.001Z</time></trkpt><trkpt lat="41.33728888180541" lon="13.914474419241284"><ele>193.66666666666666</ele><time>2026-04-11T13:54:40.001Z</time></trkpt><trkpt lat="41.3374402864645" lon="13.914270750509509"><ele>192.33333333333331</ele><time>2026-04-11T13:54:41.001Z</time></trkpt><trkpt lat="41.33759548280635" lon="13.914079612332563"><ele>191.0</ele><time>2026-04-11T13:54:42.001Z</time></trkpt><trkpt lat="41.33776032229393" lon="13.913909885214986"><ele>191.0</ele><time>2026-04-11T13:54:43.001Z</time></trkpt><trkpt lat="41.33788271829405" lon="13.913751692100224"><ele>191.0</ele><time>2026-04-11T13:54:44.001Z</time></trkpt><trkpt lat="41.33798657947792" lon="13.9136339980752"><ele>191.0</ele><time>2026-04-11T13:54:45.001Z</time></trkpt><trkpt lat="41.338071002874216" lon="13.913494845338386"><ele>191.0</ele><time>2026-04-11T13:54:46.001Z</time></trkpt><trkpt lat="41.338135483493836" lon="13.913315118138433"><ele>190.66666666666666</ele><time>2026-04-11T13:54:47.001Z</time></trkpt><trkpt lat="41.33819717614336" lon="13.913111571567617"><ele>190.33333333333334</ele><time>2026-04-11T13:54:48.001Z</time></trkpt><trkpt lat="41.33824216506098" lon="13.91286892448829"><ele>190.0</ele><time>2026-04-11T13:54:49.001Z</time></trkpt><trkpt lat="41.338286716287094" lon="13.912623394101315"><ele>189.66666666666669</ele><time>2026-04-11T13:54:50.001Z</time></trkpt><trkpt lat="41.338331806207066" lon="13.912378620984661"><ele>189.33333333333334</ele><time>2026-04-11T13:54:51.001Z</time></trkpt><trkpt lat="41.33837132125289" lon="13.912172376060614"><ele>189.0</ele><time>2026-04-11T13:54:52.001Z</time></trkpt><trkpt lat="41.33840831837423" lon="13.91197375083915"><ele>189.0</ele><time>2026-04-11T13:54:53.001Z</time></trkpt><trkpt lat="41.33842776367743" lon="13.911798233944861"><ele>189.0</ele><time>2026-04-11T13:54:54.001Z</time></trkpt><trkpt lat="41.33846463407891" lon="13.911634314626358"><ele>189.0</ele><time>2026-04-11T13:54:55.001Z</time></trkpt><trkpt lat="41.33850447982184" lon="13.911479946972642"><ele>189.0</ele><time>2026-04-11T13:54:56.001Z</time></trkpt><trkpt lat="41.33856078051732" lon="13.911297055821983"><ele>188.66666666666666</ele><time>2026-04-11T13:54:57.001Z</time></trkpt><trkpt lat="41.338632543742065" lon="13.911108798897274"><ele>188.33333333333331</ele><time>2026-04-11T13:54:58.001Z</time></trkpt><trkpt lat="41.33870869919834" lon="13.910898328939549"><ele>188.0</ele><time>2026-04-11T13:54:59.001Z</time></trkpt><trkpt lat="41.338790563612136" lon="13.910681668697622"><ele>186.33333333333331</ele><time>2026-04-11T13:55:00.001Z</time></trkpt><trkpt lat="41.338872633940724" lon="13.910463675961148"><ele>184.66666666666666</ele><time>2026-04-11T13:55:01.001Z</time></trkpt><trkpt lat="41.338954614367395" lon="13.910240061616047"><ele>183.0</ele><time>2026-04-11T13:55:02.001Z</time></trkpt><trkpt lat="41.33901967164298" lon="13.909974437877285"><ele>181.33333333333334</ele><time>2026-04-11T13:55:03.001Z</time></trkpt><trkpt lat="41.33907642646935" lon="13.909715198956023"><ele>179.66666666666669</ele><time>2026-04-11T13:55:04.001Z</time></trkpt><trkpt lat="41.339140847438344" lon="13.909442589381058"><ele>178.0</ele><time>2026-04-11T13:55:05.001Z</time></trkpt><trkpt lat="41.33920275639881" lon="13.909180609835225"><ele>176.33333333333334</ele><time>2026-04-11T13:55:06.001Z</time></trkpt><trkpt lat="41.339266383717636" lon="13.908932095846088"><ele>174.66666666666666</ele><time>2026-04-11T13:55:07.001Z</time></trkpt><trkpt lat="41.33933051551752" lon="13.90870017407316"><ele>173.0</ele><time>2026-04-11T13:55:08.001Z</time></trkpt><trkpt lat="41.33939811604375" lon="13.908463000123874"><ele>173.0</ele><time>2026-04-11T13:55:09.001Z</time></trkpt><trkpt lat="41.33947579798033" lon="13.908231768280546"><ele>173.0</ele><time>2026-04-11T13:55:10.001Z</time></trkpt><trkpt lat="41.3395689368342" lon="13.907997735823164"><ele>173.0</ele><time>2026-04-11T13:55:11.001Z</time></trkpt><trkpt lat="41.33965956358301" lon="13.907773696682815"><ele>172.33333333333331</ele><time>2026-04-11T13:55:12.001Z</time></trkpt><trkpt lat="41.33975243511202" lon="13.907538330294978"><ele>171.66666666666666</ele><time>2026-04-11T13:55:13.001Z</time></trkpt><trkpt lat="41.33982647984402" lon="13.907308619937169"><ele>171.0</ele><time>2026-04-11T13:55:14.001Z</time></trkpt><trkpt lat="41.33990640357331" lon="13.90708862352284"><ele>171.0</ele><time>2026-04-11T13:55:15.001Z</time></trkpt><trkpt lat="41.33997418071944" lon="13.906862647886236"><ele>171.0</ele><time>2026-04-11T13:55:16.001Z</time></trkpt><trkpt lat="41.340037781480085" lon="13.906635359621644"><ele>171.0</ele><time>2026-04-11T13:55:17.001Z</time></trkpt><trkpt lat="41.34009579606304" lon="13.90640193401229"><ele>171.0</ele><time>2026-04-11T13:55:18.001Z</time></trkpt><trkpt lat="41.34013575963414" lon="13.906167054375416"><ele>171.0</ele><time>2026-04-11T13:55:19.001Z</time></trkpt><trkpt lat="41.3401684770556" lon="13.905933644381951"><ele>171.0</ele><time>2026-04-11T13:55:20.001Z</time></trkpt><trkpt lat="41.340221624519145" lon="13.905685762558837"><ele>169.33333333333334</ele><time>2026-04-11T13:55:21.001Z</time></trkpt><trkpt lat="41.34029018135744" lon="13.90543316826008"><ele>167.66666666666669</ele><time>2026-04-11T13:55:22.001Z</time></trkpt><trkpt lat="41.340355634881874" lon="13.905198134620521"><ele>166.0</ele><time>2026-04-11T13:55:23.001Z</time></trkpt><trkpt lat="41.34043698972924" lon="13.904976952050731"><ele>164.33333333333334</ele><time>2026-04-11T13:55:24.001Z</time></trkpt><trkpt lat="41.34048655137002" lon="13.90476659285944"><ele>162.66666666666666</ele><time>2026-04-11T13:55:25.001Z</time></trkpt><trkpt lat="41.34054909043415" lon="13.904575068272738"><ele>161.0</ele><time>2026-04-11T13:55:26.001Z</time></trkpt><trkpt lat="41.34060127085023" lon="13.904391693041939"><ele>159.33333333333331</ele><time>2026-04-11T13:55:27.001Z</time></trkpt><trkpt lat="41.340670882550796" lon="13.904204413063518"><ele>157.66666666666666</ele><time>2026-04-11T13:55:28.001Z</time></trkpt><trkpt lat="41.340752480303685" lon="13.904015903636084"><ele>156.0</ele><time>2026-04-11T13:55:29.001Z</time></trkpt><trkpt lat="41.34086741212135" lon="13.903824396798887"><ele>156.0</ele><time>2026-04-11T13:55:30.001Z</time></trkpt><trkpt lat="41.34099668511337" lon="13.903619002353302"><ele>156.0</ele><time>2026-04-11T13:55:31.001Z</time></trkpt><trkpt lat="41.34112832111609" lon="13.903397642030365"><ele>156.0</ele><time>2026-04-11T13:55:32.002Z</time></trkpt><trkpt lat="41.341267104170754" lon="13.903171120087913"><ele>154.66666666666666</ele><time>2026-04-11T13:55:33.002Z</time></trkpt><trkpt lat="41.34140638363788" lon="13.90292242525589"><ele>153.33333333333331</ele><time>2026-04-11T13:55:34.002Z</time></trkpt><trkpt lat="41.341538510834646" lon="13.902707978665886"><ele>152.0</ele><time>2026-04-11T13:55:35.002Z</time></trkpt><trkpt lat="41.341655059693466" lon="13.902511399781547"><ele>152.0</ele><time>2026-04-11T13:55:36.002Z</time></trkpt><trkpt lat="41.34176441726921" lon="13.902333499164058"><ele>152.0</ele><time>2026-04-11T13:55:37.002Z</time></trkpt><trkpt lat="41.34185692820724" lon="13.902139406854731"><ele>152.0</ele><time>2026-04-11T13:55:38.002Z</time></trkpt><trkpt lat="41.34192438561206" lon="13.90192988610538"><ele>151.66666666666666</ele><time>2026-04-11T13:55:39.002Z</time></trkpt><trkpt lat="41.341972703138694" lon="13.901715675352783"><ele>151.33333333333334</ele><time>2026-04-11T13:55:40.002Z</time></trkpt><trkpt lat="41.342028932585286" lon="13.901515311044038"><ele>151.0</ele><time>2026-04-11T13:55:41.002Z</time></trkpt><trkpt lat="41.34205807776676" lon="13.901344924091923"><ele>151.0</ele><time>2026-04-11T13:55:42.002Z</time></trkpt><trkpt lat="41.342064909943936" lon="13.901180613398767"><ele>151.0</ele><time>2026-04-11T13:55:43.002Z</time></trkpt><trkpt lat="41.342060303993286" lon="13.90104056403906"><ele>151.0</ele><time>2026-04-11T13:55:44Z</time></trkpt><trkpt lat="41.34200850577723" lon="13.900876135027207"><ele>151.0</ele><time>2026-04-11T13:55:45Z</time></trkpt><trkpt lat="41.34192284987771" lon="13.900727351209849"><ele>149.0</ele><time>2026-04-11T13:55:46Z</time></trkpt><trkpt lat="41.34181803404696" lon="13.900545225460366"><ele>147.0</ele><time>2026-04-11T13:55:47Z</time></trkpt><trkpt lat="41.34170715462755" lon="13.900361286091062"><ele>145.0</ele><time>2026-04-11T13:55:48Z</time></trkpt><trkpt lat="41.34158193707957" lon="13.900173249950289"><ele>144.0</ele><time>2026-04-11T13:55:49Z</time></trkpt><trkpt lat="41.3414486450915" lon="13.899956021335655"><ele>143.0</ele><time>2026-04-11T13:55:50Z</time></trkpt><trkpt lat="41.34132171496075" lon="13.899758962934072"><ele>142.0</ele><time>2026-04-11T13:55:51Z</time></trkpt><trkpt lat="41.34118071325475" lon="13.899532077124139"><ele>140.66666666666669</ele><time>2026-04-11T13:55:52Z</time></trkpt><trkpt lat="41.34105105850418" lon="13.899325250713305"><ele>139.33333333333334</ele><time>2026-04-11T13:55:53Z</time></trkpt><trkpt lat="41.34093291944171" lon="13.899124946994318"><ele>138.0</ele><time>2026-04-11T13:55:54Z</time></trkpt><trkpt lat="41.34082886254889" lon="13.898954133803528"><ele>137.75</ele><time>2026-04-11T13:55:55Z</time></trkpt><trkpt lat="41.34073614644835" lon="13.898801870618286"><ele>137.5</ele><time>2026-04-11T13:55:56Z</time></trkpt><trkpt lat="41.34065243051587" lon="13.898665457882428"><ele>137.25</ele><time>2026-04-11T13:55:57Z</time></trkpt><trkpt lat="41.34057588883475" lon="13.898545028276477"><ele>137.0</ele><time>2026-04-11T13:55:58Z</time></trkpt><trkpt lat="41.340476483253056" lon="13.89844943757984"><ele>136.5</ele><time>2026-04-11T13:55:59Z</time></trkpt><trkpt lat="41.340343199305686" lon="13.898380413936858"><ele>136.0</ele><time>2026-04-11T13:56:00Z</time></trkpt><trkpt lat="41.34021729667602" lon="13.898320198378771"><ele>135.5</ele><time>2026-04-11T13:56:01Z</time></trkpt><trkpt lat="41.34011195764047" lon="13.898256534477099"><ele>135.0</ele><time>2026-04-11T13:56:02Z</time></trkpt><trkpt lat="41.34002424221149" lon="13.898182100762014"><ele>135.0</ele><time>2026-04-11T13:56:03Z</time></trkpt><trkpt lat="41.33995377091808" lon="13.898076975576721"><ele>135.0</ele><time>2026-04-11T13:56:04Z</time></trkpt><trkpt lat="41.339914044941914" lon="13.897926328635725"><ele>135.0</ele><time>2026-04-11T13:56:05Z</time></trkpt><trkpt lat="41.339883625296494" lon="13.897733092778404"><ele>135.0</ele><time>2026-04-11T13:56:06Z</time></trkpt><trkpt lat="41.339861785443006" lon="13.897505635004553"><ele>133.33333333333334</ele><time>2026-04-11T13:56:07Z</time></trkpt><trkpt lat="41.33982742316974" lon="13.897273857423317"><ele>131.66666666666669</ele><time>2026-04-11T13:56:08Z</time></trkpt><trkpt lat="41.339814619323754" lon="13.897052366594298"><ele>130.0</ele><time>2026-04-11T13:56:09Z</time></trkpt><trkpt lat="41.33979924891361" lon="13.89687271264909"><ele>129.0</ele><time>2026-04-11T13:56:10Z</time></trkpt><trkpt lat="41.33983920462514" lon="13.896698611212614"><ele>128.0</ele><time>2026-04-11T13:56:11Z</time></trkpt><trkpt lat="41.33988482485499" lon="13.896537940329022"><ele>127.0</ele><time>2026-04-11T13:56:12Z</time></trkpt><trkpt lat="41.33991918289791" lon="13.896387436737324"><ele>126.0</ele><time>2026-04-11T13:56:13Z</time></trkpt><trkpt lat="41.33998873235864" lon="13.896289910122036"><ele>126.0</ele><time>2026-04-11T13:56:14Z</time></trkpt><trkpt lat="41.340083724389515" lon="13.896199772875121"><ele>126.0</ele><time>2026-04-11T13:56:15Z</time></trkpt><trkpt lat="41.34020545357588" lon="13.896159742941519"><ele>126.0</ele><time>2026-04-11T13:56:16Z</time></trkpt><trkpt lat="41.34031260285042" lon="13.896101400664621"><ele>126.0</ele><time>2026-04-11T13:56:17Z</time></trkpt><trkpt lat="41.340399565836826" lon="13.895995310088152"><ele>128.0</ele><time>2026-04-11T13:56:18Z</time></trkpt><trkpt lat="41.34048659527877" lon="13.895830147571962"><ele>130.0</ele><time>2026-04-11T13:56:19Z</time></trkpt><trkpt lat="41.34056766832096" lon="13.895629955387566"><ele>132.0</ele><time>2026-04-11T13:56:20Z</time></trkpt><trkpt lat="41.34064613826046" lon="13.895445608903009"><ele>129.5</ele><time>2026-04-11T13:56:21Z</time></trkpt><trkpt lat="41.34070546248699" lon="13.895287130204174"><ele>127.0</ele><time>2026-04-11T13:56:22Z</time></trkpt><trkpt lat="41.340750144497036" lon="13.895153004320298"><ele>124.5</ele><time>2026-04-11T13:56:23Z</time></trkpt><trkpt lat="41.34076261006325" lon="13.89499587942751"><ele>122.0</ele><time>2026-04-11T13:56:24Z</time></trkpt><trkpt lat="41.34074946416941" lon="13.894804090040674"><ele>122.0</ele><time>2026-04-11T13:56:25Z</time></trkpt><trkpt lat="41.34070963519557" lon="13.8945743253543"><ele>122.0</ele><time>2026-04-11T13:56:26Z</time></trkpt><trkpt lat="41.340680033005995" lon="13.89434487064235"><ele>122.0</ele><time>2026-04-11T13:56:27Z</time></trkpt><trkpt lat="41.34061133277448" lon="13.8941682367573"><ele>121.75</ele><time>2026-04-11T13:56:28Z</time></trkpt><trkpt lat="41.34056954006582" lon="13.89398903537567"><ele>121.5</ele><time>2026-04-11T13:56:29Z</time></trkpt><trkpt lat="41.34051785537444" lon="13.893822249512112"><ele>121.25</ele><time>2026-04-11T13:56:30Z</time></trkpt><trkpt lat="41.340491804022996" lon="13.893660808817467"><ele>121.0</ele><time>2026-04-11T13:56:31Z</time></trkpt><trkpt lat="41.34049799449159" lon="13.893500082336327"><ele>120.0</ele><time>2026-04-11T13:56:32Z</time></trkpt><trkpt lat="41.34054521678105" lon="13.893344663165196"><ele>119.0</ele><time>2026-04-11T13:56:33Z</time></trkpt><trkpt lat="41.34059314505645" lon="13.893195937667457"><ele>118.0</ele><time>2026-04-11T13:56:34Z</time></trkpt><trkpt lat="41.340624637290915" lon="13.893067173132033"><ele>117.0</ele><time>2026-04-11T13:56:35Z</time></trkpt><trkpt lat="41.3406080024005" lon="13.892933942849249"><ele>117.0</ele><time>2026-04-11T13:56:36Z</time></trkpt><trkpt lat="41.34057176858182" lon="13.89279888014896"><ele>117.0</ele><time>2026-04-11T13:56:37.001Z</time></trkpt><trkpt lat="41.340503122129306" lon="13.892649184106508"><ele>117.0</ele><time>2026-04-11T13:56:38.001Z</time></trkpt><trkpt lat="41.34045657569042" lon="13.892487483289562"><ele>117.0</ele><time>2026-04-11T13:56:39.001Z</time></trkpt><trkpt lat="41.34042065895126" lon="13.892352024412439"><ele>119.75</ele><time>2026-04-11T13:56:40.001Z</time></trkpt><trkpt lat="41.34040251654345" lon="13.892195391620932"><ele>122.5</ele><time>2026-04-11T13:56:41.001Z</time></trkpt><trkpt lat="41.340406425162165" lon="13.892007882121066"><ele>125.25</ele><time>2026-04-11T13:56:42.001Z</time></trkpt><trkpt lat="41.340423039113595" lon="13.891797746142183"><ele>128.0</ele><time>2026-04-11T13:56:43.001Z</time></trkpt><trkpt lat="41.34044123372716" lon="13.891593804564966"><ele>128.0</ele><time>2026-04-11T13:56:44.001Z</time></trkpt><trkpt lat="41.34045244562327" lon="13.891441048383303"><ele>128.0</ele><time>2026-04-11T13:56:45.001Z</time></trkpt><trkpt lat="41.34044268937002" lon="13.891290828939567"><ele>128.0</ele><time>2026-04-11T13:56:46.001Z</time></trkpt><trkpt lat="41.340403425666906" lon="13.891124777338884"><ele>128.0</ele><time>2026-04-11T13:56:47.001Z</time></trkpt><trkpt lat="41.34032674959897" lon="13.89093362484064"><ele>126.0</ele><time>2026-04-11T13:56:48.001Z</time></trkpt><trkpt lat="41.340261263623205" lon="13.890720774951422"><ele>124.0</ele><time>2026-04-11T13:56:49.001Z</time></trkpt><trkpt lat="41.34018611133424" lon="13.89053072570094"><ele>122.0</ele><time>2026-04-11T13:56:50.001Z</time></trkpt><trkpt lat="41.34010788974213" lon="13.890371936147618"><ele>122.0</ele><time>2026-04-11T13:56:51.001Z</time></trkpt><trkpt lat="41.34003897189648" lon="13.890204786286782"><ele>122.0</ele><time>2026-04-11T13:56:52.001Z</time></trkpt><trkpt lat="41.33998330897034" lon="13.8900165831087"><ele>122.0</ele><time>2026-04-11T13:56:53.001Z</time></trkpt><trkpt lat="41.339956390127384" lon="13.889783960651247"><ele>120.75</ele><time>2026-04-11T13:56:54.001Z</time></trkpt><trkpt lat="41.339922702456015" lon="13.889576529173496"><ele>119.5</ele><time>2026-04-11T13:56:55.001Z</time></trkpt><trkpt lat="41.33990940795666" lon="13.889400354817168"><ele>118.25</ele><time>2026-04-11T13:56:56.001Z</time></trkpt><trkpt lat="41.33988367545275" lon="13.889235016888554"><ele>117.0</ele><time>2026-04-11T13:56:57.001Z</time></trkpt><trkpt lat="41.33983218173744" lon="13.889072375573663"><ele>116.5</ele><time>2026-04-11T13:56:58.001Z</time></trkpt><trkpt lat="41.33974466823652" lon="13.888922758420525"><ele>116.0</ele><time>2026-04-11T13:56:59.001Z</time></trkpt><trkpt lat="41.339626014716565" lon="13.888785049621463"><ele>115.5</ele><time>2026-04-11T13:57:00.001Z</time></trkpt><trkpt lat="41.339519361876675" lon="13.88867854340226"><ele>115.0</ele><time>2026-04-11T13:57:01.001Z</time></trkpt><trkpt lat="41.33942712647245" lon="13.88857963042999"><ele>114.25</ele><time>2026-04-11T13:57:02.001Z</time></trkpt><trkpt lat="41.339342337187944" lon="13.888463380256859"><ele>113.5</ele><time>2026-04-11T13:57:03.001Z</time></trkpt><trkpt lat="41.33925569655974" lon="13.888348340421944"><ele>112.75</ele><time>2026-04-11T13:57:04.001Z</time></trkpt><trkpt lat="41.33921798196836" lon="13.888184562748648"><ele>112.0</ele><time>2026-04-11T13:57:05.001Z</time></trkpt><trkpt lat="41.33921225670383" lon="13.888007048902994"><ele>111.33333333333334</ele><time>2026-04-11T13:57:06.001Z</time></trkpt><trkpt lat="41.33918941546566" lon="13.887806480332488"><ele>110.66666666666666</ele><time>2026-04-11T13:57:07.001Z</time></trkpt><trkpt lat="41.33918178279765" lon="13.887580224890769"><ele>110.0</ele><time>2026-04-11T13:57:08.001Z</time></trkpt><trkpt lat="41.33920738524194" lon="13.887354650720162"><ele>109.33333333333333</ele><time>2026-04-11T13:57:09.001Z</time></trkpt><trkpt lat="41.33923763764435" lon="13.88714778840204"><ele>108.66666666666666</ele><time>2026-04-11T13:57:10.001Z</time></trkpt><trkpt lat="41.33925740389354" lon="13.8869112249679"><ele>108.0</ele><time>2026-04-11T13:57:11.001Z</time></trkpt><trkpt lat="41.33929331367126" lon="13.886695957850645"><ele>107.5</ele><time>2026-04-11T13:57:12.001Z</time></trkpt><trkpt lat="41.33931790170264" lon="13.886525601708632"><ele>107.0</ele><time>2026-04-11T13:57:13.001Z</time></trkpt><trkpt lat="41.33932150988596" lon="13.886360363577328"><ele>106.5</ele><time>2026-04-11T13:57:14.001Z</time></trkpt><trkpt lat="41.33928668625163" lon="13.886209763875975"><ele>106.0</ele><time>2026-04-11T13:57:15.001Z</time></trkpt><trkpt lat="41.33921678318342" lon="13.886028606785112"><ele>105.0</ele><time>2026-04-11T13:57:16.001Z</time></trkpt><trkpt lat="41.339150965178696" lon="13.885852501890579"><ele>104.0</ele><time>2026-04-11T13:57:17.001Z</time></trkpt><trkpt lat="41.33909721521526" lon="13.885699000141717"><ele>103.0</ele><time>2026-04-11T13:57:18.001Z</time></trkpt><trkpt lat="41.3390523370775" lon="13.885563644949976"><ele>102.0</ele><time>2026-04-11T13:57:19.001Z</time></trkpt><trkpt lat="41.33903462751649" lon="13.885411772065893"><ele>102.0</ele><time>2026-04-11T13:57:20.001Z</time></trkpt><trkpt lat="41.33907780249521" lon="13.885238159015087"><ele>102.0</ele><time>2026-04-11T13:57:21.001Z</time></trkpt><trkpt lat="41.339134453255625" lon="13.885036352285825"><ele>102.0</ele><time>2026-04-11T13:57:22.001Z</time></trkpt><trkpt lat="41.339181002141096" lon="13.884831262390595"><ele>101.75</ele><time>2026-04-11T13:57:23.001Z</time></trkpt><trkpt lat="41.33924448329687" lon="13.884666377670856"><ele>101.5</ele><time>2026-04-11T13:57:24.001Z</time></trkpt><trkpt lat="41.33929112595658" lon="13.884514310567583"><ele>101.25</ele><time>2026-04-11T13:57:25.001Z</time></trkpt><trkpt lat="41.33931351865201" lon="13.884332205219113"><ele>101.0</ele><time>2026-04-11T13:57:26.001Z</time></trkpt><trkpt lat="41.33931646078424" lon="13.884136711590848"><ele>101.66666666666666</ele><time>2026-04-11T13:57:27.001Z</time></trkpt><trkpt lat="41.33929550385759" lon="13.883933144155073"><ele>102.33333333333334</ele><time>2026-04-11T13:57:28.001Z</time></trkpt><trkpt lat="41.33925728214545" lon="13.883737734856718"><ele>103.0</ele><time>2026-04-11T13:57:29.001Z</time></trkpt><trkpt lat="41.339229338967115" lon="13.883543586911326"><ele>102.0</ele><time>2026-04-11T13:57:30.001Z</time></trkpt><trkpt lat="41.33922266189754" lon="13.883355337868386"><ele>101.0</ele><time>2026-04-11T13:57:31.001Z</time></trkpt><trkpt lat="41.33924084559366" lon="13.883146298414976"><ele>100.0</ele><time>2026-04-11T13:57:32.001Z</time></trkpt><trkpt lat="41.33927173691849" lon="13.882932177496102"><ele>100.0</ele><time>2026-04-11T13:57:33.001Z</time></trkpt><trkpt lat="41.33929785799231" lon="13.882729382602468"><ele>100.0</ele><time>2026-04-11T13:57:34.001Z</time></trkpt><trkpt lat="41.339324276357" lon="13.882544473255132"><ele>100.0</ele><time>2026-04-11T13:57:35.001Z</time></trkpt><trkpt lat="41.33934266251215" lon="13.882399609824638"><ele>100.0</ele><time>2026-04-11T13:57:36.001Z</time></trkpt><trkpt lat="41.33936038372135" lon="13.882247572671739"><ele>98.8</ele><time>2026-04-11T13:57:37.001Z</time></trkpt><trkpt lat="41.33937002464309" lon="13.882112990387007"><ele>97.6</ele><time>2026-04-11T13:57:38.002Z</time></trkpt><trkpt lat="41.33935225402179" lon="13.881975194049106"><ele>96.4</ele><time>2026-04-11T13:57:39.002Z</time></trkpt><trkpt lat="41.33930208494573" lon="13.881851276325513"><ele>95.2</ele><time>2026-04-11T13:57:40.002Z</time></trkpt><trkpt lat="41.33924016040892" lon="13.881735153491336"><ele>94.0</ele><time>2026-04-11T13:57:41.002Z</time></trkpt><trkpt lat="41.33912659554407" lon="13.881658258393731"><ele>91.25</ele><time>2026-04-11T13:57:42.002Z</time></trkpt><trkpt lat="41.339014520182275" lon="13.881611141067381"><ele>88.5</ele><time>2026-04-11T13:57:43.002Z</time></trkpt><trkpt lat="41.33889488077589" lon="13.881587256895811"><ele>85.75</ele><time>2026-04-11T13:57:44.002Z</time></trkpt><trkpt lat="41.338763213068525" lon="13.881579393206676"><ele>83.0</ele><time>2026-04-11T13:57:45.002Z</time></trkpt><trkpt lat="41.33861764681694" lon="13.881565527678605"><ele>83.0</ele><time>2026-04-11T13:57:46.002Z</time></trkpt><trkpt lat="41.3384741022061" lon="13.88152902774762"><ele>83.0</ele><time>2026-04-11T13:57:47.002Z</time></trkpt><trkpt lat="41.338330448938294" lon="13.881516426746066"><ele>83.0</ele><time>2026-04-11T13:57:48.002Z</time></trkpt><trkpt lat="41.33821869466748" lon="13.881493637383755"><ele>83.0</ele><time>2026-04-11T13:57:49.002Z</time></trkpt><trkpt lat="41.338105332947805" lon="13.881516389740396"><ele>83.0</ele><time>2026-04-11T13:57:50Z</time></trkpt><trkpt lat="41.338002237938746" lon="13.881508560122887"><ele>83.0</ele><time>2026-04-11T13:57:51Z</time></trkpt><trkpt lat="41.33791350467634" lon="13.881466229046918"><ele>83.0</ele><time>2026-04-11T13:57:52Z</time></trkpt><trkpt lat="41.3378176178705" lon="13.881388692639032"><ele>83.0</ele><time>2026-04-11T13:57:53Z</time></trkpt><trkpt lat="41.33771066915169" lon="13.881287392829446"><ele>83.0</ele><time>2026-04-11T13:57:54Z</time></trkpt><trkpt lat="41.33762589060359" lon="13.881186279124222"><ele>83.0</ele><time>2026-04-11T13:57:55Z</time></trkpt><trkpt lat="41.33756107352024" lon="13.881074145825574"><ele>83.0</ele><time>2026-04-11T13:57:56Z</time></trkpt><trkpt lat="41.33755155042642" lon="13.880989535248098"><ele>83.0</ele><time>2026-04-11T13:57:57Z</time></trkpt><trkpt lat="41.33751955569999" lon="13.880819887366876"><ele>83.0</ele><time>2026-04-11T13:57:58Z</time></trkpt><trkpt lat="41.3374662274092" lon="13.880648588565172"><ele>83.0</ele><time>2026-04-11T13:57:59Z</time></trkpt><trkpt lat="41.33741930246261" lon="13.880481317822753"><ele>80.5</ele><time>2026-04-11T13:58:00Z</time></trkpt><trkpt lat="41.337367571753674" lon="13.88033274197662"><ele>78.0</ele><time>2026-04-11T13:58:01Z</time></trkpt><trkpt lat="41.337328180570665" lon="13.880189173220861"><ele>75.5</ele><time>2026-04-11T13:58:02Z</time></trkpt><trkpt lat="41.33725662541515" lon="13.8800693326495"><ele>73.0</ele><time>2026-04-11T13:58:03Z</time></trkpt><trkpt lat="41.33716233947349" lon="13.87997985012066"><ele>72.0</ele><time>2026-04-11T13:58:04Z</time></trkpt><trkpt lat="41.33702597009476" lon="13.879936091020335"><ele>71.0</ele><time>2026-04-11T13:58:05Z</time></trkpt><trkpt lat="41.33689995861721" lon="13.879892244882523"><ele>70.0</ele><time>2026-04-11T13:58:06Z</time></trkpt><trkpt lat="41.336804117404434" lon="13.879853010766292"><ele>69.0</ele><time>2026-04-11T13:58:07Z</time></trkpt><trkpt lat="41.33673195413814" lon="13.87979042480397"><ele>69.0</ele><time>2026-04-11T13:58:08Z</time></trkpt><trkpt lat="41.33665481388697" lon="13.879722070759737"><ele>69.0</ele><time>2026-04-11T13:58:09Z</time></trkpt><trkpt lat="41.336632308715195" lon="13.879607060956541"><ele>69.0</ele><time>2026-04-11T13:58:10Z</time></trkpt><trkpt lat="41.33662366198653" lon="13.87948186212779"><ele>69.0</ele><time>2026-04-11T13:58:11Z</time></trkpt><trkpt lat="41.33663251426397" lon="13.879299144975434"><ele>69.0</ele><time>2026-04-11T13:58:12Z</time></trkpt><trkpt lat="41.336631558783644" lon="13.879086903630945"><ele>67.0</ele><time>2026-04-11T13:58:13Z</time></trkpt><trkpt lat="41.33666124285527" lon="13.878866466071527"><ele>65.0</ele><time>2026-04-11T13:58:14Z</time></trkpt><trkpt lat="41.33667083184609" lon="13.878625831498526"><ele>63.0</ele><time>2026-04-11T13:58:15Z</time></trkpt><trkpt lat="41.33668441838675" lon="13.878421468341132"><ele>61.0</ele><time>2026-04-11T13:58:16Z</time></trkpt><trkpt lat="41.336702490779835" lon="13.878245249894945"><ele>59.0</ele><time>2026-04-11T13:58:17Z</time></trkpt><trkpt lat="41.33672990045964" lon="13.878071151161668"><ele>57.0</ele><time>2026-04-11T13:58:18Z</time></trkpt><trkpt lat="41.336782996303484" lon="13.87790428633467"><ele>55.0</ele><time>2026-04-11T13:58:19Z</time></trkpt><trkpt lat="41.3368461909545" lon="13.877740122205019"><ele>54.99999999999999</ele><time>2026-04-11T13:58:20Z</time></trkpt><trkpt lat="41.336905422297264" lon="13.877602906104137"><ele>55.0</ele><time>2026-04-11T13:58:21Z</time></trkpt><trkpt lat="41.33694853700228" lon="13.877501633382067"><ele>55.0</ele><time>2026-04-11T13:58:22Z</time></trkpt><trkpt lat="41.33700199287181" lon="13.877441877623069"><ele>55.0</ele><time>2026-04-11T13:58:23Z</time></trkpt><trkpt lat="41.337063603963344" lon="13.877424588438341"><ele>54.99999999999999</ele><time>2026-04-11T13:58:24Z</time></trkpt><trkpt lat="41.337126791316166" lon="13.877445439221773"><ele>55.0</ele><time>2026-04-11T13:58:25Z</time></trkpt><trkpt lat="41.33718994754413" lon="13.877531640617043"><ele>55.0</ele><time>2026-04-11T13:58:26Z</time></trkpt><trkpt lat="41.33724301740421" lon="13.877669657563446"><ele>55.0</ele><time>2026-04-11T13:58:27Z</time></trkpt><trkpt lat="41.337284401626356" lon="13.877839569299534"><ele>55.0</ele><time>2026-04-11T13:58:28Z</time></trkpt><trkpt lat="41.337333357319466" lon="13.87798675212531"><ele>55.0</ele><time>2026-04-11T13:58:29Z</time></trkpt><trkpt lat="41.33741189100399" lon="13.878144824784615"><ele>55.0</ele><time>2026-04-11T13:58:30Z</time></trkpt><trkpt lat="41.33751213839768" lon="13.8782731673494"><ele>55.0</ele><time>2026-04-11T13:58:31Z</time></trkpt><trkpt lat="41.337619700643856" lon="13.878381597600297"><ele>55.0</ele><time>2026-04-11T13:58:32Z</time></trkpt><trkpt lat="41.337716285396205" lon="13.878483813218562"><ele>55.0</ele><time>2026-04-11T13:58:33Z</time></trkpt><trkpt lat="41.33779157180006" lon="13.87860312901706"><ele>55.5</ele><time>2026-04-11T13:58:34Z</time></trkpt><trkpt lat="41.33783263270805" lon="13.878723119061647"><ele>56.0</ele><time>2026-04-11T13:58:35.001Z</time></trkpt><trkpt lat="41.337824721687205" lon="13.87887311481473"><ele>56.5</ele><time>2026-04-11T13:58:36.001Z</time></trkpt><trkpt lat="41.33784819353943" lon="13.879044427979299"><ele>57.0</ele><time>2026-04-11T13:58:37.001Z</time></trkpt><trkpt lat="41.337862427143655" lon="13.879204988381407"><ele>58.2</ele><time>2026-04-11T13:58:38.001Z</time></trkpt><trkpt lat="41.33789898837682" lon="13.879336668204113"><ele>59.400000000000006</ele><time>2026-04-11T13:58:39.001Z</time></trkpt><trkpt lat="41.337961217399275" lon="13.879442314090415"><ele>60.599999999999994</ele><time>2026-04-11T13:58:40.001Z</time></trkpt><trkpt lat="41.33805939266719" lon="13.879526410761542"><ele>61.8</ele><time>2026-04-11T13:58:41.001Z</time></trkpt><trkpt lat="41.338171977224924" lon="13.879585143130795"><ele>63.0</ele><time>2026-04-11T13:58:42.001Z</time></trkpt><trkpt lat="41.33826803506205" lon="13.879683689269344"><ele>57.75</ele><time>2026-04-11T13:58:43.001Z</time></trkpt><trkpt lat="41.33835348874567" lon="13.879792882496087"><ele>52.5</ele><time>2026-04-11T13:58:44.001Z</time></trkpt><trkpt lat="41.33844999805845" lon="13.879868393331472"><ele>47.25</ele><time>2026-04-11T13:58:45.001Z</time></trkpt><trkpt lat="41.33859905379047" lon="13.87991301983459"><ele>42.0</ele><time>2026-04-11T13:58:46.001Z</time></trkpt><trkpt lat="41.33875934501509" lon="13.87993732464565"><ele>42.25</ele><time>2026-04-11T13:58:47.001Z</time></trkpt><trkpt lat="41.338900696388336" lon="13.879959343435122"><ele>42.5</ele><time>2026-04-11T13:58:48.001Z</time></trkpt><trkpt lat="41.33901839288574" lon="13.880005677285402"><ele>42.75</ele><time>2026-04-11T13:58:49.001Z</time></trkpt><trkpt lat="41.33912101868031" lon="13.88007254154092"><ele>43.0</ele><time>2026-04-11T13:58:50.001Z</time></trkpt><trkpt lat="41.339206752617194" lon="13.880182558379714"><ele>43.0</ele><time>2026-04-11T13:58:51.001Z</time></trkpt><trkpt lat="41.33927454812601" lon="13.88028738647555"><ele>43.0</ele><time>2026-04-11T13:58:52.001Z</time></trkpt><trkpt lat="41.339348721790294" lon="13.880359093729986"><ele>43.0</ele><time>2026-04-11T13:58:53.001Z</time></trkpt><trkpt lat="41.33941780395959" lon="13.880382856856357"><ele>43.0</ele><time>2026-04-11T13:58:54.001Z</time></trkpt><trkpt lat="41.33950202797593" lon="13.880364860851843"><ele>43.0</ele><time>2026-04-11T13:58:55.001Z</time></trkpt><trkpt lat="41.33958300442551" lon="13.880297122549164"><ele>43.0</ele><time>2026-04-11T13:58:56.001Z</time></trkpt><trkpt lat="41.3396580359904" lon="13.880225446978441"><ele>40.4</ele><time>2026-04-11T13:58:57.001Z</time></trkpt><trkpt lat="41.339733161733186" lon="13.880161883332883"><ele>37.8</ele><time>2026-04-11T13:58:58.001Z</time></trkpt><trkpt lat="41.33979748511324" lon="13.880132850094709"><ele>35.2</ele><time>2026-04-11T13:58:59.001Z</time></trkpt><trkpt lat="41.33987894908349" lon="13.880072116065687"><ele>32.6</ele><time>2026-04-11T13:59:01.001Z</time></trkpt><trkpt lat="41.34001070083659" lon="13.880190311750502"><ele>30.0</ele><time>2026-04-11T13:59:04.001Z</time></trkpt><trkpt lat="41.34008920106839" lon="13.880283549419696"><ele>30.0</ele><time>2026-04-11T13:59:05.001Z</time></trkpt><trkpt lat="41.340183520485596" lon="13.88038608911971"><ele>30.0</ele><time>2026-04-11T13:59:06.001Z</time></trkpt><trkpt lat="41.34029914721118" lon="13.880503651099831"><ele>30.0</ele><time>2026-04-11T13:59:07.001Z</time></trkpt><trkpt lat="41.340414365626906" lon="13.880638299007613"><ele>30.0</ele><time>2026-04-11T13:59:08.001Z</time></trkpt><trkpt lat="41.34052827118677" lon="13.880821763538455"><ele>28.0</ele><time>2026-04-11T13:59:09.001Z</time></trkpt><trkpt lat="41.34063961277183" lon="13.881033484258984"><ele>26.0</ele><time>2026-04-11T13:59:10.001Z</time></trkpt><trkpt lat="41.34074460634066" lon="13.881243990138014"><ele>24.0</ele><time>2026-04-11T13:59:11.001Z</time></trkpt><trkpt lat="41.34085073359422" lon="13.881461115110058"><ele>24.0</ele><time>2026-04-11T13:59:12.001Z</time></trkpt><trkpt lat="41.340958225206215" lon="13.881670079856288"><ele>24.0</ele><time>2026-04-11T13:59:13.001Z</time></trkpt><trkpt lat="41.34107840258415" lon="13.881860665308798"><ele>24.0</ele><time>2026-04-11T13:59:14.001Z</time></trkpt><trkpt lat="41.3411918798834" lon="13.882023256937657"><ele>24.75</ele><time>2026-04-11T13:59:15.001Z</time></trkpt><trkpt lat="41.34127891472558" lon="13.88217071972913"><ele>25.5</ele><time>2026-04-11T13:59:16.001Z</time></trkpt><trkpt lat="41.34138186534537" lon="13.882304028938776"><ele>26.25</ele><time>2026-04-11T13:59:17.001Z</time></trkpt><trkpt lat="41.341498287362946" lon="13.88240949450758"><ele>27.0</ele><time>2026-04-11T13:59:18.001Z</time></trkpt><trkpt lat="41.341630837075144" lon="13.882486923888765"><ele>27.0</ele><time>2026-04-11T13:59:19.001Z</time></trkpt><trkpt lat="41.34179817308357" lon="13.882537786460166"><ele>27.0</ele><time>2026-04-11T13:59:20.001Z</time></trkpt><trkpt lat="41.341967509507384" lon="13.882557734992181"><ele>27.0</ele><time>2026-04-11T13:59:21.001Z</time></trkpt><trkpt lat="41.342166188860254" lon="13.882558056052924"><ele>32.333333333333336</ele><time>2026-04-11T13:59:22.001Z</time></trkpt><trkpt lat="41.34237743817373" lon="13.8825984168975"><ele>37.66666666666667</ele><time>2026-04-11T13:59:23.001Z</time></trkpt><trkpt lat="41.342591102398956" lon="13.882602066595837"><ele>43.0</ele><time>2026-04-11T13:59:24.001Z</time></trkpt><trkpt lat="41.34282030459994" lon="13.882649144883137"><ele>43.0</ele><time>2026-04-11T13:59:25.001Z</time></trkpt><trkpt lat="41.343044277801425" lon="13.88267928815324"><ele>43.0</ele><time>2026-04-11T13:59:26.001Z</time></trkpt><trkpt lat="41.343245303763915" lon="13.88270291643468"><ele>43.0</ele><time>2026-04-11T13:59:27.001Z</time></trkpt><trkpt lat="41.34343392468506" lon="13.882724002766231"><ele>42.333333333333336</ele><time>2026-04-11T13:59:28.001Z</time></trkpt><trkpt lat="41.34362111611484" lon="13.882747072357041"><ele>41.666666666666664</ele><time>2026-04-11T13:59:29.001Z</time></trkpt><trkpt lat="41.34379737273389" lon="13.882748187312611"><ele>41.0</ele><time>2026-04-11T13:59:30.001Z</time></trkpt><trkpt lat="41.34395623444498" lon="13.882787542875842"><ele>37.75</ele><time>2026-04-11T13:59:31.001Z</time></trkpt><trkpt lat="41.34409560404896" lon="13.882803808779434"><ele>34.5</ele><time>2026-04-11T13:59:32.001Z</time></trkpt><trkpt lat="41.34421086452916" lon="13.88280445736937"><ele>31.25</ele><time>2026-04-11T13:59:33.001Z</time></trkpt><trkpt lat="41.344306306810495" lon="13.882817908220279"><ele>28.0</ele><time>2026-04-11T13:59:34.002Z</time></trkpt><trkpt lat="41.34440480581384" lon="13.882777476384463"><ele>28.0</ele><time>2026-04-11T13:59:35.002Z</time></trkpt><trkpt lat="41.34451850610162" lon="13.882679471191306"><ele>28.0</ele><time>2026-04-11T13:59:36.002Z</time></trkpt><trkpt lat="41.34461016475536" lon="13.882543311351853"><ele>28.0</ele><time>2026-04-11T13:59:37.002Z</time></trkpt><trkpt lat="41.344679791322186" lon="13.88235149670886"><ele>28.0</ele><time>2026-04-11T13:59:38.002Z</time></trkpt><trkpt lat="41.344754267775336" lon="13.882155905779417"><ele>29.0</ele><time>2026-04-11T13:59:39.002Z</time></trkpt><trkpt lat="41.34483259116888" lon="13.881971597984123"><ele>30.0</ele><time>2026-04-11T13:59:40.002Z</time></trkpt><trkpt lat="41.34488804724413" lon="13.88177424809013"><ele>31.0</ele><time>2026-04-11T13:59:41.002Z</time></trkpt><trkpt lat="41.34492484142775" lon="13.88159198652733"><ele>31.0</ele><time>2026-04-11T13:59:42.002Z</time></trkpt><trkpt lat="41.344958984257836" lon="13.88142780065543"><ele>31.0</ele><time>2026-04-11T13:59:43.002Z</time></trkpt><trkpt lat="41.3449899900746" lon="13.88125498836809"><ele>31.0</ele><time>2026-04-11T13:59:44.002Z</time></trkpt><trkpt lat="41.345055677857694" lon="13.8811142160828"><ele>31.0</ele><time>2026-04-11T13:59:45.002Z</time></trkpt><trkpt lat="41.34514419772215" lon="13.88099727845453"><ele>29.75</ele><time>2026-04-11T13:59:46.002Z</time></trkpt><trkpt lat="41.34524697706573" lon="13.880890459256996"><ele>28.5</ele><time>2026-04-11T13:59:47.002Z</time></trkpt><trkpt lat="41.34535879942697" lon="13.880819106894783"><ele>27.25</ele><time>2026-04-11T13:59:48.002Z</time></trkpt><trkpt lat="41.34550367025236" lon="13.8807560994048"><ele>26.0</ele><time>2026-04-11T13:59:49.002Z</time></trkpt><trkpt lat="41.345619275932265" lon="13.880693589585261"><ele>26.0</ele><time>2026-04-11T13:59:50.002Z</time></trkpt><trkpt lat="41.34570938575115" lon="13.88065650781684"><ele>26.0</ele><time>2026-04-11T13:59:51.002Z</time></trkpt><trkpt lat="41.34579489855278" lon="13.880646641824196"><ele>26.0</ele><time>2026-04-11T13:59:52.002Z</time></trkpt><trkpt lat="41.345864600281395" lon="13.880695719191058"><ele>26.0</ele><time>2026-04-11T13:59:53.002Z</time></trkpt><trkpt lat="41.34592088113649" lon="13.880801206130357"><ele>26.0</ele><time>2026-04-11T13:59:54.002Z</time></trkpt><trkpt lat="41.345981373585005" lon="13.88095018470412"><ele>31.333333333333332</ele><time>2026-04-11T13:59:55.002Z</time></trkpt><trkpt lat="41.346052484779754" lon="13.881118327186352"><ele>36.666666666666664</ele><time>2026-04-11T13:59:56Z</time></trkpt><trkpt lat="41.346168527230596" lon="13.881304448741707"><ele>42.0</ele><time>2026-04-11T13:59:57Z</time></trkpt><trkpt lat="41.346279380195874" lon="13.881495966118148"><ele>41.666666666666664</ele><time>2026-04-11T13:59:58Z</time></trkpt><trkpt lat="41.346438354100165" lon="13.881694454701261"><ele>41.33333333333333</ele><time>2026-04-11T13:59:59Z</time></trkpt><trkpt lat="41.346563195775715" lon="13.88186683805156"><ele>41.0</ele><time>2026-04-11T14:00:00Z</time></trkpt><trkpt lat="41.34668095006206" lon="13.882024675167342"><ele>41.0</ele><time>2026-04-11T14:00:01Z</time></trkpt><trkpt lat="41.34677531489582" lon="13.882147561357826"><ele>41.0</ele><time>2026-04-11T14:00:02Z</time></trkpt><trkpt lat="41.34684523603852" lon="13.882244015475022"><ele>41.0</ele><time>2026-04-11T14:00:03Z</time></trkpt><trkpt lat="41.34691225618608" lon="13.882338917372403"><ele>41.0</ele><time>2026-04-11T14:00:04Z</time></trkpt><trkpt lat="41.34696431927487" lon="13.88245616043893"><ele>41.0</ele><time>2026-04-11T14:00:05Z</time></trkpt><trkpt lat="41.34700975488254" lon="13.88260668012772"><ele>44.25</ele><time>2026-04-11T14:00:06Z</time></trkpt><trkpt lat="41.347028409248" lon="13.882781662091345"><ele>47.5</ele><time>2026-04-11T14:00:07Z</time></trkpt><trkpt lat="41.34704219233633" lon="13.882959398490545"><ele>50.75</ele><time>2026-04-11T14:00:08Z</time></trkpt><trkpt lat="41.34707043174391" lon="13.883111383543053"><ele>54.0</ele><time>2026-04-11T14:00:09Z</time></trkpt><trkpt lat="41.347127053514384" lon="13.883250267548501"><ele>54.0</ele><time>2026-04-11T14:00:10Z</time></trkpt><trkpt lat="41.34720545567685" lon="13.883355547664179"><ele>54.00000000000001</ele><time>2026-04-11T14:00:11Z</time></trkpt><trkpt lat="41.34728754496153" lon="13.883429294835242"><ele>54.00000000000001</ele><time>2026-04-11T14:00:12Z</time></trkpt><trkpt lat="41.34736670785768" lon="13.88346008685329"><ele>54.0</ele><time>2026-04-11T14:00:13Z</time></trkpt><trkpt lat="41.34745827582907" lon="13.883449860250112"><ele>54.0</ele><time>2026-04-11T14:00:14Z</time></trkpt><trkpt lat="41.347564433960436" lon="13.883392099857762"><ele>45.0</ele><time>2026-04-11T14:00:15Z</time></trkpt><trkpt lat="41.34767077313688" lon="13.883279035661308"><ele>36.0</ele><time>2026-04-11T14:00:16Z</time></trkpt><trkpt lat="41.347823303479885" lon="13.88317569095425"><ele>27.0</ele><time>2026-04-11T14:00:17Z</time></trkpt><trkpt lat="41.34799908925748" lon="13.883051806254597"><ele>25.333333333333332</ele><time>2026-04-11T14:00:18Z</time></trkpt><trkpt lat="41.34816056393364" lon="13.88293800727835"><ele>23.666666666666664</ele><time>2026-04-11T14:00:19Z</time></trkpt><trkpt lat="41.34829611493948" lon="13.88281717708592"><ele>22.0</ele><time>2026-04-11T14:00:20Z</time></trkpt><trkpt lat="41.34843723683" lon="13.882719644873806"><ele>22.0</ele><time>2026-04-11T14:00:21Z</time></trkpt><trkpt lat="41.348566249376006" lon="13.882638273866377"><ele>22.0</ele><time>2026-04-11T14:00:22Z</time></trkpt><trkpt lat="41.34867665415508" lon="13.882567100666504"><ele>22.0</ele><time>2026-04-11T14:00:23Z</time></trkpt><trkpt lat="41.34875367898356" lon="13.882494612407788"><ele>22.0</ele><time>2026-04-11T14:00:24Z</time></trkpt><trkpt lat="41.348787656447" lon="13.882411843174417"><ele>22.0</ele><time>2026-04-11T14:00:25Z</time></trkpt><trkpt lat="41.34879698850673" lon="13.882297769518035"><ele>22.75</ele><time>2026-04-11T14:00:26Z</time></trkpt><trkpt lat="41.348773919823245" lon="13.88215833307093"><ele>23.5</ele><time>2026-04-11T14:00:27Z</time></trkpt><trkpt lat="41.34872636695328" lon="13.881986536369544"><ele>24.25</ele><time>2026-04-11T14:00:28Z</time></trkpt><trkpt lat="41.34867493404688" lon="13.88181356804039"><ele>25.0</ele><time>2026-04-11T14:00:29Z</time></trkpt><trkpt lat="41.34864474555771" lon="13.881636741097104"><ele>25.333333333333336</ele><time>2026-04-11T14:00:30Z</time></trkpt><trkpt lat="41.3486302646744" lon="13.8814251496744"><ele>25.666666666666664</ele><time>2026-04-11T14:00:31Z</time></trkpt><trkpt lat="41.34862373665943" lon="13.88121337624754"><ele>26.0</ele><time>2026-04-11T14:00:32Z</time></trkpt><trkpt lat="41.34861190293602" lon="13.881013503785569"><ele>26.0</ele><time>2026-04-11T14:00:33Z</time></trkpt><trkpt lat="41.34861096802515" lon="13.880834051645538"><ele>26.0</ele><time>2026-04-11T14:00:34Z</time></trkpt><trkpt lat="41.34861869218681" lon="13.880682624952183"><ele>26.0</ele><time>2026-04-11T14:00:35Z</time></trkpt><trkpt lat="41.34866051574621" lon="13.880541017134624"><ele>26.0</ele><time>2026-04-11T14:00:36.001Z</time></trkpt><trkpt lat="41.348736391047865" lon="13.880422228163683"><ele>26.0</ele><time>2026-04-11T14:00:37.001Z</time></trkpt><trkpt lat="41.34883180306118" lon="13.880396513381992"><ele>26.0</ele><time>2026-04-11T14:00:38.001Z</time></trkpt><trkpt lat="41.348949204696595" lon="13.880365686321218"><ele>26.0</ele><time>2026-04-11T14:00:39.001Z</time></trkpt><trkpt lat="41.34908319797246" lon="13.88037299055241"><ele>26.0</ele><time>2026-04-11T14:00:40.001Z</time></trkpt><trkpt lat="41.34924150776804" lon="13.88042023737246"><ele>30.0</ele><time>2026-04-11T14:00:41.001Z</time></trkpt><trkpt lat="41.34940405028866" lon="13.880479923321628"><ele>34.0</ele><time>2026-04-11T14:00:42.001Z</time></trkpt><trkpt lat="41.34957749176588" lon="13.880551588072253"><ele>38.0</ele><time>2026-04-11T14:00:43.001Z</time></trkpt><trkpt lat="41.349762254859655" lon="13.880629742408145"><ele>38.666666666666664</ele><time>2026-04-11T14:00:44.001Z</time></trkpt><trkpt lat="41.34993027252764" lon="13.880703974386394"><ele>39.333333333333336</ele><time>2026-04-11T14:00:45.001Z</time></trkpt><trkpt lat="41.35007702121172" lon="13.880782114401459"><ele>40.0</ele><time>2026-04-11T14:00:46.001Z</time></trkpt><trkpt lat="41.35021202808017" lon="13.880875837152317"><ele>40.25</ele><time>2026-04-11T14:00:47.001Z</time></trkpt><trkpt lat="41.35034191617161" lon="13.880950747317835"><ele>40.5</ele><time>2026-04-11T14:00:48.001Z</time></trkpt><trkpt lat="41.3504670253983" lon="13.880981170883155"><ele>40.75</ele><time>2026-04-11T14:00:49.001Z</time></trkpt><trkpt lat="41.350582529528836" lon="13.880979581739117"><ele>41.0</ele><time>2026-04-11T14:00:50.001Z</time></trkpt><trkpt lat="41.35068909617322" lon="13.880944708339074"><ele>41.0</ele><time>2026-04-11T14:00:51.001Z</time></trkpt><trkpt lat="41.350796178633125" lon="13.880910786514802"><ele>41.0</ele><time>2026-04-11T14:00:52.001Z</time></trkpt><trkpt lat="41.35089553903079" lon="13.880903780437889"><ele>41.0</ele><time>2026-04-11T14:00:53.001Z</time></trkpt><trkpt lat="41.350974402907035" lon="13.88094783298266"><ele>41.0</ele><time>2026-04-11T14:00:54.001Z</time></trkpt><trkpt lat="41.35105393337244" lon="13.881014688737567"><ele>41.0</ele><time>2026-04-11T14:00:55.001Z</time></trkpt><trkpt lat="41.35112700312803" lon="13.881147466885944"><ele>41.0</ele><time>2026-04-11T14:00:56.001Z</time></trkpt><trkpt lat="41.35120835875816" lon="13.881302654443823"><ele>41.0</ele><time>2026-04-11T14:00:57.001Z</time></trkpt><trkpt lat="41.35132377744201" lon="13.88146008573089"><ele>41.0</ele><time>2026-04-11T14:00:58.001Z</time></trkpt><trkpt lat="41.35143035534119" lon="13.881599358597585"><ele>40.25</ele><time>2026-04-11T14:00:59.001Z</time></trkpt><trkpt lat="41.35153237590809" lon="13.881718758149661"><ele>39.5</ele><time>2026-04-11T14:01:00.001Z</time></trkpt><trkpt lat="41.351620926396585" lon="13.881814311728133"><ele>38.75</ele><time>2026-04-11T14:01:01.001Z</time></trkpt><trkpt lat="41.351708890541275" lon="13.881892413453347"><ele>38.0</ele><time>2026-04-11T14:01:02.001Z</time></trkpt><trkpt lat="41.35180414912562" lon="13.881933405302066"><ele>38.0</ele><time>2026-04-11T14:01:03.001Z</time></trkpt><trkpt lat="41.35189430277872" lon="13.881922978745795"><ele>38.0</ele><time>2026-04-11T14:01:04.001Z</time></trkpt><trkpt lat="41.352009490863864" lon="13.881857956849318"><ele>38.0</ele><time>2026-04-11T14:01:05.001Z</time></trkpt><trkpt lat="41.352140955511075" lon="13.881754902198598"><ele>38.0</ele><time>2026-04-11T14:01:06.001Z</time></trkpt><trkpt lat="41.352292408874476" lon="13.881638788823308"><ele>32.666666666666664</ele><time>2026-04-11T14:01:07.001Z</time></trkpt><trkpt lat="41.352448626656745" lon="13.881526638221475"><ele>27.333333333333332</ele><time>2026-04-11T14:01:08.001Z</time></trkpt><trkpt lat="41.35261375740262" lon="13.881409948753857"><ele>22.0</ele><time>2026-04-11T14:01:09.001Z</time></trkpt><trkpt lat="41.35278475827269" lon="13.881286775535498"><ele>22.0</ele><time>2026-04-11T14:01:10.001Z</time></trkpt><trkpt lat="41.35295893772918" lon="13.881155529456747"><ele>22.0</ele><time>2026-04-11T14:01:11.001Z</time></trkpt><trkpt lat="41.35312007564986" lon="13.881044268803716"><ele>22.0</ele><time>2026-04-11T14:01:12.001Z</time></trkpt><trkpt lat="41.353267404509076" lon="13.880942384249138"><ele>21.0</ele><time>2026-04-11T14:01:13.001Z</time></trkpt><trkpt lat="41.35340687517693" lon="13.880844516369827"><ele>20.0</ele><time>2026-04-11T14:01:14.001Z</time></trkpt><trkpt lat="41.35354013475815" lon="13.880751730086477"><ele>19.0</ele><time>2026-04-11T14:01:15.001Z</time></trkpt><trkpt lat="41.353670163093454" lon="13.880662885914335"><ele>19.0</ele><time>2026-04-11T14:01:16.001Z</time></trkpt><trkpt lat="41.353818649531384" lon="13.88057005032676"><ele>19.0</ele><time>2026-04-11T14:01:17.001Z</time></trkpt><trkpt lat="41.3539805518868" lon="13.880453122595807"><ele>19.0</ele><time>2026-04-11T14:01:18.001Z</time></trkpt><trkpt lat="41.354151721183506" lon="13.880323314930399"><ele>19.333333333333332</ele><time>2026-04-11T14:01:19.001Z</time></trkpt><trkpt lat="41.35433002373172" lon="13.88018014921859"><ele>19.666666666666668</ele><time>2026-04-11T14:01:20.001Z</time></trkpt><trkpt lat="41.35451904566076" lon="13.880034315312365"><ele>20.0</ele><time>2026-04-11T14:01:21.001Z</time></trkpt><trkpt lat="41.35471489770147" lon="13.879884013753141"><ele>22.0</ele><time>2026-04-11T14:01:22.001Z</time></trkpt><trkpt lat="41.35492095276633" lon="13.879737080231964"><ele>24.0</ele><time>2026-04-11T14:01:23.001Z</time></trkpt><trkpt lat="41.35510513021181" lon="13.879595330314407"><ele>26.0</ele><time>2026-04-11T14:01:24.001Z</time></trkpt><trkpt lat="41.355275654664744" lon="13.879466531781011"><ele>26.0</ele><time>2026-04-11T14:01:25.001Z</time></trkpt><trkpt lat="41.35543973689744" lon="13.879366548108473"><ele>26.0</ele><time>2026-04-11T14:01:26.001Z</time></trkpt><trkpt lat="41.35557898256412" lon="13.879239018207468"><ele>26.0</ele><time>2026-04-11T14:01:27.001Z</time></trkpt><trkpt lat="41.355734244958285" lon="13.879140544605484"><ele>25.0</ele><time>2026-04-11T14:01:28.001Z</time></trkpt><trkpt lat="41.355908625952324" lon="13.87906851624465"><ele>24.0</ele><time>2026-04-11T14:01:29.001Z</time></trkpt><trkpt lat="41.35610593775857" lon="13.87902030437069"><ele>23.0</ele><time>2026-04-11T14:01:30.001Z</time></trkpt><trkpt lat="41.35632569807583" lon="13.878965930555879"><ele>24.5</ele><time>2026-04-11T14:01:31.001Z</time></trkpt><trkpt lat="41.35655190327669" lon="13.878904694516"><ele>26.0</ele><time>2026-04-11T14:01:32.001Z</time></trkpt><trkpt lat="41.356790419317406" lon="13.878835412492496"><ele>26.0</ele><time>2026-04-11T14:01:33.001Z</time></trkpt><trkpt lat="41.35702266577571" lon="13.87879270016311"><ele>26.0</ele><time>2026-04-11T14:01:34.001Z</time></trkpt><trkpt lat="41.35724094658457" lon="13.878735344520644"><ele>24.333333333333332</ele><time>2026-04-11T14:01:35.001Z</time></trkpt><trkpt lat="41.35744903001904" lon="13.878680094844954"><ele>22.666666666666664</ele><time>2026-04-11T14:01:36.002Z</time></trkpt><trkpt lat="41.35764656556301" lon="13.87862747504022"><ele>21.0</ele><time>2026-04-11T14:01:37.002Z</time></trkpt><trkpt lat="41.357843318741025" lon="13.878575063576207"><ele>21.333333333333332</ele><time>2026-04-11T14:01:38.002Z</time></trkpt><trkpt lat="41.358044315775636" lon="13.878521521718511"><ele>21.666666666666664</ele><time>2026-04-11T14:01:39.002Z</time></trkpt><trkpt lat="41.35824978700582" lon="13.878466535636433"><ele>22.0</ele><time>2026-04-11T14:01:40.002Z</time></trkpt><trkpt lat="41.35845582378922" lon="13.878411122112174"><ele>21.0</ele><time>2026-04-11T14:01:41.002Z</time></trkpt><trkpt lat="41.35864827614602" lon="13.878359362259491"><ele>20.0</ele><time>2026-04-11T14:01:42.002Z</time></trkpt><trkpt lat="41.35882559474547" lon="13.878311672552103"><ele>19.0</ele><time>2026-04-11T14:01:43.002Z</time></trkpt><trkpt lat="41.35900833363292" lon="13.878262525056387"><ele>21.333333333333332</ele><time>2026-04-11T14:01:44.002Z</time></trkpt><trkpt lat="41.35919114489271" lon="13.87821997411445"><ele>23.666666666666664</ele><time>2026-04-11T14:01:45.002Z</time></trkpt><trkpt lat="41.359386253555385" lon="13.878197671686092"><ele>26.0</ele><time>2026-04-11T14:01:46.002Z</time></trkpt><trkpt lat="41.35959224668517" lon="13.87818916117182"><ele>26.0</ele><time>2026-04-11T14:01:47.002Z</time></trkpt><trkpt lat="41.35980318225854" lon="13.878185906274476"><ele>26.0</ele><time>2026-04-11T14:01:48.002Z</time></trkpt><trkpt lat="41.36001501881078" lon="13.87818385261855"><ele>26.0</ele><time>2026-04-11T14:01:49.002Z</time></trkpt><trkpt lat="41.360231231455025" lon="13.878181756539473"><ele>26.0</ele><time>2026-04-11T14:01:50.002Z</time></trkpt><trkpt lat="41.36044530263725" lon="13.878179219671736"><ele>26.0</ele><time>2026-04-11T14:01:51.002Z</time></trkpt><trkpt lat="41.36065460314411" lon="13.8781764267011"><ele>26.0</ele><time>2026-04-11T14:01:52.002Z</time></trkpt><trkpt lat="41.36085490123898" lon="13.878173753863049"><ele>25.333333333333332</ele><time>2026-04-11T14:01:53.002Z</time></trkpt><trkpt lat="41.36105422261241" lon="13.878170775168433"><ele>24.666666666666664</ele><time>2026-04-11T14:01:54.002Z</time></trkpt><trkpt lat="41.361254099200266" lon="13.878167611310467"><ele>24.0</ele><time>2026-04-11T14:01:55.002Z</time></trkpt><trkpt lat="41.36144895492385" lon="13.87814533497968"><ele>23.666666666666668</ele><time>2026-04-11T14:01:56.002Z</time></trkpt><trkpt lat="41.361626895062116" lon="13.878151957548516"><ele>23.333333333333336</ele><time>2026-04-11T14:01:57.002Z</time></trkpt><trkpt lat="41.3617978290828" lon="13.878158525470035"><ele>23.0</ele><time>2026-04-11T14:01:58.002Z</time></trkpt><trkpt lat="41.36197689137235" lon="13.87817062143162"><ele>23.0</ele><time>2026-04-11T14:01:59.002Z</time></trkpt><trkpt lat="41.36215814260721" lon="13.878205657498256"><ele>23.0</ele><time>2026-04-11T14:02:00.002Z</time></trkpt><trkpt lat="41.36234384295196" lon="13.878248916623985"><ele>23.0</ele><time>2026-04-11T14:02:01.002Z</time></trkpt><trkpt lat="41.36252289016574" lon="13.87830528940537"><ele>23.333333333333336</ele><time>2026-04-11T14:02:02Z</time></trkpt><trkpt lat="41.3627085188689" lon="13.878362577615249"><ele>23.666666666666668</ele><time>2026-04-11T14:02:03Z</time></trkpt><trkpt lat="41.362885555759824" lon="13.878416559150578"><ele>24.0</ele><time>2026-04-11T14:02:04Z</time></trkpt><trkpt lat="41.363061180184346" lon="13.878475523083912"><ele>26.0</ele><time>2026-04-11T14:02:05Z</time></trkpt><trkpt lat="41.36323753305468" lon="13.878561684846225"><ele>28.0</ele><time>2026-04-11T14:02:06Z</time></trkpt><trkpt lat="41.36341333100645" lon="13.878655765884737"><ele>30.0</ele><time>2026-04-11T14:02:07Z</time></trkpt><trkpt lat="41.36358288290196" lon="13.878766061324944"><ele>30.0</ele><time>2026-04-11T14:02:08Z</time></trkpt><trkpt lat="41.36377030239123" lon="13.87887961715488"><ele>30.0</ele><time>2026-04-11T14:02:09Z</time></trkpt><trkpt lat="41.36394070270225" lon="13.879005969127018"><ele>30.0</ele><time>2026-04-11T14:02:10Z</time></trkpt><trkpt lat="41.36411246187579" lon="13.879132269175951"><ele>29.0</ele><time>2026-04-11T14:02:11Z</time></trkpt><trkpt lat="41.364282359067715" lon="13.879277456875613"><ele>28.0</ele><time>2026-04-11T14:02:12Z</time></trkpt><trkpt lat="41.36445078167372" lon="13.879424521136562"><ele>27.0</ele><time>2026-04-11T14:02:13Z</time></trkpt><trkpt lat="41.36461385691684" lon="13.879564514273191"><ele>25.666666666666668</ele><time>2026-04-11T14:02:14Z</time></trkpt><trkpt lat="41.364778524016764" lon="13.879709613751487"><ele>24.333333333333336</ele><time>2026-04-11T14:02:15Z</time></trkpt><trkpt lat="41.36494175043051" lon="13.879853667325065"><ele>23.0</ele><time>2026-04-11T14:02:16Z</time></trkpt><trkpt lat="41.365103086364726" lon="13.880003421660563"><ele>23.666666666666668</ele><time>2026-04-11T14:02:17Z</time></trkpt><trkpt lat="41.36526269954782" lon="13.880145570087722"><ele>24.333333333333336</ele><time>2026-04-11T14:02:18Z</time></trkpt><trkpt lat="41.36542343629387" lon="13.880279823851984"><ele>25.0</ele><time>2026-04-11T14:02:19Z</time></trkpt><trkpt lat="41.36558513222776" lon="13.880412820368681"><ele>25.0</ele><time>2026-04-11T14:02:20Z</time></trkpt><trkpt lat="41.36575109467254" lon="13.880545252488266"><ele>25.0</ele><time>2026-04-11T14:02:21Z</time></trkpt><trkpt lat="41.36593337654286" lon="13.880665730411991"><ele>25.0</ele><time>2026-04-11T14:02:22Z</time></trkpt><trkpt lat="41.36612383810984" lon="13.880764169601662"><ele>25.0</ele><time>2026-04-11T14:02:23Z</time></trkpt><trkpt lat="41.3663148432251" lon="13.880856703318603"><ele>25.0</ele><time>2026-04-11T14:02:24Z</time></trkpt><trkpt lat="41.366510647450866" lon="13.880935227167356"><ele>25.0</ele><time>2026-04-11T14:02:25Z</time></trkpt><trkpt lat="41.36670853783183" lon="13.88100234544988"><ele>24.666666666666668</ele><time>2026-04-11T14:02:26Z</time></trkpt><trkpt lat="41.36690968783482" lon="13.881061958924228"><ele>24.333333333333336</ele><time>2026-04-11T14:02:27Z</time></trkpt><trkpt lat="41.36711861305687" lon="13.881133273495363"><ele>24.0</ele><time>2026-04-11T14:02:28Z</time></trkpt><trkpt lat="41.367330304049844" lon="13.8812058812705"><ele>24.0</ele><time>2026-04-11T14:02:29Z</time></trkpt><trkpt lat="41.36754848814701" lon="13.881278933488684"><ele>24.0</ele><time>2026-04-11T14:02:30Z</time></trkpt><trkpt lat="41.36776153612545" lon="13.881351384321015"><ele>24.0</ele><time>2026-04-11T14:02:31Z</time></trkpt><trkpt lat="41.367975000352764" lon="13.881431772034789"><ele>24.333333333333336</ele><time>2026-04-11T14:02:32Z</time></trkpt><trkpt lat="41.36818553844112" lon="13.881496939535909"><ele>24.666666666666668</ele><time>2026-04-11T14:02:33Z</time></trkpt><trkpt lat="41.36840789939158" lon="13.881567865220532"><ele>25.0</ele><time>2026-04-11T14:02:34Z</time></trkpt><trkpt lat="41.368623319375146" lon="13.881644963434052"><ele>25.0</ele><time>2026-04-11T14:02:35Z</time></trkpt><trkpt lat="41.36883620819996" lon="13.881712316266796"><ele>25.0</ele><time>2026-04-11T14:02:36Z</time></trkpt><trkpt lat="41.36905153574" lon="13.8817842646645"><ele>25.0</ele><time>2026-04-11T14:02:37Z</time></trkpt><trkpt lat="41.36925312590793" lon="13.881859431774561"><ele>26.0</ele><time>2026-04-11T14:02:38Z</time></trkpt><trkpt lat="41.36944889520107" lon="13.88192485377561"><ele>27.0</ele><time>2026-04-11T14:02:39Z</time></trkpt><trkpt lat="41.369651111623185" lon="13.881968899321581"><ele>28.0</ele><time>2026-04-11T14:02:40Z</time></trkpt><trkpt lat="41.369851186293126" lon="13.882034036989596"><ele>28.0</ele><time>2026-04-11T14:02:41Z</time></trkpt><trkpt lat="41.37005053763961" lon="13.882101994915532"><ele>28.0</ele><time>2026-04-11T14:02:42Z</time></trkpt><trkpt lat="41.37024795548127" lon="13.882166203497016"><ele>28.0</ele><time>2026-04-11T14:02:43Z</time></trkpt><trkpt lat="41.370444298540946" lon="13.882226925528846"><ele>28.0</ele><time>2026-04-11T14:02:44.001Z</time></trkpt><trkpt lat="41.37063787532463" lon="13.882285359683499"><ele>28.0</ele><time>2026-04-11T14:02:45.001Z</time></trkpt><trkpt lat="41.370836387004964" lon="13.88234496192307"><ele>28.0</ele><time>2026-04-11T14:02:46.001Z</time></trkpt><trkpt lat="41.371031561626225" lon="13.882409182741219"><ele>28.0</ele><time>2026-04-11T14:02:47.001Z</time></trkpt><trkpt lat="41.37122745795534" lon="13.882474092684467"><ele>28.0</ele><time>2026-04-11T14:02:48.001Z</time></trkpt><trkpt lat="41.37142097371704" lon="13.882543766379309"><ele>28.0</ele><time>2026-04-11T14:02:49.001Z</time></trkpt><trkpt lat="41.37161720334207" lon="13.882623272609424"><ele>29.666666666666668</ele><time>2026-04-11T14:02:50.001Z</time></trkpt><trkpt lat="41.37180616285853" lon="13.882681075725657"><ele>31.333333333333336</ele><time>2026-04-11T14:02:51.001Z</time></trkpt><trkpt lat="41.37199823242836" lon="13.882739166416126"><ele>33.0</ele><time>2026-04-11T14:02:52.001Z</time></trkpt><trkpt lat="41.37219083297701" lon="13.882796543649995"><ele>33.0</ele><time>2026-04-11T14:02:53.001Z</time></trkpt><trkpt lat="41.372383994568786" lon="13.882854410906297"><ele>33.0</ele><time>2026-04-11T14:02:54.001Z</time></trkpt><trkpt lat="41.37258559530098" lon="13.882905684546202"><ele>33.0</ele><time>2026-04-11T14:02:55.001Z</time></trkpt><trkpt lat="41.372792596494875" lon="13.88293123425483"><ele>33.0</ele><time>2026-04-11T14:02:56.001Z</time></trkpt><trkpt lat="41.37299438682952" lon="13.882944929562983"><ele>33.0</ele><time>2026-04-11T14:02:57.001Z</time></trkpt><trkpt lat="41.373197046608624" lon="13.882939929245778"><ele>33.0</ele><time>2026-04-11T14:02:58.001Z</time></trkpt><trkpt lat="41.37340503131845" lon="13.88290331688137"><ele>32.0</ele><time>2026-04-11T14:02:59.001Z</time></trkpt><trkpt lat="41.37361120695606" lon="13.882845739663825"><ele>31.0</ele><time>2026-04-11T14:03:00.001Z</time></trkpt><trkpt lat="41.373812411515104" lon="13.882803012277117"><ele>30.0</ele><time>2026-04-11T14:03:01.001Z</time></trkpt><trkpt lat="41.37399583969665" lon="13.882696198724425"><ele>28.333333333333336</ele><time>2026-04-11T14:03:02.001Z</time></trkpt><trkpt lat="41.374150005876146" lon="13.882581124556143"><ele>26.666666666666668</ele><time>2026-04-11T14:03:03.001Z</time></trkpt><trkpt lat="41.37429457655085" lon="13.882452485815088"><ele>25.0</ele><time>2026-04-11T14:03:04.001Z</time></trkpt><trkpt lat="41.37444318021785" lon="13.88234643624377"><ele>25.0</ele><time>2026-04-11T14:03:05.001Z</time></trkpt><trkpt lat="41.374586078415014" lon="13.882222584014785"><ele>25.0</ele><time>2026-04-11T14:03:06.001Z</time></trkpt><trkpt lat="41.3747180914074" lon="13.882097780652128"><ele>25.0</ele><time>2026-04-11T14:03:07.001Z</time></trkpt><trkpt lat="41.374873973366874" lon="13.882030608162388"><ele>26.333333333333336</ele><time>2026-04-11T14:03:08.001Z</time></trkpt><trkpt lat="41.375044589441295" lon="13.881991062933453"><ele>27.666666666666664</ele><time>2026-04-11T14:03:09.001Z</time></trkpt><trkpt lat="41.37521904075851" lon="13.881968497868893"><ele>29.0</ele><time>2026-04-11T14:03:10.001Z</time></trkpt><trkpt lat="41.37539345481978" lon="13.88196658146021"><ele>29.0</ele><time>2026-04-11T14:03:11.001Z</time></trkpt><trkpt lat="41.37558897836996" lon="13.881976984267919"><ele>29.0</ele><time>2026-04-11T14:03:12.001Z</time></trkpt><trkpt lat="41.375777348317456" lon="13.882012698328138"><ele>29.0</ele><time>2026-04-11T14:03:13.001Z</time></trkpt><trkpt lat="41.375969091665645" lon="13.88207857246268"><ele>29.0</ele><time>2026-04-11T14:03:14.001Z</time></trkpt><trkpt lat="41.376155477278594" lon="13.882155094844169"><ele>29.0</ele><time>2026-04-11T14:03:15.001Z</time></trkpt><trkpt lat="41.37634534675263" lon="13.88223747688022"><ele>29.0</ele><time>2026-04-11T14:03:16.001Z</time></trkpt><trkpt lat="41.37652357752596" lon="13.882336060262045"><ele>29.0</ele><time>2026-04-11T14:03:17.001Z</time></trkpt><trkpt lat="41.376703556446024" lon="13.88245542348312"><ele>29.0</ele><time>2026-04-11T14:03:18.001Z</time></trkpt><trkpt lat="41.3768786608559" lon="13.88259542086944"><ele>29.0</ele><time>2026-04-11T14:03:19.001Z</time></trkpt><trkpt lat="41.377054780464135" lon="13.882743200164635"><ele>27.666666666666664</ele><time>2026-04-11T14:03:20.001Z</time></trkpt><trkpt lat="41.377223807849354" lon="13.882897627565386"><ele>26.333333333333336</ele><time>2026-04-11T14:03:21.001Z</time></trkpt><trkpt lat="41.377396866600925" lon="13.88304477442236"><ele>25.0</ele><time>2026-04-11T14:03:22.001Z</time></trkpt><trkpt lat="41.377566757276306" lon="13.88318539631163"><ele>25.0</ele><time>2026-04-11T14:03:23.001Z</time></trkpt><trkpt lat="41.3777302105166" lon="13.883318035457975"><ele>25.0</ele><time>2026-04-11T14:03:24.001Z</time></trkpt><trkpt lat="41.37787368024551" lon="13.883452174254042"><ele>25.0</ele><time>2026-04-11T14:03:25.001Z</time></trkpt><trkpt lat="41.378026436135876" lon="13.883586787569513"><ele>24.666666666666668</ele><time>2026-04-11T14:03:26.001Z</time></trkpt><trkpt lat="41.37818009685217" lon="13.883731603268817"><ele>24.333333333333336</ele><time>2026-04-11T14:03:27.001Z</time></trkpt><trkpt lat="41.378325224982106" lon="13.883893083627955"><ele>24.0</ele><time>2026-04-11T14:03:28.001Z</time></trkpt><trkpt lat="41.3784733022103" lon="13.884079334217358"><ele>25.0</ele><time>2026-04-11T14:03:29.001Z</time></trkpt><trkpt lat="41.37862670745534" lon="13.884269339274558"><ele>26.0</ele><time>2026-04-11T14:03:30.001Z</time></trkpt><trkpt lat="41.378771463938556" lon="13.884466791262279"><ele>27.0</ele><time>2026-04-11T14:03:31.001Z</time></trkpt><trkpt lat="41.37891761316421" lon="13.884664637489395"><ele>25.333333333333332</ele><time>2026-04-11T14:03:32.001Z</time></trkpt><trkpt lat="41.37906879240775" lon="13.884867070791243"><ele>23.666666666666664</ele><time>2026-04-11T14:03:33.001Z</time></trkpt><trkpt lat="41.37922561650938" lon="13.885071853751406"><ele>22.0</ele><time>2026-04-11T14:03:34.001Z</time></trkpt><trkpt lat="41.37937795901741" lon="13.885274087838472"><ele>22.0</ele><time>2026-04-11T14:03:35.001Z</time></trkpt><trkpt lat="41.379536595647444" lon="13.885474324349785"><ele>22.0</ele><time>2026-04-11T14:03:36.001Z</time></trkpt><trkpt lat="41.37968997509767" lon="13.8856761741177"><ele>22.0</ele><time>2026-04-11T14:03:37.001Z</time></trkpt><trkpt lat="41.379842461303056" lon="13.885881123465772"><ele>22.666666666666664</ele><time>2026-04-11T14:03:38.001Z</time></trkpt><trkpt lat="41.37998776889582" lon="13.886084089115508"><ele>23.333333333333332</ele><time>2026-04-11T14:03:39.001Z</time></trkpt><trkpt lat="41.38014738362639" lon="13.88627686985365"><ele>24.0</ele><time>2026-04-11T14:03:40.001Z</time></trkpt><trkpt lat="41.38029497993466" lon="13.886473230764416"><ele>24.0</ele><time>2026-04-11T14:03:41.001Z</time></trkpt><trkpt lat="41.380448501995915" lon="13.886669345731603"><ele>24.0</ele><time>2026-04-11T14:03:42.001Z</time></trkpt><trkpt lat="41.38060250192321" lon="13.886866327814278"><ele>24.0</ele><time>2026-04-11T14:03:43.002Z</time></trkpt><trkpt lat="41.38074605127707" lon="13.887068557765714"><ele>25.333333333333336</ele><time>2026-04-11T14:03:44.002Z</time></trkpt><trkpt lat="41.38088782630063" lon="13.887261620748047"><ele>26.666666666666668</ele><time>2026-04-11T14:03:45.002Z</time></trkpt><trkpt lat="41.38102976620389" lon="13.887447957336008"><ele>28.0</ele><time>2026-04-11T14:03:46.002Z</time></trkpt><trkpt lat="41.38117674729191" lon="13.887624080018547"><ele>28.0</ele><time>2026-04-11T14:03:47.002Z</time></trkpt><trkpt lat="41.381314032407914" lon="13.887803076286605"><ele>28.0</ele><time>2026-04-11T14:03:48.002Z</time></trkpt><trkpt lat="41.381457505560086" lon="13.88797540460029"><ele>28.0</ele><time>2026-04-11T14:03:49.002Z</time></trkpt><trkpt lat="41.38161813093635" lon="13.888137248010237"><ele>31.666666666666668</ele><time>2026-04-11T14:03:50.002Z</time></trkpt><trkpt lat="41.381785243273235" lon="13.88828394176506"><ele>35.333333333333336</ele><time>2026-04-11T14:03:51.002Z</time></trkpt><trkpt lat="41.381943728139326" lon="13.888440288677536"><ele>39.0</ele><time>2026-04-11T14:03:52.002Z</time></trkpt><trkpt lat="41.38210944549075" lon="13.888596926505214"><ele>42.66666666666667</ele><time>2026-04-11T14:03:53.002Z</time></trkpt><trkpt lat="41.382266103362106" lon="13.888752038739916"><ele>46.333333333333336</ele><time>2026-04-11T14:03:54.002Z</time></trkpt><trkpt lat="41.38241177139967" lon="13.888901851210543"><ele>50.0</ele><time>2026-04-11T14:03:55.002Z</time></trkpt><trkpt lat="41.38256179860728" lon="13.889041143179401"><ele>50.0</ele><time>2026-04-11T14:03:56.002Z</time></trkpt><trkpt lat="41.38272039611181" lon="13.889155662593714"><ele>50.0</ele><time>2026-04-11T14:03:57.002Z</time></trkpt><trkpt lat="41.38288282802687" lon="13.889246767584616"><ele>50.0</ele><time>2026-04-11T14:03:58.002Z</time></trkpt><trkpt lat="41.383060222206446" lon="13.889305020089934"><ele>52.66666666666667</ele><time>2026-04-11T14:03:59.002Z</time></trkpt><trkpt lat="41.383249463552424" lon="13.889333666913277"><ele>55.33333333333333</ele><time>2026-04-11T14:04:00.002Z</time></trkpt><trkpt lat="41.38342229122846" lon="13.889334821736925"><ele>58.0</ele><time>2026-04-11T14:04:01.002Z</time></trkpt><trkpt lat="41.38356493185812" lon="13.88934935711626"><ele>58.0</ele><time>2026-04-11T14:04:02.002Z</time></trkpt><trkpt lat="41.38371330952169" lon="13.889391596630293"><ele>58.0</ele><time>2026-04-11T14:04:03.002Z</time></trkpt><trkpt lat="41.383872810494026" lon="13.889470722166031"><ele>58.0</ele><time>2026-04-11T14:04:04.002Z</time></trkpt><trkpt lat="41.38402596849238" lon="13.889590965821768"><ele>58.33333333333333</ele><time>2026-04-11T14:04:05.002Z</time></trkpt><trkpt lat="41.38416163738623" lon="13.889731899946076"><ele>58.66666666666667</ele><time>2026-04-11T14:04:06.002Z</time></trkpt><trkpt lat="41.38428986225233" lon="13.889911468638273"><ele>59.0</ele><time>2026-04-11T14:04:07.002Z</time></trkpt><trkpt lat="41.38440631537017" lon="13.890099030789163"><ele>61.0</ele><time>2026-04-11T14:04:08Z</time></trkpt><trkpt lat="41.38449700462955" lon="13.89032292859659"><ele>63.0</ele><time>2026-04-11T14:04:09Z</time></trkpt><trkpt lat="41.3845626981839" lon="13.890555884485623"><ele>65.0</ele><time>2026-04-11T14:04:10Z</time></trkpt><trkpt lat="41.38459791689171" lon="13.890762196836706"><ele>64.5</ele><time>2026-04-11T14:04:11Z</time></trkpt><trkpt lat="41.38463728143668" lon="13.890951094935206"><ele>64.0</ele><time>2026-04-11T14:04:12Z</time></trkpt><trkpt lat="41.38470362181394" lon="13.891121368453236"><ele>63.5</ele><time>2026-04-11T14:04:13Z</time></trkpt><trkpt lat="41.38479353714716" lon="13.891290411903556"><ele>63.0</ele><time>2026-04-11T14:04:14Z</time></trkpt><trkpt lat="41.38491530074475" lon="13.891453867184811"><ele>64.66666666666667</ele><time>2026-04-11T14:04:15Z</time></trkpt><trkpt lat="41.385050953667076" lon="13.891592343468592"><ele>66.33333333333334</ele><time>2026-04-11T14:04:16Z</time></trkpt><trkpt lat="41.38520930911608" lon="13.891712899638664"><ele>68.0</ele><time>2026-04-11T14:04:17Z</time></trkpt><trkpt lat="41.38537259777631" lon="13.891821288881083"><ele>69.0</ele><time>2026-04-11T14:04:18Z</time></trkpt><trkpt lat="41.385548213397854" lon="13.891927765831138"><ele>70.0</ele><time>2026-04-11T14:04:19Z</time></trkpt><trkpt lat="41.38573728955868" lon="13.892030813485734"><ele>71.0</ele><time>2026-04-11T14:04:20Z</time></trkpt><trkpt lat="41.38591660515615" lon="13.892148345435597"><ele>71.0</ele><time>2026-04-11T14:04:21Z</time></trkpt><trkpt lat="41.386094507667295" lon="13.892259128588965"><ele>71.0</ele><time>2026-04-11T14:04:22Z</time></trkpt><trkpt lat="41.386279473208816" lon="13.89237742491005"><ele>71.0</ele><time>2026-04-11T14:04:23Z</time></trkpt><trkpt lat="41.38646600662312" lon="13.892487612839318"><ele>72.66666666666667</ele><time>2026-04-11T14:04:24Z</time></trkpt><trkpt lat="41.38664226534049" lon="13.892592822473933"><ele>74.33333333333333</ele><time>2026-04-11T14:04:25Z</time></trkpt><trkpt lat="41.38681154668186" lon="13.892690682430505"><ele>76.0</ele><time>2026-04-11T14:04:26Z</time></trkpt><trkpt lat="41.38697102211644" lon="13.892786928939314"><ele>76.0</ele><time>2026-04-11T14:04:27Z</time></trkpt><trkpt lat="41.38711641316457" lon="13.892885221020382"><ele>76.0</ele><time>2026-04-11T14:04:28Z</time></trkpt><trkpt lat="41.387255566095305" lon="13.892986998321884"><ele>76.0</ele><time>2026-04-11T14:04:29Z</time></trkpt><trkpt lat="41.38738557006685" lon="13.893099060999951"><ele>78.0</ele><time>2026-04-11T14:04:30Z</time></trkpt><trkpt lat="41.38751154085337" lon="13.893222638077837"><ele>80.0</ele><time>2026-04-11T14:04:31Z</time></trkpt><trkpt lat="41.387625557360046" lon="13.893364223512313"><ele>82.0</ele><time>2026-04-11T14:04:32Z</time></trkpt><trkpt lat="41.38772727037998" lon="13.89352379902476"><ele>83.25</ele><time>2026-04-11T14:04:33Z</time></trkpt><trkpt lat="41.387818764049314" lon="13.893688873832149"><ele>84.5</ele><time>2026-04-11T14:04:34Z</time></trkpt><trkpt lat="41.387896415524594" lon="13.893849078056544"><ele>85.75</ele><time>2026-04-11T14:04:35Z</time></trkpt><trkpt lat="41.38797230821275" lon="13.893978902892984"><ele>87.0</ele><time>2026-04-11T14:04:36Z</time></trkpt><trkpt lat="41.38806210839459" lon="13.89407578314252"><ele>88.0</ele><time>2026-04-11T14:04:37Z</time></trkpt><trkpt lat="41.38817263322635" lon="13.894137590404512"><ele>89.0</ele><time>2026-04-11T14:04:38Z</time></trkpt><trkpt lat="41.38829290684296" lon="13.894178472767454"><ele>90.0</ele><time>2026-04-11T14:04:39Z</time></trkpt><trkpt lat="41.388412496503044" lon="13.894226679127351"><ele>91.0</ele><time>2026-04-11T14:04:40Z</time></trkpt><trkpt lat="41.38852030392022" lon="13.894260492372226"><ele>91.5</ele><time>2026-04-11T14:04:41Z</time></trkpt><trkpt lat="41.38863009857225" lon="13.894296830882261"><ele>92.0</ele><time>2026-04-11T14:04:42Z</time></trkpt><trkpt lat="41.38874363402781" lon="13.894389669726872"><ele>92.5</ele><time>2026-04-11T14:04:43Z</time></trkpt><trkpt lat="41.38885003583426" lon="13.894490839878529"><ele>93.0</ele><time>2026-04-11T14:04:44.001Z</time></trkpt><trkpt lat="41.38893845815641" lon="13.894631379902783"><ele>93.0</ele><time>2026-04-11T14:04:45.001Z</time></trkpt><trkpt lat="41.388983788156345" lon="13.894777539814733"><ele>93.0</ele><time>2026-04-11T14:04:46.001Z</time></trkpt><trkpt lat="41.38900031244051" lon="13.894921819486308"><ele>93.0</ele><time>2026-04-11T14:04:47.001Z</time></trkpt><trkpt lat="41.389045761593785" lon="13.895047396240718"><ele>93.0</ele><time>2026-04-11T14:04:48.001Z</time></trkpt><trkpt lat="41.38912142150907" lon="13.895149093062797"><ele>93.0</ele><time>2026-04-11T14:04:49.001Z</time></trkpt><trkpt lat="41.389223188806426" lon="13.89522018757087"><ele>93.0</ele><time>2026-04-11T14:04:50.001Z</time></trkpt><trkpt lat="41.38935360930975" lon="13.895262961607651"><ele>93.0</ele><time>2026-04-11T14:04:51.001Z</time></trkpt><trkpt lat="41.38950167269198" lon="13.895262751416892"><ele>93.0</ele><time>2026-04-11T14:04:52.001Z</time></trkpt><trkpt lat="41.38962357686701" lon="13.895235686455349"><ele>93.0</ele><time>2026-04-11T14:04:53.001Z</time></trkpt><trkpt lat="41.389736073326695" lon="13.89516951654637"><ele>91.4</ele><time>2026-04-11T14:04:54.001Z</time></trkpt><trkpt lat="41.38982454484815" lon="13.8950586827331"><ele>89.80000000000001</ele><time>2026-04-11T14:04:55.001Z</time></trkpt><trkpt lat="41.389882026215766" lon="13.89493152605268"><ele>88.2</ele><time>2026-04-11T14:04:56.001Z</time></trkpt><trkpt lat="41.38992273816736" lon="13.894811191915403"><ele>86.6</ele><time>2026-04-11T14:04:57.001Z</time></trkpt><trkpt lat="41.389981967300784" lon="13.894693237012817"><ele>85.0</ele><time>2026-04-11T14:04:58.001Z</time></trkpt><trkpt lat="41.3900545647026" lon="13.894585029098952"><ele>85.0</ele><time>2026-04-11T14:04:59.001Z</time></trkpt><trkpt lat="41.390142986242346" lon="13.894483749468494"><ele>85.0</ele><time>2026-04-11T14:05:00.001Z</time></trkpt><trkpt lat="41.39025980522497" lon="13.894415053329114"><ele>85.0</ele><time>2026-04-11T14:05:01.001Z</time></trkpt><trkpt lat="41.39038619730139" lon="13.894352213976587"><ele>85.0</ele><time>2026-04-11T14:05:02.001Z</time></trkpt><trkpt lat="41.390532773084615" lon="13.894304858341929"><ele>84.66666666666666</ele><time>2026-04-11T14:05:03.001Z</time></trkpt><trkpt lat="41.39070090498168" lon="13.894293357456206"><ele>84.33333333333333</ele><time>2026-04-11T14:05:04.001Z</time></trkpt><trkpt lat="41.390852747816716" lon="13.894267328010692"><ele>84.0</ele><time>2026-04-11T14:05:05.001Z</time></trkpt><trkpt lat="41.39100107330293" lon="13.894282383813811"><ele>84.0</ele><time>2026-04-11T14:05:06.001Z</time></trkpt><trkpt lat="41.39114914602346" lon="13.894269383916107"><ele>84.0</ele><time>2026-04-11T14:05:07.001Z</time></trkpt><trkpt lat="41.39127117425505" lon="13.894262375149927"><ele>84.0</ele><time>2026-04-11T14:05:08.001Z</time></trkpt><trkpt lat="41.39136934727304" lon="13.89426179813617"><ele>84.0</ele><time>2026-04-11T14:05:09.001Z</time></trkpt><trkpt lat="41.3914542673603" lon="13.894296674513123"><ele>81.5</ele><time>2026-04-11T14:05:10.001Z</time></trkpt><trkpt lat="41.39153772451315" lon="13.894372232586903"><ele>79.0</ele><time>2026-04-11T14:05:11.001Z</time></trkpt><trkpt lat="41.39162204484898" lon="13.894487062200808"><ele>76.5</ele><time>2026-04-11T14:05:12.001Z</time></trkpt><trkpt lat="41.39172067636955" lon="13.894624512789282"><ele>74.0</ele><time>2026-04-11T14:05:13.001Z</time></trkpt><trkpt lat="41.391800503778725" lon="13.894759983117934"><ele>74.0</ele><time>2026-04-11T14:05:14.001Z</time></trkpt><trkpt lat="41.39187110027216" lon="13.89487693133729"><ele>74.0</ele><time>2026-04-11T14:05:15.001Z</time></trkpt><trkpt lat="41.391942948504166" lon="13.894969455304977"><ele>74.0</ele><time>2026-04-11T14:05:16.001Z</time></trkpt><trkpt lat="41.39201847771044" lon="13.895031305094282"><ele>74.0</ele><time>2026-04-11T14:05:17.001Z</time></trkpt><trkpt lat="41.39210087097926" lon="13.895057187988398"><ele>74.0</ele><time>2026-04-11T14:05:18.001Z</time></trkpt><trkpt lat="41.39219270176232" lon="13.895036678399114"><ele>71.5</ele><time>2026-04-11T14:05:19.001Z</time></trkpt><trkpt lat="41.39229114389114" lon="13.894980165032418"><ele>69.0</ele><time>2026-04-11T14:05:20.001Z</time></trkpt><trkpt lat="41.39238654762229" lon="13.894902281714094"><ele>66.5</ele><time>2026-04-11T14:05:21.001Z</time></trkpt><trkpt lat="41.39250526508727" lon="13.894805523676427"><ele>64.0</ele><time>2026-04-11T14:05:22.001Z</time></trkpt><trkpt lat="41.392624028148475" lon="13.894715300747265"><ele>64.0</ele><time>2026-04-11T14:05:23.001Z</time></trkpt><trkpt lat="41.392735674838484" lon="13.894637326938145"><ele>64.0</ele><time>2026-04-11T14:05:24.001Z</time></trkpt><trkpt lat="41.39284514927146" lon="13.894606532404037"><ele>64.0</ele><time>2026-04-11T14:05:25.001Z</time></trkpt><trkpt lat="41.392960283874814" lon="13.894640214095553"><ele>64.0</ele><time>2026-04-11T14:05:26.001Z</time></trkpt><trkpt lat="41.393074984613285" lon="13.894710874531492"><ele>65.25</ele><time>2026-04-11T14:05:27.001Z</time></trkpt><trkpt lat="41.393186488941915" lon="13.89479956280001"><ele>66.5</ele><time>2026-04-11T14:05:28.001Z</time></trkpt><trkpt lat="41.39327822054355" lon="13.89491822078551"><ele>67.75</ele><time>2026-04-11T14:05:29.001Z</time></trkpt><trkpt lat="41.39335545734164" lon="13.895057718718762"><ele>69.0</ele><time>2026-04-11T14:05:30.001Z</time></trkpt><trkpt lat="41.39339523471912" lon="13.8952356929199"><ele>70.66666666666667</ele><time>2026-04-11T14:05:31.001Z</time></trkpt><trkpt lat="41.39342402873711" lon="13.895434293020339"><ele>72.33333333333334</ele><time>2026-04-11T14:05:32.001Z</time></trkpt><trkpt lat="41.393452246126955" lon="13.895638334908684"><ele>74.0</ele><time>2026-04-11T14:05:33.001Z</time></trkpt><trkpt lat="41.39347855365622" lon="13.895828565869648"><ele>75.75</ele><time>2026-04-11T14:05:34.001Z</time></trkpt><trkpt lat="41.39351840722481" lon="13.895998932941545"><ele>77.5</ele><time>2026-04-11T14:05:35.001Z</time></trkpt><trkpt lat="41.393530948344406" lon="13.89617361590357"><ele>79.25</ele><time>2026-04-11T14:05:36.001Z</time></trkpt><trkpt lat="41.39359613445143" lon="13.896333217841388"><ele>81.0</ele><time>2026-04-11T14:05:37.001Z</time></trkpt><trkpt lat="41.39365883882684" lon="13.89647510481227"><ele>81.0</ele><time>2026-04-11T14:05:38.001Z</time></trkpt><trkpt lat="41.39375160545634" lon="13.896587674124637"><ele>81.0</ele><time>2026-04-11T14:05:39.001Z</time></trkpt><trkpt lat="41.393855058986965" lon="13.896684435649547"><ele>81.0</ele><time>2026-04-11T14:05:40.001Z</time></trkpt><trkpt lat="41.39396763853665" lon="13.896745995545375"><ele>81.0</ele><time>2026-04-11T14:05:41.001Z</time></trkpt><trkpt lat="41.39408334789688" lon="13.896774644419631"><ele>81.19999999999999</ele><time>2026-04-11T14:05:42.001Z</time></trkpt><trkpt lat="41.394193740025415" lon="13.896782239800123"><ele>81.39999999999999</ele><time>2026-04-11T14:05:43.001Z</time></trkpt><trkpt lat="41.39429907553619" lon="13.896780745532231"><ele>81.6</ele><time>2026-04-11T14:05:44.001Z</time></trkpt><trkpt lat="41.39437839061599" lon="13.89677174589729"><ele>81.8</ele><time>2026-04-11T14:05:45.002Z</time></trkpt><trkpt lat="41.39445324661355" lon="13.896732359863389"><ele>82.0</ele><time>2026-04-11T14:05:46.002Z</time></trkpt><trkpt lat="41.39451183725269" lon="13.896659167003659"><ele>82.0</ele><time>2026-04-11T14:05:47.002Z</time></trkpt><trkpt lat="41.39455941563469" lon="13.896554944815193"><ele>82.0</ele><time>2026-04-11T14:05:48.002Z</time></trkpt><trkpt lat="41.394600503773006" lon="13.896423207228526"><ele>82.0</ele><time>2026-04-11T14:05:49.002Z</time></trkpt><trkpt lat="41.39467190616535" lon="13.896301464949385"><ele>82.0</ele><time>2026-04-11T14:05:50.002Z</time></trkpt><trkpt lat="41.394749389412745" lon="13.89612760596369"><ele>81.33333333333333</ele><time>2026-04-11T14:05:51.002Z</time></trkpt><trkpt lat="41.39482469728646" lon="13.895930150166027"><ele>80.66666666666667</ele><time>2026-04-11T14:05:52.002Z</time></trkpt><trkpt lat="41.39493100608152" lon="13.895752168460591"><ele>80.0</ele><time>2026-04-11T14:05:53.002Z</time></trkpt><trkpt lat="41.39503098169022" lon="13.895583271730134"><ele>78.66666666666667</ele><time>2026-04-11T14:05:54.002Z</time></trkpt><trkpt lat="41.395140927415184" lon="13.895428186484281"><ele>77.33333333333333</ele><time>2026-04-11T14:05:55.002Z</time></trkpt><trkpt lat="41.39526727831464" lon="13.895280053082319"><ele>76.0</ele><time>2026-04-11T14:05:56.002Z</time></trkpt><trkpt lat="41.395396881972985" lon="13.895133554354425"><ele>74.0</ele><time>2026-04-11T14:05:57.002Z</time></trkpt><trkpt lat="41.39551440733869" lon="13.894983053668115"><ele>72.0</ele><time>2026-04-11T14:05:58.002Z</time></trkpt><trkpt lat="41.39563398217161" lon="13.894851416861492"><ele>70.0</ele><time>2026-04-11T14:05:59.002Z</time></trkpt><trkpt lat="41.39574662114405" lon="13.894723538100836"><ele>70.0</ele><time>2026-04-11T14:06:00.002Z</time></trkpt><trkpt lat="41.3958566423993" lon="13.894605248926835"><ele>70.0</ele><time>2026-04-11T14:06:01.002Z</time></trkpt><trkpt lat="41.39596447235149" lon="13.89448224859348"><ele>70.0</ele><time>2026-04-11T14:06:02.002Z</time></trkpt><trkpt lat="41.396066739192015" lon="13.894372527875328"><ele>70.0</ele><time>2026-04-11T14:06:03.002Z</time></trkpt><trkpt lat="41.39616811653573" lon="13.89426848976049"><ele>69.75</ele><time>2026-04-11T14:06:04.002Z</time></trkpt><trkpt lat="41.39626094074134" lon="13.89415204103708"><ele>69.5</ele><time>2026-04-11T14:06:05.002Z</time></trkpt><trkpt lat="41.39636331848622" lon="13.894042664032566"><ele>69.25</ele><time>2026-04-11T14:06:06.002Z</time></trkpt><trkpt lat="41.39646968476533" lon="13.893930049190748"><ele>69.0</ele><time>2026-04-11T14:06:07.002Z</time></trkpt><trkpt lat="41.39657803234427" lon="13.893842642935114"><ele>68.0</ele><time>2026-04-11T14:06:08.002Z</time></trkpt><trkpt lat="41.39668182187207" lon="13.8937486535637"><ele>67.0</ele><time>2026-04-11T14:06:09.002Z</time></trkpt><trkpt lat="41.39680256580492" lon="13.893674688126715"><ele>66.0</ele><time>2026-04-11T14:06:10.002Z</time></trkpt><trkpt lat="41.39692669912281" lon="13.89360740360999"><ele>65.0</ele><time>2026-04-11T14:06:11.002Z</time></trkpt><trkpt lat="41.397047113652896" lon="13.893564715388909"><ele>63.25</ele><time>2026-04-11T14:06:12.002Z</time></trkpt><trkpt lat="41.39717769814103" lon="13.893567983835249"><ele>61.5</ele><time>2026-04-11T14:06:13.002Z</time></trkpt><trkpt lat="41.397309984231875" lon="13.893610432302589"><ele>59.75</ele><time>2026-04-11T14:06:14Z</time></trkpt><trkpt lat="41.39743580318926" lon="13.893685901888189"><ele>58.0</ele><time>2026-04-11T14:06:15Z</time></trkpt><trkpt lat="41.39755905188316" lon="13.89379344835466"><ele>58.0</ele><time>2026-04-11T14:06:16Z</time></trkpt><trkpt lat="41.39766032290398" lon="13.893922415153066"><ele>58.0</ele><time>2026-04-11T14:06:17Z</time></trkpt><trkpt lat="41.39775810490687" lon="13.894068841239047"><ele>58.0</ele><time>2026-04-11T14:06:18Z</time></trkpt><trkpt lat="41.397868257093535" lon="13.894205009232643"><ele>58.0</ele><time>2026-04-11T14:06:19Z</time></trkpt><trkpt lat="41.39798815451682" lon="13.894293707827574"><ele>56.0</ele><time>2026-04-11T14:06:20Z</time></trkpt><trkpt lat="41.39812010081716" lon="13.894361568380504"><ele>54.0</ele><time>2026-04-11T14:06:21Z</time></trkpt><trkpt lat="41.39825102245821" lon="13.894400508083894"><ele>52.0</ele><time>2026-04-11T14:06:22Z</time></trkpt><trkpt lat="41.39838640039736" lon="13.894403741587123"><ele>50.0</ele><time>2026-04-11T14:06:23Z</time></trkpt><trkpt lat="41.398513545617156" lon="13.894374423573936"><ele>50.0</ele><time>2026-04-11T14:06:24Z</time></trkpt><trkpt lat="41.39862483334731" lon="13.894316382979557"><ele>50.0</ele><time>2026-04-11T14:06:25Z</time></trkpt><trkpt lat="41.39873323795191" lon="13.894240519774375"><ele>50.0</ele><time>2026-04-11T14:06:26Z</time></trkpt><trkpt lat="41.398841565861034" lon="13.894163487582587"><ele>50.0</ele><time>2026-04-11T14:06:27Z</time></trkpt><trkpt lat="41.39895898556914" lon="13.894103798732942"><ele>47.25</ele><time>2026-04-11T14:06:28Z</time></trkpt><trkpt lat="41.39907725766704" lon="13.894045927030339"><ele>44.5</ele><time>2026-04-11T14:06:29Z</time></trkpt><trkpt lat="41.39919892504885" lon="13.893980992195429"><ele>41.75</ele><time>2026-04-11T14:06:30Z</time></trkpt><trkpt lat="41.399330729642024" lon="13.893901963222318"><ele>39.0</ele><time>2026-04-11T14:06:31Z</time></trkpt><trkpt lat="41.399468258916855" lon="13.89382696701925"><ele>39.0</ele><time>2026-04-11T14:06:32Z</time></trkpt><trkpt lat="41.399623252281685" lon="13.893744904431129"><ele>39.0</ele><time>2026-04-11T14:06:33Z</time></trkpt><trkpt lat="41.399780113986914" lon="13.893657905915639"><ele>39.0</ele><time>2026-04-11T14:06:34Z</time></trkpt><trkpt lat="41.39993508836618" lon="13.893582335691018"><ele>37.5</ele><time>2026-04-11T14:06:35Z</time></trkpt><trkpt lat="41.40007195759892" lon="13.89350904333687"><ele>36.0</ele><time>2026-04-11T14:06:36Z</time></trkpt><trkpt lat="41.40020689529021" lon="13.893444726233655"><ele>34.5</ele><time>2026-04-11T14:06:37Z</time></trkpt><trkpt lat="41.40035360221123" lon="13.893368334739106"><ele>33.0</ele><time>2026-04-11T14:06:38Z</time></trkpt><trkpt lat="41.40050896718234" lon="13.893267877404893"><ele>30.666666666666664</ele><time>2026-04-11T14:06:39Z</time></trkpt><trkpt lat="41.400672209233335" lon="13.893151391561586"><ele>28.333333333333332</ele><time>2026-04-11T14:06:40Z</time></trkpt><trkpt lat="41.40084833000528" lon="13.893045640083368"><ele>26.0</ele><time>2026-04-11T14:06:41Z</time></trkpt><trkpt lat="41.40102036673029" lon="13.892957794847455"><ele>26.0</ele><time>2026-04-11T14:06:42Z</time></trkpt><trkpt lat="41.40119290427827" lon="13.892862998568676"><ele>26.0</ele><time>2026-04-11T14:06:43Z</time></trkpt><trkpt lat="41.40135799391026" lon="13.892757768614864"><ele>26.0</ele><time>2026-04-11T14:06:44Z</time></trkpt><trkpt lat="41.4015324431477" lon="13.892655009897041"><ele>24.666666666666664</ele><time>2026-04-11T14:06:45Z</time></trkpt><trkpt lat="41.40171095113963" lon="13.892550271212972"><ele>23.333333333333332</ele><time>2026-04-11T14:06:46Z</time></trkpt><trkpt lat="41.40190671289556" lon="13.892445262704584"><ele>22.0</ele><time>2026-04-11T14:06:47Z</time></trkpt><trkpt lat="41.402108243971504" lon="13.892318324493443"><ele>22.0</ele><time>2026-04-11T14:06:48Z</time></trkpt><trkpt lat="41.402301167564254" lon="13.892202469608183"><ele>22.0</ele><time>2026-04-11T14:06:49Z</time></trkpt><trkpt lat="41.40249667760638" lon="13.892078498526706"><ele>22.0</ele><time>2026-04-11T14:06:50Z</time></trkpt><trkpt lat="41.40268570417759" lon="13.891953526974875"><ele>22.0</ele><time>2026-04-11T14:06:51Z</time></trkpt><trkpt lat="41.40287434517884" lon="13.89183911289303"><ele>22.0</ele><time>2026-04-11T14:06:52.001Z</time></trkpt><trkpt lat="41.403062764930056" lon="13.891724545396256"><ele>22.0</ele><time>2026-04-11T14:06:53.001Z</time></trkpt><trkpt lat="41.40324879447803" lon="13.8916049248658"><ele>21.333333333333332</ele><time>2026-04-11T14:06:54.001Z</time></trkpt><trkpt lat="41.403436092165585" lon="13.891491890535239"><ele>20.666666666666668</ele><time>2026-04-11T14:06:55.001Z</time></trkpt><trkpt lat="41.40361714744077" lon="13.891381566618456"><ele>20.0</ele><time>2026-04-11T14:06:56.001Z</time></trkpt><trkpt lat="41.40380051287963" lon="13.891268016315498"><ele>20.666666666666668</ele><time>2026-04-11T14:06:57.001Z</time></trkpt><trkpt lat="41.40398522272796" lon="13.891157126259639"><ele>21.333333333333332</ele><time>2026-04-11T14:06:58.001Z</time></trkpt><trkpt lat="41.40417163225736" lon="13.891043587255915"><ele>22.0</ele><time>2026-04-11T14:06:59.001Z</time></trkpt><trkpt lat="41.40435449258634" lon="13.890929134696066"><ele>22.0</ele><time>2026-04-11T14:07:00.001Z</time></trkpt><trkpt lat="41.40453813037446" lon="13.890820126616006"><ele>22.0</ele><time>2026-04-11T14:07:01.001Z</time></trkpt><trkpt lat="41.4047221549838" lon="13.890710363350562"><ele>22.0</ele><time>2026-04-11T14:07:02.001Z</time></trkpt><trkpt lat="41.40490572792365" lon="13.89060057312229"><ele>22.0</ele><time>2026-04-11T14:07:03.001Z</time></trkpt><trkpt lat="41.40509136426612" lon="13.890489796994729"><ele>22.0</ele><time>2026-04-11T14:07:04.001Z</time></trkpt><trkpt lat="41.40527541690821" lon="13.890380247541248"><ele>22.0</ele><time>2026-04-11T14:07:05.001Z</time></trkpt><trkpt lat="41.40546211507287" lon="13.890265642864927"><ele>21.666666666666664</ele><time>2026-04-11T14:07:06.001Z</time></trkpt><trkpt lat="41.40564373736734" lon="13.890155921285363"><ele>21.333333333333332</ele><time>2026-04-11T14:07:07.001Z</time></trkpt><trkpt lat="41.40582124256222" lon="13.890046500324809"><ele>21.0</ele><time>2026-04-11T14:07:08.001Z</time></trkpt><trkpt lat="41.40600216762881" lon="13.889946390677618"><ele>21.0</ele><time>2026-04-11T14:07:09.001Z</time></trkpt><trkpt lat="41.40618673704233" lon="13.889850849304663"><ele>21.0</ele><time>2026-04-11T14:07:10.001Z</time></trkpt><trkpt lat="41.40638121844376" lon="13.889768335833265"><ele>21.0</ele><time>2026-04-11T14:07:11.001Z</time></trkpt><trkpt lat="41.40657975819704" lon="13.889689238854348"><ele>21.666666666666668</ele><time>2026-04-11T14:07:12.001Z</time></trkpt><trkpt lat="41.40678138497183" lon="13.889640580999906"><ele>22.333333333333336</ele><time>2026-04-11T14:07:13.001Z</time></trkpt><trkpt lat="41.40698426285896" lon="13.88961202751664"><ele>23.0</ele><time>2026-04-11T14:07:14.001Z</time></trkpt><trkpt lat="41.407183286419205" lon="13.889585484751185"><ele>23.333333333333336</ele><time>2026-04-11T14:07:15.001Z</time></trkpt><trkpt lat="41.40737006162123" lon="13.889570720502867"><ele>23.666666666666668</ele><time>2026-04-11T14:07:16.001Z</time></trkpt><trkpt lat="41.407552149776826" lon="13.889554702993435"><ele>24.0</ele><time>2026-04-11T14:07:17.001Z</time></trkpt><trkpt lat="41.40771955240254" lon="13.889536149665881"><ele>24.0</ele><time>2026-04-11T14:07:18.001Z</time></trkpt><trkpt lat="41.40788444954298" lon="13.889500864881601"><ele>24.0</ele><time>2026-04-11T14:07:19.001Z</time></trkpt><trkpt lat="41.40804128595131" lon="13.889479680231105"><ele>24.0</ele><time>2026-04-11T14:07:20.001Z</time></trkpt><trkpt lat="41.408210591034134" lon="13.889475830971563"><ele>25.0</ele><time>2026-04-11T14:07:21.001Z</time></trkpt><trkpt lat="41.40837132356319" lon="13.88944535159976"><ele>26.0</ele><time>2026-04-11T14:07:22.001Z</time></trkpt><trkpt lat="41.40852625871028" lon="13.88944241903682"><ele>27.0</ele><time>2026-04-11T14:07:23.001Z</time></trkpt><trkpt lat="41.4086837319174" lon="13.889424309496654"><ele>28.0</ele><time>2026-04-11T14:07:24.001Z</time></trkpt><trkpt lat="41.40884249782443" lon="13.889406051290969"><ele>29.0</ele><time>2026-04-11T14:07:25.001Z</time></trkpt><trkpt lat="41.4090046594325" lon="13.889387402574963"><ele>30.0</ele><time>2026-04-11T14:07:26.001Z</time></trkpt><trkpt lat="41.40915628174178" lon="13.889349154151295"><ele>30.0</ele><time>2026-04-11T14:07:27.001Z</time></trkpt><trkpt lat="41.409300438094576" lon="13.88933584654856"><ele>30.0</ele><time>2026-04-11T14:07:28.001Z</time></trkpt><trkpt lat="41.40946155536522" lon="13.889317525713045"><ele>30.0</ele><time>2026-04-11T14:07:29.001Z</time></trkpt><trkpt lat="41.40962964931929" lon="13.889325486616803"><ele>30.333333333333336</ele><time>2026-04-11T14:07:30.001Z</time></trkpt><trkpt lat="41.40979297346413" lon="13.889306947972102"><ele>30.666666666666668</ele><time>2026-04-11T14:07:31.001Z</time></trkpt><trkpt lat="41.40996255035878" lon="13.889287272887913"><ele>31.0</ele><time>2026-04-11T14:07:32.001Z</time></trkpt><trkpt lat="41.41012989342662" lon="13.889266486054503"><ele>32.0</ele><time>2026-04-11T14:07:33.001Z</time></trkpt><trkpt lat="41.41030277521595" lon="13.889245671191967"><ele>33.0</ele><time>2026-04-11T14:07:34.001Z</time></trkpt><trkpt lat="41.410467533612604" lon="13.889222208219307"><ele>34.0</ele><time>2026-04-11T14:07:35.001Z</time></trkpt><trkpt lat="41.41063317908482" lon="13.889197871967784"><ele>36.0</ele><time>2026-04-11T14:07:36.001Z</time></trkpt><trkpt lat="41.410808857539266" lon="13.889178976511614"><ele>38.0</ele><time>2026-04-11T14:07:37.001Z</time></trkpt><trkpt lat="41.41098403075714" lon="13.889162258258365"><ele>40.0</ele><time>2026-04-11T14:07:38.001Z</time></trkpt><trkpt lat="41.411157380196805" lon="13.889135409849082"><ele>39.66666666666667</ele><time>2026-04-11T14:07:39.001Z</time></trkpt><trkpt lat="41.41133600001027" lon="13.88911850789841"><ele>39.333333333333336</ele><time>2026-04-11T14:07:40.001Z</time></trkpt><trkpt lat="41.41151244753211" lon="13.8891048383684"><ele>39.0</ele><time>2026-04-11T14:07:41.001Z</time></trkpt><trkpt lat="41.41169232546285" lon="13.889087686537334"><ele>39.0</ele><time>2026-04-11T14:07:42.001Z</time></trkpt><trkpt lat="41.411875313029256" lon="13.889067995709079"><ele>39.0</ele><time>2026-04-11T14:07:43.001Z</time></trkpt><trkpt lat="41.41205041707305" lon="13.889047994286365"><ele>39.0</ele><time>2026-04-11T14:07:44.001Z</time></trkpt><trkpt lat="41.41222210675903" lon="13.889029007847926"><ele>40.666666666666664</ele><time>2026-04-11T14:07:45.001Z</time></trkpt><trkpt lat="41.41239934894126" lon="13.889007489963443"><ele>42.33333333333333</ele><time>2026-04-11T14:07:46.001Z</time></trkpt><trkpt lat="41.41256950769129" lon="13.888983822302903"><ele>44.0</ele><time>2026-04-11T14:07:47.001Z</time></trkpt><trkpt lat="41.412745101655574" lon="13.888959737413092"><ele>44.0</ele><time>2026-04-11T14:07:48.001Z</time></trkpt><trkpt lat="41.41291446164009" lon="13.888944029693901"><ele>44.0</ele><time>2026-04-11T14:07:49.001Z</time></trkpt><trkpt lat="41.41308331064723" lon="13.888921038049258"><ele>44.0</ele><time>2026-04-11T14:07:50.001Z</time></trkpt><trkpt lat="41.41325771000081" lon="13.888900960539619"><ele>45.0</ele><time>2026-04-11T14:07:51.001Z</time></trkpt><trkpt lat="41.41342480304472" lon="13.888873845015953"><ele>46.0</ele><time>2026-04-11T14:07:52.001Z</time></trkpt><trkpt lat="41.41359509296488" lon="13.888856760917147"><ele>47.0</ele><time>2026-04-11T14:07:53.001Z</time></trkpt><trkpt lat="41.41377918618831" lon="13.888842873640241"><ele>49.0</ele><time>2026-04-11T14:07:54.001Z</time></trkpt><trkpt lat="41.413955373440096" lon="13.888821385932639"><ele>51.0</ele><time>2026-04-11T14:07:55.001Z</time></trkpt><trkpt lat="41.414133603085624" lon="13.888806759346046"><ele>53.0</ele><time>2026-04-11T14:07:56.001Z</time></trkpt><trkpt lat="41.414315092673284" lon="13.888788522801082"><ele>53.0</ele><time>2026-04-11T14:07:57.002Z</time></trkpt><trkpt lat="41.41449117917021" lon="13.888764760758786"><ele>53.0</ele><time>2026-04-11T14:07:58.002Z</time></trkpt><trkpt lat="41.41466955040736" lon="13.888743998662274"><ele>53.0</ele><time>2026-04-11T14:07:59.002Z</time></trkpt><trkpt lat="41.414852493234925" lon="13.888717703124351"><ele>53.333333333333336</ele><time>2026-04-11T14:08:00.002Z</time></trkpt><trkpt lat="41.41504362105368" lon="13.888697557061763"><ele>53.66666666666667</ele><time>2026-04-11T14:08:01.002Z</time></trkpt><trkpt lat="41.415231929715866" lon="13.888674428627304"><ele>54.0</ele><time>2026-04-11T14:08:02.002Z</time></trkpt><trkpt lat="41.415415723285975" lon="13.888657383110592"><ele>55.33333333333333</ele><time>2026-04-11T14:08:03.002Z</time></trkpt><trkpt lat="41.41560051454494" lon="13.888640043681917"><ele>56.666666666666664</ele><time>2026-04-11T14:08:04.002Z</time></trkpt><trkpt lat="41.41576647819094" lon="13.88862010444874"><ele>58.0</ele><time>2026-04-11T14:08:05.002Z</time></trkpt><trkpt lat="41.41591552057662" lon="13.88859763694538"><ele>58.0</ele><time>2026-04-11T14:08:06.002Z</time></trkpt><trkpt lat="41.416035970388556" lon="13.888588749985045"><ele>58.0</ele><time>2026-04-11T14:08:07.002Z</time></trkpt><trkpt lat="41.41616150696537" lon="13.88856720395741"><ele>58.0</ele><time>2026-04-11T14:08:08.002Z</time></trkpt><trkpt lat="41.41628402594355" lon="13.888554023701797"><ele>58.0</ele><time>2026-04-11T14:08:09.002Z</time></trkpt><trkpt lat="41.41640602793339" lon="13.888535470289467"><ele>59.25</ele><time>2026-04-11T14:08:10.002Z</time></trkpt><trkpt lat="41.41652560492094" lon="13.888523585504343"><ele>60.5</ele><time>2026-04-11T14:08:11.002Z</time></trkpt><trkpt lat="41.4166526658752" lon="13.888508422410533"><ele>61.75</ele><time>2026-04-11T14:08:12.002Z</time></trkpt><trkpt lat="41.41678176205321" lon="13.888490271617181"><ele>63.0</ele><time>2026-04-11T14:08:13.002Z</time></trkpt><trkpt lat="41.416917024403304" lon="13.888469563693342"><ele>63.0</ele><time>2026-04-11T14:08:14.002Z</time></trkpt><trkpt lat="41.417037432380596" lon="13.88845368958071"><ele>63.0</ele><time>2026-04-11T14:08:15.002Z</time></trkpt><trkpt lat="41.41715262660829" lon="13.888451785177496"><ele>63.0</ele><time>2026-04-11T14:08:16.002Z</time></trkpt><trkpt lat="41.417256907693734" lon="13.888432661583066"><ele>63.0</ele><time>2026-04-11T14:08:17.002Z</time></trkpt><trkpt lat="41.417361062388736" lon="13.88841920718907"><ele>63.0</ele><time>2026-04-11T14:08:18.002Z</time></trkpt><trkpt lat="41.41746013972252" lon="13.888393820948803"><ele>63.0</ele><time>2026-04-11T14:08:19.002Z</time></trkpt><trkpt lat="41.417569337431374" lon="13.888386604145419"><ele>63.0</ele><time>2026-04-11T14:08:20Z</time></trkpt><trkpt lat="41.41767817435682" lon="13.88837822286581"><ele>63.0</ele><time>2026-04-11T14:08:21Z</time></trkpt><trkpt lat="41.417788310472304" lon="13.888368900529898"><ele>63.0</ele><time>2026-04-11T14:08:22Z</time></trkpt><trkpt lat="41.417901278885296" lon="13.888371028167859"><ele>63.0</ele><time>2026-04-11T14:08:23Z</time></trkpt><trkpt lat="41.41802228447293" lon="13.888380728913406"><ele>63.0</ele><time>2026-04-11T14:08:24Z</time></trkpt><trkpt lat="41.41813039061097" lon="13.888404299638253"><ele>63.0</ele><time>2026-04-11T14:08:25Z</time></trkpt><trkpt lat="41.418239656310355" lon="13.88843802329372"><ele>63.0</ele><time>2026-04-11T14:08:26Z</time></trkpt><trkpt lat="41.41834385630408" lon="13.888489769489464"><ele>63.0</ele><time>2026-04-11T14:08:27Z</time></trkpt><trkpt lat="41.4184529197273" lon="13.888537037160757"><ele>63.0</ele><time>2026-04-11T14:08:28Z</time></trkpt><trkpt lat="41.41857439696923" lon="13.888575930202789"><ele>63.25</ele><time>2026-04-11T14:08:29Z</time></trkpt><trkpt lat="41.41868650443634" lon="13.888634216410487"><ele>63.5</ele><time>2026-04-11T14:08:30Z</time></trkpt><trkpt lat="41.41881257487397" lon="13.888687481338371"><ele>63.75</ele><time>2026-04-11T14:08:31Z</time></trkpt><trkpt lat="41.41894803405093" lon="13.888744061686273"><ele>64.0</ele><time>2026-04-11T14:08:32Z</time></trkpt><trkpt lat="41.419083170936275" lon="13.88878996565463"><ele>64.0</ele><time>2026-04-11T14:08:33Z</time></trkpt><trkpt lat="41.41924294263414" lon="13.888851145702029"><ele>64.0</ele><time>2026-04-11T14:08:34Z</time></trkpt><trkpt lat="41.41940011676788" lon="13.888921613198423"><ele>64.0</ele><time>2026-04-11T14:08:35Z</time></trkpt><trkpt lat="41.41955833219754" lon="13.888990830032304"><ele>64.33333333333333</ele><time>2026-04-11T14:08:36Z</time></trkpt><trkpt lat="41.41972037240193" lon="13.889062444910968"><ele>64.66666666666667</ele><time>2026-04-11T14:08:37Z</time></trkpt><trkpt lat="41.4198830156807" lon="13.889143992788943"><ele>65.0</ele><time>2026-04-11T14:08:38Z</time></trkpt><trkpt lat="41.42005125770957" lon="13.889222008931236"><ele>64.33333333333334</ele><time>2026-04-11T14:08:39Z</time></trkpt><trkpt lat="41.42021055503134" lon="13.889301588676602"><ele>63.66666666666667</ele><time>2026-04-11T14:08:40Z</time></trkpt><trkpt lat="41.4203599295072" lon="13.889364558525106"><ele>63.0</ele><time>2026-04-11T14:08:41Z</time></trkpt><trkpt lat="41.42049538102046" lon="13.8894072705962"><ele>64.0</ele><time>2026-04-11T14:08:42Z</time></trkpt><trkpt lat="41.4206216134613" lon="13.889475276452165"><ele>65.0</ele><time>2026-04-11T14:08:43Z</time></trkpt><trkpt lat="41.42074524589395" lon="13.889525858034595"><ele>66.0</ele><time>2026-04-11T14:08:44Z</time></trkpt><trkpt lat="41.4208612540216" lon="13.889564878651475"><ele>67.0</ele><time>2026-04-11T14:08:45Z</time></trkpt><trkpt lat="41.42098453558128" lon="13.889602265304367"><ele>67.0</ele><time>2026-04-11T14:08:46Z</time></trkpt><trkpt lat="41.42109080783894" lon="13.889639174640902"><ele>67.0</ele><time>2026-04-11T14:08:47Z</time></trkpt><trkpt lat="41.42119822473685" lon="13.88967121483668"><ele>67.0</ele><time>2026-04-11T14:08:48Z</time></trkpt><trkpt lat="41.42129509183223" lon="13.889709428217516"><ele>67.0</ele><time>2026-04-11T14:08:49Z</time></trkpt><trkpt lat="41.421385723960746" lon="13.889740513381753"><ele>67.0</ele><time>2026-04-11T14:08:50Z</time></trkpt><trkpt lat="41.42146464871805" lon="13.889762155807341"><ele>66.42857142857143</ele><time>2026-04-11T14:08:51Z</time></trkpt><trkpt lat="41.42152658542037" lon="13.889788630635966"><ele>65.85714285714286</ele><time>2026-04-11T14:08:52Z</time></trkpt><trkpt lat="41.4215926350768" lon="13.889815333704275"><ele>65.28571428571428</ele><time>2026-04-11T14:08:54Z</time></trkpt><trkpt lat="41.42165596704801" lon="13.889813252844782"><ele>64.71428571428572</ele><time>2026-04-11T14:09:10.001Z</time></trkpt><trkpt lat="41.42172020668938" lon="13.889848219287192"><ele>64.14285714285714</ele><time>2026-04-11T14:09:13.001Z</time></trkpt><trkpt lat="41.42175784292327" lon="13.889920976357448"><ele>63.57142857142857</ele><time>2026-04-11T14:09:15.001Z</time></trkpt><trkpt lat="41.42182064652835" lon="13.889933848325121"><ele>63.0</ele><time>2026-04-11T14:12:23.002Z</time></trkpt><trkpt lat="41.421925518340494" lon="13.889936280984738"><ele>63.0</ele><time>2026-04-11T14:12:25.002Z</time></trkpt><trkpt lat="41.42204461910088" lon="13.889956659186295"><ele>63.0</ele><time>2026-04-11T14:12:27.002Z</time></trkpt><trkpt lat="41.422145280586946" lon="13.890002490632412"><ele>63.0</ele><time>2026-04-11T14:12:29.002Z</time></trkpt><trkpt lat="41.42219864921849" lon="13.890047798148936"><ele>63.0</ele><time>2026-04-11T14:12:31.002Z</time></trkpt><trkpt lat="41.422271997021234" lon="13.889989725883758"><ele>63.0</ele><time>2026-04-11T14:12:32Z</time></trkpt><trkpt lat="41.42224666056139" lon="13.889844008574581"><ele>63.0</ele><time>2026-04-11T14:12:34Z</time></trkpt><trkpt lat="41.42213626108558" lon="13.88984462749409"><ele>63.0</ele><time>2026-04-11T14:12:36Z</time></trkpt><trkpt lat="41.42206958132511" lon="13.889886681737687"><ele>63.0</ele><time>2026-04-11T14:12:37Z</time></trkpt><trkpt lat="41.42200022746697" lon="13.889905659689141"><ele>63.0</ele><time>2026-04-11T14:12:38Z</time></trkpt><trkpt lat="41.4219098375706" lon="13.889878643406435"><ele>63.0</ele><time>2026-04-11T14:12:39Z</time></trkpt><trkpt lat="41.42181769857462" lon="13.889841763821748"><ele>63.0</ele><time>2026-04-11T14:12:40Z</time></trkpt><trkpt lat="41.421722038460146" lon="13.889797006608616"><ele>63.0</ele><time>2026-04-11T14:12:41Z</time></trkpt><trkpt lat="41.42161144106844" lon="13.889756401755507"><ele>63.0</ele><time>2026-04-11T14:12:42Z</time></trkpt><trkpt lat="41.42149981878316" lon="13.889712317685577"><ele>63.0</ele><time>2026-04-11T14:12:43Z</time></trkpt><trkpt lat="41.421401327984626" lon="13.889679296396194"><ele>63.0</ele><time>2026-04-11T14:12:44Z</time></trkpt><trkpt lat="41.42129623731736" lon="13.889632553811245"><ele>63.0</ele><time>2026-04-11T14:12:45Z</time></trkpt><trkpt lat="41.421198449184274" lon="13.889592063805672"><ele>63.8</ele><time>2026-04-11T14:12:46Z</time></trkpt><trkpt lat="41.42109922458041" lon="13.88955116835875"><ele>64.6</ele><time>2026-04-11T14:12:47Z</time></trkpt><trkpt lat="41.4209939497085" lon="13.889505077675771"><ele>65.4</ele><time>2026-04-11T14:12:48Z</time></trkpt><trkpt lat="41.4208898378616" lon="13.889458253405664"><ele>66.2</ele><time>2026-04-11T14:12:49Z</time></trkpt><trkpt lat="41.420788183446405" lon="13.88941326394695"><ele>67.0</ele><time>2026-04-11T14:12:50Z</time></trkpt><trkpt lat="41.42067424980141" lon="13.889363486049465"><ele>67.0</ele><time>2026-04-11T14:12:51Z</time></trkpt><trkpt lat="41.42055009112149" lon="13.889311217970596"><ele>67.0</ele><time>2026-04-11T14:12:52Z</time></trkpt><trkpt lat="41.420411056089705" lon="13.88926107362822"><ele>67.0</ele><time>2026-04-11T14:12:53Z</time></trkpt><trkpt lat="41.420259382877816" lon="13.889202533441862"><ele>67.0</ele><time>2026-04-11T14:12:54Z</time></trkpt><trkpt lat="41.42010636022211" lon="13.889150130918162"><ele>66.33333333333333</ele><time>2026-04-11T14:12:55Z</time></trkpt><trkpt lat="41.41994826710789" lon="13.88908600893227"><ele>65.66666666666667</ele><time>2026-04-11T14:12:56Z</time></trkpt><trkpt lat="41.41979702932213" lon="13.889031135109386"><ele>65.0</ele><time>2026-04-11T14:12:57Z</time></trkpt><trkpt lat="41.419649803273515" lon="13.888966940303943"><ele>64.75</ele><time>2026-04-11T14:12:58Z</time></trkpt><trkpt lat="41.419515314549834" lon="13.888918696279152"><ele>64.5</ele><time>2026-04-11T14:12:59Z</time></trkpt><trkpt lat="41.41938376478099" lon="13.888862530328842"><ele>64.25</ele><time>2026-04-11T14:13:00Z</time></trkpt><trkpt lat="41.41924690828982" lon="13.888803665080989"><ele>64.0</ele><time>2026-04-11T14:13:01Z</time></trkpt><trkpt lat="41.41911315854307" lon="13.888752996445593"><ele>64.0</ele><time>2026-04-11T14:13:02Z</time></trkpt><trkpt lat="41.418970901434705" lon="13.888690014244292"><ele>64.0</ele><time>2026-04-11T14:13:03Z</time></trkpt><trkpt lat="41.41883134865217" lon="13.888631438078963"><ele>64.0</ele><time>2026-04-11T14:13:04Z</time></trkpt><trkpt lat="41.41869601365513" lon="13.888567120300422"><ele>64.0</ele><time>2026-04-11T14:13:05Z</time></trkpt><trkpt lat="41.41856240139719" lon="13.88850559248815"><ele>63.75</ele><time>2026-04-11T14:13:06Z</time></trkpt><trkpt lat="41.41843622991211" lon="13.888453287684197"><ele>63.5</ele><time>2026-04-11T14:13:07Z</time></trkpt><trkpt lat="41.41831935007209" lon="13.888404260014608"><ele>63.25</ele><time>2026-04-11T14:13:08Z</time></trkpt><trkpt lat="41.418199329217124" lon="13.888354908781048"><ele>63.0</ele><time>2026-04-11T14:13:09Z</time></trkpt><trkpt lat="41.41807573483254" lon="13.888312714457639"><ele>63.5</ele><time>2026-04-11T14:13:10Z</time></trkpt><trkpt lat="41.41796361008982" lon="13.888301766173045"><ele>64.0</ele><time>2026-04-11T14:13:11Z</time></trkpt><trkpt lat="41.417845100020735" lon="13.888298151040214"><ele>64.5</ele><time>2026-04-11T14:13:12Z</time></trkpt><trkpt lat="41.41772770341991" lon="13.888307739773909"><ele>65.0</ele><time>2026-04-11T14:13:13Z</time></trkpt><trkpt lat="41.417612922672284" lon="13.88832191392618"><ele>65.0</ele><time>2026-04-11T14:13:14Z</time></trkpt><trkpt lat="41.4175056901828" lon="13.888350000165401"><ele>65.0</ele><time>2026-04-11T14:13:15Z</time></trkpt><trkpt lat="41.41739359849222" lon="13.888374592844693"><ele>65.0</ele><time>2026-04-11T14:13:16Z</time></trkpt><trkpt lat="41.417253099170274" lon="13.888368003302606"><ele>65.0</ele><time>2026-04-11T14:13:17Z</time></trkpt><trkpt lat="41.41712999378882" lon="13.888381748860963"><ele>65.0</ele><time>2026-04-11T14:13:18Z</time></trkpt><trkpt lat="41.41700235129217" lon="13.888396814698293"><ele>65.0</ele><time>2026-04-11T14:13:19.001Z</time></trkpt><trkpt lat="41.416876712240914" lon="13.888412202091569"><ele>65.0</ele><time>2026-04-11T14:13:20.001Z</time></trkpt><trkpt lat="41.41674336566607" lon="13.88843293335548"><ele>65.0</ele><time>2026-04-11T14:13:21.001Z</time></trkpt><trkpt lat="41.4166035150935" lon="13.888450346239702"><ele>64.5</ele><time>2026-04-11T14:13:22.001Z</time></trkpt><trkpt lat="41.41646228732761" lon="13.888476063956297"><ele>64.0</ele><time>2026-04-11T14:13:23.001Z</time></trkpt><trkpt lat="41.41631984174823" lon="13.888497237777718"><ele>63.5</ele><time>2026-04-11T14:13:24.001Z</time></trkpt><trkpt lat="41.4161659815749" lon="13.888517254603457"><ele>63.0</ele><time>2026-04-11T14:13:25.001Z</time></trkpt><trkpt lat="41.41600964148821" lon="13.888537928354555"><ele>61.33333333333333</ele><time>2026-04-11T14:13:26.001Z</time></trkpt><trkpt lat="41.41584730599831" lon="13.88855716338747"><ele>59.666666666666664</ele><time>2026-04-11T14:13:27.001Z</time></trkpt><trkpt lat="41.41567495227636" lon="13.888583554706114"><ele>58.0</ele><time>2026-04-11T14:13:28.001Z</time></trkpt><trkpt lat="41.41550702647073" lon="13.888597732784556"><ele>56.666666666666664</ele><time>2026-04-11T14:13:29.001Z</time></trkpt><trkpt lat="41.415329626387575" lon="13.888618092897323"><ele>55.33333333333333</ele><time>2026-04-11T14:13:30.001Z</time></trkpt><trkpt lat="41.41515444926461" lon="13.888640591637996"><ele>54.0</ele><time>2026-04-11T14:13:31.001Z</time></trkpt><trkpt lat="41.414975100348144" lon="13.888660705885849"><ele>54.0</ele><time>2026-04-11T14:13:32.001Z</time></trkpt><trkpt lat="41.41479402383612" lon="13.888685005316702"><ele>54.0</ele><time>2026-04-11T14:13:33.001Z</time></trkpt><trkpt lat="41.41460902125995" lon="13.888693849856804"><ele>54.0</ele><time>2026-04-11T14:13:34.001Z</time></trkpt><trkpt lat="41.41442417572201" lon="13.888704837138677"><ele>53.66666666666667</ele><time>2026-04-11T14:13:35.001Z</time></trkpt><trkpt lat="41.41424191176608" lon="13.888747089635967"><ele>53.333333333333336</ele><time>2026-04-11T14:13:36.001Z</time></trkpt><trkpt lat="41.41406314680061" lon="13.88876206864088"><ele>53.0</ele><time>2026-04-11T14:13:37.001Z</time></trkpt><trkpt lat="41.4138695223065" lon="13.8887847652122"><ele>51.0</ele><time>2026-04-11T14:13:38.001Z</time></trkpt><trkpt lat="41.4136769964659" lon="13.88882507788048"><ele>49.0</ele><time>2026-04-11T14:13:39.001Z</time></trkpt><trkpt lat="41.413480840996066" lon="13.888834489896816"><ele>47.0</ele><time>2026-04-11T14:13:40.001Z</time></trkpt><trkpt lat="41.41329073288714" lon="13.88885381810312"><ele>47.0</ele><time>2026-04-11T14:13:41.001Z</time></trkpt><trkpt lat="41.4130963200804" lon="13.888875890812026"><ele>47.0</ele><time>2026-04-11T14:13:42.001Z</time></trkpt><trkpt lat="41.4128946646085" lon="13.888901287198777"><ele>47.0</ele><time>2026-04-11T14:13:43.001Z</time></trkpt><trkpt lat="41.4126903050742" lon="13.888927611414399"><ele>46.0</ele><time>2026-04-11T14:13:44.001Z</time></trkpt><trkpt lat="41.41248510280245" lon="13.88895220965746"><ele>45.0</ele><time>2026-04-11T14:13:45.001Z</time></trkpt><trkpt lat="41.41227933745255" lon="13.888985121051034"><ele>44.0</ele><time>2026-04-11T14:13:46.001Z</time></trkpt><trkpt lat="41.412077242046855" lon="13.889007328596898"><ele>42.33333333333333</ele><time>2026-04-11T14:13:47.001Z</time></trkpt><trkpt lat="41.41188918720787" lon="13.88902720382636"><ele>40.666666666666664</ele><time>2026-04-11T14:13:48.001Z</time></trkpt><trkpt lat="41.41169682624292" lon="13.88905330495847"><ele>39.0</ele><time>2026-04-11T14:13:49.001Z</time></trkpt><trkpt lat="41.4115103306454" lon="13.889069840354743"><ele>39.333333333333336</ele><time>2026-04-11T14:13:50.001Z</time></trkpt><trkpt lat="41.41132208563182" lon="13.889090947679565"><ele>39.66666666666667</ele><time>2026-04-11T14:13:51.001Z</time></trkpt><trkpt lat="41.411132584423896" lon="13.889120210534445"><ele>40.0</ele><time>2026-04-11T14:13:52.001Z</time></trkpt><trkpt lat="41.41094492170514" lon="13.889140547014001"><ele>40.0</ele><time>2026-04-11T14:13:53.001Z</time></trkpt><trkpt lat="41.41076033266272" lon="13.88916140464306"><ele>40.0</ele><time>2026-04-11T14:13:54.001Z</time></trkpt><trkpt lat="41.410572428709706" lon="13.889167877519336"><ele>40.0</ele><time>2026-04-11T14:13:55.001Z</time></trkpt><trkpt lat="41.4103938769678" lon="13.889204709503712"><ele>38.0</ele><time>2026-04-11T14:13:56.001Z</time></trkpt><trkpt lat="41.41021602695152" lon="13.889225339371109"><ele>36.0</ele><time>2026-04-11T14:13:57.001Z</time></trkpt><trkpt lat="41.41003586140114" lon="13.889239918269983"><ele>34.0</ele><time>2026-04-11T14:13:58.001Z</time></trkpt><trkpt lat="41.409854798890606" lon="13.8892500847158"><ele>33.0</ele><time>2026-04-11T14:13:59.001Z</time></trkpt><trkpt lat="41.409676543609095" lon="13.889267462558406"><ele>32.0</ele><time>2026-04-11T14:14:00.001Z</time></trkpt><trkpt lat="41.40949247105454" lon="13.889286843575501"><ele>31.0</ele><time>2026-04-11T14:14:01.001Z</time></trkpt><trkpt lat="41.40930916347952" lon="13.88930690225442"><ele>30.666666666666668</ele><time>2026-04-11T14:14:02.001Z</time></trkpt><trkpt lat="41.40912372400124" lon="13.889322081271088"><ele>30.333333333333336</ele><time>2026-04-11T14:14:03.001Z</time></trkpt><trkpt lat="41.40894775182497" lon="13.889345277126797"><ele>30.0</ele><time>2026-04-11T14:14:04.001Z</time></trkpt><trkpt lat="41.40876409171531" lon="13.889365944657806"><ele>29.0</ele><time>2026-04-11T14:14:05.001Z</time></trkpt><trkpt lat="41.40858356581989" lon="13.88938081713429"><ele>28.0</ele><time>2026-04-11T14:14:06.001Z</time></trkpt><trkpt lat="41.40840320032323" lon="13.889404650670189"><ele>27.0</ele><time>2026-04-11T14:14:07.001Z</time></trkpt><trkpt lat="41.40822339870887" lon="13.88941731047347"><ele>27.0</ele><time>2026-04-11T14:14:08.001Z</time></trkpt><trkpt lat="41.408044012863996" lon="13.889439349307573"><ele>27.0</ele><time>2026-04-11T14:14:09.001Z</time></trkpt><trkpt lat="41.40786828816942" lon="13.889456766245628"><ele>27.0</ele><time>2026-04-11T14:14:10.001Z</time></trkpt><trkpt lat="41.40770439446596" lon="13.88947441196082"><ele>26.0</ele><time>2026-04-11T14:14:11.001Z</time></trkpt><trkpt lat="41.40753550939807" lon="13.889491035462244"><ele>25.0</ele><time>2026-04-11T14:14:12.001Z</time></trkpt><trkpt lat="41.40736452675304" lon="13.889506666109053"><ele>24.0</ele><time>2026-04-11T14:14:13.001Z</time></trkpt><trkpt lat="41.407193933938956" lon="13.889533405985556"><ele>23.666666666666668</ele><time>2026-04-11T14:14:14.001Z</time></trkpt><trkpt lat="41.40703273637205" lon="13.889561231826262"><ele>23.333333333333336</ele><time>2026-04-11T14:14:15.001Z</time></trkpt><trkpt lat="41.406864601910264" lon="13.889589373828684"><ele>23.0</ele><time>2026-04-11T14:14:16.001Z</time></trkpt><trkpt lat="41.40669252311398" lon="13.889619366008047"><ele>23.0</ele><time>2026-04-11T14:14:17.001Z</time></trkpt><trkpt lat="41.40652227786574" lon="13.88966616814677"><ele>23.0</ele><time>2026-04-11T14:14:18.001Z</time></trkpt><trkpt lat="41.4063517342348" lon="13.889723068217771"><ele>23.0</ele><time>2026-04-11T14:14:19.001Z</time></trkpt><trkpt lat="41.40618704190124" lon="13.88979878888117"><ele>22.333333333333336</ele><time>2026-04-11T14:14:20.001Z</time></trkpt><trkpt lat="41.406018651746514" lon="13.889880810754622"><ele>21.666666666666668</ele><time>2026-04-11T14:14:21.001Z</time></trkpt><trkpt lat="41.40585179866957" lon="13.889976365497484"><ele>21.0</ele><time>2026-04-11T14:14:22.001Z</time></trkpt><trkpt lat="41.40569884099822" lon="13.890077974200345"><ele>21.0</ele><time>2026-04-11T14:14:23.001Z</time></trkpt><trkpt lat="41.40553703088204" lon="13.890185710591833"><ele>21.0</ele><time>2026-04-11T14:14:24.001Z</time></trkpt><trkpt lat="41.40538036444299" lon="13.890287583956274"><ele>21.0</ele><time>2026-04-11T14:14:25.001Z</time></trkpt><trkpt lat="41.405210704989706" lon="13.890385917197154"><ele>21.333333333333332</ele><time>2026-04-11T14:14:26.001Z</time></trkpt><trkpt lat="41.40504429723263" lon="13.890478473275229"><ele>21.666666666666664</ele><time>2026-04-11T14:14:27.001Z</time></trkpt><trkpt lat="41.404885004022994" lon="13.890556658027265"><ele>22.0</ele><time>2026-04-11T14:14:28.001Z</time></trkpt><trkpt lat="41.404732857389114" lon="13.890635606651342"><ele>22.0</ele><time>2026-04-11T14:14:29.002Z</time></trkpt><trkpt lat="41.40460738297731" lon="13.890733685904904"><ele>22.0</ele><time>2026-04-11T14:14:30.002Z</time></trkpt><trkpt lat="41.4044706349555" lon="13.890815626338078"><ele>22.0</ele><time>2026-04-11T14:14:31.002Z</time></trkpt><trkpt lat="41.40432607140953" lon="13.89089776649886"><ele>22.0</ele><time>2026-04-11T14:14:32.002Z</time></trkpt><trkpt lat="41.40418618975937" lon="13.890980788117783"><ele>22.0</ele><time>2026-04-11T14:14:33.002Z</time></trkpt><trkpt lat="41.404040147326846" lon="13.891072777404093"><ele>22.0</ele><time>2026-04-11T14:14:34.002Z</time></trkpt><trkpt lat="41.40389421948311" lon="13.891159935057644"><ele>21.333333333333332</ele><time>2026-04-11T14:14:35.002Z</time></trkpt><trkpt lat="41.40374883132467" lon="13.891245160686896"><ele>20.666666666666668</ele><time>2026-04-11T14:14:36.002Z</time></trkpt><trkpt lat="41.40360242202602" lon="13.89133643321913"><ele>20.0</ele><time>2026-04-11T14:14:37.002Z</time></trkpt><trkpt lat="41.40344925670694" lon="13.891426195107972"><ele>20.0</ele><time>2026-04-11T14:14:38Z</time></trkpt><trkpt lat="41.40330052548187" lon="13.891516435286432"><ele>20.0</ele><time>2026-04-11T14:14:39Z</time></trkpt><trkpt lat="41.40315167459093" lon="13.891624317702254"><ele>20.0</ele><time>2026-04-11T14:14:40Z</time></trkpt><trkpt lat="41.40299875300383" lon="13.891731707286521"><ele>20.666666666666668</ele><time>2026-04-11T14:14:41Z</time></trkpt><trkpt lat="41.402825475858" lon="13.891822467306486"><ele>21.333333333333332</ele><time>2026-04-11T14:14:42Z</time></trkpt><trkpt lat="41.402659529999966" lon="13.89191984755683"><ele>22.0</ele><time>2026-04-11T14:14:43Z</time></trkpt><trkpt lat="41.40249373120037" lon="13.892017843832976"><ele>22.0</ele><time>2026-04-11T14:14:44Z</time></trkpt><trkpt lat="41.40233072243824" lon="13.892122543216498"><ele>22.0</ele><time>2026-04-11T14:14:45Z</time></trkpt><trkpt lat="41.40216089495898" lon="13.892229919217117"><ele>22.0</ele><time>2026-04-11T14:14:46Z</time></trkpt><trkpt lat="41.401994514055396" lon="13.892339245457228"><ele>22.0</ele><time>2026-04-11T14:14:47Z</time></trkpt><trkpt lat="41.40183137082632" lon="13.892437670828773"><ele>22.0</ele><time>2026-04-11T14:14:48Z</time></trkpt><trkpt lat="41.40166890327815" lon="13.892540081789736"><ele>22.0</ele><time>2026-04-11T14:14:49Z</time></trkpt><trkpt lat="41.4015092751478" lon="13.892638033658304"><ele>23.0</ele><time>2026-04-11T14:14:50Z</time></trkpt><trkpt lat="41.40134210471287" lon="13.892728211535859"><ele>24.0</ele><time>2026-04-11T14:14:51Z</time></trkpt><trkpt lat="41.401177408846806" lon="13.892825945056096"><ele>25.0</ele><time>2026-04-11T14:14:52Z</time></trkpt><trkpt lat="41.40099835121576" lon="13.89293096292508"><ele>25.333333333333336</ele><time>2026-04-11T14:14:53Z</time></trkpt><trkpt lat="41.40082836530342" lon="13.893042013732702"><ele>25.666666666666664</ele><time>2026-04-11T14:14:54Z</time></trkpt><trkpt lat="41.40064487380474" lon="13.893149734198426"><ele>26.0</ele><time>2026-04-11T14:14:55Z</time></trkpt><trkpt lat="41.40046026807482" lon="13.893253045591342"><ele>27.666666666666664</ele><time>2026-04-11T14:14:56Z</time></trkpt><trkpt lat="41.400283159984646" lon="13.893359930775718"><ele>29.333333333333336</ele><time>2026-04-11T14:14:57Z</time></trkpt><trkpt lat="41.40010306113736" lon="13.893461945009388"><ele>31.0</ele><time>2026-04-11T14:14:58Z</time></trkpt><trkpt lat="41.399921326751254" lon="13.893553039814815"><ele>31.666666666666668</ele><time>2026-04-11T14:14:59Z</time></trkpt><trkpt lat="41.399746089908454" lon="13.893643927542232"><ele>32.333333333333336</ele><time>2026-04-11T14:15:00Z</time></trkpt><trkpt lat="41.399565641977624" lon="13.893731554265777"><ele>33.0</ele><time>2026-04-11T14:15:01Z</time></trkpt><trkpt lat="41.39938432498841" lon="13.893829482646188"><ele>35.0</ele><time>2026-04-11T14:15:02Z</time></trkpt><trkpt lat="41.39920532620249" lon="13.893910362435175"><ele>37.0</ele><time>2026-04-11T14:15:03Z</time></trkpt><trkpt lat="41.399034886338356" lon="13.894004710450938"><ele>39.0</ele><time>2026-04-11T14:15:04Z</time></trkpt><trkpt lat="41.39886466400727" lon="13.894104454166811"><ele>42.66666666666667</ele><time>2026-04-11T14:15:05Z</time></trkpt><trkpt lat="41.39870438577785" lon="13.894182042815423"><ele>46.333333333333336</ele><time>2026-04-11T14:15:06Z</time></trkpt><trkpt lat="41.39855232329936" lon="13.894253032240576"><ele>50.0</ele><time>2026-04-11T14:15:07Z</time></trkpt><trkpt lat="41.398394219606786" lon="13.894306626666907"><ele>50.0</ele><time>2026-04-11T14:15:08Z</time></trkpt><trkpt lat="41.398275535432184" lon="13.894315147621882"><ele>50.0</ele><time>2026-04-11T14:15:09Z</time></trkpt><trkpt lat="41.39813813414637" lon="13.894298448223767"><ele>50.0</ele><time>2026-04-11T14:15:10Z</time></trkpt><trkpt lat="41.39801033839115" lon="13.894243587084308"><ele>50.0</ele><time>2026-04-11T14:15:11Z</time></trkpt><trkpt lat="41.39789694141908" lon="13.89414585521202"><ele>52.0</ele><time>2026-04-11T14:15:12Z</time></trkpt><trkpt lat="41.3977974916495" lon="13.894042697579348"><ele>54.0</ele><time>2026-04-11T14:15:13Z</time></trkpt><trkpt lat="41.3976983231072" lon="13.893890457804549"><ele>56.0</ele><time>2026-04-11T14:15:14Z</time></trkpt><trkpt lat="41.39758877380432" lon="13.893759960554586"><ele>58.0</ele><time>2026-04-11T14:15:15Z</time></trkpt><trkpt lat="41.397472180671706" lon="13.893625831180497"><ele>58.0</ele><time>2026-04-11T14:15:16Z</time></trkpt><trkpt lat="41.397345503409774" lon="13.893540639855912"><ele>58.0</ele><time>2026-04-11T14:15:17Z</time></trkpt><trkpt lat="41.3972095321436" lon="13.893494467537405"><ele>58.0</ele><time>2026-04-11T14:15:18Z</time></trkpt><trkpt lat="41.39707347075267" lon="13.893479901908037"><ele>58.0</ele><time>2026-04-11T14:15:19Z</time></trkpt><trkpt lat="41.39692180423952" lon="13.893502684395218"><ele>60.33333333333333</ele><time>2026-04-11T14:15:20Z</time></trkpt><trkpt lat="41.3967733973299" lon="13.893575368880443"><ele>62.66666666666667</ele><time>2026-04-11T14:15:21Z</time></trkpt><trkpt lat="41.396631147481905" lon="13.893674522358863"><ele>65.0</ele><time>2026-04-11T14:15:22Z</time></trkpt><trkpt lat="41.396500739317595" lon="13.893798559135316"><ele>65.0</ele><time>2026-04-11T14:15:23Z</time></trkpt><trkpt lat="41.39637810515599" lon="13.893957133662289"><ele>65.0</ele><time>2026-04-11T14:15:24Z</time></trkpt><trkpt lat="41.39624192562957" lon="13.894118005242321"><ele>65.0</ele><time>2026-04-11T14:15:25Z</time></trkpt><trkpt lat="41.39610457109197" lon="13.894287163843925"><ele>66.66666666666667</ele><time>2026-04-11T14:15:26Z</time></trkpt><trkpt lat="41.39595948704049" lon="13.89445990594279"><ele>68.33333333333333</ele><time>2026-04-11T14:15:27Z</time></trkpt><trkpt lat="41.395809808772945" lon="13.894634977327978"><ele>70.0</ele><time>2026-04-11T14:15:28Z</time></trkpt><trkpt lat="41.39564824725695" lon="13.894793450468509"><ele>70.0</ele><time>2026-04-11T14:15:29Z</time></trkpt><trkpt lat="41.39552113844171" lon="13.894951446498093"><ele>70.0</ele><time>2026-04-11T14:15:30Z</time></trkpt><trkpt lat="41.395379546307126" lon="13.895077335890631"><ele>70.0</ele><time>2026-04-11T14:15:31.001Z</time></trkpt><trkpt lat="41.39524050181625" lon="13.895227130679897"><ele>72.0</ele><time>2026-04-11T14:15:32.001Z</time></trkpt><trkpt lat="41.39511243494022" lon="13.895392552778942"><ele>74.0</ele><time>2026-04-11T14:15:33.001Z</time></trkpt><trkpt lat="41.39499852890915" lon="13.895578207470761"><ele>76.0</ele><time>2026-04-11T14:15:34.001Z</time></trkpt><trkpt lat="41.39490747990451" lon="13.895733459184207"><ele>76.0</ele><time>2026-04-11T14:15:35.001Z</time></trkpt><trkpt lat="41.39482542279859" lon="13.895890051393492"><ele>76.0</ele><time>2026-04-11T14:15:36.001Z</time></trkpt><trkpt lat="41.39475673594952" lon="13.896032964931779"><ele>76.0</ele><time>2026-04-11T14:15:37.001Z</time></trkpt><trkpt lat="41.394694384323515" lon="13.896172578929843"><ele>76.0</ele><time>2026-04-11T14:15:38.001Z</time></trkpt><trkpt lat="41.39464157810422" lon="13.896296298015434"><ele>77.0</ele><time>2026-04-11T14:15:39.001Z</time></trkpt><trkpt lat="41.39459447531205" lon="13.896413875873224"><ele>78.0</ele><time>2026-04-11T14:15:40.001Z</time></trkpt><trkpt lat="41.394552513449405" lon="13.896523818818597"><ele>79.0</ele><time>2026-04-11T14:15:41.001Z</time></trkpt><trkpt lat="41.394506872256244" lon="13.896608392337647"><ele>80.0</ele><time>2026-04-11T14:15:42.001Z</time></trkpt><trkpt lat="41.39443906682517" lon="13.896671614059354"><ele>81.0</ele><time>2026-04-11T14:15:43.001Z</time></trkpt><trkpt lat="41.394351877609594" lon="13.89669939166858"><ele>82.0</ele><time>2026-04-11T14:15:44.001Z</time></trkpt><trkpt lat="41.394263708182756" lon="13.896710600857942"><ele>82.0</ele><time>2026-04-11T14:15:45.001Z</time></trkpt><trkpt lat="41.394164349171206" lon="13.896681345190673"><ele>82.0</ele><time>2026-04-11T14:15:47.001Z</time></trkpt><trkpt lat="41.39409962871522" lon="13.896639816176423"><ele>82.0</ele><time>2026-04-11T14:15:49.001Z</time></trkpt><trkpt lat="41.394029902851514" lon="13.896627857049701"><ele>82.0</ele><time>2026-04-11T14:15:52.001Z</time></trkpt><trkpt lat="41.39409707743296" lon="13.896638872621196"><ele>82.0</ele><time>2026-04-11T14:15:56.001Z</time></trkpt><trkpt lat="41.3940267374523" lon="13.896684814940231"><ele>82.0</ele><time>2026-04-11T14:16:22.001Z</time></trkpt><trkpt lat="41.393948499641496" lon="13.896643622740724"><ele>81.75</ele><time>2026-04-11T14:16:24.001Z</time></trkpt><trkpt lat="41.3938349931064" lon="13.896562751313738"><ele>81.5</ele><time>2026-04-11T14:16:26.001Z</time></trkpt><trkpt lat="41.39373816502758" lon="13.896457894004296"><ele>81.25</ele><time>2026-04-11T14:16:28.001Z</time></trkpt><trkpt lat="41.39368455568679" lon="13.89636339099832"><ele>81.0</ele><time>2026-04-11T14:16:29.001Z</time></trkpt><trkpt lat="41.39361613224934" lon="13.896228245864226"><ele>81.0</ele><time>2026-04-11T14:16:30.001Z</time></trkpt><trkpt lat="41.39358298207424" lon="13.89613049264031"><ele>81.0</ele><time>2026-04-11T14:16:31.001Z</time></trkpt><trkpt lat="41.393549727375145" lon="13.896011240190756"><ele>81.0</ele><time>2026-04-11T14:16:32.001Z</time></trkpt><trkpt lat="41.39352086457858" lon="13.89588241505484"><ele>81.0</ele><time>2026-04-11T14:16:33.001Z</time></trkpt><trkpt lat="41.393501878327456" lon="13.895744899879707"><ele>81.0</ele><time>2026-04-11T14:16:34.001Z</time></trkpt><trkpt lat="41.39348241986459" lon="13.895604712268415"><ele>79.6</ele><time>2026-04-11T14:16:35.001Z</time></trkpt><trkpt lat="41.39345836312791" lon="13.89546031588123"><ele>78.19999999999999</ele><time>2026-04-11T14:16:36.002Z</time></trkpt><trkpt lat="41.39343151408467" lon="13.895310536810127"><ele>76.80000000000001</ele><time>2026-04-11T14:16:37.002Z</time></trkpt><trkpt lat="41.3934023068808" lon="13.895160106967257"><ele>75.4</ele><time>2026-04-11T14:16:38.002Z</time></trkpt><trkpt lat="41.39339241305263" lon="13.895024143594071"><ele>74.0</ele><time>2026-04-11T14:16:39.002Z</time></trkpt><trkpt lat="41.3933410881064" lon="13.894887228080375"><ele>73.0</ele><time>2026-04-11T14:16:40.002Z</time></trkpt><trkpt lat="41.393267923354415" lon="13.894789340740376"><ele>72.0</ele><time>2026-04-11T14:16:41.002Z</time></trkpt><trkpt lat="41.39318369793262" lon="13.894708767674308"><ele>71.0</ele><time>2026-04-11T14:16:42.002Z</time></trkpt><trkpt lat="41.39309663322493" lon="13.894646742346195"><ele>70.0</ele><time>2026-04-11T14:16:43.002Z</time></trkpt><trkpt lat="41.393019700951726" lon="13.89460581476504"><ele>69.0</ele><time>2026-04-11T14:16:44Z</time></trkpt><trkpt lat="41.392938142908505" lon="13.894568161449603"><ele>68.0</ele><time>2026-04-11T14:16:45Z</time></trkpt><trkpt lat="41.392858471091074" lon="13.894563891432426"><ele>67.0</ele><time>2026-04-11T14:16:46Z</time></trkpt><trkpt lat="41.39276603820136" lon="13.894591141887682"><ele>66.0</ele><time>2026-04-11T14:16:47Z</time></trkpt><trkpt lat="41.39266854958286" lon="13.894664632633061"><ele>65.0</ele><time>2026-04-11T14:16:48Z</time></trkpt><trkpt lat="41.39255224457469" lon="13.894749185325045"><ele>64.0</ele><time>2026-04-11T14:16:49Z</time></trkpt><trkpt lat="41.39243569761158" lon="13.89482190704092"><ele>64.0</ele><time>2026-04-11T14:16:50Z</time></trkpt><trkpt lat="41.39233434916194" lon="13.894897421352976"><ele>64.0</ele><time>2026-04-11T14:16:51Z</time></trkpt><trkpt lat="41.39223900268354" lon="13.894949537719677"><ele>64.0</ele><time>2026-04-11T14:16:52Z</time></trkpt><trkpt lat="41.39214911076681" lon="13.894975323388447"><ele>64.0</ele><time>2026-04-11T14:16:53Z</time></trkpt><trkpt lat="41.392055780914035" lon="13.894964167865968"><ele>64.0</ele><time>2026-04-11T14:16:54Z</time></trkpt><trkpt lat="41.39197241654149" lon="13.894924800481814"><ele>66.5</ele><time>2026-04-11T14:16:55Z</time></trkpt><trkpt lat="41.39189952103046" lon="13.894816431803216"><ele>69.0</ele><time>2026-04-11T14:16:56Z</time></trkpt><trkpt lat="41.39179870214224" lon="13.894691082607643"><ele>71.5</ele><time>2026-04-11T14:16:57Z</time></trkpt><trkpt lat="41.39170938208027" lon="13.894522293804094"><ele>74.0</ele><time>2026-04-11T14:16:58Z</time></trkpt><trkpt lat="41.39162280513977" lon="13.89438620113703"><ele>74.0</ele><time>2026-04-11T14:16:59Z</time></trkpt><trkpt lat="41.391544687558" lon="13.894275426809465"><ele>74.0</ele><time>2026-04-11T14:17:00Z</time></trkpt><trkpt lat="41.391453473912414" lon="13.894214637127554"><ele>74.0</ele><time>2026-04-11T14:17:01Z</time></trkpt><trkpt lat="41.3913471234764" lon="13.894177875167896"><ele>74.0</ele><time>2026-04-11T14:17:02Z</time></trkpt><trkpt lat="41.39121439688956" lon="13.894180483681978"><ele>75.33333333333334</ele><time>2026-04-11T14:17:03Z</time></trkpt><trkpt lat="41.3910525591302" lon="13.894207891764422"><ele>76.66666666666667</ele><time>2026-04-11T14:17:04Z</time></trkpt><trkpt lat="41.390876279676114" lon="13.894238613964436"><ele>78.0</ele><time>2026-04-11T14:17:05Z</time></trkpt><trkpt lat="41.390687773445485" lon="13.894255875622909"><ele>80.0</ele><time>2026-04-11T14:17:06Z</time></trkpt><trkpt lat="41.39051846256425" lon="13.894264899165702"><ele>82.0</ele><time>2026-04-11T14:17:07Z</time></trkpt><trkpt lat="41.390365452475045" lon="13.894280086042851"><ele>84.0</ele><time>2026-04-11T14:17:08Z</time></trkpt><trkpt lat="41.39022735850059" lon="13.894350299379278"><ele>84.33333333333333</ele><time>2026-04-11T14:17:09Z</time></trkpt><trkpt lat="41.390102780107846" lon="13.894475325948672"><ele>84.66666666666666</ele><time>2026-04-11T14:17:10Z</time></trkpt><trkpt lat="41.3899937084803" lon="13.894605162327068"><ele>85.0</ele><time>2026-04-11T14:17:11Z</time></trkpt><trkpt lat="41.38990714571442" lon="13.894784877447101"><ele>85.0</ele><time>2026-04-11T14:17:12Z</time></trkpt><trkpt lat="41.38983633312162" lon="13.89495210495586"><ele>85.0</ele><time>2026-04-11T14:17:13Z</time></trkpt><trkpt lat="41.38975892007413" lon="13.89507715980278"><ele>85.0</ele><time>2026-04-11T14:17:14Z</time></trkpt><trkpt lat="41.38965780791184" lon="13.895159709177117"><ele>85.0</ele><time>2026-04-11T14:17:15Z</time></trkpt><trkpt lat="41.38953653633685" lon="13.895200294922768"><ele>85.25</ele><time>2026-04-11T14:17:16Z</time></trkpt><trkpt lat="41.38940105684774" lon="13.8952077501974"><ele>85.5</ele><time>2026-04-11T14:17:17Z</time></trkpt><trkpt lat="41.389276565551114" lon="13.895167648741111"><ele>85.75</ele><time>2026-04-11T14:17:18Z</time></trkpt><trkpt lat="41.38916722756269" lon="13.895061219716325"><ele>86.0</ele><time>2026-04-11T14:17:19Z</time></trkpt><trkpt lat="41.389096239856784" lon="13.894944823968132"><ele>86.0</ele><time>2026-04-11T14:17:20Z</time></trkpt><trkpt lat="41.38904755184654" lon="13.894786927393941"><ele>86.0</ele><time>2026-04-11T14:17:21Z</time></trkpt><trkpt lat="41.38900739701458" lon="13.894614151148984"><ele>86.0</ele><time>2026-04-11T14:17:22Z</time></trkpt><trkpt lat="41.38897356047324" lon="13.894490877059964"><ele>86.0</ele><time>2026-04-11T14:17:23Z</time></trkpt><trkpt lat="41.38890406816681" lon="13.894409589450587"><ele>87.25</ele><time>2026-04-11T14:17:24Z</time></trkpt><trkpt lat="41.38880709634031" lon="13.89436253005178"><ele>88.5</ele><time>2026-04-11T14:17:25Z</time></trkpt><trkpt lat="41.38869193213972" lon="13.8942854106144"><ele>89.75</ele><time>2026-04-11T14:17:26Z</time></trkpt><trkpt lat="41.38853728510499" lon="13.894224714409674"><ele>91.0</ele><time>2026-04-11T14:17:27Z</time></trkpt><trkpt lat="41.388380992294" lon="13.894169818453854"><ele>91.0</ele><time>2026-04-11T14:17:28Z</time></trkpt><trkpt lat="41.388240322734454" lon="13.894117398464042"><ele>91.0</ele><time>2026-04-11T14:17:29Z</time></trkpt><trkpt lat="41.38809493152961" lon="13.894053748447277"><ele>91.0</ele><time>2026-04-11T14:17:30Z</time></trkpt><trkpt lat="41.38798085321984" lon="13.89391214103345"><ele>89.66666666666666</ele><time>2026-04-11T14:17:31Z</time></trkpt><trkpt lat="41.38786961074528" lon="13.893724355373458"><ele>88.33333333333333</ele><time>2026-04-11T14:17:32Z</time></trkpt><trkpt lat="41.387741441447666" lon="13.893523673965236"><ele>87.0</ele><time>2026-04-11T14:17:33Z</time></trkpt><trkpt lat="41.38762578874167" lon="13.893316982698899"><ele>85.33333333333333</ele><time>2026-04-11T14:17:34Z</time></trkpt><trkpt lat="41.38746815893505" lon="13.893121029903554"><ele>83.66666666666666</ele><time>2026-04-11T14:17:35Z</time></trkpt><trkpt lat="41.38728463722132" lon="13.892952927440302"><ele>82.0</ele><time>2026-04-11T14:17:36Z</time></trkpt><trkpt lat="41.38708689018407" lon="13.892812865031782"><ele>80.0</ele><time>2026-04-11T14:17:37Z</time></trkpt><trkpt lat="41.38690175064276" lon="13.892697002009525"><ele>78.0</ele><time>2026-04-11T14:17:38.001Z</time></trkpt><trkpt lat="41.3867254160128" lon="13.89258817032745"><ele>76.0</ele><time>2026-04-11T14:17:39.001Z</time></trkpt><trkpt lat="41.38656304496165" lon="13.89248744874639"><ele>76.0</ele><time>2026-04-11T14:17:40.001Z</time></trkpt><trkpt lat="41.386403824019276" lon="13.892386741191833"><ele>76.0</ele><time>2026-04-11T14:17:41.001Z</time></trkpt><trkpt lat="41.3862275553122" lon="13.89229244351421"><ele>76.0</ele><time>2026-04-11T14:17:42.001Z</time></trkpt><trkpt lat="41.386065184491194" lon="13.892185309555929"><ele>74.33333333333333</ele><time>2026-04-11T14:17:43.001Z</time></trkpt><trkpt lat="41.3858886466816" lon="13.892064321926885"><ele>72.66666666666667</ele><time>2026-04-11T14:17:44.001Z</time></trkpt><trkpt lat="41.38571264797593" lon="13.891954503794654"><ele>71.0</ele><time>2026-04-11T14:17:45.001Z</time></trkpt><trkpt lat="41.38554102147926" lon="13.891838809475834"><ele>70.66666666666667</ele><time>2026-04-11T14:17:46.001Z</time></trkpt><trkpt lat="41.38538810056468" lon="13.891744290337126"><ele>70.33333333333333</ele><time>2026-04-11T14:17:47.001Z</time></trkpt><trkpt lat="41.385238421913854" lon="13.891660321891353"><ele>70.0</ele><time>2026-04-11T14:17:48.001Z</time></trkpt><trkpt lat="41.38509301560328" lon="13.891559632696223"><ele>70.0</ele><time>2026-04-11T14:17:49.001Z</time></trkpt><trkpt lat="41.384965008237266" lon="13.891412569945727"><ele>70.0</ele><time>2026-04-11T14:17:50.001Z</time></trkpt><trkpt lat="41.384844820461495" lon="13.891239470096584"><ele>70.0</ele><time>2026-04-11T14:17:51.001Z</time></trkpt><trkpt lat="41.3847395984634" lon="13.891037506686784"><ele>68.33333333333333</ele><time>2026-04-11T14:17:52.001Z</time></trkpt><trkpt lat="41.38465706330239" lon="13.890804113568356"><ele>66.66666666666667</ele><time>2026-04-11T14:17:53.001Z</time></trkpt><trkpt lat="41.38460488200089" lon="13.890572544011007"><ele>65.0</ele><time>2026-04-11T14:17:54.001Z</time></trkpt><trkpt lat="41.38455877120377" lon="13.890349901802603"><ele>65.0</ele><time>2026-04-11T14:17:55.001Z</time></trkpt><trkpt lat="41.38447934120172" lon="13.89014333774057"><ele>65.0</ele><time>2026-04-11T14:17:56.001Z</time></trkpt><trkpt lat="41.38437838114633" lon="13.889948602162528"><ele>65.0</ele><time>2026-04-11T14:17:57.001Z</time></trkpt><trkpt lat="41.384267804137444" lon="13.88977340550719"><ele>63.0</ele><time>2026-04-11T14:17:58.001Z</time></trkpt><trkpt lat="41.384144815297816" lon="13.88962063095511"><ele>61.0</ele><time>2026-04-11T14:17:59.001Z</time></trkpt><trkpt lat="41.38401259191574" lon="13.88950089138258"><ele>59.0</ele><time>2026-04-11T14:18:00.001Z</time></trkpt><trkpt lat="41.38387229720091" lon="13.88939518341209"><ele>58.66666666666667</ele><time>2026-04-11T14:18:01.001Z</time></trkpt><trkpt lat="41.38370585824669" lon="13.889331449326276"><ele>58.33333333333333</ele><time>2026-04-11T14:18:02.001Z</time></trkpt><trkpt lat="41.38352768625418" lon="13.88927889181744"><ele>58.0</ele><time>2026-04-11T14:18:03.001Z</time></trkpt><trkpt lat="41.383346040590276" lon="13.889263868487845"><ele>55.33333333333333</ele><time>2026-04-11T14:18:04.001Z</time></trkpt><trkpt lat="41.38316248927872" lon="13.889254607578382"><ele>52.66666666666667</ele><time>2026-04-11T14:18:05.001Z</time></trkpt><trkpt lat="41.382991017134756" lon="13.889202405949622"><ele>50.0</ele><time>2026-04-11T14:18:06.001Z</time></trkpt><trkpt lat="41.38281170165914" lon="13.889118784218184"><ele>50.0</ele><time>2026-04-11T14:18:07.001Z</time></trkpt><trkpt lat="41.3826327238767" lon="13.889001705233003"><ele>50.0</ele><time>2026-04-11T14:18:08.001Z</time></trkpt><trkpt lat="41.38246178154432" lon="13.88886255244482"><ele>50.0</ele><time>2026-04-11T14:18:09.001Z</time></trkpt><trkpt lat="41.38229151277051" lon="13.888701482109106"><ele>47.66666666666667</ele><time>2026-04-11T14:18:10.001Z</time></trkpt><trkpt lat="41.38211957033077" lon="13.888536126293467"><ele>45.333333333333336</ele><time>2026-04-11T14:18:11.001Z</time></trkpt><trkpt lat="41.38194563739801" lon="13.888370339781469"><ele>43.0</ele><time>2026-04-11T14:18:12.001Z</time></trkpt><trkpt lat="41.38178047487172" lon="13.88821332768883"><ele>41.66666666666667</ele><time>2026-04-11T14:18:13.001Z</time></trkpt><trkpt lat="41.38161434802451" lon="13.888064834953406"><ele>40.333333333333336</ele><time>2026-04-11T14:18:14.001Z</time></trkpt><trkpt lat="41.38145629514873" lon="13.887904534995197"><ele>39.0</ele><time>2026-04-11T14:18:15.001Z</time></trkpt><trkpt lat="41.381293714642744" lon="13.887719214665687"><ele>35.0</ele><time>2026-04-11T14:18:16.001Z</time></trkpt><trkpt lat="41.38113221280963" lon="13.887519342897631"><ele>31.0</ele><time>2026-04-11T14:18:17.001Z</time></trkpt><trkpt lat="41.3809653967782" lon="13.88729806833647"><ele>31.0</ele><time>2026-04-11T14:18:18.001Z</time></trkpt><trkpt lat="41.38080248788286" lon="13.887075955442992"><ele>31.0</ele><time>2026-04-11T14:18:19.001Z</time></trkpt><trkpt lat="41.38063767316541" lon="13.886855767316517"><ele>28.666666666666668</ele><time>2026-04-11T14:18:20.001Z</time></trkpt><trkpt lat="41.38047874709053" lon="13.886642708267443"><ele>26.333333333333336</ele><time>2026-04-11T14:18:21.001Z</time></trkpt><trkpt lat="41.38031938119233" lon="13.886436476349774"><ele>24.0</ele><time>2026-04-11T14:18:22.001Z</time></trkpt><trkpt lat="41.380163931663816" lon="13.886221332132976"><ele>24.0</ele><time>2026-04-11T14:18:23.001Z</time></trkpt><trkpt lat="41.38000403658031" lon="13.88601631184897"><ele>24.0</ele><time>2026-04-11T14:18:24.001Z</time></trkpt><trkpt lat="41.37982900275799" lon="13.885801009697392"><ele>24.5</ele><time>2026-04-11T14:18:25.001Z</time></trkpt><trkpt lat="41.37968553872473" lon="13.88557509841971"><ele>25.0</ele><time>2026-04-11T14:18:26.001Z</time></trkpt><trkpt lat="41.37952485454686" lon="13.885357238781655"><ele>23.5</ele><time>2026-04-11T14:18:27.001Z</time></trkpt><trkpt lat="41.37936597224596" lon="13.885143280175635"><ele>22.0</ele><time>2026-04-11T14:18:28.001Z</time></trkpt><trkpt lat="41.37920761860691" lon="13.884930898520516"><ele>21.5</ele><time>2026-04-11T14:18:29.001Z</time></trkpt><trkpt lat="41.379050670069404" lon="13.884717299091584"><ele>21.0</ele><time>2026-04-11T14:18:30.001Z</time></trkpt><trkpt lat="41.37889075878408" lon="13.884503954831013"><ele>22.5</ele><time>2026-04-11T14:18:31.001Z</time></trkpt><trkpt lat="41.3787286226758" lon="13.884290489717305"><ele>24.0</ele><time>2026-04-11T14:18:32.001Z</time></trkpt><trkpt lat="41.378571763597584" lon="13.884079354993935"><ele>24.0</ele><time>2026-04-11T14:18:33.001Z</time></trkpt><trkpt lat="41.37839799430827" lon="13.883889077894588"><ele>24.0</ele><time>2026-04-11T14:18:34.001Z</time></trkpt><trkpt lat="41.37821762234277" lon="13.883703352027121"><ele>24.0</ele><time>2026-04-11T14:18:35.001Z</time></trkpt><trkpt lat="41.378030640965996" lon="13.883516525869666"><ele>24.0</ele><time>2026-04-11T14:18:36.001Z</time></trkpt><trkpt lat="41.3778421350035" lon="13.88334269213361"><ele>24.5</ele><time>2026-04-11T14:18:37.001Z</time></trkpt><trkpt lat="41.37764953939529" lon="13.883179630705062"><ele>25.0</ele><time>2026-04-11T14:18:38.001Z</time></trkpt><trkpt lat="41.377463888319504" lon="13.883018415693549"><ele>25.0</ele><time>2026-04-11T14:18:39.001Z</time></trkpt><trkpt lat="41.37727133051547" lon="13.882856696292254"><ele>25.0</ele><time>2026-04-11T14:18:40.002Z</time></trkpt><trkpt lat="41.37708212685802" lon="13.882700166711105"><ele>25.5</ele><time>2026-04-11T14:18:41.002Z</time></trkpt><trkpt lat="41.37688241136994" lon="13.882543802914693"><ele>26.0</ele><time>2026-04-11T14:18:42.002Z</time></trkpt><trkpt lat="41.37668911036951" lon="13.88239938269663"><ele>26.0</ele><time>2026-04-11T14:18:43.002Z</time></trkpt><trkpt lat="41.37649598182361" lon="13.882273587698558"><ele>26.0</ele><time>2026-04-11T14:18:44.002Z</time></trkpt><trkpt lat="41.376291822204415" lon="13.882162106691663"><ele>26.0</ele><time>2026-04-11T14:18:45.002Z</time></trkpt><trkpt lat="41.376079578036695" lon="13.882057447605632"><ele>27.0</ele><time>2026-04-11T14:18:46.002Z</time></trkpt><trkpt lat="41.37587355742908" lon="13.88199070639633"><ele>28.0</ele><time>2026-04-11T14:18:47.002Z</time></trkpt><trkpt lat="41.37567181939383" lon="13.881944835013392"><ele>29.0</ele><time>2026-04-11T14:18:48.002Z</time></trkpt><trkpt lat="41.37546750153276" lon="13.881916701857664"><ele>29.0</ele><time>2026-04-11T14:18:49.002Z</time></trkpt><trkpt lat="41.37526547142795" lon="13.881912722022163"><ele>29.0</ele><time>2026-04-11T14:18:50Z</time></trkpt><trkpt lat="41.37507582343725" lon="13.881919643743682"><ele>29.0</ele><time>2026-04-11T14:18:51Z</time></trkpt><trkpt lat="41.374889487719535" lon="13.881946634909093"><ele>29.0</ele><time>2026-04-11T14:18:52Z</time></trkpt><trkpt lat="41.37473644298829" lon="13.88201782639407"><ele>29.0</ele><time>2026-04-11T14:18:53Z</time></trkpt><trkpt lat="41.37458622746734" lon="13.88212897232797"><ele>29.0</ele><time>2026-04-11T14:18:54Z</time></trkpt><trkpt lat="41.37443245636183" lon="13.882278162934478"><ele>29.333333333333332</ele><time>2026-04-11T14:18:55Z</time></trkpt><trkpt lat="41.37426797881507" lon="13.882441678342122"><ele>29.666666666666664</ele><time>2026-04-11T14:18:56Z</time></trkpt><trkpt lat="41.37409401252613" lon="13.882579053311023"><ele>30.0</ele><time>2026-04-11T14:18:57Z</time></trkpt><trkpt lat="41.37391872917394" lon="13.882687023088284"><ele>29.666666666666664</ele><time>2026-04-11T14:18:58Z</time></trkpt><trkpt lat="41.373732530826146" lon="13.88277717367021"><ele>29.333333333333332</ele><time>2026-04-11T14:18:59Z</time></trkpt><trkpt lat="41.3735441042707" lon="13.882835719372757"><ele>29.0</ele><time>2026-04-11T14:19:00Z</time></trkpt><trkpt lat="41.37334617962495" lon="13.882876644620167"><ele>29.0</ele><time>2026-04-11T14:19:01Z</time></trkpt><trkpt lat="41.37314069316778" lon="13.88288374189453"><ele>29.0</ele><time>2026-04-11T14:19:02Z</time></trkpt><trkpt lat="41.372928268945984" lon="13.882870861060216"><ele>29.0</ele><time>2026-04-11T14:19:03Z</time></trkpt><trkpt lat="41.37270800675331" lon="13.882845636482127"><ele>31.0</ele><time>2026-04-11T14:19:04Z</time></trkpt><trkpt lat="41.372484408294476" lon="13.882781409159275"><ele>33.0</ele><time>2026-04-11T14:19:05Z</time></trkpt><trkpt lat="41.372257384824216" lon="13.882713041909396"><ele>36.0</ele><time>2026-04-11T14:19:06Z</time></trkpt><trkpt lat="41.372025385610094" lon="13.882643664840366"><ele>39.0</ele><time>2026-04-11T14:19:07Z</time></trkpt><trkpt lat="41.371787939938386" lon="13.882577458122363"><ele>33.5</ele><time>2026-04-11T14:19:08Z</time></trkpt><trkpt lat="41.37153360619873" lon="13.882506918095297"><ele>28.0</ele><time>2026-04-11T14:19:09Z</time></trkpt><trkpt lat="41.37128416774703" lon="13.882431023561685"><ele>28.0</ele><time>2026-04-11T14:19:10Z</time></trkpt><trkpt lat="41.37103508152351" lon="13.882355269652196"><ele>28.0</ele><time>2026-04-11T14:19:11Z</time></trkpt><trkpt lat="41.370782285208406" lon="13.882275661374202"><ele>28.0</ele><time>2026-04-11T14:19:12Z</time></trkpt><trkpt lat="41.370522160740535" lon="13.882183747971096"><ele>28.0</ele><time>2026-04-11T14:19:13Z</time></trkpt><trkpt lat="41.37026624700901" lon="13.882103012666926"><ele>28.0</ele><time>2026-04-11T14:19:14Z</time></trkpt><trkpt lat="41.37000885818673" lon="13.882020635627834"><ele>28.0</ele><time>2026-04-11T14:19:15Z</time></trkpt><trkpt lat="41.369743028268886" lon="13.881934035769222"><ele>30.0</ele><time>2026-04-11T14:19:16Z</time></trkpt><trkpt lat="41.36948397478568" lon="13.881851777441682"><ele>32.0</ele><time>2026-04-11T14:19:17Z</time></trkpt><trkpt lat="41.3692275406849" lon="13.881774680105686"><ele>28.5</ele><time>2026-04-11T14:19:18Z</time></trkpt><trkpt lat="41.36897212469353" lon="13.881685448091046"><ele>25.0</ele><time>2026-04-11T14:19:19Z</time></trkpt><trkpt lat="41.36871767233646" lon="13.8816058565258"><ele>25.0</ele><time>2026-04-11T14:19:20Z</time></trkpt><trkpt lat="41.36847709671416" lon="13.881518851622486"><ele>25.0</ele><time>2026-04-11T14:19:21Z</time></trkpt><trkpt lat="41.36824304442241" lon="13.881444554146219"><ele>24.5</ele><time>2026-04-11T14:19:22Z</time></trkpt><trkpt lat="41.368017235550724" lon="13.881371200123876"><ele>24.0</ele><time>2026-04-11T14:19:23Z</time></trkpt><trkpt lat="41.36780207092566" lon="13.881301773476913"><ele>24.0</ele><time>2026-04-11T14:19:24Z</time></trkpt><trkpt lat="41.367588308275316" lon="13.881231685783899"><ele>24.0</ele><time>2026-04-11T14:19:25Z</time></trkpt><trkpt lat="41.367371421009686" lon="13.881164261244479"><ele>24.0</ele><time>2026-04-11T14:19:26Z</time></trkpt><trkpt lat="41.3671541362905" lon="13.881094597432167"><ele>23.666666666666668</ele><time>2026-04-11T14:19:27Z</time></trkpt><trkpt lat="41.36693661404949" lon="13.881017360608286"><ele>23.333333333333336</ele><time>2026-04-11T14:19:28Z</time></trkpt><trkpt lat="41.36673095628984" lon="13.880954525063371"><ele>23.0</ele><time>2026-04-11T14:19:29Z</time></trkpt><trkpt lat="41.36652058352382" lon="13.880889288171756"><ele>23.666666666666668</ele><time>2026-04-11T14:19:30Z</time></trkpt><trkpt lat="41.36630711123415" lon="13.88081049401949"><ele>24.333333333333336</ele><time>2026-04-11T14:19:31Z</time></trkpt><trkpt lat="41.366097384298776" lon="13.880704111416872"><ele>25.0</ele><time>2026-04-11T14:19:32Z</time></trkpt><trkpt lat="41.36589414910817" lon="13.880589417633864"><ele>25.0</ele><time>2026-04-11T14:19:33Z</time></trkpt><trkpt lat="41.36567433217706" lon="13.88043869135654"><ele>25.0</ele><time>2026-04-11T14:19:34Z</time></trkpt><trkpt lat="41.36546631661926" lon="13.880276321158464"><ele>24.0</ele><time>2026-04-11T14:19:35Z</time></trkpt><trkpt lat="41.365260472209144" lon="13.88007618552813"><ele>23.0</ele><time>2026-04-11T14:19:36Z</time></trkpt><trkpt lat="41.3650502062735" lon="13.879895424698597"><ele>23.0</ele><time>2026-04-11T14:19:37.001Z</time></trkpt><trkpt lat="41.36483798262252" lon="13.87971298093663"><ele>23.0</ele><time>2026-04-11T14:19:38.001Z</time></trkpt><trkpt lat="41.364613840239386" lon="13.87954519797861"><ele>22.5</ele><time>2026-04-11T14:19:39.001Z</time></trkpt><trkpt lat="41.364423267216836" lon="13.87937123539952"><ele>22.0</ele><time>2026-04-11T14:19:40.001Z</time></trkpt><trkpt lat="41.36423661252485" lon="13.879202777665538"><ele>22.0</ele><time>2026-04-11T14:19:41.001Z</time></trkpt><trkpt lat="41.36404763189828" lon="13.879041196503913"><ele>22.0</ele><time>2026-04-11T14:19:42.001Z</time></trkpt><trkpt lat="41.363854743771924" lon="13.878888124195363"><ele>22.0</ele><time>2026-04-11T14:19:43.001Z</time></trkpt><trkpt lat="41.36365142818362" lon="13.878744317366493"><ele>26.0</ele><time>2026-04-11T14:19:44.001Z</time></trkpt><trkpt lat="41.363442797076516" lon="13.878616054502851"><ele>30.0</ele><time>2026-04-11T14:19:45.001Z</time></trkpt><trkpt lat="41.363227667684015" lon="13.878500953793234"><ele>27.0</ele><time>2026-04-11T14:19:46.001Z</time></trkpt><trkpt lat="41.36301154603764" lon="13.878398722010836"><ele>24.0</ele><time>2026-04-11T14:19:47.001Z</time></trkpt><trkpt lat="41.362790875310466" lon="13.878315010331333"><ele>24.0</ele><time>2026-04-11T14:19:48.001Z</time></trkpt><trkpt lat="41.362566610808344" lon="13.878237893328711"><ele>24.0</ele><time>2026-04-11T14:19:49.001Z</time></trkpt><trkpt lat="41.36235724073651" lon="13.878173079079854"><ele>24.0</ele><time>2026-04-11T14:19:50.001Z</time></trkpt><trkpt lat="41.36215156084789" lon="13.878143317222834"><ele>23.5</ele><time>2026-04-11T14:19:51.001Z</time></trkpt><trkpt lat="41.36192686382802" lon="13.87811889930039"><ele>23.0</ele><time>2026-04-11T14:19:52.001Z</time></trkpt><trkpt lat="41.36169259375744" lon="13.878106466354323"><ele>23.0</ele><time>2026-04-11T14:19:53.001Z</time></trkpt><trkpt lat="41.36145281480349" lon="13.878107042771592"><ele>23.0</ele><time>2026-04-11T14:19:54.001Z</time></trkpt><trkpt lat="41.361201616447175" lon="13.87809456968551"><ele>23.5</ele><time>2026-04-11T14:19:55.001Z</time></trkpt><trkpt lat="41.360967420847395" lon="13.87810334447353"><ele>24.0</ele><time>2026-04-11T14:19:56.001Z</time></trkpt><trkpt lat="41.36074434737694" lon="13.878097612669514"><ele>24.666666666666664</ele><time>2026-04-11T14:19:57.001Z</time></trkpt><trkpt lat="41.36052523653893" lon="13.878100937738044"><ele>25.333333333333332</ele><time>2026-04-11T14:19:58.001Z</time></trkpt><trkpt lat="41.36030709909269" lon="13.878101522678143"><ele>26.0</ele><time>2026-04-11T14:19:59.001Z</time></trkpt><trkpt lat="41.36008827765519" lon="13.878107947837611"><ele>26.0</ele><time>2026-04-11T14:20:00.001Z</time></trkpt><trkpt lat="41.359871484998955" lon="13.87811685591371"><ele>26.0</ele><time>2026-04-11T14:20:01.001Z</time></trkpt><trkpt lat="41.359652386747115" lon="13.878120787341862"><ele>26.0</ele><time>2026-04-11T14:20:02.001Z</time></trkpt><trkpt lat="41.359427938819564" lon="13.878129064707368"><ele>26.0</ele><time>2026-04-11T14:20:03.001Z</time></trkpt><trkpt lat="41.35920100871764" lon="13.87815768300809"><ele>26.0</ele><time>2026-04-11T14:20:04.001Z</time></trkpt><trkpt lat="41.3589748190998" lon="13.878208091398207"><ele>22.5</ele><time>2026-04-11T14:20:05.001Z</time></trkpt><trkpt lat="41.35873877114014" lon="13.878285429235032"><ele>19.0</ele><time>2026-04-11T14:20:06.001Z</time></trkpt><trkpt lat="41.35850920417908" lon="13.878355575954657"><ele>19.0</ele><time>2026-04-11T14:20:07.001Z</time></trkpt><trkpt lat="41.35827362720394" lon="13.878419498106016"><ele>19.0</ele><time>2026-04-11T14:20:08.001Z</time></trkpt><trkpt lat="41.35803276231764" lon="13.878478295566907"><ele>20.0</ele><time>2026-04-11T14:20:09.001Z</time></trkpt><trkpt lat="41.357792066318886" lon="13.878526211234634"><ele>21.0</ele><time>2026-04-11T14:20:10.001Z</time></trkpt><trkpt lat="41.357565030021334" lon="13.878585176509059"><ele>21.0</ele><time>2026-04-11T14:20:11.001Z</time></trkpt><trkpt lat="41.3573340849887" lon="13.87864866279002"><ele>21.0</ele><time>2026-04-11T14:20:12.001Z</time></trkpt><trkpt lat="41.35710340620826" lon="13.87870561252589"><ele>23.5</ele><time>2026-04-11T14:20:13.001Z</time></trkpt><trkpt lat="41.35686842079475" lon="13.878763432819257"><ele>26.0</ele><time>2026-04-11T14:20:14.001Z</time></trkpt><trkpt lat="41.356635806906525" lon="13.878821309488535"><ele>26.0</ele><time>2026-04-11T14:20:15.001Z</time></trkpt><trkpt lat="41.356411700016686" lon="13.878882223795664"><ele>26.0</ele><time>2026-04-11T14:20:16.001Z</time></trkpt><trkpt lat="41.35619393753842" lon="13.878936031182349"><ele>25.0</ele><time>2026-04-11T14:20:17.001Z</time></trkpt><trkpt lat="41.356000694781095" lon="13.87898377156576"><ele>24.0</ele><time>2026-04-11T14:20:18.001Z</time></trkpt><trkpt lat="41.355818926312395" lon="13.879042955538255"><ele>23.0</ele><time>2026-04-11T14:20:19.001Z</time></trkpt><trkpt lat="41.35563214843873" lon="13.879137199767484"><ele>24.0</ele><time>2026-04-11T14:20:20.001Z</time></trkpt><trkpt lat="41.35544650289621" lon="13.879268682000765"><ele>25.0</ele><time>2026-04-11T14:20:21.001Z</time></trkpt><trkpt lat="41.355259624125544" lon="13.879414662377535"><ele>26.0</ele><time>2026-04-11T14:20:22.001Z</time></trkpt><trkpt lat="41.35506984691873" lon="13.879564894952319"><ele>26.0</ele><time>2026-04-11T14:20:23.001Z</time></trkpt><trkpt lat="41.35487932026272" lon="13.879723443284659"><ele>26.0</ele><time>2026-04-11T14:20:24.001Z</time></trkpt><trkpt lat="41.35468413723863" lon="13.879873029379452"><ele>25.0</ele><time>2026-04-11T14:20:25.001Z</time></trkpt><trkpt lat="41.35449010915007" lon="13.880020678183064"><ele>24.0</ele><time>2026-04-11T14:20:26.001Z</time></trkpt><trkpt lat="41.35429475002301" lon="13.880166779544151"><ele>23.0</ele><time>2026-04-11T14:20:27.001Z</time></trkpt><trkpt lat="41.354099025867555" lon="13.880313901901195"><ele>23.0</ele><time>2026-04-11T14:20:28.001Z</time></trkpt><trkpt lat="41.35390164639628" lon="13.880448293871714"><ele>23.0</ele><time>2026-04-11T14:20:29.001Z</time></trkpt><trkpt lat="41.35370110662861" lon="13.880587356446908"><ele>23.0</ele><time>2026-04-11T14:20:30.001Z</time></trkpt><trkpt lat="41.35349274012582" lon="13.880725991486898"><ele>22.0</ele><time>2026-04-11T14:20:31.001Z</time></trkpt><trkpt lat="41.35329772231987" lon="13.880881375322458"><ele>21.0</ele><time>2026-04-11T14:20:32.001Z</time></trkpt><trkpt lat="41.35309980344131" lon="13.881018460761052"><ele>21.333333333333332</ele><time>2026-04-11T14:20:33.001Z</time></trkpt><trkpt lat="41.35290081859248" lon="13.881162304423102"><ele>21.666666666666664</ele><time>2026-04-11T14:20:34.001Z</time></trkpt><trkpt lat="41.35272238584014" lon="13.881288095105452"><ele>22.0</ele><time>2026-04-11T14:20:35.001Z</time></trkpt><trkpt lat="41.35255895918505" lon="13.88140226011536"><ele>22.0</ele><time>2026-04-11T14:20:36.001Z</time></trkpt><trkpt lat="41.35241649700976" lon="13.881504343349778"><ele>22.0</ele><time>2026-04-11T14:20:37.001Z</time></trkpt><trkpt lat="41.35229024802729" lon="13.88159582649593"><ele>22.0</ele><time>2026-04-11T14:20:38.001Z</time></trkpt><trkpt lat="41.35217209782405" lon="13.88168229620164"><ele>22.0</ele><time>2026-04-11T14:20:39.002Z</time></trkpt><trkpt lat="41.35206251807758" lon="13.881765369410928"><ele>23.25</ele><time>2026-04-11T14:20:40.002Z</time></trkpt><trkpt lat="41.35195554632936" lon="13.881829810020289"><ele>24.5</ele><time>2026-04-11T14:20:41.002Z</time></trkpt><trkpt lat="41.35185294989091" lon="13.881837949373367"><ele>25.75</ele><time>2026-04-11T14:20:42.002Z</time></trkpt><trkpt lat="41.351743784456275" lon="13.881822102845614"><ele>27.0</ele><time>2026-04-11T14:20:43.002Z</time></trkpt><trkpt lat="41.351626685735376" lon="13.88174115438263"><ele>27.0</ele><time>2026-04-11T14:20:44.002Z</time></trkpt><trkpt lat="41.35150982074262" lon="13.881623441795186"><ele>27.0</ele><time>2026-04-11T14:20:45.002Z</time></trkpt><trkpt lat="41.35139189057832" lon="13.881481473394933"><ele>27.0</ele><time>2026-04-11T14:20:46.002Z</time></trkpt><trkpt lat="41.35127303456259" lon="13.881327944950106"><ele>28.5</ele><time>2026-04-11T14:20:47.002Z</time></trkpt><trkpt lat="41.351183330767064" lon="13.881164133778835"><ele>30.0</ele><time>2026-04-11T14:20:48.002Z</time></trkpt><trkpt lat="41.35111635165546" lon="13.88099728929929"><ele>31.5</ele><time>2026-04-11T14:20:49.002Z</time></trkpt><trkpt lat="41.3510487987651" lon="13.880878510254664"><ele>33.0</ele><time>2026-04-11T14:20:50.002Z</time></trkpt><trkpt lat="41.350963540821255" lon="13.880811051604123"><ele>33.0</ele><time>2026-04-11T14:20:51.002Z</time></trkpt><trkpt lat="41.35086154879987" lon="13.880806107846038"><ele>33.0</ele><time>2026-04-11T14:20:52.002Z</time></trkpt><trkpt lat="41.3507434014216" lon="13.880835225242786"><ele>33.0</ele><time>2026-04-11T14:20:53.002Z</time></trkpt><trkpt lat="41.35060184202694" lon="13.880883382572243"><ele>33.0</ele><time>2026-04-11T14:20:54.002Z</time></trkpt><trkpt lat="41.35044954058699" lon="13.880901489316866"><ele>35.333333333333336</ele><time>2026-04-11T14:20:55.002Z</time></trkpt><trkpt lat="41.35029676538979" lon="13.880848847754224"><ele>37.66666666666667</ele><time>2026-04-11T14:20:56Z</time></trkpt><trkpt lat="41.35013119376565" lon="13.880757077856128"><ele>40.0</ele><time>2026-04-11T14:20:57Z</time></trkpt><trkpt lat="41.34995266106984" lon="13.880658101800458"><ele>40.0</ele><time>2026-04-11T14:20:58Z</time></trkpt><trkpt lat="41.34976057299861" lon="13.880574898025465"><ele>40.0</ele><time>2026-04-11T14:20:59Z</time></trkpt><trkpt lat="41.349566646951295" lon="13.88049354772046"><ele>40.0</ele><time>2026-04-11T14:21:00Z</time></trkpt><trkpt lat="41.349397857994596" lon="13.880421704731102"><ele>39.5</ele><time>2026-04-11T14:21:01Z</time></trkpt><trkpt lat="41.34924155754888" lon="13.880354566230245"><ele>39.0</ele><time>2026-04-11T14:21:02Z</time></trkpt><trkpt lat="41.34909970309054" lon="13.880307976634054"><ele>38.5</ele><time>2026-04-11T14:21:03Z</time></trkpt><trkpt lat="41.34896473334883" lon="13.880288909741987"><ele>38.0</ele><time>2026-04-11T14:21:04Z</time></trkpt><trkpt lat="41.34882092570433" lon="13.880323936326711"><ele>35.0</ele><time>2026-04-11T14:21:05Z</time></trkpt><trkpt lat="41.348720339115424" lon="13.880396115315278"><ele>32.0</ele><time>2026-04-11T14:21:06Z</time></trkpt><trkpt lat="41.348623063636786" lon="13.880494772694743"><ele>29.0</ele><time>2026-04-11T14:21:07Z</time></trkpt><trkpt lat="41.34856614245235" lon="13.880631828060954"><ele>26.0</ele><time>2026-04-11T14:21:08Z</time></trkpt><trkpt lat="41.348546658298304" lon="13.880784978866753"><ele>26.0</ele><time>2026-04-11T14:21:09Z</time></trkpt><trkpt lat="41.348553334331896" lon="13.880954434310414"><ele>26.0</ele><time>2026-04-11T14:21:10Z</time></trkpt><trkpt lat="41.34856369577616" lon="13.88116683873665"><ele>26.0</ele><time>2026-04-11T14:21:11Z</time></trkpt><trkpt lat="41.34857299751711" lon="13.88138386922333"><ele>26.0</ele><time>2026-04-11T14:21:12Z</time></trkpt><trkpt lat="41.3485896401254" lon="13.881596618947263"><ele>26.0</ele><time>2026-04-11T14:21:13Z</time></trkpt><trkpt lat="41.34863695870496" lon="13.881795348018493"><ele>26.0</ele><time>2026-04-11T14:21:14Z</time></trkpt><trkpt lat="41.34869397276251" lon="13.881971009959797"><ele>25.8</ele><time>2026-04-11T14:21:15Z</time></trkpt><trkpt lat="41.348754034555135" lon="13.882124619520347"><ele>25.6</ele><time>2026-04-11T14:21:16Z</time></trkpt><trkpt lat="41.348758223537985" lon="13.882273272983864"><ele>25.4</ele><time>2026-04-11T14:21:17Z</time></trkpt><trkpt lat="41.34875558202983" lon="13.882358769740359"><ele>25.2</ele><time>2026-04-11T14:21:18Z</time></trkpt><trkpt lat="41.34873570186719" lon="13.882459515107122"><ele>25.0</ele><time>2026-04-11T14:21:19Z</time></trkpt><trkpt lat="41.348664620925106" lon="13.8825384624997"><ele>24.25</ele><time>2026-04-11T14:21:20Z</time></trkpt><trkpt lat="41.3485571475005" lon="13.882602585168442"><ele>23.5</ele><time>2026-04-11T14:21:21Z</time></trkpt><trkpt lat="41.34842390490242" lon="13.882695957663557"><ele>22.75</ele><time>2026-04-11T14:21:22Z</time></trkpt><trkpt lat="41.34826860823426" lon="13.882810089738125"><ele>22.0</ele><time>2026-04-11T14:21:23Z</time></trkpt><trkpt lat="41.34809302575245" lon="13.882935547093249"><ele>23.666666666666664</ele><time>2026-04-11T14:21:24Z</time></trkpt><trkpt lat="41.34789758202248" lon="13.883073285738226"><ele>25.333333333333332</ele><time>2026-04-11T14:21:25Z</time></trkpt><trkpt lat="41.34773677709052" lon="13.883186851949581"><ele>27.0</ele><time>2026-04-11T14:21:26Z</time></trkpt><trkpt lat="41.347624578141684" lon="13.88329346692557"><ele>27.0</ele><time>2026-04-11T14:21:27Z</time></trkpt><trkpt lat="41.347514044959475" lon="13.883353577568002"><ele>27.000000000000004</ele><time>2026-04-11T14:21:28Z</time></trkpt><trkpt lat="41.34741003529846" lon="13.883385042331453"><ele>27.000000000000004</ele><time>2026-04-11T14:21:29Z</time></trkpt><trkpt lat="41.34731006948593" lon="13.883372664489833"><ele>27.0</ele><time>2026-04-11T14:21:30Z</time></trkpt><trkpt lat="41.34722190101352" lon="13.883308361643985"><ele>27.0</ele><time>2026-04-11T14:21:31Z</time></trkpt><trkpt lat="41.347149092485566" lon="13.883200244645161"><ele>30.5</ele><time>2026-04-11T14:21:32Z</time></trkpt><trkpt lat="41.347094365681706" lon="13.883039676141426"><ele>34.0</ele><time>2026-04-11T14:21:33Z</time></trkpt><trkpt lat="41.34707798114613" lon="13.88284026403491"><ele>37.5</ele><time>2026-04-11T14:21:34Z</time></trkpt><trkpt lat="41.347058012708736" lon="13.882665512558349"><ele>41.0</ele><time>2026-04-11T14:21:35Z</time></trkpt><trkpt lat="41.34704393936437" lon="13.88251681678473"><ele>41.0</ele><time>2026-04-11T14:21:36Z</time></trkpt><trkpt lat="41.347007733954875" lon="13.882397799126295"><ele>41.0</ele><time>2026-04-11T14:21:37Z</time></trkpt><trkpt lat="41.34693753117829" lon="13.882283879333034"><ele>41.0</ele><time>2026-04-11T14:21:38Z</time></trkpt><trkpt lat="41.3468155704716" lon="13.882122955625727"><ele>41.0</ele><time>2026-04-11T14:21:39Z</time></trkpt><trkpt lat="41.34666889574524" lon="13.881952054801333"><ele>41.33333333333333</ele><time>2026-04-11T14:21:40Z</time></trkpt><trkpt lat="41.34651631787255" lon="13.881750573401701"><ele>41.666666666666664</ele><time>2026-04-11T14:21:41Z</time></trkpt><trkpt lat="41.34636440619762" lon="13.881528286289159"><ele>42.0</ele><time>2026-04-11T14:21:42Z</time></trkpt><trkpt lat="41.34621656816295" lon="13.881315404960972"><ele>42.0</ele><time>2026-04-11T14:21:43Z</time></trkpt><trkpt lat="41.34610892671346" lon="13.881133135916413"><ele>42.0</ele><time>2026-04-11T14:21:44Z</time></trkpt><trkpt lat="41.34602152216402" lon="13.880978599934659"><ele>42.0</ele><time>2026-04-11T14:21:45Z</time></trkpt><trkpt lat="41.34598048337823" lon="13.880854226170767"><ele>42.0</ele><time>2026-04-11T14:21:46Z</time></trkpt><trkpt lat="41.34593997763984" lon="13.880758328050938"><ele>38.0</ele><time>2026-04-11T14:21:47Z</time></trkpt><trkpt lat="41.34589360451735" lon="13.880683194197088"><ele>34.0</ele><time>2026-04-11T14:21:48Z</time></trkpt><trkpt lat="41.34576728428092" lon="13.880623039189327"><ele>30.0</ele><time>2026-04-11T14:21:49Z</time></trkpt><trkpt lat="41.34563664560981" lon="13.880653360386118"><ele>26.0</ele><time>2026-04-11T14:21:50Z</time></trkpt><trkpt lat="41.345492103855584" lon="13.880719499037214"><ele>25.0</ele><time>2026-04-11T14:21:51Z</time></trkpt><trkpt lat="41.34533888187142" lon="13.880793164322322"><ele>24.0</ele><time>2026-04-11T14:21:52Z</time></trkpt><trkpt lat="41.34520813128851" lon="13.880877383553623"><ele>23.0</ele><time>2026-04-11T14:21:53Z</time></trkpt><trkpt lat="41.3451052498083" lon="13.880995085252476"><ele>22.0</ele><time>2026-04-11T14:21:54Z</time></trkpt><trkpt lat="41.34501558386002" lon="13.881141901098474"><ele>25.0</ele><time>2026-04-11T14:21:55Z</time></trkpt><trkpt lat="41.34494737971669" lon="13.881325522691974"><ele>28.0</ele><time>2026-04-11T14:21:56Z</time></trkpt><trkpt lat="41.344898879576895" lon="13.881547467110693"><ele>31.0</ele><time>2026-04-11T14:21:57Z</time></trkpt><trkpt lat="41.344847563454145" lon="13.88179804303751"><ele>32.333333333333336</ele><time>2026-04-11T14:21:58Z</time></trkpt><trkpt lat="41.34477241630078" lon="13.882047364915458"><ele>33.666666666666664</ele><time>2026-04-11T14:21:59Z</time></trkpt><trkpt lat="41.34470249935192" lon="13.88224042521215"><ele>35.0</ele><time>2026-04-11T14:22:00Z</time></trkpt><trkpt lat="41.34462085474873" lon="13.882440594014376"><ele>33.25</ele><time>2026-04-11T14:22:01Z</time></trkpt><trkpt lat="41.34454533438609" lon="13.88258503514873"><ele>31.5</ele><time>2026-04-11T14:22:02.001Z</time></trkpt><trkpt lat="41.34446803517666" lon="13.88270974106831"><ele>29.75</ele><time>2026-04-11T14:22:03.001Z</time></trkpt><trkpt lat="41.344361169555164" lon="13.882773892631661"><ele>28.0</ele><time>2026-04-11T14:22:04.001Z</time></trkpt><trkpt lat="41.34424797400258" lon="13.882789531517357"><ele>28.0</ele><time>2026-04-11T14:22:05.001Z</time></trkpt><trkpt lat="41.344106858960764" lon="13.882771167386233"><ele>28.0</ele><time>2026-04-11T14:22:06.001Z</time></trkpt><trkpt lat="41.34393881073103" lon="13.882739729100594"><ele>28.0</ele><time>2026-04-11T14:22:07.001Z</time></trkpt><trkpt lat="41.34373904121109" lon="13.88271709330681"><ele>32.333333333333336</ele><time>2026-04-11T14:22:08.001Z</time></trkpt><trkpt lat="41.343536609155564" lon="13.882679007434474"><ele>36.666666666666664</ele><time>2026-04-11T14:22:09.001Z</time></trkpt><trkpt lat="41.343326572550154" lon="13.882652673266076"><ele>41.0</ele><time>2026-04-11T14:22:10.001Z</time></trkpt><trkpt lat="41.34311119855524" lon="13.882630523104392"><ele>41.666666666666664</ele><time>2026-04-11T14:22:11.001Z</time></trkpt><trkpt lat="41.342919644868445" lon="13.882607848656594"><ele>42.333333333333336</ele><time>2026-04-11T14:22:12.001Z</time></trkpt><trkpt lat="41.342743303770135" lon="13.882586127123739"><ele>43.0</ele><time>2026-04-11T14:22:13.001Z</time></trkpt><trkpt lat="41.342563367912014" lon="13.88257606607477"><ele>37.66666666666667</ele><time>2026-04-11T14:22:14.001Z</time></trkpt><trkpt lat="41.342373727108324" lon="13.882574818879148"><ele>32.333333333333336</ele><time>2026-04-11T14:22:15.001Z</time></trkpt><trkpt lat="41.34218848694218" lon="13.88255076145128"><ele>27.0</ele><time>2026-04-11T14:22:16.001Z</time></trkpt><trkpt lat="41.342008017404424" lon="13.88253277801768"><ele>27.0</ele><time>2026-04-11T14:22:17.001Z</time></trkpt><trkpt lat="41.34185257635807" lon="13.882508709757687"><ele>27.0</ele><time>2026-04-11T14:22:18.001Z</time></trkpt><trkpt lat="41.34169339479791" lon="13.882456121796281"><ele>27.0</ele><time>2026-04-11T14:22:19.001Z</time></trkpt><trkpt lat="41.341550482780804" lon="13.882378600538873"><ele>27.0</ele><time>2026-04-11T14:22:20.001Z</time></trkpt><trkpt lat="41.34143839940367" lon="13.882259232049806"><ele>27.0</ele><time>2026-04-11T14:22:21.001Z</time></trkpt><trkpt lat="41.341320601186716" lon="13.882112911097494"><ele>27.0</ele><time>2026-04-11T14:22:22.001Z</time></trkpt><trkpt lat="41.34120022377826" lon="13.88194416498593"><ele>26.0</ele><time>2026-04-11T14:22:23.001Z</time></trkpt><trkpt lat="41.34107790182979" lon="13.881766972243138"><ele>25.0</ele><time>2026-04-11T14:22:24.001Z</time></trkpt><trkpt lat="41.340947351866305" lon="13.88159133036938"><ele>24.0</ele><time>2026-04-11T14:22:25.001Z</time></trkpt><trkpt lat="41.340840101976944" lon="13.881384099135655"><ele>24.0</ele><time>2026-04-11T14:22:26.001Z</time></trkpt><trkpt lat="41.34073957701809" lon="13.881179599714688"><ele>24.0</ele><time>2026-04-11T14:22:27.001Z</time></trkpt><trkpt lat="41.34063229376398" lon="13.880979850033551"><ele>24.0</ele><time>2026-04-11T14:22:28.001Z</time></trkpt><trkpt lat="41.34053588838222" lon="13.880776927483982"><ele>26.0</ele><time>2026-04-11T14:22:29.001Z</time></trkpt><trkpt lat="41.340402564216994" lon="13.880581622321138"><ele>28.0</ele><time>2026-04-11T14:22:30.001Z</time></trkpt><trkpt lat="41.340258465350345" lon="13.880410905324934"><ele>30.0</ele><time>2026-04-11T14:22:31.001Z</time></trkpt><trkpt lat="41.3400950310765" lon="13.880244214190252"><ele>29.0</ele><time>2026-04-11T14:22:32.001Z</time></trkpt><trkpt lat="41.33996527424849" lon="13.880049744764358"><ele>28.0</ele><time>2026-04-11T14:22:33.001Z</time></trkpt><trkpt lat="41.33983188672189" lon="13.879861783829687"><ele>27.0</ele><time>2026-04-11T14:22:34.001Z</time></trkpt><trkpt lat="41.33970721675105" lon="13.879676846403305"><ele>27.0</ele><time>2026-04-11T14:22:35.001Z</time></trkpt><trkpt lat="41.33957910451975" lon="13.879487770302852"><ele>27.0</ele><time>2026-04-11T14:22:36.001Z</time></trkpt><trkpt lat="41.33945034973768" lon="13.879292753893901"><ele>27.0</ele><time>2026-04-11T14:22:37.001Z</time></trkpt><trkpt lat="41.339317094284446" lon="13.879085731822661"><ele>26.0</ele><time>2026-04-11T14:22:38.001Z</time></trkpt><trkpt lat="41.33918225749754" lon="13.878882249782107"><ele>25.0</ele><time>2026-04-11T14:22:39.001Z</time></trkpt><trkpt lat="41.339041804915716" lon="13.87868968987986"><ele>24.0</ele><time>2026-04-11T14:22:40.001Z</time></trkpt><trkpt lat="41.338903718694894" lon="13.87852683701216"><ele>26.25</ele><time>2026-04-11T14:22:41.001Z</time></trkpt><trkpt lat="41.33877960121896" lon="13.878390435408198"><ele>28.5</ele><time>2026-04-11T14:22:42.001Z</time></trkpt><trkpt lat="41.33867423853299" lon="13.878273918661918"><ele>30.75</ele><time>2026-04-11T14:22:43.001Z</time></trkpt><trkpt lat="41.33857537344904" lon="13.878150631545079"><ele>33.0</ele><time>2026-04-11T14:22:44.001Z</time></trkpt><trkpt lat="41.338502373714775" lon="13.8780282503326"><ele>33.0</ele><time>2026-04-11T14:22:45.001Z</time></trkpt><trkpt lat="41.33843305512468" lon="13.877886263738137"><ele>33.0</ele><time>2026-04-11T14:22:46.001Z</time></trkpt><trkpt lat="41.33840508943315" lon="13.877671624977044"><ele>33.0</ele><time>2026-04-11T14:22:47.001Z</time></trkpt><trkpt lat="41.33836573266698" lon="13.877466705182929"><ele>31.5</ele><time>2026-04-11T14:22:48.001Z</time></trkpt><trkpt lat="41.33834309922512" lon="13.877278515879228"><ele>30.0</ele><time>2026-04-11T14:22:49.001Z</time></trkpt><trkpt lat="41.338326414702706" lon="13.877099707469073"><ele>28.5</ele><time>2026-04-11T14:22:50.001Z</time></trkpt><trkpt lat="41.33828071165537" lon="13.876940219257067"><ele>27.0</ele><time>2026-04-11T14:22:51.001Z</time></trkpt><trkpt lat="41.33818850937832" lon="13.876794964686628"><ele>25.666666666666668</ele><time>2026-04-11T14:22:52.001Z</time></trkpt><trkpt lat="41.33805479222372" lon="13.87669507037523"><ele>24.333333333333336</ele><time>2026-04-11T14:22:53.001Z</time></trkpt><trkpt lat="41.337906716400845" lon="13.876583831386586"><ele>23.0</ele><time>2026-04-11T14:22:54.001Z</time></trkpt><trkpt lat="41.33776662014112" lon="13.876462600196165"><ele>26.0</ele><time>2026-04-11T14:22:55.001Z</time></trkpt><trkpt lat="41.3376214768972" lon="13.876381313052086"><ele>29.0</ele><time>2026-04-11T14:22:56.001Z</time></trkpt><trkpt lat="41.33748622625095" lon="13.87627551698201"><ele>32.0</ele><time>2026-04-11T14:22:57.001Z</time></trkpt><trkpt lat="41.33734141961607" lon="13.876203928548106"><ele>31.666666666666664</ele><time>2026-04-11T14:22:58.001Z</time></trkpt><trkpt lat="41.3371767146332" lon="13.876145776122799"><ele>31.333333333333336</ele><time>2026-04-11T14:22:59.001Z</time></trkpt><trkpt lat="41.336991412163094" lon="13.876140921925945"><ele>31.0</ele><time>2026-04-11T14:23:00.001Z</time></trkpt><trkpt lat="41.3368261676939" lon="13.876117661265475"><ele>31.0</ele><time>2026-04-11T14:23:01.001Z</time></trkpt><trkpt lat="41.336667763415505" lon="13.876157877253505"><ele>31.0</ele><time>2026-04-11T14:23:01.999Z</time></trkpt><trkpt lat="41.33652041116806" lon="13.876197821957732"><ele>31.0</ele><time>2026-04-11T14:23:02.999Z</time></trkpt><trkpt lat="41.33639623556997" lon="13.876251621425371"><ele>31.0</ele><time>2026-04-11T14:23:03.999Z</time></trkpt><trkpt lat="41.33629185839054" lon="13.87632169714655"><ele>28.75</ele><time>2026-04-11T14:23:04.999Z</time></trkpt><trkpt lat="41.33618290693854" lon="13.876428238518878"><ele>26.5</ele><time>2026-04-11T14:23:05.999Z</time></trkpt><trkpt lat="41.33609295874937" lon="13.876568997722734"><ele>24.25</ele><time>2026-04-11T14:23:07Z</time></trkpt><trkpt lat="41.336013586194476" lon="13.87668500153879"><ele>22.0</ele><time>2026-04-11T14:23:08Z</time></trkpt><trkpt lat="41.33591992607759" lon="13.87676150057421"><ele>22.5</ele><time>2026-04-11T14:23:09Z</time></trkpt><trkpt lat="41.3358066367725" lon="13.876814111297367"><ele>23.0</ele><time>2026-04-11T14:23:10Z</time></trkpt><trkpt lat="41.33567378176544" lon="13.876825894827041"><ele>23.5</ele><time>2026-04-11T14:23:11Z</time></trkpt><trkpt lat="41.335519084812866" lon="13.876801087377522"><ele>24.0</ele><time>2026-04-11T14:23:12Z</time></trkpt><trkpt lat="41.335353441581276" lon="13.876752902627063"><ele>24.0</ele><time>2026-04-11T14:23:13Z</time></trkpt><trkpt lat="41.335187174763824" lon="13.876692505456273"><ele>24.0</ele><time>2026-04-11T14:23:14Z</time></trkpt><trkpt lat="41.33503617755881" lon="13.876643296555974"><ele>24.0</ele><time>2026-04-11T14:23:15Z</time></trkpt><trkpt lat="41.33488994151986" lon="13.876604655568764"><ele>24.0</ele><time>2026-04-11T14:23:16Z</time></trkpt><trkpt lat="41.33473608472791" lon="13.876610488186486"><ele>24.0</ele><time>2026-04-11T14:23:17Z</time></trkpt><trkpt lat="41.33459592624646" lon="13.87665383231002"><ele>24.0</ele><time>2026-04-11T14:23:18Z</time></trkpt><trkpt lat="41.33444754829965" lon="13.876752408823336"><ele>26.333333333333336</ele><time>2026-04-11T14:23:19Z</time></trkpt><trkpt lat="41.334289322172395" lon="13.87688841365152"><ele>28.666666666666668</ele><time>2026-04-11T14:23:20Z</time></trkpt><trkpt lat="41.334117961087294" lon="13.877035675056085"><ele>31.0</ele><time>2026-04-11T14:23:21Z</time></trkpt><trkpt lat="41.33396187914491" lon="13.877165451102954"><ele>29.333333333333336</ele><time>2026-04-11T14:23:22Z</time></trkpt><trkpt lat="41.33381252512533" lon="13.877271670905499"><ele>27.666666666666664</ele><time>2026-04-11T14:23:23Z</time></trkpt><trkpt lat="41.33367872835903" lon="13.877315643815436"><ele>26.0</ele><time>2026-04-11T14:23:24Z</time></trkpt><trkpt lat="41.333521405807" lon="13.877350080455033"><ele>26.0</ele><time>2026-04-11T14:23:25Z</time></trkpt><trkpt lat="41.33333520904087" lon="13.877350733049077"><ele>26.0</ele><time>2026-04-11T14:23:26Z</time></trkpt><trkpt lat="41.33315820244838" lon="13.87734450575879"><ele>26.0</ele><time>2026-04-11T14:23:27Z</time></trkpt><trkpt lat="41.333001172699284" lon="13.877363425571978"><ele>24.666666666666664</ele><time>2026-04-11T14:23:28Z</time></trkpt><trkpt lat="41.33285735302277" lon="13.87741550943725"><ele>23.333333333333332</ele><time>2026-04-11T14:23:29Z</time></trkpt><trkpt lat="41.33273235180258" lon="13.877519763418857"><ele>22.0</ele><time>2026-04-11T14:23:30Z</time></trkpt><trkpt lat="41.33260412244432" lon="13.87763195286361"><ele>25.0</ele><time>2026-04-11T14:23:31Z</time></trkpt><trkpt lat="41.33246853587874" lon="13.877696626506456"><ele>28.0</ele><time>2026-04-11T14:23:32Z</time></trkpt><trkpt lat="41.33230764720205" lon="13.877716431477197"><ele>31.0</ele><time>2026-04-11T14:23:33Z</time></trkpt><trkpt lat="41.33211956631623" lon="13.877734053567796"><ele>31.0</ele><time>2026-04-11T14:23:34Z</time></trkpt><trkpt lat="41.33193363706573" lon="13.877785562885006"><ele>31.0</ele><time>2026-04-11T14:23:35Z</time></trkpt><trkpt lat="41.331739767303176" lon="13.877855131802317"><ele>31.0</ele><time>2026-04-11T14:23:36Z</time></trkpt><trkpt lat="41.33154156551903" lon="13.877947801495955"><ele>29.0</ele><time>2026-04-11T14:23:37Z</time></trkpt><trkpt lat="41.33133876821714" lon="13.878061063971531"><ele>27.0</ele><time>2026-04-11T14:23:38Z</time></trkpt><trkpt lat="41.33114219241029" lon="13.878156699116143"><ele>25.0</ele><time>2026-04-11T14:23:39Z</time></trkpt><trkpt lat="41.33095897260196" lon="13.878238046118895"><ele>25.0</ele><time>2026-04-11T14:23:40Z</time></trkpt><trkpt lat="41.33078362798828" lon="13.878314894065142"><ele>25.0</ele><time>2026-04-11T14:23:41Z</time></trkpt><trkpt lat="41.330610513836" lon="13.8783949938014"><ele>25.0</ele><time>2026-04-11T14:23:42Z</time></trkpt><trkpt lat="41.330434677569144" lon="13.87851131989047"><ele>26.333333333333336</ele><time>2026-04-11T14:23:43Z</time></trkpt><trkpt lat="41.330260599949504" lon="13.878643958885542"><ele>27.666666666666664</ele><time>2026-04-11T14:23:44Z</time></trkpt><trkpt lat="41.33008586701034" lon="13.878781557952733"><ele>29.0</ele><time>2026-04-11T14:23:45Z</time></trkpt><trkpt lat="41.329928849349095" lon="13.878916277043919"><ele>29.0</ele><time>2026-04-11T14:23:46Z</time></trkpt><trkpt lat="41.329773898798074" lon="13.879036856501395"><ele>29.0</ele><time>2026-04-11T14:23:47Z</time></trkpt><trkpt lat="41.32962322892639" lon="13.879146744415614"><ele>29.0</ele><time>2026-04-11T14:23:48Z</time></trkpt><trkpt lat="41.32947095433105" lon="13.87924836718607"><ele>30.666666666666664</ele><time>2026-04-11T14:23:49.001Z</time></trkpt><trkpt lat="41.32930881704648" lon="13.879327990209404"><ele>32.333333333333336</ele><time>2026-04-11T14:23:50.001Z</time></trkpt><trkpt lat="41.32914831584814" lon="13.879376977303744"><ele>34.0</ele><time>2026-04-11T14:23:51.001Z</time></trkpt><trkpt lat="41.32898616468164" lon="13.879430563830994"><ele>29.666666666666668</ele><time>2026-04-11T14:23:52.001Z</time></trkpt><trkpt lat="41.328831308961625" lon="13.879532504309045"><ele>25.333333333333336</ele><time>2026-04-11T14:23:53.001Z</time></trkpt><trkpt lat="41.32868961962195" lon="13.879673732833808"><ele>21.0</ele><time>2026-04-11T14:23:54.001Z</time></trkpt><trkpt lat="41.328559374375374" lon="13.879844061755932"><ele>21.0</ele><time>2026-04-11T14:23:55.001Z</time></trkpt><trkpt lat="41.32843664129209" lon="13.880048750366921"><ele>21.0</ele><time>2026-04-11T14:23:56.001Z</time></trkpt><trkpt lat="41.32830400655235" lon="13.880262533219852"><ele>21.0</ele><time>2026-04-11T14:23:57.001Z</time></trkpt><trkpt lat="41.32816893750856" lon="13.880458269317524"><ele>21.0</ele><time>2026-04-11T14:23:58.001Z</time></trkpt><trkpt lat="41.328047256815275" lon="13.88064731808992"><ele>21.0</ele><time>2026-04-11T14:23:59.001Z</time></trkpt><trkpt lat="41.32793381769837" lon="13.880850567350933"><ele>21.0</ele><time>2026-04-11T14:24:00.001Z</time></trkpt><trkpt lat="41.32783538919751" lon="13.881041229818006"><ele>21.0</ele><time>2026-04-11T14:24:01.001Z</time></trkpt><trkpt lat="41.32771778045886" lon="13.881215810040253"><ele>21.0</ele><time>2026-04-11T14:24:02.001Z</time></trkpt><trkpt lat="41.32762255032399" lon="13.881419895189673"><ele>21.0</ele><time>2026-04-11T14:24:03.001Z</time></trkpt><trkpt lat="41.32748932885534" lon="13.881597425668538"><ele>20.0</ele><time>2026-04-11T14:24:04.001Z</time></trkpt><trkpt lat="41.327334063352815" lon="13.881766843095859"><ele>19.0</ele><time>2026-04-11T14:24:05.001Z</time></trkpt><trkpt lat="41.32716617371266" lon="13.881923254812948"><ele>18.0</ele><time>2026-04-11T14:24:06.001Z</time></trkpt><trkpt lat="41.327004013195484" lon="13.882100394769026"><ele>18.0</ele><time>2026-04-11T14:24:07.001Z</time></trkpt><trkpt lat="41.326845569353" lon="13.882247565598963"><ele>18.0</ele><time>2026-04-11T14:24:08.001Z</time></trkpt><trkpt lat="41.32670951093487" lon="13.882366385872421"><ele>18.0</ele><time>2026-04-11T14:24:09.001Z</time></trkpt><trkpt lat="41.3266027143269" lon="13.882487563675266"><ele>21.0</ele><time>2026-04-11T14:24:10.001Z</time></trkpt><trkpt lat="41.326524908130324" lon="13.882623328455537"><ele>24.0</ele><time>2026-04-11T14:24:11.001Z</time></trkpt><trkpt lat="41.32646560009555" lon="13.882818500930052"><ele>27.0</ele><time>2026-04-11T14:24:12.001Z</time></trkpt><trkpt lat="41.32642382916933" lon="13.883034590471333"><ele>24.0</ele><time>2026-04-11T14:24:13.001Z</time></trkpt><trkpt lat="41.32637342138093" lon="13.883262866708463"><ele>21.0</ele><time>2026-04-11T14:24:14.001Z</time></trkpt><trkpt lat="41.32631312740402" lon="13.883458599078109"><ele>18.0</ele><time>2026-04-11T14:24:15.001Z</time></trkpt><trkpt lat="41.32623729250284" lon="13.883624353329473"><ele>18.0</ele><time>2026-04-11T14:24:16.001Z</time></trkpt><trkpt lat="41.326161494346" lon="13.883776848579886"><ele>18.0</ele><time>2026-04-11T14:24:17.001Z</time></trkpt><trkpt lat="41.326100494291715" lon="13.88391660226619"><ele>18.0</ele><time>2026-04-11T14:24:18.001Z</time></trkpt><trkpt lat="41.32607952854945" lon="13.884073039946028"><ele>18.0</ele><time>2026-04-11T14:24:19.001Z</time></trkpt><trkpt lat="41.326087460461366" lon="13.88427806719466"><ele>19.0</ele><time>2026-04-11T14:24:20.001Z</time></trkpt><trkpt lat="41.32612190749218" lon="13.88450936197635"><ele>20.0</ele><time>2026-04-11T14:24:21.001Z</time></trkpt><trkpt lat="41.32615353113663" lon="13.884763771647576"><ele>21.0</ele><time>2026-04-11T14:24:22.001Z</time></trkpt><trkpt lat="41.3261873193385" lon="13.885037499170721"><ele>20.0</ele><time>2026-04-11T14:24:23.001Z</time></trkpt><trkpt lat="41.32622071620488" lon="13.885333823490239"><ele>19.0</ele><time>2026-04-11T14:24:24.001Z</time></trkpt><trkpt lat="41.32626200992676" lon="13.885618813812783"><ele>18.0</ele><time>2026-04-11T14:24:25.001Z</time></trkpt><trkpt lat="41.32629394030133" lon="13.885895773640653"><ele>18.333333333333332</ele><time>2026-04-11T14:24:26.001Z</time></trkpt><trkpt lat="41.32632764242461" lon="13.886156490118404"><ele>18.666666666666664</ele><time>2026-04-11T14:24:27.001Z</time></trkpt><trkpt lat="41.32636011827519" lon="13.886386185214697"><ele>19.0</ele><time>2026-04-11T14:24:28.001Z</time></trkpt><trkpt lat="41.32638563513461" lon="13.886603575690067"><ele>22.333333333333332</ele><time>2026-04-11T14:24:29.001Z</time></trkpt><trkpt lat="41.3264124548414" lon="13.886820599790223"><ele>25.666666666666664</ele><time>2026-04-11T14:24:30.001Z</time></trkpt><trkpt lat="41.32643195980911" lon="13.887034224687548"><ele>29.0</ele><time>2026-04-11T14:24:31.001Z</time></trkpt><trkpt lat="41.32645335727713" lon="13.887220124865234"><ele>29.0</ele><time>2026-04-11T14:24:32.001Z</time></trkpt><trkpt lat="41.326456376196525" lon="13.887403659843422"><ele>29.0</ele><time>2026-04-11T14:24:33.001Z</time></trkpt><trkpt lat="41.32644112145597" lon="13.887585118758468"><ele>29.0</ele><time>2026-04-11T14:24:34.001Z</time></trkpt><trkpt lat="41.326401845339284" lon="13.8877540041995"><ele>29.0</ele><time>2026-04-11T14:24:35.001Z</time></trkpt><trkpt lat="41.32636656275078" lon="13.887907254597689"><ele>27.799999999999997</ele><time>2026-04-11T14:24:36.001Z</time></trkpt><trkpt lat="41.326333273888594" lon="13.888048480819096"><ele>26.599999999999998</ele><time>2026-04-11T14:24:37.001Z</time></trkpt><trkpt lat="41.326306774845136" lon="13.888187472202697"><ele>25.4</ele><time>2026-04-11T14:24:38.001Z</time></trkpt><trkpt lat="41.3262684737585" lon="13.888295108024172"><ele>24.2</ele><time>2026-04-11T14:24:39.001Z</time></trkpt><trkpt lat="41.32619314418528" lon="13.888383725636341"><ele>23.0</ele><time>2026-04-11T14:24:40.001Z</time></trkpt><trkpt lat="41.326089872613444" lon="13.888444672032376"><ele>22.75</ele><time>2026-04-11T14:24:41.001Z</time></trkpt><trkpt lat="41.32596247432591" lon="13.888475525235144"><ele>22.5</ele><time>2026-04-11T14:24:42.001Z</time></trkpt><trkpt lat="41.32580962149346" lon="13.888475761769516"><ele>22.25</ele><time>2026-04-11T14:24:43.001Z</time></trkpt><trkpt lat="41.32564481980622" lon="13.888456292457082"><ele>22.0</ele><time>2026-04-11T14:24:44.001Z</time></trkpt><trkpt lat="41.32547065003425" lon="13.88840697265398"><ele>21.0</ele><time>2026-04-11T14:24:45.001Z</time></trkpt><trkpt lat="41.32530249257661" lon="13.888359747414109"><ele>20.0</ele><time>2026-04-11T14:24:46.002Z</time></trkpt><trkpt lat="41.32512928847245" lon="13.88831705477416"><ele>19.0</ele><time>2026-04-11T14:24:47.002Z</time></trkpt><trkpt lat="41.324966104193216" lon="13.888275727236435"><ele>19.0</ele><time>2026-04-11T14:24:48.002Z</time></trkpt><trkpt lat="41.32481039467651" lon="13.888224555923312"><ele>19.0</ele><time>2026-04-11T14:24:49.002Z</time></trkpt><trkpt lat="41.32465395990027" lon="13.888167519906402"><ele>19.0</ele><time>2026-04-11T14:24:50.002Z</time></trkpt><trkpt lat="41.324480773787435" lon="13.888135740910942"><ele>19.666666666666664</ele><time>2026-04-11T14:24:51.002Z</time></trkpt><trkpt lat="41.32429149409242" lon="13.888140519043526"><ele>20.333333333333332</ele><time>2026-04-11T14:24:52.002Z</time></trkpt><trkpt lat="41.32408053777324" lon="13.888129156252537"><ele>21.0</ele><time>2026-04-11T14:24:53.002Z</time></trkpt><trkpt lat="41.323879271457464" lon="13.888124272289128"><ele>21.333333333333332</ele><time>2026-04-11T14:24:54.002Z</time></trkpt><trkpt lat="41.32369161730956" lon="13.888114942307656"><ele>21.666666666666664</ele><time>2026-04-11T14:24:55.002Z</time></trkpt><trkpt lat="41.323516469950974" lon="13.88810896398799"><ele>22.0</ele><time>2026-04-11T14:24:56.002Z</time></trkpt><trkpt lat="41.323358019674885" lon="13.888113609196253"><ele>22.0</ele><time>2026-04-11T14:24:57.002Z</time></trkpt><trkpt lat="41.32321018349437" lon="13.888146825885139"><ele>22.0</ele><time>2026-04-11T14:24:58.002Z</time></trkpt><trkpt lat="41.32305644681005" lon="13.888191432820179"><ele>22.0</ele><time>2026-04-11T14:24:59.002Z</time></trkpt><trkpt lat="41.32288519122376" lon="13.888234112007133"><ele>22.0</ele><time>2026-04-11T14:25:00.002Z</time></trkpt><trkpt lat="41.32271640783902" lon="13.888256490564979"><ele>22.0</ele><time>2026-04-11T14:25:01.002Z</time></trkpt><trkpt lat="41.32254261436145" lon="13.888244329244815"><ele>22.0</ele><time>2026-04-11T14:25:02.002Z</time></trkpt><trkpt lat="41.32236750004018" lon="13.888214814608068"><ele>22.0</ele><time>2026-04-11T14:25:03.002Z</time></trkpt><trkpt lat="41.322217369430206" lon="13.888173419125398"><ele>22.0</ele><time>2026-04-11T14:25:04.002Z</time></trkpt><trkpt lat="41.322082279294" lon="13.888150519909944"><ele>22.0</ele><time>2026-04-11T14:25:05.002Z</time></trkpt><trkpt lat="41.32193589183541" lon="13.888173231901062"><ele>22.0</ele><time>2026-04-11T14:25:06.002Z</time></trkpt><trkpt lat="41.32176304065329" lon="13.888245640134423"><ele>22.0</ele><time>2026-04-11T14:25:07.002Z</time></trkpt><trkpt lat="41.321602866666595" lon="13.888354399019724"><ele>22.0</ele><time>2026-04-11T14:25:08Z</time></trkpt><trkpt lat="41.32144228280077" lon="13.888467167171607"><ele>22.0</ele><time>2026-04-11T14:25:09Z</time></trkpt><trkpt lat="41.321267355769834" lon="13.888542896229685"><ele>26.333333333333332</ele><time>2026-04-11T14:25:10Z</time></trkpt><trkpt lat="41.32108168025286" lon="13.888612053006156"><ele>30.666666666666664</ele><time>2026-04-11T14:25:11Z</time></trkpt><trkpt lat="41.32090358227887" lon="13.888666290492303"><ele>35.0</ele><time>2026-04-11T14:25:12Z</time></trkpt><trkpt lat="41.32073926518622" lon="13.888695176639054"><ele>35.0</ele><time>2026-04-11T14:25:13Z</time></trkpt><trkpt lat="41.32058690657587" lon="13.888726505580417"><ele>35.0</ele><time>2026-04-11T14:25:14Z</time></trkpt><trkpt lat="41.320446686863164" lon="13.888743712023235"><ele>35.0</ele><time>2026-04-11T14:25:15Z</time></trkpt><trkpt lat="41.32030971754458" lon="13.888793288733302"><ele>35.0</ele><time>2026-04-11T14:25:16Z</time></trkpt><trkpt lat="41.320157572611755" lon="13.888898174552159"><ele>31.333333333333332</ele><time>2026-04-11T14:25:17Z</time></trkpt><trkpt lat="41.32001541150591" lon="13.889034524083513"><ele>27.666666666666664</ele><time>2026-04-11T14:25:18Z</time></trkpt><trkpt lat="41.31986291110774" lon="13.889199400496265"><ele>24.0</ele><time>2026-04-11T14:25:19Z</time></trkpt><trkpt lat="41.31971460012213" lon="13.889370947818996"><ele>24.0</ele><time>2026-04-11T14:25:20Z</time></trkpt><trkpt lat="41.31955784893509" lon="13.889550562880268"><ele>24.0</ele><time>2026-04-11T14:25:21Z</time></trkpt><trkpt lat="41.319398312491465" lon="13.889736647847332"><ele>24.0</ele><time>2026-04-11T14:25:22Z</time></trkpt><trkpt lat="41.31923766022474" lon="13.889900034819298"><ele>24.0</ele><time>2026-04-11T14:25:23Z</time></trkpt><trkpt lat="41.319074731761425" lon="13.890054343270645"><ele>24.0</ele><time>2026-04-11T14:25:24Z</time></trkpt><trkpt lat="41.31890473511305" lon="13.890207766619302"><ele>24.0</ele><time>2026-04-11T14:25:25Z</time></trkpt><trkpt lat="41.31873315580125" lon="13.890356297457636"><ele>25.333333333333336</ele><time>2026-04-11T14:25:26Z</time></trkpt><trkpt lat="41.31856603131704" lon="13.890505053923938"><ele>26.666666666666668</ele><time>2026-04-11T14:25:27Z</time></trkpt><trkpt lat="41.318402777471256" lon="13.890658901057753"><ele>28.0</ele><time>2026-04-11T14:25:28Z</time></trkpt><trkpt lat="41.31823109189082" lon="13.890825394651081"><ele>27.666666666666668</ele><time>2026-04-11T14:25:29Z</time></trkpt><trkpt lat="41.31806210622624" lon="13.890987903906945"><ele>27.333333333333336</ele><time>2026-04-11T14:25:30Z</time></trkpt><trkpt lat="41.31789831436527" lon="13.891144261276256"><ele>27.0</ele><time>2026-04-11T14:25:31Z</time></trkpt><trkpt lat="41.31773587125253" lon="13.891296161785364"><ele>27.0</ele><time>2026-04-11T14:25:32Z</time></trkpt><trkpt lat="41.31756853604569" lon="13.891448141169485"><ele>27.0</ele><time>2026-04-11T14:25:33Z</time></trkpt><trkpt lat="41.31740257423946" lon="13.8915878649283"><ele>27.0</ele><time>2026-04-11T14:25:34Z</time></trkpt><trkpt lat="41.31723701774444" lon="13.891718584610572"><ele>28.0</ele><time>2026-04-11T14:25:35Z</time></trkpt><trkpt lat="41.317076315256344" lon="13.891848723536235"><ele>29.0</ele><time>2026-04-11T14:25:36Z</time></trkpt><trkpt lat="41.3169245927372" lon="13.89197820018301"><ele>30.0</ele><time>2026-04-11T14:25:37Z</time></trkpt><trkpt lat="41.31675975129799" lon="13.89210951794188"><ele>30.0</ele><time>2026-04-11T14:25:38Z</time></trkpt><trkpt lat="41.31658648796261" lon="13.892235119880699"><ele>30.0</ele><time>2026-04-11T14:25:39Z</time></trkpt><trkpt lat="41.3164100661018" lon="13.892353242559578"><ele>30.0</ele><time>2026-04-11T14:25:40Z</time></trkpt><trkpt lat="41.316246419453456" lon="13.8924555376745"><ele>26.666666666666668</ele><time>2026-04-11T14:25:41Z</time></trkpt><trkpt lat="41.31607712050803" lon="13.892568262593604"><ele>23.333333333333336</ele><time>2026-04-11T14:25:42Z</time></trkpt><trkpt lat="41.315910247519525" lon="13.892674796299092"><ele>20.0</ele><time>2026-04-11T14:25:43Z</time></trkpt><trkpt lat="41.31573062457676" lon="13.8927769491571"><ele>23.333333333333336</ele><time>2026-04-11T14:25:44Z</time></trkpt><trkpt lat="41.31555196472614" lon="13.892874432251183"><ele>26.666666666666668</ele><time>2026-04-11T14:25:45Z</time></trkpt><trkpt lat="41.31538548971569" lon="13.892956796940888"><ele>30.0</ele><time>2026-04-11T14:25:46Z</time></trkpt><trkpt lat="41.31523644936001" lon="13.893036828516774"><ele>30.0</ele><time>2026-04-11T14:25:47Z</time></trkpt><trkpt lat="41.31510941108675" lon="13.893099293896354"><ele>30.0</ele><time>2026-04-11T14:25:48Z</time></trkpt><trkpt lat="41.31500391666077" lon="13.893160663222243"><ele>30.0</ele><time>2026-04-11T14:25:49Z</time></trkpt><trkpt lat="41.31487800497691" lon="13.893246583983398"><ele>30.0</ele><time>2026-04-11T14:25:50Z</time></trkpt><trkpt lat="41.314762491941195" lon="13.893366915330336"><ele>25.666666666666668</ele><time>2026-04-11T14:25:51.001Z</time></trkpt><trkpt lat="41.31465368917676" lon="13.893524482460014"><ele>21.333333333333336</ele><time>2026-04-11T14:25:52.001Z</time></trkpt><trkpt lat="41.31456723499739" lon="13.89369520246688"><ele>17.0</ele><time>2026-04-11T14:25:53.001Z</time></trkpt><trkpt lat="41.31450316810913" lon="13.893861930515758"><ele>17.0</ele><time>2026-04-11T14:25:54.001Z</time></trkpt><trkpt lat="41.31444047546221" lon="13.894026254915907"><ele>17.0</ele><time>2026-04-11T14:25:55.001Z</time></trkpt><trkpt lat="41.314345850133634" lon="13.894179845501762"><ele>17.0</ele><time>2026-04-11T14:25:56.001Z</time></trkpt><trkpt lat="41.31424359315423" lon="13.894306994258454"><ele>17.0</ele><time>2026-04-11T14:25:57.001Z</time></trkpt><trkpt lat="41.31414708250166" lon="13.894420572486808"><ele>17.5</ele><time>2026-04-11T14:25:58.001Z</time></trkpt><trkpt lat="41.3140537612676" lon="13.894527104539485"><ele>18.0</ele><time>2026-04-11T14:25:59.001Z</time></trkpt><trkpt lat="41.313955066580704" lon="13.894644773680572"><ele>18.5</ele><time>2026-04-11T14:26:00.001Z</time></trkpt><trkpt lat="41.31385729852886" lon="13.894757117736289"><ele>19.0</ele><time>2026-04-11T14:26:01.001Z</time></trkpt><trkpt lat="41.31375328091417" lon="13.894878761204932"><ele>19.0</ele><time>2026-04-11T14:26:02.001Z</time></trkpt><trkpt lat="41.313649135581116" lon="13.894999958185034"><ele>19.0</ele><time>2026-04-11T14:26:03.001Z</time></trkpt><trkpt lat="41.31354215110632" lon="13.895127271827432"><ele>19.0</ele><time>2026-04-11T14:26:04.001Z</time></trkpt><trkpt lat="41.313431346192296" lon="13.895255633108471"><ele>19.0</ele><time>2026-04-11T14:26:05.001Z</time></trkpt><trkpt lat="41.31330457970535" lon="13.895375743881992"><ele>21.666666666666664</ele><time>2026-04-11T14:26:06.001Z</time></trkpt><trkpt lat="41.31316450292669" lon="13.895497383071046"><ele>24.333333333333332</ele><time>2026-04-11T14:26:07.001Z</time></trkpt><trkpt lat="41.313002834256444" lon="13.895599107704456"><ele>27.0</ele><time>2026-04-11T14:26:08.001Z</time></trkpt><trkpt lat="41.312840203216844" lon="13.895697126574152"><ele>27.0</ele><time>2026-04-11T14:26:09.001Z</time></trkpt><trkpt lat="41.31266655150197" lon="13.89580050434769"><ele>27.0</ele><time>2026-04-11T14:26:10.001Z</time></trkpt><trkpt lat="41.31249057701111" lon="13.895910060697062"><ele>27.0</ele><time>2026-04-11T14:26:11.001Z</time></trkpt><trkpt lat="41.31232955769023" lon="13.896013912055967"><ele>29.0</ele><time>2026-04-11T14:26:12.001Z</time></trkpt><trkpt lat="41.31218632364198" lon="13.896115115846145"><ele>31.0</ele><time>2026-04-11T14:26:13.001Z</time></trkpt><trkpt lat="41.31204649223431" lon="13.896203188655813"><ele>33.0</ele><time>2026-04-11T14:26:14.001Z</time></trkpt><trkpt lat="41.311886440558176" lon="13.896260254618099"><ele>33.0</ele><time>2026-04-11T14:26:15.001Z</time></trkpt><trkpt lat="41.311721603644195" lon="13.896302832914714"><ele>33.0</ele><time>2026-04-11T14:26:16.001Z</time></trkpt><trkpt lat="41.311548019924274" lon="13.896333104948033"><ele>33.0</ele><time>2026-04-11T14:26:17.001Z</time></trkpt><trkpt lat="41.311363337580765" lon="13.89634177385274"><ele>32.0</ele><time>2026-04-11T14:26:18.001Z</time></trkpt><trkpt lat="41.31118177933482" lon="13.896366151115306"><ele>31.0</ele><time>2026-04-11T14:26:19.001Z</time></trkpt><trkpt lat="41.31100035106144" lon="13.896371317255827"><ele>30.0</ele><time>2026-04-11T14:26:20.001Z</time></trkpt><trkpt lat="41.310829676421505" lon="13.89636071021384"><ele>30.0</ele><time>2026-04-11T14:26:21.001Z</time></trkpt><trkpt lat="41.31065646915645" lon="13.896350024096243"><ele>30.0</ele><time>2026-04-11T14:26:22.001Z</time></trkpt><trkpt lat="41.31048485932653" lon="13.896328209868575"><ele>30.0</ele><time>2026-04-11T14:26:23.001Z</time></trkpt><trkpt lat="41.31030492858742" lon="13.896259293168608"><ele>29.333333333333336</ele><time>2026-04-11T14:26:24.001Z</time></trkpt><trkpt lat="41.31012524693249" lon="13.896157434764035"><ele>28.666666666666668</ele><time>2026-04-11T14:26:25.001Z</time></trkpt><trkpt lat="41.309935433805585" lon="13.896036433338509"><ele>28.0</ele><time>2026-04-11T14:26:26.001Z</time></trkpt><trkpt lat="41.30973688960429" lon="13.895910505572305"><ele>22.5</ele><time>2026-04-11T14:26:27.001Z</time></trkpt><trkpt lat="41.309534626918854" lon="13.895780376866286"><ele>17.0</ele><time>2026-04-11T14:26:28.001Z</time></trkpt><trkpt lat="41.30932363760803" lon="13.895648543121409"><ele>17.0</ele><time>2026-04-11T14:26:29.001Z</time></trkpt><trkpt lat="41.30911627924819" lon="13.895525353664693"><ele>17.0</ele><time>2026-04-11T14:26:30.001Z</time></trkpt><trkpt lat="41.308905086801815" lon="13.895385248846086"><ele>25.0</ele><time>2026-04-11T14:26:31.001Z</time></trkpt><trkpt lat="41.30868643283722" lon="13.895249173143267"><ele>33.0</ele><time>2026-04-11T14:26:32.001Z</time></trkpt><trkpt lat="41.308484876514726" lon="13.895116217010706"><ele>31.666666666666664</ele><time>2026-04-11T14:26:33.001Z</time></trkpt><trkpt lat="41.30829476894542" lon="13.89499633540265"><ele>30.333333333333332</ele><time>2026-04-11T14:26:34.001Z</time></trkpt><trkpt lat="41.30811032708086" lon="13.894875626895509"><ele>29.0</ele><time>2026-04-11T14:26:35.001Z</time></trkpt><trkpt lat="41.307925492663834" lon="13.89475924607622"><ele>29.0</ele><time>2026-04-11T14:26:36.001Z</time></trkpt><trkpt lat="41.307742384907655" lon="13.89464634798948"><ele>29.0</ele><time>2026-04-11T14:26:37.001Z</time></trkpt><trkpt lat="41.30755941155422" lon="13.894535543216929"><ele>29.0</ele><time>2026-04-11T14:26:38.001Z</time></trkpt><trkpt lat="41.30737109924743" lon="13.894434220304824"><ele>26.333333333333332</ele><time>2026-04-11T14:26:39.001Z</time></trkpt><trkpt lat="41.307180025353254" lon="13.894342690632696"><ele>23.666666666666664</ele><time>2026-04-11T14:26:40.001Z</time></trkpt><trkpt lat="41.30697836948205" lon="13.894245350365152"><ele>21.0</ele><time>2026-04-11T14:26:41.001Z</time></trkpt><trkpt lat="41.30678505588498" lon="13.894142183706824"><ele>21.0</ele><time>2026-04-11T14:26:42.001Z</time></trkpt><trkpt lat="41.30658130392805" lon="13.894040819656418"><ele>21.0</ele><time>2026-04-11T14:26:43.001Z</time></trkpt><trkpt lat="41.30637843615149" lon="13.893941333472947"><ele>21.0</ele><time>2026-04-11T14:26:44.001Z</time></trkpt><trkpt lat="41.30617577545516" lon="13.893844424664325"><ele>21.666666666666668</ele><time>2026-04-11T14:26:45.001Z</time></trkpt><trkpt lat="41.305974119542" lon="13.893755792282347"><ele>22.333333333333336</ele><time>2026-04-11T14:26:46.001Z</time></trkpt><trkpt lat="41.3057634354508" lon="13.893657418986747"><ele>23.0</ele><time>2026-04-11T14:26:47.001Z</time></trkpt><trkpt lat="41.305549140656396" lon="13.893552669728741"><ele>20.5</ele><time>2026-04-11T14:26:48.001Z</time></trkpt><trkpt lat="41.305334036379485" lon="13.893444934252194"><ele>18.0</ele><time>2026-04-11T14:26:49.001Z</time></trkpt><trkpt lat="41.305119434480986" lon="13.893331207153803"><ele>18.0</ele><time>2026-04-11T14:26:50.001Z</time></trkpt><trkpt lat="41.3048943066682" lon="13.893225539929485"><ele>18.0</ele><time>2026-04-11T14:26:51.002Z</time></trkpt><trkpt lat="41.304670588735604" lon="13.893116292559247"><ele>23.0</ele><time>2026-04-11T14:26:52.002Z</time></trkpt><trkpt lat="41.30444146680435" lon="13.893008898457172"><ele>28.0</ele><time>2026-04-11T14:26:53.002Z</time></trkpt><trkpt lat="41.304213152475846" lon="13.892907230563164"><ele>28.0</ele><time>2026-04-11T14:26:54.002Z</time></trkpt><trkpt lat="41.30398719465697" lon="13.89279742552207"><ele>28.0</ele><time>2026-04-11T14:26:55.002Z</time></trkpt><trkpt lat="41.30376327799389" lon="13.892683608338736"><ele>23.5</ele><time>2026-04-11T14:26:56.002Z</time></trkpt><trkpt lat="41.30353352299318" lon="13.89256864183474"><ele>19.0</ele><time>2026-04-11T14:26:57.002Z</time></trkpt><trkpt lat="41.30330401614082" lon="13.892451561293273"><ele>23.0</ele><time>2026-04-11T14:26:58.002Z</time></trkpt><trkpt lat="41.30308042081722" lon="13.89234288965477"><ele>27.0</ele><time>2026-04-11T14:26:59.002Z</time></trkpt><trkpt lat="41.302863741798504" lon="13.892234960578357"><ele>27.0</ele><time>2026-04-11T14:27:00.002Z</time></trkpt><trkpt lat="41.3026457679485" lon="13.892125724872601"><ele>27.0</ele><time>2026-04-11T14:27:01.002Z</time></trkpt><trkpt lat="41.30244410274589" lon="13.892023275584913"><ele>27.0</ele><time>2026-04-11T14:27:02.002Z</time></trkpt><trkpt lat="41.302242846096874" lon="13.89191873364896"><ele>28.333333333333336</ele><time>2026-04-11T14:27:03.002Z</time></trkpt><trkpt lat="41.302043075785214" lon="13.891825689271137"><ele>29.666666666666668</ele><time>2026-04-11T14:27:04.002Z</time></trkpt><trkpt lat="41.30184963007666" lon="13.89174292109632"><ele>31.0</ele><time>2026-04-11T14:27:05.002Z</time></trkpt><trkpt lat="41.30164926539607" lon="13.891689116953199"><ele>27.666666666666668</ele><time>2026-04-11T14:27:06.002Z</time></trkpt><trkpt lat="41.301431639249024" lon="13.891666468660228"><ele>24.333333333333336</ele><time>2026-04-11T14:27:07.002Z</time></trkpt><trkpt lat="41.3012012915889" lon="13.891660145721612"><ele>21.0</ele><time>2026-04-11T14:27:08.002Z</time></trkpt><trkpt lat="41.30098159481454" lon="13.891665511001277"><ele>20.0</ele><time>2026-04-11T14:27:09.002Z</time></trkpt><trkpt lat="41.30077157584935" lon="13.89166334827456"><ele>19.0</ele><time>2026-04-11T14:27:10.002Z</time></trkpt><trkpt lat="41.30057628297752" lon="13.891659145654039"><ele>18.0</ele><time>2026-04-11T14:27:11.002Z</time></trkpt><trkpt lat="41.30039556255376" lon="13.891653482089135"><ele>17.333333333333332</ele><time>2026-04-11T14:27:12.002Z</time></trkpt><trkpt lat="41.30020574530092" lon="13.891656145780754"><ele>16.666666666666664</ele><time>2026-04-11T14:27:13.002Z</time></trkpt><trkpt lat="41.30000577091329" lon="13.8916797756335"><ele>16.0</ele><time>2026-04-11T14:27:14Z</time></trkpt><trkpt lat="41.29980379920099" lon="13.891736452558652"><ele>18.666666666666664</ele><time>2026-04-11T14:27:15Z</time></trkpt><trkpt lat="41.29960164035659" lon="13.891805181977745"><ele>21.333333333333332</ele><time>2026-04-11T14:27:16Z</time></trkpt><trkpt lat="41.29939039377387" lon="13.89187201838871"><ele>24.0</ele><time>2026-04-11T14:27:17Z</time></trkpt><trkpt lat="41.29917716232779" lon="13.891939916722208"><ele>24.0</ele><time>2026-04-11T14:27:18Z</time></trkpt><trkpt lat="41.29896163701082" lon="13.892015950311823"><ele>24.0</ele><time>2026-04-11T14:27:19Z</time></trkpt><trkpt lat="41.29873751628924" lon="13.89208823554947"><ele>22.666666666666668</ele><time>2026-04-11T14:27:20Z</time></trkpt><trkpt lat="41.29854163755005" lon="13.892150079684436"><ele>21.333333333333336</ele><time>2026-04-11T14:27:21Z</time></trkpt><trkpt lat="41.29836318815788" lon="13.892214010974413"><ele>20.0</ele><time>2026-04-11T14:27:22Z</time></trkpt><trkpt lat="41.2981894273847" lon="13.892281855950559"><ele>20.333333333333336</ele><time>2026-04-11T14:27:23Z</time></trkpt><trkpt lat="41.298022234533775" lon="13.892345993629695"><ele>20.666666666666668</ele><time>2026-04-11T14:27:24Z</time></trkpt><trkpt lat="41.29785536771727" lon="13.892408473873122"><ele>21.0</ele><time>2026-04-11T14:27:25Z</time></trkpt><trkpt lat="41.29769102821022" lon="13.892454650820639"><ele>21.0</ele><time>2026-04-11T14:27:26Z</time></trkpt><trkpt lat="41.297498355108715" lon="13.892477738499954"><ele>21.0</ele><time>2026-04-11T14:27:27Z</time></trkpt><trkpt lat="41.29733027938559" lon="13.892469880540425"><ele>21.0</ele><time>2026-04-11T14:27:28Z</time></trkpt><trkpt lat="41.29714148338845" lon="13.892435338680686"><ele>20.666666666666668</ele><time>2026-04-11T14:27:29Z</time></trkpt><trkpt lat="41.29695279286391" lon="13.892390387722463"><ele>20.333333333333336</ele><time>2026-04-11T14:27:30Z</time></trkpt><trkpt lat="41.29675967757539" lon="13.892338694173521"><ele>20.0</ele><time>2026-04-11T14:27:31Z</time></trkpt><trkpt lat="41.29656440454717" lon="13.892295693343524"><ele>22.333333333333336</ele><time>2026-04-11T14:27:32Z</time></trkpt><trkpt lat="41.29636956051637" lon="13.892254936549797"><ele>24.666666666666668</ele><time>2026-04-11T14:27:33Z</time></trkpt><trkpt lat="41.29619274910878" lon="13.892213289750742"><ele>27.0</ele><time>2026-04-11T14:27:34Z</time></trkpt><trkpt lat="41.296020411160846" lon="13.892165795318196"><ele>27.0</ele><time>2026-04-11T14:27:35Z</time></trkpt><trkpt lat="41.295862377270666" lon="13.89209195143703"><ele>27.0</ele><time>2026-04-11T14:27:36Z</time></trkpt><trkpt lat="41.295720931439924" lon="13.891984937562643"><ele>27.0</ele><time>2026-04-11T14:27:37Z</time></trkpt><trkpt lat="41.295583950925305" lon="13.891843849457894"><ele>24.333333333333332</ele><time>2026-04-11T14:27:38Z</time></trkpt><trkpt lat="41.29543830982939" lon="13.891681918960368"><ele>21.666666666666664</ele><time>2026-04-11T14:27:39Z</time></trkpt><trkpt lat="41.29529719756241" lon="13.891500927882557"><ele>19.0</ele><time>2026-04-11T14:27:40Z</time></trkpt><trkpt lat="41.29515521356226" lon="13.891318063372912"><ele>19.0</ele><time>2026-04-11T14:27:41.001Z</time></trkpt><trkpt lat="41.29500124324183" lon="13.891128206711711"><ele>19.0</ele><time>2026-04-11T14:27:42.001Z</time></trkpt><trkpt lat="41.29484088454486" lon="13.890930991529636"><ele>19.0</ele><time>2026-04-11T14:27:43.001Z</time></trkpt><trkpt lat="41.29467345453212" lon="13.890722684426432"><ele>22.5</ele><time>2026-04-11T14:27:44.001Z</time></trkpt><trkpt lat="41.29450880033557" lon="13.89051950829684"><ele>26.0</ele><time>2026-04-11T14:27:45.001Z</time></trkpt><trkpt lat="41.29433848141604" lon="13.89030647458374"><ele>26.0</ele><time>2026-04-11T14:27:46.001Z</time></trkpt><trkpt lat="41.294168821580314" lon="13.890095262898171"><ele>26.0</ele><time>2026-04-11T14:27:47.001Z</time></trkpt><trkpt lat="41.29400781011997" lon="13.889884955173674"><ele>25.0</ele><time>2026-04-11T14:27:48.001Z</time></trkpt><trkpt lat="41.29385260268652" lon="13.88967223505852"><ele>24.0</ele><time>2026-04-11T14:27:49.001Z</time></trkpt><trkpt lat="41.29368491108879" lon="13.889460960764472"><ele>20.0</ele><time>2026-04-11T14:27:50.001Z</time></trkpt><trkpt lat="41.29352749879766" lon="13.889235300612238"><ele>16.0</ele><time>2026-04-11T14:27:51.001Z</time></trkpt><trkpt lat="41.29336318908629" lon="13.889035412490816"><ele>16.0</ele><time>2026-04-11T14:27:52.001Z</time></trkpt><trkpt lat="41.29319225919373" lon="13.888837616954271"><ele>16.0</ele><time>2026-04-11T14:27:53.001Z</time></trkpt><trkpt lat="41.293023335345495" lon="13.888634380112869"><ele>16.0</ele><time>2026-04-11T14:27:54.001Z</time></trkpt><trkpt lat="41.292860261705194" lon="13.888423629749513"><ele>16.0</ele><time>2026-04-11T14:27:55.001Z</time></trkpt><trkpt lat="41.29269900539498" lon="13.888210823059866"><ele>16.0</ele><time>2026-04-11T14:27:56.001Z</time></trkpt><trkpt lat="41.29253552394915" lon="13.88800169711245"><ele>16.0</ele><time>2026-04-11T14:27:57.001Z</time></trkpt><trkpt lat="41.29237057626165" lon="13.887794726462506"><ele>17.0</ele><time>2026-04-11T14:27:58.001Z</time></trkpt><trkpt lat="41.292207692004965" lon="13.88758458369069"><ele>18.0</ele><time>2026-04-11T14:27:59.001Z</time></trkpt><trkpt lat="41.29204294598024" lon="13.88738742487925"><ele>19.0</ele><time>2026-04-11T14:28:00.001Z</time></trkpt><trkpt lat="41.291881592435544" lon="13.887184883709201"><ele>19.0</ele><time>2026-04-11T14:28:01.001Z</time></trkpt><trkpt lat="41.2917239979883" lon="13.886978702822644"><ele>19.0</ele><time>2026-04-11T14:28:02.001Z</time></trkpt><trkpt lat="41.29156336586671" lon="13.886773953669266"><ele>19.0</ele><time>2026-04-11T14:28:03.001Z</time></trkpt><trkpt lat="41.29140114536357" lon="13.886577651156879"><ele>18.333333333333332</ele><time>2026-04-11T14:28:04.001Z</time></trkpt><trkpt lat="41.29123732241741" lon="13.886375343544234"><ele>17.666666666666668</ele><time>2026-04-11T14:28:05.001Z</time></trkpt><trkpt lat="41.29108553256125" lon="13.886174994017479"><ele>17.0</ele><time>2026-04-11T14:28:06.001Z</time></trkpt><trkpt lat="41.29094263943579" lon="13.885967378372904"><ele>18.0</ele><time>2026-04-11T14:28:07.001Z</time></trkpt><trkpt lat="41.29080018375243" lon="13.885749820395414"><ele>19.0</ele><time>2026-04-11T14:28:08.001Z</time></trkpt><trkpt lat="41.29066984125515" lon="13.885520707670736"><ele>20.0</ele><time>2026-04-11T14:28:09.001Z</time></trkpt><trkpt lat="41.29054630175067" lon="13.885286139837651"><ele>18.666666666666668</ele><time>2026-04-11T14:28:10.001Z</time></trkpt><trkpt lat="41.29043957211868" lon="13.88504633012345"><ele>17.333333333333332</ele><time>2026-04-11T14:28:11.001Z</time></trkpt><trkpt lat="41.290346244636325" lon="13.884795094715779"><ele>16.0</ele><time>2026-04-11T14:28:12.001Z</time></trkpt><trkpt lat="41.290265655142946" lon="13.884538912454007"><ele>16.0</ele><time>2026-04-11T14:28:13.001Z</time></trkpt><trkpt lat="41.29018466337972" lon="13.884269627909838"><ele>16.0</ele><time>2026-04-11T14:28:14.001Z</time></trkpt><trkpt lat="41.29011297720268" lon="13.883997184564938"><ele>16.0</ele><time>2026-04-11T14:28:15.001Z</time></trkpt><trkpt lat="41.29004877608648" lon="13.883722389086543"><ele>15.666666666666666</ele><time>2026-04-11T14:28:16.001Z</time></trkpt><trkpt lat="41.28998802545626" lon="13.883447933604694"><ele>15.333333333333332</ele><time>2026-04-11T14:28:17.001Z</time></trkpt><trkpt lat="41.289923849219925" lon="13.883173599965016"><ele>15.0</ele><time>2026-04-11T14:28:18.001Z</time></trkpt><trkpt lat="41.28986175688092" lon="13.882901771096998"><ele>15.0</ele><time>2026-04-11T14:28:19.001Z</time></trkpt><trkpt lat="41.289795982878964" lon="13.882630646879024"><ele>15.0</ele><time>2026-04-11T14:28:20.001Z</time></trkpt><trkpt lat="41.289732202933315" lon="13.882361141636348"><ele>15.0</ele><time>2026-04-11T14:28:21.001Z</time></trkpt><trkpt lat="41.28966782246621" lon="13.882084956116366"><ele>15.666666666666668</ele><time>2026-04-11T14:28:22.001Z</time></trkpt><trkpt lat="41.28960423983187" lon="13.88180803152652"><ele>16.333333333333336</ele><time>2026-04-11T14:28:23.001Z</time></trkpt><trkpt lat="41.289541138103445" lon="13.881536757752515"><ele>17.0</ele><time>2026-04-11T14:28:24.001Z</time></trkpt><trkpt lat="41.28946687804059" lon="13.881266167950946"><ele>17.0</ele><time>2026-04-11T14:28:25.001Z</time></trkpt><trkpt lat="41.28939147492841" lon="13.881001540461577"><ele>17.0</ele><time>2026-04-11T14:28:26.001Z</time></trkpt><trkpt lat="41.289311350871365" lon="13.880740970740707"><ele>17.0</ele><time>2026-04-11T14:28:27.001Z</time></trkpt><trkpt lat="41.28922026496248" lon="13.880484812973368"><ele>16.0</ele><time>2026-04-11T14:28:28.001Z</time></trkpt><trkpt lat="41.28913069223456" lon="13.880238967668257"><ele>15.0</ele><time>2026-04-11T14:28:29.001Z</time></trkpt><trkpt lat="41.289037576915995" lon="13.879986982560219"><ele>14.0</ele><time>2026-04-11T14:28:30.001Z</time></trkpt><trkpt lat="41.28895054768219" lon="13.879741223064084"><ele>14.0</ele><time>2026-04-11T14:28:31.001Z</time></trkpt><trkpt lat="41.2888601902827" lon="13.87949159602631"><ele>14.0</ele><time>2026-04-11T14:28:32.001Z</time></trkpt><trkpt lat="41.28876935967874" lon="13.879244576947192"><ele>14.0</ele><time>2026-04-11T14:28:33.001Z</time></trkpt><trkpt lat="41.288675779818625" lon="13.878986602152121"><ele>13.666666666666668</ele><time>2026-04-11T14:28:34.001Z</time></trkpt><trkpt lat="41.28858268934294" lon="13.878726150703649"><ele>13.333333333333332</ele><time>2026-04-11T14:28:35.001Z</time></trkpt><trkpt lat="41.28849164739367" lon="13.878472531706935"><ele>13.0</ele><time>2026-04-11T14:28:36.001Z</time></trkpt><trkpt lat="41.288398371920124" lon="13.878215462912374"><ele>12.666666666666666</ele><time>2026-04-11T14:28:37.001Z</time></trkpt><trkpt lat="41.28830561351037" lon="13.877957730699007"><ele>12.333333333333332</ele><time>2026-04-11T14:28:38.001Z</time></trkpt><trkpt lat="41.28821185098668" lon="13.877701386213577"><ele>12.0</ele><time>2026-04-11T14:28:39.001Z</time></trkpt><trkpt lat="41.28811825853677" lon="13.877439708751872"><ele>12.666666666666668</ele><time>2026-04-11T14:28:40.001Z</time></trkpt><trkpt lat="41.28803460491245" lon="13.87717350224642"><ele>13.333333333333334</ele><time>2026-04-11T14:28:41.001Z</time></trkpt><trkpt lat="41.28796096969031" lon="13.876910194774883"><ele>14.0</ele><time>2026-04-11T14:28:42.001Z</time></trkpt><trkpt lat="41.28789481101421" lon="13.87664317127571"><ele>14.0</ele><time>2026-04-11T14:28:43.001Z</time></trkpt><trkpt lat="41.28784080123349" lon="13.876397495192165"><ele>14.0</ele><time>2026-04-11T14:28:44.001Z</time></trkpt><trkpt lat="41.28779370105287" lon="13.876155726134877"><ele>14.0</ele><time>2026-04-11T14:28:45.001Z</time></trkpt><trkpt lat="41.28775083325403" lon="13.875918012942565"><ele>13.666666666666668</ele><time>2026-04-11T14:28:46.002Z</time></trkpt><trkpt lat="41.28770472767276" lon="13.875682921969892"><ele>13.333333333333332</ele><time>2026-04-11T14:28:47.002Z</time></trkpt><trkpt lat="41.28764779315208" lon="13.875450129082937"><ele>13.0</ele><time>2026-04-11T14:28:48.002Z</time></trkpt><trkpt lat="41.2875827547134" lon="13.875231137784516"><ele>13.333333333333332</ele><time>2026-04-11T14:28:49.002Z</time></trkpt><trkpt lat="41.28750373555535" lon="13.87501181557019"><ele>13.666666666666668</ele><time>2026-04-11T14:28:50.002Z</time></trkpt><trkpt lat="41.28740915624925" lon="13.87480192290665"><ele>14.0</ele><time>2026-04-11T14:28:51.002Z</time></trkpt><trkpt lat="41.28731430033109" lon="13.87460443076588"><ele>14.0</ele><time>2026-04-11T14:28:52.002Z</time></trkpt><trkpt lat="41.287212350876864" lon="13.874431311358254"><ele>14.0</ele><time>2026-04-11T14:28:53.002Z</time></trkpt><trkpt lat="41.2871047041674" lon="13.874278111155508"><ele>14.0</ele><time>2026-04-11T14:28:54.002Z</time></trkpt><trkpt lat="41.28699178251561" lon="13.874127808063097"><ele>14.0</ele><time>2026-04-11T14:28:55.002Z</time></trkpt><trkpt lat="41.28685426775486" lon="13.87398304858807"><ele>14.0</ele><time>2026-04-11T14:28:56.002Z</time></trkpt><trkpt lat="41.28670347744446" lon="13.873832891452528"><ele>14.0</ele><time>2026-04-11T14:28:57.002Z</time></trkpt><trkpt lat="41.286551847206866" lon="13.87364814854372"><ele>14.5</ele><time>2026-04-11T14:28:58.002Z</time></trkpt><trkpt lat="41.286377044181684" lon="13.873467211666094"><ele>15.0</ele><time>2026-04-11T14:28:59.002Z</time></trkpt><trkpt lat="41.28619139956532" lon="13.87327490346002"><ele>15.0</ele><time>2026-04-11T14:29:00.002Z</time></trkpt><trkpt lat="41.286010813194245" lon="13.873086576993803"><ele>15.0</ele><time>2026-04-11T14:29:01.002Z</time></trkpt><trkpt lat="41.285826083448356" lon="13.87289579607107"><ele>15.0</ele><time>2026-04-11T14:29:02.002Z</time></trkpt><trkpt lat="41.28563942245799" lon="13.872699949107007"><ele>15.0</ele><time>2026-04-11T14:29:03.002Z</time></trkpt><trkpt lat="41.28544634335781" lon="13.87249567701819"><ele>14.0</ele><time>2026-04-11T14:29:04.002Z</time></trkpt><trkpt lat="41.2852400565777" lon="13.872308486507519"><ele>13.0</ele><time>2026-04-11T14:29:05.002Z</time></trkpt><trkpt lat="41.28504459292622" lon="13.872104202672263"><ele>13.0</ele><time>2026-04-11T14:29:06.002Z</time></trkpt><trkpt lat="41.2848413574484" lon="13.871894340821768"><ele>13.0</ele><time>2026-04-11T14:29:07.002Z</time></trkpt><trkpt lat="41.28464195394704" lon="13.871683293975321"><ele>13.5</ele><time>2026-04-11T14:29:08.002Z</time></trkpt><trkpt lat="41.28444207493369" lon="13.871472844668748"><ele>14.0</ele><time>2026-04-11T14:29:09.002Z</time></trkpt><trkpt lat="41.284243738556626" lon="13.871270388469334"><ele>14.0</ele><time>2026-04-11T14:29:10.002Z</time></trkpt><trkpt lat="41.28404159886059" lon="13.871066117669871"><ele>14.0</ele><time>2026-04-11T14:29:11.002Z</time></trkpt><trkpt lat="41.283854062762394" lon="13.870836720375301"><ele>13.0</ele><time>2026-04-11T14:29:12.002Z</time></trkpt><trkpt lat="41.283667848618144" lon="13.870611480381198"><ele>12.0</ele><time>2026-04-11T14:29:13.002Z</time></trkpt><trkpt lat="41.28349037178327" lon="13.870375140207582"><ele>12.0</ele><time>2026-04-11T14:29:14.002Z</time></trkpt><trkpt lat="41.28333003083501" lon="13.870130383507538"><ele>12.0</ele><time>2026-04-11T14:29:15.002Z</time></trkpt><trkpt lat="41.283182525318566" lon="13.869872089848407"><ele>12.5</ele><time>2026-04-11T14:29:16.002Z</time></trkpt><trkpt lat="41.28304853233248" lon="13.869614788976733"><ele>13.0</ele><time>2026-04-11T14:29:17.002Z</time></trkpt><trkpt lat="41.28292924063447" lon="13.869345148556057"><ele>13.0</ele><time>2026-04-11T14:29:18.002Z</time></trkpt><trkpt lat="41.28281642815088" lon="13.86906113501151"><ele>13.0</ele><time>2026-04-11T14:29:19.002Z</time></trkpt><trkpt lat="41.282688650702354" lon="13.868787933834561"><ele>13.0</ele><time>2026-04-11T14:29:20.001Z</time></trkpt><trkpt lat="41.28260756032352" lon="13.86848060545125"><ele>13.0</ele><time>2026-04-11T14:29:21.001Z</time></trkpt><trkpt lat="41.28252110434795" lon="13.868172886031305"><ele>12.0</ele><time>2026-04-11T14:29:22.001Z</time></trkpt><trkpt lat="41.28243716959287" lon="13.86785549264887"><ele>11.0</ele><time>2026-04-11T14:29:23.001Z</time></trkpt><trkpt lat="41.28238226295423" lon="13.867524837292175"><ele>11.0</ele><time>2026-04-11T14:29:24.001Z</time></trkpt><trkpt lat="41.28229560484899" lon="13.867201842320465"><ele>11.0</ele><time>2026-04-11T14:29:25.001Z</time></trkpt><trkpt lat="41.28221164760251" lon="13.86687607474411"><ele>13.0</ele><time>2026-04-11T14:29:26.001Z</time></trkpt><trkpt lat="41.28212755862602" lon="13.866549796046131"><ele>15.0</ele><time>2026-04-11T14:29:27Z</time></trkpt><trkpt lat="41.28204267043103" lon="13.866220416264369"><ele>14.5</ele><time>2026-04-11T14:29:28Z</time></trkpt><trkpt lat="41.281957897506516" lon="13.865893149477259"><ele>14.0</ele><time>2026-04-11T14:29:29Z</time></trkpt><trkpt lat="41.28186985474704" lon="13.865561303831775"><ele>14.0</ele><time>2026-04-11T14:29:30Z</time></trkpt><trkpt lat="41.2817852574891" lon="13.865230315953799"><ele>14.0</ele><time>2026-04-11T14:29:31Z</time></trkpt><trkpt lat="41.28169696171561" lon="13.864896058184769"><ele>13.5</ele><time>2026-04-11T14:29:32Z</time></trkpt><trkpt lat="41.2816077917944" lon="13.864558490754002"><ele>13.0</ele><time>2026-04-11T14:29:33Z</time></trkpt><trkpt lat="41.28151332393131" lon="13.86420086667672"><ele>12.0</ele><time>2026-04-11T14:29:34Z</time></trkpt><trkpt lat="41.28141761703786" lon="13.863845221868015"><ele>11.0</ele><time>2026-04-11T14:29:35Z</time></trkpt><trkpt lat="41.2812931554036" lon="13.863490877476407"><ele>11.5</ele><time>2026-04-11T14:29:36Z</time></trkpt><trkpt lat="41.28119872073262" lon="13.863128063767183"><ele>12.0</ele><time>2026-04-11T14:29:37Z</time></trkpt><trkpt lat="41.28110891256377" lon="13.862778644799883"><ele>11.5</ele><time>2026-04-11T14:29:38Z</time></trkpt><trkpt lat="41.28101825581134" lon="13.862434665078947"><ele>11.0</ele><time>2026-04-11T14:29:39Z</time></trkpt><trkpt lat="41.28093707065905" lon="13.862117121884857"><ele>11.0</ele><time>2026-04-11T14:29:40Z</time></trkpt><trkpt lat="41.28085694440577" lon="13.861803224742127"><ele>11.0</ele><time>2026-04-11T14:29:41Z</time></trkpt><trkpt lat="41.28077735784793" lon="13.861500104837468"><ele>11.5</ele><time>2026-04-11T14:29:42Z</time></trkpt><trkpt lat="41.280687105583006" lon="13.861196919679688"><ele>12.0</ele><time>2026-04-11T14:29:43Z</time></trkpt><trkpt lat="41.28058448387664" lon="13.860894286880516"><ele>14.5</ele><time>2026-04-11T14:29:44Z</time></trkpt><trkpt lat="41.28047072670869" lon="13.860596913273302"><ele>17.0</ele><time>2026-04-11T14:29:45.001Z</time></trkpt><trkpt lat="41.28034805868366" lon="13.860301642921122"><ele>16.0</ele><time>2026-04-11T14:29:46.001Z</time></trkpt><trkpt lat="41.28022560383802" lon="13.859988222208454"><ele>15.0</ele><time>2026-04-11T14:29:47.001Z</time></trkpt><trkpt lat="41.28011643167773" lon="13.859707922400757"><ele>15.0</ele><time>2026-04-11T14:29:48.001Z</time></trkpt><trkpt lat="41.28001110922808" lon="13.859446560965102"><ele>15.0</ele><time>2026-04-11T14:29:49.001Z</time></trkpt><trkpt lat="41.279907284096545" lon="13.859192046569278"><ele>15.0</ele><time>2026-04-11T14:29:50.001Z</time></trkpt><trkpt lat="41.27981009120411" lon="13.858954957415412"><ele>17.333333333333332</ele><time>2026-04-11T14:29:51.001Z</time></trkpt><trkpt lat="41.279712574672466" lon="13.858712480430599"><ele>19.666666666666664</ele><time>2026-04-11T14:29:52.001Z</time></trkpt><trkpt lat="41.279609442016756" lon="13.858479362937903"><ele>22.0</ele><time>2026-04-11T14:29:53.001Z</time></trkpt><trkpt lat="41.27950932232242" lon="13.858248755428294"><ele>22.0</ele><time>2026-04-11T14:29:54.001Z</time></trkpt><trkpt lat="41.27941473861472" lon="13.858013962711636"><ele>22.0</ele><time>2026-04-11T14:29:55.001Z</time></trkpt><trkpt lat="41.27932139718244" lon="13.857778486167991"><ele>22.0</ele><time>2026-04-11T14:29:56.001Z</time></trkpt><trkpt lat="41.27923381198183" lon="13.85754392807875"><ele>22.0</ele><time>2026-04-11T14:29:57.001Z</time></trkpt><trkpt lat="41.279146290864986" lon="13.857310687910486"><ele>22.0</ele><time>2026-04-11T14:29:58.001Z</time></trkpt><trkpt lat="41.279055835090865" lon="13.857071196993587"><ele>22.0</ele><time>2026-04-11T14:29:59.001Z</time></trkpt><trkpt lat="41.27896632175909" lon="13.856833949258196"><ele>22.333333333333332</ele><time>2026-04-11T14:30:00.001Z</time></trkpt><trkpt lat="41.27887162252965" lon="13.856594320269144"><ele>22.666666666666668</ele><time>2026-04-11T14:30:01.001Z</time></trkpt><trkpt lat="41.278775080673896" lon="13.856351165814635"><ele>23.0</ele><time>2026-04-11T14:30:02.001Z</time></trkpt><trkpt lat="41.27867255972891" lon="13.856111590300106"><ele>22.666666666666668</ele><time>2026-04-11T14:30:03.001Z</time></trkpt><trkpt lat="41.2785649760667" lon="13.855850302393401"><ele>22.333333333333332</ele><time>2026-04-11T14:30:04.001Z</time></trkpt><trkpt lat="41.27846140925469" lon="13.855596772063025"><ele>22.0</ele><time>2026-04-11T14:30:05.001Z</time></trkpt><trkpt lat="41.27835288127137" lon="13.85532029986584"><ele>20.0</ele><time>2026-04-11T14:30:06.001Z</time></trkpt><trkpt lat="41.27824306067583" lon="13.855043568871391"><ele>18.0</ele><time>2026-04-11T14:30:07.001Z</time></trkpt><trkpt lat="41.27813341318476" lon="13.854757630307642"><ele>18.5</ele><time>2026-04-11T14:30:08.001Z</time></trkpt><trkpt lat="41.27802120096129" lon="13.854476951220148"><ele>19.0</ele><time>2026-04-11T14:30:09.001Z</time></trkpt><trkpt lat="41.27791789059735" lon="13.854213891065765"><ele>19.0</ele><time>2026-04-11T14:30:10.001Z</time></trkpt><trkpt lat="41.27782522028242" lon="13.853968295025417"><ele>19.0</ele><time>2026-04-11T14:30:11.001Z</time></trkpt><trkpt lat="41.27773644531474" lon="13.853734353315616"><ele>19.0</ele><time>2026-04-11T14:30:12.001Z</time></trkpt><trkpt lat="41.27764444998221" lon="13.853496454581325"><ele>17.666666666666664</ele><time>2026-04-11T14:30:13.001Z</time></trkpt><trkpt lat="41.27754925129595" lon="13.853266733211619"><ele>16.333333333333332</ele><time>2026-04-11T14:30:14.001Z</time></trkpt><trkpt lat="41.277444499258685" lon="13.853062873576784"><ele>15.0</ele><time>2026-04-11T14:30:15.001Z</time></trkpt><trkpt lat="41.277321393619566" lon="13.852901262090324"><ele>14.666666666666668</ele><time>2026-04-11T14:30:16.001Z</time></trkpt><trkpt lat="41.27718438361473" lon="13.852765046093657"><ele>14.333333333333334</ele><time>2026-04-11T14:30:17.001Z</time></trkpt><trkpt lat="41.27702696707043" lon="13.852662553846804"><ele>14.0</ele><time>2026-04-11T14:30:18.001Z</time></trkpt><trkpt lat="41.27685900411112" lon="13.852588222613662"><ele>14.0</ele><time>2026-04-11T14:30:19.001Z</time></trkpt><trkpt lat="41.27669319059054" lon="13.852562857541468"><ele>14.0</ele><time>2026-04-11T14:30:20.001Z</time></trkpt><trkpt lat="41.27652130296089" lon="13.852562826732164"><ele>14.0</ele><time>2026-04-11T14:30:21.001Z</time></trkpt><trkpt lat="41.276350945292485" lon="13.852594214956822"><ele>15.0</ele><time>2026-04-11T14:30:22.001Z</time></trkpt><trkpt lat="41.276172695569834" lon="13.852655914003808"><ele>16.0</ele><time>2026-04-11T14:30:23.001Z</time></trkpt><trkpt lat="41.275989035842585" lon="13.852735812063173"><ele>17.0</ele><time>2026-04-11T14:30:24.001Z</time></trkpt><trkpt lat="41.27580715111639" lon="13.852813901449956"><ele>17.0</ele><time>2026-04-11T14:30:25.001Z</time></trkpt><trkpt lat="41.275623276853494" lon="13.852888088470449"><ele>17.0</ele><time>2026-04-11T14:30:26.001Z</time></trkpt><trkpt lat="41.275440299062886" lon="13.852963992328249"><ele>17.0</ele><time>2026-04-11T14:30:27.001Z</time></trkpt><trkpt lat="41.27525916180977" lon="13.853045373115222"><ele>16.0</ele><time>2026-04-11T14:30:28.001Z</time></trkpt><trkpt lat="41.27507953950803" lon="13.853127138806647"><ele>15.0</ele><time>2026-04-11T14:30:29.001Z</time></trkpt><trkpt lat="41.27490820247105" lon="13.853205798296186"><ele>14.0</ele><time>2026-04-11T14:30:30.001Z</time></trkpt><trkpt lat="41.27475193590556" lon="13.853273263362334"><ele>14.0</ele><time>2026-04-11T14:30:31.001Z</time></trkpt><trkpt lat="41.274593071972454" lon="13.853338979441316"><ele>14.0</ele><time>2026-04-11T14:30:32.001Z</time></trkpt><trkpt lat="41.274435705784384" lon="13.853408031171984"><ele>14.0</ele><time>2026-04-11T14:30:33.001Z</time></trkpt><trkpt lat="41.27428699034148" lon="13.853471001987149"><ele>14.0</ele><time>2026-04-11T14:30:34.001Z</time></trkpt><trkpt lat="41.27413628749901" lon="13.853540398970367"><ele>14.0</ele><time>2026-04-11T14:30:35.001Z</time></trkpt><trkpt lat="41.27398581553425" lon="13.853607143641266"><ele>14.0</ele><time>2026-04-11T14:30:36.001Z</time></trkpt><trkpt lat="41.27382903465927" lon="13.853673805703004"><ele>13.333333333333334</ele><time>2026-04-11T14:30:37.001Z</time></trkpt><trkpt lat="41.273668671409794" lon="13.853727034906626"><ele>12.666666666666668</ele><time>2026-04-11T14:30:38.001Z</time></trkpt><trkpt lat="41.27350707851402" lon="13.853766703004046"><ele>12.0</ele><time>2026-04-11T14:30:39.001Z</time></trkpt><trkpt lat="41.27334382950788" lon="13.853792829265185"><ele>12.0</ele><time>2026-04-11T14:30:40.001Z</time></trkpt><trkpt lat="41.27317089631647" lon="13.853809558759568"><ele>12.0</ele><time>2026-04-11T14:30:41.001Z</time></trkpt><trkpt lat="41.2730011084822" lon="13.853818280500796"><ele>12.0</ele><time>2026-04-11T14:30:42.001Z</time></trkpt><trkpt lat="41.2728370960411" lon="13.853807686245695"><ele>12.333333333333332</ele><time>2026-04-11T14:30:43.001Z</time></trkpt><trkpt lat="41.27267338817687" lon="13.853782009772264"><ele>12.666666666666666</ele><time>2026-04-11T14:30:44.001Z</time></trkpt><trkpt lat="41.27250967836504" lon="13.853737891876262"><ele>13.0</ele><time>2026-04-11T14:30:45.001Z</time></trkpt><trkpt lat="41.27235223027984" lon="13.85367661230641"><ele>13.666666666666666</ele><time>2026-04-11T14:30:46.001Z</time></trkpt><trkpt lat="41.27219559225683" lon="13.853615285163988"><ele>14.333333333333332</ele><time>2026-04-11T14:30:47.001Z</time></trkpt><trkpt lat="41.27203631505458" lon="13.853541807656924"><ele>15.0</ele><time>2026-04-11T14:30:48.001Z</time></trkpt><trkpt lat="41.27187855359352" lon="13.85346574550375"><ele>14.666666666666668</ele><time>2026-04-11T14:30:49.001Z</time></trkpt><trkpt lat="41.27171846296707" lon="13.853384536445475"><ele>14.333333333333334</ele><time>2026-04-11T14:30:50.001Z</time></trkpt><trkpt lat="41.271553072185576" lon="13.853310173452373"><ele>14.0</ele><time>2026-04-11T14:30:51.001Z</time></trkpt><trkpt lat="41.271369647910305" lon="13.853240387970555"><ele>14.0</ele><time>2026-04-11T14:30:52.001Z</time></trkpt><trkpt lat="41.27119573583733" lon="13.853167290847846"><ele>14.0</ele><time>2026-04-11T14:30:53.001Z</time></trkpt><trkpt lat="41.27102264588887" lon="13.853089347020527"><ele>14.0</ele><time>2026-04-11T14:30:54.001Z</time></trkpt><trkpt lat="41.27085232673918" lon="13.853018012156959"><ele>14.0</ele><time>2026-04-11T14:30:55.001Z</time></trkpt><trkpt lat="41.27068149826585" lon="13.852945467170882"><ele>14.0</ele><time>2026-04-11T14:30:56.001Z</time></trkpt><trkpt lat="41.27051996098877" lon="13.852869610550947"><ele>14.0</ele><time>2026-04-11T14:30:57.001Z</time></trkpt><trkpt lat="41.27035918805991" lon="13.852801922905405"><ele>14.333333333333334</ele><time>2026-04-11T14:30:58.001Z</time></trkpt><trkpt lat="41.270199056374885" lon="13.852728963143543"><ele>14.666666666666668</ele><time>2026-04-11T14:30:59.002Z</time></trkpt><trkpt lat="41.27005437310599" lon="13.852651409481915"><ele>15.0</ele><time>2026-04-11T14:31:00.002Z</time></trkpt><trkpt lat="41.26991412438587" lon="13.852582573035331"><ele>15.25</ele><time>2026-04-11T14:31:01.002Z</time></trkpt><trkpt lat="41.269774791609656" lon="13.852518628262079"><ele>15.5</ele><time>2026-04-11T14:31:02.002Z</time></trkpt><trkpt lat="41.26963232546127" lon="13.852457186931636"><ele>15.75</ele><time>2026-04-11T14:31:03.002Z</time></trkpt><trkpt lat="41.269502049419465" lon="13.852395957696066"><ele>16.0</ele><time>2026-04-11T14:31:04.002Z</time></trkpt><trkpt lat="41.26935763088012" lon="13.852323606877567"><ele>16.0</ele><time>2026-04-11T14:31:05.002Z</time></trkpt><trkpt lat="41.26922189554189" lon="13.852260689765192"><ele>16.0</ele><time>2026-04-11T14:31:06.002Z</time></trkpt><trkpt lat="41.26909086237592" lon="13.852204569893608"><ele>16.0</ele><time>2026-04-11T14:31:07.002Z</time></trkpt><trkpt lat="41.26896572431491" lon="13.85214700536764"><ele>16.0</ele><time>2026-04-11T14:31:08.002Z</time></trkpt><trkpt lat="41.26883198288912" lon="13.852089099292863"><ele>16.0</ele><time>2026-04-11T14:31:09.002Z</time></trkpt><trkpt lat="41.26869101661188" lon="13.852041711775456"><ele>16.0</ele><time>2026-04-11T14:31:10.002Z</time></trkpt><trkpt lat="41.26854919123518" lon="13.85201125984457"><ele>16.0</ele><time>2026-04-11T14:31:11.002Z</time></trkpt><trkpt lat="41.26841541551829" lon="13.852004373136635"><ele>16.0</ele><time>2026-04-11T14:31:12.002Z</time></trkpt><trkpt lat="41.26827384891709" lon="13.852014698111208"><ele>16.0</ele><time>2026-04-11T14:31:13.002Z</time></trkpt><trkpt lat="41.2681377391537" lon="13.85203966829129"><ele>16.0</ele><time>2026-04-11T14:31:14.002Z</time></trkpt><trkpt lat="41.268002457216745" lon="13.852091249461594"><ele>16.0</ele><time>2026-04-11T14:31:15.002Z</time></trkpt><trkpt lat="41.267868693280924" lon="13.852164994152979"><ele>16.0</ele><time>2026-04-11T14:31:16.002Z</time></trkpt><trkpt lat="41.26774593268344" lon="13.852243139311348"><ele>14.75</ele><time>2026-04-11T14:31:17.002Z</time></trkpt><trkpt lat="41.26762500973167" lon="13.852343625989372"><ele>13.5</ele><time>2026-04-11T14:31:18.002Z</time></trkpt><trkpt lat="41.26751483156655" lon="13.852466807319473"><ele>12.25</ele><time>2026-04-11T14:31:19.002Z</time></trkpt><trkpt lat="41.267398744005526" lon="13.85261729608636"><ele>11.0</ele><time>2026-04-11T14:31:20.002Z</time></trkpt><trkpt lat="41.2672819867272" lon="13.85278382092155"><ele>10.666666666666666</ele><time>2026-04-11T14:31:21.002Z</time></trkpt><trkpt lat="41.26716521331665" lon="13.852940761150878"><ele>10.333333333333334</ele><time>2026-04-11T14:31:22.002Z</time></trkpt><trkpt lat="41.267035153698906" lon="13.853095589320276"><ele>10.0</ele><time>2026-04-11T14:31:23.002Z</time></trkpt><trkpt lat="41.26690205754996" lon="13.85326868986425"><ele>10.0</ele><time>2026-04-11T14:31:24.002Z</time></trkpt><trkpt lat="41.26678331648639" lon="13.853415634766154"><ele>10.0</ele><time>2026-04-11T14:31:25.002Z</time></trkpt><trkpt lat="41.26667752486304" lon="13.853546617053741"><ele>10.0</ele><time>2026-04-11T14:31:26Z</time></trkpt><trkpt lat="41.26656752233834" lon="13.853686507711062"><ele>10.333333333333334</ele><time>2026-04-11T14:31:27Z</time></trkpt><trkpt lat="41.26645843421681" lon="13.853824727190611"><ele>10.666666666666666</ele><time>2026-04-11T14:31:28Z</time></trkpt><trkpt lat="41.26635082429954" lon="13.853969664387584"><ele>11.0</ele><time>2026-04-11T14:31:29Z</time></trkpt><trkpt lat="41.26624380305004" lon="13.854111714377582"><ele>11.333333333333332</ele><time>2026-04-11T14:31:30Z</time></trkpt><trkpt lat="41.26613839535707" lon="13.854256389424684"><ele>11.666666666666666</ele><time>2026-04-11T14:31:31Z</time></trkpt><trkpt lat="41.26602788235459" lon="13.854400689794902"><ele>12.0</ele><time>2026-04-11T14:31:32Z</time></trkpt><trkpt lat="41.26590832390274" lon="13.854537579045846"><ele>12.333333333333332</ele><time>2026-04-11T14:31:33Z</time></trkpt><trkpt lat="41.26577415946066" lon="13.854658029671311"><ele>12.666666666666666</ele><time>2026-04-11T14:31:34Z</time></trkpt><trkpt lat="41.26562763819849" lon="13.854756380027593"><ele>13.0</ele><time>2026-04-11T14:31:35Z</time></trkpt><trkpt lat="41.26547545210342" lon="13.854840497757653"><ele>13.0</ele><time>2026-04-11T14:31:36Z</time></trkpt><trkpt lat="41.265309444596426" lon="13.854886954072985"><ele>13.0</ele><time>2026-04-11T14:31:37Z</time></trkpt><trkpt lat="41.26513204952692" lon="13.854922762778417"><ele>13.0</ele><time>2026-04-11T14:31:38Z</time></trkpt><trkpt lat="41.26494828648555" lon="13.854945967396054"><ele>12.666666666666666</ele><time>2026-04-11T14:31:39Z</time></trkpt><trkpt lat="41.26476590857645" lon="13.85497494573132"><ele>12.333333333333332</ele><time>2026-04-11T14:31:40Z</time></trkpt><trkpt lat="41.264573436344136" lon="13.855007840436011"><ele>12.0</ele><time>2026-04-11T14:31:41Z</time></trkpt><trkpt lat="41.26438144208111" lon="13.855051417331286"><ele>12.0</ele><time>2026-04-11T14:31:42Z</time></trkpt><trkpt lat="41.26419132123981" lon="13.855093794520117"><ele>12.0</ele><time>2026-04-11T14:31:43Z</time></trkpt><trkpt lat="41.26401161627331" lon="13.85512979696672"><ele>12.0</ele><time>2026-04-11T14:31:44Z</time></trkpt><trkpt lat="41.26384181952204" lon="13.855162508828423"><ele>12.333333333333332</ele><time>2026-04-11T14:31:45Z</time></trkpt><trkpt lat="41.26367620748774" lon="13.855197145624746"><ele>12.666666666666666</ele><time>2026-04-11T14:31:46Z</time></trkpt><trkpt lat="41.263511240016854" lon="13.855226064617167"><ele>13.0</ele><time>2026-04-11T14:31:47Z</time></trkpt><trkpt lat="41.26334000508365" lon="13.855256273498368"><ele>13.0</ele><time>2026-04-11T14:31:48Z</time></trkpt><trkpt lat="41.263165676642764" lon="13.85528702047081"><ele>13.0</ele><time>2026-04-11T14:31:49Z</time></trkpt><trkpt lat="41.26298919325603" lon="13.855312434864494"><ele>13.0</ele><time>2026-04-11T14:31:50Z</time></trkpt><trkpt lat="41.26281767862813" lon="13.855339019740171"><ele>13.0</ele><time>2026-04-11T14:31:51Z</time></trkpt><trkpt lat="41.262643813129046" lon="13.855365532706559"><ele>13.0</ele><time>2026-04-11T14:31:52Z</time></trkpt><trkpt lat="41.26246834654442" lon="13.85537943057954"><ele>13.0</ele><time>2026-04-11T14:31:53Z</time></trkpt><trkpt lat="41.26229694548408" lon="13.855393574732181"><ele>13.666666666666666</ele><time>2026-04-11T14:31:54Z</time></trkpt><trkpt lat="41.26211817435106" lon="13.855411047473384"><ele>14.333333333333332</ele><time>2026-04-11T14:31:55Z</time></trkpt><trkpt lat="41.261945123573454" lon="13.855421578761431"><ele>15.0</ele><time>2026-04-11T14:31:56Z</time></trkpt><trkpt lat="41.26177801708095" lon="13.855423367016098"><ele>15.0</ele><time>2026-04-11T14:31:57Z</time></trkpt><trkpt lat="41.26161522589581" lon="13.855429210530719"><ele>15.0</ele><time>2026-04-11T14:31:58Z</time></trkpt><trkpt lat="41.26145176791242" lon="13.855425621669026"><ele>15.0</ele><time>2026-04-11T14:31:59Z</time></trkpt><trkpt lat="41.26128625356153" lon="13.855425572691635"><ele>14.666666666666668</ele><time>2026-04-11T14:32:00Z</time></trkpt><trkpt lat="41.26112156073163" lon="13.855428335362335"><ele>14.333333333333334</ele><time>2026-04-11T14:32:01Z</time></trkpt><trkpt lat="41.260953903717215" lon="13.855433334150828"><ele>14.0</ele><time>2026-04-11T14:32:02Z</time></trkpt><trkpt lat="41.260782469433984" lon="13.855440676971133"><ele>12.333333333333334</ele><time>2026-04-11T14:32:03Z</time></trkpt><trkpt lat="41.26060979489066" lon="13.85544825005579"><ele>10.666666666666668</ele><time>2026-04-11T14:32:04Z</time></trkpt><trkpt lat="41.26043148937523" lon="13.855466205958962"><ele>9.0</ele><time>2026-04-11T14:32:05Z</time></trkpt><trkpt lat="41.26024926186934" lon="13.85548390829838"><ele>9.0</ele><time>2026-04-11T14:32:06Z</time></trkpt><trkpt lat="41.26005354640155" lon="13.855501358160797"><ele>9.0</ele><time>2026-04-11T14:32:07Z</time></trkpt><trkpt lat="41.259854645901065" lon="13.85552128337444"><ele>9.0</ele><time>2026-04-11T14:32:08Z</time></trkpt><trkpt lat="41.25965392323229" lon="13.855539103852797"><ele>9.333333333333334</ele><time>2026-04-11T14:32:09Z</time></trkpt><trkpt lat="41.25945278521684" lon="13.855559797716513"><ele>9.666666666666668</ele><time>2026-04-11T14:32:10Z</time></trkpt><trkpt lat="41.25926724206375" lon="13.855582008394576"><ele>10.0</ele><time>2026-04-11T14:32:11Z</time></trkpt><trkpt lat="41.25909108364505" lon="13.855600419633609"><ele>10.666666666666668</ele><time>2026-04-11T14:32:12Z</time></trkpt><trkpt lat="41.258910326998006" lon="13.85560797037512"><ele>11.333333333333334</ele><time>2026-04-11T14:32:13.001Z</time></trkpt><trkpt lat="41.25874486010993" lon="13.855606441794535"><ele>12.0</ele><time>2026-04-11T14:32:14.001Z</time></trkpt><trkpt lat="41.258592354040886" lon="13.855597995078082"><ele>12.0</ele><time>2026-04-11T14:32:15.001Z</time></trkpt><trkpt lat="41.25845870823599" lon="13.855578511418118"><ele>12.0</ele><time>2026-04-11T14:32:16.001Z</time></trkpt><trkpt lat="41.25832828354022" lon="13.855556985163306"><ele>12.0</ele><time>2026-04-11T14:32:17.001Z</time></trkpt><trkpt lat="41.25822383451717" lon="13.855535613089366"><ele>12.0</ele><time>2026-04-11T14:32:18.001Z</time></trkpt><trkpt lat="41.258126860050446" lon="13.855517046625486"><ele>12.399999999999999</ele><time>2026-04-11T14:32:19.001Z</time></trkpt><trkpt lat="41.258038904406185" lon="13.855499688468214"><ele>12.799999999999999</ele><time>2026-04-11T14:32:20.001Z</time></trkpt><trkpt lat="41.257944481093475" lon="13.855480760519775"><ele>13.2</ele><time>2026-04-11T14:32:21.001Z</time></trkpt><trkpt lat="41.25784520399612" lon="13.855455335020942"><ele>13.6</ele><time>2026-04-11T14:32:22.001Z</time></trkpt><trkpt lat="41.257749412132554" lon="13.85542831472575"><ele>14.0</ele><time>2026-04-11T14:32:23.001Z</time></trkpt><trkpt lat="41.25764161372583" lon="13.855390433596897"><ele>14.0</ele><time>2026-04-11T14:32:24.001Z</time></trkpt><trkpt lat="41.257534102939985" lon="13.855351356574355"><ele>14.0</ele><time>2026-04-11T14:32:25.001Z</time></trkpt><trkpt lat="41.25742138812882" lon="13.855308497125211"><ele>14.0</ele><time>2026-04-11T14:32:26.001Z</time></trkpt><trkpt lat="41.25730074175922" lon="13.855276445061865"><ele>14.0</ele><time>2026-04-11T14:32:27.001Z</time></trkpt><trkpt lat="41.25717380623056" lon="13.855261903952744"><ele>13.5</ele><time>2026-04-11T14:32:28.001Z</time></trkpt><trkpt lat="41.257044152626904" lon="13.855271540367992"><ele>13.0</ele><time>2026-04-11T14:32:29.001Z</time></trkpt><trkpt lat="41.25691594355443" lon="13.8553163784869"><ele>12.5</ele><time>2026-04-11T14:32:30.001Z</time></trkpt><trkpt lat="41.25679792914857" lon="13.855398231082457"><ele>12.0</ele><time>2026-04-11T14:32:31.001Z</time></trkpt><trkpt lat="41.25668215027008" lon="13.855502153828631"><ele>12.0</ele><time>2026-04-11T14:32:32.001Z</time></trkpt><trkpt lat="41.25656903875118" lon="13.855621751388009"><ele>12.0</ele><time>2026-04-11T14:32:33.001Z</time></trkpt><trkpt lat="41.256470832782796" lon="13.85577326200338"><ele>12.0</ele><time>2026-04-11T14:32:34.001Z</time></trkpt><trkpt lat="41.256378206408165" lon="13.855928757352054"><ele>12.0</ele><time>2026-04-11T14:32:35.001Z</time></trkpt><trkpt lat="41.25628634725244" lon="13.85608103942219"><ele>12.5</ele><time>2026-04-11T14:32:36.001Z</time></trkpt><trkpt lat="41.25618949070489" lon="13.856231436976287"><ele>13.0</ele><time>2026-04-11T14:32:37.001Z</time></trkpt><trkpt lat="41.256108663107085" lon="13.856368508171252"><ele>13.5</ele><time>2026-04-11T14:32:38.001Z</time></trkpt><trkpt lat="41.25603298255385" lon="13.856494589806696"><ele>14.0</ele><time>2026-04-11T14:32:39.001Z</time></trkpt><trkpt lat="41.25595071165172" lon="13.856641340413145"><ele>14.0</ele><time>2026-04-11T14:32:40.001Z</time></trkpt><trkpt lat="41.25588509919341" lon="13.856757512660302"><ele>13.999999999999998</ele><time>2026-04-11T14:32:41.001Z</time></trkpt><trkpt lat="41.2558054425872" lon="13.856849736096855"><ele>13.999999999999998</ele><time>2026-04-11T14:32:42.001Z</time></trkpt><trkpt lat="41.25576757645913" lon="13.856953544135008"><ele>14.0</ele><time>2026-04-11T14:32:43.001Z</time></trkpt><trkpt lat="41.25569950142316" lon="13.857033848151886"><ele>14.0</ele><time>2026-04-11T14:32:44.001Z</time></trkpt><trkpt lat="41.25564167057112" lon="13.857079085877196"><ele>14.333333333333334</ele><time>2026-04-11T14:32:45.001Z</time></trkpt><trkpt lat="41.255581840297765" lon="13.857106653153192"><ele>14.666666666666668</ele><time>2026-04-11T14:32:46.001Z</time></trkpt><trkpt lat="41.2555081352364" lon="13.85711432104891"><ele>15.0</ele><time>2026-04-11T14:32:47.001Z</time></trkpt><trkpt lat="41.25543625044121" lon="13.8570800156657"><ele>15.333333333333332</ele><time>2026-04-11T14:32:48.001Z</time></trkpt><trkpt lat="41.25536174635359" lon="13.857016845400622"><ele>15.666666666666666</ele><time>2026-04-11T14:32:49.001Z</time></trkpt><trkpt lat="41.25527737255662" lon="13.856930795807866"><ele>16.0</ele><time>2026-04-11T14:32:50.001Z</time></trkpt><trkpt lat="41.255171776317184" lon="13.856852726139195"><ele>15.75</ele><time>2026-04-11T14:32:51.001Z</time></trkpt><trkpt lat="41.25505792414464" lon="13.856761213119677"><ele>15.5</ele><time>2026-04-11T14:32:52.001Z</time></trkpt><trkpt lat="41.254934786640604" lon="13.856662112475048"><ele>15.25</ele><time>2026-04-11T14:32:53.001Z</time></trkpt><trkpt lat="41.254807347420225" lon="13.856577868240066"><ele>15.0</ele><time>2026-04-11T14:32:54.001Z</time></trkpt><trkpt lat="41.25467945364817" lon="13.856472258429207"><ele>14.666666666666668</ele><time>2026-04-11T14:32:55.001Z</time></trkpt><trkpt lat="41.25454294547787" lon="13.856366992785587"><ele>14.333333333333334</ele><time>2026-04-11T14:32:56.001Z</time></trkpt><trkpt lat="41.25440862907507" lon="13.856261878982535"><ele>14.0</ele><time>2026-04-11T14:32:57.001Z</time></trkpt><trkpt lat="41.2542672308703" lon="13.856150012722349"><ele>14.0</ele><time>2026-04-11T14:32:58.001Z</time></trkpt><trkpt lat="41.25410604375411" lon="13.856038775366502"><ele>14.0</ele><time>2026-04-11T14:32:59.001Z</time></trkpt><trkpt lat="41.25395148852903" lon="13.855907226270828"><ele>14.0</ele><time>2026-04-11T14:33:00.001Z</time></trkpt><trkpt lat="41.25377476884685" lon="13.855769772348127"><ele>14.0</ele><time>2026-04-11T14:33:01.001Z</time></trkpt><trkpt lat="41.25359211111659" lon="13.85565029895066"><ele>14.0</ele><time>2026-04-11T14:33:02.001Z</time></trkpt><trkpt lat="41.253411782918825" lon="13.855499160867488"><ele>14.0</ele><time>2026-04-11T14:33:03.001Z</time></trkpt><trkpt lat="41.25323458016727" lon="13.85535222260733"><ele>15.0</ele><time>2026-04-11T14:33:04.001Z</time></trkpt><trkpt lat="41.253049354683874" lon="13.855206814195824"><ele>16.0</ele><time>2026-04-11T14:33:05.001Z</time></trkpt><trkpt lat="41.25286456414193" lon="13.855075092326453"><ele>17.0</ele><time>2026-04-11T14:33:06.001Z</time></trkpt><trkpt lat="41.25269121119295" lon="13.854930965678085"><ele>17.333333333333336</ele><time>2026-04-11T14:33:07.001Z</time></trkpt><trkpt lat="41.252536634148754" lon="13.854801447427072"><ele>17.666666666666668</ele><time>2026-04-11T14:33:08.001Z</time></trkpt><trkpt lat="41.25237688208524" lon="13.854684368190387"><ele>18.0</ele><time>2026-04-11T14:33:09.001Z</time></trkpt><trkpt lat="41.25221396701201" lon="13.854559423862256"><ele>18.666666666666668</ele><time>2026-04-11T14:33:10.001Z</time></trkpt><trkpt lat="41.25205432730107" lon="13.854425498543618"><ele>19.333333333333336</ele><time>2026-04-11T14:33:11.001Z</time></trkpt><trkpt lat="41.25187248440571" lon="13.854278316594366"><ele>20.0</ele><time>2026-04-11T14:33:12.001Z</time></trkpt><trkpt lat="41.25169765345484" lon="13.854144798310587"><ele>20.0</ele><time>2026-04-11T14:33:13.001Z</time></trkpt><trkpt lat="41.25154191244802" lon="13.854017560746973"><ele>20.0</ele><time>2026-04-11T14:33:14.001Z</time></trkpt><trkpt lat="41.25139823510787" lon="13.853911632638413"><ele>20.0</ele><time>2026-04-11T14:33:15.001Z</time></trkpt><trkpt lat="41.25124667355094" lon="13.85379676701999"><ele>20.666666666666668</ele><time>2026-04-11T14:33:16.001Z</time></trkpt><trkpt lat="41.25109953027975" lon="13.853681090571394"><ele>21.333333333333332</ele><time>2026-04-11T14:33:17.001Z</time></trkpt><trkpt lat="41.25095650365769" lon="13.85357142228767"><ele>22.0</ele><time>2026-04-11T14:33:18.001Z</time></trkpt><trkpt lat="41.250808228881574" lon="13.85345796434594"><ele>21.333333333333332</ele><time>2026-04-11T14:33:19.001Z</time></trkpt><trkpt lat="41.25065305777242" lon="13.853338524744599"><ele>20.666666666666668</ele><time>2026-04-11T14:33:20.001Z</time></trkpt><trkpt lat="41.250496345457194" lon="13.853224849001316"><ele>20.0</ele><time>2026-04-11T14:33:21.001Z</time></trkpt><trkpt lat="41.25035787393251" lon="13.85312123308135"><ele>19.666666666666668</ele><time>2026-04-11T14:33:22.001Z</time></trkpt><trkpt lat="41.25022032677969" lon="13.853010158253019"><ele>19.333333333333332</ele><time>2026-04-11T14:33:23.001Z</time></trkpt><trkpt lat="41.25007294148452" lon="13.85289807413827"><ele>19.0</ele><time>2026-04-11T14:33:24.002Z</time></trkpt><trkpt lat="41.24992994578513" lon="13.852786054388488"><ele>19.333333333333332</ele><time>2026-04-11T14:33:25.002Z</time></trkpt><trkpt lat="41.2497847520787" lon="13.85267059780057"><ele>19.666666666666668</ele><time>2026-04-11T14:33:26.002Z</time></trkpt><trkpt lat="41.249645791418175" lon="13.85256035018724"><ele>20.0</ele><time>2026-04-11T14:33:27.002Z</time></trkpt><trkpt lat="41.2495046119164" lon="13.852438671334756"><ele>19.0</ele><time>2026-04-11T14:33:28.002Z</time></trkpt><trkpt lat="41.24935086876966" lon="13.852320131489472"><ele>18.0</ele><time>2026-04-11T14:33:29.002Z</time></trkpt><trkpt lat="41.24919925555482" lon="13.852200006427609"><ele>17.0</ele><time>2026-04-11T14:33:30.002Z</time></trkpt><trkpt lat="41.24904706599945" lon="13.8520791538184"><ele>17.0</ele><time>2026-04-11T14:33:31.002Z</time></trkpt><trkpt lat="41.24889460111628" lon="13.851956971731212"><ele>17.0</ele><time>2026-04-11T14:33:32Z</time></trkpt><trkpt lat="41.2487496763991" lon="13.851842053323175"><ele>17.0</ele><time>2026-04-11T14:33:33Z</time></trkpt><trkpt lat="41.2486187304369" lon="13.851737920552788"><ele>17.0</ele><time>2026-04-11T14:33:34Z</time></trkpt><trkpt lat="41.248501244985604" lon="13.851647763846806"><ele>17.0</ele><time>2026-04-11T14:33:35Z</time></trkpt><trkpt lat="41.24840042947356" lon="13.851564177492715"><ele>17.0</ele><time>2026-04-11T14:33:36Z</time></trkpt><trkpt lat="41.24831090543249" lon="13.851484851241556"><ele>17.0</ele><time>2026-04-11T14:33:37Z</time></trkpt><trkpt lat="41.24821801302945" lon="13.851419516037028"><ele>17.0</ele><time>2026-04-11T14:33:38Z</time></trkpt><trkpt lat="41.24812899264637" lon="13.851356131667002"><ele>17.0</ele><time>2026-04-11T14:33:39Z</time></trkpt><trkpt lat="41.248046495074156" lon="13.851295731212835"><ele>17.0</ele><time>2026-04-11T14:33:40Z</time></trkpt><trkpt lat="41.24795925714695" lon="13.851232602159701"><ele>17.0</ele><time>2026-04-11T14:33:41Z</time></trkpt><trkpt lat="41.24785929790664" lon="13.851158742167042"><ele>17.0</ele><time>2026-04-11T14:33:42Z</time></trkpt><trkpt lat="41.2477604698065" lon="13.851081419171843"><ele>17.0</ele><time>2026-04-11T14:33:43Z</time></trkpt><trkpt lat="41.24765633160049" lon="13.851004229241486"><ele>17.0</ele><time>2026-04-11T14:33:44Z</time></trkpt><trkpt lat="41.24754997413574" lon="13.850922067266396"><ele>17.0</ele><time>2026-04-11T14:33:45Z</time></trkpt><trkpt lat="41.24743089088524" lon="13.850834372765554"><ele>17.0</ele><time>2026-04-11T14:33:46Z</time></trkpt><trkpt lat="41.24731530874124" lon="13.85074997108336"><ele>16.5</ele><time>2026-04-11T14:33:47Z</time></trkpt><trkpt lat="41.247203665617974" lon="13.850657612115231"><ele>16.0</ele><time>2026-04-11T14:33:48Z</time></trkpt><trkpt lat="41.24709379434437" lon="13.850567288132732"><ele>15.5</ele><time>2026-04-11T14:33:49Z</time></trkpt><trkpt lat="41.24698222804522" lon="13.850474793177472"><ele>15.0</ele><time>2026-04-11T14:33:50Z</time></trkpt><trkpt lat="41.2468700862888" lon="13.850385613576996"><ele>15.0</ele><time>2026-04-11T14:33:51Z</time></trkpt><trkpt lat="41.246759684755" lon="13.850308251576003"><ele>15.0</ele><time>2026-04-11T14:33:52Z</time></trkpt><trkpt lat="41.24665202325669" lon="13.850217301986325"><ele>15.0</ele><time>2026-04-11T14:33:53Z</time></trkpt><trkpt lat="41.246539530051336" lon="13.850123418754878"><ele>15.0</ele><time>2026-04-11T14:33:54Z</time></trkpt><trkpt lat="41.246421346772685" lon="13.850033209399268"><ele>13.75</ele><time>2026-04-11T14:33:55Z</time></trkpt><trkpt lat="41.24631350649831" lon="13.849947404779643"><ele>12.5</ele><time>2026-04-11T14:33:56Z</time></trkpt><trkpt lat="41.24620271839654" lon="13.84986290278568"><ele>11.25</ele><time>2026-04-11T14:33:57Z</time></trkpt><trkpt lat="41.246095466783636" lon="13.84977709408932"><ele>10.0</ele><time>2026-04-11T14:33:58Z</time></trkpt><trkpt lat="41.245986593170734" lon="13.849705308110181"><ele>10.0</ele><time>2026-04-11T14:33:59Z</time></trkpt><trkpt lat="41.24588416614693" lon="13.849624043455746"><ele>10.0</ele><time>2026-04-11T14:34:00Z</time></trkpt><trkpt lat="41.24578712775481" lon="13.849545531620326"><ele>10.0</ele><time>2026-04-11T14:34:01Z</time></trkpt><trkpt lat="41.245703379559416" lon="13.849481820023751"><ele>10.0</ele><time>2026-04-11T14:34:02Z</time></trkpt><trkpt lat="41.24562964576567" lon="13.849422785853703"><ele>10.0</ele><time>2026-04-11T14:34:03Z</time></trkpt><trkpt lat="41.24556598081408" lon="13.849371838455896"><ele>10.0</ele><time>2026-04-11T14:34:04Z</time></trkpt><trkpt lat="41.245501753589835" lon="13.849320667812522"><ele>10.0</ele><time>2026-04-11T14:34:05Z</time></trkpt><trkpt lat="41.245432077373714" lon="13.849262454821792"><ele>10.0</ele><time>2026-04-11T14:34:06Z</time></trkpt><trkpt lat="41.24536571452475" lon="13.849177767377483"><ele>10.0</ele><time>2026-04-11T14:34:07Z</time></trkpt><trkpt lat="41.24527507768118" lon="13.84909864960413"><ele>10.0</ele><time>2026-04-11T14:34:08Z</time></trkpt><trkpt lat="41.24517251276274" lon="13.849013797640218"><ele>10.0</ele><time>2026-04-11T14:34:09Z</time></trkpt><trkpt lat="41.245062626016235" lon="13.848908548370623"><ele>10.0</ele><time>2026-04-11T14:34:10Z</time></trkpt><trkpt lat="41.244940190249835" lon="13.848783172301763"><ele>10.0</ele><time>2026-04-11T14:34:11Z</time></trkpt><trkpt lat="41.24481979738418" lon="13.848646042634584"><ele>10.0</ele><time>2026-04-11T14:34:12Z</time></trkpt><trkpt lat="41.244690481475075" lon="13.848498971200295"><ele>10.0</ele><time>2026-04-11T14:34:13Z</time></trkpt><trkpt lat="41.2445565085771" lon="13.84834131938256"><ele>10.0</ele><time>2026-04-11T14:34:14Z</time></trkpt><trkpt lat="41.2444220177916" lon="13.848174509305647"><ele>10.0</ele><time>2026-04-11T14:34:15Z</time></trkpt><trkpt lat="41.24429662315945" lon="13.847992394056693"><ele>10.0</ele><time>2026-04-11T14:34:16Z</time></trkpt><trkpt lat="41.24418442556375" lon="13.847813790116216"><ele>10.0</ele><time>2026-04-11T14:34:17Z</time></trkpt><trkpt lat="41.24406913928585" lon="13.847636938330195"><ele>10.0</ele><time>2026-04-11T14:34:18Z</time></trkpt><trkpt lat="41.24395908387849" lon="13.847448185766558"><ele>9.666666666666668</ele><time>2026-04-11T14:34:19Z</time></trkpt><trkpt lat="41.24384082733661" lon="13.847260755193647"><ele>9.333333333333334</ele><time>2026-04-11T14:34:20Z</time></trkpt><trkpt lat="41.24372533426378" lon="13.847080242656387"><ele>9.0</ele><time>2026-04-11T14:34:21Z</time></trkpt><trkpt lat="41.24360289077047" lon="13.846917160923319"><ele>9.333333333333334</ele><time>2026-04-11T14:34:22.001Z</time></trkpt><trkpt lat="41.24347493090796" lon="13.846741677544806"><ele>9.666666666666668</ele><time>2026-04-11T14:34:23.001Z</time></trkpt><trkpt lat="41.24334325761972" lon="13.846547749241665"><ele>10.0</ele><time>2026-04-11T14:34:24.001Z</time></trkpt><trkpt lat="41.24320717830833" lon="13.846355002717887"><ele>10.0</ele><time>2026-04-11T14:34:25.001Z</time></trkpt><trkpt lat="41.24308212781329" lon="13.846133942475513"><ele>10.0</ele><time>2026-04-11T14:34:26.001Z</time></trkpt><trkpt lat="41.242949535022056" lon="13.845925635304738"><ele>10.0</ele><time>2026-04-11T14:34:27.001Z</time></trkpt><trkpt lat="41.242825507981074" lon="13.845730475124203"><ele>10.0</ele><time>2026-04-11T14:34:28.001Z</time></trkpt><trkpt lat="41.24268362270805" lon="13.845538615672908"><ele>10.0</ele><time>2026-04-11T14:34:29.001Z</time></trkpt><trkpt lat="41.24255177787744" lon="13.84532579081064"><ele>10.0</ele><time>2026-04-11T14:34:30.001Z</time></trkpt><trkpt lat="41.242423802955365" lon="13.845128947835892"><ele>9.333333333333334</ele><time>2026-04-11T14:34:31.001Z</time></trkpt><trkpt lat="41.24229098500942" lon="13.84492871582091"><ele>8.666666666666666</ele><time>2026-04-11T14:34:32.001Z</time></trkpt><trkpt lat="41.24216094689004" lon="13.844720439617936"><ele>8.0</ele><time>2026-04-11T14:34:33.001Z</time></trkpt><trkpt lat="41.242041174808975" lon="13.844496145934489"><ele>8.0</ele><time>2026-04-11T14:34:34.001Z</time></trkpt><trkpt lat="41.24189803452703" lon="13.844303126996916"><ele>8.0</ele><time>2026-04-11T14:34:35.001Z</time></trkpt><trkpt lat="41.241769853961635" lon="13.844102713802759"><ele>8.0</ele><time>2026-04-11T14:34:36.001Z</time></trkpt><trkpt lat="41.241655168064916" lon="13.843889003577994"><ele>8.0</ele><time>2026-04-11T14:34:37.001Z</time></trkpt><trkpt lat="41.241539451832075" lon="13.843701589895307"><ele>8.0</ele><time>2026-04-11T14:34:38.001Z</time></trkpt><trkpt lat="41.241404312560455" lon="13.843543925820777"><ele>8.0</ele><time>2026-04-11T14:34:39.001Z</time></trkpt><trkpt lat="41.2412646576031" lon="13.84339560372929"><ele>8.333333333333332</ele><time>2026-04-11T14:34:40.001Z</time></trkpt><trkpt lat="41.24112050886358" lon="13.843267641597825"><ele>8.666666666666666</ele><time>2026-04-11T14:34:41.001Z</time></trkpt><trkpt lat="41.24095358834536" lon="13.843162462918812"><ele>9.0</ele><time>2026-04-11T14:34:42.001Z</time></trkpt><trkpt lat="41.24078873643336" lon="13.843103026594434"><ele>9.0</ele><time>2026-04-11T14:34:43.001Z</time></trkpt><trkpt lat="41.24059353011006" lon="13.843064453067177"><ele>9.0</ele><time>2026-04-11T14:34:44.001Z</time></trkpt><trkpt lat="41.24039339071326" lon="13.843047128254245"><ele>9.0</ele><time>2026-04-11T14:34:45.001Z</time></trkpt><trkpt lat="41.24019599409652" lon="13.843056753424646"><ele>9.0</ele><time>2026-04-11T14:34:46.001Z</time></trkpt><trkpt lat="41.23998760522324" lon="13.843061723459021"><ele>9.0</ele><time>2026-04-11T14:34:47.001Z</time></trkpt><trkpt lat="41.239776034471646" lon="13.843067075143045"><ele>9.0</ele><time>2026-04-11T14:34:48.001Z</time></trkpt><trkpt lat="41.23956447429104" lon="13.843074863894255"><ele>9.0</ele><time>2026-04-11T14:34:49.001Z</time></trkpt><trkpt lat="41.23935771381687" lon="13.843074144690194"><ele>9.0</ele><time>2026-04-11T14:34:50.001Z</time></trkpt><trkpt lat="41.23915305458734" lon="13.843078052621781"><ele>9.0</ele><time>2026-04-11T14:34:51.001Z</time></trkpt><trkpt lat="41.23893897059649" lon="13.843080668425902"><ele>10.333333333333332</ele><time>2026-04-11T14:34:52.001Z</time></trkpt><trkpt lat="41.2387258675539" lon="13.843077880151878"><ele>11.666666666666666</ele><time>2026-04-11T14:34:53.001Z</time></trkpt><trkpt lat="41.23854028108849" lon="13.843076654296485"><ele>13.0</ele><time>2026-04-11T14:34:54.001Z</time></trkpt><trkpt lat="41.238369886585275" lon="13.843076043611982"><ele>13.0</ele><time>2026-04-11T14:34:55.001Z</time></trkpt><trkpt lat="41.23818740160111" lon="13.843074609399793"><ele>13.0</ele><time>2026-04-11T14:34:56.001Z</time></trkpt><trkpt lat="41.23800566666974" lon="13.843075833120164"><ele>13.0</ele><time>2026-04-11T14:34:57.001Z</time></trkpt><trkpt lat="41.23782808752064" lon="13.843079224895659"><ele>12.666666666666666</ele><time>2026-04-11T14:34:58.001Z</time></trkpt><trkpt lat="41.237662281258714" lon="13.843083463397317"><ele>12.333333333333332</ele><time>2026-04-11T14:34:59.001Z</time></trkpt><trkpt lat="41.23750996107568" lon="13.843084363936672"><ele>12.0</ele><time>2026-04-11T14:35:00.001Z</time></trkpt><trkpt lat="41.23734439251261" lon="13.84308495074493"><ele>11.666666666666666</ele><time>2026-04-11T14:35:01.001Z</time></trkpt><trkpt lat="41.23717177247323" lon="13.843086448746053"><ele>11.333333333333332</ele><time>2026-04-11T14:35:02.001Z</time></trkpt><trkpt lat="41.236993247328385" lon="13.843088162591751"><ele>11.0</ele><time>2026-04-11T14:35:03.001Z</time></trkpt><trkpt lat="41.2368093517051" lon="13.84309276391186"><ele>11.0</ele><time>2026-04-11T14:35:04.001Z</time></trkpt><trkpt lat="41.23662714760215" lon="13.843099829328416"><ele>11.0</ele><time>2026-04-11T14:35:05.001Z</time></trkpt><trkpt lat="41.23645729662829" lon="13.843102485112842"><ele>11.0</ele><time>2026-04-11T14:35:06.001Z</time></trkpt><trkpt lat="41.236299545935324" lon="13.84310607076083"><ele>11.0</ele><time>2026-04-11T14:35:07.001Z</time></trkpt><trkpt lat="41.23615248482011" lon="13.84311049279814"><ele>11.0</ele><time>2026-04-11T14:35:08.001Z</time></trkpt><trkpt lat="41.236015258034925" lon="13.843113744265022"><ele>11.0</ele><time>2026-04-11T14:35:09.001Z</time></trkpt><trkpt lat="41.235898628827385" lon="13.843113566095653"><ele>11.0</ele><time>2026-04-11T14:35:10.001Z</time></trkpt><trkpt lat="41.235793071894086" lon="13.843115434591223"><ele>11.0</ele><time>2026-04-11T14:35:11.001Z</time></trkpt><trkpt lat="41.23569775219781" lon="13.843113193773828"><ele>11.0</ele><time>2026-04-11T14:35:12.001Z</time></trkpt><trkpt lat="41.23561577724925" lon="13.843114206810348"><ele>11.0</ele><time>2026-04-11T14:35:13.001Z</time></trkpt><trkpt lat="41.235543671389856" lon="13.843109412771607"><ele>11.0</ele><time>2026-04-11T14:35:14.001Z</time></trkpt><trkpt lat="41.23544187005076" lon="13.843084776087005"><ele>11.0</ele><time>2026-04-11T14:35:16.001Z</time></trkpt><trkpt lat="41.23536211018906" lon="13.84303890748191"><ele>11.0</ele><time>2026-04-11T14:35:18.001Z</time></trkpt><trkpt lat="41.2353182810487" lon="13.842949268060803"><ele>11.166666666666666</ele><time>2026-04-11T14:35:20.001Z</time></trkpt><trkpt lat="41.23532326091412" lon="13.842836155150316"><ele>11.333333333333332</ele><time>2026-04-11T14:35:22.001Z</time></trkpt><trkpt lat="41.23539805181499" lon="13.842773445052496"><ele>11.5</ele><time>2026-04-11T14:35:24.001Z</time></trkpt><trkpt lat="41.2354531441099" lon="13.842729356300561"><ele>11.666666666666666</ele><time>2026-04-11T14:35:30.002Z</time></trkpt><trkpt lat="41.23546287326554" lon="13.842641170285827"><ele>11.833333333333334</ele><time>2026-04-11T14:36:20Z</time></trkpt><trkpt lat="41.235497202344625" lon="13.842523555919948"><ele>12.0</ele><time>2026-04-11T14:36:22Z</time></trkpt><trkpt lat="41.235566221534434" lon="13.84241101194994"><ele>12.0</ele><time>2026-04-11T14:36:24Z</time></trkpt><trkpt lat="41.235633819539906" lon="13.842283159011332"><ele>12.0</ele><time>2026-04-11T14:36:26Z</time></trkpt><trkpt lat="41.2356717470978" lon="13.842204412645625"><ele>12.0</ele><time>2026-04-11T14:36:27Z</time></trkpt><trkpt lat="41.23570154254117" lon="13.84212370067768"><ele>12.0</ele><time>2026-04-11T14:36:28Z</time></trkpt><trkpt lat="41.235745284867164" lon="13.842043207752074"><ele>12.0</ele><time>2026-04-11T14:36:29Z</time></trkpt><trkpt lat="41.235798547636335" lon="13.84195959589352"><ele>12.0</ele><time>2026-04-11T14:36:30Z</time></trkpt><trkpt lat="41.235845999854156" lon="13.841894186383842"><ele>12.0</ele><time>2026-04-11T14:36:31.001Z</time></trkpt><trkpt lat="41.23588848368225" lon="13.841811966581929"><ele>12.0</ele><time>2026-04-11T14:36:32.001Z</time></trkpt><trkpt lat="41.23592415037189" lon="13.84171123093314"><ele>12.0</ele><time>2026-04-11T14:36:33.001Z</time></trkpt><trkpt lat="41.235949655934476" lon="13.841605855252025"><ele>12.0</ele><time>2026-04-11T14:36:34.001Z</time></trkpt><trkpt lat="41.235990285902666" lon="13.841500334037768"><ele>12.0</ele><time>2026-04-11T14:36:35.001Z</time></trkpt><trkpt lat="41.23604620887561" lon="13.84138131291537"><ele>12.0</ele><time>2026-04-11T14:36:36.001Z</time></trkpt><trkpt lat="41.23611565080715" lon="13.84128477657859"><ele>12.25</ele><time>2026-04-11T14:36:37.001Z</time></trkpt><trkpt lat="41.23616865007304" lon="13.841161481637613"><ele>12.5</ele><time>2026-04-11T14:36:38.001Z</time></trkpt><trkpt lat="41.23622922355302" lon="13.841038908958247"><ele>12.75</ele><time>2026-04-11T14:36:39.001Z</time></trkpt><trkpt lat="41.2362710131993" lon="13.840889925870751"><ele>13.0</ele><time>2026-04-11T14:36:40.001Z</time></trkpt><trkpt lat="41.236310816066094" lon="13.84073760061891"><ele>13.0</ele><time>2026-04-11T14:36:41.001Z</time></trkpt><trkpt lat="41.236351325597575" lon="13.840575086038166"><ele>13.0</ele><time>2026-04-11T14:36:42.001Z</time></trkpt><trkpt lat="41.236390960823975" lon="13.840410129509229"><ele>13.0</ele><time>2026-04-11T14:36:43.001Z</time></trkpt><trkpt lat="41.23643414200091" lon="13.840228691637664"><ele>13.0</ele><time>2026-04-11T14:36:44.001Z</time></trkpt><trkpt lat="41.23647613260959" lon="13.840040492669939"><ele>12.666666666666666</ele><time>2026-04-11T14:36:45.001Z</time></trkpt><trkpt lat="41.23652340597379" lon="13.839840455577258"><ele>12.333333333333332</ele><time>2026-04-11T14:36:46.001Z</time></trkpt><trkpt lat="41.23656815535037" lon="13.839638366627547"><ele>12.0</ele><time>2026-04-11T14:36:47.001Z</time></trkpt><trkpt lat="41.23661424054012" lon="13.839434652640143"><ele>12.0</ele><time>2026-04-11T14:36:48.001Z</time></trkpt><trkpt lat="41.236659845996385" lon="13.839225560256159"><ele>12.0</ele><time>2026-04-11T14:36:49.001Z</time></trkpt><trkpt lat="41.23670310900935" lon="13.839007118269656"><ele>12.0</ele><time>2026-04-11T14:36:50.001Z</time></trkpt><trkpt lat="41.236745404572844" lon="13.838801205722765"><ele>12.0</ele><time>2026-04-11T14:36:51.001Z</time></trkpt><trkpt lat="41.236786710489575" lon="13.83857573698673"><ele>12.0</ele><time>2026-04-11T14:36:52.001Z</time></trkpt><trkpt lat="41.236827822794076" lon="13.838356501924142"><ele>12.0</ele><time>2026-04-11T14:36:53.001Z</time></trkpt><trkpt lat="41.23685662222936" lon="13.838135212145678"><ele>12.0</ele><time>2026-04-11T14:36:54.001Z</time></trkpt><trkpt lat="41.236881284888824" lon="13.837890689929285"><ele>12.0</ele><time>2026-04-11T14:36:55.001Z</time></trkpt><trkpt lat="41.23690308432164" lon="13.837658740154103"><ele>12.0</ele><time>2026-04-11T14:36:56.001Z</time></trkpt><trkpt lat="41.23690549256735" lon="13.83743461373855"><ele>11.666666666666666</ele><time>2026-04-11T14:36:57.001Z</time></trkpt><trkpt lat="41.23690798055632" lon="13.837213933939356"><ele>11.333333333333332</ele><time>2026-04-11T14:36:58.001Z</time></trkpt><trkpt lat="41.23692387530808" lon="13.836962261745112"><ele>11.0</ele><time>2026-04-11T14:36:59.001Z</time></trkpt><trkpt lat="41.23695110275683" lon="13.836730695167912"><ele>10.0</ele><time>2026-04-11T14:37:00.001Z</time></trkpt><trkpt lat="41.23700525242793" lon="13.83650781907692"><ele>9.0</ele><time>2026-04-11T14:37:01.001Z</time></trkpt><trkpt lat="41.23703097930952" lon="13.836279376526267"><ele>8.0</ele><time>2026-04-11T14:37:02.001Z</time></trkpt><trkpt lat="41.237077271790085" lon="13.83604988621308"><ele>8.0</ele><time>2026-04-11T14:37:03.001Z</time></trkpt><trkpt lat="41.237126516618915" lon="13.835819624003017"><ele>8.0</ele><time>2026-04-11T14:37:04.001Z</time></trkpt><trkpt lat="41.23717672089828" lon="13.835582413087327"><ele>8.0</ele><time>2026-04-11T14:37:05.001Z</time></trkpt><trkpt lat="41.23721426350478" lon="13.83532789673043"><ele>8.0</ele><time>2026-04-11T14:37:06.001Z</time></trkpt><trkpt lat="41.23727897161924" lon="13.835080218653204"><ele>8.0</ele><time>2026-04-11T14:37:07.001Z</time></trkpt><trkpt lat="41.23730987942936" lon="13.834833386209807"><ele>8.0</ele><time>2026-04-11T14:37:08.001Z</time></trkpt><trkpt lat="41.237365039575536" lon="13.834590907934002"><ele>8.0</ele><time>2026-04-11T14:37:09.001Z</time></trkpt><trkpt lat="41.237411092195124" lon="13.834354662644353"><ele>8.0</ele><time>2026-04-11T14:37:10.001Z</time></trkpt><trkpt lat="41.237457958707914" lon="13.834129666603337"><ele>8.0</ele><time>2026-04-11T14:37:11.001Z</time></trkpt><trkpt lat="41.23750894178586" lon="13.833881601417508"><ele>8.0</ele><time>2026-04-11T14:37:12.001Z</time></trkpt><trkpt lat="41.23755941582613" lon="13.83366865968109"><ele>8.0</ele><time>2026-04-11T14:37:13.001Z</time></trkpt><trkpt lat="41.237605401593335" lon="13.833478046262654"><ele>8.0</ele><time>2026-04-11T14:37:14.001Z</time></trkpt><trkpt lat="41.237650027141996" lon="13.83330762225756"><ele>8.0</ele><time>2026-04-11T14:37:15.001Z</time></trkpt><trkpt lat="41.23768680452467" lon="13.833149399310333"><ele>8.0</ele><time>2026-04-11T14:37:16.001Z</time></trkpt><trkpt lat="41.23772115059619" lon="13.83301235332099"><ele>8.0</ele><time>2026-04-11T14:37:17.001Z</time></trkpt><trkpt lat="41.237752032754365" lon="13.83289335205115"><ele>8.0</ele><time>2026-04-11T14:37:18.001Z</time></trkpt><trkpt lat="41.23777569910843" lon="13.832762917177115"><ele>8.0</ele><time>2026-04-11T14:37:19.001Z</time></trkpt><trkpt lat="41.237809181536804" lon="13.832648970639243"><ele>8.0</ele><time>2026-04-11T14:37:20.001Z</time></trkpt><trkpt lat="41.23783793733702" lon="13.832514761135483"><ele>8.0</ele><time>2026-04-11T14:37:21.001Z</time></trkpt><trkpt lat="41.23787439324593" lon="13.832384122082374"><ele>8.0</ele><time>2026-04-11T14:37:22.001Z</time></trkpt><trkpt lat="41.23790528817727" lon="13.832248718344486"><ele>8.0</ele><time>2026-04-11T14:37:23.001Z</time></trkpt><trkpt lat="41.237940810546725" lon="13.832107879146376"><ele>8.0</ele><time>2026-04-11T14:37:24.001Z</time></trkpt><trkpt lat="41.237975825030354" lon="13.831963746116983"><ele>8.0</ele><time>2026-04-11T14:37:25.001Z</time></trkpt><trkpt lat="41.23801953205545" lon="13.831822823259893"><ele>8.0</ele><time>2026-04-11T14:37:26.001Z</time></trkpt><trkpt lat="41.23805947748572" lon="13.8316844232313"><ele>8.0</ele><time>2026-04-11T14:37:27.001Z</time></trkpt><trkpt lat="41.238103246868455" lon="13.83153245894364"><ele>8.0</ele><time>2026-04-11T14:37:28.001Z</time></trkpt><trkpt lat="41.23815468103001" lon="13.831382467164728"><ele>8.0</ele><time>2026-04-11T14:37:29.001Z</time></trkpt><trkpt lat="41.23821317441499" lon="13.831242035794341"><ele>8.0</ele><time>2026-04-11T14:37:30.001Z</time></trkpt><trkpt lat="41.2382695423829" lon="13.831082729276265"><ele>8.0</ele><time>2026-04-11T14:37:31.001Z</time></trkpt><trkpt lat="41.23833145248056" lon="13.830932489911966"><ele>8.0</ele><time>2026-04-11T14:37:32.001Z</time></trkpt><trkpt lat="41.23839999254317" lon="13.83078211584344"><ele>8.25</ele><time>2026-04-11T14:37:33.001Z</time></trkpt><trkpt lat="41.23846193621303" lon="13.83064022319904"><ele>8.5</ele><time>2026-04-11T14:37:34.002Z</time></trkpt><trkpt lat="41.238523219663385" lon="13.830489911449593"><ele>8.75</ele><time>2026-04-11T14:37:35.002Z</time></trkpt><trkpt lat="41.23857844539179" lon="13.830362459422767"><ele>9.0</ele><time>2026-04-11T14:37:36.002Z</time></trkpt><trkpt lat="41.23863292965626" lon="13.830242893365712"><ele>8.8</ele><time>2026-04-11T14:37:37.002Z</time></trkpt><trkpt lat="41.2386815352302" lon="13.83013635945843"><ele>8.600000000000001</ele><time>2026-04-11T14:37:38.002Z</time></trkpt><trkpt lat="41.23873073584315" lon="13.830020472912167"><ele>8.4</ele><time>2026-04-11T14:37:39.002Z</time></trkpt><trkpt lat="41.23878131938005" lon="13.829896870390877"><ele>8.200000000000001</ele><time>2026-04-11T14:37:40.002Z</time></trkpt><trkpt lat="41.238834618121565" lon="13.82979694701513"><ele>8.0</ele><time>2026-04-11T14:37:41.002Z</time></trkpt><trkpt lat="41.238893957197504" lon="13.829703964432106"><ele>7.999999999999999</ele><time>2026-04-11T14:37:42.002Z</time></trkpt><trkpt lat="41.23896258304649" lon="13.829648673449658"><ele>8.0</ele><time>2026-04-11T14:37:43.002Z</time></trkpt><trkpt lat="41.23902326142101" lon="13.829575707585414"><ele>8.0</ele><time>2026-04-11T14:37:44Z</time></trkpt><trkpt lat="41.23908064965582" lon="13.8294835955657"><ele>8.0</ele><time>2026-04-11T14:37:45Z</time></trkpt><trkpt lat="41.23913739680655" lon="13.829385851305195"><ele>7.999999999999999</ele><time>2026-04-11T14:37:46Z</time></trkpt><trkpt lat="41.239187030087976" lon="13.829300562731124"><ele>8.0</ele><time>2026-04-11T14:37:47Z</time></trkpt><trkpt lat="41.239227376485374" lon="13.829232643475095"><ele>7.833333333333333</ele><time>2026-04-11T14:37:48Z</time></trkpt><trkpt lat="41.2392126224839" lon="13.829122745104396"><ele>7.666666666666666</ele><time>2026-04-11T14:37:49Z</time></trkpt><trkpt lat="41.239237526781025" lon="13.829012689838619"><ele>7.5</ele><time>2026-04-11T14:37:51Z</time></trkpt><trkpt lat="41.239209255075096" lon="13.828923805262884"><ele>7.333333333333334</ele><time>2026-04-11T14:38:03Z</time></trkpt><trkpt lat="41.23917300350925" lon="13.828995726741653"><ele>7.166666666666667</ele><time>2026-04-11T14:38:06Z</time></trkpt><trkpt lat="41.239081445857444" lon="13.829047177036779"><ele>7.0</ele><time>2026-04-11T14:38:07Z</time></trkpt><trkpt lat="41.239048263114995" lon="13.829158044292358"><ele>7.0</ele><time>2026-04-11T14:38:08Z</time></trkpt><trkpt lat="41.23900494312966" lon="13.82928198106586"><ele>7.0</ele><time>2026-04-11T14:38:09Z</time></trkpt><trkpt lat="41.23895705840989" lon="13.82941762914369"><ele>7.0</ele><time>2026-04-11T14:38:10Z</time></trkpt><trkpt lat="41.23888883460287" lon="13.829557714735218"><ele>7.0</ele><time>2026-04-11T14:38:11Z</time></trkpt><trkpt lat="41.238819941492444" lon="13.829715404626269"><ele>7.25</ele><time>2026-04-11T14:38:12Z</time></trkpt><trkpt lat="41.238753521637456" lon="13.829875236993583"><ele>7.5</ele><time>2026-04-11T14:38:13Z</time></trkpt><trkpt lat="41.23868549041069" lon="13.83004403355941"><ele>7.75</ele><time>2026-04-11T14:38:14Z</time></trkpt><trkpt lat="41.238610588117844" lon="13.830209832774148"><ele>8.0</ele><time>2026-04-11T14:38:15Z</time></trkpt><trkpt lat="41.23854162455408" lon="13.830357527860242"><ele>8.0</ele><time>2026-04-11T14:38:16Z</time></trkpt><trkpt lat="41.2384715477764" lon="13.830520988657975"><ele>8.0</ele><time>2026-04-11T14:38:17Z</time></trkpt><trkpt lat="41.23840450078391" lon="13.830701911615765"><ele>8.0</ele><time>2026-04-11T14:38:18Z</time></trkpt><trkpt lat="41.23832877970423" lon="13.83087987494458"><ele>8.0</ele><time>2026-04-11T14:38:19Z</time></trkpt><trkpt lat="41.23823903109954" lon="13.8310558878236"><ele>8.0</ele><time>2026-04-11T14:38:20Z</time></trkpt><trkpt lat="41.23816151010734" lon="13.831248264923591"><ele>8.0</ele><time>2026-04-11T14:38:21Z</time></trkpt><trkpt lat="41.23808686868282" lon="13.831456731788725"><ele>8.0</ele><time>2026-04-11T14:38:22Z</time></trkpt><trkpt lat="41.23801387407595" lon="13.83168727439907"><ele>8.0</ele><time>2026-04-11T14:38:23Z</time></trkpt><trkpt lat="41.23795335002234" lon="13.831898096091757"><ele>8.0</ele><time>2026-04-11T14:38:24Z</time></trkpt><trkpt lat="41.23788997242752" lon="13.832141470139092"><ele>8.0</ele><time>2026-04-11T14:38:25Z</time></trkpt><trkpt lat="41.23782717715342" lon="13.832389048357484"><ele>8.0</ele><time>2026-04-11T14:38:26Z</time></trkpt><trkpt lat="41.237765135639904" lon="13.832637324770367"><ele>8.0</ele><time>2026-04-11T14:38:27Z</time></trkpt><trkpt lat="41.237701417945964" lon="13.832892308829152"><ele>8.0</ele><time>2026-04-11T14:38:28Z</time></trkpt><trkpt lat="41.23763741413154" lon="13.833148438128996"><ele>8.0</ele><time>2026-04-11T14:38:29Z</time></trkpt><trkpt lat="41.23757723844755" lon="13.833407090240804"><ele>8.0</ele><time>2026-04-11T14:38:30Z</time></trkpt><trkpt lat="41.23751827981105" lon="13.83366891279837"><ele>8.0</ele><time>2026-04-11T14:38:31Z</time></trkpt><trkpt lat="41.23746385643176" lon="13.83393770947335"><ele>8.0</ele><time>2026-04-11T14:38:32Z</time></trkpt><trkpt lat="41.23741259927663" lon="13.834199750002266"><ele>8.0</ele><time>2026-04-11T14:38:33Z</time></trkpt><trkpt lat="41.237362228784846" lon="13.834466945672153"><ele>8.0</ele><time>2026-04-11T14:38:34Z</time></trkpt><trkpt lat="41.23731331619793" lon="13.83472546684735"><ele>8.0</ele><time>2026-04-11T14:38:35Z</time></trkpt><trkpt lat="41.23726136317715" lon="13.834993583104332"><ele>8.0</ele><time>2026-04-11T14:38:36Z</time></trkpt><trkpt lat="41.23720770347353" lon="13.835270507065795"><ele>8.0</ele><time>2026-04-11T14:38:37Z</time></trkpt><trkpt lat="41.23715544582731" lon="13.835540195540187"><ele>8.0</ele><time>2026-04-11T14:38:38Z</time></trkpt><trkpt lat="41.2371059848285" lon="13.835795451136526"><ele>8.0</ele><time>2026-04-11T14:38:39.001Z</time></trkpt><trkpt lat="41.23705502817138" lon="13.836058425339376"><ele>8.0</ele><time>2026-04-11T14:38:40.001Z</time></trkpt><trkpt lat="41.23700617139441" lon="13.836317486437565"><ele>8.0</ele><time>2026-04-11T14:38:41.001Z</time></trkpt><trkpt lat="41.23695515608108" lon="13.83659316931268"><ele>8.0</ele><time>2026-04-11T14:38:42.001Z</time></trkpt><trkpt lat="41.23691049503916" lon="13.836867280577298"><ele>8.0</ele><time>2026-04-11T14:38:43.001Z</time></trkpt><trkpt lat="41.23688445669067" lon="13.837143464611547"><ele>9.0</ele><time>2026-04-11T14:38:44.001Z</time></trkpt><trkpt lat="41.23685761835384" lon="13.837414080537565"><ele>10.0</ele><time>2026-04-11T14:38:45.001Z</time></trkpt><trkpt lat="41.236829042575906" lon="13.837689596213329"><ele>11.0</ele><time>2026-04-11T14:38:46.001Z</time></trkpt><trkpt lat="41.23680265003793" lon="13.837971603080081"><ele>11.333333333333332</ele><time>2026-04-11T14:38:47.001Z</time></trkpt><trkpt lat="41.23679152650894" lon="13.83824204025822"><ele>11.666666666666666</ele><time>2026-04-11T14:38:48.001Z</time></trkpt><trkpt lat="41.23674017871901" lon="13.83850615069036"><ele>12.0</ele><time>2026-04-11T14:38:49.001Z</time></trkpt><trkpt lat="41.236711445139214" lon="13.838776455484624"><ele>12.0</ele><time>2026-04-11T14:38:50.001Z</time></trkpt><trkpt lat="41.23665756893558" lon="13.839036764687403"><ele>12.0</ele><time>2026-04-11T14:38:51.001Z</time></trkpt><trkpt lat="41.23660597714231" lon="13.839292334922428"><ele>12.0</ele><time>2026-04-11T14:38:52.001Z</time></trkpt><trkpt lat="41.23655236696101" lon="13.83957113639676"><ele>12.0</ele><time>2026-04-11T14:38:53.001Z</time></trkpt><trkpt lat="41.236498417577764" lon="13.839841657600527"><ele>12.0</ele><time>2026-04-11T14:38:54.001Z</time></trkpt><trkpt lat="41.23644129022746" lon="13.840111539800574"><ele>12.0</ele><time>2026-04-11T14:38:55.001Z</time></trkpt><trkpt lat="41.23637514603568" lon="13.840370557129521"><ele>12.333333333333332</ele><time>2026-04-11T14:38:56.001Z</time></trkpt><trkpt lat="41.23630885341726" lon="13.840636387264286"><ele>12.666666666666666</ele><time>2026-04-11T14:38:57.001Z</time></trkpt><trkpt lat="41.23624307913481" lon="13.840880061935884"><ele>13.0</ele><time>2026-04-11T14:38:58.001Z</time></trkpt><trkpt lat="41.23618551797333" lon="13.841068178858398"><ele>13.0</ele><time>2026-04-11T14:38:59.001Z</time></trkpt><trkpt lat="41.23613366851854" lon="13.841210430388648"><ele>13.0</ele><time>2026-04-11T14:39:00.001Z</time></trkpt><trkpt lat="41.23606674071132" lon="13.841313681231476"><ele>13.0</ele><time>2026-04-11T14:39:01.001Z</time></trkpt><trkpt lat="41.23598782231987" lon="13.841382328999748"><ele>13.0</ele><time>2026-04-11T14:39:02.001Z</time></trkpt><trkpt lat="41.23589451243502" lon="13.841423860204115"><ele>13.0</ele><time>2026-04-11T14:39:03.001Z</time></trkpt><trkpt lat="41.235789688043894" lon="13.841424758752753"><ele>13.0</ele><time>2026-04-11T14:39:04.001Z</time></trkpt><trkpt lat="41.23568692809967" lon="13.841443978243786"><ele>13.0</ele><time>2026-04-11T14:39:05.001Z</time></trkpt><trkpt lat="41.23559191397392" lon="13.841518084527134"><ele>13.0</ele><time>2026-04-11T14:39:06.001Z</time></trkpt><trkpt lat="41.23550666828769" lon="13.841597204516917"><ele>13.0</ele><time>2026-04-11T14:39:07.001Z</time></trkpt><trkpt lat="41.23541634693861" lon="13.841639128945094"><ele>13.0</ele><time>2026-04-11T14:39:08.001Z</time></trkpt><trkpt lat="41.23534271892678" lon="13.841694013110594"><ele>13.0</ele><time>2026-04-11T14:39:09.001Z</time></trkpt><trkpt lat="41.235219496718074" lon="13.841636374755756"><ele>13.0</ele><time>2026-04-11T14:39:11.001Z</time></trkpt><trkpt lat="41.23515270484345" lon="13.841587918619348"><ele>13.0</ele><time>2026-04-11T14:39:13.001Z</time></trkpt><trkpt lat="41.235077109243754" lon="13.841485974738104"><ele>13.0</ele><time>2026-04-11T14:39:15.001Z</time></trkpt><trkpt lat="41.23502898746339" lon="13.841431467371274"><ele>13.0</ele><time>2026-04-11T14:39:16.001Z</time></trkpt><trkpt lat="41.234923583582805" lon="13.841327735207479"><ele>12.999999999999998</ele><time>2026-04-11T14:39:18.001Z</time></trkpt><trkpt lat="41.23486407675793" lon="13.841275702391739"><ele>13.0</ele><time>2026-04-11T14:39:19.001Z</time></trkpt><trkpt lat="41.23480143907809" lon="13.841214340693721"><ele>13.0</ele><time>2026-04-11T14:39:20.001Z</time></trkpt><trkpt lat="41.23474591077365" lon="13.841142860882387"><ele>13.0</ele><time>2026-04-11T14:39:21.001Z</time></trkpt><trkpt lat="41.234688463580326" lon="13.841078305594486"><ele>12.999999999999998</ele><time>2026-04-11T14:39:22.001Z</time></trkpt><trkpt lat="41.23462431159729" lon="13.841013604758263"><ele>13.0</ele><time>2026-04-11T14:39:23.001Z</time></trkpt><trkpt lat="41.234553978379054" lon="13.840941586978834"><ele>12.4</ele><time>2026-04-11T14:39:24.001Z</time></trkpt><trkpt lat="41.234486516173064" lon="13.840865958181526"><ele>11.8</ele><time>2026-04-11T14:39:25.001Z</time></trkpt><trkpt lat="41.23441939413836" lon="13.840793862101533"><ele>11.2</ele><time>2026-04-11T14:39:26.001Z</time></trkpt><trkpt lat="41.234338837069814" lon="13.840711739743085"><ele>10.6</ele><time>2026-04-11T14:39:27.001Z</time></trkpt><trkpt lat="41.2342620968592" lon="13.840623132154997"><ele>10.0</ele><time>2026-04-11T14:39:28.001Z</time></trkpt><trkpt lat="41.23417381727363" lon="13.840540713871729"><ele>10.0</ele><time>2026-04-11T14:39:29.001Z</time></trkpt><trkpt lat="41.234078417853794" lon="13.840454206718782"><ele>10.0</ele><time>2026-04-11T14:39:30.001Z</time></trkpt><trkpt lat="41.233996194660556" lon="13.840361503679558"><ele>10.0</ele><time>2026-04-11T14:39:31.001Z</time></trkpt><trkpt lat="41.233924903509426" lon="13.840279911528476"><ele>10.0</ele><time>2026-04-11T14:39:32.001Z</time></trkpt><trkpt lat="41.23386213999154" lon="13.840199729688697"><ele>10.0</ele><time>2026-04-11T14:39:33.001Z</time></trkpt><trkpt lat="41.2337905960006" lon="13.84011401643832"><ele>10.2</ele><time>2026-04-11T14:39:34.001Z</time></trkpt><trkpt lat="41.23371131861205" lon="13.840027415011237"><ele>10.4</ele><time>2026-04-11T14:39:35.001Z</time></trkpt><trkpt lat="41.23363046027069" lon="13.839941248417492"><ele>10.600000000000001</ele><time>2026-04-11T14:39:36.001Z</time></trkpt><trkpt lat="41.23354052625287" lon="13.83984760396213"><ele>10.8</ele><time>2026-04-11T14:39:37.002Z</time></trkpt><trkpt lat="41.233450793295084" lon="13.839770426224652"><ele>11.0</ele><time>2026-04-11T14:39:38.002Z</time></trkpt><trkpt lat="41.23336909413812" lon="13.8396760367781"><ele>11.0</ele><time>2026-04-11T14:39:39.002Z</time></trkpt><trkpt lat="41.23328143346584" lon="13.83958290923425"><ele>11.0</ele><time>2026-04-11T14:39:40.002Z</time></trkpt><trkpt lat="41.23318585288167" lon="13.839490441782182"><ele>11.0</ele><time>2026-04-11T14:39:41.002Z</time></trkpt><trkpt lat="41.233097823649786" lon="13.839392402995655"><ele>11.0</ele><time>2026-04-11T14:39:42.002Z</time></trkpt><trkpt lat="41.233001889499256" lon="13.839289387821793"><ele>10.75</ele><time>2026-04-11T14:39:43.002Z</time></trkpt><trkpt lat="41.232902290765246" lon="13.83916998859409"><ele>10.5</ele><time>2026-04-11T14:39:44.002Z</time></trkpt><trkpt lat="41.23280002860239" lon="13.83905349318813"><ele>10.25</ele><time>2026-04-11T14:39:45.002Z</time></trkpt><trkpt lat="41.23269088768588" lon="13.838940497222413"><ele>10.0</ele><time>2026-04-11T14:39:46.002Z</time></trkpt><trkpt lat="41.23257390693923" lon="13.838821587835515"><ele>10.0</ele><time>2026-04-11T14:39:47.002Z</time></trkpt><trkpt lat="41.23244774157577" lon="13.838677962416067"><ele>10.0</ele><time>2026-04-11T14:39:48.002Z</time></trkpt><trkpt lat="41.23232157503063" lon="13.838531415202347"><ele>10.0</ele><time>2026-04-11T14:39:49.002Z</time></trkpt><trkpt lat="41.23216626237237" lon="13.838367304350719"><ele>10.0</ele><time>2026-04-11T14:39:50Z</time></trkpt><trkpt lat="41.23201931695488" lon="13.838213239104892"><ele>10.0</ele><time>2026-04-11T14:39:51Z</time></trkpt><trkpt lat="41.231883478139395" lon="13.838060118286634"><ele>10.0</ele><time>2026-04-11T14:39:52Z</time></trkpt><trkpt lat="41.23174414450115" lon="13.837907805904745"><ele>10.0</ele><time>2026-04-11T14:39:53Z</time></trkpt><trkpt lat="41.231600559960285" lon="13.837754597313644"><ele>10.0</ele><time>2026-04-11T14:39:54Z</time></trkpt><trkpt lat="41.231461104880395" lon="13.837597286556226"><ele>10.0</ele><time>2026-04-11T14:39:55Z</time></trkpt><trkpt lat="41.23132704809403" lon="13.837445153742474"><ele>10.0</ele><time>2026-04-11T14:39:56Z</time></trkpt><trkpt lat="41.231195924047036" lon="13.83729012467369"><ele>10.0</ele><time>2026-04-11T14:39:57Z</time></trkpt><trkpt lat="41.23105965083352" lon="13.837137994872403"><ele>10.0</ele><time>2026-04-11T14:39:58Z</time></trkpt><trkpt lat="41.2309181447525" lon="13.836987807581997"><ele>10.0</ele><time>2026-04-11T14:39:59Z</time></trkpt><trkpt lat="41.230781415082795" lon="13.836837398243"><ele>10.0</ele><time>2026-04-11T14:40:00Z</time></trkpt><trkpt lat="41.23063480537157" lon="13.83668709108119"><ele>10.0</ele><time>2026-04-11T14:40:01Z</time></trkpt><trkpt lat="41.23048930873946" lon="13.83653648657103"><ele>9.666666666666668</ele><time>2026-04-11T14:40:02Z</time></trkpt><trkpt lat="41.230351095509555" lon="13.836382436171798"><ele>9.333333333333334</ele><time>2026-04-11T14:40:03Z</time></trkpt><trkpt lat="41.230207776787786" lon="13.836236985620875"><ele>9.0</ele><time>2026-04-11T14:40:04Z</time></trkpt><trkpt lat="41.23007064711066" lon="13.836074920755616"><ele>7.666666666666667</ele><time>2026-04-11T14:40:05Z</time></trkpt><trkpt lat="41.229924493974124" lon="13.835917390173426"><ele>6.333333333333334</ele><time>2026-04-11T14:40:06Z</time></trkpt><trkpt lat="41.22977897223171" lon="13.835756076487872"><ele>5.0</ele><time>2026-04-11T14:40:07Z</time></trkpt><trkpt lat="41.22963048139301" lon="13.835592489040996"><ele>5.0</ele><time>2026-04-11T14:40:08Z</time></trkpt><trkpt lat="41.2294774330105" lon="13.835428665089944"><ele>5.0</ele><time>2026-04-11T14:40:09Z</time></trkpt><trkpt lat="41.229330063596095" lon="13.835272295518093"><ele>5.0</ele><time>2026-04-11T14:40:10Z</time></trkpt><trkpt lat="41.2291778328327" lon="13.835105196995581"><ele>5.0</ele><time>2026-04-11T14:40:11Z</time></trkpt><trkpt lat="41.22902845457766" lon="13.834941616153047"><ele>5.0</ele><time>2026-04-11T14:40:12Z</time></trkpt><trkpt lat="41.22887743121672" lon="13.834772176065181"><ele>5.0</ele><time>2026-04-11T14:40:13Z</time></trkpt><trkpt lat="41.228724228469275" lon="13.834609311827618"><ele>5.333333333333334</ele><time>2026-04-11T14:40:14Z</time></trkpt><trkpt lat="41.22857189953693" lon="13.834444354472796"><ele>5.666666666666667</ele><time>2026-04-11T14:40:15Z</time></trkpt><trkpt lat="41.228412443615156" lon="13.83428687520869"><ele>6.0</ele><time>2026-04-11T14:40:16Z</time></trkpt><trkpt lat="41.22826217980008" lon="13.834121228120333"><ele>5.666666666666667</ele><time>2026-04-11T14:40:17Z</time></trkpt><trkpt lat="41.228118994988755" lon="13.833949414862177"><ele>5.333333333333334</ele><time>2026-04-11T14:40:18Z</time></trkpt><trkpt lat="41.22796786130887" lon="13.833781030151266"><ele>5.0</ele><time>2026-04-11T14:40:19Z</time></trkpt><trkpt lat="41.22782636393154" lon="13.833620406508777"><ele>5.666666666666667</ele><time>2026-04-11T14:40:20Z</time></trkpt><trkpt lat="41.22767321534651" lon="13.833450502191893"><ele>6.333333333333334</ele><time>2026-04-11T14:40:21Z</time></trkpt><trkpt lat="41.22752109510332" lon="13.833288113317428"><ele>7.0</ele><time>2026-04-11T14:40:22Z</time></trkpt><trkpt lat="41.22736550378233" lon="13.833130165324114"><ele>7.333333333333334</ele><time>2026-04-11T14:40:23Z</time></trkpt><trkpt lat="41.22721620986171" lon="13.832962397683088"><ele>7.666666666666666</ele><time>2026-04-11T14:40:24Z</time></trkpt><trkpt lat="41.22706379056729" lon="13.832796190604546"><ele>8.0</ele><time>2026-04-11T14:40:25Z</time></trkpt><trkpt lat="41.22692318510456" lon="13.832629432020747"><ele>8.0</ele><time>2026-04-11T14:40:26Z</time></trkpt><trkpt lat="41.22677144738562" lon="13.832465982215723"><ele>8.0</ele><time>2026-04-11T14:40:27Z</time></trkpt><trkpt lat="41.22662429054686" lon="13.832293864839812"><ele>8.0</ele><time>2026-04-11T14:40:28Z</time></trkpt><trkpt lat="41.226475219174006" lon="13.832130590667495"><ele>8.0</ele><time>2026-04-11T14:40:29Z</time></trkpt><trkpt lat="41.22632604698899" lon="13.831966572997084"><ele>8.0</ele><time>2026-04-11T14:40:30Z</time></trkpt><trkpt lat="41.226178032995755" lon="13.83179727061197"><ele>8.0</ele><time>2026-04-11T14:40:31Z</time></trkpt><trkpt lat="41.22602853894665" lon="13.831643096432693"><ele>8.333333333333332</ele><time>2026-04-11T14:40:32Z</time></trkpt><trkpt lat="41.225879827782244" lon="13.831482639508938"><ele>8.666666666666666</ele><time>2026-04-11T14:40:33Z</time></trkpt><trkpt lat="41.22573366389586" lon="13.831334584985434"><ele>9.0</ele><time>2026-04-11T14:40:34.001Z</time></trkpt><trkpt lat="41.22559357934128" lon="13.831205231093206"><ele>9.0</ele><time>2026-04-11T14:40:35.001Z</time></trkpt><trkpt lat="41.225470678396086" lon="13.831102596755015"><ele>9.0</ele><time>2026-04-11T14:40:36.001Z</time></trkpt><trkpt lat="41.225350214023116" lon="13.831018451169365"><ele>9.0</ele><time>2026-04-11T14:40:37.001Z</time></trkpt><trkpt lat="41.225236650130725" lon="13.830935955006465"><ele>9.0</ele><time>2026-04-11T14:40:38.001Z</time></trkpt><trkpt lat="41.22512711728545" lon="13.830863035421777"><ele>9.0</ele><time>2026-04-11T14:40:39.001Z</time></trkpt><trkpt lat="41.2250171857628" lon="13.830769276022105"><ele>9.0</ele><time>2026-04-11T14:40:40.001Z</time></trkpt><trkpt lat="41.22489630899461" lon="13.830686880832642"><ele>9.0</ele><time>2026-04-11T14:40:41.001Z</time></trkpt><trkpt lat="41.22477563208611" lon="13.830593931561934"><ele>9.0</ele><time>2026-04-11T14:40:42.001Z</time></trkpt><trkpt lat="41.22464619555678" lon="13.830495723848017"><ele>9.333333333333334</ele><time>2026-04-11T14:40:43.001Z</time></trkpt><trkpt lat="41.22451854572393" lon="13.830390395788493"><ele>9.666666666666668</ele><time>2026-04-11T14:40:44.001Z</time></trkpt><trkpt lat="41.22438042738372" lon="13.83029057391024"><ele>10.0</ele><time>2026-04-11T14:40:45.001Z</time></trkpt><trkpt lat="41.22424296034631" lon="13.830191113931527"><ele>9.333333333333334</ele><time>2026-04-11T14:40:46.001Z</time></trkpt><trkpt lat="41.22410716353502" lon="13.830090156118333"><ele>8.666666666666666</ele><time>2026-04-11T14:40:47.001Z</time></trkpt><trkpt lat="41.22395641982546" lon="13.829962866847865"><ele>8.0</ele><time>2026-04-11T14:40:48.001Z</time></trkpt><trkpt lat="41.22379115396603" lon="13.829836092300797"><ele>8.0</ele><time>2026-04-11T14:40:49.001Z</time></trkpt><trkpt lat="41.22362989770299" lon="13.82970944181737"><ele>8.0</ele><time>2026-04-11T14:40:50.001Z</time></trkpt><trkpt lat="41.22346337569715" lon="13.829585891302916"><ele>8.0</ele><time>2026-04-11T14:40:51.001Z</time></trkpt><trkpt lat="41.22329604434089" lon="13.829460181194795"><ele>8.0</ele><time>2026-04-11T14:40:52.001Z</time></trkpt><trkpt lat="41.22313115968923" lon="13.829330940506178"><ele>8.0</ele><time>2026-04-11T14:40:53.001Z</time></trkpt><trkpt lat="41.222971494876354" lon="13.829203156447923"><ele>8.0</ele><time>2026-04-11T14:40:54.001Z</time></trkpt><trkpt lat="41.222811661148874" lon="13.829086961566732"><ele>8.333333333333332</ele><time>2026-04-11T14:40:55.001Z</time></trkpt><trkpt lat="41.22265749877387" lon="13.828987766942173"><ele>8.666666666666666</ele><time>2026-04-11T14:40:56.001Z</time></trkpt><trkpt lat="41.22248836839398" lon="13.828893577001114"><ele>9.0</ele><time>2026-04-11T14:40:57.001Z</time></trkpt><trkpt lat="41.22231412321906" lon="13.82881317571968"><ele>9.0</ele><time>2026-04-11T14:40:58.001Z</time></trkpt><trkpt lat="41.22213741629568" lon="13.828752536709562"><ele>9.0</ele><time>2026-04-11T14:40:59.001Z</time></trkpt><trkpt lat="41.22194539114109" lon="13.82870177873486"><ele>9.0</ele><time>2026-04-11T14:41:00.001Z</time></trkpt><trkpt lat="41.221753181201095" lon="13.828643071615295"><ele>9.0</ele><time>2026-04-11T14:41:01.001Z</time></trkpt><trkpt lat="41.221554207112135" lon="13.828593832162824"><ele>9.0</ele><time>2026-04-11T14:41:02.001Z</time></trkpt><trkpt lat="41.22136191072518" lon="13.82854179173827"><ele>9.0</ele><time>2026-04-11T14:41:03.001Z</time></trkpt><trkpt lat="41.22117235779167" lon="13.828480348752016"><ele>9.333333333333334</ele><time>2026-04-11T14:41:04.001Z</time></trkpt><trkpt lat="41.220980895980354" lon="13.8284230431515"><ele>9.666666666666668</ele><time>2026-04-11T14:41:05.001Z</time></trkpt><trkpt lat="41.220785424657926" lon="13.828374350950098"><ele>10.0</ele><time>2026-04-11T14:41:06.001Z</time></trkpt><trkpt lat="41.22060308416425" lon="13.828325406803371"><ele>10.0</ele><time>2026-04-11T14:41:07.001Z</time></trkpt><trkpt lat="41.22042131708998" lon="13.828269134834585"><ele>10.0</ele><time>2026-04-11T14:41:08.001Z</time></trkpt><trkpt lat="41.22023641946709" lon="13.828222615286938"><ele>10.0</ele><time>2026-04-11T14:41:09.001Z</time></trkpt><trkpt lat="41.22005280342556" lon="13.828182810040865"><ele>10.0</ele><time>2026-04-11T14:41:10.001Z</time></trkpt><trkpt lat="41.21986973940473" lon="13.828137042950695"><ele>10.0</ele><time>2026-04-11T14:41:11.001Z</time></trkpt><trkpt lat="41.21968309119908" lon="13.828086075318751"><ele>10.0</ele><time>2026-04-11T14:41:12.001Z</time></trkpt><trkpt lat="41.219502246403664" lon="13.82803949648116"><ele>10.0</ele><time>2026-04-11T14:41:13.001Z</time></trkpt><trkpt lat="41.21933173629759" lon="13.827990555821373"><ele>10.0</ele><time>2026-04-11T14:41:14.001Z</time></trkpt><trkpt lat="41.21916634445089" lon="13.82792937567654"><ele>10.0</ele><time>2026-04-11T14:41:15.001Z</time></trkpt><trkpt lat="41.2190037958861" lon="13.82784363506483"><ele>10.333333333333334</ele><time>2026-04-11T14:41:16.001Z</time></trkpt><trkpt lat="41.21884357843489" lon="13.827740905556205"><ele>10.666666666666666</ele><time>2026-04-11T14:41:17.001Z</time></trkpt><trkpt lat="41.21869013382367" lon="13.82761887793372"><ele>11.0</ele><time>2026-04-11T14:41:18.001Z</time></trkpt><trkpt lat="41.21855237352787" lon="13.827428911631053"><ele>10.333333333333332</ele><time>2026-04-11T14:41:19.001Z</time></trkpt><trkpt lat="41.21839586607368" lon="13.82723828152958"><ele>9.666666666666666</ele><time>2026-04-11T14:41:20.001Z</time></trkpt><trkpt lat="41.21822487219469" lon="13.827050892394535"><ele>9.0</ele><time>2026-04-11T14:41:21.001Z</time></trkpt><trkpt lat="41.21805058273421" lon="13.826819759624318"><ele>9.0</ele><time>2026-04-11T14:41:22.001Z</time></trkpt><trkpt lat="41.2178927080316" lon="13.82661475031154"><ele>9.0</ele><time>2026-04-11T14:41:23.001Z</time></trkpt><trkpt lat="41.21774367299421" lon="13.82643904897615"><ele>9.0</ele><time>2026-04-11T14:41:24.001Z</time></trkpt><trkpt lat="41.217600620023674" lon="13.82626824516642"><ele>9.0</ele><time>2026-04-11T14:41:25.001Z</time></trkpt><trkpt lat="41.21745840221737" lon="13.826103666040932"><ele>9.0</ele><time>2026-04-11T14:41:26.001Z</time></trkpt><trkpt lat="41.21733915056915" lon="13.825955012013214"><ele>9.0</ele><time>2026-04-11T14:41:27.001Z</time></trkpt><trkpt lat="41.21722056620337" lon="13.825810761846961"><ele>8.75</ele><time>2026-04-11T14:41:28.001Z</time></trkpt><trkpt lat="41.217106913961544" lon="13.825686269306932"><ele>8.5</ele><time>2026-04-11T14:41:29.001Z</time></trkpt><trkpt lat="41.21700455966907" lon="13.82556810522384"><ele>8.25</ele><time>2026-04-11T14:41:30.002Z</time></trkpt><trkpt lat="41.2168959600318" lon="13.825449133982184"><ele>8.0</ele><time>2026-04-11T14:41:31.002Z</time></trkpt><trkpt lat="41.216791168752934" lon="13.82532266891891"><ele>8.0</ele><time>2026-04-11T14:41:32.002Z</time></trkpt><trkpt lat="41.21668132739946" lon="13.825196299632527"><ele>8.0</ele><time>2026-04-11T14:41:33.002Z</time></trkpt><trkpt lat="41.21657232383891" lon="13.825054985282412"><ele>8.0</ele><time>2026-04-11T14:41:34.002Z</time></trkpt><trkpt lat="41.21644965636251" lon="13.824914811396502"><ele>8.0</ele><time>2026-04-11T14:41:35.002Z</time></trkpt><trkpt lat="41.21633371276044" lon="13.824777373089756"><ele>8.0</ele><time>2026-04-11T14:41:36.002Z</time></trkpt><trkpt lat="41.216229066211724" lon="13.82466245958445"><ele>8.0</ele><time>2026-04-11T14:41:37.002Z</time></trkpt><trkpt lat="41.21611972241943" lon="13.824536166424618"><ele>8.0</ele><time>2026-04-11T14:41:38.002Z</time></trkpt><trkpt lat="41.21601327806874" lon="13.824408285417086"><ele>8.0</ele><time>2026-04-11T14:41:39.002Z</time></trkpt><trkpt lat="41.21590942809139" lon="13.824281554388653"><ele>8.0</ele><time>2026-04-11T14:41:40.002Z</time></trkpt><trkpt lat="41.215785925862626" lon="13.82417191688405"><ele>8.0</ele><time>2026-04-11T14:41:41.002Z</time></trkpt><trkpt lat="41.21568113445837" lon="13.824050858650828"><ele>8.0</ele><time>2026-04-11T14:41:42.002Z</time></trkpt><trkpt lat="41.21558449611105" lon="13.823904883649506"><ele>8.0</ele><time>2026-04-11T14:41:43.002Z</time></trkpt><trkpt lat="41.21549369863076" lon="13.823758419217445"><ele>8.0</ele><time>2026-04-11T14:41:44.002Z</time></trkpt><trkpt lat="41.21541021684754" lon="13.82359226427179"><ele>8.0</ele><time>2026-04-11T14:41:45.002Z</time></trkpt><trkpt lat="41.21533923328788" lon="13.823410236282454"><ele>8.0</ele><time>2026-04-11T14:41:46.002Z</time></trkpt><trkpt lat="41.21526870992263" lon="13.823214706499401"><ele>7.666666666666666</ele><time>2026-04-11T14:41:47.002Z</time></trkpt><trkpt lat="41.21519879782843" lon="13.823000853086269"><ele>7.333333333333334</ele><time>2026-04-11T14:41:48.002Z</time></trkpt><trkpt lat="41.21513229696875" lon="13.822793407701408"><ele>7.0</ele><time>2026-04-11T14:41:49.002Z</time></trkpt><trkpt lat="41.215067606355895" lon="13.822591609279131"><ele>6.75</ele><time>2026-04-11T14:41:50.002Z</time></trkpt><trkpt lat="41.21500648951281" lon="13.822400959015098"><ele>6.5</ele><time>2026-04-11T14:41:51.002Z</time></trkpt><trkpt lat="41.21495063178135" lon="13.822231589900724"><ele>6.25</ele><time>2026-04-11T14:41:52.002Z</time></trkpt><trkpt lat="41.21488255992" lon="13.822073503623157"><ele>6.0</ele><time>2026-04-11T14:41:53.002Z</time></trkpt><trkpt lat="41.214822308018675" lon="13.821880852644576"><ele>5.666666666666667</ele><time>2026-04-11T14:41:54.002Z</time></trkpt><trkpt lat="41.21476090225494" lon="13.821684899443115"><ele>5.333333333333334</ele><time>2026-04-11T14:41:55.002Z</time></trkpt><trkpt lat="41.21470117957023" lon="13.821485099896094"><ele>5.0</ele><time>2026-04-11T14:41:56Z</time></trkpt><trkpt lat="41.214640060000185" lon="13.821286825659117"><ele>5.0</ele><time>2026-04-11T14:41:57Z</time></trkpt><trkpt lat="41.214577081269276" lon="13.8210787507923"><ele>5.0</ele><time>2026-04-11T14:41:58Z</time></trkpt><trkpt lat="41.21450916979841" lon="13.820868582283955"><ele>5.0</ele><time>2026-04-11T14:41:59Z</time></trkpt><trkpt lat="41.21444632511098" lon="13.820649334820079"><ele>5.0</ele><time>2026-04-11T14:42:00Z</time></trkpt><trkpt lat="41.21437119222959" lon="13.8204279397299"><ele>5.0</ele><time>2026-04-11T14:42:01Z</time></trkpt><trkpt lat="41.214297435032485" lon="13.820196252644799"><ele>5.0</ele><time>2026-04-11T14:42:02Z</time></trkpt><trkpt lat="41.21422924823061" lon="13.81996029100665"><ele>5.0</ele><time>2026-04-11T14:42:03Z</time></trkpt><trkpt lat="41.214158953181396" lon="13.819729213967207"><ele>5.0</ele><time>2026-04-11T14:42:04Z</time></trkpt><trkpt lat="41.214073628373264" lon="13.819498982583703"><ele>5.0</ele><time>2026-04-11T14:42:05Z</time></trkpt><trkpt lat="41.21397448804292" lon="13.819278130389684"><ele>5.333333333333334</ele><time>2026-04-11T14:42:06Z</time></trkpt><trkpt lat="41.21385930726424" lon="13.819063842808184"><ele>5.666666666666667</ele><time>2026-04-11T14:42:07Z</time></trkpt><trkpt lat="41.21371845710846" lon="13.818863491055332"><ele>6.0</ele><time>2026-04-11T14:42:08Z</time></trkpt><trkpt lat="41.21357115798019" lon="13.81865692260034"><ele>5.666666666666667</ele><time>2026-04-11T14:42:09Z</time></trkpt><trkpt lat="41.213414633443065" lon="13.81846027965968"><ele>5.333333333333334</ele><time>2026-04-11T14:42:10Z</time></trkpt><trkpt lat="41.21326984700305" lon="13.818256497202011"><ele>5.0</ele><time>2026-04-11T14:42:11Z</time></trkpt><trkpt lat="41.21312652886535" lon="13.818059625954692"><ele>5.333333333333334</ele><time>2026-04-11T14:42:12Z</time></trkpt><trkpt lat="41.21299240056265" lon="13.81788771279505"><ele>5.666666666666667</ele><time>2026-04-11T14:42:13Z</time></trkpt><trkpt lat="41.2128577092716" lon="13.817714362220446"><ele>6.0</ele><time>2026-04-11T14:42:14Z</time></trkpt><trkpt lat="41.212730280858345" lon="13.81755748157145"><ele>6.0</ele><time>2026-04-11T14:42:15Z</time></trkpt><trkpt lat="41.21261609819352" lon="13.817420605417238"><ele>6.0</ele><time>2026-04-11T14:42:16Z</time></trkpt><trkpt lat="41.21252017730625" lon="13.817285493648559"><ele>6.0</ele><time>2026-04-11T14:42:17Z</time></trkpt><trkpt lat="41.21243165592738" lon="13.817171000849726"><ele>6.0</ele><time>2026-04-11T14:42:18Z</time></trkpt><trkpt lat="41.21236906772932" lon="13.817086237411873"><ele>6.0</ele><time>2026-04-11T14:42:19Z</time></trkpt><trkpt lat="41.21232151698609" lon="13.817002951351602"><ele>6.0</ele><time>2026-04-11T14:42:20Z</time></trkpt><trkpt lat="41.21226943976553" lon="13.816932853053924"><ele>6.0</ele><time>2026-04-11T14:42:21Z</time></trkpt><trkpt lat="41.21219163834825" lon="13.81684305176454"><ele>6.0</ele><time>2026-04-11T14:42:23Z</time></trkpt><trkpt lat="41.212134860978125" lon="13.81678183726463"><ele>6.0</ele><time>2026-04-11T14:43:12.001Z</time></trkpt><trkpt lat="41.212080811428265" lon="13.816717704623832"><ele>6.0</ele><time>2026-04-11T14:43:15.001Z</time></trkpt><trkpt lat="41.2119673313232" lon="13.816760864611958"><ele>6.199999999999999</ele><time>2026-04-11T14:43:17.001Z</time></trkpt><trkpt lat="41.21189668824027" lon="13.816837128237307"><ele>6.3999999999999995</ele><time>2026-04-11T14:43:18.001Z</time></trkpt><trkpt lat="41.211828576763395" lon="13.816928655830324"><ele>6.6</ele><time>2026-04-11T14:43:19.001Z</time></trkpt><trkpt lat="41.21175238620357" lon="13.817039606048226"><ele>6.8</ele><time>2026-04-11T14:43:20.001Z</time></trkpt><trkpt lat="41.21165911786327" lon="13.817162412097757"><ele>7.0</ele><time>2026-04-11T14:43:21.001Z</time></trkpt><trkpt lat="41.21156254830049" lon="13.817293246517172"><ele>7.0</ele><time>2026-04-11T14:43:22.001Z</time></trkpt><trkpt lat="41.21146261435205" lon="13.817428091621151"><ele>7.0</ele><time>2026-04-11T14:43:23.001Z</time></trkpt><trkpt lat="41.211353618388266" lon="13.817584251603728"><ele>7.0</ele><time>2026-04-11T14:43:24.001Z</time></trkpt><trkpt lat="41.21123010440479" lon="13.817750690876501"><ele>7.333333333333334</ele><time>2026-04-11T14:43:25.001Z</time></trkpt><trkpt lat="41.21110560703406" lon="13.817907987600794"><ele>7.666666666666666</ele><time>2026-04-11T14:43:26.001Z</time></trkpt><trkpt lat="41.21098309910117" lon="13.818061068799164"><ele>8.0</ele><time>2026-04-11T14:43:27.001Z</time></trkpt><trkpt lat="41.21086200087198" lon="13.818208042560572"><ele>8.0</ele><time>2026-04-11T14:43:28.001Z</time></trkpt><trkpt lat="41.21074133067377" lon="13.81835292999975"><ele>8.0</ele><time>2026-04-11T14:43:29.001Z</time></trkpt><trkpt lat="41.21062055166768" lon="13.8184876739971"><ele>8.0</ele><time>2026-04-11T14:43:30.001Z</time></trkpt><trkpt lat="41.21049612454561" lon="13.818622147527478"><ele>8.333333333333332</ele><time>2026-04-11T14:43:31.001Z</time></trkpt><trkpt lat="41.210373922290636" lon="13.818758133736836"><ele>8.666666666666666</ele><time>2026-04-11T14:43:32.001Z</time></trkpt><trkpt lat="41.21024516003108" lon="13.818891638486216"><ele>9.0</ele><time>2026-04-11T14:43:33.002Z</time></trkpt><trkpt lat="41.210118110758074" lon="13.81902276854937"><ele>9.0</ele><time>2026-04-11T14:43:34.002Z</time></trkpt><trkpt lat="41.20999341493061" lon="13.819151919923282"><ele>9.0</ele><time>2026-04-11T14:43:35.002Z</time></trkpt><trkpt lat="41.209866555084986" lon="13.819286463129336"><ele>9.0</ele><time>2026-04-11T14:43:36.002Z</time></trkpt><trkpt lat="41.20974410938424" lon="13.819420254354625"><ele>9.0</ele><time>2026-04-11T14:43:37.002Z</time></trkpt><trkpt lat="41.20962094235848" lon="13.819552617559598"><ele>9.0</ele><time>2026-04-11T14:43:38.002Z</time></trkpt><trkpt lat="41.2095027757973" lon="13.819683640424266"><ele>9.0</ele><time>2026-04-11T14:43:39.002Z</time></trkpt><trkpt lat="41.20938150063165" lon="13.819812548798147"><ele>9.0</ele><time>2026-04-11T14:43:40.002Z</time></trkpt><trkpt lat="41.209265343636886" lon="13.819944254396102"><ele>9.0</ele><time>2026-04-11T14:43:41.002Z</time></trkpt><trkpt lat="41.20914408725151" lon="13.820072083140952"><ele>9.0</ele><time>2026-04-11T14:43:42.002Z</time></trkpt><trkpt lat="41.209045663232125" lon="13.820171975299628"><ele>9.0</ele><time>2026-04-11T14:43:43.002Z</time></trkpt><trkpt lat="41.20896874059672" lon="13.820255355637068"><ele>9.0</ele><time>2026-04-11T14:43:44.002Z</time></trkpt><trkpt lat="41.208892506509414" lon="13.820334409896985"><ele>9.0</ele><time>2026-04-11T14:43:45.002Z</time></trkpt><trkpt lat="41.208816085440205" lon="13.820421846296963"><ele>9.0</ele><time>2026-04-11T14:43:46.002Z</time></trkpt><trkpt lat="41.208730602718404" lon="13.820512816177896"><ele>9.0</ele><time>2026-04-11T14:43:47.002Z</time></trkpt><trkpt lat="41.20864086275184" lon="13.820604507865916"><ele>9.0</ele><time>2026-04-11T14:43:48.002Z</time></trkpt><trkpt lat="41.2085597236483" lon="13.820694195930969"><ele>9.0</ele><time>2026-04-11T14:43:49.002Z</time></trkpt><trkpt lat="41.20847481864826" lon="13.820784985336935"><ele>9.0</ele><time>2026-04-11T14:43:50.002Z</time></trkpt><trkpt lat="41.208385741937164" lon="13.820880624225888"><ele>9.0</ele><time>2026-04-11T14:43:51.002Z</time></trkpt><trkpt lat="41.20829866536672" lon="13.820971628349497"><ele>9.0</ele><time>2026-04-11T14:43:52.002Z</time></trkpt><trkpt lat="41.20820615948212" lon="13.82106819858073"><ele>9.25</ele><time>2026-04-11T14:43:53.002Z</time></trkpt><trkpt lat="41.208107784505074" lon="13.821172345265389"><ele>9.5</ele><time>2026-04-11T14:43:54.002Z</time></trkpt><trkpt lat="41.20800581162194" lon="13.821279336531237"><ele>9.75</ele><time>2026-04-11T14:43:55.002Z</time></trkpt><trkpt lat="41.207903161997194" lon="13.821390565121286"><ele>10.0</ele><time>2026-04-11T14:43:56.002Z</time></trkpt><trkpt lat="41.207789194339384" lon="13.821514294978474"><ele>10.0</ele><time>2026-04-11T14:43:57.002Z</time></trkpt><trkpt lat="41.20766619541317" lon="13.82165031320688"><ele>10.0</ele><time>2026-04-11T14:43:58.002Z</time></trkpt><trkpt lat="41.20753578167352" lon="13.821791129926632"><ele>10.0</ele><time>2026-04-11T14:43:59.002Z</time></trkpt><trkpt lat="41.2074126829615" lon="13.821924210741392"><ele>9.5</ele><time>2026-04-11T14:44:00.002Z</time></trkpt><trkpt lat="41.207292118156474" lon="13.82205198704524"><ele>9.0</ele><time>2026-04-11T14:44:01.002Z</time></trkpt><trkpt lat="41.20717829872743" lon="13.82217267895246"><ele>8.5</ele><time>2026-04-11T14:44:02Z</time></trkpt><trkpt lat="41.2070631609215" lon="13.822294519842593"><ele>8.0</ele><time>2026-04-11T14:44:03Z</time></trkpt><trkpt lat="41.20693971046059" lon="13.822430313902295"><ele>8.0</ele><time>2026-04-11T14:44:04Z</time></trkpt><trkpt lat="41.20681815927278" lon="13.822551902577368"><ele>8.0</ele><time>2026-04-11T14:44:05Z</time></trkpt><trkpt lat="41.20669328843221" lon="13.822683860379176"><ele>8.0</ele><time>2026-04-11T14:44:06Z</time></trkpt><trkpt lat="41.20657414352221" lon="13.822814121163905"><ele>7.666666666666666</ele><time>2026-04-11T14:44:07Z</time></trkpt><trkpt lat="41.20645705293864" lon="13.822938760697378"><ele>7.333333333333334</ele><time>2026-04-11T14:44:08Z</time></trkpt><trkpt lat="41.20633674179537" lon="13.823068971544513"><ele>7.0</ele><time>2026-04-11T14:44:09Z</time></trkpt><trkpt lat="41.20621851882257" lon="13.823198677244232"><ele>7.0</ele><time>2026-04-11T14:44:10Z</time></trkpt><trkpt lat="41.20609478678511" lon="13.823333609136894"><ele>7.0</ele><time>2026-04-11T14:44:11Z</time></trkpt><trkpt lat="41.205965849847864" lon="13.823469830584216"><ele>7.0</ele><time>2026-04-11T14:44:12Z</time></trkpt><trkpt lat="41.2058421322784" lon="13.82359573097182"><ele>7.333333333333334</ele><time>2026-04-11T14:44:13Z</time></trkpt><trkpt lat="41.20571740700569" lon="13.82373037419229"><ele>7.666666666666666</ele><time>2026-04-11T14:44:14Z</time></trkpt><trkpt lat="41.20559370878824" lon="13.823861938382015"><ele>8.0</ele><time>2026-04-11T14:44:15Z</time></trkpt><trkpt lat="41.205466961692466" lon="13.823997926590517"><ele>8.0</ele><time>2026-04-11T14:44:16Z</time></trkpt><trkpt lat="41.20534138175072" lon="13.824138783116869"><ele>8.0</ele><time>2026-04-11T14:44:17Z</time></trkpt><trkpt lat="41.20521506146486" lon="13.824274116610182"><ele>8.0</ele><time>2026-04-11T14:44:18Z</time></trkpt><trkpt lat="41.20508631908449" lon="13.824415472662704"><ele>8.0</ele><time>2026-04-11T14:44:19Z</time></trkpt><trkpt lat="41.20496485343745" lon="13.824537277586616"><ele>8.0</ele><time>2026-04-11T14:44:20Z</time></trkpt><trkpt lat="41.20483570261506" lon="13.824679870522353"><ele>8.0</ele><time>2026-04-11T14:44:21Z</time></trkpt><trkpt lat="41.204706307916965" lon="13.824819071140471"><ele>8.0</ele><time>2026-04-11T14:44:22Z</time></trkpt><trkpt lat="41.20457639812982" lon="13.824963670293203"><ele>8.0</ele><time>2026-04-11T14:44:23Z</time></trkpt><trkpt lat="41.20444134173505" lon="13.825110612571152"><ele>8.0</ele><time>2026-04-11T14:44:24Z</time></trkpt><trkpt lat="41.20431233745208" lon="13.825241137550538"><ele>7.666666666666666</ele><time>2026-04-11T14:44:25Z</time></trkpt><trkpt lat="41.204184852595034" lon="13.825376410907152"><ele>7.333333333333334</ele><time>2026-04-11T14:44:26Z</time></trkpt><trkpt lat="41.20405912715157" lon="13.825511599335034"><ele>7.0</ele><time>2026-04-11T14:44:27Z</time></trkpt><trkpt lat="41.20393513842715" lon="13.825646598987026"><ele>7.0</ele><time>2026-04-11T14:44:28Z</time></trkpt><trkpt lat="41.20381151449251" lon="13.825777961187812"><ele>7.0</ele><time>2026-04-11T14:44:29Z</time></trkpt><trkpt lat="41.20368725915784" lon="13.825915170608404"><ele>7.0</ele><time>2026-04-11T14:44:30Z</time></trkpt><trkpt lat="41.20355861985463" lon="13.826047944505719"><ele>7.333333333333334</ele><time>2026-04-11T14:44:31Z</time></trkpt><trkpt lat="41.20342978072644" lon="13.826178848715752"><ele>7.666666666666666</ele><time>2026-04-11T14:44:32Z</time></trkpt><trkpt lat="41.20330406065501" lon="13.826311196514986"><ele>8.0</ele><time>2026-04-11T14:44:33Z</time></trkpt><trkpt lat="41.20317753239448" lon="13.826445703357992"><ele>8.0</ele><time>2026-04-11T14:44:34Z</time></trkpt><trkpt lat="41.20305387966479" lon="13.826582505345753"><ele>8.0</ele><time>2026-04-11T14:44:35Z</time></trkpt><trkpt lat="41.20292591268186" lon="13.826719436907206"><ele>8.0</ele><time>2026-04-11T14:44:36.001Z</time></trkpt><trkpt lat="41.20279908077004" lon="13.826855922049477"><ele>8.0</ele><time>2026-04-11T14:44:37.001Z</time></trkpt><trkpt lat="41.202672754925366" lon="13.826991541253543"><ele>8.0</ele><time>2026-04-11T14:44:38.001Z</time></trkpt><trkpt lat="41.20254549156662" lon="13.827130870045865"><ele>8.0</ele><time>2026-04-11T14:44:39.001Z</time></trkpt><trkpt lat="41.202418640336994" lon="13.827269309185894"><ele>7.666666666666666</ele><time>2026-04-11T14:44:40.001Z</time></trkpt><trkpt lat="41.202288736725855" lon="13.827405294532472"><ele>7.333333333333334</ele><time>2026-04-11T14:44:41.001Z</time></trkpt><trkpt lat="41.20216710003176" lon="13.827533858741019"><ele>7.0</ele><time>2026-04-11T14:44:42.001Z</time></trkpt><trkpt lat="41.20204948032117" lon="13.827666370605492"><ele>7.0</ele><time>2026-04-11T14:44:43.001Z</time></trkpt><trkpt lat="41.201930516172204" lon="13.827798901271812"><ele>7.0</ele><time>2026-04-11T14:44:44.001Z</time></trkpt><trkpt lat="41.201807789709406" lon="13.82793364390479"><ele>7.0</ele><time>2026-04-11T14:44:45.001Z</time></trkpt><trkpt lat="41.20168955391943" lon="13.828073720129673"><ele>7.0</ele><time>2026-04-11T14:44:46.001Z</time></trkpt><trkpt lat="41.20157709612905" lon="13.828212925459216"><ele>7.0</ele><time>2026-04-11T14:44:47.001Z</time></trkpt><trkpt lat="41.201473835303716" lon="13.828346004223778"><ele>7.0</ele><time>2026-04-11T14:44:48.001Z</time></trkpt><trkpt lat="41.2013682468942" lon="13.828481466144135"><ele>7.0</ele><time>2026-04-11T14:44:49.001Z</time></trkpt><trkpt lat="41.201274175484" lon="13.82862135043645"><ele>7.25</ele><time>2026-04-11T14:44:50.001Z</time></trkpt><trkpt lat="41.201181698959324" lon="13.82875216324825"><ele>7.5</ele><time>2026-04-11T14:44:51.001Z</time></trkpt><trkpt lat="41.201094178498344" lon="13.828877826328878"><ele>7.75</ele><time>2026-04-11T14:44:52.001Z</time></trkpt><trkpt lat="41.20100956117006" lon="13.829000338585804"><ele>8.0</ele><time>2026-04-11T14:44:53.001Z</time></trkpt><trkpt lat="41.20093850722143" lon="13.82910278329257"><ele>7.999999999999999</ele><time>2026-04-11T14:44:54.001Z</time></trkpt><trkpt lat="41.200871624738525" lon="13.829192870373408"><ele>8.0</ele><time>2026-04-11T14:44:55.001Z</time></trkpt><trkpt lat="41.20080156123743" lon="13.829266991334839"><ele>8.0</ele><time>2026-04-11T14:44:56.001Z</time></trkpt><trkpt lat="41.2007289058375" lon="13.829306309162977"><ele>8.0</ele><time>2026-04-11T14:44:57.001Z</time></trkpt><trkpt lat="41.200653945509316" lon="13.829313829632854"><ele>7.999999999999999</ele><time>2026-04-11T14:44:58.001Z</time></trkpt><trkpt lat="41.200583246593524" lon="13.829281157273964"><ele>8.0</ele><time>2026-04-11T14:44:59.001Z</time></trkpt><trkpt lat="41.20053355397113" lon="13.829194910766843"><ele>7.800000000000001</ele><time>2026-04-11T14:45:00.001Z</time></trkpt><trkpt lat="41.20046843285474" lon="13.829090769000624"><ele>7.6000000000000005</ele><time>2026-04-11T14:45:01.001Z</time></trkpt><trkpt lat="41.2004197805562" lon="13.828981243652246"><ele>7.3999999999999995</ele><time>2026-04-11T14:45:02.001Z</time></trkpt><trkpt lat="41.20036681996176" lon="13.828875985874342"><ele>7.199999999999999</ele><time>2026-04-11T14:45:03.001Z</time></trkpt><trkpt lat="41.20031039484474" lon="13.828767334245237"><ele>7.0</ele><time>2026-04-11T14:45:04.001Z</time></trkpt><trkpt lat="41.20024509402216" lon="13.82866021355687"><ele>7.0</ele><time>2026-04-11T14:45:05.001Z</time></trkpt><trkpt lat="41.200184452670435" lon="13.828549004007431"><ele>6.999999999999999</ele><time>2026-04-11T14:45:06.001Z</time></trkpt><trkpt lat="41.20012056822012" lon="13.828441517036454"><ele>6.999999999999999</ele><time>2026-04-11T14:45:07.001Z</time></trkpt><trkpt lat="41.20005438371779" lon="13.828335092484616"><ele>7.0</ele><time>2026-04-11T14:45:08.001Z</time></trkpt><trkpt lat="41.19999125294701" lon="13.828220584593929"><ele>7.0</ele><time>2026-04-11T14:45:09.001Z</time></trkpt><trkpt lat="41.1999266011034" lon="13.828108079242845"><ele>6.25</ele><time>2026-04-11T14:45:10.001Z</time></trkpt><trkpt lat="41.19985969805305" lon="13.827991177553761"><ele>5.5</ele><time>2026-04-11T14:45:11.001Z</time></trkpt><trkpt lat="41.19978872328291" lon="13.827873244804639"><ele>4.75</ele><time>2026-04-11T14:45:12.001Z</time></trkpt><trkpt lat="41.19971694130563" lon="13.827753758894524"><ele>4.0</ele><time>2026-04-11T14:45:13.001Z</time></trkpt><trkpt lat="41.199639701672595" lon="13.827621287796445"><ele>4.0</ele><time>2026-04-11T14:45:14.001Z</time></trkpt><trkpt lat="41.199551208753924" lon="13.827477856421801"><ele>4.0</ele><time>2026-04-11T14:45:15.001Z</time></trkpt><trkpt lat="41.19946421920734" lon="13.827322797269089"><ele>4.0</ele><time>2026-04-11T14:45:16.001Z</time></trkpt><trkpt lat="41.19936825721516" lon="13.827158046135784"><ele>4.0</ele><time>2026-04-11T14:45:17.001Z</time></trkpt><trkpt lat="41.19926771697526" lon="13.826990463430958"><ele>4.0</ele><time>2026-04-11T14:45:18.001Z</time></trkpt><trkpt lat="41.19916831580492" lon="13.826822521343036"><ele>4.0</ele><time>2026-04-11T14:45:19.001Z</time></trkpt><trkpt lat="41.1990636338551" lon="13.826648059007665"><ele>4.0</ele><time>2026-04-11T14:45:20.001Z</time></trkpt><trkpt lat="41.19895361645074" lon="13.826470765690555"><ele>4.333333333333333</ele><time>2026-04-11T14:45:21.001Z</time></trkpt><trkpt lat="41.198852768810205" lon="13.826305879707494"><ele>4.666666666666667</ele><time>2026-04-11T14:45:22.001Z</time></trkpt><trkpt lat="41.19873455570252" lon="13.826131725708608"><ele>5.0</ele><time>2026-04-11T14:45:23.001Z</time></trkpt><trkpt lat="41.19860662086614" lon="13.825956669736025"><ele>5.0</ele><time>2026-04-11T14:45:24.001Z</time></trkpt><trkpt lat="41.19847238040223" lon="13.825770949559775"><ele>5.0</ele><time>2026-04-11T14:45:25.001Z</time></trkpt><trkpt lat="41.198337570176875" lon="13.82558487748949"><ele>5.0</ele><time>2026-04-11T14:45:26.001Z</time></trkpt><trkpt lat="41.19820252665857" lon="13.825397851667706"><ele>4.666666666666667</ele><time>2026-04-11T14:45:27.001Z</time></trkpt><trkpt lat="41.19806434058667" lon="13.825204393895422"><ele>4.333333333333333</ele><time>2026-04-11T14:45:28.001Z</time></trkpt><trkpt lat="41.19793022244264" lon="13.825018541588776"><ele>4.0</ele><time>2026-04-11T14:45:29.001Z</time></trkpt><trkpt lat="41.19780426097678" lon="13.824816333727343"><ele>4.0</ele><time>2026-04-11T14:45:30.001Z</time></trkpt><trkpt lat="41.19766852830413" lon="13.824621589564087"><ele>4.0</ele><time>2026-04-11T14:45:31.001Z</time></trkpt><trkpt lat="41.19754926315025" lon="13.824449863572356"><ele>4.0</ele><time>2026-04-11T14:45:32.001Z</time></trkpt><trkpt lat="41.19743686450589" lon="13.824315861397835"><ele>3.75</ele><time>2026-04-11T14:45:33.001Z</time></trkpt><trkpt lat="41.19737918596627" lon="13.824147267616727"><ele>3.5</ele><time>2026-04-11T14:45:34.001Z</time></trkpt><trkpt lat="41.197346951009656" lon="13.823968326902738"><ele>3.25</ele><time>2026-04-11T14:45:35.001Z</time></trkpt><trkpt lat="41.19735647755294" lon="13.823783041666866"><ele>3.0</ele><time>2026-04-11T14:45:36.001Z</time></trkpt><trkpt lat="41.19738927403338" lon="13.823592097527182"><ele>2.3333333333333335</ele><time>2026-04-11T14:45:37.001Z</time></trkpt><trkpt lat="41.19744644534556" lon="13.823423215892458"><ele>1.6666666666666665</ele><time>2026-04-11T14:45:38.001Z</time></trkpt><trkpt lat="41.197536408028064" lon="13.823263585997662"><ele>1.0</ele><time>2026-04-11T14:45:39.002Z</time></trkpt><trkpt lat="41.19766274456581" lon="13.82310623318013"><ele>1.0</ele><time>2026-04-11T14:45:40.002Z</time></trkpt><trkpt lat="41.19779019606014" lon="13.822942434216422"><ele>1.0</ele><time>2026-04-11T14:45:41.002Z</time></trkpt><trkpt lat="41.19792726203175" lon="13.822790862687624"><ele>1.0</ele><time>2026-04-11T14:45:42.002Z</time></trkpt><trkpt lat="41.19805479840313" lon="13.82262552717973"><ele>1.3333333333333333</ele><time>2026-04-11T14:45:43.002Z</time></trkpt><trkpt lat="41.19819321146604" lon="13.822468449454504"><ele>1.6666666666666665</ele><time>2026-04-11T14:45:44.002Z</time></trkpt><trkpt lat="41.19831650129336" lon="13.822323277365797"><ele>2.0</ele><time>2026-04-11T14:45:45.002Z</time></trkpt><trkpt lat="41.19838779368593" lon="13.82217715692409"><ele>2.0</ele><time>2026-04-11T14:45:46.002Z</time></trkpt><trkpt lat="41.19843331900614" lon="13.822028761961034"><ele>2.0</ele><time>2026-04-11T14:45:47.002Z</time></trkpt><trkpt lat="41.19844585736948" lon="13.821855879390496"><ele>2.0</ele><time>2026-04-11T14:45:48.002Z</time></trkpt><trkpt lat="41.19842182790832" lon="13.821665832891586"><ele>2.0</ele><time>2026-04-11T14:45:49.002Z</time></trkpt><trkpt lat="41.19837970526379" lon="13.821472974250335"><ele>2.0</ele><time>2026-04-11T14:45:50.002Z</time></trkpt><trkpt lat="41.19828694629354" lon="13.8212776217177"><ele>2.0</ele><time>2026-04-11T14:45:51.002Z</time></trkpt><trkpt lat="41.198183392507936" lon="13.821070338857519"><ele>2.0</ele><time>2026-04-11T14:45:52.002Z</time></trkpt><trkpt lat="41.19806919653075" lon="13.820860371200789"><ele>2.0</ele><time>2026-04-11T14:45:53.002Z</time></trkpt><trkpt lat="41.19797090195053" lon="13.820641883803894"><ele>2.0</ele><time>2026-04-11T14:45:54.002Z</time></trkpt><trkpt lat="41.19786859891937" lon="13.82043389247728"><ele>2.0</ele><time>2026-04-11T14:45:55.002Z</time></trkpt><trkpt lat="41.197764637608344" lon="13.820234218916578"><ele>1.3333333333333333</ele><time>2026-04-11T14:45:56.002Z</time></trkpt><trkpt lat="41.197666327951204" lon="13.82002495572214"><ele>0.6666666666666666</ele><time>2026-04-11T14:45:57.002Z</time></trkpt><trkpt lat="41.19758128231587" lon="13.8198096991138"><ele>0.0</ele><time>2026-04-11T14:45:58.002Z</time></trkpt><trkpt lat="41.19749027009879" lon="13.819610575932215"><ele>0.0</ele><time>2026-04-11T14:45:59.002Z</time></trkpt><trkpt lat="41.19740270113855" lon="13.819411820790902"><ele>0.0</ele><time>2026-04-11T14:46:00.002Z</time></trkpt><trkpt lat="41.197315664017616" lon="13.81920753366136"><ele>0.0</ele><time>2026-04-11T14:46:01.002Z</time></trkpt><trkpt lat="41.19722842167519" lon="13.819018357816608"><ele>-0.3333333333333333</ele><time>2026-04-11T14:46:02.002Z</time></trkpt><trkpt lat="41.19716210043741" lon="13.818824054889964"><ele>-0.6666666666666666</ele><time>2026-04-11T14:46:03.002Z</time></trkpt><trkpt lat="41.1970843575462" lon="13.81863967760034"><ele>-1.0</ele><time>2026-04-11T14:46:04.002Z</time></trkpt><trkpt lat="41.197013178574814" lon="13.818465328114447"><ele>-0.5</ele><time>2026-04-11T14:46:05.002Z</time></trkpt><trkpt lat="41.19694852473276" lon="13.818308209387247"><ele>0.0</ele><time>2026-04-11T14:46:06.002Z</time></trkpt><trkpt lat="41.19688208666303" lon="13.81813812490973"><ele>0.5</ele><time>2026-04-11T14:46:07.002Z</time></trkpt><trkpt lat="41.1968165716539" lon="13.817972843911914"><ele>1.0</ele><time>2026-04-11T14:46:08Z</time></trkpt><trkpt lat="41.196748540147404" lon="13.817821351961994"><ele>1.0</ele><time>2026-04-11T14:46:09Z</time></trkpt><trkpt lat="41.19667597399894" lon="13.817670051661748"><ele>1.0</ele><time>2026-04-11T14:46:10Z</time></trkpt><trkpt lat="41.19661442594567" lon="13.817527045301055"><ele>1.0</ele><time>2026-04-11T14:46:11Z</time></trkpt><trkpt lat="41.19654852389943" lon="13.817377392476779"><ele>1.0</ele><time>2026-04-11T14:46:12Z</time></trkpt><trkpt lat="41.19648108929391" lon="13.81722907754185"><ele>0.5</ele><time>2026-04-11T14:46:13Z</time></trkpt><trkpt lat="41.19641660214552" lon="13.817094978144885"><ele>0.0</ele><time>2026-04-11T14:46:14Z</time></trkpt><trkpt lat="41.19634905853735" lon="13.816949113043416"><ele>-0.5</ele><time>2026-04-11T14:46:15Z</time></trkpt><trkpt lat="41.19628219202969" lon="13.816812645049183"><ele>-1.0</ele><time>2026-04-11T14:46:16Z</time></trkpt><trkpt lat="41.196217405838816" lon="13.816674340452584"><ele>-1.0</ele><time>2026-04-11T14:46:17Z</time></trkpt><trkpt lat="41.19614390190152" lon="13.816537192235586"><ele>-1.0</ele><time>2026-04-11T14:46:18Z</time></trkpt><trkpt lat="41.19607229638065" lon="13.816399192967356"><ele>-1.0</ele><time>2026-04-11T14:46:19Z</time></trkpt><trkpt lat="41.19600653272465" lon="13.816267072949147"><ele>-1.0</ele><time>2026-04-11T14:46:20Z</time></trkpt><trkpt lat="41.19593466594262" lon="13.816133925085326"><ele>-1.0</ele><time>2026-04-11T14:46:21Z</time></trkpt><trkpt lat="41.19585750799611" lon="13.815989221643468"><ele>-1.0</ele><time>2026-04-11T14:46:22Z</time></trkpt><trkpt lat="41.195782702801004" lon="13.815845598264705"><ele>-1.0</ele><time>2026-04-11T14:46:23Z</time></trkpt><trkpt lat="41.19570509415189" lon="13.815701047063202"><ele>-1.0</ele><time>2026-04-11T14:46:24Z</time></trkpt><trkpt lat="41.19562819559973" lon="13.815555706118605"><ele>-1.0</ele><time>2026-04-11T14:46:25Z</time></trkpt><trkpt lat="41.19555395225454" lon="13.815408416055122"><ele>-1.0</ele><time>2026-04-11T14:46:26Z</time></trkpt><trkpt lat="41.19547300658427" lon="13.815262069885998"><ele>-1.0</ele><time>2026-04-11T14:46:27Z</time></trkpt><trkpt lat="41.195395863714985" lon="13.815122081222992"><ele>-1.0</ele><time>2026-04-11T14:46:28Z</time></trkpt><trkpt lat="41.19531843932429" lon="13.814969327155575"><ele>-0.75</ele><time>2026-04-11T14:46:29Z</time></trkpt><trkpt lat="41.19524799751269" lon="13.81482338102956"><ele>-0.5</ele><time>2026-04-11T14:46:30Z</time></trkpt><trkpt lat="41.19516249426324" lon="13.814677012353865"><ele>-0.25</ele><time>2026-04-11T14:46:31Z</time></trkpt><trkpt lat="41.19508547625766" lon="13.814530770496745"><ele>0.0</ele><time>2026-04-11T14:46:32Z</time></trkpt><trkpt lat="41.195012613230205" lon="13.814382684886622"><ele>0.25</ele><time>2026-04-11T14:46:33Z</time></trkpt><trkpt lat="41.19494241777278" lon="13.81423570498007"><ele>0.5</ele><time>2026-04-11T14:46:34Z</time></trkpt><trkpt lat="41.194875112150385" lon="13.814091595049979"><ele>0.75</ele><time>2026-04-11T14:46:35Z</time></trkpt><trkpt lat="41.19479900355652" lon="13.813947828691663"><ele>1.0</ele><time>2026-04-11T14:46:36Z</time></trkpt><trkpt lat="41.194723987132974" lon="13.813801959224211"><ele>1.0</ele><time>2026-04-11T14:46:37Z</time></trkpt><trkpt lat="41.19464694996256" lon="13.813651734286635"><ele>1.0</ele><time>2026-04-11T14:46:38.001Z</time></trkpt><trkpt lat="41.19456955068084" lon="13.813501971239198"><ele>1.0</ele><time>2026-04-11T14:46:39.001Z</time></trkpt><trkpt lat="41.19449179998757" lon="13.813353315684232"><ele>1.0</ele><time>2026-04-11T14:46:40.001Z</time></trkpt><trkpt lat="41.1944117428529" lon="13.81319551675156"><ele>0.75</ele><time>2026-04-11T14:46:41.001Z</time></trkpt><trkpt lat="41.19432473494836" lon="13.813032913223358"><ele>0.5</ele><time>2026-04-11T14:46:42.001Z</time></trkpt><trkpt lat="41.19424449430183" lon="13.812868195731193"><ele>0.25</ele><time>2026-04-11T14:46:43.001Z</time></trkpt><trkpt lat="41.19415830304045" lon="13.812712163977304"><ele>0.0</ele><time>2026-04-11T14:46:44.001Z</time></trkpt><trkpt lat="41.19407657906932" lon="13.81255677958258"><ele>0.5</ele><time>2026-04-11T14:46:45.001Z</time></trkpt><trkpt lat="41.19400173702693" lon="13.81240480261939"><ele>1.0</ele><time>2026-04-11T14:46:46.001Z</time></trkpt><trkpt lat="41.19393017486845" lon="13.81226125640495"><ele>1.5</ele><time>2026-04-11T14:46:47.001Z</time></trkpt><trkpt lat="41.1938601511004" lon="13.812114678142022"><ele>2.0</ele><time>2026-04-11T14:46:48.001Z</time></trkpt><trkpt lat="41.19378137920165" lon="13.81197642874533"><ele>2.0</ele><time>2026-04-11T14:46:49.001Z</time></trkpt><trkpt lat="41.193716191467495" lon="13.811839164243422"><ele>2.0</ele><time>2026-04-11T14:46:50.001Z</time></trkpt><trkpt lat="41.193641224738975" lon="13.811692603977207"><ele>2.0</ele><time>2026-04-11T14:46:51.001Z</time></trkpt><trkpt lat="41.19356667391795" lon="13.811556533259457"><ele>2.0</ele><time>2026-04-11T14:46:52.001Z</time></trkpt><trkpt lat="41.19349818441115" lon="13.811414725896649"><ele>2.0</ele><time>2026-04-11T14:46:53.001Z</time></trkpt><trkpt lat="41.19342791947249" lon="13.811273783405133"><ele>2.0</ele><time>2026-04-11T14:46:54.001Z</time></trkpt><trkpt lat="41.19335957450921" lon="13.81113808321205"><ele>2.0</ele><time>2026-04-11T14:46:55.001Z</time></trkpt><trkpt lat="41.19329289325876" lon="13.811000251048968"><ele>2.0</ele><time>2026-04-11T14:46:56.001Z</time></trkpt><trkpt lat="41.1932342303011" lon="13.81088861303703"><ele>1.9999999999999998</ele><time>2026-04-11T14:46:57.001Z</time></trkpt><trkpt lat="41.19318029311244" lon="13.810782497876135"><ele>2.0</ele><time>2026-04-11T14:46:58.001Z</time></trkpt><trkpt lat="41.19313757188872" lon="13.810695094314298"><ele>2.0</ele><time>2026-04-11T14:46:59.001Z</time></trkpt><trkpt lat="41.19309416774933" lon="13.810614031798178"><ele>2.0</ele><time>2026-04-11T14:47:00.001Z</time></trkpt><trkpt lat="41.19305840478938" lon="13.810544310703634"><ele>1.9999999999999998</ele><time>2026-04-11T14:47:01.001Z</time></trkpt><trkpt lat="41.19303615482384" lon="13.810445704769288"><ele>2.0</ele><time>2026-04-11T14:47:03.001Z</time></trkpt><trkpt lat="41.192991460412294" lon="13.810337527822814"><ele>2.5</ele><time>2026-04-11T14:47:06.001Z</time></trkpt><trkpt lat="41.19294411088127" lon="13.810267927282203"><ele>3.0</ele><time>2026-04-11T14:47:08.001Z</time></trkpt><trkpt lat="41.192899295121286" lon="13.810181774902272"><ele>3.5</ele><time>2026-04-11T14:47:10.001Z</time></trkpt><trkpt lat="41.19286279182361" lon="13.810078082478269"><ele>4.0</ele><time>2026-04-11T14:47:12.001Z</time></trkpt><trkpt lat="41.19280137815203" lon="13.81001134679731"><ele>4.5</ele><time>2026-04-11T14:47:15.001Z</time></trkpt><trkpt lat="41.19275719976519" lon="13.80994912145732"><ele>5.0</ele><time>2026-04-11T14:47:37.001Z</time></trkpt><trkpt lat="41.192685549635925" lon="13.810052061375753"><ele>5.0</ele><time>2026-04-11T14:47:40.001Z</time></trkpt><trkpt lat="41.1926278204289" lon="13.81016645573992"><ele>5.0</ele><time>2026-04-11T14:47:42.001Z</time></trkpt><trkpt lat="41.1925713889626" lon="13.810275125857844"><ele>5.0</ele><time>2026-04-11T14:47:44.001Z</time></trkpt><trkpt lat="41.19249285687208" lon="13.810418901214906"><ele>5.0</ele><time>2026-04-11T14:47:46.001Z</time></trkpt><trkpt lat="41.19244649345949" lon="13.810495580778108"><ele>5.0</ele><time>2026-04-11T14:47:47.002Z</time></trkpt><trkpt lat="41.19240194312691" lon="13.8105707429953"><ele>5.6</ele><time>2026-04-11T14:47:48.002Z</time></trkpt><trkpt lat="41.19233908214969" lon="13.81065726333203"><ele>6.2</ele><time>2026-04-11T14:47:49.002Z</time></trkpt><trkpt lat="41.192266608438395" lon="13.810745847453537"><ele>6.800000000000001</ele><time>2026-04-11T14:47:50.002Z</time></trkpt><trkpt lat="41.19220622490337" lon="13.810813919952778"><ele>7.4</ele><time>2026-04-11T14:47:51.002Z</time></trkpt><trkpt lat="41.19213715971856" lon="13.810896252263317"><ele>8.0</ele><time>2026-04-11T14:47:52.002Z</time></trkpt><trkpt lat="41.19206779377468" lon="13.810973740313797"><ele>7.666666666666666</ele><time>2026-04-11T14:47:53.002Z</time></trkpt><trkpt lat="41.19199146525203" lon="13.81106067230106"><ele>7.333333333333333</ele><time>2026-04-11T14:47:54.002Z</time></trkpt><trkpt lat="41.1919141630303" lon="13.811137473594119"><ele>7.0</ele><time>2026-04-11T14:47:55.002Z</time></trkpt><trkpt lat="41.19183750327717" lon="13.811211922386649"><ele>6.666666666666666</ele><time>2026-04-11T14:47:56.002Z</time></trkpt><trkpt lat="41.191775763934665" lon="13.81127453253841"><ele>6.333333333333333</ele><time>2026-04-11T14:47:57.002Z</time></trkpt><trkpt lat="41.19170838075642" lon="13.811327492811841"><ele>6.0</ele><time>2026-04-11T14:47:58.002Z</time></trkpt><trkpt lat="41.19164905172058" lon="13.811384516804065"><ele>6.0</ele><time>2026-04-11T14:47:59.002Z</time></trkpt><trkpt lat="41.191547187989606" lon="13.81146517577131"><ele>6.0</ele><time>2026-04-11T14:48:01.002Z</time></trkpt><trkpt lat="41.191449684751554" lon="13.811488042583525"><ele>6.0</ele><time>2026-04-11T14:48:03.002Z</time></trkpt><trkpt lat="41.19134667194761" lon="13.811454961025134"><ele>6.0</ele><time>2026-04-11T14:48:05.002Z</time></trkpt><trkpt lat="41.19125785156172" lon="13.81133512401403"><ele>6.166666666666667</ele><time>2026-04-11T14:48:07.002Z</time></trkpt><trkpt lat="41.1912106123684" lon="13.811266527920248"><ele>6.333333333333334</ele><time>2026-04-11T14:48:08.002Z</time></trkpt><trkpt lat="41.19116412562745" lon="13.811162765862216"><ele>6.5</ele><time>2026-04-11T14:48:09.002Z</time></trkpt><trkpt lat="41.191117083612966" lon="13.811060389727572"><ele>6.666666666666667</ele><time>2026-04-11T14:48:10.002Z</time></trkpt><trkpt lat="41.19106338322534" lon="13.810968502557545"><ele>6.833333333333334</ele><time>2026-04-11T14:48:11.002Z</time></trkpt><trkpt lat="41.19101102587727" lon="13.810885127233616"><ele>7.0</ele><time>2026-04-11T14:48:12.002Z</time></trkpt><trkpt lat="41.1909533255473" lon="13.810841679353564"><ele>7.199999999999999</ele><time>2026-04-11T14:48:13.002Z</time></trkpt><trkpt lat="41.19089487222316" lon="13.810809504369248"><ele>7.3999999999999995</ele><time>2026-04-11T14:48:14Z</time></trkpt><trkpt lat="41.190782995785746" lon="13.810751467003183"><ele>7.6000000000000005</ele><time>2026-04-11T14:48:16Z</time></trkpt><trkpt lat="41.19069825214883" lon="13.810528495164776"><ele>7.800000000000001</ele><time>2026-04-11T14:48:19Z</time></trkpt><trkpt lat="41.19071858060066" lon="13.810429789353135"><ele>8.0</ele><time>2026-04-11T14:48:20Z</time></trkpt><trkpt lat="41.190728711950705" lon="13.810345079007346"><ele>8.0</ele><time>2026-04-11T14:48:21Z</time></trkpt><trkpt lat="41.19078644675387" lon="13.810192196484197"><ele>8.0</ele><time>2026-04-11T14:48:23Z</time></trkpt><trkpt lat="41.19084606603816" lon="13.810080556974631"><ele>8.0</ele><time>2026-04-11T14:48:25Z</time></trkpt><trkpt lat="41.19089595861627" lon="13.809960166365592"><ele>8.0</ele><time>2026-04-11T14:48:27Z</time></trkpt><trkpt lat="41.19094384455311" lon="13.809901630663209"><ele>8.0</ele><time>2026-04-11T14:48:29Z</time></trkpt><trkpt lat="41.19099711059589" lon="13.809790281269654"><ele>7.999999999999999</ele><time>2026-04-11T14:48:32Z</time></trkpt><trkpt lat="41.19106395698909" lon="13.809688421304905"><ele>8.0</ele><time>2026-04-11T14:48:34Z</time></trkpt><trkpt lat="41.19111681485949" lon="13.809564685828894"><ele>8.0</ele><time>2026-04-11T14:48:36Z</time></trkpt><trkpt lat="41.19115677320118" lon="13.809498454706663"><ele>8.0</ele><time>2026-04-11T14:48:37Z</time></trkpt><trkpt lat="41.19120520359145" lon="13.809437206533653"><ele>7.999999999999999</ele><time>2026-04-11T14:48:38Z</time></trkpt><trkpt lat="41.191262949498146" lon="13.809379556263028"><ele>8.0</ele><time>2026-04-11T14:48:39Z</time></trkpt><trkpt lat="41.19132159296188" lon="13.809321193548037"><ele>7.800000000000001</ele><time>2026-04-11T14:48:40Z</time></trkpt><trkpt lat="41.191421073887575" lon="13.80923621001674"><ele>7.6000000000000005</ele><time>2026-04-11T14:48:42Z</time></trkpt><trkpt lat="41.19150514636201" lon="13.809181996950937"><ele>7.3999999999999995</ele><time>2026-04-11T14:48:44Z</time></trkpt><trkpt lat="41.19158339777409" lon="13.809120678612647"><ele>7.199999999999999</ele><time>2026-04-11T14:48:46Z</time></trkpt><trkpt lat="41.19166661017687" lon="13.809081361064486"><ele>7.0</ele><time>2026-04-11T14:48:48Z</time></trkpt><trkpt lat="41.19175629334751" lon="13.809026016098688"><ele>7.0</ele><time>2026-04-11T14:48:50.001Z</time></trkpt><trkpt lat="41.191808676605255" lon="13.808905050158083"><ele>6.999999999999999</ele><time>2026-04-11T14:48:52.001Z</time></trkpt><trkpt lat="41.19178593015384" lon="13.808750016094296"><ele>6.999999999999999</ele><time>2026-04-11T14:48:54.001Z</time></trkpt><trkpt lat="41.191752724625765" lon="13.808675987483698"><ele>7.0</ele><time>2026-04-11T14:48:55.001Z</time></trkpt><trkpt lat="41.191678744278065" lon="13.80851191114691"><ele>7.0</ele><time>2026-04-11T14:48:57.001Z</time></trkpt><trkpt lat="41.191645788657326" lon="13.80842203220974"><ele>7.000000000000001</ele><time>2026-04-11T14:48:58.001Z</time></trkpt><trkpt lat="41.19160423429567" lon="13.808332969108498"><ele>7.0</ele><time>2026-04-11T14:48:59.001Z</time></trkpt><trkpt lat="41.19155242020679" lon="13.808253578045912"><ele>7.0</ele><time>2026-04-11T14:49:00.001Z</time></trkpt><trkpt lat="41.19150264681275" lon="13.80816747450077"><ele>7.0</ele><time>2026-04-11T14:49:01.001Z</time></trkpt><trkpt lat="41.19145290439332" lon="13.808094525915395"><ele>7.000000000000001</ele><time>2026-04-11T14:49:02.001Z</time></trkpt><trkpt lat="41.19140824839924" lon="13.808018623810376"><ele>7.0</ele><time>2026-04-11T14:49:03.001Z</time></trkpt><trkpt lat="41.19137018339145" lon="13.807950398792805"><ele>7.0</ele><time>2026-04-11T14:49:04.001Z</time></trkpt><trkpt lat="41.191325920686985" lon="13.807878228269553"><ele>7.0</ele><time>2026-04-11T14:49:05.001Z</time></trkpt><trkpt lat="41.19129220964255" lon="13.807791275299259"><ele>7.0</ele><time>2026-04-11T14:49:06.001Z</time></trkpt><trkpt lat="41.191259628530204" lon="13.807715283075348"><ele>7.0</ele><time>2026-04-11T14:49:07.001Z</time></trkpt><trkpt lat="41.19123361943561" lon="13.807634474471422"><ele>7.0</ele><time>2026-04-11T14:49:08.001Z</time></trkpt><trkpt lat="41.1912293756192" lon="13.807533654986912"><ele>7.0</ele><time>2026-04-11T14:49:09.001Z</time></trkpt><trkpt lat="41.19122521601018" lon="13.807431347123552"><ele>7.0</ele><time>2026-04-11T14:49:10.001Z</time></trkpt><trkpt lat="41.19123814866482" lon="13.807330625780992"><ele>6.666666666666667</ele><time>2026-04-11T14:49:11.001Z</time></trkpt><trkpt lat="41.191263120384654" lon="13.80719638558905"><ele>6.333333333333334</ele><time>2026-04-11T14:49:13.001Z</time></trkpt><trkpt lat="41.191276484181856" lon="13.807109756919592"><ele>6.0</ele><time>2026-04-11T14:49:15.001Z</time></trkpt><trkpt lat="41.191305206445286" lon="13.807005868148849"><ele>5.666666666666667</ele><time>2026-04-11T14:49:18.001Z</time></trkpt><trkpt lat="41.191346050761936" lon="13.806929732225331"><ele>5.333333333333334</ele><time>2026-04-11T14:49:21.001Z</time></trkpt><trkpt lat="41.19138645375545" lon="13.80685382386964"><ele>5.0</ele><time>2026-04-11T14:49:28.001Z</time></trkpt><trkpt lat="41.1914379144593" lon="13.806772663038158"><ele>5.0</ele><time>2026-04-11T14:49:30.001Z</time></trkpt><trkpt lat="41.19149208201902" lon="13.806693649614008"><ele>5.0</ele><time>2026-04-11T14:49:32.001Z</time></trkpt><trkpt lat="41.19155413697461" lon="13.806603130744161"><ele>5.0</ele><time>2026-04-11T14:49:34.001Z</time></trkpt><trkpt lat="41.19146976561921" lon="13.806656422212576"><ele>5.0</ele><time>2026-04-11T14:49:40.001Z</time></trkpt><trkpt lat="41.19142937589386" lon="13.806744283552998"><ele>5.0</ele><time>2026-04-11T14:49:43.001Z</time></trkpt><trkpt lat="41.19140806097364" lon="13.806834389488873"><ele>5.0</ele><time>2026-04-11T14:50:12.002Z</time></trkpt><trkpt lat="41.19133117142448" lon="13.806879317470875"><ele>5.0</ele><time>2026-04-11T14:50:15.002Z</time></trkpt><trkpt lat="41.19129908315715" lon="13.806999922489979"><ele>5.0</ele><time>2026-04-11T14:50:17.002Z</time></trkpt><trkpt lat="41.19123107795662" lon="13.807140606111885"><ele>5.0</ele><time>2026-04-11T14:50:19.002Z</time></trkpt><trkpt lat="41.19119207473675" lon="13.807226873491715"><ele>5.0</ele><time>2026-04-11T14:50:20Z</time></trkpt><trkpt lat="41.19118093425061" lon="13.807316891461003"><ele>5.0</ele><time>2026-04-11T14:50:21Z</time></trkpt><trkpt lat="41.191168656670456" lon="13.807410952458433"><ele>5.0</ele><time>2026-04-11T14:50:22Z</time></trkpt><trkpt lat="41.191151782646685" lon="13.80750150947911"><ele>5.0</ele><time>2026-04-11T14:50:23Z</time></trkpt><trkpt lat="41.19117303719911" lon="13.80759710993422"><ele>5.0</ele><time>2026-04-11T14:50:24Z</time></trkpt><trkpt lat="41.19119394123522" lon="13.807694543648239"><ele>5.0</ele><time>2026-04-11T14:50:25Z</time></trkpt><trkpt lat="41.191238221490366" lon="13.807800797238066"><ele>5.0</ele><time>2026-04-11T14:50:26Z</time></trkpt><trkpt lat="41.19131764693304" lon="13.807934777581302"><ele>5.0</ele><time>2026-04-11T14:50:27Z</time></trkpt><trkpt lat="41.19139625807015" lon="13.808065199530963"><ele>5.333333333333334</ele><time>2026-04-11T14:50:28Z</time></trkpt><trkpt lat="41.19145806442012" lon="13.808167742871278"><ele>5.666666666666667</ele><time>2026-04-11T14:50:29Z</time></trkpt><trkpt lat="41.19151473735763" lon="13.808254166639582"><ele>6.0</ele><time>2026-04-11T14:50:30Z</time></trkpt><trkpt lat="41.19156670862006" lon="13.808334719804716"><ele>6.333333333333334</ele><time>2026-04-11T14:50:31Z</time></trkpt><trkpt lat="41.191617118705" lon="13.808423595472483"><ele>6.666666666666667</ele><time>2026-04-11T14:50:32Z</time></trkpt><trkpt lat="41.19166445104163" lon="13.808524662054559"><ele>7.0</ele><time>2026-04-11T14:50:33Z</time></trkpt><trkpt lat="41.19169782684741" lon="13.808627437332893"><ele>7.000000000000001</ele><time>2026-04-11T14:50:34Z</time></trkpt><trkpt lat="41.19173400389844" lon="13.808717333422896"><ele>7.0</ele><time>2026-04-11T14:50:35Z</time></trkpt><trkpt lat="41.191770029207916" lon="13.808858077853788"><ele>7.0</ele><time>2026-04-11T14:50:37Z</time></trkpt><trkpt lat="41.19171369190428" lon="13.808985263307656"><ele>7.0</ele><time>2026-04-11T14:50:39Z</time></trkpt><trkpt lat="41.1916536162592" lon="13.809046016888583"><ele>7.000000000000001</ele><time>2026-04-11T14:50:40Z</time></trkpt><trkpt lat="41.19158876890928" lon="13.809081657210022"><ele>7.0</ele><time>2026-04-11T14:50:41Z</time></trkpt><trkpt lat="41.19152047339459" lon="13.809120590560651"><ele>7.000000000000001</ele><time>2026-04-11T14:50:42Z</time></trkpt><trkpt lat="41.1914499000697" lon="13.809162529473532"><ele>7.0</ele><time>2026-04-11T14:50:43Z</time></trkpt><trkpt lat="41.19138720794548" lon="13.809214986730215"><ele>7.0</ele><time>2026-04-11T14:50:44Z</time></trkpt><trkpt lat="41.19133426483191" lon="13.809277445565506"><ele>7.0</ele><time>2026-04-11T14:50:45Z</time></trkpt><trkpt lat="41.19125215915699" lon="13.809329920497925"><ele>7.000000000000001</ele><time>2026-04-11T14:50:46Z</time></trkpt><trkpt lat="41.19118866219571" lon="13.809424869942047"><ele>7.0</ele><time>2026-04-11T14:50:47Z</time></trkpt><trkpt lat="41.19113780912003" lon="13.809490041572298"><ele>7.166666666666667</ele><time>2026-04-11T14:50:48Z</time></trkpt><trkpt lat="41.191088337821256" lon="13.809560519064807"><ele>7.333333333333334</ele><time>2026-04-11T14:50:49Z</time></trkpt><trkpt lat="41.19099367994283" lon="13.809681725138146"><ele>7.5</ele><time>2026-04-11T14:50:51Z</time></trkpt><trkpt lat="41.19094198801235" lon="13.809761433535622"><ele>7.666666666666666</ele><time>2026-04-11T14:50:52Z</time></trkpt><trkpt lat="41.19089516544437" lon="13.809847552531402"><ele>7.833333333333333</ele><time>2026-04-11T14:50:53Z</time></trkpt><trkpt lat="41.19086350006818" lon="13.809927201233208"><ele>8.0</ele><time>2026-04-11T14:50:54Z</time></trkpt><trkpt lat="41.19083490778466" lon="13.810010655616516"><ele>8.0</ele><time>2026-04-11T14:50:55Z</time></trkpt><trkpt lat="41.19078500955861" lon="13.810143466983991"><ele>8.0</ele><time>2026-04-11T14:50:57Z</time></trkpt><trkpt lat="41.19073269030289" lon="13.810280532605745"><ele>8.0</ele><time>2026-04-11T14:50:59Z</time></trkpt><trkpt lat="41.19068652214534" lon="13.8103792398275"><ele>8.0</ele><time>2026-04-11T14:51:00Z</time></trkpt><trkpt lat="41.19064078534706" lon="13.810513827753137"><ele>8.0</ele><time>2026-04-11T14:51:02.001Z</time></trkpt><trkpt lat="41.190598719059786" lon="13.81065400493698"><ele>7.999999999999999</ele><time>2026-04-11T14:51:04.001Z</time></trkpt><trkpt lat="41.19057153732573" lon="13.8107316638258"><ele>8.0</ele><time>2026-04-11T14:51:05.001Z</time></trkpt><trkpt lat="41.190517747994065" lon="13.810860496792486"><ele>8.0</ele><time>2026-04-11T14:51:07.001Z</time></trkpt><trkpt lat="41.19048525171718" lon="13.810935408192128"><ele>8.0</ele><time>2026-04-11T14:51:08.001Z</time></trkpt><trkpt lat="41.190451736626535" lon="13.811019674640997"><ele>7.999999999999999</ele><time>2026-04-11T14:51:09.001Z</time></trkpt><trkpt lat="41.190410400493626" lon="13.811103531546728"><ele>8.0</ele><time>2026-04-11T14:51:10.001Z</time></trkpt><trkpt lat="41.190364610719286" lon="13.811177243169892"><ele>7.6000000000000005</ele><time>2026-04-11T14:51:11.001Z</time></trkpt><trkpt lat="41.19030942914315" lon="13.811283403129192"><ele>7.200000000000001</ele><time>2026-04-11T14:51:13.001Z</time></trkpt><trkpt lat="41.19026003747036" lon="13.811375913672915"><ele>6.8</ele><time>2026-04-11T14:51:15.001Z</time></trkpt><trkpt lat="41.190191992936676" lon="13.811477498214723"><ele>6.4</ele><time>2026-04-11T14:51:17.001Z</time></trkpt><trkpt lat="41.19012289290427" lon="13.81160586080166"><ele>6.0</ele><time>2026-04-11T14:51:19.001Z</time></trkpt><trkpt lat="41.1900338424511" lon="13.811716780564193"><ele>5.999999999999999</ele><time>2026-04-11T14:51:21.001Z</time></trkpt><trkpt lat="41.18997274638236" lon="13.811782280040173"><ele>6.0</ele><time>2026-04-11T14:51:22.001Z</time></trkpt><trkpt lat="41.18991591352269" lon="13.811842355362547"><ele>6.0</ele><time>2026-04-11T14:51:23.001Z</time></trkpt><trkpt lat="41.18986109786908" lon="13.81191035289604"><ele>6.0</ele><time>2026-04-11T14:51:24.001Z</time></trkpt><trkpt lat="41.18981679325879" lon="13.811985697253483"><ele>6.0</ele><time>2026-04-11T14:51:25.001Z</time></trkpt><trkpt lat="41.189763780155026" lon="13.812046659509587"><ele>5.999999999999999</ele><time>2026-04-11T14:51:26.001Z</time></trkpt><trkpt lat="41.18971171176647" lon="13.812118431770942"><ele>6.0</ele><time>2026-04-11T14:51:27.001Z</time></trkpt><trkpt lat="41.18964601996408" lon="13.812183835185971"><ele>5.833333333333333</ele><time>2026-04-11T14:51:28.001Z</time></trkpt><trkpt lat="41.18957905748718" lon="13.812241728113586"><ele>5.666666666666667</ele><time>2026-04-11T14:51:29.001Z</time></trkpt><trkpt lat="41.18950624748354" lon="13.812311368822801"><ele>5.5</ele><time>2026-04-11T14:51:30.001Z</time></trkpt><trkpt lat="41.18944251810217" lon="13.812358579895788"><ele>5.333333333333334</ele><time>2026-04-11T14:51:31.001Z</time></trkpt><trkpt lat="41.189369282208204" lon="13.8123982317092"><ele>5.166666666666667</ele><time>2026-04-11T14:51:32.001Z</time></trkpt><trkpt lat="41.189297508550155" lon="13.812440033976431"><ele>5.0</ele><time>2026-04-11T14:51:33.001Z</time></trkpt><trkpt lat="41.18922911266688" lon="13.812476063349404"><ele>5.0</ele><time>2026-04-11T14:51:34.001Z</time></trkpt><trkpt lat="41.18915755185902" lon="13.812511220090009"><ele>5.0</ele><time>2026-04-11T14:51:35.001Z</time></trkpt><trkpt lat="41.1890849728014" lon="13.812555481619658"><ele>5.0</ele><time>2026-04-11T14:51:36.001Z</time></trkpt><trkpt lat="41.18901620402814" lon="13.812590938272619"><ele>5.0</ele><time>2026-04-11T14:51:37.001Z</time></trkpt><trkpt lat="41.18894221444237" lon="13.812634111167947"><ele>5.0</ele><time>2026-04-11T14:51:38.001Z</time></trkpt><trkpt lat="41.18886924650837" lon="13.81266231253268"><ele>5.0</ele><time>2026-04-11T14:51:39.001Z</time></trkpt><trkpt lat="41.18879356734049" lon="13.812737661619577"><ele>5.333333333333334</ele><time>2026-04-11T14:51:40.001Z</time></trkpt><trkpt lat="41.18871452428834" lon="13.812770771726694"><ele>5.666666666666667</ele><time>2026-04-11T14:51:41.001Z</time></trkpt><trkpt lat="41.18865007216115" lon="13.812844098621376"><ele>6.0</ele><time>2026-04-11T14:51:42.001Z</time></trkpt><trkpt lat="41.18859234043799" lon="13.812892916161054"><ele>6.333333333333334</ele><time>2026-04-11T14:51:43.001Z</time></trkpt><trkpt lat="41.18852474706189" lon="13.812933094172928"><ele>6.666666666666667</ele><time>2026-04-11T14:51:44.001Z</time></trkpt><trkpt lat="41.1884663157399" lon="13.812994904690232"><ele>7.0</ele><time>2026-04-11T14:51:45.001Z</time></trkpt><trkpt lat="41.18840001651342" lon="13.81311587956563"><ele>7.000000000000001</ele><time>2026-04-11T14:51:46.001Z</time></trkpt><trkpt lat="41.188354940267786" lon="13.813188950692373"><ele>7.0</ele><time>2026-04-11T14:51:47.001Z</time></trkpt><trkpt lat="41.188314255346064" lon="13.813261577524509"><ele>7.0</ele><time>2026-04-11T14:51:48.001Z</time></trkpt><trkpt lat="41.18826296588137" lon="13.813403137088713"><ele>7.0</ele><time>2026-04-11T14:51:50.001Z</time></trkpt><trkpt lat="41.188235773489" lon="13.813486509451069"><ele>7.000000000000001</ele><time>2026-04-11T14:51:51.001Z</time></trkpt><trkpt lat="41.188226398576326" lon="13.813577230251692"><ele>7.0</ele><time>2026-04-11T14:51:52.001Z</time></trkpt><trkpt lat="41.18820588909559" lon="13.813664420042326"><ele>6.666666666666667</ele><time>2026-04-11T14:51:53.001Z</time></trkpt><trkpt lat="41.188192788233515" lon="13.813754564570115"><ele>6.333333333333334</ele><time>2026-04-11T14:51:54.001Z</time></trkpt><trkpt lat="41.18817639920886" lon="13.813854681173591"><ele>6.0</ele><time>2026-04-11T14:51:55.001Z</time></trkpt><trkpt lat="41.18814924351765" lon="13.813947182780094"><ele>5.666666666666667</ele><time>2026-04-11T14:51:56.001Z</time></trkpt><trkpt lat="41.188108192818554" lon="13.81404442887273"><ele>5.333333333333334</ele><time>2026-04-11T14:51:57.001Z</time></trkpt><trkpt lat="41.18805980091519" lon="13.814140661468162"><ele>5.0</ele><time>2026-04-11T14:51:58.001Z</time></trkpt><trkpt lat="41.187999211107076" lon="13.814251914339613"><ele>5.4</ele><time>2026-04-11T14:51:59.001Z</time></trkpt><trkpt lat="41.18794408776431" lon="13.81437013193901"><ele>5.8</ele><time>2026-04-11T14:52:00.001Z</time></trkpt><trkpt lat="41.1878645542639" lon="13.814477206957221"><ele>6.199999999999999</ele><time>2026-04-11T14:52:01.001Z</time></trkpt><trkpt lat="41.18778669718125" lon="13.81458353308146"><ele>6.6</ele><time>2026-04-11T14:52:02.001Z</time></trkpt><trkpt lat="41.187706169998165" lon="13.814694671379687"><ele>7.0</ele><time>2026-04-11T14:52:03.001Z</time></trkpt><trkpt lat="41.18761704762951" lon="13.814781613272075"><ele>7.0</ele><time>2026-04-11T14:52:04.001Z</time></trkpt><trkpt lat="41.18753211280959" lon="13.814876241746877"><ele>7.0</ele><time>2026-04-11T14:52:05.001Z</time></trkpt><trkpt lat="41.18744619731167" lon="13.814972366024506"><ele>7.0</ele><time>2026-04-11T14:52:06.001Z</time></trkpt><trkpt lat="41.18735730578433" lon="13.815067317115592"><ele>7.0</ele><time>2026-04-11T14:52:07.001Z</time></trkpt><trkpt lat="41.18726470260188" lon="13.815189684550237"><ele>6.75</ele><time>2026-04-11T14:52:08.001Z</time></trkpt><trkpt lat="41.187156820184384" lon="13.815313971590676"><ele>6.5</ele><time>2026-04-11T14:52:09.001Z</time></trkpt><trkpt lat="41.1870322348404" lon="13.815430628629409"><ele>6.25</ele><time>2026-04-11T14:52:10.001Z</time></trkpt><trkpt lat="41.18690817135846" lon="13.815529205322093"><ele>6.0</ele><time>2026-04-11T14:52:11.002Z</time></trkpt><trkpt lat="41.18677703397043" lon="13.815637460660506"><ele>6.0</ele><time>2026-04-11T14:52:12.002Z</time></trkpt><trkpt lat="41.18665837506846" lon="13.815734601236247"><ele>6.0</ele><time>2026-04-11T14:52:13.002Z</time></trkpt><trkpt lat="41.18654084937148" lon="13.815835361397708"><ele>6.0</ele><time>2026-04-11T14:52:14.002Z</time></trkpt><trkpt lat="41.18642870705985" lon="13.815909057900866"><ele>6.0</ele><time>2026-04-11T14:52:15.002Z</time></trkpt><trkpt lat="41.186330179789024" lon="13.816003968467093"><ele>7.0</ele><time>2026-04-11T14:52:16.002Z</time></trkpt><trkpt lat="41.18623709252419" lon="13.816111779359426"><ele>8.0</ele><time>2026-04-11T14:52:17.002Z</time></trkpt><trkpt lat="41.18615362951343" lon="13.81623619564269"><ele>9.0</ele><time>2026-04-11T14:52:18.002Z</time></trkpt><trkpt lat="41.186082227759144" lon="13.816358500528008"><ele>10.0</ele><time>2026-04-11T14:52:19.002Z</time></trkpt><trkpt lat="41.18602609793448" lon="13.816485881289296"><ele>10.0</ele><time>2026-04-11T14:52:20.002Z</time></trkpt><trkpt lat="41.18597146242444" lon="13.816621067557886"><ele>10.0</ele><time>2026-04-11T14:52:21.002Z</time></trkpt><trkpt lat="41.1859177818024" lon="13.816737158256267"><ele>10.0</ele><time>2026-04-11T14:52:22.002Z</time></trkpt><trkpt lat="41.18586655797446" lon="13.816839611644463"><ele>10.0</ele><time>2026-04-11T14:52:23.002Z</time></trkpt><trkpt lat="41.18582106846673" lon="13.816935233022624"><ele>10.0</ele><time>2026-04-11T14:52:24.002Z</time></trkpt><trkpt lat="41.18578389599699" lon="13.817018015629937"><ele>9.333333333333334</ele><time>2026-04-11T14:52:25.002Z</time></trkpt><trkpt lat="41.18574865455677" lon="13.817099816700544"><ele>8.666666666666668</ele><time>2026-04-11T14:52:26Z</time></trkpt><trkpt lat="41.18571190270725" lon="13.817169353799612"><ele>8.0</ele><time>2026-04-11T14:52:27Z</time></trkpt><trkpt lat="41.18563664526574" lon="13.817307508097482"><ele>7.333333333333334</ele><time>2026-04-11T14:52:29Z</time></trkpt><trkpt lat="41.18560018859371" lon="13.817382767935108"><ele>6.666666666666667</ele><time>2026-04-11T14:52:30Z</time></trkpt><trkpt lat="41.18555694431781" lon="13.817467476924788"><ele>6.0</ele><time>2026-04-11T14:52:31Z</time></trkpt><trkpt lat="41.18552079235567" lon="13.817547685653084"><ele>6.0</ele><time>2026-04-11T14:52:32Z</time></trkpt><trkpt lat="41.18548465564352" lon="13.817623410952775"><ele>6.0</ele><time>2026-04-11T14:52:33Z</time></trkpt><trkpt lat="41.18543296290915" lon="13.81770992455064"><ele>6.0</ele><time>2026-04-11T14:52:34Z</time></trkpt><trkpt lat="41.18540047692141" lon="13.817800490220936"><ele>6.0</ele><time>2026-04-11T14:52:35Z</time></trkpt><trkpt lat="41.18536517294593" lon="13.817879345448123"><ele>6.0</ele><time>2026-04-11T14:52:36Z</time></trkpt><trkpt lat="41.1853286293936" lon="13.817949303730693"><ele>6.0</ele><time>2026-04-11T14:52:37Z</time></trkpt><trkpt lat="41.1852721447475" lon="13.818071366056348"><ele>5.5</ele><time>2026-04-11T14:52:39Z</time></trkpt><trkpt lat="41.1852336100358" lon="13.818165205251107"><ele>5.0</ele><time>2026-04-11T14:52:41Z</time></trkpt><trkpt lat="41.185172649470175" lon="13.818226634380137"><ele>4.5</ele><time>2026-04-11T14:52:45Z</time></trkpt><trkpt lat="41.18510678415855" lon="13.818203614612132"><ele>4.0</ele><time>2026-04-11T14:52:52Z</time></trkpt><trkpt lat="41.18507410247027" lon="13.818106844315277"><ele>3.5</ele><time>2026-04-11T14:52:54Z</time></trkpt><trkpt lat="41.18505557034289" lon="13.817965519916305"><ele>3.0</ele><time>2026-04-11T14:52:56Z</time></trkpt><trkpt lat="41.18500503945625" lon="13.817824273104305"><ele>3.0</ele><time>2026-04-11T14:52:58Z</time></trkpt><trkpt lat="41.184982180111476" lon="13.81769044884543"><ele>3.0</ele><time>2026-04-11T14:53:00Z</time></trkpt><trkpt lat="41.184946509966224" lon="13.81757724568302"><ele>3.0</ele><time>2026-04-11T14:53:02Z</time></trkpt><trkpt lat="41.184912628662005" lon="13.81747909829034"><ele>3.0</ele><time>2026-04-11T14:53:04Z</time></trkpt><trkpt lat="41.184878946855136" lon="13.81737372303777"><ele>3.0</ele><time>2026-04-11T14:53:06Z</time></trkpt><trkpt lat="41.18484147474082" lon="13.817270947347344"><ele>3.0</ele><time>2026-04-11T14:53:08Z</time></trkpt><trkpt lat="41.1848089659264" lon="13.817159180722609"><ele>3.0</ele><time>2026-04-11T14:53:10.001Z</time></trkpt><trkpt lat="41.18477414957732" lon="13.817044417958265"><ele>3.0</ele><time>2026-04-11T14:53:12.001Z</time></trkpt><trkpt lat="41.18474673558672" lon="13.816943529067004"><ele>3.0</ele><time>2026-04-11T14:53:14.001Z</time></trkpt><trkpt lat="41.184715557400985" lon="13.816862942601293"><ele>3.0</ele><time>2026-04-11T14:53:16.001Z</time></trkpt><trkpt lat="41.184679903093325" lon="13.816763330737158"><ele>3.0</ele><time>2026-04-11T14:53:21.001Z</time></trkpt><trkpt lat="41.18466134964988" lon="13.816670604779555"><ele>3.0</ele><time>2026-04-11T14:53:25.001Z</time></trkpt><trkpt lat="41.18463521668643" lon="13.816564471241964"><ele>3.2857142857142856</ele><time>2026-04-11T14:53:28.001Z</time></trkpt><trkpt lat="41.18460321916552" lon="13.81648389902885"><ele>3.571428571428571</ele><time>2026-04-11T14:53:30.001Z</time></trkpt><trkpt lat="41.18457181196157" lon="13.816399221787727"><ele>3.8571428571428568</ele><time>2026-04-11T14:53:32.001Z</time></trkpt><trkpt lat="41.18455275563133" lon="13.816293208130977"><ele>4.142857142857142</ele><time>2026-04-11T14:53:34.001Z</time></trkpt><trkpt lat="41.18452242121609" lon="13.816207043609726"><ele>4.428571428571429</ele><time>2026-04-11T14:53:36.001Z</time></trkpt><trkpt lat="41.18449256274143" lon="13.816128715609896"><ele>4.714285714285714</ele><time>2026-04-11T14:53:38.001Z</time></trkpt><trkpt lat="41.18448053912885" lon="13.816042592749717"><ele>5.0</ele><time>2026-04-11T14:53:40.001Z</time></trkpt><trkpt lat="41.1844554672322" lon="13.815947998136629"><ele>5.0</ele><time>2026-04-11T14:53:43.001Z</time></trkpt><trkpt lat="41.184430804940085" lon="13.815841534740326"><ele>5.0</ele><time>2026-04-11T14:53:47.001Z</time></trkpt><trkpt lat="41.184412869805335" lon="13.81573547867275"><ele>5.0</ele><time>2026-04-11T14:53:50.001Z</time></trkpt><trkpt lat="41.184426243762985" lon="13.815634568394186"><ele>5.0</ele><time>2026-04-11T14:53:53.001Z</time></trkpt><trkpt lat="41.18437859779846" lon="13.815566236911272"><ele>5.0</ele><time>2026-04-11T14:53:56.001Z</time></trkpt><trkpt lat="41.18444426695104" lon="13.81561649854605"><ele>5.0</ele><time>2026-04-11T14:53:59.001Z</time></trkpt><trkpt lat="41.184373793679114" lon="13.815478819578965"><ele>5.0</ele><time>2026-04-11T14:54:06.001Z</time></trkpt><trkpt lat="41.184368773431544" lon="13.815376034862714"><ele>5.0</ele><time>2026-04-11T14:54:09.001Z</time></trkpt><trkpt lat="41.1844327409576" lon="13.815302513230765"><ele>5.0</ele><time>2026-04-11T14:54:21.001Z</time></trkpt><trkpt lat="41.1845029227912" lon="13.815222672139697"><ele>5.0</ele><time>2026-04-11T14:54:24.002Z</time></trkpt><trkpt lat="41.18455970063175" lon="13.815158998913573"><ele>5.0</ele><time>2026-04-11T14:54:26.002Z</time></trkpt><trkpt lat="41.18460687383386" lon="13.815099875701504"><ele>5.0</ele><time>2026-04-11T14:54:28.002Z</time></trkpt><trkpt lat="41.184658325836516" lon="13.815015464885487"><ele>5.142857142857142</ele><time>2026-04-11T14:54:31.002Z</time></trkpt><trkpt lat="41.18472002980709" lon="13.814939082055494"><ele>5.285714285714286</ele><time>2026-04-11T14:54:34Z</time></trkpt><trkpt lat="41.18476842677663" lon="13.814879133700073"><ele>5.428571428571429</ele><time>2026-04-11T14:54:37Z</time></trkpt><trkpt lat="41.18482311208803" lon="13.814811157809592"><ele>5.571428571428571</ele><time>2026-04-11T14:54:40Z</time></trkpt><trkpt lat="41.18488165562732" lon="13.814757325710355"><ele>5.714285714285714</ele><time>2026-04-11T14:54:44Z</time></trkpt><trkpt lat="41.184930958063994" lon="13.814687753334766"><ele>5.857142857142857</ele><time>2026-04-11T14:54:47Z</time></trkpt><trkpt lat="41.18498393613384" lon="13.814642417165018"><ele>6.0</ele><time>2026-04-11T14:54:49Z</time></trkpt><trkpt lat="41.18501190463245" lon="13.81456707753005"><ele>6.0</ele><time>2026-04-11T14:54:53Z</time></trkpt><trkpt lat="41.18497416984995" lon="13.814455104728225"><ele>6.0</ele><time>2026-04-11T14:54:55Z</time></trkpt><trkpt lat="41.18491120617159" lon="13.814442950992342"><ele>6.0</ele><time>2026-04-11T14:54:58Z</time></trkpt><trkpt lat="41.184865435891176" lon="13.814382775880318"><ele>6.0</ele><time>2026-04-11T14:55:03Z</time></trkpt><trkpt lat="41.184818561961166" lon="13.814300815964135"><ele>6.0</ele><time>2026-04-11T14:55:07Z</time></trkpt><trkpt lat="41.18495021214832" lon="13.814213795630513"><ele>6.0</ele><time>2026-04-11T14:55:26.001Z</time></trkpt><trkpt lat="41.18500237462889" lon="13.814152742724346"><ele>5.3999999999999995</ele><time>2026-04-11T14:55:29.001Z</time></trkpt><trkpt lat="41.185053677140665" lon="13.814089632814413"><ele>4.8</ele><time>2026-04-11T14:55:32.001Z</time></trkpt><trkpt lat="41.18510815496225" lon="13.814020325653118"><ele>4.199999999999999</ele><time>2026-04-11T14:55:40.001Z</time></trkpt><trkpt lat="41.18506292436799" lon="13.81395332047199"><ele>3.5999999999999996</ele><time>2026-04-11T14:58:18.001Z</time></trkpt><trkpt lat="41.18500363165501" lon="13.813906700667387"><ele>3.0</ele><time>2026-04-11T14:58:26.001Z</time></trkpt><trkpt lat="41.18496376027214" lon="13.813687765505838"><ele>3.0</ele><time>2026-04-11T15:42:04Z</time></trkpt><trkpt lat="41.184989916773354" lon="13.813593577080445"><ele>3.0</ele><time>2026-04-11T15:42:06Z</time></trkpt><trkpt lat="41.1849642212307" lon="13.81369713673564"><ele>3.0</ele><time>2026-04-11T15:42:07Z</time></trkpt><trkpt lat="41.18494858270817" lon="13.813789647872266"><ele>3.0</ele><time>2026-04-11T15:42:13Z</time></trkpt><trkpt lat="41.184972230892235" lon="13.813888446809163"><ele>3.0</ele><time>2026-04-11T15:42:35Z</time></trkpt><trkpt lat="41.1850045596407" lon="13.813970577000198"><ele>3.0</ele><time>2026-04-11T15:42:43Z</time></trkpt><trkpt lat="41.185062777463045" lon="13.814032441764235"><ele>3.0</ele><time>2026-04-11T15:42:50Z</time></trkpt><trkpt lat="41.18515230971955" lon="13.814032278805605"><ele>3.0</ele><time>2026-04-11T15:42:55Z</time></trkpt><trkpt lat="41.18523273853997" lon="13.814072314922"><ele>3.0</ele><time>2026-04-11T15:44:01Z</time></trkpt><trkpt lat="41.18516875378703" lon="13.814077048139085"><ele>3.0</ele><time>2026-04-11T15:44:16Z</time></trkpt><trkpt lat="41.18515292599484" lon="13.813895947984093"><ele>3.0</ele><time>2026-04-11T15:48:13Z</time></trkpt><trkpt lat="41.1850956795211" lon="13.813957544790012"><ele>3.0</ele><time>2026-04-11T15:48:15Z</time></trkpt><trkpt lat="41.1850354081949" lon="13.814030493376782"><ele>3.0</ele><time>2026-04-11T15:48:17Z</time></trkpt><trkpt lat="41.18497036476176" lon="13.81410356406392"><ele>3.0</ele><time>2026-04-11T15:48:20Z</time></trkpt><trkpt lat="41.184895959924376" lon="13.814173401028738"><ele>3.0</ele><time>2026-04-11T15:48:23Z</time></trkpt><trkpt lat="41.18485728141467" lon="13.814239937819542"><ele>3.0</ele><time>2026-04-11T15:48:25Z</time></trkpt><trkpt lat="41.184821814731976" lon="13.814321069969424"><ele>3.0</ele><time>2026-04-11T15:48:27Z</time></trkpt><trkpt lat="41.1848601941558" lon="13.814415791365876"><ele>2.8333333333333335</ele><time>2026-04-11T15:48:31Z</time></trkpt><trkpt lat="41.184900817124664" lon="13.814496633075086"><ele>2.6666666666666665</ele><time>2026-04-11T15:48:33Z</time></trkpt><trkpt lat="41.18495455034383" lon="13.814554783907646"><ele>2.5</ele><time>2026-04-11T15:48:35Z</time></trkpt><trkpt lat="41.184913569147014" lon="13.81466192474239"><ele>2.333333333333333</ele><time>2026-04-11T15:48:40Z</time></trkpt><trkpt lat="41.184839537483086" lon="13.814728973664979"><ele>2.1666666666666665</ele><time>2026-04-11T15:48:43Z</time></trkpt><trkpt lat="41.18479074052624" lon="13.814787767771401"><ele>2.0</ele><time>2026-04-11T15:49:04Z</time></trkpt><trkpt lat="41.18474668235381" lon="13.814850518893493"><ele>1.9999999999999998</ele><time>2026-04-11T15:49:06Z</time></trkpt><trkpt lat="41.184694012183186" lon="13.814920921321841"><ele>2.0</ele><time>2026-04-11T15:49:08Z</time></trkpt><trkpt lat="41.184635913259946" lon="13.814993409954369"><ele>2.0</ele><time>2026-04-11T15:49:10Z</time></trkpt><trkpt lat="41.184577696930674" lon="13.8150623014035"><ele>2.0</ele><time>2026-04-11T15:49:12Z</time></trkpt><trkpt lat="41.18450137586817" lon="13.815158174854428"><ele>1.9999999999999998</ele><time>2026-04-11T15:49:14Z</time></trkpt><trkpt lat="41.184434303427985" lon="13.815236620794908"><ele>2.0</ele><time>2026-04-11T15:49:16Z</time></trkpt><trkpt lat="41.18438808981923" lon="13.815317563793869"><ele>2.6</ele><time>2026-04-11T15:49:18Z</time></trkpt><trkpt lat="41.184352250039574" lon="13.815425600287016"><ele>3.2</ele><time>2026-04-11T15:49:20Z</time></trkpt><trkpt lat="41.18429464159326" lon="13.815527710264796"><ele>3.8</ele><time>2026-04-11T15:49:22Z</time></trkpt><trkpt lat="41.184322425069354" lon="13.81567381344753"><ele>4.4</ele><time>2026-04-11T15:49:24Z</time></trkpt><trkpt lat="41.184367550839376" lon="13.815798840667124"><ele>5.0</ele><time>2026-04-11T15:49:26Z</time></trkpt><trkpt lat="41.18439299013364" lon="13.815933106675924"><ele>5.2</ele><time>2026-04-11T15:49:28Z</time></trkpt><trkpt lat="41.18443932135908" lon="13.81605901617132"><ele>5.4</ele><time>2026-04-11T15:49:30Z</time></trkpt><trkpt lat="41.18447752581972" lon="13.816200601421192"><ele>5.6</ele><time>2026-04-11T15:49:32Z</time></trkpt><trkpt lat="41.18451354648723" lon="13.816342424371578"><ele>5.8</ele><time>2026-04-11T15:49:34Z</time></trkpt><trkpt lat="41.18455974101527" lon="13.816477215176683"><ele>6.0</ele><time>2026-04-11T15:49:36Z</time></trkpt><trkpt lat="41.18459801404479" lon="13.816619141117766"><ele>6.0</ele><time>2026-04-11T15:49:38Z</time></trkpt><trkpt lat="41.18464221123154" lon="13.816761663389286"><ele>6.0</ele><time>2026-04-11T15:49:40Z</time></trkpt><trkpt lat="41.18468999967315" lon="13.816916524295328"><ele>6.0</ele><time>2026-04-11T15:49:42Z</time></trkpt><trkpt lat="41.18471398836507" lon="13.816996515377529"><ele>6.0</ele><time>2026-04-11T15:49:43Z</time></trkpt><trkpt lat="41.184736875724916" lon="13.81707744701889"><ele>6.0</ele><time>2026-04-11T15:49:44Z</time></trkpt><trkpt lat="41.18476493863327" lon="13.817163163784443"><ele>6.0</ele><time>2026-04-11T15:49:45Z</time></trkpt><trkpt lat="41.1847865757962" lon="13.817245021287114"><ele>6.0</ele><time>2026-04-11T15:49:46Z</time></trkpt><trkpt lat="41.18481319480366" lon="13.81733844762148"><ele>6.0</ele><time>2026-04-11T15:49:47Z</time></trkpt><trkpt lat="41.1848369706817" lon="13.81743711878373"><ele>6.0</ele><time>2026-04-11T15:49:48Z</time></trkpt><trkpt lat="41.18486006281091" lon="13.8175214693571"><ele>6.0</ele><time>2026-04-11T15:49:49Z</time></trkpt><trkpt lat="41.18493026461474" lon="13.817615629394316"><ele>6.0</ele><time>2026-04-11T15:49:50Z</time></trkpt><trkpt lat="41.18494651177997" lon="13.817721600241711"><ele>6.0</ele><time>2026-04-11T15:49:51Z</time></trkpt><trkpt lat="41.184978293157805" lon="13.817827628862963"><ele>5.5</ele><time>2026-04-11T15:49:52Z</time></trkpt><trkpt lat="41.18500938795224" lon="13.817931367100455"><ele>5.0</ele><time>2026-04-11T15:49:53Z</time></trkpt><trkpt lat="41.18503684092369" lon="13.818020756266892"><ele>4.5</ele><time>2026-04-11T15:49:54Z</time></trkpt><trkpt lat="41.185099210239215" lon="13.818164457101052"><ele>4.0</ele><time>2026-04-11T15:49:56Z</time></trkpt><trkpt lat="41.18512776918586" lon="13.818270772464674"><ele>3.5</ele><time>2026-04-11T15:49:58Z</time></trkpt><trkpt lat="41.18513316769504" lon="13.818370864011886"><ele>3.0</ele><time>2026-04-11T15:50:09Z</time></trkpt><trkpt lat="41.185142923812535" lon="13.818457293898438"><ele>2.6666666666666665</ele><time>2026-04-11T15:50:11Z</time></trkpt><trkpt lat="41.18518662527759" lon="13.818586583667749"><ele>2.3333333333333335</ele><time>2026-04-11T15:50:13Z</time></trkpt><trkpt lat="41.18520369273985" lon="13.81867334334444"><ele>2.0</ele><time>2026-04-11T15:50:14Z</time></trkpt><trkpt lat="41.185213860391336" lon="13.818764597087103"><ele>1.6666666666666665</ele><time>2026-04-11T15:50:15Z</time></trkpt><trkpt lat="41.18522407299069" lon="13.818858344225529"><ele>1.3333333333333333</ele><time>2026-04-11T15:50:16Z</time></trkpt><trkpt lat="41.18523304212726" lon="13.818963483905433"><ele>1.0</ele><time>2026-04-11T15:50:17Z</time></trkpt><trkpt lat="41.18524842349169" lon="13.81906338720196"><ele>0.9999999999999999</ele><time>2026-04-11T15:50:18Z</time></trkpt><trkpt lat="41.18526535713744" lon="13.819165565994341"><ele>1.0</ele><time>2026-04-11T15:50:19Z</time></trkpt><trkpt lat="41.18528430576162" lon="13.8192820508368"><ele>1.0</ele><time>2026-04-11T15:50:20Z</time></trkpt><trkpt lat="41.18530408892356" lon="13.819393673680818"><ele>1.0</ele><time>2026-04-11T15:50:21Z</time></trkpt><trkpt lat="41.18532317182106" lon="13.81951341653225"><ele>0.9999999999999999</ele><time>2026-04-11T15:50:22Z</time></trkpt><trkpt lat="41.18534530866825" lon="13.819627569400767"><ele>1.0</ele><time>2026-04-11T15:50:23Z</time></trkpt><trkpt lat="41.18536117404826" lon="13.819744611458416"><ele>1.2000000000000002</ele><time>2026-04-11T15:50:24Z</time></trkpt><trkpt lat="41.1853781850308" lon="13.819873396787091"><ele>1.4000000000000001</ele><time>2026-04-11T15:50:25Z</time></trkpt><trkpt lat="41.185396961927026" lon="13.820000972639162"><ele>1.6</ele><time>2026-04-11T15:50:26Z</time></trkpt><trkpt lat="41.185416046984855" lon="13.820151842800085"><ele>1.8</ele><time>2026-04-11T15:50:27Z</time></trkpt><trkpt lat="41.18543521784336" lon="13.820307079582241"><ele>2.0</ele><time>2026-04-11T15:50:28Z</time></trkpt><trkpt lat="41.185465200981724" lon="13.820490242528248"><ele>2.0</ele><time>2026-04-11T15:50:29Z</time></trkpt><trkpt lat="41.18549411224998" lon="13.820684808443225"><ele>2.0</ele><time>2026-04-11T15:50:30Z</time></trkpt><trkpt lat="41.18552294573992" lon="13.82089372387728"><ele>2.0</ele><time>2026-04-11T15:50:31Z</time></trkpt><trkpt lat="41.185562758584" lon="13.82111160507722"><ele>1.6666666666666665</ele><time>2026-04-11T15:50:32Z</time></trkpt><trkpt lat="41.18559964440801" lon="13.821329898880743"><ele>1.3333333333333333</ele><time>2026-04-11T15:50:33Z</time></trkpt><trkpt lat="41.18563973653672" lon="13.821547360846797"><ele>1.0</ele><time>2026-04-11T15:50:34Z</time></trkpt><trkpt lat="41.1856884213164" lon="13.821765124229707"><ele>1.0</ele><time>2026-04-11T15:50:35Z</time></trkpt><trkpt lat="41.18574257347691" lon="13.821984396274424"><ele>1.0</ele><time>2026-04-11T15:50:36Z</time></trkpt><trkpt lat="41.185792390246185" lon="13.822211750302511"><ele>1.0</ele><time>2026-04-11T15:50:37Z</time></trkpt><trkpt lat="41.18584022752506" lon="13.822433132055595"><ele>0.6666666666666666</ele><time>2026-04-11T15:50:38Z</time></trkpt><trkpt lat="41.18589339652558" lon="13.822653901072925"><ele>0.3333333333333333</ele><time>2026-04-11T15:50:39Z</time></trkpt><trkpt lat="41.185955895381795" lon="13.822878555379754"><ele>0.0</ele><time>2026-04-11T15:50:40Z</time></trkpt><trkpt lat="41.1860176366838" lon="13.823106151589865"><ele>0.0</ele><time>2026-04-11T15:50:41Z</time></trkpt><trkpt lat="41.186081319987395" lon="13.82332649871093"><ele>0.0</ele><time>2026-04-11T15:50:42Z</time></trkpt><trkpt lat="41.186134260157836" lon="13.823535164401061"><ele>0.0</ele><time>2026-04-11T15:50:43Z</time></trkpt><trkpt lat="41.1861785573622" lon="13.82373011747755"><ele>-0.25</ele><time>2026-04-11T15:50:44Z</time></trkpt><trkpt lat="41.18622379745671" lon="13.823915941685899"><ele>-0.5</ele><time>2026-04-11T15:50:45Z</time></trkpt><trkpt lat="41.18626855321974" lon="13.82407577945825"><ele>-0.75</ele><time>2026-04-11T15:50:46Z</time></trkpt><trkpt lat="41.18630936729226" lon="13.824229326682595"><ele>-1.0</ele><time>2026-04-11T15:50:47Z</time></trkpt><trkpt lat="41.18634631438671" lon="13.82438424662103"><ele>-0.5</ele><time>2026-04-11T15:50:48Z</time></trkpt><trkpt lat="41.18637919390351" lon="13.824538311455138"><ele>0.0</ele><time>2026-04-11T15:50:49Z</time></trkpt><trkpt lat="41.186419426031094" lon="13.824702573822783"><ele>0.5</ele><time>2026-04-11T15:50:50Z</time></trkpt><trkpt lat="41.18646465787823" lon="13.824874814271366"><ele>1.0</ele><time>2026-04-11T15:50:51Z</time></trkpt><trkpt lat="41.186506781307074" lon="13.825046103840016"><ele>1.5</ele><time>2026-04-11T15:50:52Z</time></trkpt><trkpt lat="41.186539207531" lon="13.825221299004234"><ele>2.0</ele><time>2026-04-11T15:50:53Z</time></trkpt><trkpt lat="41.186576912374775" lon="13.825397566779285"><ele>2.5</ele><time>2026-04-11T15:50:54Z</time></trkpt><trkpt lat="41.186623794124955" lon="13.825569010288"><ele>3.0</ele><time>2026-04-11T15:50:55Z</time></trkpt><trkpt lat="41.18666320788458" lon="13.825735515441355"><ele>3.0</ele><time>2026-04-11T15:50:56Z</time></trkpt><trkpt lat="41.186694801352125" lon="13.82590169463986"><ele>3.0</ele><time>2026-04-11T15:50:57Z</time></trkpt><trkpt lat="41.186736137178166" lon="13.826070053944248"><ele>3.0</ele><time>2026-04-11T15:50:58Z</time></trkpt><trkpt lat="41.18677887790455" lon="13.826235799827279"><ele>3.0</ele><time>2026-04-11T15:50:59Z</time></trkpt><trkpt lat="41.18681889949183" lon="13.826401278710778"><ele>2.75</ele><time>2026-04-11T15:51:00Z</time></trkpt><trkpt lat="41.18685318685098" lon="13.826574560187632"><ele>2.5</ele><time>2026-04-11T15:51:01Z</time></trkpt><trkpt lat="41.18689422156099" lon="13.826730530676722"><ele>2.25</ele><time>2026-04-11T15:51:02Z</time></trkpt><trkpt lat="41.18693406197763" lon="13.826901569955574"><ele>2.0</ele><time>2026-04-11T15:51:03Z</time></trkpt><trkpt lat="41.18697413571971" lon="13.827082547687414"><ele>2.0</ele><time>2026-04-11T15:51:04Z</time></trkpt><trkpt lat="41.18701713001153" lon="13.827260898604358"><ele>2.0</ele><time>2026-04-11T15:51:05Z</time></trkpt><trkpt lat="41.18706354873048" lon="13.827426437847802"><ele>2.0</ele><time>2026-04-11T15:51:06Z</time></trkpt><trkpt lat="41.18712345281787" lon="13.827600505565385"><ele>2.0</ele><time>2026-04-11T15:51:07Z</time></trkpt><trkpt lat="41.18718328156363" lon="13.82775849864899"><ele>2.0</ele><time>2026-04-11T15:51:08Z</time></trkpt><trkpt lat="41.18725301997959" lon="13.82791862995785"><ele>2.0</ele><time>2026-04-11T15:51:09Z</time></trkpt><trkpt lat="41.187339896048414" lon="13.828074119131637"><ele>2.0</ele><time>2026-04-11T15:51:10Z</time></trkpt><trkpt lat="41.18742667232659" lon="13.828219116411638"><ele>2.0</ele><time>2026-04-11T15:51:11Z</time></trkpt><trkpt lat="41.187524281113554" lon="13.828358116310014"><ele>2.5</ele><time>2026-04-11T15:51:12Z</time></trkpt><trkpt lat="41.187617097238885" lon="13.828507247221674"><ele>3.0</ele><time>2026-04-11T15:51:13Z</time></trkpt><trkpt lat="41.18771012634995" lon="13.828654105212372"><ele>3.5</ele><time>2026-04-11T15:51:13.999Z</time></trkpt><trkpt lat="41.18781188189977" lon="13.828799234524148"><ele>4.0</ele><time>2026-04-11T15:51:14.999Z</time></trkpt><trkpt lat="41.1879335257134" lon="13.828924853560249"><ele>4.0</ele><time>2026-04-11T15:51:15.999Z</time></trkpt><trkpt lat="41.18802899655065" lon="13.82905110483176"><ele>4.0</ele><time>2026-04-11T15:51:16.999Z</time></trkpt><trkpt lat="41.18812392674384" lon="13.829182469194462"><ele>4.0</ele><time>2026-04-11T15:51:17.999Z</time></trkpt><trkpt lat="41.18821698261959" lon="13.82931796280842"><ele>4.0</ele><time>2026-04-11T15:51:18.999Z</time></trkpt><trkpt lat="41.188306546552674" lon="13.829462485358956"><ele>4.0</ele><time>2026-04-11T15:51:19.999Z</time></trkpt><trkpt lat="41.188397211222856" lon="13.829595688822758"><ele>4.0</ele><time>2026-04-11T15:51:20.999Z</time></trkpt><trkpt lat="41.18848591039602" lon="13.829725278330617"><ele>4.0</ele><time>2026-04-11T15:51:21.999Z</time></trkpt><trkpt lat="41.18857917225839" lon="13.82985764027989"><ele>4.0</ele><time>2026-04-11T15:51:22.999Z</time></trkpt><trkpt lat="41.18866308122119" lon="13.829990588405682"><ele>4.0</ele><time>2026-04-11T15:51:23.999Z</time></trkpt><trkpt lat="41.18875556877917" lon="13.830131979461937"><ele>4.0</ele><time>2026-04-11T15:51:24.999Z</time></trkpt><trkpt lat="41.18885045719763" lon="13.830274070763616"><ele>4.0</ele><time>2026-04-11T15:51:25.999Z</time></trkpt><trkpt lat="41.18894769272896" lon="13.830413397515716"><ele>4.0</ele><time>2026-04-11T15:51:26.999Z</time></trkpt><trkpt lat="41.18903954686424" lon="13.83055198085938"><ele>3.75</ele><time>2026-04-11T15:51:27.999Z</time></trkpt><trkpt lat="41.18913597048933" lon="13.830689876158372"><ele>3.5</ele><time>2026-04-11T15:51:28.999Z</time></trkpt><trkpt lat="41.189226516743055" lon="13.830829605402494"><ele>3.25</ele><time>2026-04-11T15:51:29.999Z</time></trkpt><trkpt lat="41.189321044470624" lon="13.83096758194171"><ele>3.0</ele><time>2026-04-11T15:51:30.999Z</time></trkpt><trkpt lat="41.18941445764418" lon="13.831105743640164"><ele>3.0</ele><time>2026-04-11T15:51:31.999Z</time></trkpt><trkpt lat="41.18950849658235" lon="13.831244340552724"><ele>3.0</ele><time>2026-04-11T15:51:32.999Z</time></trkpt><trkpt lat="41.18960039178079" lon="13.831382050478178"><ele>3.0</ele><time>2026-04-11T15:51:34Z</time></trkpt><trkpt lat="41.189691776638504" lon="13.831520952780313"><ele>3.0</ele><time>2026-04-11T15:51:35Z</time></trkpt><trkpt lat="41.189787850224896" lon="13.831667709480781"><ele>3.25</ele><time>2026-04-11T15:51:36Z</time></trkpt><trkpt lat="41.18988517562409" lon="13.831812521337893"><ele>3.5</ele><time>2026-04-11T15:51:37Z</time></trkpt><trkpt lat="41.18997994766865" lon="13.831959711150008"><ele>3.75</ele><time>2026-04-11T15:51:38Z</time></trkpt><trkpt lat="41.19006913837259" lon="13.832099652218597"><ele>4.0</ele><time>2026-04-11T15:51:39Z</time></trkpt><trkpt lat="41.190154822041805" lon="13.83222827350045"><ele>4.0</ele><time>2026-04-11T15:51:40Z</time></trkpt><trkpt lat="41.19024472728515" lon="13.832354365343631"><ele>4.0</ele><time>2026-04-11T15:51:41Z</time></trkpt><trkpt lat="41.19033374752295" lon="13.832478622421727"><ele>4.0</ele><time>2026-04-11T15:51:42Z</time></trkpt><trkpt lat="41.19041995609657" lon="13.832605581183628"><ele>4.0</ele><time>2026-04-11T15:51:43Z</time></trkpt><trkpt lat="41.19050782054222" lon="13.832738175272212"><ele>4.25</ele><time>2026-04-11T15:51:44Z</time></trkpt><trkpt lat="41.19059469339989" lon="13.832871615703231"><ele>4.5</ele><time>2026-04-11T15:51:45Z</time></trkpt><trkpt lat="41.19068638635605" lon="13.833010338948226"><ele>4.75</ele><time>2026-04-11T15:51:46Z</time></trkpt><trkpt lat="41.19077684832564" lon="13.833148032805198"><ele>5.0</ele><time>2026-04-11T15:51:47Z</time></trkpt><trkpt lat="41.190867835294526" lon="13.833283521126049"><ele>5.0</ele><time>2026-04-11T15:51:48Z</time></trkpt><trkpt lat="41.19096575808855" lon="13.833423147039442"><ele>5.0</ele><time>2026-04-11T15:51:49Z</time></trkpt><trkpt lat="41.1910592625245" lon="13.833560693858631"><ele>5.0</ele><time>2026-04-11T15:51:50Z</time></trkpt><trkpt lat="41.191152542826465" lon="13.833704501544005"><ele>5.0</ele><time>2026-04-11T15:51:51Z</time></trkpt><trkpt lat="41.19125022788547" lon="13.833847899413783"><ele>5.0</ele><time>2026-04-11T15:51:52Z</time></trkpt><trkpt lat="41.19133941041373" lon="13.833990418005847"><ele>5.0</ele><time>2026-04-11T15:51:53Z</time></trkpt><trkpt lat="41.19143637510717" lon="13.83413533828426"><ele>5.0</ele><time>2026-04-11T15:51:54Z</time></trkpt><trkpt lat="41.19153471871223" lon="13.834280971264912"><ele>5.0</ele><time>2026-04-11T15:51:55Z</time></trkpt><trkpt lat="41.191632186014864" lon="13.834425354932888"><ele>5.0</ele><time>2026-04-11T15:51:56Z</time></trkpt><trkpt lat="41.19173246600626" lon="13.834571635964835"><ele>5.0</ele><time>2026-04-11T15:51:57Z</time></trkpt><trkpt lat="41.19182843472445" lon="13.834718109093217"><ele>5.0</ele><time>2026-04-11T15:51:58Z</time></trkpt><trkpt lat="41.191928238610366" lon="13.834861717963339"><ele>5.0</ele><time>2026-04-11T15:51:59Z</time></trkpt><trkpt lat="41.19202960575798" lon="13.835011580131404"><ele>5.0</ele><time>2026-04-11T15:52:00Z</time></trkpt><trkpt lat="41.192117741529465" lon="13.835161460740155"><ele>5.0</ele><time>2026-04-11T15:52:01Z</time></trkpt><trkpt lat="41.19221018125578" lon="13.835298900338742"><ele>5.0</ele><time>2026-04-11T15:52:02Z</time></trkpt><trkpt lat="41.192308694997244" lon="13.835443250360248"><ele>5.0</ele><time>2026-04-11T15:52:03Z</time></trkpt><trkpt lat="41.19241415240815" lon="13.835583175349305"><ele>5.0</ele><time>2026-04-11T15:52:04Z</time></trkpt><trkpt lat="41.19251049950808" lon="13.8357208361989"><ele>5.0</ele><time>2026-04-11T15:52:05Z</time></trkpt><trkpt lat="41.19260334960425" lon="13.835863423611979"><ele>5.0</ele><time>2026-04-11T15:52:06Z</time></trkpt><trkpt lat="41.19270230024414" lon="13.836003282132651"><ele>5.0</ele><time>2026-04-11T15:52:07Z</time></trkpt><trkpt lat="41.19280729546839" lon="13.836142247210566"><ele>5.333333333333334</ele><time>2026-04-11T15:52:08Z</time></trkpt><trkpt lat="41.19291169255462" lon="13.836290456389131"><ele>5.666666666666667</ele><time>2026-04-11T15:52:09Z</time></trkpt><trkpt lat="41.193013999868796" lon="13.836433947560263"><ele>6.0</ele><time>2026-04-11T15:52:10Z</time></trkpt><trkpt lat="41.1931122923185" lon="13.836581368589671"><ele>6.0</ele><time>2026-04-11T15:52:11Z</time></trkpt><trkpt lat="41.19320916974006" lon="13.8367286495023"><ele>6.0</ele><time>2026-04-11T15:52:12Z</time></trkpt><trkpt lat="41.19330527743312" lon="13.83687631921997"><ele>6.0</ele><time>2026-04-11T15:52:13Z</time></trkpt><trkpt lat="41.19340451546036" lon="13.83702199614853"><ele>6.0</ele><time>2026-04-11T15:52:14Z</time></trkpt><trkpt lat="41.193494455918" lon="13.837168555659174"><ele>6.25</ele><time>2026-04-11T15:52:15Z</time></trkpt><trkpt lat="41.19359130257367" lon="13.837308967338952"><ele>6.5</ele><time>2026-04-11T15:52:16Z</time></trkpt><trkpt lat="41.19367991736241" lon="13.837442887356255"><ele>6.75</ele><time>2026-04-11T15:52:17Z</time></trkpt><trkpt lat="41.19376946420553" lon="13.83757275842874"><ele>7.0</ele><time>2026-04-11T15:52:18Z</time></trkpt><trkpt lat="41.19385054470528" lon="13.837689500693756"><ele>7.0</ele><time>2026-04-11T15:52:19Z</time></trkpt><trkpt lat="41.193922197559516" lon="13.837797214789447"><ele>6.999999999999999</ele><time>2026-04-11T15:52:20Z</time></trkpt><trkpt lat="41.193997779436444" lon="13.837896904818168"><ele>6.999999999999999</ele><time>2026-04-11T15:52:21Z</time></trkpt><trkpt lat="41.19405416156046" lon="13.837970638859575"><ele>7.0</ele><time>2026-04-11T15:52:22Z</time></trkpt><trkpt lat="41.194092371746066" lon="13.838037601271614"><ele>7.0</ele><time>2026-04-11T15:52:23Z</time></trkpt><trkpt lat="41.194167598176406" lon="13.838135473011548"><ele>7.142857142857142</ele><time>2026-04-11T15:52:25Z</time></trkpt><trkpt lat="41.1942194156582" lon="13.838191129277174"><ele>7.285714285714286</ele><time>2026-04-11T15:52:27Z</time></trkpt><trkpt lat="41.19427923044482" lon="13.838223941737676"><ele>7.428571428571429</ele><time>2026-04-11T15:52:29Z</time></trkpt><trkpt lat="41.19433213752778" lon="13.838277506075066"><ele>7.571428571428571</ele><time>2026-04-11T15:52:31Z</time></trkpt><trkpt lat="41.19437584323112" lon="13.838338025544779"><ele>7.7142857142857135</ele><time>2026-04-11T15:52:33Z</time></trkpt><trkpt lat="41.19439841381687" lon="13.838442416313159"><ele>7.857142857142857</ele><time>2026-04-11T15:52:36Z</time></trkpt><trkpt lat="41.19443775094761" lon="13.838563154205946"><ele>8.0</ele><time>2026-04-11T15:52:38Z</time></trkpt><trkpt lat="41.194328357323926" lon="13.838753408001361"><ele>8.0</ele><time>2026-04-11T15:52:40Z</time></trkpt><trkpt lat="41.194268838326764" lon="13.838826124226538"><ele>8.0</ele><time>2026-04-11T15:52:41Z</time></trkpt><trkpt lat="41.194208402285014" lon="13.838916904309922"><ele>8.0</ele><time>2026-04-11T15:52:42Z</time></trkpt><trkpt lat="41.194142911345814" lon="13.839012241482536"><ele>8.0</ele><time>2026-04-11T15:52:43Z</time></trkpt><trkpt lat="41.19407025069614" lon="13.839121060567606"><ele>8.0</ele><time>2026-04-11T15:52:44Z</time></trkpt><trkpt lat="41.19398753322834" lon="13.83923264123841"><ele>8.0</ele><time>2026-04-11T15:52:45Z</time></trkpt><trkpt lat="41.19391355019702" lon="13.839365951615926"><ele>8.0</ele><time>2026-04-11T15:52:46Z</time></trkpt><trkpt lat="41.19383203184635" lon="13.83949696427482"><ele>8.0</ele><time>2026-04-11T15:52:47Z</time></trkpt><trkpt lat="41.19375431635068" lon="13.8396196336069"><ele>8.0</ele><time>2026-04-11T15:52:48Z</time></trkpt><trkpt lat="41.19367455512599" lon="13.839753315658209"><ele>8.0</ele><time>2026-04-11T15:52:49Z</time></trkpt><trkpt lat="41.19359173907777" lon="13.839886482592002"><ele>8.0</ele><time>2026-04-11T15:52:50Z</time></trkpt><trkpt lat="41.193496850605825" lon="13.840020286756973"><ele>8.0</ele><time>2026-04-11T15:52:51Z</time></trkpt><trkpt lat="41.193417115834215" lon="13.840145080270204"><ele>8.0</ele><time>2026-04-11T15:52:52Z</time></trkpt><trkpt lat="41.19333089583468" lon="13.840280593814718"><ele>8.0</ele><time>2026-04-11T15:52:53Z</time></trkpt><trkpt lat="41.19324779150599" lon="13.84039890850626"><ele>8.0</ele><time>2026-04-11T15:52:54Z</time></trkpt><trkpt lat="41.19316171350762" lon="13.840516156060405"><ele>8.0</ele><time>2026-04-11T15:52:55Z</time></trkpt><trkpt lat="41.1930634987953" lon="13.84064707673758"><ele>8.0</ele><time>2026-04-11T15:52:56Z</time></trkpt><trkpt lat="41.192963984715895" lon="13.840764893359891"><ele>8.25</ele><time>2026-04-11T15:52:57Z</time></trkpt><trkpt lat="41.19287535169046" lon="13.840879990971196"><ele>8.5</ele><time>2026-04-11T15:52:58Z</time></trkpt><trkpt lat="41.19277000081363" lon="13.840985158904086"><ele>8.75</ele><time>2026-04-11T15:52:59Z</time></trkpt><trkpt lat="41.19265674267883" lon="13.841079092952025"><ele>9.0</ele><time>2026-04-11T15:53:00Z</time></trkpt><trkpt lat="41.192536440920726" lon="13.841168284514074"><ele>9.0</ele><time>2026-04-11T15:53:01Z</time></trkpt><trkpt lat="41.19240451330757" lon="13.841257610545927"><ele>9.0</ele><time>2026-04-11T15:53:02Z</time></trkpt><trkpt lat="41.19227356538628" lon="13.841326415845602"><ele>9.0</ele><time>2026-04-11T15:53:03Z</time></trkpt><trkpt lat="41.19213590010665" lon="13.841393503230409"><ele>9.0</ele><time>2026-04-11T15:53:04Z</time></trkpt><trkpt lat="41.19200904628365" lon="13.841450779532435"><ele>8.75</ele><time>2026-04-11T15:53:05Z</time></trkpt><trkpt lat="41.19186590460518" lon="13.841511778718434"><ele>8.5</ele><time>2026-04-11T15:53:06Z</time></trkpt><trkpt lat="41.19171977568327" lon="13.841567900425334"><ele>8.25</ele><time>2026-04-11T15:53:07Z</time></trkpt><trkpt lat="41.19157928222587" lon="13.841621839191056"><ele>8.0</ele><time>2026-04-11T15:53:08Z</time></trkpt><trkpt lat="41.19142459381965" lon="13.841679028056518"><ele>8.0</ele><time>2026-04-11T15:53:09Z</time></trkpt><trkpt lat="41.191281839191056" lon="13.841740893187744"><ele>8.0</ele><time>2026-04-11T15:53:10Z</time></trkpt><trkpt lat="41.19113636927378" lon="13.841801403472273"><ele>8.0</ele><time>2026-04-11T15:53:11Z</time></trkpt><trkpt lat="41.19099502892986" lon="13.841860664170248"><ele>8.0</ele><time>2026-04-11T15:53:12Z</time></trkpt><trkpt lat="41.19083441744275" lon="13.841928728605664"><ele>8.0</ele><time>2026-04-11T15:53:13Z</time></trkpt><trkpt lat="41.190685352358535" lon="13.841991027490469"><ele>8.0</ele><time>2026-04-11T15:53:14Z</time></trkpt><trkpt lat="41.19053702166968" lon="13.842053339571757"><ele>7.666666666666666</ele><time>2026-04-11T15:53:15Z</time></trkpt><trkpt lat="41.190390206468656" lon="13.842119524960765"><ele>7.333333333333334</ele><time>2026-04-11T15:53:16Z</time></trkpt><trkpt lat="41.19023552030134" lon="13.842197013298815"><ele>7.0</ele><time>2026-04-11T15:53:17Z</time></trkpt><trkpt lat="41.19009161319014" lon="13.842266787230136"><ele>7.0</ele><time>2026-04-11T15:53:18Z</time></trkpt><trkpt lat="41.189938072103125" lon="13.84233275977069"><ele>7.0</ele><time>2026-04-11T15:53:19Z</time></trkpt><trkpt lat="41.18978614597849" lon="13.842408392655615"><ele>7.0</ele><time>2026-04-11T15:53:19.999Z</time></trkpt><trkpt lat="41.189632051534005" lon="13.842482796747076"><ele>6.666666666666667</ele><time>2026-04-11T15:53:20.999Z</time></trkpt><trkpt lat="41.189471462510745" lon="13.842555165255433"><ele>6.333333333333334</ele><time>2026-04-11T15:53:21.999Z</time></trkpt><trkpt lat="41.18932489694547" lon="13.842624544326076"><ele>6.0</ele><time>2026-04-11T15:53:22.999Z</time></trkpt><trkpt lat="41.18917344127068" lon="13.842696120845295"><ele>7.0</ele><time>2026-04-11T15:53:23.999Z</time></trkpt><trkpt lat="41.18902298457021" lon="13.842769189868681"><ele>8.0</ele><time>2026-04-11T15:53:24.999Z</time></trkpt><trkpt lat="41.18886999941744" lon="13.84283887952407"><ele>9.0</ele><time>2026-04-11T15:53:25.999Z</time></trkpt><trkpt lat="41.18871994901245" lon="13.842909531944475"><ele>9.0</ele><time>2026-04-11T15:53:26.999Z</time></trkpt><trkpt lat="41.188572489936654" lon="13.842973498466216"><ele>9.0</ele><time>2026-04-11T15:53:27.999Z</time></trkpt><trkpt lat="41.18842852432288" lon="13.843039746129124"><ele>9.0</ele><time>2026-04-11T15:53:28.999Z</time></trkpt><trkpt lat="41.18829456254024" lon="13.843104027031291"><ele>8.75</ele><time>2026-04-11T15:53:29.999Z</time></trkpt><trkpt lat="41.18816038602355" lon="13.843170856468348"><ele>8.5</ele><time>2026-04-11T15:53:30.999Z</time></trkpt><trkpt lat="41.18802922519359" lon="13.843234326953665"><ele>8.25</ele><time>2026-04-11T15:53:31.999Z</time></trkpt><trkpt lat="41.187898072537955" lon="13.843299991613959"><ele>8.0</ele><time>2026-04-11T15:53:32.999Z</time></trkpt><trkpt lat="41.187766382376246" lon="13.843364000710856"><ele>8.0</ele><time>2026-04-11T15:53:33.999Z</time></trkpt><trkpt lat="41.18763880506497" lon="13.843419812438496"><ele>8.0</ele><time>2026-04-11T15:53:34.999Z</time></trkpt><trkpt lat="41.1875233665507" lon="13.843480061330455"><ele>8.0</ele><time>2026-04-11T15:53:35.999Z</time></trkpt><trkpt lat="41.187407897708496" lon="13.843541917791745"><ele>8.0</ele><time>2026-04-11T15:53:36.999Z</time></trkpt><trkpt lat="41.187291610612405" lon="13.84361701347945"><ele>7.75</ele><time>2026-04-11T15:53:37.999Z</time></trkpt><trkpt lat="41.18717972083368" lon="13.84369775148111"><ele>7.5</ele><time>2026-04-11T15:53:38.999Z</time></trkpt><trkpt lat="41.18706206914079" lon="13.843797831228613"><ele>7.25</ele><time>2026-04-11T15:53:40Z</time></trkpt><trkpt lat="41.18693286961122" lon="13.843911867055565"><ele>7.0</ele><time>2026-04-11T15:53:41Z</time></trkpt><trkpt lat="41.18680591798186" lon="13.844034858867124"><ele>7.0</ele><time>2026-04-11T15:53:42Z</time></trkpt><trkpt lat="41.18667332195403" lon="13.844170964837348"><ele>7.0</ele><time>2026-04-11T15:53:43Z</time></trkpt><trkpt lat="41.18653669957455" lon="13.844305731463091"><ele>7.0</ele><time>2026-04-11T15:53:44Z</time></trkpt><trkpt lat="41.18639050598195" lon="13.844439962168487"><ele>7.333333333333334</ele><time>2026-04-11T15:53:45Z</time></trkpt><trkpt lat="41.18624433297858" lon="13.844562926003471"><ele>7.666666666666666</ele><time>2026-04-11T15:53:46Z</time></trkpt><trkpt lat="41.18610711522583" lon="13.844688840627354"><ele>8.0</ele><time>2026-04-11T15:53:47Z</time></trkpt><trkpt lat="41.18598168716443" lon="13.844805364832705"><ele>8.0</ele><time>2026-04-11T15:53:48Z</time></trkpt><trkpt lat="41.18585913147696" lon="13.844922499973226"><ele>8.0</ele><time>2026-04-11T15:53:49Z</time></trkpt><trkpt lat="41.18573862839608" lon="13.845040598242358"><ele>8.0</ele><time>2026-04-11T15:53:50Z</time></trkpt><trkpt lat="41.185618257988786" lon="13.845156077535142"><ele>8.0</ele><time>2026-04-11T15:53:51Z</time></trkpt><trkpt lat="41.18549515546682" lon="13.845271349576842"><ele>7.666666666666666</ele><time>2026-04-11T15:53:52Z</time></trkpt><trkpt lat="41.18537159533515" lon="13.845392030449226"><ele>7.333333333333334</ele><time>2026-04-11T15:53:53Z</time></trkpt><trkpt lat="41.18525029525587" lon="13.845509292683145"><ele>7.0</ele><time>2026-04-11T15:53:54Z</time></trkpt><trkpt lat="41.18512287286278" lon="13.845630785147286"><ele>7.0</ele><time>2026-04-11T15:53:55Z</time></trkpt><trkpt lat="41.18499291683761" lon="13.845755781216461"><ele>7.0</ele><time>2026-04-11T15:53:56Z</time></trkpt><trkpt lat="41.184873613031996" lon="13.845873894938743"><ele>7.0</ele><time>2026-04-11T15:53:57Z</time></trkpt><trkpt lat="41.18474573179564" lon="13.845999740421643"><ele>6.666666666666667</ele><time>2026-04-11T15:53:58Z</time></trkpt><trkpt lat="41.18461519529963" lon="13.846121319829084"><ele>6.333333333333334</ele><time>2026-04-11T15:53:59Z</time></trkpt><trkpt lat="41.18448270291006" lon="13.846245285931722"><ele>6.0</ele><time>2026-04-11T15:54:00Z</time></trkpt><trkpt lat="41.184349965541735" lon="13.846375886899644"><ele>6.0</ele><time>2026-04-11T15:54:01Z</time></trkpt><trkpt lat="41.18421228516178" lon="13.846508963813756"><ele>6.0</ele><time>2026-04-11T15:54:02Z</time></trkpt><trkpt lat="41.18407530490856" lon="13.84664052621145"><ele>6.0</ele><time>2026-04-11T15:54:03Z</time></trkpt><trkpt lat="41.183936312295934" lon="13.846771054448036"><ele>6.666666666666666</ele><time>2026-04-11T15:54:04Z</time></trkpt><trkpt lat="41.18379695446616" lon="13.8469023010174"><ele>7.333333333333333</ele><time>2026-04-11T15:54:05Z</time></trkpt><trkpt lat="41.1836532018003" lon="13.847037812087594"><ele>8.0</ele><time>2026-04-11T15:54:06Z</time></trkpt><trkpt lat="41.1835148063767" lon="13.847169312433987"><ele>8.0</ele><time>2026-04-11T15:54:07Z</time></trkpt><trkpt lat="41.1833730872137" lon="13.84730352272956"><ele>8.0</ele><time>2026-04-11T15:54:08Z</time></trkpt><trkpt lat="41.18323209343108" lon="13.847443516514783"><ele>8.0</ele><time>2026-04-11T15:54:09Z</time></trkpt><trkpt lat="41.183088253794935" lon="13.847580174921818"><ele>8.333333333333332</ele><time>2026-04-11T15:54:10Z</time></trkpt><trkpt lat="41.18295206267153" lon="13.847718277722567"><ele>8.666666666666666</ele><time>2026-04-11T15:54:11Z</time></trkpt><trkpt lat="41.18281066501983" lon="13.847851454983385"><ele>9.0</ele><time>2026-04-11T15:54:12Z</time></trkpt><trkpt lat="41.18266519087596" lon="13.847983891195756"><ele>9.0</ele><time>2026-04-11T15:54:13Z</time></trkpt><trkpt lat="41.18252550437988" lon="13.848116187512398"><ele>9.0</ele><time>2026-04-11T15:54:14Z</time></trkpt><trkpt lat="41.18238863828747" lon="13.848249691135372"><ele>9.0</ele><time>2026-04-11T15:54:15Z</time></trkpt><trkpt lat="41.18225216837529" lon="13.848382054116017"><ele>8.666666666666666</ele><time>2026-04-11T15:54:16Z</time></trkpt><trkpt lat="41.182116179556346" lon="13.848515327353702"><ele>8.333333333333332</ele><time>2026-04-11T15:54:17Z</time></trkpt><trkpt lat="41.18197935024247" lon="13.84864836937526"><ele>8.0</ele><time>2026-04-11T15:54:18Z</time></trkpt><trkpt lat="41.18184692952365" lon="13.848774797757368"><ele>8.0</ele><time>2026-04-11T15:54:19Z</time></trkpt><trkpt lat="41.18170605806894" lon="13.84890522680716"><ele>8.0</ele><time>2026-04-11T15:54:20Z</time></trkpt><trkpt lat="41.181574936197734" lon="13.849035238870409"><ele>8.0</ele><time>2026-04-11T15:54:21Z</time></trkpt><trkpt lat="41.181443481513" lon="13.849169415598142"><ele>8.0</ele><time>2026-04-11T15:54:22Z</time></trkpt><trkpt lat="41.181307798713725" lon="13.849296238180317"><ele>8.0</ele><time>2026-04-11T15:54:23Z</time></trkpt><trkpt lat="41.18117040110973" lon="13.849426850637105"><ele>8.0</ele><time>2026-04-11T15:54:24Z</time></trkpt><trkpt lat="41.18103826484806" lon="13.849556141371233"><ele>8.0</ele><time>2026-04-11T15:54:25Z</time></trkpt><trkpt lat="41.180898186153364" lon="13.84969075013481"><ele>8.0</ele><time>2026-04-11T15:54:26Z</time></trkpt><trkpt lat="41.18076224036069" lon="13.84982398005013"><ele>8.0</ele><time>2026-04-11T15:54:27Z</time></trkpt><trkpt lat="41.180622295983895" lon="13.849958769386609"><ele>7.666666666666666</ele><time>2026-04-11T15:54:28Z</time></trkpt><trkpt lat="41.18048798831219" lon="13.850090228263813"><ele>7.333333333333334</ele><time>2026-04-11T15:54:29Z</time></trkpt><trkpt lat="41.18035323884458" lon="13.850224490760514"><ele>7.0</ele><time>2026-04-11T15:54:30Z</time></trkpt><trkpt lat="41.180220367631904" lon="13.850359144698695"><ele>7.0</ele><time>2026-04-11T15:54:31Z</time></trkpt><trkpt lat="41.1800810962382" lon="13.850494974949239"><ele>7.0</ele><time>2026-04-11T15:54:32Z</time></trkpt><trkpt lat="41.17993603691461" lon="13.850632052231994"><ele>7.0</ele><time>2026-04-11T15:54:33Z</time></trkpt><trkpt lat="41.17979379249694" lon="13.850769666492813"><ele>7.333333333333334</ele><time>2026-04-11T15:54:34Z</time></trkpt><trkpt lat="41.17965517664765" lon="13.850899434560702"><ele>7.666666666666666</ele><time>2026-04-11T15:54:35Z</time></trkpt><trkpt lat="41.17951669484036" lon="13.851031919221299"><ele>8.0</ele><time>2026-04-11T15:54:36Z</time></trkpt><trkpt lat="41.17938813814965" lon="13.851162600023976"><ele>9.0</ele><time>2026-04-11T15:54:37Z</time></trkpt><trkpt lat="41.17925267710956" lon="13.851297712748421"><ele>10.0</ele><time>2026-04-11T15:54:38Z</time></trkpt><trkpt lat="41.179113710728686" lon="13.85143576292046"><ele>11.0</ele><time>2026-04-11T15:54:39Z</time></trkpt><trkpt lat="41.17897044457484" lon="13.851568950380512"><ele>11.0</ele><time>2026-04-11T15:54:40Z</time></trkpt><trkpt lat="41.17882930009366" lon="13.85170474035253"><ele>11.0</ele><time>2026-04-11T15:54:41Z</time></trkpt><trkpt lat="41.17868828267152" lon="13.851836314766063"><ele>11.0</ele><time>2026-04-11T15:54:42Z</time></trkpt><trkpt lat="41.1785478538481" lon="13.851972098693288"><ele>10.666666666666666</ele><time>2026-04-11T15:54:43Z</time></trkpt><trkpt lat="41.17840932508114" lon="13.852111286950034"><ele>10.333333333333334</ele><time>2026-04-11T15:54:44Z</time></trkpt><trkpt lat="41.1782676184048" lon="13.852253965210096"><ele>10.0</ele><time>2026-04-11T15:54:45Z</time></trkpt><trkpt lat="41.178124864073105" lon="13.852393133181264"><ele>10.0</ele><time>2026-04-11T15:54:46Z</time></trkpt><trkpt lat="41.17798244791754" lon="13.852538532285655"><ele>10.0</ele><time>2026-04-11T15:54:47Z</time></trkpt><trkpt lat="41.177838367180726" lon="13.852679329907899"><ele>10.0</ele><time>2026-04-11T15:54:48Z</time></trkpt><trkpt lat="41.177694368044975" lon="13.852815709606539"><ele>10.666666666666668</ele><time>2026-04-11T15:54:49Z</time></trkpt><trkpt lat="41.1775510133431" lon="13.852953117281972"><ele>11.333333333333334</ele><time>2026-04-11T15:54:50Z</time></trkpt><trkpt lat="41.17740786561372" lon="13.853088453756499"><ele>12.0</ele><time>2026-04-11T15:54:51Z</time></trkpt><trkpt lat="41.17726723065852" lon="13.853222963155115"><ele>12.0</ele><time>2026-04-11T15:54:52Z</time></trkpt><trkpt lat="41.17712662594587" lon="13.853354383456173"><ele>12.0</ele><time>2026-04-11T15:54:53Z</time></trkpt><trkpt lat="41.17698531203915" lon="13.853486178692398"><ele>12.0</ele><time>2026-04-11T15:54:54Z</time></trkpt><trkpt lat="41.176847486759556" lon="13.853617819683677"><ele>12.0</ele><time>2026-04-11T15:54:55Z</time></trkpt><trkpt lat="41.176708875736296" lon="13.853755540747809"><ele>12.0</ele><time>2026-04-11T15:54:56Z</time></trkpt><trkpt lat="41.17656921046456" lon="13.853887495510754"><ele>12.0</ele><time>2026-04-11T15:54:57Z</time></trkpt><trkpt lat="41.176429369950604" lon="13.85402364951473"><ele>11.666666666666666</ele><time>2026-04-11T15:54:58Z</time></trkpt><trkpt lat="41.17628927543844" lon="13.854162113128224"><ele>11.333333333333332</ele><time>2026-04-11T15:54:59Z</time></trkpt><trkpt lat="41.176148660413375" lon="13.854298096692057"><ele>11.0</ele><time>2026-04-11T15:55:00Z</time></trkpt><trkpt lat="41.17600888533473" lon="13.854436028479373"><ele>11.0</ele><time>2026-04-11T15:55:01Z</time></trkpt><trkpt lat="41.175869906163015" lon="13.854574063209665"><ele>11.0</ele><time>2026-04-11T15:55:02Z</time></trkpt><trkpt lat="41.175732595725954" lon="13.854705264740554"><ele>11.0</ele><time>2026-04-11T15:55:03Z</time></trkpt><trkpt lat="41.17559302056444" lon="13.854838328496214"><ele>10.666666666666666</ele><time>2026-04-11T15:55:04Z</time></trkpt><trkpt lat="41.17545039628355" lon="13.854967973968222"><ele>10.333333333333334</ele><time>2026-04-11T15:55:05Z</time></trkpt><trkpt lat="41.17530942049851" lon="13.855101040800271"><ele>10.0</ele><time>2026-04-11T15:55:06Z</time></trkpt><trkpt lat="41.17517075264357" lon="13.855230848841234"><ele>10.0</ele><time>2026-04-11T15:55:07Z</time></trkpt><trkpt lat="41.17503385111556" lon="13.855359163489089"><ele>10.0</ele><time>2026-04-11T15:55:08Z</time></trkpt><trkpt lat="41.1748997725623" lon="13.855478952685878"><ele>10.0</ele><time>2026-04-11T15:55:09Z</time></trkpt><trkpt lat="41.17476784102073" lon="13.855600726981178"><ele>10.0</ele><time>2026-04-11T15:55:10Z</time></trkpt><trkpt lat="41.17463418973346" lon="13.855705785776225"><ele>10.0</ele><time>2026-04-11T15:55:11Z</time></trkpt><trkpt lat="41.17449500715909" lon="13.855801469750029"><ele>10.0</ele><time>2026-04-11T15:55:12Z</time></trkpt><trkpt lat="41.174351876359964" lon="13.855880910962664"><ele>10.333333333333334</ele><time>2026-04-11T15:55:13Z</time></trkpt><trkpt lat="41.17420758686889" lon="13.8559558972357"><ele>10.666666666666666</ele><time>2026-04-11T15:55:14Z</time></trkpt><trkpt lat="41.17405785247823" lon="13.856018414142971"><ele>11.0</ele><time>2026-04-11T15:55:15Z</time></trkpt><trkpt lat="41.17391279379175" lon="13.856068124318604"><ele>11.0</ele><time>2026-04-11T15:55:16Z</time></trkpt><trkpt lat="41.173752721942535" lon="13.856112541472523"><ele>11.0</ele><time>2026-04-11T15:55:17Z</time></trkpt><trkpt lat="41.17359168568558" lon="13.856145609219675"><ele>11.0</ele><time>2026-04-11T15:55:18Z</time></trkpt><trkpt lat="41.173431681182684" lon="13.856163674002772"><ele>11.0</ele><time>2026-04-11T15:55:19Z</time></trkpt><trkpt lat="41.173270010036596" lon="13.856178109369047"><ele>11.0</ele><time>2026-04-11T15:55:20Z</time></trkpt><trkpt lat="41.17310488031563" lon="13.856177903237082"><ele>11.0</ele><time>2026-04-11T15:55:21Z</time></trkpt><trkpt lat="41.172936050742855" lon="13.856167592632096"><ele>10.666666666666666</ele><time>2026-04-11T15:55:22Z</time></trkpt><trkpt lat="41.17275140682818" lon="13.856152933862381"><ele>10.333333333333334</ele><time>2026-04-11T15:55:23Z</time></trkpt><trkpt lat="41.17255418987325" lon="13.856130897141325"><ele>10.0</ele><time>2026-04-11T15:55:24Z</time></trkpt><trkpt lat="41.17235332585474" lon="13.856105781097433"><ele>10.0</ele><time>2026-04-11T15:55:25Z</time></trkpt><trkpt lat="41.17215874062872" lon="13.856075169692833"><ele>10.0</ele><time>2026-04-11T15:55:25.999Z</time></trkpt><trkpt lat="41.17195774673797" lon="13.856043849431208"><ele>10.0</ele><time>2026-04-11T15:55:26.999Z</time></trkpt><trkpt lat="41.171757358603024" lon="13.856013798914816"><ele>10.0</ele><time>2026-04-11T15:55:27.999Z</time></trkpt><trkpt lat="41.17156697648185" lon="13.85596276277982"><ele>10.0</ele><time>2026-04-11T15:55:28.999Z</time></trkpt><trkpt lat="41.17138841726625" lon="13.855932586544073"><ele>10.0</ele><time>2026-04-11T15:55:29.999Z</time></trkpt><trkpt lat="41.17121042832751" lon="13.85590250667359"><ele>10.0</ele><time>2026-04-11T15:55:30.999Z</time></trkpt><trkpt lat="41.171030366333795" lon="13.855872067127013"><ele>10.0</ele><time>2026-04-11T15:55:31.999Z</time></trkpt><trkpt lat="41.170864362948194" lon="13.855844001878031"><ele>10.0</ele><time>2026-04-11T15:55:32.999Z</time></trkpt><trkpt lat="41.17068126903565" lon="13.855813047235731"><ele>9.666666666666668</ele><time>2026-04-11T15:55:33.999Z</time></trkpt><trkpt lat="41.17049140115516" lon="13.855779334166723"><ele>9.333333333333334</ele><time>2026-04-11T15:55:34.999Z</time></trkpt><trkpt lat="41.170285120417525" lon="13.855750322166404"><ele>9.0</ele><time>2026-04-11T15:55:35.999Z</time></trkpt><trkpt lat="41.17009452374242" lon="13.855721618781661"><ele>9.0</ele><time>2026-04-11T15:55:36.999Z</time></trkpt><trkpt lat="41.16990009952253" lon="13.855681283817997"><ele>9.0</ele><time>2026-04-11T15:55:37.999Z</time></trkpt><trkpt lat="41.1697055136498" lon="13.855635980489279"><ele>9.0</ele><time>2026-04-11T15:55:39Z</time></trkpt><trkpt lat="41.169508225178355" lon="13.855591470901054"><ele>9.333333333333334</ele><time>2026-04-11T15:55:40Z</time></trkpt><trkpt lat="41.1693115672832" lon="13.85554605839151"><ele>9.666666666666668</ele><time>2026-04-11T15:55:41Z</time></trkpt><trkpt lat="41.16911662661482" lon="13.85550699487571"><ele>10.0</ele><time>2026-04-11T15:55:42Z</time></trkpt><trkpt lat="41.168923305874145" lon="13.855467788656593"><ele>10.0</ele><time>2026-04-11T15:55:43Z</time></trkpt><trkpt lat="41.16872899352312" lon="13.855428635651391"><ele>10.0</ele><time>2026-04-11T15:55:44Z</time></trkpt><trkpt lat="41.168535227220644" lon="13.855385225211224"><ele>10.0</ele><time>2026-04-11T15:55:45Z</time></trkpt><trkpt lat="41.16834082392662" lon="13.855345105506329"><ele>9.666666666666668</ele><time>2026-04-11T15:55:46Z</time></trkpt><trkpt lat="41.16815167176613" lon="13.85530659742148"><ele>9.333333333333334</ele><time>2026-04-11T15:55:47Z</time></trkpt><trkpt lat="41.16796071362266" lon="13.855283746725929"><ele>9.0</ele><time>2026-04-11T15:55:48Z</time></trkpt><trkpt lat="41.16777011442744" lon="13.855273133135045"><ele>9.0</ele><time>2026-04-11T15:55:49Z</time></trkpt><trkpt lat="41.1675844862485" lon="13.855258692701003"><ele>9.0</ele><time>2026-04-11T15:55:50Z</time></trkpt><trkpt lat="41.167411516269425" lon="13.85522211624999"><ele>9.0</ele><time>2026-04-11T15:55:51Z</time></trkpt><trkpt lat="41.167221715965454" lon="13.855183564023918"><ele>9.0</ele><time>2026-04-11T15:55:52Z</time></trkpt><trkpt lat="41.16704407585596" lon="13.855149433418985"><ele>9.0</ele><time>2026-04-11T15:55:53Z</time></trkpt><trkpt lat="41.16686132029798" lon="13.855119426347375"><ele>9.0</ele><time>2026-04-11T15:55:54Z</time></trkpt><trkpt lat="41.166677703575914" lon="13.855089382078871"><ele>9.333333333333334</ele><time>2026-04-11T15:55:55Z</time></trkpt><trkpt lat="41.16649825380007" lon="13.85506019717017"><ele>9.666666666666668</ele><time>2026-04-11T15:55:56Z</time></trkpt><trkpt lat="41.166324368869795" lon="13.855034133879805"><ele>10.0</ele><time>2026-04-11T15:55:57Z</time></trkpt><trkpt lat="41.16614874683222" lon="13.855002533322503"><ele>10.0</ele><time>2026-04-11T15:55:58Z</time></trkpt><trkpt lat="41.165988588952395" lon="13.85497127886572"><ele>10.0</ele><time>2026-04-11T15:55:59Z</time></trkpt><trkpt lat="41.16581455425752" lon="13.854950376792258"><ele>10.0</ele><time>2026-04-11T15:56:00Z</time></trkpt><trkpt lat="41.16564491672668" lon="13.854925457564118"><ele>10.0</ele><time>2026-04-11T15:56:01Z</time></trkpt><trkpt lat="41.16547392051451" lon="13.854910009579509"><ele>10.0</ele><time>2026-04-11T15:56:02Z</time></trkpt><trkpt lat="41.16530263665644" lon="13.854880195363034"><ele>10.0</ele><time>2026-04-11T15:56:03Z</time></trkpt><trkpt lat="41.165127007212185" lon="13.854852656819126"><ele>10.0</ele><time>2026-04-11T15:56:04Z</time></trkpt><trkpt lat="41.16494725736062" lon="13.854810470932204"><ele>10.0</ele><time>2026-04-11T15:56:05Z</time></trkpt><trkpt lat="41.16478193630505" lon="13.854772622743148"><ele>10.0</ele><time>2026-04-11T15:56:06Z</time></trkpt><trkpt lat="41.164615909674716" lon="13.854745872136164"><ele>10.0</ele><time>2026-04-11T15:56:07Z</time></trkpt><trkpt lat="41.16444671015884" lon="13.85471461143492"><ele>10.0</ele><time>2026-04-11T15:56:08Z</time></trkpt><trkpt lat="41.164270026425775" lon="13.854690443380244"><ele>10.0</ele><time>2026-04-11T15:56:09Z</time></trkpt><trkpt lat="41.164102931461244" lon="13.854661617010832"><ele>10.0</ele><time>2026-04-11T15:56:10Z</time></trkpt><trkpt lat="41.163938171605416" lon="13.854631073388566"><ele>10.0</ele><time>2026-04-11T15:56:11Z</time></trkpt><trkpt lat="41.16377606157096" lon="13.854603343152487"><ele>10.0</ele><time>2026-04-11T15:56:12Z</time></trkpt><trkpt lat="41.16361740609047" lon="13.854585397748952"><ele>10.0</ele><time>2026-04-11T15:56:13Z</time></trkpt><trkpt lat="41.1634729744842" lon="13.85454032549774"><ele>10.0</ele><time>2026-04-11T15:56:14Z</time></trkpt><trkpt lat="41.16331848218823" lon="13.854515784453593"><ele>10.0</ele><time>2026-04-11T15:56:15Z</time></trkpt><trkpt lat="41.1631581149295" lon="13.854497018126816"><ele>9.666666666666668</ele><time>2026-04-11T15:56:16Z</time></trkpt><trkpt lat="41.163003616104746" lon="13.854476085158781"><ele>9.333333333333334</ele><time>2026-04-11T15:56:17Z</time></trkpt><trkpt lat="41.16284802774538" lon="13.8544489005443"><ele>9.0</ele><time>2026-04-11T15:56:18Z</time></trkpt><trkpt lat="41.16268632535839" lon="13.854432405943747"><ele>9.0</ele><time>2026-04-11T15:56:19Z</time></trkpt><trkpt lat="41.162538581020286" lon="13.85441019450178"><ele>9.0</ele><time>2026-04-11T15:56:20Z</time></trkpt><trkpt lat="41.1623920342045" lon="13.854380640920697"><ele>9.0</ele><time>2026-04-11T15:56:21Z</time></trkpt><trkpt lat="41.16223374634041" lon="13.854361892449898"><ele>9.75</ele><time>2026-04-11T15:56:22Z</time></trkpt><trkpt lat="41.16208886300523" lon="13.85433319943545"><ele>10.5</ele><time>2026-04-11T15:56:23Z</time></trkpt><trkpt lat="41.16194183667745" lon="13.85430329310395"><ele>11.25</ele><time>2026-04-11T15:56:24Z</time></trkpt><trkpt lat="41.161793504825106" lon="13.854284891523534"><ele>12.0</ele><time>2026-04-11T15:56:25Z</time></trkpt><trkpt lat="41.16164695164985" lon="13.854264894765244"><ele>11.75</ele><time>2026-04-11T15:56:26Z</time></trkpt><trkpt lat="41.16150426199472" lon="13.854239458881327"><ele>11.5</ele><time>2026-04-11T15:56:27Z</time></trkpt><trkpt lat="41.16135569804243" lon="13.8542173585675"><ele>11.25</ele><time>2026-04-11T15:56:28Z</time></trkpt><trkpt lat="41.16120880334393" lon="13.85419611531138"><ele>11.0</ele><time>2026-04-11T15:56:29Z</time></trkpt><trkpt lat="41.16106817892595" lon="13.854176967973267"><ele>11.0</ele><time>2026-04-11T15:56:30Z</time></trkpt><trkpt lat="41.16093578393004" lon="13.854153526794207"><ele>11.0</ele><time>2026-04-11T15:56:31Z</time></trkpt><trkpt lat="41.1608185368175" lon="13.854131298808385"><ele>11.0</ele><time>2026-04-11T15:56:32Z</time></trkpt><trkpt lat="41.160705406547905" lon="13.854112335942219"><ele>11.0</ele><time>2026-04-11T15:56:33Z</time></trkpt><trkpt lat="41.16059681946801" lon="13.85409440838222"><ele>10.8</ele><time>2026-04-11T15:56:34Z</time></trkpt><trkpt lat="41.16049635377686" lon="13.854074193978732"><ele>10.600000000000001</ele><time>2026-04-11T15:56:35Z</time></trkpt><trkpt lat="41.16040674030264" lon="13.854040984138596"><ele>10.4</ele><time>2026-04-11T15:56:36Z</time></trkpt><trkpt lat="41.16033646194479" lon="13.853970936258879"><ele>10.2</ele><time>2026-04-11T15:56:37Z</time></trkpt><trkpt lat="41.16025937106732" lon="13.853887920700771"><ele>10.0</ele><time>2026-04-11T15:56:38Z</time></trkpt><trkpt lat="41.16016594213206" lon="13.853830157276109"><ele>10.0</ele><time>2026-04-11T15:56:39Z</time></trkpt><trkpt lat="41.16005874264147" lon="13.85380726320474"><ele>10.0</ele><time>2026-04-11T15:56:40Z</time></trkpt><trkpt lat="41.15992926665948" lon="13.853814952243726"><ele>10.0</ele><time>2026-04-11T15:56:41Z</time></trkpt><trkpt lat="41.159801015324184" lon="13.853818080747542"><ele>10.0</ele><time>2026-04-11T15:56:42Z</time></trkpt><trkpt lat="41.15967162446179" lon="13.853803792729108"><ele>10.25</ele><time>2026-04-11T15:56:43Z</time></trkpt><trkpt lat="41.15952454053079" lon="13.853752094307893"><ele>10.5</ele><time>2026-04-11T15:56:44Z</time></trkpt><trkpt lat="41.15939376124627" lon="13.853687797512041"><ele>10.75</ele><time>2026-04-11T15:56:45Z</time></trkpt><trkpt lat="41.15926137944718" lon="13.853603534088977"><ele>11.0</ele><time>2026-04-11T15:56:46Z</time></trkpt><trkpt lat="41.15911313286773" lon="13.853515930462892"><ele>10.666666666666666</ele><time>2026-04-11T15:56:47Z</time></trkpt><trkpt lat="41.15896070046913" lon="13.85342881686231"><ele>10.333333333333334</ele><time>2026-04-11T15:56:48Z</time></trkpt><trkpt lat="41.158804980375756" lon="13.853340885634617"><ele>10.0</ele><time>2026-04-11T15:56:49Z</time></trkpt><trkpt lat="41.15863811938248" lon="13.85324871781169"><ele>10.0</ele><time>2026-04-11T15:56:50Z</time></trkpt><trkpt lat="41.15848042329411" lon="13.853161752118524"><ele>10.0</ele><time>2026-04-11T15:56:51Z</time></trkpt><trkpt lat="41.15832111632821" lon="13.853063415724787"><ele>10.0</ele><time>2026-04-11T15:56:52Z</time></trkpt><trkpt lat="41.158169646770524" lon="13.852968919314902"><ele>12.0</ele><time>2026-04-11T15:56:53Z</time></trkpt><trkpt lat="41.1579934781418" lon="13.852878292801124"><ele>14.0</ele><time>2026-04-11T15:56:54Z</time></trkpt><trkpt lat="41.15783135488227" lon="13.852779912619315"><ele>16.0</ele><time>2026-04-11T15:56:55Z</time></trkpt><trkpt lat="41.15766691769707" lon="13.852684122597964"><ele>15.333333333333332</ele><time>2026-04-11T15:56:56Z</time></trkpt><trkpt lat="41.157504421096206" lon="13.85258829799345"><ele>14.666666666666668</ele><time>2026-04-11T15:56:57Z</time></trkpt><trkpt lat="41.1573323722572" lon="13.852482316028995"><ele>14.0</ele><time>2026-04-11T15:56:58Z</time></trkpt><trkpt lat="41.157158569017405" lon="13.852384974426403"><ele>14.0</ele><time>2026-04-11T15:56:59Z</time></trkpt><trkpt lat="41.15698548774198" lon="13.852288241200577"><ele>14.0</ele><time>2026-04-11T15:57:00Z</time></trkpt><trkpt lat="41.15681609499222" lon="13.852190227613725"><ele>14.0</ele><time>2026-04-11T15:57:01Z</time></trkpt><trkpt lat="41.15664316341999" lon="13.852096977498162"><ele>15.333333333333334</ele><time>2026-04-11T15:57:02Z</time></trkpt><trkpt lat="41.15646760224946" lon="13.851998922883732"><ele>16.666666666666668</ele><time>2026-04-11T15:57:03Z</time></trkpt><trkpt lat="41.1562835979971" lon="13.851900978446485"><ele>18.0</ele><time>2026-04-11T15:57:04Z</time></trkpt><trkpt lat="41.15611445076537" lon="13.85180302544641"><ele>15.333333333333334</ele><time>2026-04-11T15:57:05Z</time></trkpt><trkpt lat="41.155940602267144" lon="13.85171214655356"><ele>12.666666666666668</ele><time>2026-04-11T15:57:06Z</time></trkpt><trkpt lat="41.15576238638951" lon="13.85162422224938"><ele>10.0</ele><time>2026-04-11T15:57:07Z</time></trkpt><trkpt lat="41.15557736687138" lon="13.851558480722453"><ele>10.0</ele><time>2026-04-11T15:57:08Z</time></trkpt><trkpt lat="41.15538644755883" lon="13.851498937037547"><ele>10.0</ele><time>2026-04-11T15:57:09Z</time></trkpt><trkpt lat="41.155201589883546" lon="13.85144303140439"><ele>10.0</ele><time>2026-04-11T15:57:10Z</time></trkpt><trkpt lat="41.15501051404945" lon="13.851402467124299"><ele>10.333333333333334</ele><time>2026-04-11T15:57:11Z</time></trkpt><trkpt lat="41.15482606539946" lon="13.851376302092875"><ele>10.666666666666666</ele><time>2026-04-11T15:57:12Z</time></trkpt><trkpt lat="41.15464370284754" lon="13.851341875557143"><ele>11.0</ele><time>2026-04-11T15:57:13Z</time></trkpt><trkpt lat="41.15445960201251" lon="13.851310225339075"><ele>11.0</ele><time>2026-04-11T15:57:14Z</time></trkpt><trkpt lat="41.154272820875555" lon="13.851283823974008"><ele>11.0</ele><time>2026-04-11T15:57:15Z</time></trkpt><trkpt lat="41.15409310224876" lon="13.851255565955315"><ele>11.0</ele><time>2026-04-11T15:57:16Z</time></trkpt><trkpt lat="41.153915792787785" lon="13.851225078480612"><ele>13.333333333333332</ele><time>2026-04-11T15:57:17Z</time></trkpt><trkpt lat="41.15373671922626" lon="13.851199131312072"><ele>15.666666666666666</ele><time>2026-04-11T15:57:18Z</time></trkpt><trkpt lat="41.15355940083557" lon="13.851176070794684"><ele>18.0</ele><time>2026-04-11T15:57:19Z</time></trkpt><trkpt lat="41.1533874738962" lon="13.851149485662711"><ele>18.0</ele><time>2026-04-11T15:57:20Z</time></trkpt><trkpt lat="41.153213821450045" lon="13.851125692124564"><ele>18.0</ele><time>2026-04-11T15:57:21Z</time></trkpt><trkpt lat="41.15303877596039" lon="13.851102978675929"><ele>18.0</ele><time>2026-04-11T15:57:22Z</time></trkpt><trkpt lat="41.15286523317373" lon="13.851076401115577"><ele>18.333333333333332</ele><time>2026-04-11T15:57:23.001Z</time></trkpt><trkpt lat="41.15269444443395" lon="13.851047135521691"><ele>18.666666666666664</ele><time>2026-04-11T15:57:24.001Z</time></trkpt><trkpt lat="41.15252289483349" lon="13.85101774945622"><ele>19.0</ele><time>2026-04-11T15:57:25.001Z</time></trkpt><trkpt lat="41.15235128048027" lon="13.850993266377523"><ele>18.0</ele><time>2026-04-11T15:57:26.001Z</time></trkpt><trkpt lat="41.152181445276696" lon="13.850970341772252"><ele>17.0</ele><time>2026-04-11T15:57:27.001Z</time></trkpt><trkpt lat="41.152015255708676" lon="13.850945808896688"><ele>16.0</ele><time>2026-04-11T15:57:28.001Z</time></trkpt><trkpt lat="41.15184936023673" lon="13.850919707670256"><ele>13.666666666666666</ele><time>2026-04-11T15:57:29.001Z</time></trkpt><trkpt lat="41.1516891833361" lon="13.850892135765747"><ele>11.333333333333332</ele><time>2026-04-11T15:57:30.001Z</time></trkpt><trkpt lat="41.15152759272709" lon="13.850867602655534"><ele>9.0</ele><time>2026-04-11T15:57:31.001Z</time></trkpt><trkpt lat="41.151364393355564" lon="13.850846799787165"><ele>8.666666666666666</ele><time>2026-04-11T15:57:32Z</time></trkpt><trkpt lat="41.15120502584878" lon="13.850836667373379"><ele>8.333333333333332</ele><time>2026-04-11T15:57:33Z</time></trkpt><trkpt lat="41.151048458588185" lon="13.850832704778806"><ele>8.0</ele><time>2026-04-11T15:57:34Z</time></trkpt><trkpt lat="41.15089647270304" lon="13.850839794316277"><ele>8.0</ele><time>2026-04-11T15:57:35Z</time></trkpt><trkpt lat="41.15074061299961" lon="13.850848598226275"><ele>8.0</ele><time>2026-04-11T15:57:36Z</time></trkpt><trkpt lat="41.150584437263554" lon="13.850877099472777"><ele>8.0</ele><time>2026-04-11T15:57:37Z</time></trkpt><trkpt lat="41.15043031373122" lon="13.850920148067624"><ele>9.333333333333332</ele><time>2026-04-11T15:57:38Z</time></trkpt><trkpt lat="41.150276691566596" lon="13.85095945423623"><ele>10.666666666666666</ele><time>2026-04-11T15:57:39Z</time></trkpt><trkpt lat="41.15012042762538" lon="13.85103151641556"><ele>12.0</ele><time>2026-04-11T15:57:40Z</time></trkpt><trkpt lat="41.1499745541334" lon="13.851086670802745"><ele>11.333333333333334</ele><time>2026-04-11T15:57:41Z</time></trkpt><trkpt lat="41.149827230308574" lon="13.85115210124495"><ele>10.666666666666668</ele><time>2026-04-11T15:57:42Z</time></trkpt><trkpt lat="41.14967858449833" lon="13.85121106857306"><ele>10.0</ele><time>2026-04-11T15:57:43Z</time></trkpt><trkpt lat="41.14953214422982" lon="13.85126383072629"><ele>10.0</ele><time>2026-04-11T15:57:44Z</time></trkpt><trkpt lat="41.149384357637516" lon="13.851317597922407"><ele>10.0</ele><time>2026-04-11T15:57:45Z</time></trkpt><trkpt lat="41.14924207166886" lon="13.851381697217583"><ele>10.0</ele><time>2026-04-11T15:57:46Z</time></trkpt><trkpt lat="41.149096401285796" lon="13.85144690659593"><ele>9.333333333333334</ele><time>2026-04-11T15:57:47Z</time></trkpt><trkpt lat="41.14895014331099" lon="13.851511600141313"><ele>8.666666666666666</ele><time>2026-04-11T15:57:48Z</time></trkpt><trkpt lat="41.14880834748494" lon="13.851574837370055"><ele>8.0</ele><time>2026-04-11T15:57:49Z</time></trkpt><trkpt lat="41.14866694567776" lon="13.851639409321244"><ele>8.0</ele><time>2026-04-11T15:57:50Z</time></trkpt><trkpt lat="41.14852549766951" lon="13.851699169823195"><ele>8.0</ele><time>2026-04-11T15:57:51Z</time></trkpt><trkpt lat="41.14838170234666" lon="13.851752263970871"><ele>8.0</ele><time>2026-04-11T15:57:52Z</time></trkpt><trkpt lat="41.14823476925836" lon="13.851806637391695"><ele>9.0</ele><time>2026-04-11T15:57:53Z</time></trkpt><trkpt lat="41.148088572826886" lon="13.851870892497681"><ele>10.0</ele><time>2026-04-11T15:57:54Z</time></trkpt><trkpt lat="41.14794008597264" lon="13.851929809968608"><ele>11.0</ele><time>2026-04-11T15:57:55Z</time></trkpt><trkpt lat="41.14779011568071" lon="13.851993467225517"><ele>11.0</ele><time>2026-04-11T15:57:56Z</time></trkpt><trkpt lat="41.147642879264005" lon="13.852064670333933"><ele>11.0</ele><time>2026-04-11T15:57:57Z</time></trkpt><trkpt lat="41.147503180254695" lon="13.852125677809335"><ele>11.0</ele><time>2026-04-11T15:57:58Z</time></trkpt><trkpt lat="41.14735858939125" lon="13.852202011231967"><ele>10.333333333333332</ele><time>2026-04-11T15:57:59Z</time></trkpt><trkpt lat="41.14720907073813" lon="13.852263506107416"><ele>9.666666666666666</ele><time>2026-04-11T15:58:00Z</time></trkpt><trkpt lat="41.14706058231426" lon="13.852325123402034"><ele>9.0</ele><time>2026-04-11T15:58:01Z</time></trkpt><trkpt lat="41.14691538760965" lon="13.852384423642173"><ele>9.0</ele><time>2026-04-11T15:58:02Z</time></trkpt><trkpt lat="41.14676499765117" lon="13.852443221100964"><ele>9.0</ele><time>2026-04-11T15:58:03Z</time></trkpt><trkpt lat="41.14661529793646" lon="13.85250366504859"><ele>9.0</ele><time>2026-04-11T15:58:04Z</time></trkpt><trkpt lat="41.14646618855046" lon="13.85256739891556"><ele>9.666666666666666</ele><time>2026-04-11T15:58:05Z</time></trkpt><trkpt lat="41.146317781038555" lon="13.852631241051174"><ele>10.333333333333332</ele><time>2026-04-11T15:58:06Z</time></trkpt><trkpt lat="41.14616893034606" lon="13.852691129163773"><ele>11.0</ele><time>2026-04-11T15:58:07Z</time></trkpt><trkpt lat="41.14601475427185" lon="13.85275449947563"><ele>11.0</ele><time>2026-04-11T15:58:08Z</time></trkpt><trkpt lat="41.14586691494963" lon="13.85281538516038"><ele>11.0</ele><time>2026-04-11T15:58:09Z</time></trkpt><trkpt lat="41.14571606042939" lon="13.852876181853361"><ele>11.0</ele><time>2026-04-11T15:58:10Z</time></trkpt><trkpt lat="41.145567912068806" lon="13.852932058770406"><ele>10.5</ele><time>2026-04-11T15:58:11Z</time></trkpt><trkpt lat="41.14542652579757" lon="13.852991074789376"><ele>10.0</ele><time>2026-04-11T15:58:12Z</time></trkpt><trkpt lat="41.145286145814666" lon="13.853054733107847"><ele>9.5</ele><time>2026-04-11T15:58:13Z</time></trkpt><trkpt lat="41.14514807879357" lon="13.853118246183726"><ele>9.0</ele><time>2026-04-11T15:58:14Z</time></trkpt><trkpt lat="41.14500260623946" lon="13.853183974531385"><ele>8.5</ele><time>2026-04-11T15:58:15Z</time></trkpt><trkpt lat="41.14486451841163" lon="13.853242306278025"><ele>8.0</ele><time>2026-04-11T15:58:16Z</time></trkpt><trkpt lat="41.14472681468174" lon="13.853296421593182"><ele>7.5</ele><time>2026-04-11T15:58:17Z</time></trkpt><trkpt lat="41.14458553949132" lon="13.853355274690216"><ele>7.0</ele><time>2026-04-11T15:58:18Z</time></trkpt><trkpt lat="41.14445300245593" lon="13.853412144729273"><ele>7.5</ele><time>2026-04-11T15:58:19Z</time></trkpt><trkpt lat="41.1443179167172" lon="13.853469547463954"><ele>8.0</ele><time>2026-04-11T15:58:20Z</time></trkpt><trkpt lat="41.1441776379847" lon="13.853534259952408"><ele>8.5</ele><time>2026-04-11T15:58:21Z</time></trkpt><trkpt lat="41.144040256405304" lon="13.853593966879163"><ele>9.0</ele><time>2026-04-11T15:58:22Z</time></trkpt><trkpt lat="41.14389961640924" lon="13.853652312841877"><ele>9.0</ele><time>2026-04-11T15:58:23Z</time></trkpt><trkpt lat="41.143764918402" lon="13.853713562474125"><ele>9.0</ele><time>2026-04-11T15:58:24Z</time></trkpt><trkpt lat="41.14362996625549" lon="13.85377440547071"><ele>9.0</ele><time>2026-04-11T15:58:25Z</time></trkpt><trkpt lat="41.14350463965863" lon="13.853834554705667"><ele>9.0</ele><time>2026-04-11T15:58:26Z</time></trkpt><trkpt lat="41.143379922991656" lon="13.853890001380046"><ele>9.0</ele><time>2026-04-11T15:58:27Z</time></trkpt><trkpt lat="41.14326017647917" lon="13.853943762719291"><ele>9.0</ele><time>2026-04-11T15:58:28Z</time></trkpt><trkpt lat="41.14313034924285" lon="13.853999548149242"><ele>9.0</ele><time>2026-04-11T15:58:29Z</time></trkpt><trkpt lat="41.14300388991623" lon="13.85404599377654"><ele>9.0</ele><time>2026-04-11T15:58:30Z</time></trkpt><trkpt lat="41.14287843835909" lon="13.85410602928805"><ele>8.75</ele><time>2026-04-11T15:58:31Z</time></trkpt><trkpt lat="41.14274690824549" lon="13.854146090610122"><ele>8.5</ele><time>2026-04-11T15:58:32Z</time></trkpt><trkpt lat="41.142609808063206" lon="13.85420114007549"><ele>8.25</ele><time>2026-04-11T15:58:33Z</time></trkpt><trkpt lat="41.14247848092063" lon="13.854249510066804"><ele>8.0</ele><time>2026-04-11T15:58:34Z</time></trkpt><trkpt lat="41.142354803480686" lon="13.854297991647302"><ele>8.5</ele><time>2026-04-11T15:58:35Z</time></trkpt><trkpt lat="41.14225072537519" lon="13.854342179000803"><ele>9.0</ele><time>2026-04-11T15:58:36Z</time></trkpt><trkpt lat="41.142152746254965" lon="13.854384937912437"><ele>9.5</ele><time>2026-04-11T15:58:37Z</time></trkpt><trkpt lat="41.14206631629413" lon="13.854417946353186"><ele>10.0</ele><time>2026-04-11T15:58:38Z</time></trkpt><trkpt lat="41.14199173928507" lon="13.854450183435025"><ele>10.5</ele><time>2026-04-11T15:58:39Z</time></trkpt><trkpt lat="41.14192658422385" lon="13.85447701364837"><ele>11.0</ele><time>2026-04-11T15:58:40Z</time></trkpt><trkpt lat="41.14186549020222" lon="13.854509209375477"><ele>11.0</ele><time>2026-04-11T15:58:42Z</time></trkpt><trkpt lat="41.141795920492584" lon="13.85455070746657"><ele>11.0</ele><time>2026-04-11T15:59:57Z</time></trkpt><trkpt lat="41.141710387926985" lon="13.854587984486468"><ele>11.0</ele><time>2026-04-11T16:00:09Z</time></trkpt><trkpt lat="41.14160925500757" lon="13.854635188154681"><ele>11.0</ele><time>2026-04-11T16:00:11Z</time></trkpt><trkpt lat="41.14154541529515" lon="13.854647104406089"><ele>11.0</ele><time>2026-04-11T16:00:12Z</time></trkpt><trkpt lat="41.14142746167952" lon="13.854701155735524"><ele>10.600000000000001</ele><time>2026-04-11T16:00:14Z</time></trkpt><trkpt lat="41.14130982713592" lon="13.854761628586237"><ele>10.200000000000001</ele><time>2026-04-11T16:00:16Z</time></trkpt><trkpt lat="41.141247644708145" lon="13.854802627478204"><ele>9.8</ele><time>2026-04-11T16:00:17Z</time></trkpt><trkpt lat="41.14118471609604" lon="13.85482351675217"><ele>9.4</ele><time>2026-04-11T16:00:18Z</time></trkpt><trkpt lat="41.141122430595686" lon="13.854859186358158"><ele>9.0</ele><time>2026-04-11T16:00:19Z</time></trkpt><trkpt lat="41.141131425725625" lon="13.855063793459212"><ele>10.0</ele><time>2026-04-11T16:00:20Z</time></trkpt><trkpt lat="41.14108408866878" lon="13.855173847731862"><ele>11.0</ele><time>2026-04-11T16:00:21Z</time></trkpt><trkpt lat="41.14102586863664" lon="13.85528955161027"><ele>11.999999999999998</ele><time>2026-04-11T16:00:22Z</time></trkpt><trkpt lat="41.14095949111593" lon="13.855400573154196"><ele>13.0</ele><time>2026-04-11T16:00:23Z</time></trkpt><trkpt lat="41.140918441282146" lon="13.85548496942132"><ele>14.0</ele><time>2026-04-11T16:00:24Z</time></trkpt><trkpt lat="41.1408697491571" lon="13.855559137993112"><ele>14.0</ele><time>2026-04-11T16:00:25Z</time></trkpt><trkpt lat="41.140817580839126" lon="13.855637800217568"><ele>13.999999999999998</ele><time>2026-04-11T16:00:26Z</time></trkpt><trkpt lat="41.14076274393645" lon="13.855722359822316"><ele>13.999999999999998</ele><time>2026-04-11T16:00:27Z</time></trkpt><trkpt lat="41.140702801860584" lon="13.855830402945179"><ele>14.0</ele><time>2026-04-11T16:00:28Z</time></trkpt><trkpt lat="41.140644240683926" lon="13.855930888950121"><ele>14.0</ele><time>2026-04-11T16:00:29Z</time></trkpt><trkpt lat="41.14058825029681" lon="13.856033547703781"><ele>12.6</ele><time>2026-04-11T16:00:30Z</time></trkpt><trkpt lat="41.140542355072974" lon="13.856143388556921"><ele>11.2</ele><time>2026-04-11T16:00:31Z</time></trkpt><trkpt lat="41.14050084164694" lon="13.856272892031471"><ele>9.799999999999999</ele><time>2026-04-11T16:00:32Z</time></trkpt><trkpt lat="41.14046589887607" lon="13.856403708295444"><ele>8.399999999999999</ele><time>2026-04-11T16:00:33Z</time></trkpt><trkpt lat="41.14042210251576" lon="13.856534048796918"><ele>7.0</ele><time>2026-04-11T16:00:34Z</time></trkpt><trkpt lat="41.14037670798434" lon="13.856669790936191"><ele>7.0</ele><time>2026-04-11T16:00:35Z</time></trkpt><trkpt lat="41.14033962626836" lon="13.856803467110943"><ele>7.0</ele><time>2026-04-11T16:00:36Z</time></trkpt><trkpt lat="41.14028319147116" lon="13.856947315383175"><ele>7.0</ele><time>2026-04-11T16:00:37Z</time></trkpt><trkpt lat="41.140237789963614" lon="13.857092754990365"><ele>7.0</ele><time>2026-04-11T16:00:38Z</time></trkpt><trkpt lat="41.14019356416532" lon="13.857234428375863"><ele>7.0</ele><time>2026-04-11T16:00:39Z</time></trkpt><trkpt lat="41.14015384535152" lon="13.857361663889838"><ele>6.999999999999999</ele><time>2026-04-11T16:00:40Z</time></trkpt><trkpt lat="41.14011478268987" lon="13.85748679758679"><ele>6.999999999999999</ele><time>2026-04-11T16:00:41Z</time></trkpt><trkpt lat="41.14007422122798" lon="13.85761673257829"><ele>7.0</ele><time>2026-04-11T16:00:42Z</time></trkpt><trkpt lat="41.14003245997021" lon="13.857750510856494"><ele>7.0</ele><time>2026-04-11T16:00:43Z</time></trkpt><trkpt lat="41.13999153189652" lon="13.857881620163102"><ele>6.8</ele><time>2026-04-11T16:00:44Z</time></trkpt><trkpt lat="41.13994943333" lon="13.858015904044006"><ele>6.6</ele><time>2026-04-11T16:00:45Z</time></trkpt><trkpt lat="41.13992197475845" lon="13.858158413347168"><ele>6.3999999999999995</ele><time>2026-04-11T16:00:46Z</time></trkpt><trkpt lat="41.139877933934784" lon="13.858286448899605"><ele>6.199999999999999</ele><time>2026-04-11T16:00:47Z</time></trkpt><trkpt lat="41.13983147964083" lon="13.858423484642332"><ele>6.0</ele><time>2026-04-11T16:00:48Z</time></trkpt><trkpt lat="41.1397831787811" lon="13.858559623851978"><ele>6.0</ele><time>2026-04-11T16:00:49Z</time></trkpt><trkpt lat="41.13975025928623" lon="13.858691995294944"><ele>6.0</ele><time>2026-04-11T16:00:50Z</time></trkpt><trkpt lat="41.139687639614515" lon="13.858831259172486"><ele>6.0</ele><time>2026-04-11T16:00:51Z</time></trkpt><trkpt lat="41.13963394006799" lon="13.858979125130643"><ele>6.0</ele><time>2026-04-11T16:00:52Z</time></trkpt><trkpt lat="41.139583620722256" lon="13.859126778606731"><ele>6.0</ele><time>2026-04-11T16:00:53Z</time></trkpt><trkpt lat="41.1395340648341" lon="13.85927902071682"><ele>6.0</ele><time>2026-04-11T16:00:54Z</time></trkpt><trkpt lat="41.13948497472185" lon="13.859432614289037"><ele>6.0</ele><time>2026-04-11T16:00:55Z</time></trkpt><trkpt lat="41.13943502076436" lon="13.859595506678733"><ele>6.0</ele><time>2026-04-11T16:00:56Z</time></trkpt><trkpt lat="41.139391085024904" lon="13.859750434289833"><ele>6.0</ele><time>2026-04-11T16:00:57Z</time></trkpt><trkpt lat="41.139341143860776" lon="13.85990294697509"><ele>6.0</ele><time>2026-04-11T16:00:58Z</time></trkpt><trkpt lat="41.139282133548214" lon="13.860079511848971"><ele>6.0</ele><time>2026-04-11T16:00:59Z</time></trkpt><trkpt lat="41.139228792003905" lon="13.860257061486204"><ele>6.0</ele><time>2026-04-11T16:01:00Z</time></trkpt><trkpt lat="41.13916841737253" lon="13.860436097976946"><ele>6.0</ele><time>2026-04-11T16:01:01Z</time></trkpt><trkpt lat="41.13910638975268" lon="13.86061870578792"><ele>6.0</ele><time>2026-04-11T16:01:02Z</time></trkpt><trkpt lat="41.139044044744494" lon="13.860805019493329"><ele>6.0</ele><time>2026-04-11T16:01:03Z</time></trkpt><trkpt lat="41.13898243708548" lon="13.860976532645287"><ele>6.0</ele><time>2026-04-11T16:01:04Z</time></trkpt><trkpt lat="41.13892324330338" lon="13.861140335968706"><ele>6.75</ele><time>2026-04-11T16:01:05.001Z</time></trkpt><trkpt lat="41.13886996510177" lon="13.861290126738934"><ele>7.5</ele><time>2026-04-11T16:01:06.001Z</time></trkpt><trkpt lat="41.138811183415" lon="13.86144699419551"><ele>8.25</ele><time>2026-04-11T16:01:07.001Z</time></trkpt><trkpt lat="41.138752340891614" lon="13.861600820059982"><ele>9.0</ele><time>2026-04-11T16:01:08.001Z</time></trkpt><trkpt lat="41.13868215076916" lon="13.861758517547745"><ele>9.25</ele><time>2026-04-11T16:01:09.001Z</time></trkpt><trkpt lat="41.13862096199596" lon="13.86191961070988"><ele>9.5</ele><time>2026-04-11T16:01:10.001Z</time></trkpt><trkpt lat="41.13856287870485" lon="13.862076546291332"><ele>9.75</ele><time>2026-04-11T16:01:11.001Z</time></trkpt><trkpt lat="41.138508641541414" lon="13.862258279799127"><ele>10.0</ele><time>2026-04-11T16:01:12.001Z</time></trkpt><trkpt lat="41.13844115360403" lon="13.862445214758287"><ele>10.0</ele><time>2026-04-11T16:01:13.001Z</time></trkpt><trkpt lat="41.138360366248165" lon="13.862631795901375"><ele>10.0</ele><time>2026-04-11T16:01:14.001Z</time></trkpt><trkpt lat="41.13829063421333" lon="13.862828215429143"><ele>10.0</ele><time>2026-04-11T16:01:15.001Z</time></trkpt><trkpt lat="41.138215678601696" lon="13.86303934814341"><ele>9.666666666666668</ele><time>2026-04-11T16:01:16.001Z</time></trkpt><trkpt lat="41.13813879828138" lon="13.863254768504099"><ele>9.333333333333334</ele><time>2026-04-11T16:01:17.001Z</time></trkpt><trkpt lat="41.13805404107181" lon="13.863483603806776"><ele>9.0</ele><time>2026-04-11T16:01:18.001Z</time></trkpt><trkpt lat="41.13797078935257" lon="13.86370339809655"><ele>9.0</ele><time>2026-04-11T16:01:19.001Z</time></trkpt><trkpt lat="41.13788605195434" lon="13.863922844797473"><ele>9.0</ele><time>2026-04-11T16:01:20.001Z</time></trkpt><trkpt lat="41.13779706448142" lon="13.864149121355924"><ele>9.0</ele><time>2026-04-11T16:01:21.001Z</time></trkpt><trkpt lat="41.13771052157974" lon="13.864362986495708"><ele>9.333333333333334</ele><time>2026-04-11T16:01:22.001Z</time></trkpt><trkpt lat="41.137623631226276" lon="13.864579013272028"><ele>9.666666666666668</ele><time>2026-04-11T16:01:23.001Z</time></trkpt><trkpt lat="41.13752953672499" lon="13.864779469032277"><ele>10.0</ele><time>2026-04-11T16:01:24.001Z</time></trkpt><trkpt lat="41.137439724983935" lon="13.864963007400434"><ele>10.333333333333334</ele><time>2026-04-11T16:01:25.001Z</time></trkpt><trkpt lat="41.13735014114595" lon="13.865145481395714"><ele>10.666666666666666</ele><time>2026-04-11T16:01:26.001Z</time></trkpt><trkpt lat="41.13725600428633" lon="13.865334846979774"><ele>11.0</ele><time>2026-04-11T16:01:27.001Z</time></trkpt><trkpt lat="41.13716508644423" lon="13.865527764296642"><ele>11.0</ele><time>2026-04-11T16:01:28.001Z</time></trkpt><trkpt lat="41.13706951586207" lon="13.865710829664692"><ele>11.0</ele><time>2026-04-11T16:01:29.001Z</time></trkpt><trkpt lat="41.13697994465702" lon="13.865890734212174"><ele>11.0</ele><time>2026-04-11T16:01:30.001Z</time></trkpt><trkpt lat="41.13689559211277" lon="13.866062547020093"><ele>11.333333333333332</ele><time>2026-04-11T16:01:31.001Z</time></trkpt><trkpt lat="41.136805137882256" lon="13.86624332200715"><ele>11.666666666666666</ele><time>2026-04-11T16:01:32.001Z</time></trkpt><trkpt lat="41.1367205480208" lon="13.86643308482403"><ele>12.0</ele><time>2026-04-11T16:01:33.001Z</time></trkpt><trkpt lat="41.136637476289415" lon="13.86660895735468"><ele>11.333333333333334</ele><time>2026-04-11T16:01:34.001Z</time></trkpt><trkpt lat="41.13654534383224" lon="13.866793510288653"><ele>10.666666666666668</ele><time>2026-04-11T16:01:35.001Z</time></trkpt><trkpt lat="41.136454798679694" lon="13.866973108374742"><ele>10.0</ele><time>2026-04-11T16:01:36.001Z</time></trkpt><trkpt lat="41.13636043141237" lon="13.867169465839241"><ele>10.0</ele><time>2026-04-11T16:01:37.001Z</time></trkpt><trkpt lat="41.13626360410638" lon="13.867333696903055"><ele>10.0</ele><time>2026-04-11T16:01:38.001Z</time></trkpt><trkpt lat="41.13615561796877" lon="13.867502905340874"><ele>10.0</ele><time>2026-04-11T16:01:39.001Z</time></trkpt><trkpt lat="41.13604140515544" lon="13.867669332371879"><ele>10.666666666666668</ele><time>2026-04-11T16:01:40.001Z</time></trkpt><trkpt lat="41.13592372631377" lon="13.867831166167953"><ele>11.333333333333334</ele><time>2026-04-11T16:01:41.001Z</time></trkpt><trkpt lat="41.13581020191512" lon="13.867998974186738"><ele>12.0</ele><time>2026-04-11T16:01:42.001Z</time></trkpt><trkpt lat="41.13570942542242" lon="13.868181191637971"><ele>11.333333333333334</ele><time>2026-04-11T16:01:43.001Z</time></trkpt><trkpt lat="41.13560852000972" lon="13.868373686508205"><ele>10.666666666666668</ele><time>2026-04-11T16:01:44Z</time></trkpt><trkpt lat="41.13551098818321" lon="13.868562157646807"><ele>10.0</ele><time>2026-04-11T16:01:45Z</time></trkpt><trkpt lat="41.13541080932046" lon="13.868761506057258"><ele>10.0</ele><time>2026-04-11T16:01:46Z</time></trkpt><trkpt lat="41.13531281418364" lon="13.86895537191136"><ele>10.0</ele><time>2026-04-11T16:01:47Z</time></trkpt><trkpt lat="41.13522464713424" lon="13.869135289022081"><ele>10.0</ele><time>2026-04-11T16:01:48Z</time></trkpt><trkpt lat="41.13512638775601" lon="13.869328428605288"><ele>10.666666666666668</ele><time>2026-04-11T16:01:49Z</time></trkpt><trkpt lat="41.13503042020503" lon="13.8695350812909"><ele>11.333333333333334</ele><time>2026-04-11T16:01:50Z</time></trkpt><trkpt lat="41.13493173157196" lon="13.869737828960524"><ele>12.0</ele><time>2026-04-11T16:01:51Z</time></trkpt><trkpt lat="41.13484303609646" lon="13.869931691385528"><ele>11.666666666666666</ele><time>2026-04-11T16:01:52Z</time></trkpt><trkpt lat="41.134751003993664" lon="13.870140656313403"><ele>11.333333333333332</ele><time>2026-04-11T16:01:53Z</time></trkpt><trkpt lat="41.134670373321256" lon="13.87032237171773"><ele>11.0</ele><time>2026-04-11T16:01:54Z</time></trkpt><trkpt lat="41.13459644618545" lon="13.870532650604515"><ele>11.0</ele><time>2026-04-11T16:01:55Z</time></trkpt><trkpt lat="41.134520932600324" lon="13.870752743602342"><ele>11.0</ele><time>2026-04-11T16:01:56Z</time></trkpt><trkpt lat="41.13444998176715" lon="13.870964620038647"><ele>11.0</ele><time>2026-04-11T16:01:57Z</time></trkpt><trkpt lat="41.13436756955678" lon="13.871176259052692"><ele>11.666666666666666</ele><time>2026-04-11T16:01:58Z</time></trkpt><trkpt lat="41.1342799295238" lon="13.871375796308834"><ele>12.333333333333332</ele><time>2026-04-11T16:01:59Z</time></trkpt><trkpt lat="41.13421029733573" lon="13.87160504053483"><ele>13.0</ele><time>2026-04-11T16:02:00Z</time></trkpt><trkpt lat="41.134122282767194" lon="13.871810897932935"><ele>12.333333333333332</ele><time>2026-04-11T16:02:01Z</time></trkpt><trkpt lat="41.134036083734195" lon="13.872019332992588"><ele>11.666666666666666</ele><time>2026-04-11T16:02:02Z</time></trkpt><trkpt lat="41.13394835481494" lon="13.872222956213868"><ele>11.0</ele><time>2026-04-11T16:02:03Z</time></trkpt><trkpt lat="41.13385822617449" lon="13.872413635864776"><ele>11.333333333333332</ele><time>2026-04-11T16:02:04Z</time></trkpt><trkpt lat="41.133761323462025" lon="13.872607282948852"><ele>11.666666666666666</ele><time>2026-04-11T16:02:05Z</time></trkpt><trkpt lat="41.13366906901739" lon="13.872788412899382"><ele>12.0</ele><time>2026-04-11T16:02:06Z</time></trkpt><trkpt lat="41.133577345698605" lon="13.87300149237998"><ele>12.0</ele><time>2026-04-11T16:02:07Z</time></trkpt><trkpt lat="41.13348519322742" lon="13.873187555250523"><ele>12.0</ele><time>2026-04-11T16:02:08Z</time></trkpt><trkpt lat="41.13338447828529" lon="13.873375837116669"><ele>12.0</ele><time>2026-04-11T16:02:09Z</time></trkpt><trkpt lat="41.13328786588035" lon="13.873571541470923"><ele>12.333333333333332</ele><time>2026-04-11T16:02:10Z</time></trkpt><trkpt lat="41.133188577323025" lon="13.873763660912772"><ele>12.666666666666666</ele><time>2026-04-11T16:02:11Z</time></trkpt><trkpt lat="41.13310152229875" lon="13.873949778241712"><ele>13.0</ele><time>2026-04-11T16:02:12Z</time></trkpt><trkpt lat="41.13301772928355" lon="13.874169673655457"><ele>13.666666666666666</ele><time>2026-04-11T16:02:13Z</time></trkpt><trkpt lat="41.132935139930574" lon="13.874377431094459"><ele>14.333333333333332</ele><time>2026-04-11T16:02:14Z</time></trkpt><trkpt lat="41.13285626728527" lon="13.874565913782874"><ele>15.0</ele><time>2026-04-11T16:02:15Z</time></trkpt><trkpt lat="41.1327755471769" lon="13.874776934778652"><ele>15.0</ele><time>2026-04-11T16:02:16Z</time></trkpt><trkpt lat="41.132693337478344" lon="13.874969620843009"><ele>15.0</ele><time>2026-04-11T16:02:17Z</time></trkpt><trkpt lat="41.13260852364829" lon="13.875171419908176"><ele>15.0</ele><time>2026-04-11T16:02:18Z</time></trkpt><trkpt lat="41.132513869011234" lon="13.875360986385918"><ele>15.0</ele><time>2026-04-11T16:02:19Z</time></trkpt><trkpt lat="41.13242062552134" lon="13.875555117751396"><ele>15.0</ele><time>2026-04-11T16:02:20Z</time></trkpt><trkpt lat="41.13232711156156" lon="13.875744916291687"><ele>15.0</ele><time>2026-04-11T16:02:21Z</time></trkpt><trkpt lat="41.13222833875696" lon="13.875943488629641"><ele>15.666666666666668</ele><time>2026-04-11T16:02:22Z</time></trkpt><trkpt lat="41.132134522822305" lon="13.876145298321292"><ele>16.333333333333336</ele><time>2026-04-11T16:02:23Z</time></trkpt><trkpt lat="41.13203998529256" lon="13.876359071167148"><ele>17.0</ele><time>2026-04-11T16:02:24Z</time></trkpt><trkpt lat="41.13194535837032" lon="13.876564001804056"><ele>17.0</ele><time>2026-04-11T16:02:25Z</time></trkpt><trkpt lat="41.13185558032807" lon="13.876766655752851"><ele>17.0</ele><time>2026-04-11T16:02:26Z</time></trkpt><trkpt lat="41.13177090231657" lon="13.876964548958625"><ele>17.0</ele><time>2026-04-11T16:02:27Z</time></trkpt><trkpt lat="41.131684052925564" lon="13.877162274332656"><ele>17.0</ele><time>2026-04-11T16:02:28Z</time></trkpt><trkpt lat="41.131607106214766" lon="13.877374759648225"><ele>17.0</ele><time>2026-04-11T16:02:29Z</time></trkpt><trkpt lat="41.131528114977655" lon="13.877584892910582"><ele>17.0</ele><time>2026-04-11T16:02:30Z</time></trkpt><trkpt lat="41.13145015704461" lon="13.8777905857674"><ele>17.0</ele><time>2026-04-11T16:02:31Z</time></trkpt><trkpt lat="41.1313716872195" lon="13.877993493646846"><ele>17.0</ele><time>2026-04-11T16:02:32Z</time></trkpt><trkpt lat="41.13128690541179" lon="13.878198704885417"><ele>17.0</ele><time>2026-04-11T16:02:33Z</time></trkpt><trkpt lat="41.131198933489394" lon="13.878398733149288"><ele>17.0</ele><time>2026-04-11T16:02:34Z</time></trkpt><trkpt lat="41.13110385390047" lon="13.878596788177992"><ele>17.0</ele><time>2026-04-11T16:02:35Z</time></trkpt><trkpt lat="41.130997264570716" lon="13.8787994513273"><ele>17.0</ele><time>2026-04-11T16:02:36Z</time></trkpt><trkpt lat="41.13089221223686" lon="13.878979892263125"><ele>17.0</ele><time>2026-04-11T16:02:37Z</time></trkpt><trkpt lat="41.13077826513553" lon="13.879156188072624"><ele>17.0</ele><time>2026-04-11T16:02:38Z</time></trkpt><trkpt lat="41.13065942199522" lon="13.87932948148304"><ele>17.0</ele><time>2026-04-11T16:02:39Z</time></trkpt><trkpt lat="41.13053701064898" lon="13.879504533690088"><ele>17.0</ele><time>2026-04-11T16:02:40Z</time></trkpt><trkpt lat="41.130416897493504" lon="13.879669056917185"><ele>17.0</ele><time>2026-04-11T16:02:41Z</time></trkpt><trkpt lat="41.130298183387026" lon="13.879842787050436"><ele>17.0</ele><time>2026-04-11T16:02:42Z</time></trkpt><trkpt lat="41.13018573612373" lon="13.880029223683255"><ele>17.333333333333336</ele><time>2026-04-11T16:02:43Z</time></trkpt><trkpt lat="41.13008112916025" lon="13.880231970681375"><ele>17.666666666666668</ele><time>2026-04-11T16:02:44Z</time></trkpt><trkpt lat="41.129988854828895" lon="13.880440905431774"><ele>18.0</ele><time>2026-04-11T16:02:45Z</time></trkpt><trkpt lat="41.129898985147754" lon="13.880642842017648"><ele>18.0</ele><time>2026-04-11T16:02:46Z</time></trkpt><trkpt lat="41.12981040211811" lon="13.880854201513987"><ele>18.0</ele><time>2026-04-11T16:02:47Z</time></trkpt><trkpt lat="41.12972781075143" lon="13.881067930433424"><ele>18.0</ele><time>2026-04-11T16:02:48Z</time></trkpt><trkpt lat="41.129641307395644" lon="13.88126867567398"><ele>18.0</ele><time>2026-04-11T16:02:49Z</time></trkpt><trkpt lat="41.129556040443376" lon="13.88147458598542"><ele>18.0</ele><time>2026-04-11T16:02:50Z</time></trkpt><trkpt lat="41.12947752058034" lon="13.881675139977792"><ele>18.0</ele><time>2026-04-11T16:02:51Z</time></trkpt><trkpt lat="41.12940440955037" lon="13.88188283532963"><ele>18.5</ele><time>2026-04-11T16:02:52Z</time></trkpt><trkpt lat="41.12933938698288" lon="13.882081672433483"><ele>19.0</ele><time>2026-04-11T16:02:53Z</time></trkpt><trkpt lat="41.129287146485936" lon="13.882260767489024"><ele>19.5</ele><time>2026-04-11T16:02:54Z</time></trkpt><trkpt lat="41.12924298514842" lon="13.882438409800432"><ele>20.0</ele><time>2026-04-11T16:02:55Z</time></trkpt><trkpt lat="41.12921074561726" lon="13.882626994012504"><ele>20.0</ele><time>2026-04-11T16:02:56Z</time></trkpt><trkpt lat="41.12917731802079" lon="13.88281912339042"><ele>20.0</ele><time>2026-04-11T16:02:57Z</time></trkpt><trkpt lat="41.12913801408218" lon="13.883008532090901"><ele>20.0</ele><time>2026-04-11T16:02:58.001Z</time></trkpt><trkpt lat="41.12908838716078" lon="13.883189837395037"><ele>20.0</ele><time>2026-04-11T16:02:59.001Z</time></trkpt><trkpt lat="41.12902876406005" lon="13.883376030950869"><ele>19.75</ele><time>2026-04-11T16:03:00.001Z</time></trkpt><trkpt lat="41.12896333907344" lon="13.88354483888889"><ele>19.5</ele><time>2026-04-11T16:03:01.001Z</time></trkpt><trkpt lat="41.12888877008605" lon="13.88371623222781"><ele>19.25</ele><time>2026-04-11T16:03:02.001Z</time></trkpt><trkpt lat="41.128821976770006" lon="13.883886226958683"><ele>19.0</ele><time>2026-04-11T16:03:03.001Z</time></trkpt><trkpt lat="41.128759708191225" lon="13.88405366104906"><ele>19.0</ele><time>2026-04-11T16:03:04.001Z</time></trkpt><trkpt lat="41.128708366071315" lon="13.88420860504422"><ele>19.0</ele><time>2026-04-11T16:03:05.001Z</time></trkpt><trkpt lat="41.128668460545995" lon="13.884350650839817"><ele>19.0</ele><time>2026-04-11T16:03:06.001Z</time></trkpt><trkpt lat="41.128631768593934" lon="13.884500743223278"><ele>19.0</ele><time>2026-04-11T16:03:07.001Z</time></trkpt><trkpt lat="41.12860167694153" lon="13.884654538668334"><ele>19.0</ele><time>2026-04-11T16:03:08.001Z</time></trkpt><trkpt lat="41.12856179433425" lon="13.884807294429951"><ele>19.0</ele><time>2026-04-11T16:03:09.001Z</time></trkpt><trkpt lat="41.128523801378236" lon="13.884968419731287"><ele>19.0</ele><time>2026-04-11T16:03:10.001Z</time></trkpt><trkpt lat="41.128480313345435" lon="13.885126218081137"><ele>19.0</ele><time>2026-04-11T16:03:11.001Z</time></trkpt><trkpt lat="41.12843686953536" lon="13.885284741686759"><ele>19.0</ele><time>2026-04-11T16:03:12.001Z</time></trkpt><trkpt lat="41.12837926553558" lon="13.885468757563837"><ele>19.0</ele><time>2026-04-11T16:03:13.001Z</time></trkpt><trkpt lat="41.128318465404696" lon="13.88563088984052"><ele>19.0</ele><time>2026-04-11T16:03:14.001Z</time></trkpt><trkpt lat="41.12825329232805" lon="13.8857896436997"><ele>19.0</ele><time>2026-04-11T16:03:15.001Z</time></trkpt><trkpt lat="41.128191716236856" lon="13.885941142815662"><ele>16.75</ele><time>2026-04-11T16:03:16.001Z</time></trkpt><trkpt lat="41.128125194791046" lon="13.886104956440898"><ele>14.5</ele><time>2026-04-11T16:03:17.001Z</time></trkpt><trkpt lat="41.12805889098919" lon="13.886259184595586"><ele>12.25</ele><time>2026-04-11T16:03:18.001Z</time></trkpt><trkpt lat="41.12799065085004" lon="13.886408284215676"><ele>10.0</ele><time>2026-04-11T16:03:19.001Z</time></trkpt><trkpt lat="41.12792255841195" lon="13.886561734657056"><ele>10.0</ele><time>2026-04-11T16:03:20.001Z</time></trkpt><trkpt lat="41.127848753684894" lon="13.88671760999269"><ele>10.0</ele><time>2026-04-11T16:03:21.001Z</time></trkpt><trkpt lat="41.127769608892585" lon="13.886867444027306"><ele>10.0</ele><time>2026-04-11T16:03:22.001Z</time></trkpt><trkpt lat="41.12768548331804" lon="13.887051063905917"><ele>10.0</ele><time>2026-04-11T16:03:23.001Z</time></trkpt><trkpt lat="41.12761187159103" lon="13.887221608933109"><ele>9.25</ele><time>2026-04-11T16:03:24.001Z</time></trkpt><trkpt lat="41.12753403704089" lon="13.887388418817999"><ele>8.5</ele><time>2026-04-11T16:03:25.001Z</time></trkpt><trkpt lat="41.12745046545811" lon="13.887554437890072"><ele>7.75</ele><time>2026-04-11T16:03:26.001Z</time></trkpt><trkpt lat="41.12737190168554" lon="13.887716944677726"><ele>7.0</ele><time>2026-04-11T16:03:27.001Z</time></trkpt><trkpt lat="41.12729418373" lon="13.887887386728506"><ele>7.0</ele><time>2026-04-11T16:03:28.001Z</time></trkpt><trkpt lat="41.12722108051329" lon="13.888042640871575"><ele>7.0</ele><time>2026-04-11T16:03:29.001Z</time></trkpt><trkpt lat="41.12714591676769" lon="13.888206298043947"><ele>7.0</ele><time>2026-04-11T16:03:30.001Z</time></trkpt><trkpt lat="41.12706763798483" lon="13.888373769660634"><ele>7.0</ele><time>2026-04-11T16:03:31.001Z</time></trkpt><trkpt lat="41.12700327045791" lon="13.888534521443557"><ele>8.0</ele><time>2026-04-11T16:03:32.001Z</time></trkpt><trkpt lat="41.12692907075208" lon="13.88868739143023"><ele>9.0</ele><time>2026-04-11T16:03:33.001Z</time></trkpt><trkpt lat="41.12686106269564" lon="13.888848447047987"><ele>10.0</ele><time>2026-04-11T16:03:34.001Z</time></trkpt><trkpt lat="41.12678930227684" lon="13.888998290862869"><ele>11.0</ele><time>2026-04-11T16:03:35.001Z</time></trkpt><trkpt lat="41.12672146226709" lon="13.88915832278583"><ele>10.0</ele><time>2026-04-11T16:03:36.001Z</time></trkpt><trkpt lat="41.126645035523175" lon="13.889283903367968"><ele>9.0</ele><time>2026-04-11T16:03:37.001Z</time></trkpt><trkpt lat="41.1265714351559" lon="13.889430095330882"><ele>8.0</ele><time>2026-04-11T16:03:38.001Z</time></trkpt><trkpt lat="41.12649613193571" lon="13.889557959018378"><ele>7.0</ele><time>2026-04-11T16:03:39.001Z</time></trkpt><trkpt lat="41.126423931672484" lon="13.889714516228594"><ele>7.0</ele><time>2026-04-11T16:03:40.001Z</time></trkpt><trkpt lat="41.12635884437463" lon="13.88987128275594"><ele>7.0</ele><time>2026-04-11T16:03:41.001Z</time></trkpt><trkpt lat="41.1262962458786" lon="13.890032035478525"><ele>7.0</ele><time>2026-04-11T16:03:42.001Z</time></trkpt><trkpt lat="41.126230445141374" lon="13.8901908440453"><ele>7.0</ele><time>2026-04-11T16:03:43.001Z</time></trkpt><trkpt lat="41.12617278191041" lon="13.890336420536704"><ele>8.5</ele><time>2026-04-11T16:03:44.001Z</time></trkpt><trkpt lat="41.126109528317954" lon="13.890507948534655"><ele>10.0</ele><time>2026-04-11T16:03:45.001Z</time></trkpt><trkpt lat="41.12604990548612" lon="13.890668647861576"><ele>11.5</ele><time>2026-04-11T16:03:46.001Z</time></trkpt><trkpt lat="41.125993399262256" lon="13.890835452083362"><ele>13.0</ele><time>2026-04-11T16:03:47.001Z</time></trkpt><trkpt lat="41.12594063849202" lon="13.8910011538867"><ele>14.25</ele><time>2026-04-11T16:03:48.001Z</time></trkpt><trkpt lat="41.12588693791611" lon="13.891155216054127"><ele>15.5</ele><time>2026-04-11T16:03:49.001Z</time></trkpt><trkpt lat="41.12583097046225" lon="13.891315711855242"><ele>16.75</ele><time>2026-04-11T16:03:50Z</time></trkpt><trkpt lat="41.12577535444691" lon="13.891475251318997"><ele>18.0</ele><time>2026-04-11T16:03:51Z</time></trkpt><trkpt lat="41.12571795192068" lon="13.891632684065895"><ele>15.0</ele><time>2026-04-11T16:03:52Z</time></trkpt><trkpt lat="41.12565910489176" lon="13.8917957270063"><ele>12.0</ele><time>2026-04-11T16:03:53Z</time></trkpt><trkpt lat="41.12560255457338" lon="13.891958036521174"><ele>9.0</ele><time>2026-04-11T16:03:54Z</time></trkpt><trkpt lat="41.12554753719104" lon="13.892123466817281"><ele>6.0</ele><time>2026-04-11T16:03:55Z</time></trkpt><trkpt lat="41.12549235919206" lon="13.892300760781964"><ele>6.0</ele><time>2026-04-11T16:03:56Z</time></trkpt><trkpt lat="41.12543737722743" lon="13.892471245284861"><ele>6.0</ele><time>2026-04-11T16:03:57Z</time></trkpt><trkpt lat="41.1253836854671" lon="13.892648105707766"><ele>6.0</ele><time>2026-04-11T16:03:58Z</time></trkpt><trkpt lat="41.1253266819818" lon="13.89284729252802"><ele>6.0</ele><time>2026-04-11T16:03:59Z</time></trkpt><trkpt lat="41.12526424856522" lon="13.893046671090147"><ele>7.0</ele><time>2026-04-11T16:04:00Z</time></trkpt><trkpt lat="41.12520691583402" lon="13.893255655613476"><ele>8.0</ele><time>2026-04-11T16:04:01Z</time></trkpt><trkpt lat="41.12514447214101" lon="13.893463259082557"><ele>9.0</ele><time>2026-04-11T16:04:02Z</time></trkpt><trkpt lat="41.125092100440106" lon="13.893660615293616"><ele>8.5</ele><time>2026-04-11T16:04:03Z</time></trkpt><trkpt lat="41.125037310423664" lon="13.893849854758733"><ele>8.0</ele><time>2026-04-11T16:04:04Z</time></trkpt><trkpt lat="41.12498428932048" lon="13.894026866598983"><ele>7.5</ele><time>2026-04-11T16:04:05Z</time></trkpt><trkpt lat="41.12492704947395" lon="13.89419992610819"><ele>7.0</ele><time>2026-04-11T16:04:06Z</time></trkpt><trkpt lat="41.1248669223841" lon="13.894375018030889"><ele>7.0</ele><time>2026-04-11T16:04:07Z</time></trkpt><trkpt lat="41.12480345718071" lon="13.894536353732036"><ele>7.0</ele><time>2026-04-11T16:04:08Z</time></trkpt><trkpt lat="41.124745964509316" lon="13.894683497623502"><ele>7.0</ele><time>2026-04-11T16:04:09Z</time></trkpt><trkpt lat="41.124686189886376" lon="13.894832238823145"><ele>7.0</ele><time>2026-04-11T16:04:10Z</time></trkpt><trkpt lat="41.124628038641575" lon="13.89497276466343"><ele>7.75</ele><time>2026-04-11T16:04:11Z</time></trkpt><trkpt lat="41.12457697909277" lon="13.895104050888152"><ele>8.5</ele><time>2026-04-11T16:04:12Z</time></trkpt><trkpt lat="41.1245241502555" lon="13.895245240213972"><ele>9.25</ele><time>2026-04-11T16:04:13Z</time></trkpt><trkpt lat="41.124471066878286" lon="13.895397429871467"><ele>10.0</ele><time>2026-04-11T16:04:14Z</time></trkpt><trkpt lat="41.12442109744353" lon="13.895533888844753"><ele>10.0</ele><time>2026-04-11T16:04:15Z</time></trkpt><trkpt lat="41.1243747073597" lon="13.89568142377192"><ele>10.0</ele><time>2026-04-11T16:04:16Z</time></trkpt><trkpt lat="41.12432962198843" lon="13.895835175797867"><ele>10.0</ele><time>2026-04-11T16:04:17Z</time></trkpt><trkpt lat="41.12428592111437" lon="13.895981471263847"><ele>10.0</ele><time>2026-04-11T16:04:18Z</time></trkpt><trkpt lat="41.1242477785726" lon="13.896139957810645"><ele>10.25</ele><time>2026-04-11T16:04:19Z</time></trkpt><trkpt lat="41.12420593594155" lon="13.896310172108844"><ele>10.5</ele><time>2026-04-11T16:04:20Z</time></trkpt><trkpt lat="41.12416532278552" lon="13.89646895662878"><ele>10.75</ele><time>2026-04-11T16:04:21Z</time></trkpt><trkpt lat="41.124124951807396" lon="13.896626762748314"><ele>11.0</ele><time>2026-04-11T16:04:22Z</time></trkpt><trkpt lat="41.1240878829993" lon="13.896782484086241"><ele>10.4</ele><time>2026-04-11T16:04:23Z</time></trkpt><trkpt lat="41.124055507949606" lon="13.896919450850099"><ele>9.8</ele><time>2026-04-11T16:04:24Z</time></trkpt><trkpt lat="41.12402392080629" lon="13.89706257431418"><ele>9.200000000000001</ele><time>2026-04-11T16:04:25Z</time></trkpt><trkpt lat="41.12399495626539" lon="13.897195262814314"><ele>8.600000000000001</ele><time>2026-04-11T16:04:26Z</time></trkpt><trkpt lat="41.12395948487794" lon="13.897323236552916"><ele>8.0</ele><time>2026-04-11T16:04:27Z</time></trkpt><trkpt lat="41.12393365068487" lon="13.89744920351877"><ele>8.0</ele><time>2026-04-11T16:04:28Z</time></trkpt><trkpt lat="41.1239044582727" lon="13.897568498079934"><ele>8.0</ele><time>2026-04-11T16:04:29Z</time></trkpt><trkpt lat="41.12387669834889" lon="13.897695328017193"><ele>8.0</ele><time>2026-04-11T16:04:30Z</time></trkpt><trkpt lat="41.12385119468179" lon="13.897833869771539"><ele>8.0</ele><time>2026-04-11T16:04:31Z</time></trkpt><trkpt lat="41.123825272717255" lon="13.897967254127925"><ele>8.0</ele><time>2026-04-11T16:04:32Z</time></trkpt><trkpt lat="41.123800664106234" lon="13.898112750094885"><ele>8.200000000000001</ele><time>2026-04-11T16:04:33Z</time></trkpt><trkpt lat="41.123774289071235" lon="13.898248890594383"><ele>8.4</ele><time>2026-04-11T16:04:34Z</time></trkpt><trkpt lat="41.12375059775289" lon="13.898379949612293"><ele>8.600000000000001</ele><time>2026-04-11T16:04:35Z</time></trkpt><trkpt lat="41.1237253414796" lon="13.89852679442736"><ele>8.8</ele><time>2026-04-11T16:04:36Z</time></trkpt><trkpt lat="41.12369642457308" lon="13.898644345342722"><ele>9.0</ele><time>2026-04-11T16:04:37Z</time></trkpt><trkpt lat="41.1236601275344" lon="13.898760762914135"><ele>9.2</ele><time>2026-04-11T16:04:38Z</time></trkpt><trkpt lat="41.12361593949565" lon="13.898885258806361"><ele>9.4</ele><time>2026-04-11T16:04:39Z</time></trkpt><trkpt lat="41.12356316045868" lon="13.899000554955895"><ele>9.6</ele><time>2026-04-11T16:04:40Z</time></trkpt><trkpt lat="41.12349674095844" lon="13.899126071650498"><ele>9.8</ele><time>2026-04-11T16:04:41Z</time></trkpt><trkpt lat="41.123431781237244" lon="13.89924627375231"><ele>10.0</ele><time>2026-04-11T16:04:42Z</time></trkpt><trkpt lat="41.12336369131618" lon="13.899347497193528"><ele>9.8</ele><time>2026-04-11T16:04:43Z</time></trkpt><trkpt lat="41.12329540840214" lon="13.899434947415763"><ele>9.6</ele><time>2026-04-11T16:04:44Z</time></trkpt><trkpt lat="41.12322514100718" lon="13.899526773432848"><ele>9.4</ele><time>2026-04-11T16:04:45Z</time></trkpt><trkpt lat="41.12314089248248" lon="13.89962525571156"><ele>9.2</ele><time>2026-04-11T16:04:46Z</time></trkpt><trkpt lat="41.12304452349318" lon="13.89972006033463"><ele>9.0</ele><time>2026-04-11T16:04:47Z</time></trkpt><trkpt lat="41.12294217931439" lon="13.899785165885476"><ele>9.0</ele><time>2026-04-11T16:04:48Z</time></trkpt><trkpt lat="41.12283012194475" lon="13.899832822882765"><ele>9.0</ele><time>2026-04-11T16:04:49Z</time></trkpt><trkpt lat="41.1227368022448" lon="13.899861401027563"><ele>9.0</ele><time>2026-04-11T16:04:50Z</time></trkpt><trkpt lat="41.122650164548475" lon="13.899876209240308"><ele>9.0</ele><time>2026-04-11T16:04:51Z</time></trkpt><trkpt lat="41.122566303921175" lon="13.899897423560624"><ele>9.0</ele><time>2026-04-11T16:04:52Z</time></trkpt><trkpt lat="41.12248355288415" lon="13.89990888751151"><ele>8.833333333333334</ele><time>2026-04-11T16:04:53Z</time></trkpt><trkpt lat="41.12239251197993" lon="13.899920970816602"><ele>8.666666666666666</ele><time>2026-04-11T16:04:54Z</time></trkpt><trkpt lat="41.122311677149874" lon="13.899925000302577"><ele>8.5</ele><time>2026-04-11T16:04:55Z</time></trkpt><trkpt lat="41.122239817101715" lon="13.899913594410517"><ele>8.333333333333332</ele><time>2026-04-11T16:04:56Z</time></trkpt><trkpt lat="41.122139586537365" lon="13.89992011693072"><ele>8.166666666666666</ele><time>2026-04-11T16:04:57Z</time></trkpt><trkpt lat="41.122041872577064" lon="13.899932491454695"><ele>8.0</ele><time>2026-04-11T16:04:58Z</time></trkpt><trkpt lat="41.12194495762313" lon="13.899944678686213"><ele>7.999999999999999</ele><time>2026-04-11T16:04:59Z</time></trkpt><trkpt lat="41.121872020508164" lon="13.899950241739676"><ele>8.0</ele><time>2026-04-11T16:05:00Z</time></trkpt><trkpt lat="41.121802925914814" lon="13.899949805983692"><ele>8.0</ele><time>2026-04-11T16:05:01Z</time></trkpt><trkpt lat="41.12172190220136" lon="13.899947011360036"><ele>8.0</ele><time>2026-04-11T16:05:02Z</time></trkpt><trkpt lat="41.1216224948052" lon="13.899940618886"><ele>7.999999999999999</ele><time>2026-04-11T16:05:03Z</time></trkpt><trkpt lat="41.12154924436704" lon="13.899949052726003"><ele>8.0</ele><time>2026-04-11T16:05:04Z</time></trkpt><trkpt lat="41.1214274581024" lon="13.899945532303091"><ele>7.6000000000000005</ele><time>2026-04-11T16:05:06Z</time></trkpt><trkpt lat="41.12134946842034" lon="13.899946077326678"><ele>7.200000000000001</ele><time>2026-04-11T16:05:07.001Z</time></trkpt><trkpt lat="41.12121161642038" lon="13.89995275807658"><ele>6.8</ele><time>2026-04-11T16:05:09.001Z</time></trkpt><trkpt lat="41.12112961962125" lon="13.899956206065216"><ele>6.4</ele><time>2026-04-11T16:05:10.001Z</time></trkpt><trkpt lat="41.12106106912791" lon="13.89994636676183"><ele>6.0</ele><time>2026-04-11T16:05:11.001Z</time></trkpt><trkpt lat="41.12094524891639" lon="13.89997243018556"><ele>6.0</ele><time>2026-04-11T16:05:13.001Z</time></trkpt><trkpt lat="41.120860923593774" lon="13.90000162306846"><ele>6.0</ele><time>2026-04-11T16:05:15.001Z</time></trkpt><trkpt lat="41.12078210844911" lon="13.89999509584552"><ele>6.0</ele><time>2026-04-11T16:05:22.001Z</time></trkpt><trkpt lat="41.12072034576728" lon="13.900016271136233"><ele>6.0</ele><time>2026-04-11T16:05:26.001Z</time></trkpt><trkpt lat="41.120645648116195" lon="13.900006645788693"><ele>6.0</ele><time>2026-04-11T16:05:43.001Z</time></trkpt><trkpt lat="41.120528097056784" lon="13.900018727841374"><ele>6.0</ele><time>2026-04-11T16:05:45.001Z</time></trkpt><trkpt lat="41.1204417387957" lon="13.90002751365347"><ele>6.666666666666667</ele><time>2026-04-11T16:05:47.001Z</time></trkpt><trkpt lat="41.12035318394158" lon="13.900029412703768"><ele>7.333333333333334</ele><time>2026-04-11T16:05:49.001Z</time></trkpt><trkpt lat="41.12028212755451" lon="13.90001963472325"><ele>8.0</ele><time>2026-04-11T16:05:54.001Z</time></trkpt><trkpt lat="41.12026074393075" lon="13.900201338679"><ele>8.666666666666668</ele><time>2026-04-11T16:05:57Z</time></trkpt><trkpt lat="41.12030185978053" lon="13.900285687642656"><ele>9.333333333333334</ele><time>2026-04-11T16:05:59Z</time></trkpt><trkpt lat="41.120341282165455" lon="13.9003587377001"><ele>10.0</ele><time>2026-04-11T16:06:01Z</time></trkpt><trkpt lat="41.12037603853416" lon="13.900477123166532"><ele>10.2</ele><time>2026-04-11T16:06:04Z</time></trkpt><trkpt lat="41.12037306475126" lon="13.900619210355876"><ele>10.4</ele><time>2026-04-11T16:06:06Z</time></trkpt><trkpt lat="41.120398800017625" lon="13.90075530161851"><ele>10.600000000000001</ele><time>2026-04-11T16:06:08Z</time></trkpt><trkpt lat="41.12043109503811" lon="13.900879982748515"><ele>10.8</ele><time>2026-04-11T16:06:10Z</time></trkpt><trkpt lat="41.120455475918874" lon="13.901006104078549"><ele>11.0</ele><time>2026-04-11T16:06:12Z</time></trkpt><trkpt lat="41.12050327264969" lon="13.901148172109007"><ele>11.4</ele><time>2026-04-11T16:06:14Z</time></trkpt><trkpt lat="41.12053850489266" lon="13.901258045122296"><ele>11.8</ele><time>2026-04-11T16:06:15Z</time></trkpt><trkpt lat="41.120580713239136" lon="13.90137956968509"><ele>12.200000000000001</ele><time>2026-04-11T16:06:16Z</time></trkpt><trkpt lat="41.12061408043983" lon="13.90151747110968"><ele>12.600000000000001</ele><time>2026-04-11T16:06:17Z</time></trkpt><trkpt lat="41.12064608082009" lon="13.901657002697036"><ele>13.0</ele><time>2026-04-11T16:06:18Z</time></trkpt><trkpt lat="41.120673448464274" lon="13.90176963465678"><ele>13.166666666666666</ele><time>2026-04-11T16:06:19Z</time></trkpt><trkpt lat="41.12069766581726" lon="13.90186647204636"><ele>13.333333333333332</ele><time>2026-04-11T16:06:20Z</time></trkpt><trkpt lat="41.1207245107665" lon="13.9019704088748"><ele>13.5</ele><time>2026-04-11T16:06:21Z</time></trkpt><trkpt lat="41.12075326464892" lon="13.902073343100653"><ele>13.666666666666668</ele><time>2026-04-11T16:06:22Z</time></trkpt><trkpt lat="41.12078746112972" lon="13.902173186039153"><ele>13.833333333333334</ele><time>2026-04-11T16:06:23Z</time></trkpt><trkpt lat="41.120824394632415" lon="13.90227509545506"><ele>14.0</ele><time>2026-04-11T16:06:24Z</time></trkpt><trkpt lat="41.12086922185185" lon="13.902380740170898"><ele>13.799999999999999</ele><time>2026-04-11T16:06:25Z</time></trkpt><trkpt lat="41.12091781439191" lon="13.902492089068096"><ele>13.599999999999998</ele><time>2026-04-11T16:06:26Z</time></trkpt><trkpt lat="41.12096157017016" lon="13.902632305526812"><ele>13.4</ele><time>2026-04-11T16:06:27Z</time></trkpt><trkpt lat="41.120999349139254" lon="13.902778092919133"><ele>13.2</ele><time>2026-04-11T16:06:28Z</time></trkpt><trkpt lat="41.12104715533268" lon="13.902923376261516"><ele>13.0</ele><time>2026-04-11T16:06:29Z</time></trkpt><trkpt lat="41.121091131857675" lon="13.903062478085934"><ele>13.0</ele><time>2026-04-11T16:06:30Z</time></trkpt><trkpt lat="41.121139045189054" lon="13.90318831690065"><ele>13.0</ele><time>2026-04-11T16:06:31Z</time></trkpt><trkpt lat="41.12117437043951" lon="13.903301169455988"><ele>13.0</ele><time>2026-04-11T16:06:32Z</time></trkpt><trkpt lat="41.12120427556757" lon="13.903418008688863"><ele>13.0</ele><time>2026-04-11T16:06:33Z</time></trkpt><trkpt lat="41.12124178143255" lon="13.90352412256892"><ele>13.0</ele><time>2026-04-11T16:06:34Z</time></trkpt><trkpt lat="41.12126273921717" lon="13.903635092035703"><ele>13.333333333333332</ele><time>2026-04-11T16:06:35Z</time></trkpt><trkpt lat="41.12129810784926" lon="13.90374606219848"><ele>13.666666666666666</ele><time>2026-04-11T16:06:36Z</time></trkpt><trkpt lat="41.1213335750881" lon="13.903852104148363"><ele>14.0</ele><time>2026-04-11T16:06:37Z</time></trkpt><trkpt lat="41.121366202606346" lon="13.90394661545213"><ele>14.333333333333332</ele><time>2026-04-11T16:06:38Z</time></trkpt><trkpt lat="41.12140467977793" lon="13.904039484370127"><ele>14.666666666666666</ele><time>2026-04-11T16:06:39Z</time></trkpt><trkpt lat="41.12144102223406" lon="13.904119207797523"><ele>15.0</ele><time>2026-04-11T16:06:40Z</time></trkpt><trkpt lat="41.121491467348385" lon="13.904223472995385"><ele>15.666666666666666</ele><time>2026-04-11T16:06:42Z</time></trkpt><trkpt lat="41.121525348868246" lon="13.904315061641395"><ele>16.333333333333332</ele><time>2026-04-11T16:06:45Z</time></trkpt><trkpt lat="41.12144526068818" lon="13.904361909366461"><ele>17.0</ele><time>2026-04-11T16:06:47Z</time></trkpt><trkpt lat="41.121335555640385" lon="13.904361279538517"><ele>17.666666666666664</ele><time>2026-04-11T16:06:49Z</time></trkpt><trkpt lat="41.121274303186595" lon="13.904383279475978"><ele>18.333333333333332</ele><time>2026-04-11T16:06:50Z</time></trkpt><trkpt lat="41.12120539487537" lon="13.90439929804475"><ele>19.0</ele><time>2026-04-11T16:06:51Z</time></trkpt><trkpt lat="41.12114140927284" lon="13.90444004084235"><ele>19.0</ele><time>2026-04-11T16:06:52Z</time></trkpt><trkpt lat="41.12105035596376" lon="13.904466426626357"><ele>19.0</ele><time>2026-04-11T16:06:53Z</time></trkpt><trkpt lat="41.12097421357781" lon="13.904469212552181"><ele>19.0</ele><time>2026-04-11T16:06:54Z</time></trkpt><trkpt lat="41.120897660846964" lon="13.904502683881503"><ele>19.0</ele><time>2026-04-11T16:06:55Z</time></trkpt><trkpt lat="41.120824362403866" lon="13.904530971317886"><ele>19.0</ele><time>2026-04-11T16:06:56Z</time></trkpt><trkpt lat="41.12074845882224" lon="13.904555437393173"><ele>19.0</ele><time>2026-04-11T16:06:57Z</time></trkpt><trkpt lat="41.120642183803795" lon="13.904574779884795"><ele>19.4</ele><time>2026-04-11T16:06:58Z</time></trkpt><trkpt lat="41.12055769562539" lon="13.904598471213149"><ele>19.799999999999997</ele><time>2026-04-11T16:06:59Z</time></trkpt><trkpt lat="41.12048200291083" lon="13.904611083407453"><ele>20.200000000000003</ele><time>2026-04-11T16:07:00Z</time></trkpt><trkpt lat="41.120417931157675" lon="13.904625990162048"><ele>20.6</ele><time>2026-04-11T16:07:01Z</time></trkpt><trkpt lat="41.120293717793686" lon="13.904681220857547"><ele>21.0</ele><time>2026-04-11T16:07:03Z</time></trkpt><trkpt lat="41.12018358635892" lon="13.904728851975914"><ele>21.0</ele><time>2026-04-11T16:07:05Z</time></trkpt><trkpt lat="41.120102230774705" lon="13.904777524293463"><ele>21.0</ele><time>2026-04-11T16:07:07Z</time></trkpt><trkpt lat="41.12003720731679" lon="13.904775762903103"><ele>21.0</ele><time>2026-04-11T16:07:09Z</time></trkpt><trkpt lat="41.11997522657431" lon="13.904796507740762"><ele>21.0</ele><time>2026-04-11T16:07:12Z</time></trkpt><trkpt lat="41.11990612048365" lon="13.904830739385309"><ele>21.0</ele><time>2026-04-11T16:07:16Z</time></trkpt><trkpt lat="41.119838047767196" lon="13.904832039402592"><ele>21.0</ele><time>2026-04-11T16:07:20Z</time></trkpt><trkpt lat="41.1197328880804" lon="13.904863128667452"><ele>21.200000000000003</ele><time>2026-04-11T16:07:24.001Z</time></trkpt><trkpt lat="41.11966248167671" lon="13.90488563727153"><ele>21.400000000000002</ele><time>2026-04-11T16:07:30.001Z</time></trkpt><trkpt lat="41.11969919961668" lon="13.905096577564656"><ele>21.6</ele><time>2026-04-11T16:07:32.001Z</time></trkpt><trkpt lat="41.11971613175356" lon="13.905178161825164"><ele>21.8</ele><time>2026-04-11T16:07:33.001Z</time></trkpt><trkpt lat="41.119738144319676" lon="13.905271598750055"><ele>22.0</ele><time>2026-04-11T16:07:34.001Z</time></trkpt><trkpt lat="41.1197737742066" lon="13.90537927743066"><ele>22.0</ele><time>2026-04-11T16:07:35.001Z</time></trkpt><trkpt lat="41.1197983686462" lon="13.905488669515783"><ele>22.0</ele><time>2026-04-11T16:07:36.001Z</time></trkpt><trkpt lat="41.11984499775959" lon="13.905607159129168"><ele>22.0</ele><time>2026-04-11T16:07:37.001Z</time></trkpt><trkpt lat="41.11986034387332" lon="13.905759975232964"><ele>22.0</ele><time>2026-04-11T16:07:38.001Z</time></trkpt><trkpt lat="41.11990096997669" lon="13.905890957526873"><ele>22.0</ele><time>2026-04-11T16:07:39.001Z</time></trkpt><trkpt lat="41.11994037289222" lon="13.906034941171214"><ele>22.25</ele><time>2026-04-11T16:07:40.001Z</time></trkpt><trkpt lat="41.119982738710064" lon="13.906173779781811"><ele>22.5</ele><time>2026-04-11T16:07:41.001Z</time></trkpt><trkpt lat="41.120023318526144" lon="13.906318457695784"><ele>22.75</ele><time>2026-04-11T16:07:42.001Z</time></trkpt><trkpt lat="41.12007464493324" lon="13.90645538944602"><ele>23.0</ele><time>2026-04-11T16:07:43.001Z</time></trkpt><trkpt lat="41.120119584506114" lon="13.90658921978224"><ele>23.0</ele><time>2026-04-11T16:07:44.001Z</time></trkpt><trkpt lat="41.12016832398149" lon="13.90671545479406"><ele>23.0</ele><time>2026-04-11T16:07:45.001Z</time></trkpt><trkpt lat="41.120218992770056" lon="13.906839844368633"><ele>23.0</ele><time>2026-04-11T16:07:46.001Z</time></trkpt><trkpt lat="41.120264260681026" lon="13.906964509001897"><ele>23.0</ele><time>2026-04-11T16:07:47.001Z</time></trkpt><trkpt lat="41.12031815710326" lon="13.907089650441044"><ele>23.0</ele><time>2026-04-11T16:07:48.001Z</time></trkpt><trkpt lat="41.12036706352397" lon="13.907211825485003"><ele>23.0</ele><time>2026-04-11T16:07:49.001Z</time></trkpt><trkpt lat="41.120419594901875" lon="13.907341087243676"><ele>23.0</ele><time>2026-04-11T16:07:50.001Z</time></trkpt><trkpt lat="41.120480556747204" lon="13.90748105085866"><ele>23.0</ele><time>2026-04-11T16:07:51.001Z</time></trkpt><trkpt lat="41.12053876800312" lon="13.907620500740215"><ele>23.0</ele><time>2026-04-11T16:07:52.001Z</time></trkpt><trkpt lat="41.12059651559028" lon="13.907759500847126"><ele>23.0</ele><time>2026-04-11T16:07:53.001Z</time></trkpt><trkpt lat="41.120653813387385" lon="13.907908150242198"><ele>23.0</ele><time>2026-04-11T16:07:54.001Z</time></trkpt><trkpt lat="41.120713171027056" lon="13.908051829356696"><ele>23.0</ele><time>2026-04-11T16:07:55.001Z</time></trkpt><trkpt lat="41.12076948049909" lon="13.90819158375545"><ele>23.0</ele><time>2026-04-11T16:07:56.001Z</time></trkpt><trkpt lat="41.12081883256357" lon="13.908306680092632"><ele>23.5</ele><time>2026-04-11T16:07:57.001Z</time></trkpt><trkpt lat="41.12086094976331" lon="13.90841775037459"><ele>24.0</ele><time>2026-04-11T16:07:58.001Z</time></trkpt><trkpt lat="41.12090559708609" lon="13.908519987778847"><ele>24.5</ele><time>2026-04-11T16:07:59.001Z</time></trkpt><trkpt lat="41.12094089977032" lon="13.90860333914259"><ele>25.0</ele><time>2026-04-11T16:08:00.001Z</time></trkpt><trkpt lat="41.1209814433306" lon="13.908696130115384"><ele>25.499999999999996</ele><time>2026-04-11T16:08:01.999Z</time></trkpt><trkpt lat="41.12101780011006" lon="13.90877037112681"><ele>26.0</ele><time>2026-04-11T16:08:03.999Z</time></trkpt><trkpt lat="41.12104389133232" lon="13.908879183063732"><ele>25.999999999999996</ele><time>2026-04-11T16:08:06.999Z</time></trkpt><trkpt lat="41.12103486087119" lon="13.908969658009688"><ele>26.0</ele><time>2026-04-11T16:08:08.999Z</time></trkpt><trkpt lat="41.12091369078782" lon="13.908978683543221"><ele>26.0</ele><time>2026-04-11T16:08:11Z</time></trkpt><trkpt lat="41.120838376578035" lon="13.90899481241224"><ele>26.0</ele><time>2026-04-11T16:08:12Z</time></trkpt><trkpt lat="41.120758612237275" lon="13.90898931189913"><ele>25.999999999999996</ele><time>2026-04-11T16:08:13Z</time></trkpt><trkpt lat="41.12067479987658" lon="13.908983462185802"><ele>26.0</ele><time>2026-04-11T16:08:14Z</time></trkpt><trkpt lat="41.12057294863143" lon="13.908974433827172"><ele>25.25</ele><time>2026-04-11T16:08:15Z</time></trkpt><trkpt lat="41.12046236965299" lon="13.908966027523277"><ele>24.5</ele><time>2026-04-11T16:08:16Z</time></trkpt><trkpt lat="41.12034944520963" lon="13.908965647769598"><ele>23.75</ele><time>2026-04-11T16:08:17Z</time></trkpt><trkpt lat="41.12022468629905" lon="13.908957999280878"><ele>23.0</ele><time>2026-04-11T16:08:18Z</time></trkpt><trkpt lat="41.120100590338176" lon="13.908953184565974"><ele>23.0</ele><time>2026-04-11T16:08:19Z</time></trkpt><trkpt lat="41.11997470733378" lon="13.90894013720437"><ele>23.0</ele><time>2026-04-11T16:08:20Z</time></trkpt><trkpt lat="41.11986102200674" lon="13.90893533467628"><ele>23.0</ele><time>2026-04-11T16:08:21Z</time></trkpt><trkpt lat="41.119766109166925" lon="13.908926268920084"><ele>23.0</ele><time>2026-04-11T16:08:22Z</time></trkpt><trkpt lat="41.11966881585655" lon="13.90889280494166"><ele>23.0</ele><time>2026-04-11T16:08:23Z</time></trkpt><trkpt lat="41.1195507545191" lon="13.908889874903165"><ele>22.799999999999997</ele><time>2026-04-11T16:08:24Z</time></trkpt><trkpt lat="41.11945266129812" lon="13.908873068388335"><ele>22.6</ele><time>2026-04-11T16:08:25Z</time></trkpt><trkpt lat="41.11936270113686" lon="13.908856728554477"><ele>22.4</ele><time>2026-04-11T16:08:26Z</time></trkpt><trkpt lat="41.119280521928886" lon="13.908841116123225"><ele>22.200000000000003</ele><time>2026-04-11T16:08:27Z</time></trkpt><trkpt lat="41.11920917475345" lon="13.908830087056222"><ele>22.0</ele><time>2026-04-11T16:08:28Z</time></trkpt><trkpt lat="41.119096921554146" lon="13.908813017211912"><ele>22.0</ele><time>2026-04-11T16:08:30Z</time></trkpt><trkpt lat="41.11899729676463" lon="13.90882032129117"><ele>22.0</ele><time>2026-04-11T16:08:32Z</time></trkpt><trkpt lat="41.11892562481114" lon="13.908795154834166"><ele>22.0</ele><time>2026-04-11T16:08:35Z</time></trkpt><trkpt lat="41.118795085267976" lon="13.90877603854492"><ele>22.0</ele><time>2026-04-11T16:08:38Z</time></trkpt><trkpt lat="41.11870645968378" lon="13.908761540945708"><ele>22.0</ele><time>2026-04-11T16:08:39Z</time></trkpt><trkpt lat="41.11862893838778" lon="13.908751905388655"><ele>22.0</ele><time>2026-04-11T16:08:40Z</time></trkpt><trkpt lat="41.11851220399957" lon="13.90874003938781"><ele>22.0</ele><time>2026-04-11T16:08:42Z</time></trkpt><trkpt lat="41.11844442186363" lon="13.908733149360524"><ele>22.0</ele><time>2026-04-11T16:08:43Z</time></trkpt><trkpt lat="41.11835437821812" lon="13.90872399645788"><ele>22.0</ele><time>2026-04-11T16:08:44Z</time></trkpt><trkpt lat="41.11825534968055" lon="13.908713930247234"><ele>22.0</ele><time>2026-04-11T16:08:45Z</time></trkpt><trkpt lat="41.11813134339113" lon="13.908700044623565"><ele>21.666666666666664</ele><time>2026-04-11T16:08:46Z</time></trkpt><trkpt lat="41.11796964704528" lon="13.90870294314821"><ele>21.333333333333332</ele><time>2026-04-11T16:08:47Z</time></trkpt><trkpt lat="41.117819574292994" lon="13.908672686872407"><ele>21.0</ele><time>2026-04-11T16:08:48Z</time></trkpt><trkpt lat="41.11768335090093" lon="13.908648850136844"><ele>21.0</ele><time>2026-04-11T16:08:49Z</time></trkpt><trkpt lat="41.11756586546881" lon="13.908629325156284"><ele>21.0</ele><time>2026-04-11T16:08:50Z</time></trkpt><trkpt lat="41.117442653189876" lon="13.908617492664508"><ele>21.0</ele><time>2026-04-11T16:08:51Z</time></trkpt><trkpt lat="41.11731447102615" lon="13.908607113089536"><ele>21.0</ele><time>2026-04-11T16:08:52Z</time></trkpt><trkpt lat="41.117186238174554" lon="13.90859697136588"><ele>20.75</ele><time>2026-04-11T16:08:53Z</time></trkpt><trkpt lat="41.117055736649284" lon="13.908583891263877"><ele>20.5</ele><time>2026-04-11T16:08:54Z</time></trkpt><trkpt lat="41.116933829384905" lon="13.908564368440977"><ele>20.25</ele><time>2026-04-11T16:08:55Z</time></trkpt><trkpt lat="41.11680859569077" lon="13.908554723325908"><ele>20.0</ele><time>2026-04-11T16:08:56Z</time></trkpt><trkpt lat="41.1166902373971" lon="13.908547210499174"><ele>20.0</ele><time>2026-04-11T16:08:57Z</time></trkpt><trkpt lat="41.116590257605694" lon="13.908536332142845"><ele>20.0</ele><time>2026-04-11T16:08:58Z</time></trkpt><trkpt lat="41.11648550397436" lon="13.908521601639066"><ele>20.0</ele><time>2026-04-11T16:08:59Z</time></trkpt><trkpt lat="41.11638055808643" lon="13.908510177078089"><ele>20.0</ele><time>2026-04-11T16:09:00Z</time></trkpt><trkpt lat="41.11627034709078" lon="13.90849536258992"><ele>20.0</ele><time>2026-04-11T16:09:01Z</time></trkpt><trkpt lat="41.116158987357046" lon="13.908483223474937"><ele>18.75</ele><time>2026-04-11T16:09:02Z</time></trkpt><trkpt lat="41.116038505258636" lon="13.908467629984218"><ele>17.5</ele><time>2026-04-11T16:09:03Z</time></trkpt><trkpt lat="41.11591101231119" lon="13.908449077327115"><ele>16.25</ele><time>2026-04-11T16:09:04Z</time></trkpt><trkpt lat="41.1157782396438" lon="13.908431627327962"><ele>15.0</ele><time>2026-04-11T16:09:05Z</time></trkpt><trkpt lat="41.11567911447917" lon="13.908412382582888"><ele>14.666666666666666</ele><time>2026-04-11T16:09:06Z</time></trkpt><trkpt lat="41.11557897349525" lon="13.908392360587989"><ele>14.333333333333332</ele><time>2026-04-11T16:09:07Z</time></trkpt><trkpt lat="41.115486787838684" lon="13.90838129391105"><ele>14.0</ele><time>2026-04-11T16:09:08Z</time></trkpt><trkpt lat="41.11540429064164" lon="13.908367386604349"><ele>13.666666666666666</ele><time>2026-04-11T16:09:09Z</time></trkpt><trkpt lat="41.115322866868205" lon="13.908357749746072"><ele>13.333333333333332</ele><time>2026-04-11T16:09:10Z</time></trkpt><trkpt lat="41.11524287147127" lon="13.908360190086007"><ele>13.0</ele><time>2026-04-11T16:09:11Z</time></trkpt><trkpt lat="41.11511804271635" lon="13.908351397831215"><ele>13.0</ele><time>2026-04-11T16:09:13Z</time></trkpt><trkpt lat="41.1150087988797" lon="13.908336649325998"><ele>13.0</ele><time>2026-04-11T16:09:15Z</time></trkpt><trkpt lat="41.11494393574991" lon="13.908305500113181"><ele>13.0</ele><time>2026-04-11T16:09:16Z</time></trkpt><trkpt lat="41.11483769637164" lon="13.908290677587885"><ele>13.0</ele><time>2026-04-11T16:09:18Z</time></trkpt><trkpt lat="41.11475607200508" lon="13.908299075096641"><ele>13.0</ele><time>2026-04-11T16:09:20Z</time></trkpt><trkpt lat="41.11466164321532" lon="13.908285743758336"><ele>12.8</ele><time>2026-04-11T16:09:22Z</time></trkpt><trkpt lat="41.114585541198615" lon="13.90827970240993"><ele>12.600000000000001</ele><time>2026-04-11T16:09:24Z</time></trkpt><trkpt lat="41.11452082294401" lon="13.908233114096008"><ele>12.399999999999999</ele><time>2026-04-11T16:09:27.001Z</time></trkpt><trkpt lat="41.114534847476946" lon="13.908425411805066"><ele>12.2</ele><time>2026-04-11T16:09:29.001Z</time></trkpt><trkpt lat="41.114467571896405" lon="13.90852850372824"><ele>12.0</ele><time>2026-04-11T16:09:30.001Z</time></trkpt><trkpt lat="41.11443536357149" lon="13.90868886368288"><ele>12.0</ele><time>2026-04-11T16:09:31.001Z</time></trkpt><trkpt lat="41.1144046903345" lon="13.908865196462566"><ele>12.0</ele><time>2026-04-11T16:09:32.001Z</time></trkpt><trkpt lat="41.11438946355536" lon="13.909040299510503"><ele>12.0</ele><time>2026-04-11T16:09:33.001Z</time></trkpt><trkpt lat="41.11436782308376" lon="13.90917552365691"><ele>12.0</ele><time>2026-04-11T16:09:34.001Z</time></trkpt><trkpt lat="41.114348765748176" lon="13.909328307385023"><ele>12.0</ele><time>2026-04-11T16:09:35.001Z</time></trkpt><trkpt lat="41.11433709948319" lon="13.909472049423027"><ele>12.0</ele><time>2026-04-11T16:09:36.001Z</time></trkpt><trkpt lat="41.11432546473898" lon="13.909607114613982"><ele>12.0</ele><time>2026-04-11T16:09:37.001Z</time></trkpt><trkpt lat="41.11431153425573" lon="13.909733910592172"><ele>12.0</ele><time>2026-04-11T16:09:38.001Z</time></trkpt><trkpt lat="41.11430082168537" lon="13.90988248593735"><ele>12.0</ele><time>2026-04-11T16:09:39.001Z</time></trkpt><trkpt lat="41.11428358076815" lon="13.910028532524853"><ele>11.75</ele><time>2026-04-11T16:09:40.001Z</time></trkpt><trkpt lat="41.11427156820883" lon="13.910179889077389"><ele>11.5</ele><time>2026-04-11T16:09:41.001Z</time></trkpt><trkpt lat="41.114262670306104" lon="13.910335499800386"><ele>11.25</ele><time>2026-04-11T16:09:42.001Z</time></trkpt><trkpt lat="41.11424969847439" lon="13.910509434015756"><ele>11.0</ele><time>2026-04-11T16:09:43.001Z</time></trkpt><trkpt lat="41.11424925562064" lon="13.910675270954597"><ele>11.0</ele><time>2026-04-11T16:09:44.001Z</time></trkpt><trkpt lat="41.114238543229106" lon="13.910836751356719"><ele>11.0</ele><time>2026-04-11T16:09:45.001Z</time></trkpt><trkpt lat="41.114227303029885" lon="13.911005985265001"><ele>11.0</ele><time>2026-04-11T16:09:46.001Z</time></trkpt><trkpt lat="41.114221447865" lon="13.91114654927453"><ele>11.0</ele><time>2026-04-11T16:09:47.001Z</time></trkpt><trkpt lat="41.114209410869" lon="13.911284436659827"><ele>11.0</ele><time>2026-04-11T16:09:48.001Z</time></trkpt><trkpt lat="41.11420313048854" lon="13.911410659135687"><ele>11.0</ele><time>2026-04-11T16:09:49.001Z</time></trkpt><trkpt lat="41.11418573238351" lon="13.911521663159041"><ele>11.0</ele><time>2026-04-11T16:09:50.001Z</time></trkpt><trkpt lat="41.114132730934315" lon="13.911594834248834"><ele>11.0</ele><time>2026-04-11T16:09:51.001Z</time></trkpt><trkpt lat="41.11407192401497" lon="13.911687283404518"><ele>11.0</ele><time>2026-04-11T16:09:52.001Z</time></trkpt><trkpt lat="41.113998199783694" lon="13.911753504450338"><ele>11.0</ele><time>2026-04-11T16:09:53.001Z</time></trkpt><trkpt lat="41.113903481544604" lon="13.911813001981251"><ele>10.5</ele><time>2026-04-11T16:09:54.001Z</time></trkpt><trkpt lat="41.113792615963135" lon="13.91183011693563"><ele>10.0</ele><time>2026-04-11T16:09:55.001Z</time></trkpt><trkpt lat="41.1136738993421" lon="13.911835200631952"><ele>9.5</ele><time>2026-04-11T16:09:56.001Z</time></trkpt><trkpt lat="41.11354778554271" lon="13.911865111869904"><ele>9.0</ele><time>2026-04-11T16:09:57.001Z</time></trkpt><trkpt lat="41.11342462354963" lon="13.911899115818754"><ele>9.0</ele><time>2026-04-11T16:09:58.001Z</time></trkpt><trkpt lat="41.11329634628583" lon="13.911929118277087"><ele>9.0</ele><time>2026-04-11T16:09:59.001Z</time></trkpt><trkpt lat="41.113161661896704" lon="13.911959733643474"><ele>9.0</ele><time>2026-04-11T16:10:00.001Z</time></trkpt><trkpt lat="41.11302851151363" lon="13.912002407265572"><ele>9.0</ele><time>2026-04-11T16:10:01.001Z</time></trkpt><trkpt lat="41.11291772204985" lon="13.912056403118333"><ele>8.5</ele><time>2026-04-11T16:10:02.001Z</time></trkpt><trkpt lat="41.11278401785989" lon="13.912085977316158"><ele>8.0</ele><time>2026-04-11T16:10:03.001Z</time></trkpt><trkpt lat="41.112661627272345" lon="13.912107302936926"><ele>7.5</ele><time>2026-04-11T16:10:04.001Z</time></trkpt><trkpt lat="41.11253365004499" lon="13.912132224512415"><ele>7.0</ele><time>2026-04-11T16:10:05.001Z</time></trkpt><trkpt lat="41.11244674247563" lon="13.912396411609423"><ele>7.0</ele><time>2026-04-11T16:10:06.001Z</time></trkpt><trkpt lat="41.11234112552133" lon="13.912538539818355"><ele>7.0</ele><time>2026-04-11T16:10:07.001Z</time></trkpt><trkpt lat="41.11225548640057" lon="13.912716367614173"><ele>7.0</ele><time>2026-04-11T16:10:08Z</time></trkpt><trkpt lat="41.11216852147839" lon="13.912907789919778"><ele>7.0</ele><time>2026-04-11T16:10:09Z</time></trkpt><trkpt lat="41.112103616044045" lon="13.913127974688917"><ele>7.0</ele><time>2026-04-11T16:10:10Z</time></trkpt><trkpt lat="41.11203426096746" lon="13.913360259820449"><ele>7.0</ele><time>2026-04-11T16:10:11Z</time></trkpt><trkpt lat="41.11197038649459" lon="13.913591807549299"><ele>7.333333333333334</ele><time>2026-04-11T16:10:12Z</time></trkpt><trkpt lat="41.11189008368481" lon="13.913814517140016"><ele>7.666666666666666</ele><time>2026-04-11T16:10:13Z</time></trkpt><trkpt lat="41.11181230170737" lon="13.914053674954888"><ele>8.0</ele><time>2026-04-11T16:10:14Z</time></trkpt><trkpt lat="41.11172832218052" lon="13.914275245522239"><ele>8.333333333333332</ele><time>2026-04-11T16:10:15Z</time></trkpt><trkpt lat="41.11164113925466" lon="13.914499395156124"><ele>8.666666666666666</ele><time>2026-04-11T16:10:16Z</time></trkpt><trkpt lat="41.11154416863905" lon="13.914732880179416"><ele>9.0</ele><time>2026-04-11T16:10:17Z</time></trkpt><trkpt lat="41.11144821299228" lon="13.91496102947349"><ele>9.0</ele><time>2026-04-11T16:10:18Z</time></trkpt><trkpt lat="41.11134689679189" lon="13.91520004641471"><ele>9.0</ele><time>2026-04-11T16:10:19Z</time></trkpt><trkpt lat="41.11125438472094" lon="13.915434245399021"><ele>9.0</ele><time>2026-04-11T16:10:20Z</time></trkpt><trkpt lat="41.11114557995778" lon="13.915673042230596"><ele>9.0</ele><time>2026-04-11T16:10:21Z</time></trkpt><trkpt lat="41.11104994438523" lon="13.91589385825688"><ele>9.0</ele><time>2026-04-11T16:10:22Z</time></trkpt><trkpt lat="41.11094425930425" lon="13.916117743772942"><ele>9.0</ele><time>2026-04-11T16:10:23Z</time></trkpt><trkpt lat="41.11083683456433" lon="13.9163542254477"><ele>9.0</ele><time>2026-04-11T16:10:24Z</time></trkpt><trkpt lat="41.1107064002756" lon="13.916554231156125"><ele>9.0</ele><time>2026-04-11T16:10:25Z</time></trkpt><trkpt lat="41.11055382465323" lon="13.916772381378534"><ele>9.0</ele><time>2026-04-11T16:10:26Z</time></trkpt><trkpt lat="41.11038594227792" lon="13.916974655608543"><ele>9.0</ele><time>2026-04-11T16:10:27Z</time></trkpt><trkpt lat="41.11021067679422" lon="13.91716177881781"><ele>9.0</ele><time>2026-04-11T16:10:28Z</time></trkpt><trkpt lat="41.11003987332437" lon="13.91731109065221"><ele>9.0</ele><time>2026-04-11T16:10:29Z</time></trkpt><trkpt lat="41.109882124980516" lon="13.917422822156093"><ele>9.0</ele><time>2026-04-11T16:10:30Z</time></trkpt><trkpt lat="41.109742373312606" lon="13.917538568365465"><ele>9.0</ele><time>2026-04-11T16:10:31Z</time></trkpt><trkpt lat="41.10962108456376" lon="13.91767432047107"><ele>9.0</ele><time>2026-04-11T16:10:32Z</time></trkpt><trkpt lat="41.10951232405668" lon="13.91783938594166"><ele>9.0</ele><time>2026-04-11T16:10:33Z</time></trkpt><trkpt lat="41.10942178719574" lon="13.918028109047786"><ele>9.0</ele><time>2026-04-11T16:10:34Z</time></trkpt><trkpt lat="41.109340756609754" lon="13.918244951700093"><ele>9.0</ele><time>2026-04-11T16:10:35Z</time></trkpt><trkpt lat="41.109274478433406" lon="13.918495571462046"><ele>9.0</ele><time>2026-04-11T16:10:36Z</time></trkpt><trkpt lat="41.10922833208685" lon="13.918716631645182"><ele>9.0</ele><time>2026-04-11T16:10:37Z</time></trkpt><trkpt lat="41.109172216009895" lon="13.918916181070008"><ele>9.0</ele><time>2026-04-11T16:10:38Z</time></trkpt><trkpt lat="41.109072359120596" lon="13.919097514077912"><ele>8.333333333333334</ele><time>2026-04-11T16:10:39Z</time></trkpt><trkpt lat="41.10895264652396" lon="13.919294157032711"><ele>7.666666666666667</ele><time>2026-04-11T16:10:40Z</time></trkpt><trkpt lat="41.108816006087444" lon="13.919518868619726"><ele>7.0</ele><time>2026-04-11T16:10:41Z</time></trkpt><trkpt lat="41.108674146185216" lon="13.919755185860136"><ele>7.0</ele><time>2026-04-11T16:10:42Z</time></trkpt><trkpt lat="41.108527891943886" lon="13.920003955736453"><ele>7.0</ele><time>2026-04-11T16:10:43Z</time></trkpt><trkpt lat="41.10838830985571" lon="13.920244212402585"><ele>7.0</ele><time>2026-04-11T16:10:44Z</time></trkpt><trkpt lat="41.10827309755117" lon="13.920445516677056"><ele>7.0</ele><time>2026-04-11T16:10:45Z</time></trkpt><trkpt lat="41.10817395760293" lon="13.920624294301772"><ele>7.0</ele><time>2026-04-11T16:10:46Z</time></trkpt><trkpt lat="41.108107285362664" lon="13.920790140763778"><ele>7.25</ele><time>2026-04-11T16:10:47Z</time></trkpt><trkpt lat="41.10805210812872" lon="13.920926429998296"><ele>7.5</ele><time>2026-04-11T16:10:48Z</time></trkpt><trkpt lat="41.10801223423892" lon="13.92105774922475"><ele>7.75</ele><time>2026-04-11T16:10:49Z</time></trkpt><trkpt lat="41.10804277802456" lon="13.921206138063459"><ele>8.0</ele><time>2026-04-11T16:10:50Z</time></trkpt><trkpt lat="41.10808609664708" lon="13.921365946886537"><ele>8.0</ele><time>2026-04-11T16:10:51Z</time></trkpt><trkpt lat="41.10815294587128" lon="13.921539227707598"><ele>8.0</ele><time>2026-04-11T16:10:52Z</time></trkpt><trkpt lat="41.108236373578706" lon="13.921715558077498"><ele>8.0</ele><time>2026-04-11T16:10:53Z</time></trkpt><trkpt lat="41.10832671133164" lon="13.921920943032594"><ele>8.333333333333332</ele><time>2026-04-11T16:10:54Z</time></trkpt><trkpt lat="41.108430834157815" lon="13.922138973483321"><ele>8.666666666666666</ele><time>2026-04-11T16:10:55Z</time></trkpt><trkpt lat="41.10854248727689" lon="13.922368402070779"><ele>9.0</ele><time>2026-04-11T16:10:56Z</time></trkpt><trkpt lat="41.10865272268653" lon="13.922608811155959"><ele>9.333333333333334</ele><time>2026-04-11T16:10:57Z</time></trkpt><trkpt lat="41.108765833060374" lon="13.922854474999557"><ele>9.666666666666668</ele><time>2026-04-11T16:10:58Z</time></trkpt><trkpt lat="41.10888573941211" lon="13.923109825173741"><ele>10.0</ele><time>2026-04-11T16:10:59Z</time></trkpt><trkpt lat="41.10901358512137" lon="13.923342871055876"><ele>10.5</ele><time>2026-04-11T16:11:00Z</time></trkpt><trkpt lat="41.10915017942157" lon="13.923593660501574"><ele>11.0</ele><time>2026-04-11T16:11:01Z</time></trkpt><trkpt lat="41.10930497207828" lon="13.923828048530718"><ele>11.0</ele><time>2026-04-11T16:11:02Z</time></trkpt><trkpt lat="41.109463719732545" lon="13.924048126293927"><ele>11.0</ele><time>2026-04-11T16:11:03Z</time></trkpt><trkpt lat="41.10961265217107" lon="13.924269866981316"><ele>10.333333333333332</ele><time>2026-04-11T16:11:04Z</time></trkpt><trkpt lat="41.10975519867677" lon="13.924462026887785"><ele>9.666666666666666</ele><time>2026-04-11T16:11:05Z</time></trkpt><trkpt lat="41.1098925134238" lon="13.924622242233031"><ele>9.0</ele><time>2026-04-11T16:11:06Z</time></trkpt><trkpt lat="41.10999411346567" lon="13.924806365241446"><ele>9.0</ele><time>2026-04-11T16:11:07Z</time></trkpt><trkpt lat="41.11007034303754" lon="13.925014812743226"><ele>9.0</ele><time>2026-04-11T16:11:08Z</time></trkpt><trkpt lat="41.110142278322286" lon="13.925260493521618"><ele>9.0</ele><time>2026-04-11T16:11:09Z</time></trkpt><trkpt lat="41.11020478586112" lon="13.925528294715422"><ele>9.333333333333334</ele><time>2026-04-11T16:11:10Z</time></trkpt><trkpt lat="41.1102629213601" lon="13.92580489785396"><ele>9.666666666666668</ele><time>2026-04-11T16:11:11Z</time></trkpt><trkpt lat="41.11032666079865" lon="13.926084168685627"><ele>10.0</ele><time>2026-04-11T16:11:12Z</time></trkpt><trkpt lat="41.110405169867924" lon="13.926375121133267"><ele>10.0</ele><time>2026-04-11T16:11:13Z</time></trkpt><trkpt lat="41.110495644229786" lon="13.92665906161521"><ele>10.0</ele><time>2026-04-11T16:11:14Z</time></trkpt><trkpt lat="41.110605174013216" lon="13.926939682105067"><ele>10.5</ele><time>2026-04-11T16:11:15Z</time></trkpt><trkpt lat="41.11072687632726" lon="13.92721453907015"><ele>11.0</ele><time>2026-04-11T16:11:16Z</time></trkpt><trkpt lat="41.11084861277475" lon="13.927484677486502"><ele>11.333333333333332</ele><time>2026-04-11T16:11:17Z</time></trkpt><trkpt lat="41.11094195211175" lon="13.92774181805748"><ele>11.666666666666666</ele><time>2026-04-11T16:11:18Z</time></trkpt><trkpt lat="41.11105009820739" lon="13.927975718304829"><ele>12.0</ele><time>2026-04-11T16:11:19Z</time></trkpt><trkpt lat="41.11113509802745" lon="13.928241818060927"><ele>12.0</ele><time>2026-04-11T16:11:20Z</time></trkpt><trkpt lat="41.11120612076295" lon="13.928522985815238"><ele>12.0</ele><time>2026-04-11T16:11:21Z</time></trkpt><trkpt lat="41.111274550219456" lon="13.92882056564655"><ele>12.0</ele><time>2026-04-11T16:11:22.001Z</time></trkpt><trkpt lat="41.11133580271207" lon="13.929130539708567"><ele>12.0</ele><time>2026-04-11T16:11:23.001Z</time></trkpt><trkpt lat="41.111388481084745" lon="13.929444332280958"><ele>12.0</ele><time>2026-04-11T16:11:24.001Z</time></trkpt><trkpt lat="41.11144488685087" lon="13.929736134204369"><ele>12.0</ele><time>2026-04-11T16:11:25.001Z</time></trkpt><trkpt lat="41.11152267355775" lon="13.930025776148257"><ele>12.0</ele><time>2026-04-11T16:11:26.001Z</time></trkpt><trkpt lat="41.11160666441528" lon="13.930294014685783"><ele>12.0</ele><time>2026-04-11T16:11:27.001Z</time></trkpt><trkpt lat="41.11168939582876" lon="13.930545757279887"><ele>12.0</ele><time>2026-04-11T16:11:28.001Z</time></trkpt><trkpt lat="41.11177416629553" lon="13.930788602146555"><ele>11.666666666666666</ele><time>2026-04-11T16:11:29.001Z</time></trkpt><trkpt lat="41.111878563967835" lon="13.931033288317268"><ele>11.333333333333332</ele><time>2026-04-11T16:11:30.001Z</time></trkpt><trkpt lat="41.112015435647415" lon="13.93128960325713"><ele>11.0</ele><time>2026-04-11T16:11:31.001Z</time></trkpt><trkpt lat="41.11213761829215" lon="13.931541821460172"><ele>11.5</ele><time>2026-04-11T16:11:32.001Z</time></trkpt><trkpt lat="41.112265720738954" lon="13.931798413119557"><ele>12.0</ele><time>2026-04-11T16:11:33.001Z</time></trkpt><trkpt lat="41.11239713496487" lon="13.932043148058868"><ele>12.333333333333332</ele><time>2026-04-11T16:11:34.001Z</time></trkpt><trkpt lat="41.11252192923178" lon="13.932260466789373"><ele>12.666666666666666</ele><time>2026-04-11T16:11:35.001Z</time></trkpt><trkpt lat="41.11263756281002" lon="13.932470584111451"><ele>13.0</ele><time>2026-04-11T16:11:36.001Z</time></trkpt><trkpt lat="41.11274460127905" lon="13.932675811882234"><ele>13.0</ele><time>2026-04-11T16:11:37.001Z</time></trkpt><trkpt lat="41.112845131053646" lon="13.932886780781455"><ele>13.0</ele><time>2026-04-11T16:11:38.001Z</time></trkpt><trkpt lat="41.11292522394933" lon="13.933110051598195"><ele>13.0</ele><time>2026-04-11T16:11:39.001Z</time></trkpt><trkpt lat="41.11300757590885" lon="13.933356242261894"><ele>12.666666666666666</ele><time>2026-04-11T16:11:40.001Z</time></trkpt><trkpt lat="41.113073489367764" lon="13.933625898145245"><ele>12.333333333333332</ele><time>2026-04-11T16:11:41.001Z</time></trkpt><trkpt lat="41.11313059047403" lon="13.933915027252839"><ele>12.0</ele><time>2026-04-11T16:11:42.001Z</time></trkpt><trkpt lat="41.113184532592044" lon="13.934217550004892"><ele>12.0</ele><time>2026-04-11T16:11:43.001Z</time></trkpt><trkpt lat="41.11323048947464" lon="13.934530764586755"><ele>12.0</ele><time>2026-04-11T16:11:44.001Z</time></trkpt><trkpt lat="41.11327220925066" lon="13.93485273395067"><ele>12.0</ele><time>2026-04-11T16:11:45.001Z</time></trkpt><trkpt lat="41.11330613249467" lon="13.935182816524879"><ele>12.0</ele><time>2026-04-11T16:11:46.001Z</time></trkpt><trkpt lat="41.11334279331849" lon="13.935512676968614"><ele>12.0</ele><time>2026-04-11T16:11:47.001Z</time></trkpt><trkpt lat="41.11338923626608" lon="13.935841787768256"><ele>12.0</ele><time>2026-04-11T16:11:48.001Z</time></trkpt><trkpt lat="41.11344176500431" lon="13.936171107348887"><ele>13.0</ele><time>2026-04-11T16:11:49.001Z</time></trkpt><trkpt lat="41.11349933788516" lon="13.936500361920773"><ele>14.0</ele><time>2026-04-11T16:11:50.001Z</time></trkpt><trkpt lat="41.11354813612161" lon="13.936821449546251"><ele>14.0</ele><time>2026-04-11T16:11:51.001Z</time></trkpt><trkpt lat="41.113588396983694" lon="13.937126739419847"><ele>14.0</ele><time>2026-04-11T16:11:52.001Z</time></trkpt><trkpt lat="41.11362631633004" lon="13.93743524049789"><ele>13.5</ele><time>2026-04-11T16:11:53.001Z</time></trkpt><trkpt lat="41.11366337392268" lon="13.937746239724072"><ele>13.0</ele><time>2026-04-11T16:11:54.001Z</time></trkpt><trkpt lat="41.11370756281565" lon="13.938058677128177"><ele>13.0</ele><time>2026-04-11T16:11:55.001Z</time></trkpt><trkpt lat="41.11376616949086" lon="13.938377429696397"><ele>13.0</ele><time>2026-04-11T16:11:56.001Z</time></trkpt><trkpt lat="41.113833180253714" lon="13.93869795016005"><ele>13.0</ele><time>2026-04-11T16:11:57.001Z</time></trkpt><trkpt lat="41.11390306451717" lon="13.939020914017616"><ele>13.0</ele><time>2026-04-11T16:11:58.001Z</time></trkpt><trkpt lat="41.113968776794046" lon="13.939330600248493"><ele>12.0</ele><time>2026-04-11T16:11:59.001Z</time></trkpt><trkpt lat="41.11401384127994" lon="13.93963887569558"><ele>11.0</ele><time>2026-04-11T16:12:00.001Z</time></trkpt><trkpt lat="41.11406258165408" lon="13.939956061374652"><ele>11.0</ele><time>2026-04-11T16:12:01.001Z</time></trkpt><trkpt lat="41.11411517091017" lon="13.940256198203098"><ele>11.0</ele><time>2026-04-11T16:12:02.001Z</time></trkpt><trkpt lat="41.11416384921133" lon="13.940506801502398"><ele>11.0</ele><time>2026-04-11T16:12:03.001Z</time></trkpt><trkpt lat="41.11422002315536" lon="13.940733812171619"><ele>11.333333333333332</ele><time>2026-04-11T16:12:04.001Z</time></trkpt><trkpt lat="41.114287507890964" lon="13.94095428045519"><ele>11.666666666666666</ele><time>2026-04-11T16:12:05.001Z</time></trkpt><trkpt lat="41.1143696525771" lon="13.941169891819309"><ele>12.0</ele><time>2026-04-11T16:12:06.001Z</time></trkpt><trkpt lat="41.11446061289269" lon="13.941397449804262"><ele>12.0</ele><time>2026-04-11T16:12:07.001Z</time></trkpt><trkpt lat="41.11456829741742" lon="13.941628144365128"><ele>12.0</ele><time>2026-04-11T16:12:08.001Z</time></trkpt><trkpt lat="41.11467134358446" lon="13.941870171915939"><ele>12.0</ele><time>2026-04-11T16:12:09.001Z</time></trkpt><trkpt lat="41.11477736170425" lon="13.94212522723867"><ele>12.0</ele><time>2026-04-11T16:12:10.001Z</time></trkpt><trkpt lat="41.11488808525626" lon="13.94237802504245"><ele>12.0</ele><time>2026-04-11T16:12:11.001Z</time></trkpt><trkpt lat="41.11510317987576" lon="13.94255422831107"><ele>12.0</ele><time>2026-04-11T16:12:12.001Z</time></trkpt><trkpt lat="41.11521339313351" lon="13.942790213532676"><ele>12.0</ele><time>2026-04-11T16:12:13.001Z</time></trkpt><trkpt lat="41.115307892398654" lon="13.943042096329544"><ele>12.0</ele><time>2026-04-11T16:12:14Z</time></trkpt><trkpt lat="41.115384984745326" lon="13.943307906274091"><ele>12.0</ele><time>2026-04-11T16:12:15Z</time></trkpt><trkpt lat="41.11543977891308" lon="13.943575673044636"><ele>12.0</ele><time>2026-04-11T16:12:16Z</time></trkpt><trkpt lat="41.115481961795865" lon="13.943811226291528"><ele>12.0</ele><time>2026-04-11T16:12:17Z</time></trkpt><trkpt lat="41.11552191093881" lon="13.944035586923734"><ele>12.0</ele><time>2026-04-11T16:12:18Z</time></trkpt><trkpt lat="41.115588645660196" lon="13.94424059853201"><ele>12.0</ele><time>2026-04-11T16:12:19Z</time></trkpt><trkpt lat="41.11568487776115" lon="13.944424476801773"><ele>12.0</ele><time>2026-04-11T16:12:20Z</time></trkpt><trkpt lat="41.11582178678764" lon="13.944602478863585"><ele>12.0</ele><time>2026-04-11T16:12:21Z</time></trkpt><trkpt lat="41.115976760595814" lon="13.944777662244"><ele>12.0</ele><time>2026-04-11T16:12:22Z</time></trkpt><trkpt lat="41.11613685957254" lon="13.944952553538744"><ele>12.0</ele><time>2026-04-11T16:12:23Z</time></trkpt><trkpt lat="41.11629399644667" lon="13.945138955528929"><ele>12.333333333333332</ele><time>2026-04-11T16:12:24Z</time></trkpt><trkpt lat="41.11644464977711" lon="13.945339709321372"><ele>12.666666666666666</ele><time>2026-04-11T16:12:25Z</time></trkpt><trkpt lat="41.11659108948977" lon="13.945549433886997"><ele>13.0</ele><time>2026-04-11T16:12:26Z</time></trkpt><trkpt lat="41.11672259529514" lon="13.945774051597171"><ele>13.0</ele><time>2026-04-11T16:12:27Z</time></trkpt><trkpt lat="41.11682750417607" lon="13.945996189703667"><ele>13.0</ele><time>2026-04-11T16:12:28Z</time></trkpt><trkpt lat="41.11692293794976" lon="13.946232041784668"><ele>13.0</ele><time>2026-04-11T16:12:29Z</time></trkpt><trkpt lat="41.117007738529175" lon="13.946481446997776"><ele>13.333333333333332</ele><time>2026-04-11T16:12:30Z</time></trkpt><trkpt lat="41.11707658848128" lon="13.946735088988616"><ele>13.666666666666668</ele><time>2026-04-11T16:12:31Z</time></trkpt><trkpt lat="41.11714724097113" lon="13.946983296695128"><ele>14.0</ele><time>2026-04-11T16:12:32Z</time></trkpt><trkpt lat="41.11722443811725" lon="13.947238256569635"><ele>14.0</ele><time>2026-04-11T16:12:33Z</time></trkpt><trkpt lat="41.11732472527945" lon="13.947487921748353"><ele>14.0</ele><time>2026-04-11T16:12:34Z</time></trkpt><trkpt lat="41.117436793745114" lon="13.947718378621431"><ele>14.0</ele><time>2026-04-11T16:12:35Z</time></trkpt><trkpt lat="41.11756093760285" lon="13.94795972205648"><ele>14.0</ele><time>2026-04-11T16:12:36Z</time></trkpt><trkpt lat="41.11766975640706" lon="13.948232571288603"><ele>14.0</ele><time>2026-04-11T16:12:37Z</time></trkpt><trkpt lat="41.11778363300093" lon="13.948506605753831"><ele>13.5</ele><time>2026-04-11T16:12:38Z</time></trkpt><trkpt lat="41.11788381530581" lon="13.948789654266694"><ele>13.0</ele><time>2026-04-11T16:12:39Z</time></trkpt><trkpt lat="41.117970913100564" lon="13.949085405174277"><ele>12.5</ele><time>2026-04-11T16:12:40Z</time></trkpt><trkpt lat="41.11805058517513" lon="13.949391245521195"><ele>12.0</ele><time>2026-04-11T16:12:41Z</time></trkpt><trkpt lat="41.11813188854083" lon="13.949693615892011"><ele>12.0</ele><time>2026-04-11T16:12:42Z</time></trkpt><trkpt lat="41.11822208247026" lon="13.949985475723318"><ele>12.0</ele><time>2026-04-11T16:12:43Z</time></trkpt><trkpt lat="41.11831194543264" lon="13.950253010684053"><ele>12.0</ele><time>2026-04-11T16:12:44Z</time></trkpt><trkpt lat="41.11840223549762" lon="13.950503228588087"><ele>12.0</ele><time>2026-04-11T16:12:45Z</time></trkpt><trkpt lat="41.118471431751594" lon="13.950761537649427"><ele>12.0</ele><time>2026-04-11T16:12:46Z</time></trkpt><trkpt lat="41.11852626876075" lon="13.951054123178174"><ele>12.0</ele><time>2026-04-11T16:12:47Z</time></trkpt><trkpt lat="41.11857813755814" lon="13.95136527303957"><ele>12.0</ele><time>2026-04-11T16:12:48Z</time></trkpt><trkpt lat="41.11863381841312" lon="13.951677320254865"><ele>12.0</ele><time>2026-04-11T16:12:49Z</time></trkpt><trkpt lat="41.11870448942366" lon="13.95199382072677"><ele>12.0</ele><time>2026-04-11T16:12:50Z</time></trkpt><trkpt lat="41.11877498409926" lon="13.952284870176948"><ele>12.0</ele><time>2026-04-11T16:12:51Z</time></trkpt><trkpt lat="41.11883139262362" lon="13.952536622315192"><ele>12.0</ele><time>2026-04-11T16:12:52Z</time></trkpt><trkpt lat="41.11887853144927" lon="13.952747413381578"><ele>12.0</ele><time>2026-04-11T16:12:53Z</time></trkpt><trkpt lat="41.11890978980228" lon="13.952914338496175"><ele>12.0</ele><time>2026-04-11T16:12:54Z</time></trkpt><trkpt lat="41.11894607242908" lon="13.953052694305004"><ele>12.0</ele><time>2026-04-11T16:12:55Z</time></trkpt><trkpt lat="41.11899662923524" lon="13.95316165850182"><ele>12.0</ele><time>2026-04-11T16:12:56Z</time></trkpt><trkpt lat="41.11906579518933" lon="13.95322802202257"><ele>12.0</ele><time>2026-04-11T16:12:57Z</time></trkpt><trkpt lat="41.11916256353623" lon="13.953260655021749"><ele>12.0</ele><time>2026-04-11T16:12:58Z</time></trkpt><trkpt lat="41.11928565574396" lon="13.953264927142703"><ele>12.333333333333332</ele><time>2026-04-11T16:12:59Z</time></trkpt><trkpt lat="41.11942969860938" lon="13.953232704838717"><ele>12.666666666666666</ele><time>2026-04-11T16:13:00Z</time></trkpt><trkpt lat="41.11959111736549" lon="13.953181102267616"><ele>13.0</ele><time>2026-04-11T16:13:01Z</time></trkpt><trkpt lat="41.11974893563718" lon="13.953132471520837"><ele>13.0</ele><time>2026-04-11T16:13:02Z</time></trkpt><trkpt lat="41.11990384473136" lon="13.953092276361959"><ele>13.0</ele><time>2026-04-11T16:13:03Z</time></trkpt><trkpt lat="41.12005822023983" lon="13.953072972630942"><ele>13.0</ele><time>2026-04-11T16:13:04Z</time></trkpt><trkpt lat="41.12020944797566" lon="13.95306965505463"><ele>13.0</ele><time>2026-04-11T16:13:05Z</time></trkpt><trkpt lat="41.120359184015186" lon="13.953103127160965"><ele>13.0</ele><time>2026-04-11T16:13:06Z</time></trkpt><trkpt lat="41.12051038015067" lon="13.953150252453797"><ele>13.0</ele><time>2026-04-11T16:13:07Z</time></trkpt><trkpt lat="41.12066279616224" lon="13.95317587980748"><ele>13.0</ele><time>2026-04-11T16:13:08Z</time></trkpt><trkpt lat="41.12081579834791" lon="13.953161473558467"><ele>13.0</ele><time>2026-04-11T16:13:09Z</time></trkpt><trkpt lat="41.12096724928203" lon="13.953104780957524"><ele>13.0</ele><time>2026-04-11T16:13:10Z</time></trkpt><trkpt lat="41.121110959421415" lon="13.953018987229656"><ele>13.0</ele><time>2026-04-11T16:13:11Z</time></trkpt><trkpt lat="41.12123822160727" lon="13.952956267070899"><ele>13.0</ele><time>2026-04-11T16:13:12Z</time></trkpt><trkpt lat="41.121365605167185" lon="13.95292149582827"><ele>13.0</ele><time>2026-04-11T16:13:13Z</time></trkpt><trkpt lat="41.121501804145105" lon="13.952916029500715"><ele>13.0</ele><time>2026-04-11T16:13:14Z</time></trkpt><trkpt lat="41.12164138670681" lon="13.952961116990847"><ele>12.666666666666666</ele><time>2026-04-11T16:13:15Z</time></trkpt><trkpt lat="41.12179196138317" lon="13.953051519836615"><ele>12.333333333333332</ele><time>2026-04-11T16:13:16Z</time></trkpt><trkpt lat="41.1219503343357" lon="13.953162081621707"><ele>12.0</ele><time>2026-04-11T16:13:17Z</time></trkpt><trkpt lat="41.122118788949365" lon="13.953274471125084"><ele>12.0</ele><time>2026-04-11T16:13:18Z</time></trkpt><trkpt lat="41.12229892305986" lon="13.953386572074566"><ele>12.0</ele><time>2026-04-11T16:13:19Z</time></trkpt><trkpt lat="41.12245851252614" lon="13.953490114259997"><ele>12.0</ele><time>2026-04-11T16:13:20Z</time></trkpt><trkpt lat="41.12261150642811" lon="13.953583456746264"><ele>12.333333333333332</ele><time>2026-04-11T16:13:21.001Z</time></trkpt><trkpt lat="41.122754874910584" lon="13.953686858751267"><ele>12.666666666666666</ele><time>2026-04-11T16:13:22.001Z</time></trkpt><trkpt lat="41.122897356750734" lon="13.953823397908497"><ele>13.0</ele><time>2026-04-11T16:13:23.001Z</time></trkpt><trkpt lat="41.12304013911183" lon="13.953994059054208"><ele>13.0</ele><time>2026-04-11T16:13:24.001Z</time></trkpt><trkpt lat="41.123184036689075" lon="13.95418729438647"><ele>13.0</ele><time>2026-04-11T16:13:25.001Z</time></trkpt><trkpt lat="41.12332965943679" lon="13.95438979684073"><ele>13.0</ele><time>2026-04-11T16:13:26.001Z</time></trkpt><trkpt lat="41.12348394037886" lon="13.954592901324665"><ele>13.0</ele><time>2026-04-11T16:13:27.001Z</time></trkpt><trkpt lat="41.12364944916204" lon="13.954795541585012"><ele>13.0</ele><time>2026-04-11T16:13:28.001Z</time></trkpt><trkpt lat="41.12380312697481" lon="13.954980221908398"><ele>13.0</ele><time>2026-04-11T16:13:29.001Z</time></trkpt><trkpt lat="41.12393671442121" lon="13.955144316843548"><ele>13.0</ele><time>2026-04-11T16:13:30.001Z</time></trkpt><trkpt lat="41.12406167795868" lon="13.955284066400775"><ele>13.0</ele><time>2026-04-11T16:13:31.001Z</time></trkpt><trkpt lat="41.124183120997714" lon="13.955415295629702"><ele>13.0</ele><time>2026-04-11T16:13:32.001Z</time></trkpt><trkpt lat="41.12432907101272" lon="13.955517871711981"><ele>13.0</ele><time>2026-04-11T16:13:33.001Z</time></trkpt><trkpt lat="41.12449185075702" lon="13.955597962073199"><ele>13.0</ele><time>2026-04-11T16:13:34.001Z</time></trkpt><trkpt lat="41.12467354058466" lon="13.955663107148267"><ele>13.0</ele><time>2026-04-11T16:13:35.001Z</time></trkpt><trkpt lat="41.12487474575364" lon="13.95571362582423"><ele>13.666666666666666</ele><time>2026-04-11T16:13:36.001Z</time></trkpt><trkpt lat="41.125072341297134" lon="13.955757309458235"><ele>14.333333333333332</ele><time>2026-04-11T16:13:37.001Z</time></trkpt><trkpt lat="41.12526285069151" lon="13.955796817813527"><ele>15.0</ele><time>2026-04-11T16:13:38.001Z</time></trkpt><trkpt lat="41.12543570537097" lon="13.9558434496462"><ele>14.666666666666668</ele><time>2026-04-11T16:13:39.001Z</time></trkpt><trkpt lat="41.12559108011572" lon="13.955896628342222"><ele>14.333333333333334</ele><time>2026-04-11T16:13:40.001Z</time></trkpt><trkpt lat="41.12574200997928" lon="13.955963956448427"><ele>14.0</ele><time>2026-04-11T16:13:41.001Z</time></trkpt><trkpt lat="41.125891661203255" lon="13.956038068875012"><ele>14.0</ele><time>2026-04-11T16:13:42.001Z</time></trkpt><trkpt lat="41.12602868870086" lon="13.95615277783032"><ele>14.0</ele><time>2026-04-11T16:13:43.001Z</time></trkpt><trkpt lat="41.12617373576323" lon="13.95628316176779"><ele>14.0</ele><time>2026-04-11T16:13:44.001Z</time></trkpt><trkpt lat="41.12631665481144" lon="13.95644372234132"><ele>14.0</ele><time>2026-04-11T16:13:45.001Z</time></trkpt><trkpt lat="41.12646091689425" lon="13.956623721659316"><ele>14.0</ele><time>2026-04-11T16:13:46.001Z</time></trkpt><trkpt lat="41.12660369396973" lon="13.956812029208114"><ele>14.0</ele><time>2026-04-11T16:13:47.001Z</time></trkpt><trkpt lat="41.12675299895417" lon="13.956990864027603"><ele>14.0</ele><time>2026-04-11T16:13:48.001Z</time></trkpt><trkpt lat="41.126914372510655" lon="13.957158154214264"><ele>14.0</ele><time>2026-04-11T16:13:49.001Z</time></trkpt><trkpt lat="41.127102981192316" lon="13.957298650417009"><ele>14.0</ele><time>2026-04-11T16:13:50.001Z</time></trkpt><trkpt lat="41.12727969203148" lon="13.95743754766281"><ele>13.666666666666668</ele><time>2026-04-11T16:13:51.001Z</time></trkpt><trkpt lat="41.127467032616316" lon="13.957552775910887"><ele>13.333333333333332</ele><time>2026-04-11T16:13:52.001Z</time></trkpt><trkpt lat="41.127622573186734" lon="13.957704023813537"><ele>13.0</ele><time>2026-04-11T16:13:53.001Z</time></trkpt><trkpt lat="41.12775609753749" lon="13.957891403503353"><ele>13.0</ele><time>2026-04-11T16:13:54.001Z</time></trkpt><trkpt lat="41.12787002272813" lon="13.958077076801045"><ele>13.0</ele><time>2026-04-11T16:13:55.001Z</time></trkpt><trkpt lat="41.12797301652707" lon="13.958261207629505"><ele>13.0</ele><time>2026-04-11T16:13:56.001Z</time></trkpt><trkpt lat="41.128043180939315" lon="13.958479888301179"><ele>13.0</ele><time>2026-04-11T16:13:57.001Z</time></trkpt><trkpt lat="41.1280918353248" lon="13.958698551615546"><ele>13.0</ele><time>2026-04-11T16:13:58.001Z</time></trkpt><trkpt lat="41.12810978296922" lon="13.958932399177856"><ele>13.0</ele><time>2026-04-11T16:13:59.001Z</time></trkpt><trkpt lat="41.128114499269024" lon="13.95918810167258"><ele>13.0</ele><time>2026-04-11T16:14:00.001Z</time></trkpt><trkpt lat="41.128093072704495" lon="13.959444071169562"><ele>13.0</ele><time>2026-04-11T16:14:01.001Z</time></trkpt><trkpt lat="41.128070112409006" lon="13.959680269278893"><ele>13.0</ele><time>2026-04-11T16:14:02.001Z</time></trkpt><trkpt lat="41.12807267614919" lon="13.959910173953578"><ele>13.0</ele><time>2026-04-11T16:14:03.001Z</time></trkpt><trkpt lat="41.128110995296005" lon="13.96014617532781"><ele>13.0</ele><time>2026-04-11T16:14:04.001Z</time></trkpt><trkpt lat="41.12818555152021" lon="13.960374177711072"><ele>13.0</ele><time>2026-04-11T16:14:05.001Z</time></trkpt><trkpt lat="41.12828491104297" lon="13.960609971703368"><ele>13.0</ele><time>2026-04-11T16:14:06.001Z</time></trkpt><trkpt lat="41.128386875843745" lon="13.960871955700728"><ele>13.0</ele><time>2026-04-11T16:14:07.001Z</time></trkpt><trkpt lat="41.128499942980554" lon="13.96113671311675"><ele>13.0</ele><time>2026-04-11T16:14:08.001Z</time></trkpt><trkpt lat="41.128600501239895" lon="13.96141907040903"><ele>13.0</ele><time>2026-04-11T16:14:09.001Z</time></trkpt><trkpt lat="41.1287008477802" lon="13.961712744423453"><ele>12.5</ele><time>2026-04-11T16:14:10.001Z</time></trkpt><trkpt lat="41.128821183094466" lon="13.961988391100538"><ele>12.0</ele><time>2026-04-11T16:14:11.001Z</time></trkpt><trkpt lat="41.12891532979583" lon="13.962264832715881"><ele>12.0</ele><time>2026-04-11T16:14:12.001Z</time></trkpt><trkpt lat="41.12901457070326" lon="13.962518658950739"><ele>12.0</ele><time>2026-04-11T16:14:13.001Z</time></trkpt><trkpt lat="41.129106982317374" lon="13.96275478841638"><ele>12.0</ele><time>2026-04-11T16:14:14.001Z</time></trkpt><trkpt lat="41.12919251447766" lon="13.962942251768451"><ele>12.666666666666668</ele><time>2026-04-11T16:14:15.001Z</time></trkpt><trkpt lat="41.12928852586786" lon="13.963110385335332"><ele>13.333333333333334</ele><time>2026-04-11T16:14:16.001Z</time></trkpt><trkpt lat="41.1294205728759" lon="13.963278721957762"><ele>14.0</ele><time>2026-04-11T16:14:17.001Z</time></trkpt><trkpt lat="41.12955804479496" lon="13.963460334694282"><ele>14.0</ele><time>2026-04-11T16:14:18.001Z</time></trkpt><trkpt lat="41.12968437352925" lon="13.96362550596382"><ele>14.0</ele><time>2026-04-11T16:14:19.001Z</time></trkpt><trkpt lat="41.12981423804872" lon="13.963778965109725"><ele>14.0</ele><time>2026-04-11T16:14:20Z</time></trkpt><trkpt lat="41.12995772739432" lon="13.96394302358115"><ele>13.666666666666668</ele><time>2026-04-11T16:14:21Z</time></trkpt><trkpt lat="41.13013704233806" lon="13.964082604212505"><ele>13.333333333333332</ele><time>2026-04-11T16:14:22Z</time></trkpt><trkpt lat="41.13032865002963" lon="13.964223465908065"><ele>13.0</ele><time>2026-04-11T16:14:23Z</time></trkpt><trkpt lat="41.13051308466798" lon="13.964376209090453"><ele>13.0</ele><time>2026-04-11T16:14:24Z</time></trkpt><trkpt lat="41.13070777728601" lon="13.964499214204988"><ele>13.0</ele><time>2026-04-11T16:14:25Z</time></trkpt><trkpt lat="41.13089577891752" lon="13.964659538498726"><ele>13.0</ele><time>2026-04-11T16:14:26Z</time></trkpt><trkpt lat="41.131085382536234" lon="13.964797147711295"><ele>13.666666666666666</ele><time>2026-04-11T16:14:27Z</time></trkpt><trkpt lat="41.131243280404675" lon="13.964915415269514"><ele>14.333333333333332</ele><time>2026-04-11T16:14:28Z</time></trkpt><trkpt lat="41.131378346481625" lon="13.965024947718147"><ele>15.0</ele><time>2026-04-11T16:14:29Z</time></trkpt><trkpt lat="41.13148501064201" lon="13.965096244386611"><ele>15.25</ele><time>2026-04-11T16:14:30Z</time></trkpt><trkpt lat="41.131597987795374" lon="13.965203782236236"><ele>15.5</ele><time>2026-04-11T16:14:31Z</time></trkpt><trkpt lat="41.13171758898064" lon="13.965306741888243"><ele>15.75</ele><time>2026-04-11T16:14:32Z</time></trkpt><trkpt lat="41.131859939393536" lon="13.96540445580966"><ele>16.0</ele><time>2026-04-11T16:14:33Z</time></trkpt><trkpt lat="41.13202147777252" lon="13.965507236615093"><ele>16.0</ele><time>2026-04-11T16:14:34Z</time></trkpt><trkpt lat="41.13217649195688" lon="13.965628001565673"><ele>16.0</ele><time>2026-04-11T16:14:35Z</time></trkpt><trkpt lat="41.13234829132048" lon="13.965744660483164"><ele>16.0</ele><time>2026-04-11T16:14:36Z</time></trkpt><trkpt lat="41.132515736316016" lon="13.96585443052283"><ele>16.0</ele><time>2026-04-11T16:14:37Z</time></trkpt><trkpt lat="41.13266767690598" lon="13.965950583390958"><ele>16.0</ele><time>2026-04-11T16:14:38Z</time></trkpt><trkpt lat="41.1328153611125" lon="13.966038472131348"><ele>16.0</ele><time>2026-04-11T16:14:39Z</time></trkpt><trkpt lat="41.132945690668066" lon="13.966115521011663"><ele>15.999999999999998</ele><time>2026-04-11T16:14:40Z</time></trkpt><trkpt lat="41.133054448050565" lon="13.966182399365989"><ele>16.0</ele><time>2026-04-11T16:14:41Z</time></trkpt><trkpt lat="41.13313832408959" lon="13.966241522624763"><ele>16.0</ele><time>2026-04-11T16:14:42Z</time></trkpt><trkpt lat="41.13320775542399" lon="13.966300540941305"><ele>16.0</ele><time>2026-04-11T16:14:43Z</time></trkpt><trkpt lat="41.133265602074275" lon="13.966364854684132"><ele>15.999999999999998</ele><time>2026-04-11T16:14:44Z</time></trkpt><trkpt lat="41.13330479339758" lon="13.966446128507817"><ele>16.0</ele><time>2026-04-11T16:14:45Z</time></trkpt><trkpt lat="41.133342590857495" lon="13.966585253645713"><ele>15.666666666666666</ele><time>2026-04-11T16:14:46Z</time></trkpt><trkpt lat="41.13338442506714" lon="13.966764576972642"><ele>15.333333333333332</ele><time>2026-04-11T16:14:47Z</time></trkpt><trkpt lat="41.133415453158975" lon="13.966962419952894"><ele>15.0</ele><time>2026-04-11T16:14:48Z</time></trkpt><trkpt lat="41.13347644713311" lon="13.967155708128294"><ele>15.0</ele><time>2026-04-11T16:14:49Z</time></trkpt><trkpt lat="41.1335789763049" lon="13.967357954592327"><ele>15.0</ele><time>2026-04-11T16:14:50Z</time></trkpt><trkpt lat="41.133691046108844" lon="13.967550942093855"><ele>15.0</ele><time>2026-04-11T16:14:51Z</time></trkpt><trkpt lat="41.13378401631633" lon="13.96774172460767"><ele>14.5</ele><time>2026-04-11T16:14:52Z</time></trkpt><trkpt lat="41.13386208030989" lon="13.96791857747447"><ele>14.0</ele><time>2026-04-11T16:14:53Z</time></trkpt><trkpt lat="41.13390417157313" lon="13.968077203990722"><ele>13.5</ele><time>2026-04-11T16:14:54Z</time></trkpt><trkpt lat="41.133951318483675" lon="13.968206299491307"><ele>13.0</ele><time>2026-04-11T16:14:55Z</time></trkpt><trkpt lat="41.133990668941216" lon="13.96833251873234"><ele>13.4</ele><time>2026-04-11T16:14:56Z</time></trkpt><trkpt lat="41.134023436491276" lon="13.968457232339492"><ele>13.8</ele><time>2026-04-11T16:14:57Z</time></trkpt><trkpt lat="41.13404339027037" lon="13.968573651373378"><ele>14.2</ele><time>2026-04-11T16:14:58Z</time></trkpt><trkpt lat="41.13405034178296" lon="13.968691012552908"><ele>14.6</ele><time>2026-04-11T16:14:59Z</time></trkpt><trkpt lat="41.134041603604466" lon="13.968835048645653"><ele>15.0</ele><time>2026-04-11T16:15:00Z</time></trkpt><trkpt lat="41.134019709370605" lon="13.96898828475805"><ele>15.0</ele><time>2026-04-11T16:15:01Z</time></trkpt><trkpt lat="41.13399189361928" lon="13.969176308633775"><ele>15.0</ele><time>2026-04-11T16:15:02Z</time></trkpt><trkpt lat="41.13396637180073" lon="13.96934417969089"><ele>15.0</ele><time>2026-04-11T16:15:03Z</time></trkpt><trkpt lat="41.13393951717417" lon="13.969522251432016"><ele>15.0</ele><time>2026-04-11T16:15:04Z</time></trkpt><trkpt lat="41.13391433619402" lon="13.969700281060016"><ele>15.0</ele><time>2026-04-11T16:15:05Z</time></trkpt><trkpt lat="41.13389047806425" lon="13.969878502731056"><ele>15.0</ele><time>2026-04-11T16:15:06Z</time></trkpt><trkpt lat="41.13385864555981" lon="13.970076517298876"><ele>15.0</ele><time>2026-04-11T16:15:07Z</time></trkpt><trkpt lat="41.13382387451472" lon="13.970286183625875"><ele>15.0</ele><time>2026-04-11T16:15:08Z</time></trkpt><trkpt lat="41.13379419254968" lon="13.970486046287025"><ele>15.0</ele><time>2026-04-11T16:15:09Z</time></trkpt><trkpt lat="41.13376988694879" lon="13.97074340965308"><ele>15.0</ele><time>2026-04-11T16:15:10.001Z</time></trkpt><trkpt lat="41.133728933663" lon="13.97099654276164"><ele>14.666666666666668</ele><time>2026-04-11T16:15:11Z</time></trkpt><trkpt lat="41.13368963654422" lon="13.971242320452042"><ele>14.333333333333334</ele><time>2026-04-11T16:15:12Z</time></trkpt><trkpt lat="41.13364176433656" lon="13.971488765661485"><ele>14.0</ele><time>2026-04-11T16:15:13Z</time></trkpt><trkpt lat="41.13360205693385" lon="13.971738389251088"><ele>13.666666666666668</ele><time>2026-04-11T16:15:14Z</time></trkpt><trkpt lat="41.133583204640324" lon="13.971981511268348"><ele>13.333333333333332</ele><time>2026-04-11T16:15:15Z</time></trkpt><trkpt lat="41.13355212389124" lon="13.97223367949819"><ele>13.0</ele><time>2026-04-11T16:15:16.001Z</time></trkpt><trkpt lat="41.13351480634051" lon="13.972474776796007"><ele>13.333333333333332</ele><time>2026-04-11T16:15:17.001Z</time></trkpt><trkpt lat="41.13347512559713" lon="13.972698999880016"><ele>13.666666666666668</ele><time>2026-04-11T16:15:18.001Z</time></trkpt><trkpt lat="41.13343235529703" lon="13.972914883147297"><ele>14.0</ele><time>2026-04-11T16:15:19.001Z</time></trkpt><trkpt lat="41.133390781222786" lon="13.973116014651294"><ele>14.0</ele><time>2026-04-11T16:15:20.001Z</time></trkpt><trkpt lat="41.133360517598945" lon="13.973299695332592"><ele>13.999999999999998</ele><time>2026-04-11T16:15:21.001Z</time></trkpt><trkpt lat="41.13333383195149" lon="13.973461491914007"><ele>13.999999999999998</ele><time>2026-04-11T16:15:22.001Z</time></trkpt><trkpt lat="41.13330877860775" lon="13.973591836659383"><ele>14.0</ele><time>2026-04-11T16:15:23.001Z</time></trkpt><trkpt lat="41.133286572478966" lon="13.973695032982432"><ele>14.0</ele><time>2026-04-11T16:15:24.001Z</time></trkpt><trkpt lat="41.133276195984394" lon="13.97384668149438"><ele>13.333333333333334</ele><time>2026-04-11T16:15:26.001Z</time></trkpt><trkpt lat="41.13338489582757" lon="13.974012014462447"><ele>12.666666666666668</ele><time>2026-04-11T16:15:28.001Z</time></trkpt><trkpt lat="41.13348693043837" lon="13.974123805213944"><ele>12.0</ele><time>2026-04-11T16:15:29.001Z</time></trkpt><trkpt lat="41.13360949401261" lon="13.974257281820105"><ele>12.0</ele><time>2026-04-11T16:15:30.001Z</time></trkpt><trkpt lat="41.133732307905866" lon="13.9744151811809"><ele>12.0</ele><time>2026-04-11T16:15:31.001Z</time></trkpt><trkpt lat="41.13388298936347" lon="13.974584552493608"><ele>12.0</ele><time>2026-04-11T16:15:32.001Z</time></trkpt><trkpt lat="41.13403648141511" lon="13.974766750151169"><ele>12.0</ele><time>2026-04-11T16:15:33.001Z</time></trkpt><trkpt lat="41.13419373470863" lon="13.974958784307164"><ele>12.0</ele><time>2026-04-11T16:15:34.001Z</time></trkpt><trkpt lat="41.134351632344256" lon="13.975142905270802"><ele>12.0</ele><time>2026-04-11T16:15:35.001Z</time></trkpt><trkpt lat="41.13451413082295" lon="13.975327871813661"><ele>12.0</ele><time>2026-04-11T16:15:36.001Z</time></trkpt><trkpt lat="41.134677523738205" lon="13.975534035359793"><ele>12.0</ele><time>2026-04-11T16:15:37.001Z</time></trkpt><trkpt lat="41.134849473507614" lon="13.975730126632895"><ele>12.0</ele><time>2026-04-11T16:15:38.001Z</time></trkpt><trkpt lat="41.1350289443293" lon="13.975944126261046"><ele>12.0</ele><time>2026-04-11T16:15:39.001Z</time></trkpt><trkpt lat="41.135215115827556" lon="13.976159788846699"><ele>12.0</ele><time>2026-04-11T16:15:40.001Z</time></trkpt><trkpt lat="41.13540925502129" lon="13.976382448147204"><ele>12.0</ele><time>2026-04-11T16:15:41.001Z</time></trkpt><trkpt lat="41.13560413225918" lon="13.976611018349509"><ele>12.0</ele><time>2026-04-11T16:15:42.001Z</time></trkpt><trkpt lat="41.13580659350731" lon="13.97684138114964"><ele>12.0</ele><time>2026-04-11T16:15:43.001Z</time></trkpt><trkpt lat="41.13600343448207" lon="13.97707835018328"><ele>12.0</ele><time>2026-04-11T16:15:44.001Z</time></trkpt><trkpt lat="41.136203800630675" lon="13.977315519030082"><ele>12.0</ele><time>2026-04-11T16:15:45.001Z</time></trkpt><trkpt lat="41.13640951670871" lon="13.97755248847462"><ele>12.0</ele><time>2026-04-11T16:15:46.001Z</time></trkpt><trkpt lat="41.136617198243336" lon="13.977792281516463"><ele>12.0</ele><time>2026-04-11T16:15:47.001Z</time></trkpt><trkpt lat="41.13681986971625" lon="13.978034883804327"><ele>12.0</ele><time>2026-04-11T16:15:48.001Z</time></trkpt><trkpt lat="41.137035086322335" lon="13.978279541559887"><ele>12.0</ele><time>2026-04-11T16:15:49.001Z</time></trkpt><trkpt lat="41.13724804203467" lon="13.978530329723434"><ele>12.5</ele><time>2026-04-11T16:15:50.001Z</time></trkpt><trkpt lat="41.13746913824888" lon="13.978780120065109"><ele>13.0</ele><time>2026-04-11T16:15:51.001Z</time></trkpt><trkpt lat="41.13769187858491" lon="13.979038346535894"><ele>14.5</ele><time>2026-04-11T16:15:52.001Z</time></trkpt><trkpt lat="41.137912243514656" lon="13.979289335654132"><ele>16.0</ele><time>2026-04-11T16:15:53.001Z</time></trkpt><trkpt lat="41.13812101931259" lon="13.979546371538781"><ele>15.5</ele><time>2026-04-11T16:15:54.001Z</time></trkpt><trkpt lat="41.138326675908694" lon="13.979792660802007"><ele>15.0</ele><time>2026-04-11T16:15:55.001Z</time></trkpt><trkpt lat="41.138524508320344" lon="13.980037136271429"><ele>15.0</ele><time>2026-04-11T16:15:56.001Z</time></trkpt><trkpt lat="41.1387306895331" lon="13.980281536492406"><ele>15.0</ele><time>2026-04-11T16:15:57.001Z</time></trkpt><trkpt lat="41.13894230354864" lon="13.980527781164577"><ele>14.5</ele><time>2026-04-11T16:15:58.001Z</time></trkpt><trkpt lat="41.139146754291524" lon="13.980772312304541"><ele>14.0</ele><time>2026-04-11T16:15:59.001Z</time></trkpt><trkpt lat="41.13934925470066" lon="13.981013109215455"><ele>15.0</ele><time>2026-04-11T16:16:00.001Z</time></trkpt><trkpt lat="41.13955745276744" lon="13.981252025228422"><ele>16.0</ele><time>2026-04-11T16:16:01.001Z</time></trkpt><trkpt lat="41.139762970170906" lon="13.9814916670335"><ele>15.5</ele><time>2026-04-11T16:16:02.001Z</time></trkpt><trkpt lat="41.13997008268747" lon="13.981727474256749"><ele>15.0</ele><time>2026-04-11T16:16:03.001Z</time></trkpt><trkpt lat="41.14018781519381" lon="13.981976525243638"><ele>15.0</ele><time>2026-04-11T16:16:04.001Z</time></trkpt><trkpt lat="41.140397555857994" lon="13.982228539622948"><ele>15.0</ele><time>2026-04-11T16:16:05.001Z</time></trkpt><trkpt lat="41.140619290447354" lon="13.982466505156719"><ele>15.0</ele><time>2026-04-11T16:16:06.001Z</time></trkpt><trkpt lat="41.14083598820141" lon="13.982718521690366"><ele>15.0</ele><time>2026-04-11T16:16:07.001Z</time></trkpt><trkpt lat="41.141051421792675" lon="13.982970578182762"><ele>15.0</ele><time>2026-04-11T16:16:08.001Z</time></trkpt><trkpt lat="41.14126971700624" lon="13.983222447282866"><ele>15.0</ele><time>2026-04-11T16:16:09.001Z</time></trkpt><trkpt lat="41.14148663749863" lon="13.983474648034733"><ele>15.5</ele><time>2026-04-11T16:16:10.001Z</time></trkpt><trkpt lat="41.14170136150498" lon="13.98372835090914"><ele>16.0</ele><time>2026-04-11T16:16:11.001Z</time></trkpt><trkpt lat="41.14191878346317" lon="13.983984625532724"><ele>15.5</ele><time>2026-04-11T16:16:12.001Z</time></trkpt><trkpt lat="41.142132830145684" lon="13.984242461913391"><ele>15.0</ele><time>2026-04-11T16:16:13.001Z</time></trkpt><trkpt lat="41.14234661645365" lon="13.984491211659815"><ele>15.5</ele><time>2026-04-11T16:16:14.001Z</time></trkpt><trkpt lat="41.142551389704785" lon="13.984730088408762"><ele>16.0</ele><time>2026-04-11T16:16:15.001Z</time></trkpt><trkpt lat="41.14276144650668" lon="13.984969664600548"><ele>16.0</ele><time>2026-04-11T16:16:16.001Z</time></trkpt><trkpt lat="41.142966897520246" lon="13.98521274177579"><ele>16.0</ele><time>2026-04-11T16:16:17.001Z</time></trkpt><trkpt lat="41.14317660290597" lon="13.985447793816851"><ele>15.0</ele><time>2026-04-11T16:16:18.001Z</time></trkpt><trkpt lat="41.14337703093861" lon="13.985685503837116"><ele>14.0</ele><time>2026-04-11T16:16:19.001Z</time></trkpt><trkpt lat="41.143580744415814" lon="13.985921273802886"><ele>14.0</ele><time>2026-04-11T16:16:20.001Z</time></trkpt><trkpt lat="41.14377975036847" lon="13.986160570315432"><ele>14.0</ele><time>2026-04-11T16:16:21.001Z</time></trkpt><trkpt lat="41.143973767119256" lon="13.986395073883495"><ele>14.5</ele><time>2026-04-11T16:16:22.001Z</time></trkpt><trkpt lat="41.14417271060976" lon="13.986632752534826"><ele>15.0</ele><time>2026-04-11T16:16:23.001Z</time></trkpt><trkpt lat="41.14436497143682" lon="13.986865816878861"><ele>15.0</ele><time>2026-04-11T16:16:24.001Z</time></trkpt><trkpt lat="41.14455566844042" lon="13.987085407164761"><ele>15.0</ele><time>2026-04-11T16:16:25.001Z</time></trkpt><trkpt lat="41.14473296530439" lon="13.987298369169617"><ele>15.0</ele><time>2026-04-11T16:16:26Z</time></trkpt><trkpt lat="41.14490383294787" lon="13.987500047984636"><ele>15.0</ele><time>2026-04-11T16:16:27Z</time></trkpt><trkpt lat="41.14507020051966" lon="13.987698801870796"><ele>15.0</ele><time>2026-04-11T16:16:28Z</time></trkpt><trkpt lat="41.14524492954509" lon="13.987889687483055"><ele>15.0</ele><time>2026-04-11T16:16:29Z</time></trkpt><trkpt lat="41.14540758308802" lon="13.988080191880947"><ele>15.0</ele><time>2026-04-11T16:16:30Z</time></trkpt><trkpt lat="41.14557416464326" lon="13.988274950710135"><ele>15.0</ele><time>2026-04-11T16:16:31Z</time></trkpt><trkpt lat="41.14573981743701" lon="13.988468338266273"><ele>15.0</ele><time>2026-04-11T16:16:32Z</time></trkpt><trkpt lat="41.14590921789248" lon="13.988664921074447"><ele>15.0</ele><time>2026-04-11T16:16:33Z</time></trkpt><trkpt lat="41.14608289831379" lon="13.98885888018377"><ele>15.0</ele><time>2026-04-11T16:16:34Z</time></trkpt><trkpt lat="41.146263687114065" lon="13.989056150148333"><ele>15.0</ele><time>2026-04-11T16:16:35Z</time></trkpt><trkpt lat="41.146426888230245" lon="13.989258005026503"><ele>15.333333333333332</ele><time>2026-04-11T16:16:36Z</time></trkpt><trkpt lat="41.14657879381253" lon="13.98943673964363"><ele>15.666666666666666</ele><time>2026-04-11T16:16:37Z</time></trkpt><trkpt lat="41.1467327642915" lon="13.9896069841511"><ele>16.0</ele><time>2026-04-11T16:16:38Z</time></trkpt><trkpt lat="41.14687546896451" lon="13.989769238078544"><ele>16.0</ele><time>2026-04-11T16:16:39Z</time></trkpt><trkpt lat="41.14701971200214" lon="13.98993950787437"><ele>16.0</ele><time>2026-04-11T16:16:40Z</time></trkpt><trkpt lat="41.147167127623064" lon="13.990109297199444"><ele>16.0</ele><time>2026-04-11T16:16:41Z</time></trkpt><trkpt lat="41.14730780615823" lon="13.990291121330744"><ele>15.666666666666666</ele><time>2026-04-11T16:16:42Z</time></trkpt><trkpt lat="41.14744436475334" lon="13.990472922696172"><ele>15.333333333333332</ele><time>2026-04-11T16:16:43Z</time></trkpt><trkpt lat="41.1475855674068" lon="13.990656113502105"><ele>15.0</ele><time>2026-04-11T16:16:44Z</time></trkpt><trkpt lat="41.14774578766633" lon="13.990871252289617"><ele>15.0</ele><time>2026-04-11T16:16:45Z</time></trkpt><trkpt lat="41.14791146116704" lon="13.99111566730978"><ele>15.0</ele><time>2026-04-11T16:16:46Z</time></trkpt><trkpt lat="41.14805404758559" lon="13.991366422023159"><ele>15.0</ele><time>2026-04-11T16:16:47Z</time></trkpt><trkpt lat="41.148215114743444" lon="13.991641118829794"><ele>15.0</ele><time>2026-04-11T16:16:48Z</time></trkpt><trkpt lat="41.14837092277378" lon="13.991934887068814"><ele>15.0</ele><time>2026-04-11T16:16:49Z</time></trkpt><trkpt lat="41.148543386435534" lon="13.99224831170168"><ele>15.0</ele><time>2026-04-11T16:16:50Z</time></trkpt><trkpt lat="41.14873196180563" lon="13.992557632388596"><ele>15.0</ele><time>2026-04-11T16:16:51Z</time></trkpt><trkpt lat="41.14891539303053" lon="13.992884520687639"><ele>15.0</ele><time>2026-04-11T16:16:52Z</time></trkpt><trkpt lat="41.14910607144366" lon="13.993222978207731"><ele>14.5</ele><time>2026-04-11T16:16:53Z</time></trkpt><trkpt lat="41.14929631829054" lon="13.99357104828176"><ele>14.0</ele><time>2026-04-11T16:16:54Z</time></trkpt><trkpt lat="41.149494993994026" lon="13.99391490927346"><ele>14.0</ele><time>2026-04-11T16:16:55Z</time></trkpt><trkpt lat="41.14970034812377" lon="13.994263556870646"><ele>14.0</ele><time>2026-04-11T16:16:56Z</time></trkpt><trkpt lat="41.1499156763493" lon="13.99462131144414"><ele>14.0</ele><time>2026-04-11T16:16:57Z</time></trkpt><trkpt lat="41.150120433098024" lon="13.99498954011049"><ele>14.0</ele><time>2026-04-11T16:16:58Z</time></trkpt><trkpt lat="41.150331903987876" lon="13.995359559404113"><ele>14.0</ele><time>2026-04-11T16:16:59Z</time></trkpt><trkpt lat="41.150545489787966" lon="13.995735294868814"><ele>14.0</ele><time>2026-04-11T16:17:00Z</time></trkpt><trkpt lat="41.15076686357612" lon="13.99612200765276"><ele>15.5</ele><time>2026-04-11T16:17:01Z</time></trkpt><trkpt lat="41.150988385150505" lon="13.996500159857103"><ele>17.0</ele><time>2026-04-11T16:17:02Z</time></trkpt><trkpt lat="41.15121365140957" lon="13.996882439254739"><ele>17.0</ele><time>2026-04-11T16:17:03Z</time></trkpt><trkpt lat="41.151438727128685" lon="13.997254438348122"><ele>17.0</ele><time>2026-04-11T16:17:04Z</time></trkpt><trkpt lat="41.15166569217466" lon="13.997641792415234"><ele>16.5</ele><time>2026-04-11T16:17:05Z</time></trkpt><trkpt lat="41.15189320181877" lon="13.998009894280738"><ele>16.0</ele><time>2026-04-11T16:17:06Z</time></trkpt><trkpt lat="41.15209468052371" lon="13.998349728911814"><ele>15.5</ele><time>2026-04-11T16:17:07Z</time></trkpt><trkpt lat="41.152279487361355" lon="13.998681301785842"><ele>15.0</ele><time>2026-04-11T16:17:08Z</time></trkpt><trkpt lat="41.15246215568184" lon="13.998973924179712"><ele>14.5</ele><time>2026-04-11T16:17:09Z</time></trkpt><trkpt lat="41.152640281352404" lon="13.999252089187893"><ele>14.0</ele><time>2026-04-11T16:17:10Z</time></trkpt><trkpt lat="41.15279153267736" lon="13.99954743933267"><ele>14.0</ele><time>2026-04-11T16:17:11Z</time></trkpt><trkpt lat="41.15294824897403" lon="13.999809279795354"><ele>14.0</ele><time>2026-04-11T16:17:12Z</time></trkpt><trkpt lat="41.15309055157913" lon="14.000063078726749"><ele>15.5</ele><time>2026-04-11T16:17:13Z</time></trkpt><trkpt lat="41.15323210202865" lon="14.00031020652024"><ele>17.0</ele><time>2026-04-11T16:17:14Z</time></trkpt><trkpt lat="41.15338161161126" lon="14.000551098293679"><ele>17.0</ele><time>2026-04-11T16:17:15Z</time></trkpt><trkpt lat="41.15352131856351" lon="14.000787175523035"><ele>17.0</ele><time>2026-04-11T16:17:16Z</time></trkpt><trkpt lat="41.15365341916062" lon="14.001018143575063"><ele>17.0</ele><time>2026-04-11T16:17:17Z</time></trkpt><trkpt lat="41.153784000627645" lon="14.001242381785483"><ele>17.333333333333336</ele><time>2026-04-11T16:17:18Z</time></trkpt><trkpt lat="41.15390467818169" lon="14.001465141009538"><ele>17.666666666666668</ele><time>2026-04-11T16:17:19Z</time></trkpt><trkpt lat="41.154011139996776" lon="14.001702526949122"><ele>18.0</ele><time>2026-04-11T16:17:20Z</time></trkpt><trkpt lat="41.15409870944684" lon="14.00196058893219"><ele>18.0</ele><time>2026-04-11T16:17:21Z</time></trkpt><trkpt lat="41.15417375645883" lon="14.002235488614124"><ele>18.0</ele><time>2026-04-11T16:17:22Z</time></trkpt><trkpt lat="41.15422914662289" lon="14.002520930134668"><ele>18.0</ele><time>2026-04-11T16:17:23Z</time></trkpt><trkpt lat="41.154255389454576" lon="14.00280985522047"><ele>17.5</ele><time>2026-04-11T16:17:24Z</time></trkpt><trkpt lat="41.1542663309139" lon="14.003101072561268"><ele>17.0</ele><time>2026-04-11T16:17:25Z</time></trkpt><trkpt lat="41.154255466922976" lon="14.003408194356432"><ele>17.0</ele><time>2026-04-11T16:17:26.001Z</time></trkpt><trkpt lat="41.154232664202475" lon="14.003731194006644"><ele>17.0</ele><time>2026-04-11T16:17:27.001Z</time></trkpt><trkpt lat="41.154206038453744" lon="14.004065242888915"><ele>17.0</ele><time>2026-04-11T16:17:28.001Z</time></trkpt><trkpt lat="41.15418136084423" lon="14.004408749447443"><ele>17.0</ele><time>2026-04-11T16:17:29.001Z</time></trkpt><trkpt lat="41.154155132671065" lon="14.004765814924802"><ele>17.5</ele><time>2026-04-11T16:17:30.001Z</time></trkpt><trkpt lat="41.154128676984804" lon="14.005134436267447"><ele>18.0</ele><time>2026-04-11T16:17:31.001Z</time></trkpt><trkpt lat="41.15409784928214" lon="14.005501807417337"><ele>17.0</ele><time>2026-04-11T16:17:32.001Z</time></trkpt><trkpt lat="41.15406954888192" lon="14.005862933830844"><ele>16.0</ele><time>2026-04-11T16:17:33.001Z</time></trkpt><trkpt lat="41.154041067193575" lon="14.006219965455495"><ele>15.5</ele><time>2026-04-11T16:17:34.001Z</time></trkpt><trkpt lat="41.15401064840625" lon="14.006580422164724"><ele>15.0</ele><time>2026-04-11T16:17:35.001Z</time></trkpt><trkpt lat="41.15398049648944" lon="14.0069258592495"><ele>15.5</ele><time>2026-04-11T16:17:36.001Z</time></trkpt><trkpt lat="41.1539517200601" lon="14.007258075430826"><ele>16.0</ele><time>2026-04-11T16:17:37.001Z</time></trkpt><trkpt lat="41.1539245505504" lon="14.007583382295856"><ele>16.0</ele><time>2026-04-11T16:17:38.001Z</time></trkpt><trkpt lat="41.153898731158804" lon="14.007895246706026"><ele>16.0</ele><time>2026-04-11T16:17:39.001Z</time></trkpt><trkpt lat="41.15387631978061" lon="14.008214633169581"><ele>16.0</ele><time>2026-04-11T16:17:40.001Z</time></trkpt><trkpt lat="41.153855983764124" lon="14.008541833950666"><ele>16.0</ele><time>2026-04-11T16:17:41.001Z</time></trkpt><trkpt lat="41.153835107120884" lon="14.008864734847188"><ele>16.0</ele><time>2026-04-11T16:17:42.001Z</time></trkpt><trkpt lat="41.15381151909453" lon="14.009181475489667"><ele>16.0</ele><time>2026-04-11T16:17:43.001Z</time></trkpt><trkpt lat="41.15378686416262" lon="14.009512997643695"><ele>16.0</ele><time>2026-04-11T16:17:44.001Z</time></trkpt><trkpt lat="41.15375246404724" lon="14.009843422492171"><ele>16.0</ele><time>2026-04-11T16:17:45.001Z</time></trkpt><trkpt lat="41.153726913345736" lon="14.010177685745594"><ele>15.5</ele><time>2026-04-11T16:17:46.001Z</time></trkpt><trkpt lat="41.1536971812547" lon="14.010526802449993"><ele>15.0</ele><time>2026-04-11T16:17:47.001Z</time></trkpt><trkpt lat="41.1536744812404" lon="14.01089474552246"><ele>15.0</ele><time>2026-04-11T16:17:48.001Z</time></trkpt><trkpt lat="41.15364483411938" lon="14.011255281746653"><ele>15.0</ele><time>2026-04-11T16:17:49.001Z</time></trkpt><trkpt lat="41.153611936544955" lon="14.011624985282895"><ele>15.5</ele><time>2026-04-11T16:17:50.001Z</time></trkpt><trkpt lat="41.15358909319255" lon="14.011987819217744"><ele>16.0</ele><time>2026-04-11T16:17:51.001Z</time></trkpt><trkpt lat="41.15356295494721" lon="14.012361837167727"><ele>15.5</ele><time>2026-04-11T16:17:52.001Z</time></trkpt><trkpt lat="41.153541577599526" lon="14.012735677863569"><ele>15.0</ele><time>2026-04-11T16:17:53.001Z</time></trkpt><trkpt lat="41.15351888047257" lon="14.013113654457053"><ele>16.0</ele><time>2026-04-11T16:17:54.001Z</time></trkpt><trkpt lat="41.15349543862139" lon="14.01349355680729"><ele>17.0</ele><time>2026-04-11T16:17:55.001Z</time></trkpt><trkpt lat="41.153468501030375" lon="14.01387089634395"><ele>16.5</ele><time>2026-04-11T16:17:56.001Z</time></trkpt><trkpt lat="41.153439250668406" lon="14.014251241971904"><ele>16.0</ele><time>2026-04-11T16:17:57.001Z</time></trkpt><trkpt lat="41.15341113354066" lon="14.01462726844898"><ele>15.5</ele><time>2026-04-11T16:17:58.001Z</time></trkpt><trkpt lat="41.15338136282696" lon="14.015007312525958"><ele>15.0</ele><time>2026-04-11T16:17:59.001Z</time></trkpt><trkpt lat="41.1533528793219" lon="14.015389149626698"><ele>15.0</ele><time>2026-04-11T16:18:00.001Z</time></trkpt><trkpt lat="41.1533245269192" lon="14.015770253825405"><ele>15.0</ele><time>2026-04-11T16:18:01.001Z</time></trkpt><trkpt lat="41.153292119366164" lon="14.016150674785358"><ele>16.0</ele><time>2026-04-11T16:18:02.001Z</time></trkpt><trkpt lat="41.1532615582069" lon="14.016526378938984"><ele>17.0</ele><time>2026-04-11T16:18:03.001Z</time></trkpt><trkpt lat="41.153227951127725" lon="14.016904949561615"><ele>17.0</ele><time>2026-04-11T16:18:04.001Z</time></trkpt><trkpt lat="41.153196160864624" lon="14.017284719074912"><ele>17.0</ele><time>2026-04-11T16:18:05.001Z</time></trkpt><trkpt lat="41.153166006167226" lon="14.017665467710794"><ele>17.0</ele><time>2026-04-11T16:18:06.001Z</time></trkpt><trkpt lat="41.1531409811689" lon="14.018047570464097"><ele>17.0</ele><time>2026-04-11T16:18:07.001Z</time></trkpt><trkpt lat="41.15311157091641" lon="14.01844209196433"><ele>17.0</ele><time>2026-04-11T16:18:08.001Z</time></trkpt><trkpt lat="41.15308485322255" lon="14.018831340584967"><ele>17.0</ele><time>2026-04-11T16:18:09.001Z</time></trkpt><trkpt lat="41.153053238834154" lon="14.019219861113985"><ele>17.5</ele><time>2026-04-11T16:18:10.001Z</time></trkpt><trkpt lat="41.153024022851795" lon="14.01960855442108"><ele>18.0</ele><time>2026-04-11T16:18:11.001Z</time></trkpt><trkpt lat="41.15299352895796" lon="14.019999570134209"><ele>18.0</ele><time>2026-04-11T16:18:12.001Z</time></trkpt><trkpt lat="41.15296200084181" lon="14.020391975318697"><ele>18.0</ele><time>2026-04-11T16:18:13.001Z</time></trkpt><trkpt lat="41.152929518237606" lon="14.02078475978302"><ele>18.0</ele><time>2026-04-11T16:18:14.001Z</time></trkpt><trkpt lat="41.15289945504692" lon="14.02117455282515"><ele>18.0</ele><time>2026-04-11T16:18:15.001Z</time></trkpt><trkpt lat="41.152869127665475" lon="14.021567640662907"><ele>17.5</ele><time>2026-04-11T16:18:16.001Z</time></trkpt><trkpt lat="41.152838229455725" lon="14.021956875637802"><ele>17.0</ele><time>2026-04-11T16:18:17.001Z</time></trkpt><trkpt lat="41.152806850344724" lon="14.022343501629543"><ele>17.5</ele><time>2026-04-11T16:18:18.001Z</time></trkpt><trkpt lat="41.1527821168459" lon="14.02273046516244"><ele>18.0</ele><time>2026-04-11T16:18:19.001Z</time></trkpt><trkpt lat="41.15275529634025" lon="14.023119562302293"><ele>17.5</ele><time>2026-04-11T16:18:20.001Z</time></trkpt><trkpt lat="41.15272682201782" lon="14.023508535337418"><ele>17.0</ele><time>2026-04-11T16:18:21.001Z</time></trkpt><trkpt lat="41.15270144782514" lon="14.023904838563901"><ele>17.0</ele><time>2026-04-11T16:18:22.001Z</time></trkpt><trkpt lat="41.152673515449074" lon="14.024296653160096"><ele>17.0</ele><time>2026-04-11T16:18:23.001Z</time></trkpt><trkpt lat="41.15265375704374" lon="14.024694760741669"><ele>18.0</ele><time>2026-04-11T16:18:24.001Z</time></trkpt><trkpt lat="41.152635902392326" lon="14.025072484382608"><ele>19.0</ele><time>2026-04-11T16:18:25.001Z</time></trkpt><trkpt lat="41.15261531454136" lon="14.025422573541572"><ele>19.0</ele><time>2026-04-11T16:18:26.001Z</time></trkpt><trkpt lat="41.15258582250107" lon="14.025761454604151"><ele>19.0</ele><time>2026-04-11T16:18:27.001Z</time></trkpt><trkpt lat="41.15256787690356" lon="14.02608458625965"><ele>19.0</ele><time>2026-04-11T16:18:28.001Z</time></trkpt><trkpt lat="41.15253905436069" lon="14.026411960729737"><ele>19.0</ele><time>2026-04-11T16:18:29.001Z</time></trkpt><trkpt lat="41.152528072602514" lon="14.026734304926759"><ele>18.5</ele><time>2026-04-11T16:18:30.001Z</time></trkpt><trkpt lat="41.15251198279496" lon="14.027052498495"><ele>18.0</ele><time>2026-04-11T16:18:31.001Z</time></trkpt><trkpt lat="41.15250360826492" lon="14.027369966913623"><ele>18.0</ele><time>2026-04-11T16:18:32Z</time></trkpt><trkpt lat="41.15250657660748" lon="14.027697120462477"><ele>18.0</ele><time>2026-04-11T16:18:33Z</time></trkpt><trkpt lat="41.152517676374" lon="14.02802589489127"><ele>17.0</ele><time>2026-04-11T16:18:34Z</time></trkpt><trkpt lat="41.152552685837854" lon="14.028332732886597"><ele>16.0</ele><time>2026-04-11T16:18:35Z</time></trkpt><trkpt lat="41.152595590979594" lon="14.02864026005142"><ele>16.0</ele><time>2026-04-11T16:18:36Z</time></trkpt><trkpt lat="41.15264267862877" lon="14.02893560695511"><ele>16.0</ele><time>2026-04-11T16:18:37Z</time></trkpt><trkpt lat="41.152705062621266" lon="14.029227771460102"><ele>16.5</ele><time>2026-04-11T16:18:38Z</time></trkpt><trkpt lat="41.1527738708329" lon="14.029520020407777"><ele>17.0</ele><time>2026-04-11T16:18:39Z</time></trkpt><trkpt lat="41.152853919370145" lon="14.029793250213464"><ele>17.0</ele><time>2026-04-11T16:18:40Z</time></trkpt><trkpt lat="41.1529345632518" lon="14.030042539216518"><ele>17.0</ele><time>2026-04-11T16:18:41Z</time></trkpt><trkpt lat="41.15301818209591" lon="14.030269922408275"><ele>17.0</ele><time>2026-04-11T16:18:42Z</time></trkpt><trkpt lat="41.15310876493025" lon="14.030489141077007"><ele>17.0</ele><time>2026-04-11T16:18:43Z</time></trkpt><trkpt lat="41.15319429323366" lon="14.03068909034408"><ele>17.0</ele><time>2026-04-11T16:18:44Z</time></trkpt><trkpt lat="41.15327793753012" lon="14.030857650548011"><ele>17.0</ele><time>2026-04-11T16:18:45Z</time></trkpt><trkpt lat="41.15334798594698" lon="14.030982399561442"><ele>17.0</ele><time>2026-04-11T16:18:46Z</time></trkpt><trkpt lat="41.15342068759498" lon="14.031100915904604"><ele>17.2</ele><time>2026-04-11T16:18:47Z</time></trkpt><trkpt lat="41.15347916438862" lon="14.031212008551222"><ele>17.4</ele><time>2026-04-11T16:18:48Z</time></trkpt><trkpt lat="41.15351562513827" lon="14.031313785567177"><ele>17.6</ele><time>2026-04-11T16:18:49Z</time></trkpt><trkpt lat="41.15354577026634" lon="14.031397349407221"><ele>17.8</ele><time>2026-04-11T16:18:50Z</time></trkpt><trkpt lat="41.153583873356155" lon="14.031490002307228"><ele>18.0</ele><time>2026-04-11T16:18:52Z</time></trkpt><trkpt lat="41.15355478371712" lon="14.031652223822764"><ele>18.0</ele><time>2026-04-11T16:18:54Z</time></trkpt><trkpt lat="41.15349899720549" lon="14.03176201737981"><ele>18.0</ele><time>2026-04-11T16:18:55Z</time></trkpt><trkpt lat="41.15342755449265" lon="14.031915696047204"><ele>18.0</ele><time>2026-04-11T16:18:56Z</time></trkpt><trkpt lat="41.15336353474491" lon="14.032051146970943"><ele>18.0</ele><time>2026-04-11T16:18:57Z</time></trkpt><trkpt lat="41.153299250805844" lon="14.032176926995819"><ele>18.0</ele><time>2026-04-11T16:18:58Z</time></trkpt><trkpt lat="41.15323023741994" lon="14.032314250280004"><ele>18.0</ele><time>2026-04-11T16:18:59Z</time></trkpt><trkpt lat="41.1531681381133" lon="14.032450159370926"><ele>18.0</ele><time>2026-04-11T16:19:00Z</time></trkpt><trkpt lat="41.1531034731971" lon="14.032587083716031"><ele>18.0</ele><time>2026-04-11T16:19:01Z</time></trkpt><trkpt lat="41.15303623181178" lon="14.032738357661511"><ele>17.5</ele><time>2026-04-11T16:19:02Z</time></trkpt><trkpt lat="41.1529601672514" lon="14.032880633902279"><ele>17.0</ele><time>2026-04-11T16:19:03Z</time></trkpt><trkpt lat="41.152878426061385" lon="14.03300570893676"><ele>16.5</ele><time>2026-04-11T16:19:04Z</time></trkpt><trkpt lat="41.152815060047054" lon="14.033157037430282"><ele>16.0</ele><time>2026-04-11T16:19:05Z</time></trkpt><trkpt lat="41.15274125319614" lon="14.033300739544726"><ele>16.2</ele><time>2026-04-11T16:19:06Z</time></trkpt><trkpt lat="41.15268237438176" lon="14.03343482598988"><ele>16.400000000000002</ele><time>2026-04-11T16:19:07Z</time></trkpt><trkpt lat="41.15261774441681" lon="14.03354620560413"><ele>16.6</ele><time>2026-04-11T16:19:08Z</time></trkpt><trkpt lat="41.15255244080338" lon="14.033658599609877"><ele>16.8</ele><time>2026-04-11T16:19:09Z</time></trkpt><trkpt lat="41.15249361473565" lon="14.033768469564361"><ele>17.0</ele><time>2026-04-11T16:19:10Z</time></trkpt><trkpt lat="41.152428195433245" lon="14.033873819995414"><ele>16.8</ele><time>2026-04-11T16:19:11Z</time></trkpt><trkpt lat="41.15236116654226" lon="14.0339990715038"><ele>16.6</ele><time>2026-04-11T16:19:12Z</time></trkpt><trkpt lat="41.15229910825986" lon="14.034105922760162"><ele>16.400000000000002</ele><time>2026-04-11T16:19:13Z</time></trkpt><trkpt lat="41.15223862085784" lon="14.034221819910618"><ele>16.2</ele><time>2026-04-11T16:19:14Z</time></trkpt><trkpt lat="41.152192116610244" lon="14.034326726533003"><ele>16.0</ele><time>2026-04-11T16:19:15Z</time></trkpt><trkpt lat="41.152147659383154" lon="14.034413353024185"><ele>16.333333333333332</ele><time>2026-04-11T16:19:16Z</time></trkpt><trkpt lat="41.152096020470296" lon="14.034500644558511"><ele>16.666666666666664</ele><time>2026-04-11T16:19:17Z</time></trkpt><trkpt lat="41.1520390290698" lon="14.034578444218726"><ele>17.0</ele><time>2026-04-11T16:19:18Z</time></trkpt><trkpt lat="41.15199311454947" lon="14.034660509946665"><ele>17.333333333333332</ele><time>2026-04-11T16:19:19Z</time></trkpt><trkpt lat="41.15194454082914" lon="14.034719076353959"><ele>17.666666666666668</ele><time>2026-04-11T16:19:20Z</time></trkpt><trkpt lat="41.15190043708145" lon="14.034797169925715"><ele>18.0</ele><time>2026-04-11T16:19:22Z</time></trkpt><trkpt lat="41.15182182304331" lon="14.034859805756223"><ele>18.0</ele><time>2026-04-11T16:19:24Z</time></trkpt><trkpt lat="41.15175853796842" lon="14.034950207581499"><ele>18.0</ele><time>2026-04-11T16:19:26Z</time></trkpt><trkpt lat="41.151799090725305" lon="14.035072962307929"><ele>18.0</ele><time>2026-04-11T16:19:28Z</time></trkpt><trkpt lat="41.15186410369939" lon="14.03513345037916"><ele>18.0</ele><time>2026-04-11T16:19:29Z</time></trkpt><trkpt lat="41.15196248329477" lon="14.03514857551838"><ele>18.0</ele><time>2026-04-11T16:19:30.001Z</time></trkpt><trkpt lat="41.15209222716332" lon="14.035183531231745"><ele>18.0</ele><time>2026-04-11T16:19:31.001Z</time></trkpt><trkpt lat="41.15219507037131" lon="14.035292269135335"><ele>18.0</ele><time>2026-04-11T16:19:32.001Z</time></trkpt><trkpt lat="41.15230021807415" lon="14.035380854783167"><ele>18.0</ele><time>2026-04-11T16:19:33.001Z</time></trkpt><trkpt lat="41.15240025059983" lon="14.035476500011315"><ele>18.0</ele><time>2026-04-11T16:19:34.001Z</time></trkpt><trkpt lat="41.1525017260285" lon="14.035587712380325"><ele>18.0</ele><time>2026-04-11T16:19:35.001Z</time></trkpt><trkpt lat="41.15259510175866" lon="14.035695898165844"><ele>18.0</ele><time>2026-04-11T16:19:36.001Z</time></trkpt><trkpt lat="41.15267831134054" lon="14.035845461907972"><ele>18.0</ele><time>2026-04-11T16:19:37.001Z</time></trkpt><trkpt lat="41.1527588583542" lon="14.036028654074087"><ele>18.0</ele><time>2026-04-11T16:19:38.001Z</time></trkpt><trkpt lat="41.15285714447456" lon="14.036229638221531"><ele>18.0</ele><time>2026-04-11T16:19:39.001Z</time></trkpt><trkpt lat="41.152913563609864" lon="14.036475757776476"><ele>18.0</ele><time>2026-04-11T16:19:40.001Z</time></trkpt><trkpt lat="41.15300176748215" lon="14.036715733145805"><ele>18.0</ele><time>2026-04-11T16:19:41.001Z</time></trkpt><trkpt lat="41.15310460634626" lon="14.036967806339673"><ele>17.666666666666668</ele><time>2026-04-11T16:19:42.001Z</time></trkpt><trkpt lat="41.1532187280613" lon="14.03723304690598"><ele>17.333333333333336</ele><time>2026-04-11T16:19:43.001Z</time></trkpt><trkpt lat="41.15332073520642" lon="14.03747726681225"><ele>17.0</ele><time>2026-04-11T16:19:44.001Z</time></trkpt><trkpt lat="41.15341290083248" lon="14.037708967541727"><ele>17.0</ele><time>2026-04-11T16:19:45.001Z</time></trkpt><trkpt lat="41.15350962343347" lon="14.037931800421923"><ele>17.0</ele><time>2026-04-11T16:19:46.001Z</time></trkpt><trkpt lat="41.1536073871968" lon="14.038134456686674"><ele>17.0</ele><time>2026-04-11T16:19:47.001Z</time></trkpt><trkpt lat="41.15370989867679" lon="14.038345983021928"><ele>17.333333333333336</ele><time>2026-04-11T16:19:48.001Z</time></trkpt><trkpt lat="41.153799157551894" lon="14.038551172394273"><ele>17.666666666666668</ele><time>2026-04-11T16:19:49.001Z</time></trkpt><trkpt lat="41.15390321258084" lon="14.03875026866381"><ele>18.0</ele><time>2026-04-11T16:19:50.001Z</time></trkpt><trkpt lat="41.153993225970154" lon="14.038936525710191"><ele>18.0</ele><time>2026-04-11T16:19:51.001Z</time></trkpt><trkpt lat="41.15408097017524" lon="14.03911811911668"><ele>18.0</ele><time>2026-04-11T16:19:52.001Z</time></trkpt><trkpt lat="41.15416408574883" lon="14.039285680456786"><ele>18.0</ele><time>2026-04-11T16:19:53.001Z</time></trkpt><trkpt lat="41.15424085318768" lon="14.039448328757572"><ele>18.4</ele><time>2026-04-11T16:19:54.001Z</time></trkpt><trkpt lat="41.15430372711089" lon="14.03959476989103"><ele>18.8</ele><time>2026-04-11T16:19:55.001Z</time></trkpt><trkpt lat="41.154359962517546" lon="14.039716356520081"><ele>19.2</ele><time>2026-04-11T16:19:56.001Z</time></trkpt><trkpt lat="41.15440549638218" lon="14.039833542536787"><ele>19.6</ele><time>2026-04-11T16:19:57.001Z</time></trkpt><trkpt lat="41.15445238558309" lon="14.039952615528795"><ele>20.0</ele><time>2026-04-11T16:19:58.001Z</time></trkpt><trkpt lat="41.15449942754574" lon="14.04007592721578"><ele>20.0</ele><time>2026-04-11T16:19:59.001Z</time></trkpt><trkpt lat="41.154549702070014" lon="14.040189527587902"><ele>20.0</ele><time>2026-04-11T16:20:00.001Z</time></trkpt><trkpt lat="41.15461170085701" lon="14.040312377491116"><ele>20.0</ele><time>2026-04-11T16:20:01.001Z</time></trkpt><trkpt lat="41.15467010631603" lon="14.040457640573738"><ele>20.0</ele><time>2026-04-11T16:20:02.001Z</time></trkpt><trkpt lat="41.15473153000577" lon="14.040598836186538"><ele>20.0</ele><time>2026-04-11T16:20:03.001Z</time></trkpt><trkpt lat="41.154797570808576" lon="14.040733787042452"><ele>20.0</ele><time>2026-04-11T16:20:04.001Z</time></trkpt><trkpt lat="41.15484634068246" lon="14.04088294512999"><ele>20.0</ele><time>2026-04-11T16:20:05.001Z</time></trkpt><trkpt lat="41.154907244748486" lon="14.041025061291089"><ele>20.0</ele><time>2026-04-11T16:20:06.001Z</time></trkpt><trkpt lat="41.15496303942038" lon="14.041155296184051"><ele>19.75</ele><time>2026-04-11T16:20:07.001Z</time></trkpt><trkpt lat="41.15501913974964" lon="14.041286727720351"><ele>19.5</ele><time>2026-04-11T16:20:08.001Z</time></trkpt><trkpt lat="41.15508576776733" lon="14.041442644964011"><ele>19.25</ele><time>2026-04-11T16:20:09.001Z</time></trkpt><trkpt lat="41.155164375981556" lon="14.041626597243402"><ele>19.0</ele><time>2026-04-11T16:20:10.001Z</time></trkpt><trkpt lat="41.15523683462559" lon="14.041796158821512"><ele>18.5</ele><time>2026-04-11T16:20:11.001Z</time></trkpt><trkpt lat="41.1552970397954" lon="14.041937045850698"><ele>18.0</ele><time>2026-04-11T16:20:12.001Z</time></trkpt><trkpt lat="41.15535643150782" lon="14.042076029293902"><ele>17.5</ele><time>2026-04-11T16:20:13.001Z</time></trkpt><trkpt lat="41.15542322606645" lon="14.042190629646068"><ele>17.0</ele><time>2026-04-11T16:20:14.001Z</time></trkpt><trkpt lat="41.15544381906523" lon="14.042319308732592"><ele>17.0</ele><time>2026-04-11T16:20:15.001Z</time></trkpt><trkpt lat="41.15548073560764" lon="14.042429482938655"><ele>17.0</ele><time>2026-04-11T16:20:16.001Z</time></trkpt><trkpt lat="41.15551681555178" lon="14.04252478569056"><ele>17.0</ele><time>2026-04-11T16:20:17.001Z</time></trkpt><trkpt lat="41.155554624402086" lon="14.04262145856595"><ele>17.0</ele><time>2026-04-11T16:20:18.001Z</time></trkpt><trkpt lat="41.155584115223874" lon="14.0427053289882"><ele>17.0</ele><time>2026-04-11T16:20:19.001Z</time></trkpt><trkpt lat="41.155636022029746" lon="14.042840161558695"><ele>17.0</ele><time>2026-04-11T16:20:21.001Z</time></trkpt><trkpt lat="41.155713675129704" lon="14.042960793668426"><ele>18.0</ele><time>2026-04-11T16:20:23.001Z</time></trkpt><trkpt lat="41.15580269124824" lon="14.043108135550487"><ele>19.0</ele><time>2026-04-11T16:20:25.001Z</time></trkpt><trkpt lat="41.15584174286891" lon="14.04321496398081"><ele>20.0</ele><time>2026-04-11T16:20:26.001Z</time></trkpt><trkpt lat="41.15589657536083" lon="14.043336922527814"><ele>21.0</ele><time>2026-04-11T16:20:27.001Z</time></trkpt><trkpt lat="41.155953130965706" lon="14.043472298789409"><ele>21.25</ele><time>2026-04-11T16:20:28.001Z</time></trkpt><trkpt lat="41.156016698662626" lon="14.04361012914961"><ele>21.5</ele><time>2026-04-11T16:20:29.001Z</time></trkpt><trkpt lat="41.156067235410354" lon="14.043749706577833"><ele>21.75</ele><time>2026-04-11T16:20:30.001Z</time></trkpt><trkpt lat="41.15613145419299" lon="14.043900085823417"><ele>22.0</ele><time>2026-04-11T16:20:31.001Z</time></trkpt><trkpt lat="41.15619015916375" lon="14.04403755354129"><ele>22.25</ele><time>2026-04-11T16:20:32.001Z</time></trkpt><trkpt lat="41.156254394818" lon="14.044187519236614"><ele>22.5</ele><time>2026-04-11T16:20:33.001Z</time></trkpt><trkpt lat="41.156332231110746" lon="14.044368908752887"><ele>22.75</ele><time>2026-04-11T16:20:34.001Z</time></trkpt><trkpt lat="41.15640791359221" lon="14.044545279021852"><ele>23.0</ele><time>2026-04-11T16:20:35.001Z</time></trkpt><trkpt lat="41.15648970850156" lon="14.044735893693066"><ele>23.666666666666668</ele><time>2026-04-11T16:20:36.001Z</time></trkpt><trkpt lat="41.15657386568463" lon="14.044932013388252"><ele>24.333333333333336</ele><time>2026-04-11T16:20:37.001Z</time></trkpt><trkpt lat="41.15666072030313" lon="14.045137485198511"><ele>25.0</ele><time>2026-04-11T16:20:38Z</time></trkpt><trkpt lat="41.15674895181435" lon="14.045344604685285"><ele>25.0</ele><time>2026-04-11T16:20:39Z</time></trkpt><trkpt lat="41.156836160413654" lon="14.045548041375381"><ele>25.0</ele><time>2026-04-11T16:20:40Z</time></trkpt><trkpt lat="41.156936893557635" lon="14.045744618890946"><ele>25.0</ele><time>2026-04-11T16:20:41Z</time></trkpt><trkpt lat="41.157016503836616" lon="14.045950583926667"><ele>24.333333333333336</ele><time>2026-04-11T16:20:42Z</time></trkpt><trkpt lat="41.1571096256805" lon="14.046183356875728"><ele>23.666666666666668</ele><time>2026-04-11T16:20:43Z</time></trkpt><trkpt lat="41.15720547441603" lon="14.046425199942684"><ele>23.0</ele><time>2026-04-11T16:20:44Z</time></trkpt><trkpt lat="41.15729331153372" lon="14.046654725977604"><ele>23.666666666666668</ele><time>2026-04-11T16:20:45Z</time></trkpt><trkpt lat="41.15737784450436" lon="14.046895107154482"><ele>24.333333333333336</ele><time>2026-04-11T16:20:46Z</time></trkpt><trkpt lat="41.157470753392424" lon="14.047141167689928"><ele>25.0</ele><time>2026-04-11T16:20:47Z</time></trkpt><trkpt lat="41.157564872656856" lon="14.047379222868313"><ele>26.0</ele><time>2026-04-11T16:20:48Z</time></trkpt><trkpt lat="41.157662964136165" lon="14.047648215052064"><ele>27.0</ele><time>2026-04-11T16:20:49Z</time></trkpt><trkpt lat="41.15777742276269" lon="14.047924430022105"><ele>27.0</ele><time>2026-04-11T16:20:50Z</time></trkpt><trkpt lat="41.157896487967825" lon="14.048202664156564"><ele>27.0</ele><time>2026-04-11T16:20:51Z</time></trkpt><trkpt lat="41.158017616440716" lon="14.04849221740976"><ele>27.0</ele><time>2026-04-11T16:20:52Z</time></trkpt><trkpt lat="41.158149696234695" lon="14.048782976025437"><ele>27.0</ele><time>2026-04-11T16:20:53Z</time></trkpt><trkpt lat="41.15827905684743" lon="14.049088207586989"><ele>26.0</ele><time>2026-04-11T16:20:54Z</time></trkpt><trkpt lat="41.15840641828609" lon="14.049381558638649"><ele>25.0</ele><time>2026-04-11T16:20:55Z</time></trkpt><trkpt lat="41.15850994353823" lon="14.049676433508699"><ele>24.5</ele><time>2026-04-11T16:20:56Z</time></trkpt><trkpt lat="41.15865378677445" lon="14.049964571059768"><ele>24.0</ele><time>2026-04-11T16:20:57Z</time></trkpt><trkpt lat="41.158782151738" lon="14.050260720071384"><ele>24.0</ele><time>2026-04-11T16:20:58Z</time></trkpt><trkpt lat="41.158897387205755" lon="14.05056563673314"><ele>24.0</ele><time>2026-04-11T16:20:59Z</time></trkpt><trkpt lat="41.15903708920344" lon="14.050854070109969"><ele>24.0</ele><time>2026-04-11T16:21:00Z</time></trkpt><trkpt lat="41.159167085062194" lon="14.051157134072989"><ele>24.0</ele><time>2026-04-11T16:21:01Z</time></trkpt><trkpt lat="41.15930005043399" lon="14.051467120953143"><ele>23.0</ele><time>2026-04-11T16:21:02Z</time></trkpt><trkpt lat="41.15943442627884" lon="14.051734480308475"><ele>22.0</ele><time>2026-04-11T16:21:03Z</time></trkpt><trkpt lat="41.15957935238136" lon="14.05201601973906"><ele>22.0</ele><time>2026-04-11T16:21:04Z</time></trkpt><trkpt lat="41.15970368431097" lon="14.052326895675687"><ele>22.0</ele><time>2026-04-11T16:21:05Z</time></trkpt><trkpt lat="41.15982884187429" lon="14.052620233090073"><ele>23.5</ele><time>2026-04-11T16:21:06Z</time></trkpt><trkpt lat="41.15996706857659" lon="14.052901263751734"><ele>25.0</ele><time>2026-04-11T16:21:07Z</time></trkpt><trkpt lat="41.16010024290125" lon="14.05320373194589"><ele>26.5</ele><time>2026-04-11T16:21:08Z</time></trkpt><trkpt lat="41.16022775781886" lon="14.053513705165953"><ele>28.0</ele><time>2026-04-11T16:21:09Z</time></trkpt><trkpt lat="41.16036449201272" lon="14.053824330351251"><ele>27.0</ele><time>2026-04-11T16:21:10Z</time></trkpt><trkpt lat="41.16049902658344" lon="14.054135713695002"><ele>26.0</ele><time>2026-04-11T16:21:11Z</time></trkpt><trkpt lat="41.16063878868803" lon="14.054447620029928"><ele>26.0</ele><time>2026-04-11T16:21:12Z</time></trkpt><trkpt lat="41.16077349966346" lon="14.054762545984671"><ele>26.0</ele><time>2026-04-11T16:21:13Z</time></trkpt><trkpt lat="41.1609079829706" lon="14.055074877744753"><ele>26.0</ele><time>2026-04-11T16:21:14Z</time></trkpt><trkpt lat="41.161039322515194" lon="14.055394647675973"><ele>26.0</ele><time>2026-04-11T16:21:15Z</time></trkpt><trkpt lat="41.16117605217641" lon="14.055722326626796"><ele>26.0</ele><time>2026-04-11T16:21:16Z</time></trkpt><trkpt lat="41.16131087971181" lon="14.056039392541749"><ele>26.0</ele><time>2026-04-11T16:21:17Z</time></trkpt><trkpt lat="41.16144526319524" lon="14.056360723950393"><ele>26.5</ele><time>2026-04-11T16:21:18Z</time></trkpt><trkpt lat="41.16158085052942" lon="14.056678981085822"><ele>27.0</ele><time>2026-04-11T16:21:19Z</time></trkpt><trkpt lat="41.161715041063914" lon="14.057007554525846"><ele>27.0</ele><time>2026-04-11T16:21:20Z</time></trkpt><trkpt lat="41.161855550712254" lon="14.057326724186314"><ele>27.0</ele><time>2026-04-11T16:21:21Z</time></trkpt><trkpt lat="41.16199906450382" lon="14.057647475134711"><ele>27.0</ele><time>2026-04-11T16:21:22Z</time></trkpt><trkpt lat="41.16213336068962" lon="14.05797672039237"><ele>27.0</ele><time>2026-04-11T16:21:23Z</time></trkpt><trkpt lat="41.1622718879255" lon="14.05830610918528"><ele>28.0</ele><time>2026-04-11T16:21:24Z</time></trkpt><trkpt lat="41.16240883206343" lon="14.058638033454484"><ele>29.0</ele><time>2026-04-11T16:21:25Z</time></trkpt><trkpt lat="41.16255098265414" lon="14.058957416561285"><ele>29.0</ele><time>2026-04-11T16:21:26Z</time></trkpt><trkpt lat="41.162689657840176" lon="14.059280351399552"><ele>29.0</ele><time>2026-04-11T16:21:27.001Z</time></trkpt><trkpt lat="41.16282866887372" lon="14.059605984766275"><ele>29.0</ele><time>2026-04-11T16:21:28.001Z</time></trkpt><trkpt lat="41.16297010957708" lon="14.059935208601951"><ele>29.0</ele><time>2026-04-11T16:21:29.001Z</time></trkpt><trkpt lat="41.163106007630084" lon="14.060279601348588"><ele>30.5</ele><time>2026-04-11T16:21:30.001Z</time></trkpt><trkpt lat="41.163253767405656" lon="14.060638910980659"><ele>32.0</ele><time>2026-04-11T16:21:31.001Z</time></trkpt><trkpt lat="41.16340438801223" lon="14.061004073564078"><ele>32.0</ele><time>2026-04-11T16:21:32.001Z</time></trkpt><trkpt lat="41.16356007114448" lon="14.061371715350475"><ele>32.0</ele><time>2026-04-11T16:21:33.001Z</time></trkpt><trkpt lat="41.16370880568472" lon="14.061728337140607"><ele>31.5</ele><time>2026-04-11T16:21:34.001Z</time></trkpt><trkpt lat="41.163864044441304" lon="14.06210390244304"><ele>31.0</ele><time>2026-04-11T16:21:35.001Z</time></trkpt><trkpt lat="41.16401631233189" lon="14.062466130245312"><ele>31.0</ele><time>2026-04-11T16:21:36.001Z</time></trkpt><trkpt lat="41.164156886746206" lon="14.062810758689123"><ele>31.0</ele><time>2026-04-11T16:21:37.001Z</time></trkpt><trkpt lat="41.16427949847528" lon="14.06313491200658"><ele>31.0</ele><time>2026-04-11T16:21:38.001Z</time></trkpt><trkpt lat="41.16441037650247" lon="14.063444985043096"><ele>31.0</ele><time>2026-04-11T16:21:39.001Z</time></trkpt><trkpt lat="41.16453406583072" lon="14.06373563007416"><ele>31.0</ele><time>2026-04-11T16:21:40.001Z</time></trkpt><trkpt lat="41.16464742236382" lon="14.064028723792836"><ele>31.0</ele><time>2026-04-11T16:21:41.001Z</time></trkpt><trkpt lat="41.164768595747994" lon="14.064306952426248"><ele>32.0</ele><time>2026-04-11T16:21:42.001Z</time></trkpt><trkpt lat="41.164884176527686" lon="14.06458110011119"><ele>33.0</ele><time>2026-04-11T16:21:43.001Z</time></trkpt><trkpt lat="41.16500917759672" lon="14.064845586044758"><ele>33.0</ele><time>2026-04-11T16:21:44.001Z</time></trkpt><trkpt lat="41.16511730563355" lon="14.065136067810576"><ele>33.0</ele><time>2026-04-11T16:21:45.001Z</time></trkpt><trkpt lat="41.16523535008328" lon="14.065426114025755"><ele>33.0</ele><time>2026-04-11T16:21:46.001Z</time></trkpt><trkpt lat="41.16535616841662" lon="14.065725399767084"><ele>33.0</ele><time>2026-04-11T16:21:47.001Z</time></trkpt><trkpt lat="41.16549542035004" lon="14.066030742282802"><ele>33.0</ele><time>2026-04-11T16:21:48.001Z</time></trkpt><trkpt lat="41.165626497998375" lon="14.066344106380969"><ele>33.0</ele><time>2026-04-11T16:21:49.001Z</time></trkpt><trkpt lat="41.165764449554" lon="14.06666611888744"><ele>33.0</ele><time>2026-04-11T16:21:50.001Z</time></trkpt><trkpt lat="41.1659109638195" lon="14.066992171262433"><ele>33.0</ele><time>2026-04-11T16:21:51.001Z</time></trkpt><trkpt lat="41.16605137325576" lon="14.067322827311965"><ele>33.0</ele><time>2026-04-11T16:21:52.001Z</time></trkpt><trkpt lat="41.16618835598293" lon="14.067655923707127"><ele>33.0</ele><time>2026-04-11T16:21:53.001Z</time></trkpt><trkpt lat="41.16632735617738" lon="14.067990394954823"><ele>33.0</ele><time>2026-04-11T16:21:54.001Z</time></trkpt><trkpt lat="41.16646894610546" lon="14.068328018124397"><ele>33.0</ele><time>2026-04-11T16:21:55.001Z</time></trkpt><trkpt lat="41.166610669787886" lon="14.068665863098367"><ele>33.5</ele><time>2026-04-11T16:21:56.001Z</time></trkpt><trkpt lat="41.16675766166565" lon="14.069005837236269"><ele>34.0</ele><time>2026-04-11T16:21:57.001Z</time></trkpt><trkpt lat="41.16690960718024" lon="14.069345404820988"><ele>34.0</ele><time>2026-04-11T16:21:58.001Z</time></trkpt><trkpt lat="41.16705154019811" lon="14.069690229757265"><ele>34.0</ele><time>2026-04-11T16:21:59.001Z</time></trkpt><trkpt lat="41.167192555374285" lon="14.070032731521053"><ele>35.0</ele><time>2026-04-11T16:22:00.001Z</time></trkpt><trkpt lat="41.167337531301" lon="14.07037408007104"><ele>36.0</ele><time>2026-04-11T16:22:01.001Z</time></trkpt><trkpt lat="41.167480755409514" lon="14.07072199674572"><ele>36.0</ele><time>2026-04-11T16:22:02.001Z</time></trkpt><trkpt lat="41.16762842316712" lon="14.07107321574264"><ele>36.0</ele><time>2026-04-11T16:22:03.001Z</time></trkpt><trkpt lat="41.16777964092422" lon="14.07143151123796"><ele>35.5</ele><time>2026-04-11T16:22:04.001Z</time></trkpt><trkpt lat="41.16792731361895" lon="14.071795308302494"><ele>35.0</ele><time>2026-04-11T16:22:05.001Z</time></trkpt><trkpt lat="41.16807724627354" lon="14.072160931452032"><ele>36.0</ele><time>2026-04-11T16:22:06.001Z</time></trkpt><trkpt lat="41.16822343209354" lon="14.072540203571101"><ele>37.0</ele><time>2026-04-11T16:22:07.001Z</time></trkpt><trkpt lat="41.168377992260346" lon="14.072912026089025"><ele>36.5</ele><time>2026-04-11T16:22:08.001Z</time></trkpt><trkpt lat="41.168532507812365" lon="14.073283392914506"><ele>36.0</ele><time>2026-04-11T16:22:09.001Z</time></trkpt><trkpt lat="41.16868362670491" lon="14.07366254647806"><ele>36.0</ele><time>2026-04-11T16:22:10.001Z</time></trkpt><trkpt lat="41.168835027452715" lon="14.074043236616301"><ele>36.0</ele><time>2026-04-11T16:22:11.001Z</time></trkpt><trkpt lat="41.168991317180314" lon="14.074422789029832"><ele>37.0</ele><time>2026-04-11T16:22:12.001Z</time></trkpt><trkpt lat="41.169147423239146" lon="14.074792125285528"><ele>38.0</ele><time>2026-04-11T16:22:13.001Z</time></trkpt><trkpt lat="41.169305540821085" lon="14.075155699696733"><ele>36.0</ele><time>2026-04-11T16:22:14.001Z</time></trkpt><trkpt lat="41.16946266955848" lon="14.075531732306606"><ele>34.0</ele><time>2026-04-11T16:22:15.001Z</time></trkpt><trkpt lat="41.1696102116214" lon="14.075914876137256"><ele>34.0</ele><time>2026-04-11T16:22:16.001Z</time></trkpt><trkpt lat="41.16976408818634" lon="14.07628114737626"><ele>34.0</ele><time>2026-04-11T16:22:17.001Z</time></trkpt><trkpt lat="41.169917517146565" lon="14.076655458979335"><ele>35.5</ele><time>2026-04-11T16:22:18.001Z</time></trkpt><trkpt lat="41.17007487404976" lon="14.077026975479674"><ele>37.0</ele><time>2026-04-11T16:22:19.001Z</time></trkpt><trkpt lat="41.17022797504681" lon="14.077388100521839"><ele>36.5</ele><time>2026-04-11T16:22:20.001Z</time></trkpt><trkpt lat="41.17037852986557" lon="14.077748742350682"><ele>36.0</ele><time>2026-04-11T16:22:21.001Z</time></trkpt><trkpt lat="41.17052694793822" lon="14.078107470439699"><ele>37.0</ele><time>2026-04-11T16:22:22.001Z</time></trkpt><trkpt lat="41.170670371046924" lon="14.078467115904953"><ele>38.0</ele><time>2026-04-11T16:22:23.001Z</time></trkpt><trkpt lat="41.170825347640445" lon="14.078804308586689"><ele>38.5</ele><time>2026-04-11T16:22:24.001Z</time></trkpt><trkpt lat="41.17097520104191" lon="14.07915549769111"><ele>39.0</ele><time>2026-04-11T16:22:25.001Z</time></trkpt><trkpt lat="41.17112593847346" lon="14.07949687713093"><ele>39.0</ele><time>2026-04-11T16:22:26.001Z</time></trkpt><trkpt lat="41.17127183490464" lon="14.07984713318355"><ele>39.0</ele><time>2026-04-11T16:22:27.001Z</time></trkpt><trkpt lat="41.17141507453311" lon="14.080202752127825"><ele>39.5</ele><time>2026-04-11T16:22:28.001Z</time></trkpt><trkpt lat="41.17155700347571" lon="14.080554798531283"><ele>40.0</ele><time>2026-04-11T16:22:29.001Z</time></trkpt><trkpt lat="41.171712734867945" lon="14.080905336322301"><ele>40.0</ele><time>2026-04-11T16:22:30.001Z</time></trkpt><trkpt lat="41.17187000154444" lon="14.081238215115876"><ele>40.0</ele><time>2026-04-11T16:22:31.001Z</time></trkpt><trkpt lat="41.17203041581356" lon="14.0815855091073"><ele>40.0</ele><time>2026-04-11T16:22:32.001Z</time></trkpt><trkpt lat="41.17218443829542" lon="14.081921453339309"><ele>40.0</ele><time>2026-04-11T16:22:33.001Z</time></trkpt><trkpt lat="41.172314281044805" lon="14.082240316577943"><ele>40.5</ele><time>2026-04-11T16:22:34.001Z</time></trkpt><trkpt lat="41.1724329440518" lon="14.082547363919106"><ele>41.0</ele><time>2026-04-11T16:22:35.001Z</time></trkpt><trkpt lat="41.17255823297246" lon="14.08284983501547"><ele>41.0</ele><time>2026-04-11T16:22:36.001Z</time></trkpt><trkpt lat="41.172685896307925" lon="14.083144916975115"><ele>41.0</ele><time>2026-04-11T16:22:37.001Z</time></trkpt><trkpt lat="41.17281486412177" lon="14.08344306615273"><ele>41.0</ele><time>2026-04-11T16:22:38.001Z</time></trkpt><trkpt lat="41.17292576266119" lon="14.083734766330481"><ele>41.0</ele><time>2026-04-11T16:22:39.001Z</time></trkpt><trkpt lat="41.173045309335656" lon="14.084034164353401"><ele>41.5</ele><time>2026-04-11T16:22:40.001Z</time></trkpt><trkpt lat="41.17318248468323" lon="14.084326783432351"><ele>42.0</ele><time>2026-04-11T16:22:41.001Z</time></trkpt><trkpt lat="41.17331312185125" lon="14.084631779487603"><ele>42.5</ele><time>2026-04-11T16:22:42.001Z</time></trkpt><trkpt lat="41.173439149017526" lon="14.084918700730958"><ele>43.0</ele><time>2026-04-11T16:22:43.001Z</time></trkpt><trkpt lat="41.173559923056395" lon="14.085211841714244"><ele>43.0</ele><time>2026-04-11T16:22:44Z</time></trkpt><trkpt lat="41.1736816862137" lon="14.085488642584929"><ele>43.0</ele><time>2026-04-11T16:22:45Z</time></trkpt><trkpt lat="41.17378816991136" lon="14.085755647689313"><ele>43.0</ele><time>2026-04-11T16:22:46Z</time></trkpt><trkpt lat="41.17389844220105" lon="14.086026214861413"><ele>43.0</ele><time>2026-04-11T16:22:47Z</time></trkpt><trkpt lat="41.174009920103884" lon="14.086300824581494"><ele>43.0</ele><time>2026-04-11T16:22:48Z</time></trkpt><trkpt lat="41.174120537697334" lon="14.086562526700336"><ele>43.0</ele><time>2026-04-11T16:22:49Z</time></trkpt><trkpt lat="41.17421755122129" lon="14.086820506050811"><ele>43.0</ele><time>2026-04-11T16:22:50Z</time></trkpt><trkpt lat="41.17431979945109" lon="14.087074506033892"><ele>43.0</ele><time>2026-04-11T16:22:51Z</time></trkpt><trkpt lat="41.17443699669573" lon="14.087332799605115"><ele>43.0</ele><time>2026-04-11T16:22:52Z</time></trkpt><trkpt lat="41.17454914982855" lon="14.087594504736801"><ele>42.5</ele><time>2026-04-11T16:22:53Z</time></trkpt><trkpt lat="41.174668111695105" lon="14.087858702281844"><ele>42.0</ele><time>2026-04-11T16:22:54Z</time></trkpt><trkpt lat="41.17478144602798" lon="14.088116861757719"><ele>42.333333333333336</ele><time>2026-04-11T16:22:55Z</time></trkpt><trkpt lat="41.174888721655506" lon="14.08836469399373"><ele>42.66666666666667</ele><time>2026-04-11T16:22:56Z</time></trkpt><trkpt lat="41.17497420395407" lon="14.088598275896297"><ele>43.0</ele><time>2026-04-11T16:22:57Z</time></trkpt><trkpt lat="41.17506934862959" lon="14.088812310835516"><ele>43.0</ele><time>2026-04-11T16:22:58Z</time></trkpt><trkpt lat="41.17515936817467" lon="14.089025543871328"><ele>43.0</ele><time>2026-04-11T16:22:59Z</time></trkpt><trkpt lat="41.17523319355449" lon="14.089252459802102"><ele>43.0</ele><time>2026-04-11T16:23:00Z</time></trkpt><trkpt lat="41.1753196464009" lon="14.089477554254056"><ele>42.66666666666667</ele><time>2026-04-11T16:23:01Z</time></trkpt><trkpt lat="41.1754386806567" lon="14.089717088932012"><ele>42.333333333333336</ele><time>2026-04-11T16:23:02Z</time></trkpt><trkpt lat="41.175553983877876" lon="14.089960049209752"><ele>42.0</ele><time>2026-04-11T16:23:03Z</time></trkpt><trkpt lat="41.17566347992393" lon="14.0902181654444"><ele>42.5</ele><time>2026-04-11T16:23:04Z</time></trkpt><trkpt lat="41.17577571822416" lon="14.090482804537869"><ele>43.0</ele><time>2026-04-11T16:23:05Z</time></trkpt><trkpt lat="41.17588046527532" lon="14.090747345344512"><ele>42.5</ele><time>2026-04-11T16:23:06Z</time></trkpt><trkpt lat="41.17599080900995" lon="14.091011248908838"><ele>42.0</ele><time>2026-04-11T16:23:07Z</time></trkpt><trkpt lat="41.1761174805908" lon="14.091259388067073"><ele>42.0</ele><time>2026-04-11T16:23:08Z</time></trkpt><trkpt lat="41.17621187112635" lon="14.091517946392859"><ele>42.0</ele><time>2026-04-11T16:23:09Z</time></trkpt><trkpt lat="41.176318929345754" lon="14.091741060705619"><ele>42.0</ele><time>2026-04-11T16:23:10Z</time></trkpt><trkpt lat="41.1764223884992" lon="14.09195244805615"><ele>42.333333333333336</ele><time>2026-04-11T16:23:11Z</time></trkpt><trkpt lat="41.176506736207934" lon="14.092167206718285"><ele>42.66666666666667</ele><time>2026-04-11T16:23:12Z</time></trkpt><trkpt lat="41.17659381769825" lon="14.09236470844054"><ele>43.0</ele><time>2026-04-11T16:23:13Z</time></trkpt><trkpt lat="41.17666691308605" lon="14.092552446011386"><ele>43.5</ele><time>2026-04-11T16:23:14Z</time></trkpt><trkpt lat="41.17673851585542" lon="14.092737639603587"><ele>44.0</ele><time>2026-04-11T16:23:15Z</time></trkpt><trkpt lat="41.17681437706257" lon="14.092900689993513"><ele>44.5</ele><time>2026-04-11T16:23:16Z</time></trkpt><trkpt lat="41.176878385463915" lon="14.09304620724295"><ele>45.0</ele><time>2026-04-11T16:23:17Z</time></trkpt><trkpt lat="41.1769358761241" lon="14.093178485065796"><ele>45.0</ele><time>2026-04-11T16:23:18Z</time></trkpt><trkpt lat="41.17698741114661" lon="14.093311071990438"><ele>45.0</ele><time>2026-04-11T16:23:19Z</time></trkpt><trkpt lat="41.1770255674041" lon="14.093433454214246"><ele>45.0</ele><time>2026-04-11T16:23:20Z</time></trkpt><trkpt lat="41.17706795434184" lon="14.093529202874574"><ele>45.0</ele><time>2026-04-11T16:23:21Z</time></trkpt><trkpt lat="41.17708990697996" lon="14.093639712259176"><ele>45.0</ele><time>2026-04-11T16:23:22Z</time></trkpt><trkpt lat="41.17710362527188" lon="14.093765860204265"><ele>45.0</ele><time>2026-04-11T16:23:23Z</time></trkpt><trkpt lat="41.177115427861615" lon="14.09391678052821"><ele>45.0</ele><time>2026-04-11T16:23:24Z</time></trkpt><trkpt lat="41.17710545295444" lon="14.09410946184791"><ele>45.0</ele><time>2026-04-11T16:23:25Z</time></trkpt><trkpt lat="41.17709988756177" lon="14.094308949374348"><ele>45.0</ele><time>2026-04-11T16:23:26Z</time></trkpt><trkpt lat="41.17708702223526" lon="14.094527171324092"><ele>44.666666666666664</ele><time>2026-04-11T16:23:27Z</time></trkpt><trkpt lat="41.17705975799619" lon="14.094750531039315"><ele>44.33333333333333</ele><time>2026-04-11T16:23:28Z</time></trkpt><trkpt lat="41.177045864691365" lon="14.09498074349921"><ele>44.0</ele><time>2026-04-11T16:23:29Z</time></trkpt><trkpt lat="41.17703209869192" lon="14.095213934787115"><ele>44.0</ele><time>2026-04-11T16:23:30Z</time></trkpt><trkpt lat="41.1770173822068" lon="14.095449676183934"><ele>44.0</ele><time>2026-04-11T16:23:31Z</time></trkpt><trkpt lat="41.17700330090773" lon="14.095688884598902"><ele>44.0</ele><time>2026-04-11T16:23:32Z</time></trkpt><trkpt lat="41.176987837331495" lon="14.095933778185401"><ele>44.0</ele><time>2026-04-11T16:23:33Z</time></trkpt><trkpt lat="41.176972628439664" lon="14.09618525195734"><ele>44.0</ele><time>2026-04-11T16:23:34Z</time></trkpt><trkpt lat="41.176982232647696" lon="14.09643687136228"><ele>44.0</ele><time>2026-04-11T16:23:35Z</time></trkpt><trkpt lat="41.176961699851184" lon="14.096691520421464"><ele>44.33333333333333</ele><time>2026-04-11T16:23:36Z</time></trkpt><trkpt lat="41.17694578516667" lon="14.096960402912353"><ele>44.666666666666664</ele><time>2026-04-11T16:23:37.001Z</time></trkpt><trkpt lat="41.1769265896461" lon="14.097219477159763"><ele>45.0</ele><time>2026-04-11T16:23:38.001Z</time></trkpt><trkpt lat="41.17690876055672" lon="14.09747808959501"><ele>45.0</ele><time>2026-04-11T16:23:39.001Z</time></trkpt><trkpt lat="41.17689010131929" lon="14.097739023606879"><ele>45.0</ele><time>2026-04-11T16:23:40.001Z</time></trkpt><trkpt lat="41.17687470266638" lon="14.098007946610581"><ele>45.0</ele><time>2026-04-11T16:23:41.001Z</time></trkpt><trkpt lat="41.176851125994254" lon="14.098272303791791"><ele>44.666666666666664</ele><time>2026-04-11T16:23:42.001Z</time></trkpt><trkpt lat="41.17683300558936" lon="14.098542386215929"><ele>44.33333333333333</ele><time>2026-04-11T16:23:43.001Z</time></trkpt><trkpt lat="41.17682073675591" lon="14.09880879006549"><ele>44.0</ele><time>2026-04-11T16:23:44.001Z</time></trkpt><trkpt lat="41.17680257271741" lon="14.099074894798706"><ele>44.33333333333333</ele><time>2026-04-11T16:23:45.001Z</time></trkpt><trkpt lat="41.17678713735668" lon="14.099347708239792"><ele>44.666666666666664</ele><time>2026-04-11T16:23:46.001Z</time></trkpt><trkpt lat="41.17677333063208" lon="14.099617154929177"><ele>45.0</ele><time>2026-04-11T16:23:47.001Z</time></trkpt><trkpt lat="41.17675279863243" lon="14.099895954173018"><ele>44.666666666666664</ele><time>2026-04-11T16:23:48.001Z</time></trkpt><trkpt lat="41.176736554081735" lon="14.100167495874578"><ele>44.33333333333333</ele><time>2026-04-11T16:23:49.001Z</time></trkpt><trkpt lat="41.17671838700286" lon="14.10044354924894"><ele>44.0</ele><time>2026-04-11T16:23:50.001Z</time></trkpt><trkpt lat="41.176704495038045" lon="14.100720858441006"><ele>43.666666666666664</ele><time>2026-04-11T16:23:51.001Z</time></trkpt><trkpt lat="41.17668793587252" lon="14.100998302448856"><ele>43.333333333333336</ele><time>2026-04-11T16:23:52.001Z</time></trkpt><trkpt lat="41.17666976799904" lon="14.101281002609486"><ele>43.0</ele><time>2026-04-11T16:23:53.001Z</time></trkpt><trkpt lat="41.176649080389645" lon="14.101561885359134"><ele>43.333333333333336</ele><time>2026-04-11T16:23:54.001Z</time></trkpt><trkpt lat="41.17663104652673" lon="14.101845669220522"><ele>43.666666666666664</ele><time>2026-04-11T16:23:55.001Z</time></trkpt><trkpt lat="41.17661367615946" lon="14.10213356416911"><ele>44.0</ele><time>2026-04-11T16:23:56.001Z</time></trkpt><trkpt lat="41.17659764177376" lon="14.102425924520837"><ele>44.0</ele><time>2026-04-11T16:23:57.001Z</time></trkpt><trkpt lat="41.1765920867906" lon="14.102709700016826"><ele>44.0</ele><time>2026-04-11T16:23:58.001Z</time></trkpt><trkpt lat="41.17656987125379" lon="14.10299964331988"><ele>44.0</ele><time>2026-04-11T16:23:59.001Z</time></trkpt><trkpt lat="41.176542256870135" lon="14.103285906220481"><ele>44.0</ele><time>2026-04-11T16:24:00.001Z</time></trkpt><trkpt lat="41.176526555678564" lon="14.103578190843248"><ele>44.0</ele><time>2026-04-11T16:24:01.001Z</time></trkpt><trkpt lat="41.17651085802474" lon="14.103872423801583"><ele>44.0</ele><time>2026-04-11T16:24:02.001Z</time></trkpt><trkpt lat="41.176492818566324" lon="14.104168011266214"><ele>43.5</ele><time>2026-04-11T16:24:03.001Z</time></trkpt><trkpt lat="41.176473851805405" lon="14.104469844354442"><ele>43.0</ele><time>2026-04-11T16:24:04.001Z</time></trkpt><trkpt lat="41.17646071279041" lon="14.10476960511334"><ele>43.66666666666667</ele><time>2026-04-11T16:24:05.001Z</time></trkpt><trkpt lat="41.17644796977088" lon="14.105068290398613"><ele>44.333333333333336</ele><time>2026-04-11T16:24:06.001Z</time></trkpt><trkpt lat="41.17643711089213" lon="14.105361588635645"><ele>45.0</ele><time>2026-04-11T16:24:07.001Z</time></trkpt><trkpt lat="41.17642483939328" lon="14.10565564964676"><ele>44.0</ele><time>2026-04-11T16:24:08.001Z</time></trkpt><trkpt lat="41.17640868268206" lon="14.105951526372914"><ele>43.0</ele><time>2026-04-11T16:24:09.001Z</time></trkpt><trkpt lat="41.176398060034366" lon="14.106243865796175"><ele>42.0</ele><time>2026-04-11T16:24:10.001Z</time></trkpt><trkpt lat="41.17638060026195" lon="14.10654485787345"><ele>43.0</ele><time>2026-04-11T16:24:11.001Z</time></trkpt><trkpt lat="41.1763598999335" lon="14.106843273676889"><ele>44.0</ele><time>2026-04-11T16:24:12.001Z</time></trkpt><trkpt lat="41.17634704250575" lon="14.107143974520914"><ele>44.5</ele><time>2026-04-11T16:24:13.001Z</time></trkpt><trkpt lat="41.176330960641984" lon="14.107447031844833"><ele>45.0</ele><time>2026-04-11T16:24:14.001Z</time></trkpt><trkpt lat="41.17630264412948" lon="14.10776329074787"><ele>45.0</ele><time>2026-04-11T16:24:15.001Z</time></trkpt><trkpt lat="41.1763013238277" lon="14.108079180595437"><ele>45.0</ele><time>2026-04-11T16:24:16.001Z</time></trkpt><trkpt lat="41.17628023316009" lon="14.10838979092737"><ele>45.0</ele><time>2026-04-11T16:24:17.001Z</time></trkpt><trkpt lat="41.176259853300756" lon="14.108714472020619"><ele>45.0</ele><time>2026-04-11T16:24:18.001Z</time></trkpt><trkpt lat="41.17624042087993" lon="14.109029883562654"><ele>44.5</ele><time>2026-04-11T16:24:19.001Z</time></trkpt><trkpt lat="41.176207309999306" lon="14.109351003379915"><ele>44.0</ele><time>2026-04-11T16:24:20.001Z</time></trkpt><trkpt lat="41.17618283625873" lon="14.109673631779954"><ele>44.5</ele><time>2026-04-11T16:24:21.001Z</time></trkpt><trkpt lat="41.176158931132704" lon="14.109991781547418"><ele>45.0</ele><time>2026-04-11T16:24:22.001Z</time></trkpt><trkpt lat="41.1761379123533" lon="14.11030599215145"><ele>45.0</ele><time>2026-04-11T16:24:23.001Z</time></trkpt><trkpt lat="41.1761190130368" lon="14.110626153409068"><ele>45.0</ele><time>2026-04-11T16:24:24.001Z</time></trkpt><trkpt lat="41.17609962461298" lon="14.110930612697507"><ele>45.0</ele><time>2026-04-11T16:24:25.001Z</time></trkpt><trkpt lat="41.17607914128684" lon="14.1112224231819"><ele>45.0</ele><time>2026-04-11T16:24:26.001Z</time></trkpt><trkpt lat="41.176062951025536" lon="14.111519042999213"><ele>45.0</ele><time>2026-04-11T16:24:27.001Z</time></trkpt><trkpt lat="41.176049754441486" lon="14.111812000513147"><ele>45.0</ele><time>2026-04-11T16:24:28.001Z</time></trkpt><trkpt lat="41.176024162204115" lon="14.112103999751056"><ele>45.0</ele><time>2026-04-11T16:24:29.001Z</time></trkpt><trkpt lat="41.17600550053398" lon="14.112392608218205"><ele>45.0</ele><time>2026-04-11T16:24:30.001Z</time></trkpt><trkpt lat="41.17598874664532" lon="14.112690290233239"><ele>45.0</ele><time>2026-04-11T16:24:31.001Z</time></trkpt><trkpt lat="41.17597097407876" lon="14.112989273999615"><ele>45.0</ele><time>2026-04-11T16:24:32.001Z</time></trkpt><trkpt lat="41.17595983181724" lon="14.113276752126954"><ele>45.0</ele><time>2026-04-11T16:24:33.001Z</time></trkpt><trkpt lat="41.17596507399341" lon="14.113555921962114"><ele>44.666666666666664</ele><time>2026-04-11T16:24:34.001Z</time></trkpt><trkpt lat="41.17594613529944" lon="14.113840123484538"><ele>44.33333333333333</ele><time>2026-04-11T16:24:35.001Z</time></trkpt><trkpt lat="41.17593519214105" lon="14.114130128910812"><ele>44.0</ele><time>2026-04-11T16:24:36.001Z</time></trkpt><trkpt lat="41.175940166313964" lon="14.114424847743575"><ele>44.0</ele><time>2026-04-11T16:24:37.001Z</time></trkpt><trkpt lat="41.17593087472352" lon="14.114716800604992"><ele>44.0</ele><time>2026-04-11T16:24:38.001Z</time></trkpt><trkpt lat="41.17591813861312" lon="14.115010049727319"><ele>44.0</ele><time>2026-04-11T16:24:39.001Z</time></trkpt><trkpt lat="41.17590493611835" lon="14.11530432516534"><ele>44.0</ele><time>2026-04-11T16:24:40.001Z</time></trkpt><trkpt lat="41.175885867426075" lon="14.115605057477083"><ele>44.0</ele><time>2026-04-11T16:24:41.001Z</time></trkpt><trkpt lat="41.17586597157363" lon="14.115907691400734"><ele>44.0</ele><time>2026-04-11T16:24:42.001Z</time></trkpt><trkpt lat="41.17585788828039" lon="14.116204872954993"><ele>44.0</ele><time>2026-04-11T16:24:43.001Z</time></trkpt><trkpt lat="41.17584555017873" lon="14.116502524411045"><ele>44.0</ele><time>2026-04-11T16:24:44.001Z</time></trkpt><trkpt lat="41.175824522883275" lon="14.116786266309887"><ele>44.0</ele><time>2026-04-11T16:24:45.001Z</time></trkpt><trkpt lat="41.17580970215141" lon="14.117077081781499"><ele>44.0</ele><time>2026-04-11T16:24:46.001Z</time></trkpt><trkpt lat="41.175790750721404" lon="14.117361341323818"><ele>44.0</ele><time>2026-04-11T16:24:47.001Z</time></trkpt><trkpt lat="41.1757691316443" lon="14.117655874959672"><ele>43.666666666666664</ele><time>2026-04-11T16:24:48.001Z</time></trkpt><trkpt lat="41.17575384944693" lon="14.11793353255932"><ele>43.333333333333336</ele><time>2026-04-11T16:24:49.001Z</time></trkpt><trkpt lat="41.175741759982145" lon="14.11821453235372"><ele>43.0</ele><time>2026-04-11T16:24:50Z</time></trkpt><trkpt lat="41.17572677430993" lon="14.11849076312288"><ele>43.0</ele><time>2026-04-11T16:24:51Z</time></trkpt><trkpt lat="41.17571393156525" lon="14.11876042171741"><ele>43.0</ele><time>2026-04-11T16:24:52Z</time></trkpt><trkpt lat="41.1757071000972" lon="14.11902911436293"><ele>43.0</ele><time>2026-04-11T16:24:53Z</time></trkpt><trkpt lat="41.17568868623536" lon="14.119294618075747"><ele>43.0</ele><time>2026-04-11T16:24:54Z</time></trkpt><trkpt lat="41.17567413965121" lon="14.11956706409649"><ele>43.0</ele><time>2026-04-11T16:24:55Z</time></trkpt><trkpt lat="41.17565659580569" lon="14.119831677372245"><ele>43.0</ele><time>2026-04-11T16:24:56Z</time></trkpt><trkpt lat="41.17564121081053" lon="14.120106762315359"><ele>43.66666666666667</ele><time>2026-04-11T16:24:57Z</time></trkpt><trkpt lat="41.175619449849606" lon="14.120397543088448"><ele>44.333333333333336</ele><time>2026-04-11T16:24:58Z</time></trkpt><trkpt lat="41.17560285221302" lon="14.12069181215071"><ele>45.0</ele><time>2026-04-11T16:24:59Z</time></trkpt><trkpt lat="41.175590609330115" lon="14.120996260464802"><ele>45.0</ele><time>2026-04-11T16:25:00Z</time></trkpt><trkpt lat="41.17556723464426" lon="14.121293869011842"><ele>45.0</ele><time>2026-04-11T16:25:01Z</time></trkpt><trkpt lat="41.17555348929348" lon="14.121603036420883"><ele>45.0</ele><time>2026-04-11T16:25:02Z</time></trkpt><trkpt lat="41.175534287311656" lon="14.121917212327684"><ele>45.0</ele><time>2026-04-11T16:25:03Z</time></trkpt><trkpt lat="41.17551761286657" lon="14.122217506753024"><ele>44.5</ele><time>2026-04-11T16:25:04Z</time></trkpt><trkpt lat="41.17549787121882" lon="14.122515611223388"><ele>44.0</ele><time>2026-04-11T16:25:05Z</time></trkpt><trkpt lat="41.17547327847914" lon="14.122817727966611"><ele>44.0</ele><time>2026-04-11T16:25:06Z</time></trkpt><trkpt lat="41.175442780971295" lon="14.12311697380483"><ele>44.0</ele><time>2026-04-11T16:25:07Z</time></trkpt><trkpt lat="41.175401590993715" lon="14.123422947408118"><ele>44.5</ele><time>2026-04-11T16:25:08Z</time></trkpt><trkpt lat="41.175354855543645" lon="14.123722052312322"><ele>45.0</ele><time>2026-04-11T16:25:09Z</time></trkpt><trkpt lat="41.175316821982925" lon="14.124028751126133"><ele>44.0</ele><time>2026-04-11T16:25:10Z</time></trkpt><trkpt lat="41.17527765943857" lon="14.124321725768732"><ele>43.0</ele><time>2026-04-11T16:25:11Z</time></trkpt><trkpt lat="41.17523780601203" lon="14.12461650202477"><ele>42.0</ele><time>2026-04-11T16:25:12Z</time></trkpt><trkpt lat="41.17519383226733" lon="14.124918074052454"><ele>42.0</ele><time>2026-04-11T16:25:13Z</time></trkpt><trkpt lat="41.17514537128871" lon="14.125215063590984"><ele>42.0</ele><time>2026-04-11T16:25:14Z</time></trkpt><trkpt lat="41.17509457828851" lon="14.125510795288886"><ele>43.5</ele><time>2026-04-11T16:25:15Z</time></trkpt><trkpt lat="41.17503740667414" lon="14.125812493316149"><ele>45.0</ele><time>2026-04-11T16:25:16Z</time></trkpt><trkpt lat="41.17497728538491" lon="14.126103761360067"><ele>45.0</ele><time>2026-04-11T16:25:17Z</time></trkpt><trkpt lat="41.17490927874463" lon="14.126389773369972"><ele>45.0</ele><time>2026-04-11T16:25:18Z</time></trkpt><trkpt lat="41.17482871803463" lon="14.126663861806914"><ele>45.0</ele><time>2026-04-11T16:25:19Z</time></trkpt><trkpt lat="41.17475717475093" lon="14.126934235037004"><ele>45.333333333333336</ele><time>2026-04-11T16:25:20Z</time></trkpt><trkpt lat="41.1746861090728" lon="14.127202281649772"><ele>45.66666666666667</ele><time>2026-04-11T16:25:21Z</time></trkpt><trkpt lat="41.17461027161044" lon="14.127468947305271"><ele>46.0</ele><time>2026-04-11T16:25:22Z</time></trkpt><trkpt lat="41.174558946783286" lon="14.12777096034954"><ele>46.0</ele><time>2026-04-11T16:25:23Z</time></trkpt><trkpt lat="41.17447567868605" lon="14.12801643858114"><ele>46.0</ele><time>2026-04-11T16:25:24Z</time></trkpt><trkpt lat="41.17440346893136" lon="14.128290693614122"><ele>46.0</ele><time>2026-04-11T16:25:25Z</time></trkpt><trkpt lat="41.17433174156616" lon="14.12857151470275"><ele>46.0</ele><time>2026-04-11T16:25:26Z</time></trkpt><trkpt lat="41.174254766140805" lon="14.1288439812067"><ele>46.0</ele><time>2026-04-11T16:25:27Z</time></trkpt><trkpt lat="41.1741798869036" lon="14.12911700940079"><ele>46.0</ele><time>2026-04-11T16:25:28Z</time></trkpt><trkpt lat="41.17411148083898" lon="14.12936964748135"><ele>46.0</ele><time>2026-04-11T16:25:29Z</time></trkpt><trkpt lat="41.17404275434675" lon="14.129611765251127"><ele>46.0</ele><time>2026-04-11T16:25:30Z</time></trkpt><trkpt lat="41.17398323395151" lon="14.129851748150697"><ele>46.0</ele><time>2026-04-11T16:25:31Z</time></trkpt><trkpt lat="41.17392135785739" lon="14.130112115461134"><ele>46.0</ele><time>2026-04-11T16:25:32Z</time></trkpt><trkpt lat="41.17384979163807" lon="14.13036266950025"><ele>46.0</ele><time>2026-04-11T16:25:33Z</time></trkpt><trkpt lat="41.17378058574936" lon="14.130614538829187"><ele>46.0</ele><time>2026-04-11T16:25:34Z</time></trkpt><trkpt lat="41.17371332632066" lon="14.130863567670302"><ele>46.0</ele><time>2026-04-11T16:25:35Z</time></trkpt><trkpt lat="41.173642434271045" lon="14.13111152503475"><ele>46.0</ele><time>2026-04-11T16:25:36Z</time></trkpt><trkpt lat="41.173563118477425" lon="14.131346988731844"><ele>46.0</ele><time>2026-04-11T16:25:37Z</time></trkpt><trkpt lat="41.17349636936493" lon="14.131601470434857"><ele>46.0</ele><time>2026-04-11T16:25:38Z</time></trkpt><trkpt lat="41.173430643361186" lon="14.131853826287152"><ele>46.0</ele><time>2026-04-11T16:25:39Z</time></trkpt><trkpt lat="41.173360732019816" lon="14.132102526345214"><ele>46.0</ele><time>2026-04-11T16:25:40Z</time></trkpt><trkpt lat="41.17328583278034" lon="14.132357997078035"><ele>46.333333333333336</ele><time>2026-04-11T16:25:41Z</time></trkpt><trkpt lat="41.17321640619298" lon="14.132617016448082"><ele>46.666666666666664</ele><time>2026-04-11T16:25:42Z</time></trkpt><trkpt lat="41.17315219513036" lon="14.132881417415707"><ele>47.0</ele><time>2026-04-11T16:25:43Z</time></trkpt><trkpt lat="41.173079389835706" lon="14.133132248516956"><ele>46.666666666666664</ele><time>2026-04-11T16:25:44.001Z</time></trkpt><trkpt lat="41.173007970400704" lon="14.133382660386197"><ele>46.333333333333336</ele><time>2026-04-11T16:25:45.001Z</time></trkpt><trkpt lat="41.1729332817243" lon="14.133632019277467"><ele>46.0</ele><time>2026-04-11T16:25:46.001Z</time></trkpt><trkpt lat="41.172875432001135" lon="14.133886865993077"><ele>44.66666666666667</ele><time>2026-04-11T16:25:47.001Z</time></trkpt><trkpt lat="41.17281355293169" lon="14.134142810971511"><ele>43.333333333333336</ele><time>2026-04-11T16:25:48.001Z</time></trkpt><trkpt lat="41.17274957073362" lon="14.134395423035333"><ele>42.0</ele><time>2026-04-11T16:25:49.001Z</time></trkpt><trkpt lat="41.17268378465016" lon="14.134650909724026"><ele>42.0</ele><time>2026-04-11T16:25:50.001Z</time></trkpt><trkpt lat="41.17261886712158" lon="14.134893576420072"><ele>42.0</ele><time>2026-04-11T16:25:51.001Z</time></trkpt><trkpt lat="41.172556967587006" lon="14.135140949475556"><ele>42.0</ele><time>2026-04-11T16:25:52.001Z</time></trkpt><trkpt lat="41.172498719988866" lon="14.135392740573943"><ele>42.0</ele><time>2026-04-11T16:25:53.001Z</time></trkpt><trkpt lat="41.17242682807572" lon="14.135628967607268"><ele>42.0</ele><time>2026-04-11T16:25:54.001Z</time></trkpt><trkpt lat="41.17236109763365" lon="14.135840181707323"><ele>42.0</ele><time>2026-04-11T16:25:55.001Z</time></trkpt><trkpt lat="41.17229971199997" lon="14.13605968380807"><ele>43.0</ele><time>2026-04-11T16:25:56.001Z</time></trkpt><trkpt lat="41.17223891320096" lon="14.136280354297321"><ele>44.0</ele><time>2026-04-11T16:25:57.001Z</time></trkpt><trkpt lat="41.17218063481033" lon="14.136491871616723"><ele>45.0</ele><time>2026-04-11T16:25:58.001Z</time></trkpt><trkpt lat="41.172121245235516" lon="14.136703162619284"><ele>45.0</ele><time>2026-04-11T16:25:59.001Z</time></trkpt><trkpt lat="41.17206797072454" lon="14.136922343174671"><ele>45.0</ele><time>2026-04-11T16:26:00.001Z</time></trkpt><trkpt lat="41.17200609973529" lon="14.137138807632345"><ele>45.0</ele><time>2026-04-11T16:26:01.001Z</time></trkpt><trkpt lat="41.17194633111266" lon="14.137362604806546"><ele>45.666666666666664</ele><time>2026-04-11T16:26:02.001Z</time></trkpt><trkpt lat="41.17188747413916" lon="14.137590652497423"><ele>46.33333333333333</ele><time>2026-04-11T16:26:03.001Z</time></trkpt><trkpt lat="41.171825867684326" lon="14.137823669265865"><ele>47.0</ele><time>2026-04-11T16:26:04.001Z</time></trkpt><trkpt lat="41.17176772765437" lon="14.13805481630589"><ele>47.0</ele><time>2026-04-11T16:26:05.001Z</time></trkpt><trkpt lat="41.17170963852732" lon="14.138280182281896"><ele>47.0</ele><time>2026-04-11T16:26:06.001Z</time></trkpt><trkpt lat="41.171649721604275" lon="14.138502259738251"><ele>47.0</ele><time>2026-04-11T16:26:07.001Z</time></trkpt><trkpt lat="41.17159135916156" lon="14.138723675250882"><ele>47.0</ele><time>2026-04-11T16:26:08.001Z</time></trkpt><trkpt lat="41.17153143648766" lon="14.138947255230894"><ele>47.0</ele><time>2026-04-11T16:26:09.001Z</time></trkpt><trkpt lat="41.171476299305375" lon="14.139173195500778"><ele>47.0</ele><time>2026-04-11T16:26:10.001Z</time></trkpt><trkpt lat="41.171411325779914" lon="14.139394646585535"><ele>47.0</ele><time>2026-04-11T16:26:11.001Z</time></trkpt><trkpt lat="41.17134953849819" lon="14.13962014620912"><ele>47.0</ele><time>2026-04-11T16:26:12.001Z</time></trkpt><trkpt lat="41.171286589565014" lon="14.139842970582555"><ele>47.0</ele><time>2026-04-11T16:26:13.001Z</time></trkpt><trkpt lat="41.17122417928208" lon="14.140061658167717"><ele>47.0</ele><time>2026-04-11T16:26:14.001Z</time></trkpt><trkpt lat="41.17117369294071" lon="14.140285566611158"><ele>47.0</ele><time>2026-04-11T16:26:15.001Z</time></trkpt><trkpt lat="41.171116524383315" lon="14.140509441078816"><ele>47.0</ele><time>2026-04-11T16:26:16.001Z</time></trkpt><trkpt lat="41.171055837919916" lon="14.140726216576638"><ele>46.666666666666664</ele><time>2026-04-11T16:26:17.001Z</time></trkpt><trkpt lat="41.17099354301646" lon="14.140948995828092"><ele>46.333333333333336</ele><time>2026-04-11T16:26:18.001Z</time></trkpt><trkpt lat="41.170929614754854" lon="14.141162110920533"><ele>46.0</ele><time>2026-04-11T16:26:19.001Z</time></trkpt><trkpt lat="41.170866057117706" lon="14.141373509344072"><ele>46.0</ele><time>2026-04-11T16:26:20.001Z</time></trkpt><trkpt lat="41.17080459129748" lon="14.141596284090376"><ele>46.0</ele><time>2026-04-11T16:26:21.001Z</time></trkpt><trkpt lat="41.17074660836174" lon="14.141824179077172"><ele>46.0</ele><time>2026-04-11T16:26:22.001Z</time></trkpt><trkpt lat="41.170671313833715" lon="14.142048234313794"><ele>46.0</ele><time>2026-04-11T16:26:23.001Z</time></trkpt><trkpt lat="41.17060431790863" lon="14.142276888394344"><ele>46.0</ele><time>2026-04-11T16:26:24.001Z</time></trkpt><trkpt lat="41.17054085739033" lon="14.142508516315576"><ele>46.0</ele><time>2026-04-11T16:26:25.001Z</time></trkpt><trkpt lat="41.17047041387229" lon="14.142737591310716"><ele>46.333333333333336</ele><time>2026-04-11T16:26:26.001Z</time></trkpt><trkpt lat="41.17039708685683" lon="14.142964815600305"><ele>46.666666666666664</ele><time>2026-04-11T16:26:27.001Z</time></trkpt><trkpt lat="41.17032439608737" lon="14.14319289965181"><ele>47.0</ele><time>2026-04-11T16:26:28.001Z</time></trkpt><trkpt lat="41.170267853782576" lon="14.143429908709342"><ele>47.33333333333333</ele><time>2026-04-11T16:26:29.001Z</time></trkpt><trkpt lat="41.170204454915456" lon="14.143656062868823"><ele>47.666666666666664</ele><time>2026-04-11T16:26:30.001Z</time></trkpt><trkpt lat="41.17014129444138" lon="14.143880943770371"><ele>48.0</ele><time>2026-04-11T16:26:31.001Z</time></trkpt><trkpt lat="41.17007704652808" lon="14.144107401731429"><ele>48.0</ele><time>2026-04-11T16:26:32.001Z</time></trkpt><trkpt lat="41.17000661063977" lon="14.144338584975614"><ele>48.0</ele><time>2026-04-11T16:26:33.001Z</time></trkpt><trkpt lat="41.169949247097925" lon="14.144558224847653"><ele>48.0</ele><time>2026-04-11T16:26:34.001Z</time></trkpt><trkpt lat="41.169900180289105" lon="14.144760958666154"><ele>47.0</ele><time>2026-04-11T16:26:35.001Z</time></trkpt><trkpt lat="41.169844189326014" lon="14.144968737891874"><ele>46.0</ele><time>2026-04-11T16:26:36.001Z</time></trkpt><trkpt lat="41.169800075959415" lon="14.14517315901591"><ele>45.0</ele><time>2026-04-11T16:26:37.001Z</time></trkpt><trkpt lat="41.1697389465155" lon="14.145368922232786"><ele>45.0</ele><time>2026-04-11T16:26:38.001Z</time></trkpt><trkpt lat="41.169692321563694" lon="14.14558562791061"><ele>45.0</ele><time>2026-04-11T16:26:39.001Z</time></trkpt><trkpt lat="41.16963633514034" lon="14.145792222778727"><ele>45.0</ele><time>2026-04-11T16:26:40.001Z</time></trkpt><trkpt lat="41.16957660195302" lon="14.145997739325635"><ele>45.333333333333336</ele><time>2026-04-11T16:26:41.001Z</time></trkpt><trkpt lat="41.169526056498796" lon="14.146206124673185"><ele>45.66666666666667</ele><time>2026-04-11T16:26:42.001Z</time></trkpt><trkpt lat="41.16946837834602" lon="14.146412892338802"><ele>46.0</ele><time>2026-04-11T16:26:43.001Z</time></trkpt><trkpt lat="41.16941556099624" lon="14.146623115348502"><ele>46.0</ele><time>2026-04-11T16:26:44.001Z</time></trkpt><trkpt lat="41.1693538809079" lon="14.146822761420227"><ele>46.0</ele><time>2026-04-11T16:26:45.001Z</time></trkpt><trkpt lat="41.16928924533079" lon="14.147020144844374"><ele>46.0</ele><time>2026-04-11T16:26:46.001Z</time></trkpt><trkpt lat="41.169230082959444" lon="14.147223892505483"><ele>46.0</ele><time>2026-04-11T16:26:47.001Z</time></trkpt><trkpt lat="41.16916904746717" lon="14.147427249400051"><ele>46.0</ele><time>2026-04-11T16:26:48.001Z</time></trkpt><trkpt lat="41.16910783368426" lon="14.147625073928749"><ele>46.0</ele><time>2026-04-11T16:26:49.001Z</time></trkpt><trkpt lat="41.16904901475406" lon="14.147833427287111"><ele>45.66666666666667</ele><time>2026-04-11T16:26:50.001Z</time></trkpt><trkpt lat="41.16899546874781" lon="14.148029679940748"><ele>45.333333333333336</ele><time>2026-04-11T16:26:51.001Z</time></trkpt><trkpt lat="41.16893984760318" lon="14.148223550490014"><ele>45.0</ele><time>2026-04-11T16:26:52.001Z</time></trkpt><trkpt lat="41.16888606527714" lon="14.14842125338894"><ele>44.666666666666664</ele><time>2026-04-11T16:26:53.001Z</time></trkpt><trkpt lat="41.16883277645304" lon="14.148611373837902"><ele>44.33333333333333</ele><time>2026-04-11T16:26:54.001Z</time></trkpt><trkpt lat="41.16877549876169" lon="14.148802799810053"><ele>44.0</ele><time>2026-04-11T16:26:55.001Z</time></trkpt><trkpt lat="41.168717893554046" lon="14.14899580825672"><ele>44.33333333333333</ele><time>2026-04-11T16:26:56Z</time></trkpt><trkpt lat="41.16867202988649" lon="14.14919569666336"><ele>44.666666666666664</ele><time>2026-04-11T16:26:57Z</time></trkpt><trkpt lat="41.16861674184691" lon="14.149384572559462"><ele>45.0</ele><time>2026-04-11T16:26:58Z</time></trkpt><trkpt lat="41.16857290511997" lon="14.149588230339509"><ele>45.0</ele><time>2026-04-11T16:26:59Z</time></trkpt><trkpt lat="41.168517539010956" lon="14.149786965091353"><ele>45.0</ele><time>2026-04-11T16:27:00Z</time></trkpt><trkpt lat="41.16846676447141" lon="14.149984698720065"><ele>45.0</ele><time>2026-04-11T16:27:01Z</time></trkpt><trkpt lat="41.16841030101703" lon="14.150179591597936"><ele>45.0</ele><time>2026-04-11T16:27:02Z</time></trkpt><trkpt lat="41.16835299460066" lon="14.15037419548134"><ele>45.0</ele><time>2026-04-11T16:27:03Z</time></trkpt><trkpt lat="41.168304978655335" lon="14.150578934857492"><ele>45.0</ele><time>2026-04-11T16:27:04Z</time></trkpt><trkpt lat="41.16824496845445" lon="14.150776639713957"><ele>43.666666666666664</ele><time>2026-04-11T16:27:05Z</time></trkpt><trkpt lat="41.16819063195534" lon="14.15097780233772"><ele>42.33333333333333</ele><time>2026-04-11T16:27:06Z</time></trkpt><trkpt lat="41.16813289171698" lon="14.151183504807486"><ele>41.0</ele><time>2026-04-11T16:27:07Z</time></trkpt><trkpt lat="41.16808637742917" lon="14.151390222072015"><ele>41.0</ele><time>2026-04-11T16:27:08Z</time></trkpt><trkpt lat="41.16803362066605" lon="14.151588981668842"><ele>41.0</ele><time>2026-04-11T16:27:09Z</time></trkpt><trkpt lat="41.16797822537634" lon="14.151799703477412"><ele>41.0</ele><time>2026-04-11T16:27:10Z</time></trkpt><trkpt lat="41.167913538323674" lon="14.152001787249189"><ele>41.0</ele><time>2026-04-11T16:27:11Z</time></trkpt><trkpt lat="41.16785388546877" lon="14.152206245954163"><ele>41.0</ele><time>2026-04-11T16:27:12Z</time></trkpt><trkpt lat="41.16778184610202" lon="14.15239618173944"><ele>41.0</ele><time>2026-04-11T16:27:13Z</time></trkpt><trkpt lat="41.16772107622159" lon="14.152606888826147"><ele>40.666666666666664</ele><time>2026-04-11T16:27:14Z</time></trkpt><trkpt lat="41.16765772397907" lon="14.152817166341647"><ele>40.333333333333336</ele><time>2026-04-11T16:27:15Z</time></trkpt><trkpt lat="41.16759386048462" lon="14.153024523229728"><ele>40.0</ele><time>2026-04-11T16:27:16Z</time></trkpt><trkpt lat="41.16753302873625" lon="14.153239470358322"><ele>40.0</ele><time>2026-04-11T16:27:17Z</time></trkpt><trkpt lat="41.167470192905675" lon="14.153448281551686"><ele>40.0</ele><time>2026-04-11T16:27:18Z</time></trkpt><trkpt lat="41.16739953315536" lon="14.153653825357216"><ele>40.0</ele><time>2026-04-11T16:27:19Z</time></trkpt><trkpt lat="41.167342462266475" lon="14.153869006501006"><ele>39.66666666666667</ele><time>2026-04-11T16:27:20Z</time></trkpt><trkpt lat="41.16728492228905" lon="14.154076446641232"><ele>39.333333333333336</ele><time>2026-04-11T16:27:21Z</time></trkpt><trkpt lat="41.16722655902017" lon="14.154284800389345"><ele>39.0</ele><time>2026-04-11T16:27:22Z</time></trkpt><trkpt lat="41.16717024766299" lon="14.154494953877032"><ele>39.0</ele><time>2026-04-11T16:27:23Z</time></trkpt><trkpt lat="41.167111613935596" lon="14.154699802352136"><ele>39.0</ele><time>2026-04-11T16:27:24Z</time></trkpt><trkpt lat="41.16705292366563" lon="14.154904007320425"><ele>39.0</ele><time>2026-04-11T16:27:25Z</time></trkpt><trkpt lat="41.166998674146384" lon="14.155114071746167"><ele>39.0</ele><time>2026-04-11T16:27:26Z</time></trkpt><trkpt lat="41.16694230101049" lon="14.155320488078557"><ele>39.0</ele><time>2026-04-11T16:27:27Z</time></trkpt><trkpt lat="41.16687918346484" lon="14.155522405656102"><ele>39.0</ele><time>2026-04-11T16:27:28Z</time></trkpt><trkpt lat="41.16681597724763" lon="14.155736258061669"><ele>39.666666666666664</ele><time>2026-04-11T16:27:29Z</time></trkpt><trkpt lat="41.16676825382976" lon="14.15595166578576"><ele>40.33333333333333</ele><time>2026-04-11T16:27:30Z</time></trkpt><trkpt lat="41.16671664305401" lon="14.156165798310173"><ele>41.0</ele><time>2026-04-11T16:27:31Z</time></trkpt><trkpt lat="41.1666518553633" lon="14.156372298837528"><ele>41.33333333333333</ele><time>2026-04-11T16:27:32Z</time></trkpt><trkpt lat="41.16659008366023" lon="14.156589413395753"><ele>41.666666666666664</ele><time>2026-04-11T16:27:33Z</time></trkpt><trkpt lat="41.166530007656476" lon="14.156807353837"><ele>42.0</ele><time>2026-04-11T16:27:34Z</time></trkpt><trkpt lat="41.16648504665159" lon="14.157035021418311"><ele>41.333333333333336</ele><time>2026-04-11T16:27:35Z</time></trkpt><trkpt lat="41.166425830912836" lon="14.157259970157352"><ele>40.66666666666667</ele><time>2026-04-11T16:27:36Z</time></trkpt><trkpt lat="41.166364424607536" lon="14.157480100035615"><ele>40.0</ele><time>2026-04-11T16:27:37Z</time></trkpt><trkpt lat="41.16630877522752" lon="14.157707191790356"><ele>39.66666666666667</ele><time>2026-04-11T16:27:38Z</time></trkpt><trkpt lat="41.16625021575036" lon="14.157925681941002"><ele>39.333333333333336</ele><time>2026-04-11T16:27:39Z</time></trkpt><trkpt lat="41.16619159508857" lon="14.158142110327319"><ele>39.0</ele><time>2026-04-11T16:27:40Z</time></trkpt><trkpt lat="41.16613393538868" lon="14.1583639279974"><ele>39.666666666666664</ele><time>2026-04-11T16:27:41Z</time></trkpt><trkpt lat="41.16607535740117" lon="14.158583017119865"><ele>40.33333333333333</ele><time>2026-04-11T16:27:42Z</time></trkpt><trkpt lat="41.1660207916864" lon="14.158799034392576"><ele>41.0</ele><time>2026-04-11T16:27:43.001Z</time></trkpt><trkpt lat="41.16596081259087" lon="14.159009660933059"><ele>41.33333333333333</ele><time>2026-04-11T16:27:44.001Z</time></trkpt><trkpt lat="41.165901151828855" lon="14.159221291165617"><ele>41.666666666666664</ele><time>2026-04-11T16:27:45.001Z</time></trkpt><trkpt lat="41.16583856235441" lon="14.15943725244947"><ele>42.0</ele><time>2026-04-11T16:27:46.001Z</time></trkpt><trkpt lat="41.165780239764004" lon="14.159648407103122"><ele>42.0</ele><time>2026-04-11T16:27:47.001Z</time></trkpt><trkpt lat="41.16571993439393" lon="14.159863748132235"><ele>42.0</ele><time>2026-04-11T16:27:48.001Z</time></trkpt><trkpt lat="41.165662447701806" lon="14.160076434298151"><ele>42.0</ele><time>2026-04-11T16:27:49.001Z</time></trkpt><trkpt lat="41.165603198098225" lon="14.160295439137672"><ele>41.666666666666664</ele><time>2026-04-11T16:27:50.001Z</time></trkpt><trkpt lat="41.16554153089911" lon="14.160500486608882"><ele>41.33333333333333</ele><time>2026-04-11T16:27:51.001Z</time></trkpt><trkpt lat="41.16548288586462" lon="14.160711304764298"><ele>41.0</ele><time>2026-04-11T16:27:52.001Z</time></trkpt><trkpt lat="41.16542316608391" lon="14.160931166116026"><ele>41.0</ele><time>2026-04-11T16:27:53.001Z</time></trkpt><trkpt lat="41.165363861014164" lon="14.161141741278442"><ele>41.0</ele><time>2026-04-11T16:27:54.001Z</time></trkpt><trkpt lat="41.16530422902133" lon="14.161354396351841"><ele>41.0</ele><time>2026-04-11T16:27:55.001Z</time></trkpt><trkpt lat="41.165249306261295" lon="14.16156384262942"><ele>41.0</ele><time>2026-04-11T16:27:56.001Z</time></trkpt><trkpt lat="41.165192822540774" lon="14.161762921997738"><ele>41.0</ele><time>2026-04-11T16:27:57.001Z</time></trkpt><trkpt lat="41.16513809279389" lon="14.161955085214865"><ele>41.0</ele><time>2026-04-11T16:27:58.001Z</time></trkpt><trkpt lat="41.16508149432888" lon="14.162155971892066"><ele>41.0</ele><time>2026-04-11T16:27:59.001Z</time></trkpt><trkpt lat="41.165028106479404" lon="14.162363313405828"><ele>41.0</ele><time>2026-04-11T16:28:00.001Z</time></trkpt><trkpt lat="41.16497157079541" lon="14.162557400454954"><ele>41.0</ele><time>2026-04-11T16:28:01.001Z</time></trkpt><trkpt lat="41.16491641911508" lon="14.162755585288672"><ele>41.0</ele><time>2026-04-11T16:28:02.001Z</time></trkpt><trkpt lat="41.164860471963415" lon="14.162953442731098"><ele>41.0</ele><time>2026-04-11T16:28:03.001Z</time></trkpt><trkpt lat="41.164805982850986" lon="14.163139947093962"><ele>41.0</ele><time>2026-04-11T16:28:04.001Z</time></trkpt><trkpt lat="41.16475831316866" lon="14.163324197594248"><ele>42.0</ele><time>2026-04-11T16:28:05.001Z</time></trkpt><trkpt lat="41.16471190459866" lon="14.163507669950667"><ele>43.0</ele><time>2026-04-11T16:28:06.001Z</time></trkpt><trkpt lat="41.16466018038972" lon="14.163684051968263"><ele>44.0</ele><time>2026-04-11T16:28:07.001Z</time></trkpt><trkpt lat="41.16461200395621" lon="14.163867568355837"><ele>45.0</ele><time>2026-04-11T16:28:08.001Z</time></trkpt><trkpt lat="41.164561970880925" lon="14.164046400837847"><ele>45.25</ele><time>2026-04-11T16:28:09.001Z</time></trkpt><trkpt lat="41.16451269548453" lon="14.164225005051806"><ele>45.5</ele><time>2026-04-11T16:28:10.001Z</time></trkpt><trkpt lat="41.16445775533439" lon="14.164395585264772"><ele>45.75</ele><time>2026-04-11T16:28:11.001Z</time></trkpt><trkpt lat="41.16441150743892" lon="14.164579719857015"><ele>46.0</ele><time>2026-04-11T16:28:12.001Z</time></trkpt><trkpt lat="41.164361153923174" lon="14.164757243745616"><ele>45.5</ele><time>2026-04-11T16:28:13.001Z</time></trkpt><trkpt lat="41.16430917026772" lon="14.164936133525305"><ele>45.0</ele><time>2026-04-11T16:28:14.001Z</time></trkpt><trkpt lat="41.164252042718125" lon="14.165118033652881"><ele>44.5</ele><time>2026-04-11T16:28:15.001Z</time></trkpt><trkpt lat="41.16420391510266" lon="14.165306519361938"><ele>44.0</ele><time>2026-04-11T16:28:16.001Z</time></trkpt><trkpt lat="41.164155794345405" lon="14.165495428931681"><ele>44.0</ele><time>2026-04-11T16:28:17.001Z</time></trkpt><trkpt lat="41.16410796596968" lon="14.165683930990056"><ele>44.0</ele><time>2026-04-11T16:28:18.001Z</time></trkpt><trkpt lat="41.16405305667774" lon="14.165866047774072"><ele>44.0</ele><time>2026-04-11T16:28:19.001Z</time></trkpt><trkpt lat="41.16399910557623" lon="14.166050821604934"><ele>44.0</ele><time>2026-04-11T16:28:20.001Z</time></trkpt><trkpt lat="41.163947160175645" lon="14.166236341594612"><ele>44.0</ele><time>2026-04-11T16:28:21.001Z</time></trkpt><trkpt lat="41.163894440902624" lon="14.166422602289295"><ele>44.0</ele><time>2026-04-11T16:28:22.001Z</time></trkpt><trkpt lat="41.16383916149616" lon="14.166607349306387"><ele>44.0</ele><time>2026-04-11T16:28:23.001Z</time></trkpt><trkpt lat="41.16378189752639" lon="14.166800807528697"><ele>44.0</ele><time>2026-04-11T16:28:24.001Z</time></trkpt><trkpt lat="41.16372922290271" lon="14.167003326015347"><ele>44.0</ele><time>2026-04-11T16:28:25.001Z</time></trkpt><trkpt lat="41.16367315635012" lon="14.167211291166636"><ele>44.0</ele><time>2026-04-11T16:28:26.001Z</time></trkpt><trkpt lat="41.163617579417576" lon="14.16741220304965"><ele>44.33333333333333</ele><time>2026-04-11T16:28:27.001Z</time></trkpt><trkpt lat="41.163560007267215" lon="14.167613726346206"><ele>44.666666666666664</ele><time>2026-04-11T16:28:28.001Z</time></trkpt><trkpt lat="41.16350252663089" lon="14.167814887643495"><ele>45.0</ele><time>2026-04-11T16:28:29.001Z</time></trkpt><trkpt lat="41.16344523607997" lon="14.16801755936815"><ele>44.666666666666664</ele><time>2026-04-11T16:28:30.001Z</time></trkpt><trkpt lat="41.163387028465735" lon="14.168221952581945"><ele>44.33333333333333</ele><time>2026-04-11T16:28:31.001Z</time></trkpt><trkpt lat="41.163329766001766" lon="14.168415746777953"><ele>44.0</ele><time>2026-04-11T16:28:32.001Z</time></trkpt><trkpt lat="41.16327530086777" lon="14.168613821805003"><ele>44.0</ele><time>2026-04-11T16:28:33.001Z</time></trkpt><trkpt lat="41.163216563019276" lon="14.168793087084795"><ele>44.0</ele><time>2026-04-11T16:28:34.001Z</time></trkpt><trkpt lat="41.163160677538094" lon="14.168971991280728"><ele>44.0</ele><time>2026-04-11T16:28:35.001Z</time></trkpt><trkpt lat="41.16310500501475" lon="14.169141888985907"><ele>44.0</ele><time>2026-04-11T16:28:36.001Z</time></trkpt><trkpt lat="41.163048577310256" lon="14.169302938511969"><ele>43.5</ele><time>2026-04-11T16:28:37.001Z</time></trkpt><trkpt lat="41.162985877400324" lon="14.1694523600443"><ele>43.0</ele><time>2026-04-11T16:28:38.001Z</time></trkpt><trkpt lat="41.16291161516882" lon="14.169584734798137"><ele>42.5</ele><time>2026-04-11T16:28:39.001Z</time></trkpt><trkpt lat="41.162824012886425" lon="14.169700477568759"><ele>42.0</ele><time>2026-04-11T16:28:40.001Z</time></trkpt><trkpt lat="41.162722918258034" lon="14.169799099994856"><ele>42.0</ele><time>2026-04-11T16:28:41.001Z</time></trkpt><trkpt lat="41.16260937227772" lon="14.16987770544821"><ele>42.0</ele><time>2026-04-11T16:28:42.001Z</time></trkpt><trkpt lat="41.1624847655902" lon="14.169941580170908"><ele>42.0</ele><time>2026-04-11T16:28:43.001Z</time></trkpt><trkpt lat="41.16235291785286" lon="14.169995731126248"><ele>42.0</ele><time>2026-04-11T16:28:44.001Z</time></trkpt><trkpt lat="41.16221607614693" lon="14.1700500382103"><ele>42.0</ele><time>2026-04-11T16:28:45.001Z</time></trkpt><trkpt lat="41.16208765970615" lon="14.170098587102869"><ele>42.0</ele><time>2026-04-11T16:28:46.001Z</time></trkpt><trkpt lat="41.161963250718664" lon="14.17015685719056"><ele>42.0</ele><time>2026-04-11T16:28:47.001Z</time></trkpt><trkpt lat="41.161840049260455" lon="14.170225263853998"><ele>42.0</ele><time>2026-04-11T16:28:48.001Z</time></trkpt><trkpt lat="41.161724356170694" lon="14.170320901634124"><ele>42.0</ele><time>2026-04-11T16:28:49.001Z</time></trkpt><trkpt lat="41.16161783975262" lon="14.17043609241486"><ele>42.0</ele><time>2026-04-11T16:28:50.001Z</time></trkpt><trkpt lat="41.16151944775328" lon="14.17057479104157"><ele>42.0</ele><time>2026-04-11T16:28:51.001Z</time></trkpt><trkpt lat="41.16143896371082" lon="14.170728264356988"><ele>42.0</ele><time>2026-04-11T16:28:52.001Z</time></trkpt><trkpt lat="41.16137121376349" lon="14.170897607916094"><ele>42.5</ele><time>2026-04-11T16:28:53.001Z</time></trkpt><trkpt lat="41.16132613890014" lon="14.171071609687242"><ele>43.0</ele><time>2026-04-11T16:28:54.001Z</time></trkpt><trkpt lat="41.16131273269998" lon="14.171252137899362"><ele>43.5</ele><time>2026-04-11T16:28:55.001Z</time></trkpt><trkpt lat="41.16132888082943" lon="14.17142452503337"><ele>44.0</ele><time>2026-04-11T16:28:56.001Z</time></trkpt><trkpt lat="41.16136824201801" lon="14.171591749326739"><ele>44.400000000000006</ele><time>2026-04-11T16:28:57.001Z</time></trkpt><trkpt lat="41.16136303867286" lon="14.17175121257817"><ele>44.8</ele><time>2026-04-11T16:28:58.001Z</time></trkpt><trkpt lat="41.161373044387354" lon="14.171885325935143"><ele>45.2</ele><time>2026-04-11T16:28:59.001Z</time></trkpt><trkpt lat="41.161353874976534" lon="14.17201524266294"><ele>45.599999999999994</ele><time>2026-04-11T16:29:00.001Z</time></trkpt><trkpt lat="41.16132922257441" lon="14.172112253572237"><ele>46.0</ele><time>2026-04-11T16:29:01.001Z</time></trkpt><trkpt lat="41.16128095740315" lon="14.17220395476956"><ele>46.0</ele><time>2026-04-11T16:29:02Z</time></trkpt><trkpt lat="41.161234085038465" lon="14.172337671967327"><ele>46.0</ele><time>2026-04-11T16:29:03Z</time></trkpt><trkpt lat="41.161087511455456" lon="14.172411318350873"><ele>46.0</ele><time>2026-04-11T16:29:04Z</time></trkpt><trkpt lat="41.16097042774072" lon="14.172509826910426"><ele>46.0</ele><time>2026-04-11T16:29:05Z</time></trkpt><trkpt lat="41.16084350950094" lon="14.172609377183973"><ele>45.66666666666667</ele><time>2026-04-11T16:29:06Z</time></trkpt><trkpt lat="41.16071875678146" lon="14.17271630834107"><ele>45.333333333333336</ele><time>2026-04-11T16:29:07Z</time></trkpt><trkpt lat="41.16058305129062" lon="14.172817850287807"><ele>45.0</ele><time>2026-04-11T16:29:08Z</time></trkpt><trkpt lat="41.160441990590655" lon="14.172932771685506"><ele>45.0</ele><time>2026-04-11T16:29:09Z</time></trkpt><trkpt lat="41.16028902855327" lon="14.173036744573515"><ele>45.0</ele><time>2026-04-11T16:29:10Z</time></trkpt><trkpt lat="41.160144081450866" lon="14.173148066170475"><ele>45.0</ele><time>2026-04-11T16:29:11Z</time></trkpt><trkpt lat="41.15999412455902" lon="14.173262460621443"><ele>45.0</ele><time>2026-04-11T16:29:12Z</time></trkpt><trkpt lat="41.15984725039073" lon="14.173378519120249"><ele>45.0</ele><time>2026-04-11T16:29:13Z</time></trkpt><trkpt lat="41.15970939810571" lon="14.17348180319162"><ele>45.0</ele><time>2026-04-11T16:29:14Z</time></trkpt><trkpt lat="41.159582847077424" lon="14.173587392625608"><ele>45.0</ele><time>2026-04-11T16:29:15Z</time></trkpt><trkpt lat="41.15946690035585" lon="14.173687989349345"><ele>45.0</ele><time>2026-04-11T16:29:16Z</time></trkpt><trkpt lat="41.15933762699964" lon="14.173790100093855"><ele>45.0</ele><time>2026-04-11T16:29:17Z</time></trkpt><trkpt lat="41.15920652023438" lon="14.17390216888829"><ele>45.0</ele><time>2026-04-11T16:29:18Z</time></trkpt><trkpt lat="41.15907603800155" lon="14.174013181280909"><ele>45.0</ele><time>2026-04-11T16:29:19Z</time></trkpt><trkpt lat="41.15894387063687" lon="14.174128002329793"><ele>45.0</ele><time>2026-04-11T16:29:20Z</time></trkpt><trkpt lat="41.1588063922743" lon="14.174239531214342"><ele>45.0</ele><time>2026-04-11T16:29:21Z</time></trkpt><trkpt lat="41.15867260214988" lon="14.174356021155473"><ele>45.0</ele><time>2026-04-11T16:29:22Z</time></trkpt><trkpt lat="41.158525192492284" lon="14.174456126597384"><ele>45.0</ele><time>2026-04-11T16:29:23Z</time></trkpt><trkpt lat="41.15838745001289" lon="14.174561518387481"><ele>45.0</ele><time>2026-04-11T16:29:24Z</time></trkpt><trkpt lat="41.15824929002078" lon="14.174665289677986"><ele>45.0</ele><time>2026-04-11T16:29:25Z</time></trkpt><trkpt lat="41.158108178155096" lon="14.174778528311212"><ele>45.0</ele><time>2026-04-11T16:29:26Z</time></trkpt><trkpt lat="41.15797095035744" lon="14.174892251021168"><ele>45.0</ele><time>2026-04-11T16:29:27Z</time></trkpt><trkpt lat="41.15782980290253" lon="14.175006462563788"><ele>45.0</ele><time>2026-04-11T16:29:28Z</time></trkpt><trkpt lat="41.15767978881094" lon="14.175116289950353"><ele>45.0</ele><time>2026-04-11T16:29:29Z</time></trkpt><trkpt lat="41.15752740338185" lon="14.175232231768907"><ele>45.0</ele><time>2026-04-11T16:29:30Z</time></trkpt><trkpt lat="41.15737217520444" lon="14.175351361464172"><ele>44.666666666666664</ele><time>2026-04-11T16:29:31Z</time></trkpt><trkpt lat="41.15721239314758" lon="14.175476010946378"><ele>44.33333333333333</ele><time>2026-04-11T16:29:32Z</time></trkpt><trkpt lat="41.15705033219741" lon="14.175598961865798"><ele>44.0</ele><time>2026-04-11T16:29:33Z</time></trkpt><trkpt lat="41.15688799142151" lon="14.175720695738091"><ele>44.0</ele><time>2026-04-11T16:29:34Z</time></trkpt><trkpt lat="41.15672129280817" lon="14.17584568114093"><ele>44.0</ele><time>2026-04-11T16:29:35Z</time></trkpt><trkpt lat="41.1565565485497" lon="14.175971068334254"><ele>44.0</ele><time>2026-04-11T16:29:36Z</time></trkpt><trkpt lat="41.156387461849974" lon="14.17609782240929"><ele>43.666666666666664</ele><time>2026-04-11T16:29:37Z</time></trkpt><trkpt lat="41.1562212277707" lon="14.176220579403774"><ele>43.333333333333336</ele><time>2026-04-11T16:29:38Z</time></trkpt><trkpt lat="41.156053744147115" lon="14.176345924448498"><ele>43.0</ele><time>2026-04-11T16:29:39Z</time></trkpt><trkpt lat="41.15588566727" lon="14.176476894562613"><ele>43.0</ele><time>2026-04-11T16:29:40Z</time></trkpt><trkpt lat="41.15571858294562" lon="14.176606606504096"><ele>43.0</ele><time>2026-04-11T16:29:41Z</time></trkpt><trkpt lat="41.15555059840795" lon="14.17673594520875"><ele>43.0</ele><time>2026-04-11T16:29:42Z</time></trkpt><trkpt lat="41.15538272106685" lon="14.176862620404961"><ele>43.333333333333336</ele><time>2026-04-11T16:29:43.001Z</time></trkpt><trkpt lat="41.15521452608699" lon="14.17699100064925"><ele>43.666666666666664</ele><time>2026-04-11T16:29:44.001Z</time></trkpt><trkpt lat="41.15504557018446" lon="14.177117825880817"><ele>44.0</ele><time>2026-04-11T16:29:45.001Z</time></trkpt><trkpt lat="41.15487786725904" lon="14.177246413966134"><ele>43.33333333333333</ele><time>2026-04-11T16:29:46.001Z</time></trkpt><trkpt lat="41.15470798739358" lon="14.177374367940345"><ele>42.666666666666664</ele><time>2026-04-11T16:29:47.001Z</time></trkpt><trkpt lat="41.154538341580164" lon="14.177505511626558"><ele>42.0</ele><time>2026-04-11T16:29:48.001Z</time></trkpt><trkpt lat="41.15437228145225" lon="14.177632525637561"><ele>42.0</ele><time>2026-04-11T16:29:49.001Z</time></trkpt><trkpt lat="41.15420600898628" lon="14.177762078000177"><ele>42.0</ele><time>2026-04-11T16:29:50.001Z</time></trkpt><trkpt lat="41.15404417651701" lon="14.177887232330123"><ele>42.0</ele><time>2026-04-11T16:29:51.001Z</time></trkpt><trkpt lat="41.153889873376" lon="14.178005012016992"><ele>42.0</ele><time>2026-04-11T16:29:52.001Z</time></trkpt><trkpt lat="41.153742323232656" lon="14.17812116152066"><ele>42.0</ele><time>2026-04-11T16:29:53.001Z</time></trkpt><trkpt lat="41.15359347522082" lon="14.178237343158187"><ele>42.0</ele><time>2026-04-11T16:29:54.001Z</time></trkpt><trkpt lat="41.153447761783006" lon="14.178346691204245"><ele>42.0</ele><time>2026-04-11T16:29:55.001Z</time></trkpt><trkpt lat="41.15330252152002" lon="14.178457369871515"><ele>42.0</ele><time>2026-04-11T16:29:56.001Z</time></trkpt><trkpt lat="41.153153229108526" lon="14.178571442436532"><ele>42.0</ele><time>2026-04-11T16:29:57.001Z</time></trkpt><trkpt lat="41.15300442050689" lon="14.178686769899365"><ele>41.666666666666664</ele><time>2026-04-11T16:29:58.001Z</time></trkpt><trkpt lat="41.152855203525206" lon="14.178802299142792"><ele>41.33333333333333</ele><time>2026-04-11T16:29:59.001Z</time></trkpt><trkpt lat="41.152704991571696" lon="14.178919374645966"><ele>41.0</ele><time>2026-04-11T16:30:00.001Z</time></trkpt><trkpt lat="41.15255737894781" lon="14.17903790199115"><ele>41.0</ele><time>2026-04-11T16:30:01.001Z</time></trkpt><trkpt lat="41.15240828202812" lon="14.179153036442857"><ele>41.0</ele><time>2026-04-11T16:30:02.001Z</time></trkpt><trkpt lat="41.1522619649227" lon="14.179266930721202"><ele>41.0</ele><time>2026-04-11T16:30:03.001Z</time></trkpt><trkpt lat="41.15211444253386" lon="14.17938225261627"><ele>40.33333333333333</ele><time>2026-04-11T16:30:04.001Z</time></trkpt><trkpt lat="41.15195741831303" lon="14.179499164122792"><ele>39.666666666666664</ele><time>2026-04-11T16:30:05.001Z</time></trkpt><trkpt lat="41.15180531806409" lon="14.17960796811753"><ele>39.0</ele><time>2026-04-11T16:30:06.001Z</time></trkpt><trkpt lat="41.151648901007555" lon="14.179727579043204"><ele>39.0</ele><time>2026-04-11T16:30:07.001Z</time></trkpt><trkpt lat="41.15148991946553" lon="14.17985161812941"><ele>39.0</ele><time>2026-04-11T16:30:08.001Z</time></trkpt><trkpt lat="41.15133506250771" lon="14.179969459228058"><ele>39.0</ele><time>2026-04-11T16:30:09.001Z</time></trkpt><trkpt lat="41.15117890493907" lon="14.180093522587168"><ele>39.0</ele><time>2026-04-11T16:30:10.001Z</time></trkpt><trkpt lat="41.15102249192037" lon="14.180214377828683"><ele>39.0</ele><time>2026-04-11T16:30:11.001Z</time></trkpt><trkpt lat="41.1508656072949" lon="14.18033830658413"><ele>39.0</ele><time>2026-04-11T16:30:12.001Z</time></trkpt><trkpt lat="41.15070707942081" lon="14.180463237807594"><ele>38.666666666666664</ele><time>2026-04-11T16:30:13.001Z</time></trkpt><trkpt lat="41.150549167024124" lon="14.180585555272819"><ele>38.33333333333333</ele><time>2026-04-11T16:30:14.001Z</time></trkpt><trkpt lat="41.15039068531451" lon="14.180706632125393"><ele>38.0</ele><time>2026-04-11T16:30:15.001Z</time></trkpt><trkpt lat="41.150227982050424" lon="14.180835067407807"><ele>38.0</ele><time>2026-04-11T16:30:16.001Z</time></trkpt><trkpt lat="41.150066312544865" lon="14.180962849993984"><ele>38.0</ele><time>2026-04-11T16:30:17.001Z</time></trkpt><trkpt lat="41.149906273702136" lon="14.181089512644707"><ele>38.0</ele><time>2026-04-11T16:30:18.001Z</time></trkpt><trkpt lat="41.1497421610216" lon="14.181217626414872"><ele>38.0</ele><time>2026-04-11T16:30:19.001Z</time></trkpt><trkpt lat="41.14958312797149" lon="14.181340697451244"><ele>38.0</ele><time>2026-04-11T16:30:20.001Z</time></trkpt><trkpt lat="41.149421919442574" lon="14.181465502197277"><ele>38.0</ele><time>2026-04-11T16:30:21.001Z</time></trkpt><trkpt lat="41.14926179477437" lon="14.181587403826851"><ele>37.33333333333333</ele><time>2026-04-11T16:30:22.001Z</time></trkpt><trkpt lat="41.149098750624454" lon="14.181708972127053"><ele>36.666666666666664</ele><time>2026-04-11T16:30:23.001Z</time></trkpt><trkpt lat="41.14893440068794" lon="14.181832813930944"><ele>36.0</ele><time>2026-04-11T16:30:24.001Z</time></trkpt><trkpt lat="41.14876913961209" lon="14.181962408290063"><ele>35.666666666666664</ele><time>2026-04-11T16:30:25.001Z</time></trkpt><trkpt lat="41.14860283229995" lon="14.182093979964597"><ele>35.33333333333333</ele><time>2026-04-11T16:30:26.001Z</time></trkpt><trkpt lat="41.1484385153188" lon="14.182221839631"><ele>35.0</ele><time>2026-04-11T16:30:27.001Z</time></trkpt><trkpt lat="41.1482687860572" lon="14.182354436911524"><ele>34.666666666666664</ele><time>2026-04-11T16:30:28.001Z</time></trkpt><trkpt lat="41.148101870256895" lon="14.182492639178413"><ele>34.333333333333336</ele><time>2026-04-11T16:30:29.001Z</time></trkpt><trkpt lat="41.147937049441815" lon="14.18261718188258"><ele>34.0</ele><time>2026-04-11T16:30:30.001Z</time></trkpt><trkpt lat="41.147764587814" lon="14.182755274440405"><ele>34.0</ele><time>2026-04-11T16:30:31.001Z</time></trkpt><trkpt lat="41.14758997845031" lon="14.182895641019048"><ele>34.0</ele><time>2026-04-11T16:30:32.001Z</time></trkpt><trkpt lat="41.147414064865096" lon="14.183033041287334"><ele>34.0</ele><time>2026-04-11T16:30:33.001Z</time></trkpt><trkpt lat="41.14723831779466" lon="14.183167505236336"><ele>34.0</ele><time>2026-04-11T16:30:34.001Z</time></trkpt><trkpt lat="41.14706550319398" lon="14.183301581007207"><ele>34.0</ele><time>2026-04-11T16:30:35.001Z</time></trkpt><trkpt lat="41.14689503699312" lon="14.183431409116055"><ele>34.0</ele><time>2026-04-11T16:30:36.001Z</time></trkpt><trkpt lat="41.14672195236594" lon="14.18356820634614"><ele>34.0</ele><time>2026-04-11T16:30:37.001Z</time></trkpt><trkpt lat="41.146552790513326" lon="14.183699952922336"><ele>34.0</ele><time>2026-04-11T16:30:38.001Z</time></trkpt><trkpt lat="41.146381003241856" lon="14.18383236131992"><ele>34.0</ele><time>2026-04-11T16:30:39.001Z</time></trkpt><trkpt lat="41.146215844710675" lon="14.183958892285492"><ele>33.333333333333336</ele><time>2026-04-11T16:30:40.001Z</time></trkpt><trkpt lat="41.14604497427728" lon="14.184095456465048"><ele>32.666666666666664</ele><time>2026-04-11T16:30:41.001Z</time></trkpt><trkpt lat="41.14587889620354" lon="14.184226701147862"><ele>32.0</ele><time>2026-04-11T16:30:42.001Z</time></trkpt><trkpt lat="41.145707936595606" lon="14.18436222808968"><ele>32.0</ele><time>2026-04-11T16:30:43.001Z</time></trkpt><trkpt lat="41.14553878577103" lon="14.184492387356283"><ele>32.0</ele><time>2026-04-11T16:30:44.001Z</time></trkpt><trkpt lat="41.145368869345816" lon="14.184622473153045"><ele>32.0</ele><time>2026-04-11T16:30:45.001Z</time></trkpt><trkpt lat="41.145200719573495" lon="14.184750246766212"><ele>32.33333333333333</ele><time>2026-04-11T16:30:46.001Z</time></trkpt><trkpt lat="41.145035626993945" lon="14.184877677516138"><ele>32.666666666666664</ele><time>2026-04-11T16:30:47.001Z</time></trkpt><trkpt lat="41.14487370514808" lon="14.185003020237744"><ele>33.0</ele><time>2026-04-11T16:30:48.001Z</time></trkpt><trkpt lat="41.14471569071823" lon="14.185132172526686"><ele>33.0</ele><time>2026-04-11T16:30:49.001Z</time></trkpt><trkpt lat="41.144554570315165" lon="14.185255287618748"><ele>33.0</ele><time>2026-04-11T16:30:50.001Z</time></trkpt><trkpt lat="41.144391447296705" lon="14.18538044329133"><ele>33.0</ele><time>2026-04-11T16:30:51.001Z</time></trkpt><trkpt lat="41.14423309458777" lon="14.185501018331518"><ele>33.0</ele><time>2026-04-11T16:30:52.001Z</time></trkpt><trkpt lat="41.14407712189554" lon="14.185620047176142"><ele>33.0</ele><time>2026-04-11T16:30:53.001Z</time></trkpt><trkpt lat="41.14392013119712" lon="14.185743747565445"><ele>33.0</ele><time>2026-04-11T16:30:54.001Z</time></trkpt><trkpt lat="41.143764728996885" lon="14.185861452542202"><ele>33.0</ele><time>2026-04-11T16:30:55.001Z</time></trkpt><trkpt lat="41.1436126768844" lon="14.185980665841958"><ele>33.0</ele><time>2026-04-11T16:30:56.001Z</time></trkpt><trkpt lat="41.14345457010768" lon="14.186094887333892"><ele>33.0</ele><time>2026-04-11T16:30:57.001Z</time></trkpt><trkpt lat="41.143291402192176" lon="14.186226076598997"><ele>32.666666666666664</ele><time>2026-04-11T16:30:58.001Z</time></trkpt><trkpt lat="41.14313186622976" lon="14.186353110628362"><ele>32.33333333333333</ele><time>2026-04-11T16:30:59.001Z</time></trkpt><trkpt lat="41.142969456921136" lon="14.186480922150718"><ele>32.0</ele><time>2026-04-11T16:31:00.001Z</time></trkpt><trkpt lat="41.142807684632665" lon="14.186606483315499"><ele>31.333333333333332</ele><time>2026-04-11T16:31:01.001Z</time></trkpt><trkpt lat="41.14264283444155" lon="14.186733929865811"><ele>30.666666666666664</ele><time>2026-04-11T16:31:02.001Z</time></trkpt><trkpt lat="41.14247782507649" lon="14.186861651946368"><ele>30.0</ele><time>2026-04-11T16:31:03.001Z</time></trkpt><trkpt lat="41.142317688934895" lon="14.186979877586277"><ele>30.0</ele><time>2026-04-11T16:31:04.001Z</time></trkpt><trkpt lat="41.14216317005967" lon="14.187099529265424"><ele>30.0</ele><time>2026-04-11T16:31:05.001Z</time></trkpt><trkpt lat="41.142007661574794" lon="14.187218692124882"><ele>30.0</ele><time>2026-04-11T16:31:06.001Z</time></trkpt><trkpt lat="41.14184850882459" lon="14.187342399871282"><ele>30.0</ele><time>2026-04-11T16:31:07.001Z</time></trkpt><trkpt lat="41.141694988820724" lon="14.187461000357276"><ele>30.0</ele><time>2026-04-11T16:31:08Z</time></trkpt><trkpt lat="41.141540673632726" lon="14.187581971831136"><ele>30.0</ele><time>2026-04-11T16:31:09Z</time></trkpt><trkpt lat="41.141385119504534" lon="14.187714332377473"><ele>30.666666666666664</ele><time>2026-04-11T16:31:10Z</time></trkpt><trkpt lat="41.14122745052654" lon="14.187841875674604"><ele>31.333333333333332</ele><time>2026-04-11T16:31:11Z</time></trkpt><trkpt lat="41.141058510093934" lon="14.187972372934631"><ele>32.0</ele><time>2026-04-11T16:31:12Z</time></trkpt><trkpt lat="41.14089050979393" lon="14.1881017821445"><ele>31.333333333333332</ele><time>2026-04-11T16:31:13Z</time></trkpt><trkpt lat="41.14072042236544" lon="14.188232305154742"><ele>30.666666666666664</ele><time>2026-04-11T16:31:14Z</time></trkpt><trkpt lat="41.14055472675349" lon="14.188365465551954"><ele>30.0</ele><time>2026-04-11T16:31:15Z</time></trkpt><trkpt lat="41.14038587071165" lon="14.188498213424134"><ele>30.0</ele><time>2026-04-11T16:31:16Z</time></trkpt><trkpt lat="41.140215779888" lon="14.188630898034864"><ele>30.0</ele><time>2026-04-11T16:31:17Z</time></trkpt><trkpt lat="41.140041830733544" lon="14.188766948632106"><ele>30.0</ele><time>2026-04-11T16:31:18Z</time></trkpt><trkpt lat="41.139867822145185" lon="14.188896520202638"><ele>28.666666666666664</ele><time>2026-04-11T16:31:19Z</time></trkpt><trkpt lat="41.13969541607454" lon="14.18902995291973"><ele>27.333333333333332</ele><time>2026-04-11T16:31:20Z</time></trkpt><trkpt lat="41.13952301741541" lon="14.189173339428843"><ele>26.0</ele><time>2026-04-11T16:31:21Z</time></trkpt><trkpt lat="41.13935122550281" lon="14.189314040160497"><ele>26.0</ele><time>2026-04-11T16:31:22Z</time></trkpt><trkpt lat="41.13918150866109" lon="14.189459829146493"><ele>26.0</ele><time>2026-04-11T16:31:23Z</time></trkpt><trkpt lat="41.139007472620754" lon="14.189585660913416"><ele>26.0</ele><time>2026-04-11T16:31:24Z</time></trkpt><trkpt lat="41.13882664255109" lon="14.189739005172598"><ele>26.0</ele><time>2026-04-11T16:31:25Z</time></trkpt><trkpt lat="41.138641350590014" lon="14.189845905328617"><ele>26.0</ele><time>2026-04-11T16:31:26Z</time></trkpt><trkpt lat="41.13846598930306" lon="14.189981263363872"><ele>26.0</ele><time>2026-04-11T16:31:27Z</time></trkpt><trkpt lat="41.13829246942382" lon="14.190127928857232"><ele>26.333333333333332</ele><time>2026-04-11T16:31:28Z</time></trkpt><trkpt lat="41.13811386726059" lon="14.190259257425353"><ele>26.666666666666664</ele><time>2026-04-11T16:31:29Z</time></trkpt><trkpt lat="41.1379381964029" lon="14.190399843248453"><ele>27.0</ele><time>2026-04-11T16:31:30Z</time></trkpt><trkpt lat="41.13776220857876" lon="14.19053979997325"><ele>27.0</ele><time>2026-04-11T16:31:31Z</time></trkpt><trkpt lat="41.13758642500371" lon="14.19068458734849"><ele>27.0</ele><time>2026-04-11T16:31:32Z</time></trkpt><trkpt lat="41.137416214293836" lon="14.190820174599043"><ele>27.0</ele><time>2026-04-11T16:31:33Z</time></trkpt><trkpt lat="41.13724027544995" lon="14.190950534873123"><ele>26.666666666666664</ele><time>2026-04-11T16:31:34Z</time></trkpt><trkpt lat="41.137068737337664" lon="14.1910870336863"><ele>26.333333333333332</ele><time>2026-04-11T16:31:35Z</time></trkpt><trkpt lat="41.13688574777187" lon="14.191197102406642"><ele>26.0</ele><time>2026-04-11T16:31:36Z</time></trkpt><trkpt lat="41.13670360219875" lon="14.191351008865453"><ele>26.0</ele><time>2026-04-11T16:31:37Z</time></trkpt><trkpt lat="41.13652807691691" lon="14.191486371801261"><ele>26.0</ele><time>2026-04-11T16:31:38Z</time></trkpt><trkpt lat="41.13634753058749" lon="14.191627514637553"><ele>26.0</ele><time>2026-04-11T16:31:39Z</time></trkpt><trkpt lat="41.13617102614769" lon="14.191768920256935"><ele>26.0</ele><time>2026-04-11T16:31:40Z</time></trkpt><trkpt lat="41.13599702682631" lon="14.19190073333273"><ele>26.0</ele><time>2026-04-11T16:31:41Z</time></trkpt><trkpt lat="41.135824327033724" lon="14.192029065337929"><ele>26.0</ele><time>2026-04-11T16:31:42Z</time></trkpt><trkpt lat="41.13566011749249" lon="14.192165380416203"><ele>26.0</ele><time>2026-04-11T16:31:43Z</time></trkpt><trkpt lat="41.135490278219955" lon="14.192301728671655"><ele>26.0</ele><time>2026-04-11T16:31:44Z</time></trkpt><trkpt lat="41.13531886079583" lon="14.192427805894757"><ele>26.0</ele><time>2026-04-11T16:31:45Z</time></trkpt><trkpt lat="41.13515289970862" lon="14.192563466251269"><ele>26.0</ele><time>2026-04-11T16:31:46Z</time></trkpt><trkpt lat="41.134987202039575" lon="14.192688262322408"><ele>26.0</ele><time>2026-04-11T16:31:47Z</time></trkpt><trkpt lat="41.13482608757282" lon="14.19281269125647"><ele>26.0</ele><time>2026-04-11T16:31:48Z</time></trkpt><trkpt lat="41.13465979255769" lon="14.192935109128088"><ele>25.666666666666664</ele><time>2026-04-11T16:31:49Z</time></trkpt><trkpt lat="41.134495862686975" lon="14.193060886951763"><ele>25.333333333333336</ele><time>2026-04-11T16:31:50Z</time></trkpt><trkpt lat="41.13433188364532" lon="14.193185465271762"><ele>25.0</ele><time>2026-04-11T16:31:51Z</time></trkpt><trkpt lat="41.13416535891941" lon="14.193304297170048"><ele>25.0</ele><time>2026-04-11T16:31:52Z</time></trkpt><trkpt lat="41.134002355508436" lon="14.193436691533593"><ele>25.0</ele><time>2026-04-11T16:31:53Z</time></trkpt><trkpt lat="41.13383891985344" lon="14.19355155313006"><ele>25.0</ele><time>2026-04-11T16:31:54Z</time></trkpt><trkpt lat="41.133675254218794" lon="14.193688353006786"><ele>25.0</ele><time>2026-04-11T16:31:55Z</time></trkpt><trkpt lat="41.13351153441962" lon="14.193811590182925"><ele>25.0</ele><time>2026-04-11T16:31:56Z</time></trkpt><trkpt lat="41.13335240810793" lon="14.1939243130433"><ele>25.0</ele><time>2026-04-11T16:31:57Z</time></trkpt><trkpt lat="41.133199481737265" lon="14.194038658571772"><ele>24.333333333333336</ele><time>2026-04-11T16:31:58Z</time></trkpt><trkpt lat="41.13305992249146" lon="14.194134648772309"><ele>23.666666666666668</ele><time>2026-04-11T16:31:59Z</time></trkpt><trkpt lat="41.13292942630863" lon="14.194229433102336"><ele>23.0</ele><time>2026-04-11T16:32:00Z</time></trkpt><trkpt lat="41.132801346846016" lon="14.19432486372752"><ele>23.0</ele><time>2026-04-11T16:32:01Z</time></trkpt><trkpt lat="41.132684335928396" lon="14.19441154142916"><ele>23.0</ele><time>2026-04-11T16:32:02Z</time></trkpt><trkpt lat="41.13255719111869" lon="14.194502604835874"><ele>23.0</ele><time>2026-04-11T16:32:03Z</time></trkpt><trkpt lat="41.1324476237043" lon="14.194587621873458"><ele>23.0</ele><time>2026-04-11T16:32:04Z</time></trkpt><trkpt lat="41.13234147513283" lon="14.1946741274132"><ele>23.0</ele><time>2026-04-11T16:32:05Z</time></trkpt><trkpt lat="41.13223121112104" lon="14.19475392374961"><ele>23.0</ele><time>2026-04-11T16:32:06Z</time></trkpt><trkpt lat="41.13212175100165" lon="14.194834285679828"><ele>23.0</ele><time>2026-04-11T16:32:07.001Z</time></trkpt><trkpt lat="41.1320049637831" lon="14.194915036864476"><ele>23.0</ele><time>2026-04-11T16:32:08.001Z</time></trkpt><trkpt lat="41.13189178739225" lon="14.19502545147818"><ele>23.0</ele><time>2026-04-11T16:32:09.001Z</time></trkpt><trkpt lat="41.131779502650495" lon="14.195118550390006"><ele>23.0</ele><time>2026-04-11T16:32:10.001Z</time></trkpt><trkpt lat="41.13166453319552" lon="14.19520865903898"><ele>23.0</ele><time>2026-04-11T16:32:11.001Z</time></trkpt><trkpt lat="41.1315395122819" lon="14.19531541371088"><ele>23.0</ele><time>2026-04-11T16:32:12.001Z</time></trkpt><trkpt lat="41.13142048368431" lon="14.195419304173921"><ele>22.666666666666668</ele><time>2026-04-11T16:32:13.001Z</time></trkpt><trkpt lat="41.13129309298927" lon="14.195530344683807"><ele>22.333333333333332</ele><time>2026-04-11T16:32:14.001Z</time></trkpt><trkpt lat="41.13116310651204" lon="14.19565301633046"><ele>22.0</ele><time>2026-04-11T16:32:15.001Z</time></trkpt><trkpt lat="41.131012854158755" lon="14.1957509440915"><ele>22.333333333333332</ele><time>2026-04-11T16:32:16.001Z</time></trkpt><trkpt lat="41.13088274353289" lon="14.19585377948445"><ele>22.666666666666668</ele><time>2026-04-11T16:32:17.001Z</time></trkpt><trkpt lat="41.13075223334023" lon="14.195960149105824"><ele>23.0</ele><time>2026-04-11T16:32:18.001Z</time></trkpt><trkpt lat="41.13061338969671" lon="14.196042544472071"><ele>23.0</ele><time>2026-04-11T16:32:19.001Z</time></trkpt><trkpt lat="41.13047257100587" lon="14.196146657925048"><ele>23.0</ele><time>2026-04-11T16:32:20.001Z</time></trkpt><trkpt lat="41.130326186706334" lon="14.196235609319071"><ele>23.0</ele><time>2026-04-11T16:32:21.001Z</time></trkpt><trkpt lat="41.13016595696687" lon="14.196297421797057"><ele>23.0</ele><time>2026-04-11T16:32:22.001Z</time></trkpt><trkpt lat="41.129993492765976" lon="14.196339501738429"><ele>23.0</ele><time>2026-04-11T16:32:23.001Z</time></trkpt><trkpt lat="41.12980311369311" lon="14.196384043671106"><ele>23.0</ele><time>2026-04-11T16:32:24.001Z</time></trkpt><trkpt lat="41.12960804995032" lon="14.196429845398303"><ele>23.0</ele><time>2026-04-11T16:32:25.001Z</time></trkpt><trkpt lat="41.12940193907129" lon="14.196478661217828"><ele>23.0</ele><time>2026-04-11T16:32:26.001Z</time></trkpt><trkpt lat="41.12919582811117" lon="14.196527224597355"><ele>23.0</ele><time>2026-04-11T16:32:27.001Z</time></trkpt><trkpt lat="41.12898900192318" lon="14.196575752459353"><ele>23.333333333333336</ele><time>2026-04-11T16:32:28.001Z</time></trkpt><trkpt lat="41.128777403063296" lon="14.196626061733566"><ele>23.666666666666668</ele><time>2026-04-11T16:32:29.001Z</time></trkpt><trkpt lat="41.12857534429345" lon="14.19667332438663"><ele>24.0</ele><time>2026-04-11T16:32:30.001Z</time></trkpt><trkpt lat="41.12836123756191" lon="14.196723996113038"><ele>24.0</ele><time>2026-04-11T16:32:31.001Z</time></trkpt><trkpt lat="41.12814625531435" lon="14.196776316337187"><ele>24.0</ele><time>2026-04-11T16:32:32.001Z</time></trkpt><trkpt lat="41.12793328742738" lon="14.196827429424495"><ele>24.0</ele><time>2026-04-11T16:32:33.001Z</time></trkpt><trkpt lat="41.127718753929564" lon="14.19687871609715"><ele>24.0</ele><time>2026-04-11T16:32:34.001Z</time></trkpt><trkpt lat="41.12749590325529" lon="14.196931998755817"><ele>24.0</ele><time>2026-04-11T16:32:35.001Z</time></trkpt><trkpt lat="41.127285253168914" lon="14.19698241861719"><ele>24.0</ele><time>2026-04-11T16:32:36.001Z</time></trkpt><trkpt lat="41.12706899520305" lon="14.197034180763293"><ele>24.0</ele><time>2026-04-11T16:32:37.001Z</time></trkpt><trkpt lat="41.126856233401654" lon="14.19708496199038"><ele>24.0</ele><time>2026-04-11T16:32:38.001Z</time></trkpt><trkpt lat="41.12663071195724" lon="14.197138488911918"><ele>24.0</ele><time>2026-04-11T16:32:39.001Z</time></trkpt><trkpt lat="41.12640412988457" lon="14.197192051079996"><ele>24.333333333333336</ele><time>2026-04-11T16:32:40.001Z</time></trkpt><trkpt lat="41.12617460876639" lon="14.19724612287664"><ele>24.666666666666668</ele><time>2026-04-11T16:32:41.001Z</time></trkpt><trkpt lat="41.125968997873734" lon="14.19731645039117"><ele>25.0</ele><time>2026-04-11T16:32:42.001Z</time></trkpt><trkpt lat="41.1257666134875" lon="14.197355176511982"><ele>25.333333333333336</ele><time>2026-04-11T16:32:43.001Z</time></trkpt><trkpt lat="41.12555931565109" lon="14.197419121228888"><ele>25.666666666666664</ele><time>2026-04-11T16:32:44.001Z</time></trkpt><trkpt lat="41.125351623347576" lon="14.197521013865428"><ele>26.0</ele><time>2026-04-11T16:32:45.001Z</time></trkpt><trkpt lat="41.12514687632692" lon="14.19763393102721"><ele>26.0</ele><time>2026-04-11T16:32:46.001Z</time></trkpt><trkpt lat="41.12497135403161" lon="14.197774161948342"><ele>26.0</ele><time>2026-04-11T16:32:47.001Z</time></trkpt><trkpt lat="41.12479403504998" lon="14.197895236041184"><ele>26.0</ele><time>2026-04-11T16:32:48.001Z</time></trkpt><trkpt lat="41.124601701792955" lon="14.198024692617832"><ele>25.666666666666664</ele><time>2026-04-11T16:32:49.001Z</time></trkpt><trkpt lat="41.12440374889703" lon="14.198146734073031"><ele>25.333333333333336</ele><time>2026-04-11T16:32:50.001Z</time></trkpt><trkpt lat="41.12421117360502" lon="14.198280060360423"><ele>25.0</ele><time>2026-04-11T16:32:51.001Z</time></trkpt><trkpt lat="41.123993196430355" lon="14.198402312094924"><ele>24.333333333333336</ele><time>2026-04-11T16:32:52.001Z</time></trkpt><trkpt lat="41.1238022000482" lon="14.198527235106347"><ele>23.666666666666668</ele><time>2026-04-11T16:32:53.001Z</time></trkpt><trkpt lat="41.12360228823181" lon="14.198652476024277"><ele>23.0</ele><time>2026-04-11T16:32:54.001Z</time></trkpt><trkpt lat="41.12340132789751" lon="14.198779738713244"><ele>23.0</ele><time>2026-04-11T16:32:55.001Z</time></trkpt><trkpt lat="41.12321309247644" lon="14.198902115628828"><ele>23.0</ele><time>2026-04-11T16:32:56.001Z</time></trkpt><trkpt lat="41.12302376682811" lon="14.199030922297297"><ele>23.0</ele><time>2026-04-11T16:32:57.001Z</time></trkpt><trkpt lat="41.12282840299284" lon="14.199152703486847"><ele>23.333333333333336</ele><time>2026-04-11T16:32:58.001Z</time></trkpt><trkpt lat="41.122636004140986" lon="14.199282275634458"><ele>23.666666666666668</ele><time>2026-04-11T16:32:59.001Z</time></trkpt><trkpt lat="41.122448249224426" lon="14.199392055896823"><ele>24.0</ele><time>2026-04-11T16:33:00.001Z</time></trkpt><trkpt lat="41.12228149149704" lon="14.19948715950309"><ele>23.333333333333332</ele><time>2026-04-11T16:33:01.001Z</time></trkpt><trkpt lat="41.12209945479961" lon="14.199589364570308"><ele>22.666666666666664</ele><time>2026-04-11T16:33:02.001Z</time></trkpt><trkpt lat="41.12191194750773" lon="14.199683903158029"><ele>22.0</ele><time>2026-04-11T16:33:03.001Z</time></trkpt><trkpt lat="41.12173162305271" lon="14.199776086789472"><ele>22.0</ele><time>2026-04-11T16:33:04.001Z</time></trkpt><trkpt lat="41.12155473986546" lon="14.199863896051859"><ele>22.0</ele><time>2026-04-11T16:33:05.001Z</time></trkpt><trkpt lat="41.12138512653389" lon="14.199942350166074"><ele>22.0</ele><time>2026-04-11T16:33:06.001Z</time></trkpt><trkpt lat="41.12123049784843" lon="14.200024166367582"><ele>22.0</ele><time>2026-04-11T16:33:07.001Z</time></trkpt><trkpt lat="41.1210894372648" lon="14.200105518746405"><ele>22.0</ele><time>2026-04-11T16:33:08.001Z</time></trkpt><trkpt lat="41.120941432570426" lon="14.200186862572341"><ele>22.0</ele><time>2026-04-11T16:33:09.001Z</time></trkpt><trkpt lat="41.1208200871056" lon="14.200255925950668"><ele>22.0</ele><time>2026-04-11T16:33:10.001Z</time></trkpt><trkpt lat="41.120697947000416" lon="14.200325004939804"><ele>22.0</ele><time>2026-04-11T16:33:11.001Z</time></trkpt><trkpt lat="41.12059127857337" lon="14.200377901698843"><ele>22.0</ele><time>2026-04-11T16:33:12.001Z</time></trkpt><trkpt lat="41.12048422302063" lon="14.20041549950724"><ele>22.0</ele><time>2026-04-11T16:33:13.001Z</time></trkpt><trkpt lat="41.120380922298416" lon="14.200463708787712"><ele>22.0</ele><time>2026-04-11T16:33:14Z</time></trkpt><trkpt lat="41.12027320242146" lon="14.200497842711057"><ele>22.0</ele><time>2026-04-11T16:33:15Z</time></trkpt><trkpt lat="41.12016930826878" lon="14.200521315639579"><ele>22.0</ele><time>2026-04-11T16:33:16Z</time></trkpt><trkpt lat="41.12006348391441" lon="14.200550673400446"><ele>22.0</ele><time>2026-04-11T16:33:17Z</time></trkpt><trkpt lat="41.119967249535016" lon="14.200581422484165"><ele>22.0</ele><time>2026-04-11T16:33:18Z</time></trkpt><trkpt lat="41.11986527115633" lon="14.200597083930017"><ele>22.0</ele><time>2026-04-11T16:33:19Z</time></trkpt><trkpt lat="41.11974627234662" lon="14.200613519192729"><ele>22.0</ele><time>2026-04-11T16:33:20Z</time></trkpt><trkpt lat="41.11963112462692" lon="14.200628140001408"><ele>22.0</ele><time>2026-04-11T16:33:21Z</time></trkpt><trkpt lat="41.11951944415473" lon="14.200636752999031"><ele>22.0</ele><time>2026-04-11T16:33:22Z</time></trkpt><trkpt lat="41.11942562285956" lon="14.200674844273749"><ele>22.0</ele><time>2026-04-11T16:33:23Z</time></trkpt><trkpt lat="41.11933940723181" lon="14.20069045896804"><ele>22.0</ele><time>2026-04-11T16:33:24Z</time></trkpt><trkpt lat="41.11925127241417" lon="14.200704220074856"><ele>22.0</ele><time>2026-04-11T16:33:25Z</time></trkpt><trkpt lat="41.11917158693808" lon="14.20071521153686"><ele>22.166666666666664</ele><time>2026-04-11T16:33:26Z</time></trkpt><trkpt lat="41.11909705172886" lon="14.200692162925373"><ele>22.333333333333332</ele><time>2026-04-11T16:33:27Z</time></trkpt><trkpt lat="41.11904008039845" lon="14.200652575269816"><ele>22.5</ele><time>2026-04-11T16:33:28Z</time></trkpt><trkpt lat="41.11897446543433" lon="14.200632888557145"><ele>22.666666666666668</ele><time>2026-04-11T16:33:29Z</time></trkpt><trkpt lat="41.1188930482493" lon="14.200549879958325"><ele>22.833333333333336</ele><time>2026-04-11T16:33:31Z</time></trkpt><trkpt lat="41.11880862522792" lon="14.200626935389721"><ele>23.0</ele><time>2026-04-11T16:33:32Z</time></trkpt><trkpt lat="41.11873671980643" lon="14.200634690847249"><ele>23.0</ele><time>2026-04-11T16:33:34Z</time></trkpt><trkpt lat="41.11867043933641" lon="14.200650517391088"><ele>23.0</ele><time>2026-04-11T16:33:36Z</time></trkpt><trkpt lat="41.118587328944564" lon="14.20065553241587"><ele>23.0</ele><time>2026-04-11T16:34:14Z</time></trkpt><trkpt lat="41.11852941794492" lon="14.2006943769431"><ele>23.0</ele><time>2026-04-11T16:34:16Z</time></trkpt><trkpt lat="41.118454405519394" lon="14.200692741272315"><ele>23.0</ele><time>2026-04-11T16:34:18.001Z</time></trkpt><trkpt lat="41.118421391798066" lon="14.20077245847887"><ele>23.0</ele><time>2026-04-11T16:34:19.001Z</time></trkpt><trkpt lat="41.11831183125107" lon="14.20082301563799"><ele>22.833333333333336</ele><time>2026-04-11T16:34:21.001Z</time></trkpt><trkpt lat="41.11824748437852" lon="14.200834838189568"><ele>22.666666666666668</ele><time>2026-04-11T16:34:22.001Z</time></trkpt><trkpt lat="41.11817507833517" lon="14.200842865945603"><ele>22.5</ele><time>2026-04-11T16:34:23.001Z</time></trkpt><trkpt lat="41.11809925814996" lon="14.200869201475296"><ele>22.333333333333332</ele><time>2026-04-11T16:34:24.001Z</time></trkpt><trkpt lat="41.11801427639116" lon="14.200885338931348"><ele>22.166666666666664</ele><time>2026-04-11T16:34:25.001Z</time></trkpt><trkpt lat="41.11793120125538" lon="14.200888906127766"><ele>22.0</ele><time>2026-04-11T16:34:26.001Z</time></trkpt><trkpt lat="41.11786065064497" lon="14.200907348690532"><ele>22.0</ele><time>2026-04-11T16:34:27.001Z</time></trkpt><trkpt lat="41.11775371965718" lon="14.200964376107821"><ele>22.0</ele><time>2026-04-11T16:34:29.001Z</time></trkpt><trkpt lat="41.11774107212436" lon="14.201267538864263"><ele>22.0</ele><time>2026-04-11T16:34:32.001Z</time></trkpt><trkpt lat="41.11777348796342" lon="14.201387189407079"><ele>22.0</ele><time>2026-04-11T16:34:33.001Z</time></trkpt><trkpt lat="41.117803355867025" lon="14.201538815701127"><ele>22.25</ele><time>2026-04-11T16:34:34.001Z</time></trkpt><trkpt lat="41.11782761658513" lon="14.201712533852351"><ele>22.5</ele><time>2026-04-11T16:34:35.001Z</time></trkpt><trkpt lat="41.11788340283342" lon="14.201919412606802"><ele>22.75</ele><time>2026-04-11T16:34:36.001Z</time></trkpt><trkpt lat="41.11790358426408" lon="14.202092964249996"><ele>23.0</ele><time>2026-04-11T16:34:37.001Z</time></trkpt><trkpt lat="41.117929869564" lon="14.202270549903911"><ele>23.0</ele><time>2026-04-11T16:34:38.001Z</time></trkpt><trkpt lat="41.11795624710268" lon="14.202451634005557"><ele>23.0</ele><time>2026-04-11T16:34:39.001Z</time></trkpt><trkpt lat="41.11798644556704" lon="14.20264240549382"><ele>23.0</ele><time>2026-04-11T16:34:40.001Z</time></trkpt><trkpt lat="41.1180176733798" lon="14.20282665898465"><ele>23.0</ele><time>2026-04-11T16:34:41.001Z</time></trkpt><trkpt lat="41.11805988685482" lon="14.202987909036537"><ele>23.0</ele><time>2026-04-11T16:34:42.001Z</time></trkpt><trkpt lat="41.1181205692855" lon="14.203158164181508"><ele>23.0</ele><time>2026-04-11T16:34:43.001Z</time></trkpt><trkpt lat="41.118204138388656" lon="14.203322633670224"><ele>23.0</ele><time>2026-04-11T16:34:44.001Z</time></trkpt><trkpt lat="41.11829144242926" lon="14.203498618117361"><ele>23.0</ele><time>2026-04-11T16:34:45.001Z</time></trkpt><trkpt lat="41.11839982330043" lon="14.2036623534488"><ele>23.0</ele><time>2026-04-11T16:34:46.001Z</time></trkpt><trkpt lat="41.1184962608855" lon="14.203856626037698"><ele>23.0</ele><time>2026-04-11T16:34:47.001Z</time></trkpt><trkpt lat="41.118613219249845" lon="14.204051543044821"><ele>23.0</ele><time>2026-04-11T16:34:48.001Z</time></trkpt><trkpt lat="41.11872167795529" lon="14.204227307843178"><ele>23.0</ele><time>2026-04-11T16:34:49.001Z</time></trkpt><trkpt lat="41.118838559621146" lon="14.204414725492697"><ele>23.0</ele><time>2026-04-11T16:34:50.001Z</time></trkpt><trkpt lat="41.11895997098614" lon="14.20462827532302"><ele>23.666666666666668</ele><time>2026-04-11T16:34:51.001Z</time></trkpt><trkpt lat="41.11907481670623" lon="14.204842827362413"><ele>24.333333333333336</ele><time>2026-04-11T16:34:52.001Z</time></trkpt><trkpt lat="41.11920400004142" lon="14.205063428633204"><ele>25.0</ele><time>2026-04-11T16:34:53.001Z</time></trkpt><trkpt lat="41.119328618629325" lon="14.205279526530832"><ele>25.0</ele><time>2026-04-11T16:34:54.001Z</time></trkpt><trkpt lat="41.119461348990434" lon="14.205519765365631"><ele>25.0</ele><time>2026-04-11T16:34:55.001Z</time></trkpt><trkpt lat="41.119587975736174" lon="14.205744878369034"><ele>25.0</ele><time>2026-04-11T16:34:56.001Z</time></trkpt><trkpt lat="41.119699588866546" lon="14.205962981330325"><ele>24.666666666666668</ele><time>2026-04-11T16:34:57.001Z</time></trkpt><trkpt lat="41.119832805781805" lon="14.206194685807779"><ele>24.333333333333336</ele><time>2026-04-11T16:34:58.001Z</time></trkpt><trkpt lat="41.119971135345736" lon="14.206432037169453"><ele>24.0</ele><time>2026-04-11T16:34:59.001Z</time></trkpt><trkpt lat="41.120089014324805" lon="14.206683012618868"><ele>23.666666666666668</ele><time>2026-04-11T16:35:00.001Z</time></trkpt><trkpt lat="41.12022517776171" lon="14.206930677081065"><ele>23.333333333333336</ele><time>2026-04-11T16:35:01.001Z</time></trkpt><trkpt lat="41.12035163559721" lon="14.207160688122716"><ele>23.0</ele><time>2026-04-11T16:35:02.001Z</time></trkpt><trkpt lat="41.120472968924204" lon="14.207381378378077"><ele>23.0</ele><time>2026-04-11T16:35:03.001Z</time></trkpt><trkpt lat="41.12058723706447" lon="14.207589218181717"><ele>23.0</ele><time>2026-04-11T16:35:04.001Z</time></trkpt><trkpt lat="41.120717013442565" lon="14.207825265151657"><ele>23.0</ele><time>2026-04-11T16:35:05.001Z</time></trkpt><trkpt lat="41.1208393005332" lon="14.208047021544914"><ele>23.333333333333336</ele><time>2026-04-11T16:35:06.001Z</time></trkpt><trkpt lat="41.120958438692185" lon="14.208262975705605"><ele>23.666666666666668</ele><time>2026-04-11T16:35:07.001Z</time></trkpt><trkpt lat="41.121082386418344" lon="14.208487720047385"><ele>24.0</ele><time>2026-04-11T16:35:08.001Z</time></trkpt><trkpt lat="41.121209002192444" lon="14.20871766377756"><ele>24.0</ele><time>2026-04-11T16:35:09.001Z</time></trkpt><trkpt lat="41.121325737467416" lon="14.208930633321188"><ele>24.0</ele><time>2026-04-11T16:35:10.001Z</time></trkpt><trkpt lat="41.12145049091847" lon="14.209158230484817"><ele>24.0</ele><time>2026-04-11T16:35:11.001Z</time></trkpt><trkpt lat="41.12158012129703" lon="14.209394514153662"><ele>23.666666666666668</ele><time>2026-04-11T16:35:12.001Z</time></trkpt><trkpt lat="41.12170987348498" lon="14.209630646087755"><ele>23.333333333333336</ele><time>2026-04-11T16:35:13.001Z</time></trkpt><trkpt lat="41.12183285257025" lon="14.20985427883276"><ele>23.0</ele><time>2026-04-11T16:35:14.001Z</time></trkpt><trkpt lat="41.12195222089769" lon="14.21007108782262"><ele>23.0</ele><time>2026-04-11T16:35:15.001Z</time></trkpt><trkpt lat="41.122058823765435" lon="14.210264811509782"><ele>23.0</ele><time>2026-04-11T16:35:16.001Z</time></trkpt><trkpt lat="41.122162386793335" lon="14.210453011248088"><ele>23.0</ele><time>2026-04-11T16:35:17.001Z</time></trkpt><trkpt lat="41.1222751267091" lon="14.210657887577902"><ele>23.0</ele><time>2026-04-11T16:35:18.001Z</time></trkpt><trkpt lat="41.1223852005112" lon="14.210857918796101"><ele>23.0</ele><time>2026-04-11T16:35:19.001Z</time></trkpt><trkpt lat="41.12249270676397" lon="14.211053284299812"><ele>23.0</ele><time>2026-04-11T16:35:20Z</time></trkpt><trkpt lat="41.12260077681433" lon="14.211250802436146"><ele>23.0</ele><time>2026-04-11T16:35:21Z</time></trkpt><trkpt lat="41.12270510433941" lon="14.21144289692192"><ele>23.0</ele><time>2026-04-11T16:35:22Z</time></trkpt><trkpt lat="41.122807008549636" lon="14.211630322712557"><ele>23.0</ele><time>2026-04-11T16:35:23Z</time></trkpt><trkpt lat="41.12291252062548" lon="14.21182321158988"><ele>23.0</ele><time>2026-04-11T16:35:24Z</time></trkpt><trkpt lat="41.12302181726946" lon="14.21202301938869"><ele>23.0</ele><time>2026-04-11T16:35:25Z</time></trkpt><trkpt lat="41.12312749365302" lon="14.2122162085493"><ele>23.0</ele><time>2026-04-11T16:35:26Z</time></trkpt><trkpt lat="41.12324582127848" lon="14.212432525720999"><ele>22.666666666666668</ele><time>2026-04-11T16:35:27Z</time></trkpt><trkpt lat="41.12336596515576" lon="14.212653592210305"><ele>22.333333333333332</ele><time>2026-04-11T16:35:28Z</time></trkpt><trkpt lat="41.12349552643455" lon="14.212890710156362"><ele>22.0</ele><time>2026-04-11T16:35:29Z</time></trkpt><trkpt lat="41.12362649754807" lon="14.213129637484942"><ele>22.333333333333332</ele><time>2026-04-11T16:35:30Z</time></trkpt><trkpt lat="41.123740042612724" lon="14.213336774637526"><ele>22.666666666666668</ele><time>2026-04-11T16:35:31Z</time></trkpt><trkpt lat="41.12386117422252" lon="14.213557695390055"><ele>23.0</ele><time>2026-04-11T16:35:32Z</time></trkpt><trkpt lat="41.12398112908873" lon="14.21378286637282"><ele>23.5</ele><time>2026-04-11T16:35:33Z</time></trkpt><trkpt lat="41.12412261130063" lon="14.214038648612263"><ele>24.0</ele><time>2026-04-11T16:35:34Z</time></trkpt><trkpt lat="41.12425102928039" lon="14.214271482797292"><ele>24.0</ele><time>2026-04-11T16:35:35Z</time></trkpt><trkpt lat="41.124370944600784" lon="14.214490570813242"><ele>24.0</ele><time>2026-04-11T16:35:36Z</time></trkpt><trkpt lat="41.12447772653535" lon="14.214685407895182"><ele>24.0</ele><time>2026-04-11T16:35:37Z</time></trkpt><trkpt lat="41.12460245845207" lon="14.214882642016752"><ele>24.0</ele><time>2026-04-11T16:35:38Z</time></trkpt><trkpt lat="41.12472172167923" lon="14.215068856257949"><ele>24.0</ele><time>2026-04-11T16:35:39Z</time></trkpt><trkpt lat="41.12487721797792" lon="14.215235814525792"><ele>24.0</ele><time>2026-04-11T16:35:40Z</time></trkpt><trkpt lat="41.12504697399724" lon="14.215384421478552"><ele>24.0</ele><time>2026-04-11T16:35:41Z</time></trkpt><trkpt lat="41.125209092346935" lon="14.215524422253159"><ele>24.0</ele><time>2026-04-11T16:35:42Z</time></trkpt><trkpt lat="41.125396556490536" lon="14.21565728822856"><ele>24.0</ele><time>2026-04-11T16:35:43Z</time></trkpt><trkpt lat="41.125575672823366" lon="14.21579988356962"><ele>25.0</ele><time>2026-04-11T16:35:44Z</time></trkpt><trkpt lat="41.12576967868039" lon="14.215944839805537"><ele>26.0</ele><time>2026-04-11T16:35:45Z</time></trkpt><trkpt lat="41.1259555850912" lon="14.216081007843638"><ele>27.0</ele><time>2026-04-11T16:35:46Z</time></trkpt><trkpt lat="41.12613730195123" lon="14.216223300272999"><ele>27.0</ele><time>2026-04-11T16:35:47Z</time></trkpt><trkpt lat="41.1263036853894" lon="14.216351206636"><ele>27.0</ele><time>2026-04-11T16:35:48Z</time></trkpt><trkpt lat="41.1264760431134" lon="14.216483667499965"><ele>27.0</ele><time>2026-04-11T16:35:49Z</time></trkpt><trkpt lat="41.1266436503276" lon="14.216613147718505"><ele>27.666666666666664</ele><time>2026-04-11T16:35:50Z</time></trkpt><trkpt lat="41.12681092645123" lon="14.216751276710005"><ele>28.333333333333332</ele><time>2026-04-11T16:35:51Z</time></trkpt><trkpt lat="41.126965149330275" lon="14.21693897839183"><ele>29.0</ele><time>2026-04-11T16:35:52Z</time></trkpt><trkpt lat="41.12713395790187" lon="14.217100907583678"><ele>29.0</ele><time>2026-04-11T16:35:53Z</time></trkpt><trkpt lat="41.12728443409374" lon="14.217279472367744"><ele>29.0</ele><time>2026-04-11T16:35:54Z</time></trkpt><trkpt lat="41.1274420735722" lon="14.217454269478196"><ele>29.0</ele><time>2026-04-11T16:35:55Z</time></trkpt><trkpt lat="41.12758070389713" lon="14.217617418687293"><ele>29.333333333333332</ele><time>2026-04-11T16:35:56Z</time></trkpt><trkpt lat="41.12771029721138" lon="14.217772890431021"><ele>29.666666666666664</ele><time>2026-04-11T16:35:57Z</time></trkpt><trkpt lat="41.127838926121484" lon="14.21794823878093"><ele>30.0</ele><time>2026-04-11T16:35:58Z</time></trkpt><trkpt lat="41.12796966957259" lon="14.218074115444217"><ele>29.666666666666664</ele><time>2026-04-11T16:35:59Z</time></trkpt><trkpt lat="41.12807409770454" lon="14.218207808130254"><ele>29.333333333333332</ele><time>2026-04-11T16:36:00Z</time></trkpt><trkpt lat="41.128201401754346" lon="14.218345312581798"><ele>29.0</ele><time>2026-04-11T16:36:01Z</time></trkpt><trkpt lat="41.12830654082151" lon="14.218479920924738"><ele>28.333333333333332</ele><time>2026-04-11T16:36:02Z</time></trkpt><trkpt lat="41.12841892144634" lon="14.218617751750566"><ele>27.666666666666664</ele><time>2026-04-11T16:36:03Z</time></trkpt><trkpt lat="41.12854125196582" lon="14.218769336053484"><ele>27.0</ele><time>2026-04-11T16:36:04Z</time></trkpt><trkpt lat="41.12867714136922" lon="14.21893447998184"><ele>26.666666666666664</ele><time>2026-04-11T16:36:05Z</time></trkpt><trkpt lat="41.12883542869394" lon="14.219099141333606"><ele>26.333333333333332</ele><time>2026-04-11T16:36:06Z</time></trkpt><trkpt lat="41.129004897315205" lon="14.219270428493267"><ele>26.0</ele><time>2026-04-11T16:36:07Z</time></trkpt><trkpt lat="41.12917992490214" lon="14.219434174035781"><ele>26.0</ele><time>2026-04-11T16:36:08Z</time></trkpt><trkpt lat="41.129350613254104" lon="14.219655278675864"><ele>26.0</ele><time>2026-04-11T16:36:09Z</time></trkpt><trkpt lat="41.129528752958265" lon="14.21989262760367"><ele>26.0</ele><time>2026-04-11T16:36:10Z</time></trkpt><trkpt lat="41.129710113302956" lon="14.220138814313565"><ele>26.0</ele><time>2026-04-11T16:36:11Z</time></trkpt><trkpt lat="41.12989392817141" lon="14.220392551747324"><ele>26.0</ele><time>2026-04-11T16:36:12Z</time></trkpt><trkpt lat="41.13007809053886" lon="14.220650137301687"><ele>26.0</ele><time>2026-04-11T16:36:13Z</time></trkpt><trkpt lat="41.13026909106095" lon="14.220915734863432"><ele>26.0</ele><time>2026-04-11T16:36:14Z</time></trkpt><trkpt lat="41.130447356027055" lon="14.221159060470098"><ele>26.0</ele><time>2026-04-11T16:36:15Z</time></trkpt><trkpt lat="41.13062410936642" lon="14.221399438654247"><ele>26.5</ele><time>2026-04-11T16:36:16Z</time></trkpt><trkpt lat="41.13079390525626" lon="14.221630508468182"><ele>27.0</ele><time>2026-04-11T16:36:17Z</time></trkpt><trkpt lat="41.13095723366231" lon="14.221853275747826"><ele>27.0</ele><time>2026-04-11T16:36:18Z</time></trkpt><trkpt lat="41.1311226766677" lon="14.222052170690311"><ele>27.0</ele><time>2026-04-11T16:36:19Z</time></trkpt><trkpt lat="41.131262440678064" lon="14.222272394007026"><ele>27.0</ele><time>2026-04-11T16:36:20.001Z</time></trkpt><trkpt lat="41.13142354680862" lon="14.222495131383056"><ele>26.5</ele><time>2026-04-11T16:36:21.001Z</time></trkpt><trkpt lat="41.1315924225953" lon="14.222697691226761"><ele>26.0</ele><time>2026-04-11T16:36:22.001Z</time></trkpt><trkpt lat="41.13174176410351" lon="14.222933648082703"><ele>26.0</ele><time>2026-04-11T16:36:23.001Z</time></trkpt><trkpt lat="41.131879997889676" lon="14.223101446337076"><ele>26.0</ele><time>2026-04-11T16:36:24.001Z</time></trkpt><trkpt lat="41.13199784013751" lon="14.223264941167875"><ele>26.0</ele><time>2026-04-11T16:36:25.001Z</time></trkpt><trkpt lat="41.132111877444935" lon="14.223436672041386"><ele>26.5</ele><time>2026-04-11T16:36:26.001Z</time></trkpt><trkpt lat="41.132208552336515" lon="14.223583841669225"><ele>27.0</ele><time>2026-04-11T16:36:27.001Z</time></trkpt><trkpt lat="41.13230933733949" lon="14.2237246474799"><ele>27.5</ele><time>2026-04-11T16:36:28.001Z</time></trkpt><trkpt lat="41.13238730279825" lon="14.223855041136368"><ele>28.0</ele><time>2026-04-11T16:36:29.001Z</time></trkpt><trkpt lat="41.13248562412771" lon="14.223966752312494"><ele>27.75</ele><time>2026-04-11T16:36:30.001Z</time></trkpt><trkpt lat="41.1325726288883" lon="14.224056651713548"><ele>27.5</ele><time>2026-04-11T16:36:31.001Z</time></trkpt><trkpt lat="41.132668264860676" lon="14.224115093745313"><ele>27.25</ele><time>2026-04-11T16:36:32.001Z</time></trkpt><trkpt lat="41.13278766849679" lon="14.224184778277344"><ele>27.0</ele><time>2026-04-11T16:36:33.001Z</time></trkpt><trkpt lat="41.13282653832311" lon="14.224338296160104"><ele>27.0</ele><time>2026-04-11T16:36:34.001Z</time></trkpt><trkpt lat="41.13290543977097" lon="14.224455984164381"><ele>27.0</ele><time>2026-04-11T16:36:35.001Z</time></trkpt><trkpt lat="41.13302796212151" lon="14.224534501444836"><ele>27.0</ele><time>2026-04-11T16:36:36.001Z</time></trkpt><trkpt lat="41.13309084422993" lon="14.224677561642164"><ele>27.0</ele><time>2026-04-11T16:36:37.001Z</time></trkpt><trkpt lat="41.1331588305748" lon="14.224839825687127"><ele>27.0</ele><time>2026-04-11T16:36:38.001Z</time></trkpt><trkpt lat="41.13319663230626" lon="14.225031820482112"><ele>27.0</ele><time>2026-04-11T16:36:39.001Z</time></trkpt><trkpt lat="41.13324346160616" lon="14.225207218509274"><ele>27.0</ele><time>2026-04-11T16:36:40.001Z</time></trkpt><trkpt lat="41.13327559766566" lon="14.225389581439757"><ele>27.0</ele><time>2026-04-11T16:36:41.001Z</time></trkpt><trkpt lat="41.133305297860446" lon="14.225579029515963"><ele>26.333333333333336</ele><time>2026-04-11T16:36:42.001Z</time></trkpt><trkpt lat="41.133335139109064" lon="14.225761200361154"><ele>25.666666666666668</ele><time>2026-04-11T16:36:43.001Z</time></trkpt><trkpt lat="41.133368052557245" lon="14.225961597524895"><ele>25.0</ele><time>2026-04-11T16:36:44.001Z</time></trkpt><trkpt lat="41.13340239697681" lon="14.226170707074983"><ele>25.0</ele><time>2026-04-11T16:36:45.001Z</time></trkpt><trkpt lat="41.13344095873834" lon="14.22640549449405"><ele>25.0</ele><time>2026-04-11T16:36:46.001Z</time></trkpt><trkpt lat="41.13348512952847" lon="14.226674246785768"><ele>25.0</ele><time>2026-04-11T16:36:47.001Z</time></trkpt><trkpt lat="41.13353066102539" lon="14.226949627912429"><ele>25.0</ele><time>2026-04-11T16:36:48.001Z</time></trkpt><trkpt lat="41.133579327429814" lon="14.227243969745688"><ele>25.0</ele><time>2026-04-11T16:36:49.001Z</time></trkpt><trkpt lat="41.13362755896821" lon="14.227535265934812"><ele>25.5</ele><time>2026-04-11T16:36:50.001Z</time></trkpt><trkpt lat="41.13367988658973" lon="14.227834659247907"><ele>26.0</ele><time>2026-04-11T16:36:51.001Z</time></trkpt><trkpt lat="41.13372930987621" lon="14.228144208782057"><ele>26.5</ele><time>2026-04-11T16:36:52.001Z</time></trkpt><trkpt lat="41.133777128617155" lon="14.228460362544995"><ele>27.0</ele><time>2026-04-11T16:36:53.001Z</time></trkpt><trkpt lat="41.13383790467318" lon="14.228770184117318"><ele>27.5</ele><time>2026-04-11T16:36:54.001Z</time></trkpt><trkpt lat="41.13389186976084" lon="14.229089750758295"><ele>28.0</ele><time>2026-04-11T16:36:55.001Z</time></trkpt><trkpt lat="41.13395251346141" lon="14.229410429292537"><ele>28.0</ele><time>2026-04-11T16:36:56.001Z</time></trkpt><trkpt lat="41.133994277579205" lon="14.229748254540409"><ele>28.0</ele><time>2026-04-11T16:36:57.001Z</time></trkpt><trkpt lat="41.13406192464284" lon="14.230089579801476"><ele>27.5</ele><time>2026-04-11T16:36:58.001Z</time></trkpt><trkpt lat="41.13412201993791" lon="14.230444275212534"><ele>27.0</ele><time>2026-04-11T16:36:59.001Z</time></trkpt><trkpt lat="41.13416631841484" lon="14.230793396511274"><ele>27.0</ele><time>2026-04-11T16:37:00.001Z</time></trkpt><trkpt lat="41.13423288731061" lon="14.23114254576905"><ele>27.0</ele><time>2026-04-11T16:37:01.001Z</time></trkpt><trkpt lat="41.13429216516465" lon="14.231507980330278"><ele>27.0</ele><time>2026-04-11T16:37:02.001Z</time></trkpt><trkpt lat="41.13434641939022" lon="14.231850889959434"><ele>27.0</ele><time>2026-04-11T16:37:03.001Z</time></trkpt><trkpt lat="41.134402480895076" lon="14.232184098038463"><ele>27.0</ele><time>2026-04-11T16:37:04.001Z</time></trkpt><trkpt lat="41.13445384491045" lon="14.232510048596563"><ele>27.0</ele><time>2026-04-11T16:37:05.001Z</time></trkpt><trkpt lat="41.13451114268907" lon="14.23282434197789"><ele>27.0</ele><time>2026-04-11T16:37:06.001Z</time></trkpt><trkpt lat="41.13456406165434" lon="14.233147877616302"><ele>27.0</ele><time>2026-04-11T16:37:07.001Z</time></trkpt><trkpt lat="41.134621498325856" lon="14.23346831104511"><ele>27.0</ele><time>2026-04-11T16:37:08.001Z</time></trkpt><trkpt lat="41.13468053984493" lon="14.233797737282755"><ele>27.0</ele><time>2026-04-11T16:37:09.001Z</time></trkpt><trkpt lat="41.134728173534604" lon="14.234127406753855"><ele>26.5</ele><time>2026-04-11T16:37:10.001Z</time></trkpt><trkpt lat="41.13478396614757" lon="14.234460795168646"><ele>26.0</ele><time>2026-04-11T16:37:11.001Z</time></trkpt><trkpt lat="41.13483802653927" lon="14.234790656597044"><ele>26.5</ele><time>2026-04-11T16:37:12.001Z</time></trkpt><trkpt lat="41.13490373792477" lon="14.23513022361787"><ele>27.0</ele><time>2026-04-11T16:37:13.001Z</time></trkpt><trkpt lat="41.134957697696414" lon="14.235465749637934"><ele>27.5</ele><time>2026-04-11T16:37:14.001Z</time></trkpt><trkpt lat="41.1350162252187" lon="14.235819135201599"><ele>28.0</ele><time>2026-04-11T16:37:15.001Z</time></trkpt><trkpt lat="41.13507298394508" lon="14.236170948460394"><ele>27.5</ele><time>2026-04-11T16:37:16.001Z</time></trkpt><trkpt lat="41.135133865335725" lon="14.236513979360288"><ele>27.0</ele><time>2026-04-11T16:37:17.001Z</time></trkpt><trkpt lat="41.13518582520181" lon="14.236861437105649"><ele>27.0</ele><time>2026-04-11T16:37:18.001Z</time></trkpt><trkpt lat="41.13524173184719" lon="14.237221514783448"><ele>27.0</ele><time>2026-04-11T16:37:19.001Z</time></trkpt><trkpt lat="41.135300543210086" lon="14.23757797120033"><ele>27.0</ele><time>2026-04-11T16:37:20.001Z</time></trkpt><trkpt lat="41.13535989711869" lon="14.237942892807324"><ele>27.0</ele><time>2026-04-11T16:37:21.001Z</time></trkpt><trkpt lat="41.13542853666093" lon="14.238310398288425"><ele>27.0</ele><time>2026-04-11T16:37:22.001Z</time></trkpt><trkpt lat="41.135481640903045" lon="14.238681105905668"><ele>27.0</ele><time>2026-04-11T16:37:23.001Z</time></trkpt><trkpt lat="41.13554184714741" lon="14.239053427164992"><ele>26.5</ele><time>2026-04-11T16:37:24.001Z</time></trkpt><trkpt lat="41.13561243270671" lon="14.239420690126636"><ele>26.0</ele><time>2026-04-11T16:37:25.001Z</time></trkpt><trkpt lat="41.13567748589985" lon="14.239793549617882"><ele>27.0</ele><time>2026-04-11T16:37:26Z</time></trkpt><trkpt lat="41.13574370227607" lon="14.24019149531849"><ele>28.0</ele><time>2026-04-11T16:37:27Z</time></trkpt><trkpt lat="41.135809038478754" lon="14.240584067169264"><ele>27.5</ele><time>2026-04-11T16:37:28Z</time></trkpt><trkpt lat="41.135853010316424" lon="14.240950235276554"><ele>27.0</ele><time>2026-04-11T16:37:29Z</time></trkpt><trkpt lat="41.13590833780554" lon="14.241284237188358"><ele>27.5</ele><time>2026-04-11T16:37:30Z</time></trkpt><trkpt lat="41.13596135376129" lon="14.241604564405536"><ele>28.0</ele><time>2026-04-11T16:37:31Z</time></trkpt><trkpt lat="41.136007491153414" lon="14.24188091329841"><ele>28.0</ele><time>2026-04-11T16:37:32Z</time></trkpt><trkpt lat="41.13605213205651" lon="14.242152183545635"><ele>28.0</ele><time>2026-04-11T16:37:33Z</time></trkpt><trkpt lat="41.136109856798925" lon="14.242416843029817"><ele>28.0</ele><time>2026-04-11T16:37:34Z</time></trkpt><trkpt lat="41.13613549138453" lon="14.242662443585573"><ele>28.333333333333336</ele><time>2026-04-11T16:37:35Z</time></trkpt><trkpt lat="41.136172141371354" lon="14.24291609908613"><ele>28.666666666666664</ele><time>2026-04-11T16:37:36Z</time></trkpt><trkpt lat="41.13620121211494" lon="14.243184132771642"><ele>29.0</ele><time>2026-04-11T16:37:37Z</time></trkpt><trkpt lat="41.136220598197255" lon="14.24346563025913"><ele>29.333333333333332</ele><time>2026-04-11T16:37:38Z</time></trkpt><trkpt lat="41.136217235684256" lon="14.24375977428246"><ele>29.666666666666664</ele><time>2026-04-11T16:37:39Z</time></trkpt><trkpt lat="41.136234709697725" lon="14.244052116234965"><ele>30.0</ele><time>2026-04-11T16:37:40Z</time></trkpt><trkpt lat="41.1362476882776" lon="14.244349073334465"><ele>30.5</ele><time>2026-04-11T16:37:41Z</time></trkpt><trkpt lat="41.136259898880276" lon="14.24466127696781"><ele>31.0</ele><time>2026-04-11T16:37:42Z</time></trkpt><trkpt lat="41.136269008880184" lon="14.24497614433234"><ele>31.5</ele><time>2026-04-11T16:37:43Z</time></trkpt><trkpt lat="41.13628509557158" lon="14.245294540179433"><ele>32.0</ele><time>2026-04-11T16:37:44Z</time></trkpt><trkpt lat="41.13628833265033" lon="14.245641016417217"><ele>32.0</ele><time>2026-04-11T16:37:45Z</time></trkpt><trkpt lat="41.13631087858181" lon="14.245975464894837"><ele>32.0</ele><time>2026-04-11T16:37:46Z</time></trkpt><trkpt lat="41.13632085484862" lon="14.246326052989506"><ele>33.0</ele><time>2026-04-11T16:37:47Z</time></trkpt><trkpt lat="41.13634141003144" lon="14.24666319285086"><ele>34.0</ele><time>2026-04-11T16:37:48Z</time></trkpt><trkpt lat="41.136348998238645" lon="14.247003445514636"><ele>35.5</ele><time>2026-04-11T16:37:49Z</time></trkpt><trkpt lat="41.136354368669174" lon="14.247304636014832"><ele>37.0</ele><time>2026-04-11T16:37:50Z</time></trkpt><trkpt lat="41.136375278225444" lon="14.247599134425426"><ele>37.0</ele><time>2026-04-11T16:37:51Z</time></trkpt><trkpt lat="41.136385916607935" lon="14.247870364160287"><ele>37.0</ele><time>2026-04-11T16:37:52Z</time></trkpt><trkpt lat="41.136384994498215" lon="14.248102141820137"><ele>37.0</ele><time>2026-04-11T16:37:53Z</time></trkpt><trkpt lat="41.136382834518564" lon="14.248292925262652"><ele>37.333333333333336</ele><time>2026-04-11T16:37:54Z</time></trkpt><trkpt lat="41.13640205326664" lon="14.248502294088363"><ele>37.666666666666664</ele><time>2026-04-11T16:37:55Z</time></trkpt><trkpt lat="41.1364099449066" lon="14.248728904663698"><ele>38.0</ele><time>2026-04-11T16:37:56Z</time></trkpt><trkpt lat="41.13640797837502" lon="14.248967735504685"><ele>39.0</ele><time>2026-04-11T16:37:57Z</time></trkpt><trkpt lat="41.13641128025972" lon="14.24920540702307"><ele>40.0</ele><time>2026-04-11T16:37:58Z</time></trkpt><trkpt lat="41.13640243222114" lon="14.249421919469539"><ele>41.0</ele><time>2026-04-11T16:37:59Z</time></trkpt><trkpt lat="41.1363844407287" lon="14.24965320585941"><ele>41.666666666666664</ele><time>2026-04-11T16:38:00Z</time></trkpt><trkpt lat="41.13636391283243" lon="14.24990695831317"><ele>42.333333333333336</ele><time>2026-04-11T16:38:01Z</time></trkpt><trkpt lat="41.13633021365191" lon="14.250163622219375"><ele>43.0</ele><time>2026-04-11T16:38:02Z</time></trkpt><trkpt lat="41.136293736034524" lon="14.250394158786516"><ele>43.0</ele><time>2026-04-11T16:38:03Z</time></trkpt><trkpt lat="41.136260917201994" lon="14.250613939493029"><ele>43.0</ele><time>2026-04-11T16:38:04Z</time></trkpt><trkpt lat="41.13623600620002" lon="14.250820714003808"><ele>43.0</ele><time>2026-04-11T16:38:05Z</time></trkpt><trkpt lat="41.13620545691701" lon="14.251025060466294"><ele>42.75</ele><time>2026-04-11T16:38:06Z</time></trkpt><trkpt lat="41.13617956231576" lon="14.251216695437869"><ele>42.5</ele><time>2026-04-11T16:38:07Z</time></trkpt><trkpt lat="41.136162074261485" lon="14.251398761491028"><ele>42.25</ele><time>2026-04-11T16:38:08Z</time></trkpt><trkpt lat="41.13614436705825" lon="14.251569586011382"><ele>42.0</ele><time>2026-04-11T16:38:09Z</time></trkpt><trkpt lat="41.13612428739729" lon="14.251728028968722"><ele>41.4</ele><time>2026-04-11T16:38:10Z</time></trkpt><trkpt lat="41.13610378527144" lon="14.251869167182194"><ele>40.800000000000004</ele><time>2026-04-11T16:38:11Z</time></trkpt><trkpt lat="41.136097173096445" lon="14.251993935463627"><ele>40.2</ele><time>2026-04-11T16:38:12Z</time></trkpt><trkpt lat="41.13611300081452" lon="14.252114240362285"><ele>39.6</ele><time>2026-04-11T16:38:13Z</time></trkpt><trkpt lat="41.13615859168518" lon="14.252244230680299"><ele>39.0</ele><time>2026-04-11T16:38:14Z</time></trkpt><trkpt lat="41.13622402100702" lon="14.252343649887294"><ele>38.8</ele><time>2026-04-11T16:38:15Z</time></trkpt><trkpt lat="41.13631066996616" lon="14.252423905597933"><ele>38.599999999999994</ele><time>2026-04-11T16:38:16Z</time></trkpt><trkpt lat="41.13640478421062" lon="14.252471523556991"><ele>38.4</ele><time>2026-04-11T16:38:17Z</time></trkpt><trkpt lat="41.136506008545496" lon="14.252492159934379"><ele>38.199999999999996</ele><time>2026-04-11T16:38:18Z</time></trkpt><trkpt lat="41.13659852638583" lon="14.252491664603278"><ele>38.0</ele><time>2026-04-11T16:38:19Z</time></trkpt><trkpt lat="41.13670388928331" lon="14.25250439246023"><ele>38.0</ele><time>2026-04-11T16:38:20Z</time></trkpt><trkpt lat="41.13679485127771" lon="14.252554857063183"><ele>38.0</ele><time>2026-04-11T16:38:21Z</time></trkpt><trkpt lat="41.13687215231343" lon="14.252608135581944"><ele>38.0</ele><time>2026-04-11T16:38:22Z</time></trkpt><trkpt lat="41.13692329280444" lon="14.252681331727235"><ele>38.0</ele><time>2026-04-11T16:38:23Z</time></trkpt><trkpt lat="41.136953347029234" lon="14.25279517429298"><ele>38.0</ele><time>2026-04-11T16:38:24Z</time></trkpt><trkpt lat="41.136977664667334" lon="14.252940207350608"><ele>38.0</ele><time>2026-04-11T16:38:25Z</time></trkpt><trkpt lat="41.137009961384535" lon="14.253105551034013"><ele>38.0</ele><time>2026-04-11T16:38:26Z</time></trkpt><trkpt lat="41.13704003697398" lon="14.253240628729989"><ele>38.0</ele><time>2026-04-11T16:38:27Z</time></trkpt><trkpt lat="41.137075503452536" lon="14.253366811572304"><ele>38.0</ele><time>2026-04-11T16:38:28Z</time></trkpt><trkpt lat="41.13710119996346" lon="14.253492714844407"><ele>38.0</ele><time>2026-04-11T16:38:29Z</time></trkpt><trkpt lat="41.13707081163248" lon="14.253629968236254"><ele>36.0</ele><time>2026-04-11T16:38:30Z</time></trkpt><trkpt lat="41.13702782815553" lon="14.253771754689057"><ele>34.0</ele><time>2026-04-11T16:38:31Z</time></trkpt><trkpt lat="41.13697892694276" lon="14.253921236987136"><ele>32.0</ele><time>2026-04-11T16:38:32Z</time></trkpt><trkpt lat="41.13690957911747" lon="14.254041949342321"><ele>30.0</ele><time>2026-04-11T16:38:33Z</time></trkpt><trkpt lat="41.13682842165526" lon="14.254155603192329"><ele>30.0</ele><time>2026-04-11T16:38:34Z</time></trkpt><trkpt lat="41.13674282876136" lon="14.254275218449973"><ele>30.0</ele><time>2026-04-11T16:38:35Z</time></trkpt><trkpt lat="41.13665390424858" lon="14.254374911095292"><ele>30.0</ele><time>2026-04-11T16:38:36Z</time></trkpt><trkpt lat="41.136555664726565" lon="14.254469712609616"><ele>30.0</ele><time>2026-04-11T16:38:37Z</time></trkpt><trkpt lat="41.13646138488638" lon="14.254575722728633"><ele>29.75</ele><time>2026-04-11T16:38:38Z</time></trkpt><trkpt lat="41.136368759824066" lon="14.25466137863402"><ele>29.5</ele><time>2026-04-11T16:38:39Z</time></trkpt><trkpt lat="41.136274637753544" lon="14.25473125919152"><ele>29.25</ele><time>2026-04-11T16:38:40Z</time></trkpt><trkpt lat="41.13618126357241" lon="14.254833093862036"><ele>29.0</ele><time>2026-04-11T16:38:41Z</time></trkpt><trkpt lat="41.136092566713195" lon="14.25493133658886"><ele>29.0</ele><time>2026-04-11T16:38:42Z</time></trkpt><trkpt lat="41.13600381720398" lon="14.255024378228738"><ele>29.0</ele><time>2026-04-11T16:38:43Z</time></trkpt><trkpt lat="41.13590598432072" lon="14.25513068948724"><ele>29.0</ele><time>2026-04-11T16:38:44Z</time></trkpt><trkpt lat="41.13581012541044" lon="14.255231494707346"><ele>29.0</ele><time>2026-04-11T16:38:45Z</time></trkpt><trkpt lat="41.135709944088894" lon="14.255342834517778"><ele>29.25</ele><time>2026-04-11T16:38:46Z</time></trkpt><trkpt lat="41.135607480692386" lon="14.25544921597487"><ele>29.5</ele><time>2026-04-11T16:38:47Z</time></trkpt><trkpt lat="41.135525438068086" lon="14.255571413448127"><ele>29.75</ele><time>2026-04-11T16:38:48Z</time></trkpt><trkpt lat="41.135434072926536" lon="14.255674797199758"><ele>30.0</ele><time>2026-04-11T16:38:49Z</time></trkpt><trkpt lat="41.13534165815616" lon="14.255773193567117"><ele>30.5</ele><time>2026-04-11T16:38:50Z</time></trkpt><trkpt lat="41.13524511800213" lon="14.25587034193946"><ele>31.0</ele><time>2026-04-11T16:38:51Z</time></trkpt><trkpt lat="41.13515169730971" lon="14.25597366233297"><ele>31.5</ele><time>2026-04-11T16:38:52Z</time></trkpt><trkpt lat="41.13505969086826" lon="14.2560738615112"><ele>32.0</ele><time>2026-04-11T16:38:53Z</time></trkpt><trkpt lat="41.134976032773615" lon="14.256162563882892"><ele>32.0</ele><time>2026-04-11T16:38:54Z</time></trkpt><trkpt lat="41.134892342030625" lon="14.256265324159251"><ele>32.0</ele><time>2026-04-11T16:38:55Z</time></trkpt><trkpt lat="41.134800396615795" lon="14.25637076975794"><ele>32.0</ele><time>2026-04-11T16:38:56Z</time></trkpt><trkpt lat="41.13470720699925" lon="14.25646794329432"><ele>32.0</ele><time>2026-04-11T16:38:57Z</time></trkpt><trkpt lat="41.1346161120187" lon="14.25657206123757"><ele>31.75</ele><time>2026-04-11T16:38:58Z</time></trkpt><trkpt lat="41.134510682717554" lon="14.256648928527419"><ele>31.5</ele><time>2026-04-11T16:38:59Z</time></trkpt><trkpt lat="41.134427609793036" lon="14.25675507426748"><ele>31.25</ele><time>2026-04-11T16:39:00Z</time></trkpt><trkpt lat="41.1343397876837" lon="14.25686776794371"><ele>31.0</ele><time>2026-04-11T16:39:01Z</time></trkpt><trkpt lat="41.13425890974263" lon="14.256971215600792"><ele>31.0</ele><time>2026-04-11T16:39:02Z</time></trkpt><trkpt lat="41.13418556883563" lon="14.257061806954471"><ele>31.0</ele><time>2026-04-11T16:39:03Z</time></trkpt><trkpt lat="41.13410675006212" lon="14.257156830954171"><ele>31.0</ele><time>2026-04-11T16:39:04Z</time></trkpt><trkpt lat="41.13402820566375" lon="14.257263317430493"><ele>31.0</ele><time>2026-04-11T16:39:05Z</time></trkpt><trkpt lat="41.13394916527092" lon="14.25737806355272"><ele>31.0</ele><time>2026-04-11T16:39:06Z</time></trkpt><trkpt lat="41.13387037387858" lon="14.257494167839129"><ele>30.5</ele><time>2026-04-11T16:39:07Z</time></trkpt><trkpt lat="41.13379267029285" lon="14.257629308837169"><ele>30.0</ele><time>2026-04-11T16:39:08.001Z</time></trkpt><trkpt lat="41.1337094469142" lon="14.257760073040188"><ele>29.5</ele><time>2026-04-11T16:39:09.001Z</time></trkpt><trkpt lat="41.13362796219454" lon="14.25790794780032"><ele>29.0</ele><time>2026-04-11T16:39:10.001Z</time></trkpt><trkpt lat="41.133534005822966" lon="14.258042570214403"><ele>30.0</ele><time>2026-04-11T16:39:11.001Z</time></trkpt><trkpt lat="41.133462962120525" lon="14.25821162247817"><ele>31.0</ele><time>2026-04-11T16:39:12.001Z</time></trkpt><trkpt lat="41.13338271221045" lon="14.258363465525237"><ele>32.0</ele><time>2026-04-11T16:39:13.001Z</time></trkpt><trkpt lat="41.13331690095718" lon="14.25852558718778"><ele>33.0</ele><time>2026-04-11T16:39:14.001Z</time></trkpt><trkpt lat="41.13324862262747" lon="14.25868045727282"><ele>32.25</ele><time>2026-04-11T16:39:15.001Z</time></trkpt><trkpt lat="41.133187635508556" lon="14.258843963879537"><ele>31.5</ele><time>2026-04-11T16:39:16.001Z</time></trkpt><trkpt lat="41.13312803320553" lon="14.259005737875189"><ele>30.75</ele><time>2026-04-11T16:39:17.001Z</time></trkpt><trkpt lat="41.133079061030614" lon="14.259160858363812"><ele>30.0</ele><time>2026-04-11T16:39:18.001Z</time></trkpt><trkpt lat="41.1330269940722" lon="14.259310783289665"><ele>30.0</ele><time>2026-04-11T16:39:19.001Z</time></trkpt><trkpt lat="41.13298648278863" lon="14.259436070362737"><ele>30.0</ele><time>2026-04-11T16:39:20.001Z</time></trkpt><trkpt lat="41.132957320870155" lon="14.259541485094577"><ele>30.0</ele><time>2026-04-11T16:39:21.001Z</time></trkpt><trkpt lat="41.13293002830126" lon="14.259642178786354"><ele>30.0</ele><time>2026-04-11T16:39:22.001Z</time></trkpt><trkpt lat="41.132913786657156" lon="14.259729550797008"><ele>30.0</ele><time>2026-04-11T16:39:23.001Z</time></trkpt><trkpt lat="41.13289696779209" lon="14.259811809404628"><ele>30.0</ele><time>2026-04-11T16:39:24.001Z</time></trkpt><trkpt lat="41.13286454044503" lon="14.259954427017068"><ele>30.166666666666668</ele><time>2026-04-11T16:39:26.001Z</time></trkpt><trkpt lat="41.13283005816441" lon="14.260103524067876"><ele>30.333333333333336</ele><time>2026-04-11T16:39:28.001Z</time></trkpt><trkpt lat="41.13280582331689" lon="14.26018531160513"><ele>30.5</ele><time>2026-04-11T16:39:29.001Z</time></trkpt><trkpt lat="41.13278510860329" lon="14.26026962226598"><ele>30.666666666666668</ele><time>2026-04-11T16:39:30.001Z</time></trkpt><trkpt lat="41.132740493164334" lon="14.260386664698498"><ele>30.833333333333336</ele><time>2026-04-11T16:39:32Z</time></trkpt><trkpt lat="41.13271188387434" lon="14.26047890764425"><ele>31.0</ele><time>2026-04-11T16:39:34Z</time></trkpt><trkpt lat="41.132536084730795" lon="14.26045516667582"><ele>31.0</ele><time>2026-04-11T16:39:35Z</time></trkpt><trkpt lat="41.13241705783684" lon="14.260424819352654"><ele>31.0</ele><time>2026-04-11T16:39:36Z</time></trkpt><trkpt lat="41.13228125497733" lon="14.260387299960009"><ele>31.0</ele><time>2026-04-11T16:39:37Z</time></trkpt><trkpt lat="41.132125139549444" lon="14.260342755081867"><ele>31.0</ele><time>2026-04-11T16:39:38Z</time></trkpt><trkpt lat="41.131964254718056" lon="14.260296117944986"><ele>30.333333333333336</ele><time>2026-04-11T16:39:39Z</time></trkpt><trkpt lat="41.13178819656646" lon="14.260255693548382"><ele>29.666666666666664</ele><time>2026-04-11T16:39:40Z</time></trkpt><trkpt lat="41.13160665755737" lon="14.260209728550386"><ele>29.0</ele><time>2026-04-11T16:39:41Z</time></trkpt><trkpt lat="41.13142109924918" lon="14.260167333885235"><ele>29.0</ele><time>2026-04-11T16:39:42Z</time></trkpt><trkpt lat="41.131222926372146" lon="14.260116479540843"><ele>29.0</ele><time>2026-04-11T16:39:43Z</time></trkpt><trkpt lat="41.13103241761908" lon="14.260070454853748"><ele>29.0</ele><time>2026-04-11T16:39:44Z</time></trkpt><trkpt lat="41.13085700180687" lon="14.260023832467592"><ele>31.0</ele><time>2026-04-11T16:39:45Z</time></trkpt><trkpt lat="41.1306901784947" lon="14.259986110561453"><ele>33.0</ele><time>2026-04-11T16:39:46Z</time></trkpt><trkpt lat="41.13053388964459" lon="14.259951766888022"><ele>35.0</ele><time>2026-04-11T16:39:47Z</time></trkpt><trkpt lat="41.13038847895903" lon="14.259907282440523"><ele>35.0</ele><time>2026-04-11T16:39:48Z</time></trkpt><trkpt lat="41.13025151716579" lon="14.259868658574899"><ele>35.0</ele><time>2026-04-11T16:39:49Z</time></trkpt><trkpt lat="41.13013240861029" lon="14.25984461189195"><ele>35.0</ele><time>2026-04-11T16:39:50Z</time></trkpt><trkpt lat="41.13003186149901" lon="14.25981209516231"><ele>35.0</ele><time>2026-04-11T16:39:51Z</time></trkpt><trkpt lat="41.129952966696436" lon="14.259786613475175"><ele>35.0</ele><time>2026-04-11T16:39:52Z</time></trkpt><trkpt lat="41.12988899128997" lon="14.25974406101586"><ele>35.6</ele><time>2026-04-11T16:39:53Z</time></trkpt><trkpt lat="41.129813882473876" lon="14.25973684517889"><ele>36.2</ele><time>2026-04-11T16:39:55Z</time></trkpt><trkpt lat="41.12978810145796" lon="14.259562111896598"><ele>36.8</ele><time>2026-04-11T16:39:56Z</time></trkpt><trkpt lat="41.12976477595513" lon="14.259442163924472"><ele>37.4</ele><time>2026-04-11T16:39:57Z</time></trkpt><trkpt lat="41.12974062655229" lon="14.259291931732237"><ele>38.0</ele><time>2026-04-11T16:39:58Z</time></trkpt><trkpt lat="41.12970823983842" lon="14.25912053910707"><ele>38.0</ele><time>2026-04-11T16:39:59Z</time></trkpt><trkpt lat="41.129669517282856" lon="14.258929015425032"><ele>38.0</ele><time>2026-04-11T16:40:00Z</time></trkpt><trkpt lat="41.1296274998011" lon="14.258724888128274"><ele>38.0</ele><time>2026-04-11T16:40:01Z</time></trkpt><trkpt lat="41.12958883686824" lon="14.25849332992395"><ele>38.0</ele><time>2026-04-11T16:40:02Z</time></trkpt><trkpt lat="41.12954230754857" lon="14.258259842234489"><ele>38.0</ele><time>2026-04-11T16:40:03Z</time></trkpt><trkpt lat="41.12950192739825" lon="14.25802445334278"><ele>38.0</ele><time>2026-04-11T16:40:04Z</time></trkpt><trkpt lat="41.12945755432295" lon="14.257785119913523"><ele>38.33333333333333</ele><time>2026-04-11T16:40:05Z</time></trkpt><trkpt lat="41.12942716182023" lon="14.257537205000014"><ele>38.666666666666664</ele><time>2026-04-11T16:40:06Z</time></trkpt><trkpt lat="41.12937350012225" lon="14.257316082169238"><ele>39.0</ele><time>2026-04-11T16:40:07Z</time></trkpt><trkpt lat="41.12933067705229" lon="14.257107832336787"><ele>39.0</ele><time>2026-04-11T16:40:08Z</time></trkpt><trkpt lat="41.1293122277955" lon="14.256881701220665"><ele>39.0</ele><time>2026-04-11T16:40:09Z</time></trkpt><trkpt lat="41.129277183937624" lon="14.256674461646293"><ele>39.0</ele><time>2026-04-11T16:40:10Z</time></trkpt><trkpt lat="41.12923997190379" lon="14.256491625380528"><ele>39.333333333333336</ele><time>2026-04-11T16:40:11Z</time></trkpt><trkpt lat="41.129196560974826" lon="14.256320618256835"><ele>39.66666666666667</ele><time>2026-04-11T16:40:12Z</time></trkpt><trkpt lat="41.12913007639827" lon="14.256121205769409"><ele>40.0</ele><time>2026-04-11T16:40:13Z</time></trkpt><trkpt lat="41.129042429502434" lon="14.25589319465103"><ele>41.0</ele><time>2026-04-11T16:40:14Z</time></trkpt><trkpt lat="41.128955346135456" lon="14.255669407666774"><ele>42.0</ele><time>2026-04-11T16:40:15Z</time></trkpt><trkpt lat="41.12886199578981" lon="14.255433051029911"><ele>43.0</ele><time>2026-04-11T16:40:16Z</time></trkpt><trkpt lat="41.12876688563791" lon="14.255207732834576"><ele>43.0</ele><time>2026-04-11T16:40:17Z</time></trkpt><trkpt lat="41.128667629640866" lon="14.254987989163439"><ele>43.0</ele><time>2026-04-11T16:40:18Z</time></trkpt><trkpt lat="41.12856596989661" lon="14.254773067095078"><ele>43.0</ele><time>2026-04-11T16:40:19Z</time></trkpt><trkpt lat="41.12845035438598" lon="14.254572253918202"><ele>42.66666666666667</ele><time>2026-04-11T16:40:20Z</time></trkpt><trkpt lat="41.12832081281095" lon="14.254372250755585"><ele>42.333333333333336</ele><time>2026-04-11T16:40:21Z</time></trkpt><trkpt lat="41.12819824942936" lon="14.254181821558491"><ele>42.0</ele><time>2026-04-11T16:40:22Z</time></trkpt><trkpt lat="41.12808640380595" lon="14.254008397661407"><ele>42.333333333333336</ele><time>2026-04-11T16:40:23Z</time></trkpt><trkpt lat="41.12797038850828" lon="14.25383485542523"><ele>42.66666666666667</ele><time>2026-04-11T16:40:24Z</time></trkpt><trkpt lat="41.127869082866376" lon="14.253673097103457"><ele>43.0</ele><time>2026-04-11T16:40:25Z</time></trkpt><trkpt lat="41.127763843159215" lon="14.253514013656387"><ele>43.0</ele><time>2026-04-11T16:40:26Z</time></trkpt><trkpt lat="41.12766235597723" lon="14.25336376678085"><ele>43.0</ele><time>2026-04-11T16:40:27Z</time></trkpt><trkpt lat="41.12755946174362" lon="14.25321806051636"><ele>43.0</ele><time>2026-04-11T16:40:28Z</time></trkpt><trkpt lat="41.127463027101705" lon="14.253103168218201"><ele>43.0</ele><time>2026-04-11T16:40:29Z</time></trkpt><trkpt lat="41.1273514766505" lon="14.252981111155547"><ele>44.333333333333336</ele><time>2026-04-11T16:40:30Z</time></trkpt><trkpt lat="41.12723388364028" lon="14.252844910864384"><ele>45.666666666666664</ele><time>2026-04-11T16:40:31Z</time></trkpt><trkpt lat="41.12711829825688" lon="14.252682398563316"><ele>47.0</ele><time>2026-04-11T16:40:32Z</time></trkpt><trkpt lat="41.12699647807593" lon="14.252543603553228"><ele>47.0</ele><time>2026-04-11T16:40:33Z</time></trkpt><trkpt lat="41.1268926235337" lon="14.252417785681128"><ele>47.0</ele><time>2026-04-11T16:40:34Z</time></trkpt><trkpt lat="41.1268116029514" lon="14.252322053675696"><ele>47.0</ele><time>2026-04-11T16:40:35Z</time></trkpt><trkpt lat="41.12673150059942" lon="14.252243024667143"><ele>47.0</ele><time>2026-04-11T16:40:36Z</time></trkpt><trkpt lat="41.12666394884232" lon="14.252179131722723"><ele>47.0</ele><time>2026-04-11T16:40:37Z</time></trkpt><trkpt lat="41.12659951112229" lon="14.252122892440672"><ele>47.400000000000006</ele><time>2026-04-11T16:40:38.001Z</time></trkpt><trkpt lat="41.12652603418096" lon="14.252073371367722"><ele>47.800000000000004</ele><time>2026-04-11T16:40:39.001Z</time></trkpt><trkpt lat="41.126447399418076" lon="14.252017910635908"><ele>48.2</ele><time>2026-04-11T16:40:40.001Z</time></trkpt><trkpt lat="41.12634918260475" lon="14.251961345542579"><ele>48.6</ele><time>2026-04-11T16:40:41.001Z</time></trkpt><trkpt lat="41.12621937364487" lon="14.25189248128137"><ele>49.0</ele><time>2026-04-11T16:40:42.001Z</time></trkpt><trkpt lat="41.126090022451166" lon="14.251822795368733"><ele>49.0</ele><time>2026-04-11T16:40:43.001Z</time></trkpt><trkpt lat="41.125975511582645" lon="14.251761962878781"><ele>49.0</ele><time>2026-04-11T16:40:44.001Z</time></trkpt><trkpt lat="41.125873403772204" lon="14.251692152431248"><ele>49.0</ele><time>2026-04-11T16:40:45.001Z</time></trkpt><trkpt lat="41.12579310054496" lon="14.251650471889695"><ele>49.0</ele><time>2026-04-11T16:40:46.001Z</time></trkpt><trkpt lat="41.12572034813989" lon="14.251614402843838"><ele>49.0</ele><time>2026-04-11T16:40:47.001Z</time></trkpt><trkpt lat="41.125658434481025" lon="14.251583296399458"><ele>49.2</ele><time>2026-04-11T16:40:48.001Z</time></trkpt><trkpt lat="41.1255675432891" lon="14.251547565395265"><ele>49.400000000000006</ele><time>2026-04-11T16:40:50.001Z</time></trkpt><trkpt lat="41.125493812840354" lon="14.251512731762238"><ele>49.6</ele><time>2026-04-11T16:40:52.001Z</time></trkpt><trkpt lat="41.125414688111476" lon="14.25147251787797"><ele>49.8</ele><time>2026-04-11T16:40:54.001Z</time></trkpt><trkpt lat="41.12534106640422" lon="14.251439710343403"><ele>50.0</ele><time>2026-04-11T16:40:56.001Z</time></trkpt><trkpt lat="41.12522161679924" lon="14.25157675365244"><ele>50.00000000000001</ele><time>2026-04-11T16:40:58.001Z</time></trkpt><trkpt lat="41.125154044503326" lon="14.251588605343072"><ele>50.0</ele><time>2026-04-11T16:40:59.001Z</time></trkpt><trkpt lat="41.12508045200746" lon="14.251633799814117"><ele>50.0</ele><time>2026-04-11T16:41:00.001Z</time></trkpt><trkpt lat="41.12499914866802" lon="14.2516419112768"><ele>50.0</ele><time>2026-04-11T16:41:01.001Z</time></trkpt><trkpt lat="41.12490570847795" lon="14.251674287414462"><ele>50.00000000000001</ele><time>2026-04-11T16:41:02.001Z</time></trkpt><trkpt lat="41.12480759538494" lon="14.251708551192971"><ele>50.0</ele><time>2026-04-11T16:41:03.001Z</time></trkpt><trkpt lat="41.124700387995865" lon="14.251726246391355"><ele>49.75</ele><time>2026-04-11T16:41:04.001Z</time></trkpt><trkpt lat="41.1245989544361" lon="14.251772682095716"><ele>49.5</ele><time>2026-04-11T16:41:05.001Z</time></trkpt><trkpt lat="41.1244686488345" lon="14.251765290758783"><ele>49.25</ele><time>2026-04-11T16:41:06.001Z</time></trkpt><trkpt lat="41.124357368883544" lon="14.251779512579393"><ele>49.0</ele><time>2026-04-11T16:41:07.001Z</time></trkpt><trkpt lat="41.12424685474537" lon="14.251814583894562"><ele>49.0</ele><time>2026-04-11T16:41:08.001Z</time></trkpt><trkpt lat="41.124137930472514" lon="14.251821199833353"><ele>49.0</ele><time>2026-04-11T16:41:09.001Z</time></trkpt><trkpt lat="41.12403796892856" lon="14.251845173945558"><ele>49.0</ele><time>2026-04-11T16:41:10.001Z</time></trkpt><trkpt lat="41.123950547358" lon="14.251876982873624"><ele>49.0</ele><time>2026-04-11T16:41:11.001Z</time></trkpt><trkpt lat="41.12387385483207" lon="14.251903779080514"><ele>49.0</ele><time>2026-04-11T16:41:12.001Z</time></trkpt><trkpt lat="41.12377175204667" lon="14.25192197887033"><ele>49.400000000000006</ele><time>2026-04-11T16:41:13.001Z</time></trkpt><trkpt lat="41.12365848609873" lon="14.25194889696111"><ele>49.8</ele><time>2026-04-11T16:41:14.001Z</time></trkpt><trkpt lat="41.1235497900394" lon="14.251993485041016"><ele>50.2</ele><time>2026-04-11T16:41:15.001Z</time></trkpt><trkpt lat="41.123445984835534" lon="14.252064445512461"><ele>50.599999999999994</ele><time>2026-04-11T16:41:16.001Z</time></trkpt><trkpt lat="41.123376793445566" lon="14.252158583299265"><ele>51.0</ele><time>2026-04-11T16:41:17.001Z</time></trkpt><trkpt lat="41.123298069233535" lon="14.252208885370704"><ele>51.199999999999996</ele><time>2026-04-11T16:41:18.001Z</time></trkpt><trkpt lat="41.12321171812157" lon="14.252288112410978"><ele>51.4</ele><time>2026-04-11T16:41:20.001Z</time></trkpt><trkpt lat="41.12311523747797" lon="14.252406675743353"><ele>51.6</ele><time>2026-04-11T16:41:22.001Z</time></trkpt><trkpt lat="41.12302302198499" lon="14.252464892545252"><ele>51.8</ele><time>2026-04-11T16:41:23.001Z</time></trkpt><trkpt lat="41.12293482202746" lon="14.252526129011912"><ele>52.0</ele><time>2026-04-11T16:41:24.001Z</time></trkpt><trkpt lat="41.12282822517522" lon="14.2525901790743"><ele>52.0</ele><time>2026-04-11T16:41:25.001Z</time></trkpt><trkpt lat="41.12273266209888" lon="14.252670759142148"><ele>52.0</ele><time>2026-04-11T16:41:26.001Z</time></trkpt><trkpt lat="41.12264619758938" lon="14.252721272487223"><ele>52.0</ele><time>2026-04-11T16:41:27.001Z</time></trkpt><trkpt lat="41.12254989835535" lon="14.252784160785165"><ele>52.0</ele><time>2026-04-11T16:41:28.001Z</time></trkpt><trkpt lat="41.122457177374045" lon="14.252861451252665"><ele>52.0</ele><time>2026-04-11T16:41:29.001Z</time></trkpt><trkpt lat="41.12235990334664" lon="14.252943051291885"><ele>51.8</ele><time>2026-04-11T16:41:30.001Z</time></trkpt><trkpt lat="41.12228543583844" lon="14.253010554277363"><ele>51.6</ele><time>2026-04-11T16:41:31.001Z</time></trkpt><trkpt lat="41.122208103084844" lon="14.253061118312486"><ele>51.4</ele><time>2026-04-11T16:41:32.001Z</time></trkpt><trkpt lat="41.12214046836027" lon="14.253105567126356"><ele>51.199999999999996</ele><time>2026-04-11T16:41:33.001Z</time></trkpt><trkpt lat="41.1220165072791" lon="14.253179812366707"><ele>51.0</ele><time>2026-04-11T16:41:35.001Z</time></trkpt><trkpt lat="41.12194287276084" lon="14.253229367600978"><ele>51.4</ele><time>2026-04-11T16:41:36.001Z</time></trkpt><trkpt lat="41.12184978044644" lon="14.253279531947403"><ele>51.8</ele><time>2026-04-11T16:41:37Z</time></trkpt><trkpt lat="41.12176689025373" lon="14.253355091058658"><ele>52.199999999999996</ele><time>2026-04-11T16:41:38Z</time></trkpt><trkpt lat="41.121655672109604" lon="14.253425109691431"><ele>52.599999999999994</ele><time>2026-04-11T16:41:39Z</time></trkpt><trkpt lat="41.12156135213693" lon="14.25349752433673"><ele>53.0</ele><time>2026-04-11T16:41:40Z</time></trkpt><trkpt lat="41.12148573565003" lon="14.253555579237744"><ele>53.0</ele><time>2026-04-11T16:41:41Z</time></trkpt><trkpt lat="41.12142217121539" lon="14.253604419775318"><ele>53.0</ele><time>2026-04-11T16:41:42Z</time></trkpt><trkpt lat="41.121364509672134" lon="14.253649052505907"><ele>53.0</ele><time>2026-04-11T16:41:43Z</time></trkpt><trkpt lat="41.121301208521274" lon="14.253697693279333"><ele>53.0</ele><time>2026-04-11T16:41:44Z</time></trkpt><trkpt lat="41.121233630204905" lon="14.25374833188655"><ele>53.0</ele><time>2026-04-11T16:41:45Z</time></trkpt><trkpt lat="41.121165498037264" lon="14.253797749072545"><ele>53.0</ele><time>2026-04-11T16:41:46Z</time></trkpt><trkpt lat="41.12109613293143" lon="14.253849354592505"><ele>53.0</ele><time>2026-04-11T16:41:47Z</time></trkpt><trkpt lat="41.12102267449381" lon="14.253903514185563"><ele>53.00000000000001</ele><time>2026-04-11T16:41:48Z</time></trkpt><trkpt lat="41.12097375180136" lon="14.253969466637164"><ele>53.0</ele><time>2026-04-11T16:41:49Z</time></trkpt><trkpt lat="41.120873302755896" lon="14.254070620918666"><ele>53.0</ele><time>2026-04-11T16:41:51Z</time></trkpt><trkpt lat="41.120818528369945" lon="14.254143488562994"><ele>53.0</ele><time>2026-04-11T16:41:52Z</time></trkpt><trkpt lat="41.12075763178994" lon="14.254203616535108"><ele>53.00000000000001</ele><time>2026-04-11T16:41:53Z</time></trkpt><trkpt lat="41.12069951477442" lon="14.254256401809565"><ele>53.0</ele><time>2026-04-11T16:41:54Z</time></trkpt><trkpt lat="41.12064070701234" lon="14.254318503169436"><ele>53.2</ele><time>2026-04-11T16:41:55Z</time></trkpt><trkpt lat="41.12054304919861" lon="14.254346753623725"><ele>53.4</ele><time>2026-04-11T16:41:56Z</time></trkpt><trkpt lat="41.12047478527165" lon="14.25437903362741"><ele>53.60000000000001</ele><time>2026-04-11T16:41:57Z</time></trkpt><trkpt lat="41.12036328779935" lon="14.254443269918038"><ele>53.800000000000004</ele><time>2026-04-11T16:41:59Z</time></trkpt><trkpt lat="41.12027743039208" lon="14.254483852290564"><ele>54.0</ele><time>2026-04-11T16:42:00Z</time></trkpt><trkpt lat="41.12020792182543" lon="14.254515928084182"><ele>54.0</ele><time>2026-04-11T16:42:01Z</time></trkpt><trkpt lat="41.12012012568578" lon="14.254548978206898"><ele>54.00000000000001</ele><time>2026-04-11T16:42:03Z</time></trkpt><trkpt lat="41.12006279201058" lon="14.254585059282695"><ele>54.00000000000001</ele><time>2026-04-11T16:42:06Z</time></trkpt><trkpt lat="41.12007474202111" lon="14.254781380887918"><ele>54.0</ele><time>2026-04-11T16:42:07Z</time></trkpt><trkpt lat="41.120101251106966" lon="14.254874225886585"><ele>54.0</ele><time>2026-04-11T16:42:08Z</time></trkpt><trkpt lat="41.12012999432449" lon="14.254961803841235"><ele>54.5</ele><time>2026-04-11T16:42:09Z</time></trkpt><trkpt lat="41.12015609297911" lon="14.2550452107151"><ele>55.0</ele><time>2026-04-11T16:42:10Z</time></trkpt><trkpt lat="41.120178399042196" lon="14.255161682966936"><ele>55.5</ele><time>2026-04-11T16:42:12Z</time></trkpt><trkpt lat="41.12026450862266" lon="14.255145069497988"><ele>56.0</ele><time>2026-04-11T16:42:18Z</time></trkpt><trkpt lat="41.12026077021119" lon="14.255045846466192"><ele>56.5</ele><time>2026-04-11T16:42:27Z</time></trkpt><trkpt lat="41.12019981092265" lon="14.255010819914595"><ele>57.0</ele><time>2026-04-11T16:42:29Z</time></trkpt><trkpt lat="41.12033417795712" lon="14.254916571286637"><ele>57.0</ele><time>2026-04-11T16:44:34Z</time></trkpt></trkseg></trk></gpx>